<?xml version="1.0" encoding="UTF-8"?>
<gpx xmlns:xsi="http://www.w3.org/2001/XMLSchema-instance" xmlns="http://www.topografix.com/GPX/1/1" xsi:schemaLocation="http://www.topografix.com/GPX/1/1 http://www.topografix.com/GPX/1/1/gpx.xsd http://www.garmin.com/xmlschemas/GpxExtensions/v3 http://www.garmin.com/xmlschemas/GpxExtensionsv3.xsd http://www.garmin.com/xmlschemas/TrackPointExtension/v1 http://www.garmin.com/xmlschemas/TrackPointExtensionv1.xsd http://www.topografix.com/GPX/gpx_style/0/2 http://www.topografix.com/GPX/gpx_style/0/2/gpx_style.xsd" xmlns:gpxtpx="http://www.garmin.com/xmlschemas/TrackPointExtension/v1" xmlns:gpxx="http://www.garmin.com/xmlschemas/GpxExtensions/v3" xmlns:gpx_style="http://www.topografix.com/GPX/gpx_style/0/2" version="1.1" creator="Alpha 50 EU">
<metadata>
    <name>Буба 2</name>
    <author>
        <name>gpx.studio</name>
        <link href="https://gpx.studio"></link>
    </author>
</metadata>
<trk>
    <name>Буба</name>
    <type>Cycling</type>
    <trkseg>
    <trkpt lat="59.0924119949" lon="29.9879550934">
        <ele>0.0</ele>
        <time>2026-04-25T12:44:34.000Z</time>
    </trkpt>
    <trkpt lat="59.0924119949" lon="29.9879550934">
        <ele>0.0</ele>
        <time>2026-04-25T12:44:37.000Z</time>
    </trkpt>
    <trkpt lat="59.0924978256" lon="29.9881696701">
        <ele>0.0</ele>
        <time>2026-04-25T12:44:39.000Z</time>
    </trkpt>
    <trkpt lat="59.092540741" lon="29.9883198738">
        <ele>0.0</ele>
        <time>2026-04-25T12:44:42.000Z</time>
    </trkpt>
    <trkpt lat="59.0925621986" lon="29.9883842468">
        <ele>0.0</ele>
        <time>2026-04-25T12:44:44.000Z</time>
    </trkpt>
    <trkpt lat="59.0925621986" lon="29.9884057045">
        <ele>0.0</ele>
        <time>2026-04-25T12:44:47.000Z</time>
    </trkpt>
    <trkpt lat="59.0925621986" lon="29.9884057045">
        <ele>0.0</ele>
        <time>2026-04-25T12:44:49.000Z</time>
    </trkpt>
    <trkpt lat="59.0925621986" lon="29.9884057045">
        <ele>0.0</ele>
        <time>2026-04-25T12:44:52.000Z</time>
    </trkpt>
    <trkpt lat="59.0925621986" lon="29.9883842468">
        <ele>0.0</ele>
        <time>2026-04-25T12:44:54.000Z</time>
    </trkpt>
    <trkpt lat="59.092540741" lon="29.9883198738">
        <ele>0.0</ele>
        <time>2026-04-25T12:44:57.000Z</time>
    </trkpt>
    <trkpt lat="59.092540741" lon="29.9883198738">
        <ele>0.0</ele>
        <time>2026-04-25T12:44:59.000Z</time>
    </trkpt>
    <trkpt lat="59.092540741" lon="29.9882984161">
        <ele>0.0</ele>
        <time>2026-04-25T12:45:02.000Z</time>
    </trkpt>
    <trkpt lat="59.092540741" lon="29.9882984161">
        <ele>0.0</ele>
        <time>2026-04-25T12:45:04.000Z</time>
    </trkpt>
    <trkpt lat="59.092540741" lon="29.9883627892">
        <ele>0.0</ele>
        <time>2026-04-25T12:45:07.000Z</time>
    </trkpt>
    <trkpt lat="59.092605114" lon="29.9886631966">
        <ele>0.0</ele>
        <time>2026-04-25T12:45:09.000Z</time>
    </trkpt>
    <trkpt lat="59.0926480293" lon="29.9888348579">
        <ele>0.0</ele>
        <time>2026-04-25T12:45:12.000Z</time>
    </trkpt>
    <trkpt lat="59.0926909447" lon="29.9889421463">
        <ele>0.0</ele>
        <time>2026-04-25T12:45:14.000Z</time>
    </trkpt>
    <trkpt lat="59.0926909447" lon="29.9889421463">
        <ele>0.0</ele>
        <time>2026-04-25T12:45:17.000Z</time>
    </trkpt>
    <trkpt lat="59.0926909447" lon="29.9889421463">
        <ele>0.0</ele>
        <time>2026-04-25T12:45:19.000Z</time>
    </trkpt>
    <trkpt lat="59.0926909447" lon="29.9889850616">
        <ele>0.0</ele>
        <time>2026-04-25T12:45:22.000Z</time>
    </trkpt>
    <trkpt lat="59.0926909447" lon="29.9890065193">
        <ele>0.0</ele>
        <time>2026-04-25T12:45:24.000Z</time>
    </trkpt>
    <trkpt lat="59.0926909447" lon="29.9890494347">
        <ele>0.0</ele>
        <time>2026-04-25T12:45:27.000Z</time>
    </trkpt>
    <trkpt lat="59.09273386" lon="29.9891781807">
        <ele>0.0</ele>
        <time>2026-04-25T12:45:29.000Z</time>
    </trkpt>
    <trkpt lat="59.09273386" lon="29.9891781807">
        <ele>0.0</ele>
        <time>2026-04-25T12:45:32.000Z</time>
    </trkpt>
    <trkpt lat="59.0927553177" lon="29.989156723">
        <ele>0.0</ele>
        <time>2026-04-25T12:45:34.000Z</time>
    </trkpt>
    <trkpt lat="59.0927553177" lon="29.989156723">
        <ele>0.0</ele>
        <time>2026-04-25T12:45:37.000Z</time>
    </trkpt>
    <trkpt lat="59.0927553177" lon="29.989156723">
        <ele>0.0</ele>
        <time>2026-04-25T12:45:39.000Z</time>
    </trkpt>
    <trkpt lat="59.0927553177" lon="29.989156723">
        <ele>0.0</ele>
        <time>2026-04-25T12:45:42.000Z</time>
    </trkpt>
    <trkpt lat="59.09273386" lon="29.9891781807">
        <ele>0.0</ele>
        <time>2026-04-25T12:45:44.000Z</time>
    </trkpt>
    <trkpt lat="59.09273386" lon="29.9891996384">
        <ele>0.0</ele>
        <time>2026-04-25T12:45:47.000Z</time>
    </trkpt>
    <trkpt lat="59.09273386" lon="29.989221096">
        <ele>0.0</ele>
        <time>2026-04-25T12:45:49.000Z</time>
    </trkpt>
    <trkpt lat="59.09273386" lon="29.9892425537">
        <ele>0.0</ele>
        <time>2026-04-25T12:45:52.000Z</time>
    </trkpt>
    <trkpt lat="59.09273386" lon="29.9892425537">
        <ele>0.0</ele>
        <time>2026-04-25T12:45:54.000Z</time>
    </trkpt>
    <trkpt lat="59.0927553177" lon="29.9894142151">
        <ele>0.0</ele>
        <time>2026-04-25T12:45:57.000Z</time>
    </trkpt>
    <trkpt lat="59.0927767754" lon="29.9895215034">
        <ele>0.0</ele>
        <time>2026-04-25T12:45:59.000Z</time>
    </trkpt>
    <trkpt lat="59.0927553177" lon="29.9895000458">
        <ele>0.0</ele>
        <time>2026-04-25T12:46:02.000Z</time>
    </trkpt>
    <trkpt lat="59.0927553177" lon="29.9894785881">
        <ele>0.0</ele>
        <time>2026-04-25T12:46:04.000Z</time>
    </trkpt>
    <trkpt lat="59.0927553177" lon="29.9894785881">
        <ele>0.0</ele>
        <time>2026-04-25T12:46:07.000Z</time>
    </trkpt>
    <trkpt lat="59.0927767754" lon="29.9895215034">
        <ele>0.0</ele>
        <time>2026-04-25T12:46:09.000Z</time>
    </trkpt>
    <trkpt lat="59.0927767754" lon="29.9895429611">
        <ele>0.0</ele>
        <time>2026-04-25T12:46:12.000Z</time>
    </trkpt>
    <trkpt lat="59.0928411484" lon="29.9895215034">
        <ele>0.0</ele>
        <time>2026-04-25T12:46:14.000Z</time>
    </trkpt>
    <trkpt lat="59.092862606" lon="29.9895215034">
        <ele>0.0</ele>
        <time>2026-04-25T12:46:17.000Z</time>
    </trkpt>
    <trkpt lat="59.092862606" lon="29.9895215034">
        <ele>0.0</ele>
        <time>2026-04-25T12:46:19.000Z</time>
    </trkpt>
    <trkpt lat="59.092862606" lon="29.9894785881">
        <ele>0.0</ele>
        <time>2026-04-25T12:46:22.000Z</time>
    </trkpt>
    <trkpt lat="59.092862606" lon="29.9894785881">
        <ele>0.0</ele>
        <time>2026-04-25T12:46:24.000Z</time>
    </trkpt>
    <trkpt lat="59.0928840637" lon="29.9894785881">
        <ele>0.0</ele>
        <time>2026-04-25T12:46:27.000Z</time>
    </trkpt>
    <trkpt lat="59.0928840637" lon="29.9894571304">
        <ele>0.0</ele>
        <time>2026-04-25T12:46:29.000Z</time>
    </trkpt>
    <trkpt lat="59.0928840637" lon="29.9894571304">
        <ele>0.0</ele>
        <time>2026-04-25T12:46:32.000Z</time>
    </trkpt>
    <trkpt lat="59.0929055214" lon="29.9894571304">
        <ele>0.0</ele>
        <time>2026-04-25T12:46:34.000Z</time>
    </trkpt>
    <trkpt lat="59.0929055214" lon="29.9894571304">
        <ele>0.0</ele>
        <time>2026-04-25T12:46:37.000Z</time>
    </trkpt>
    <trkpt lat="59.0929055214" lon="29.9894571304">
        <ele>0.0</ele>
        <time>2026-04-25T12:46:39.000Z</time>
    </trkpt>
    <trkpt lat="59.0928840637" lon="29.9894356728">
        <ele>0.0</ele>
        <time>2026-04-25T12:46:42.000Z</time>
    </trkpt>
    <trkpt lat="59.0928840637" lon="29.9894356728">
        <ele>0.0</ele>
        <time>2026-04-25T12:46:44.000Z</time>
    </trkpt>
    <trkpt lat="59.0928840637" lon="29.9894356728">
        <ele>0.0</ele>
        <time>2026-04-25T12:46:47.000Z</time>
    </trkpt>
    <trkpt lat="59.092798233" lon="29.9895000458">
        <ele>0.0</ele>
        <time>2026-04-25T12:46:49.000Z</time>
    </trkpt>
    <trkpt lat="59.0927767754" lon="29.9895429611">
        <ele>0.0</ele>
        <time>2026-04-25T12:46:52.000Z</time>
    </trkpt>
    <trkpt lat="59.0927767754" lon="29.9895644188">
        <ele>0.0</ele>
        <time>2026-04-25T12:46:54.000Z</time>
    </trkpt>
    <trkpt lat="59.0927767754" lon="29.9895858765">
        <ele>0.0</ele>
        <time>2026-04-25T12:46:57.000Z</time>
    </trkpt>
    <trkpt lat="59.0927767754" lon="29.9895858765">
        <ele>0.0</ele>
        <time>2026-04-25T12:46:59.000Z</time>
    </trkpt>
    <trkpt lat="59.0927767754" lon="29.9896073341">
        <ele>0.0</ele>
        <time>2026-04-25T12:47:02.000Z</time>
    </trkpt>
    <trkpt lat="59.0927767754" lon="29.9895429611">
        <ele>0.0</ele>
        <time>2026-04-25T12:47:04.000Z</time>
    </trkpt>
    <trkpt lat="59.09273386" lon="29.9893927574">
        <ele>0.0</ele>
        <time>2026-04-25T12:47:07.000Z</time>
    </trkpt>
    <trkpt lat="59.09273386" lon="29.9894356728">
        <ele>0.0</ele>
        <time>2026-04-25T12:47:09.000Z</time>
    </trkpt>
    <trkpt lat="59.09273386" lon="29.9894356728">
        <ele>0.0</ele>
        <time>2026-04-25T12:47:12.000Z</time>
    </trkpt>
    <trkpt lat="59.0927553177" lon="29.9894785881">
        <ele>0.0</ele>
        <time>2026-04-25T12:47:14.000Z</time>
    </trkpt>
    <trkpt lat="59.0927553177" lon="29.9895215034">
        <ele>0.0</ele>
        <time>2026-04-25T12:47:17.000Z</time>
    </trkpt>
    <trkpt lat="59.0927767754" lon="29.9895858765">
        <ele>0.0</ele>
        <time>2026-04-25T12:47:19.000Z</time>
    </trkpt>
    <trkpt lat="59.0927767754" lon="29.9895858765">
        <ele>0.0</ele>
        <time>2026-04-25T12:47:22.000Z</time>
    </trkpt>
    <trkpt lat="59.0927767754" lon="29.9895858765">
        <ele>0.0</ele>
        <time>2026-04-25T12:47:24.000Z</time>
    </trkpt>
    <trkpt lat="59.0927767754" lon="29.9895858765">
        <ele>0.0</ele>
        <time>2026-04-25T12:47:27.000Z</time>
    </trkpt>
    <trkpt lat="59.0927767754" lon="29.9895644188">
        <ele>0.0</ele>
        <time>2026-04-25T12:47:29.000Z</time>
    </trkpt>
    <trkpt lat="59.0927767754" lon="29.9895644188">
        <ele>0.0</ele>
        <time>2026-04-25T12:47:32.000Z</time>
    </trkpt>
    <trkpt lat="59.092798233" lon="29.9895644188">
        <ele>0.0</ele>
        <time>2026-04-25T12:47:34.000Z</time>
    </trkpt>
    <trkpt lat="59.092798233" lon="29.9895644188">
        <ele>0.0</ele>
        <time>2026-04-25T12:47:37.000Z</time>
    </trkpt>
    <trkpt lat="59.0928196907" lon="29.9895644188">
        <ele>0.0</ele>
        <time>2026-04-25T12:47:39.000Z</time>
    </trkpt>
    <trkpt lat="59.0928196907" lon="29.9895429611">
        <ele>0.0</ele>
        <time>2026-04-25T12:47:42.000Z</time>
    </trkpt>
    <trkpt lat="59.0928411484" lon="29.9895429611">
        <ele>0.0</ele>
        <time>2026-04-25T12:47:44.000Z</time>
    </trkpt>
    <trkpt lat="59.0928411484" lon="29.9895644188">
        <ele>0.0</ele>
        <time>2026-04-25T12:47:47.000Z</time>
    </trkpt>
    <trkpt lat="59.0928411484" lon="29.9895644188">
        <ele>0.0</ele>
        <time>2026-04-25T12:47:49.000Z</time>
    </trkpt>
    <trkpt lat="59.0928411484" lon="29.9895644188">
        <ele>0.0</ele>
        <time>2026-04-25T12:47:52.000Z</time>
    </trkpt>
    <trkpt lat="59.0928196907" lon="29.9895215034">
        <ele>0.0</ele>
        <time>2026-04-25T12:47:54.000Z</time>
    </trkpt>
    <trkpt lat="59.0927767754" lon="29.9895644188">
        <ele>0.0</ele>
        <time>2026-04-25T12:47:57.000Z</time>
    </trkpt>
    <trkpt lat="59.092798233" lon="29.9897789955">
        <ele>0.0</ele>
        <time>2026-04-25T12:47:59.000Z</time>
    </trkpt>
    <trkpt lat="59.092798233" lon="29.9897575378">
        <ele>0.0</ele>
        <time>2026-04-25T12:48:02.000Z</time>
    </trkpt>
    <trkpt lat="59.092798233" lon="29.9897360802">
        <ele>0.0</ele>
        <time>2026-04-25T12:48:04.000Z</time>
    </trkpt>
    <trkpt lat="59.092798233" lon="29.9897360802">
        <ele>0.0</ele>
        <time>2026-04-25T12:48:07.000Z</time>
    </trkpt>
    <trkpt lat="59.092798233" lon="29.9897360802">
        <ele>0.0</ele>
        <time>2026-04-25T12:48:09.000Z</time>
    </trkpt>
    <trkpt lat="59.092798233" lon="29.9897360802">
        <ele>0.0</ele>
        <time>2026-04-25T12:48:12.000Z</time>
    </trkpt>
    <trkpt lat="59.092798233" lon="29.9898219109">
        <ele>0.0</ele>
        <time>2026-04-25T12:48:14.000Z</time>
    </trkpt>
    <trkpt lat="59.0928196907" lon="29.9898862839">
        <ele>0.0</ele>
        <time>2026-04-25T12:48:17.000Z</time>
    </trkpt>
    <trkpt lat="59.0928196907" lon="29.9899077415">
        <ele>0.0</ele>
        <time>2026-04-25T12:48:19.000Z</time>
    </trkpt>
    <trkpt lat="59.0928196907" lon="29.9899077415">
        <ele>0.0</ele>
        <time>2026-04-25T12:48:22.000Z</time>
    </trkpt>
    <trkpt lat="59.0928411484" lon="29.9899077415">
        <ele>0.0</ele>
        <time>2026-04-25T12:48:24.000Z</time>
    </trkpt>
    <trkpt lat="59.0928840637" lon="29.9899077415">
        <ele>0.0</ele>
        <time>2026-04-25T12:48:27.000Z</time>
    </trkpt>
    <trkpt lat="59.0928840637" lon="29.9899077415">
        <ele>0.0</ele>
        <time>2026-04-25T12:48:29.000Z</time>
    </trkpt>
    <trkpt lat="59.0928840637" lon="29.9899077415">
        <ele>0.0</ele>
        <time>2026-04-25T12:48:32.000Z</time>
    </trkpt>
    <trkpt lat="59.0929055214" lon="29.9899077415">
        <ele>0.0</ele>
        <time>2026-04-25T12:48:34.000Z</time>
    </trkpt>
    <trkpt lat="59.0929269791" lon="29.9899077415">
        <ele>0.0</ele>
        <time>2026-04-25T12:48:37.000Z</time>
    </trkpt>
    <trkpt lat="59.0929269791" lon="29.9898862839">
        <ele>0.0</ele>
        <time>2026-04-25T12:48:39.000Z</time>
    </trkpt>
    <trkpt lat="59.0929269791" lon="29.9898862839">
        <ele>0.0</ele>
        <time>2026-04-25T12:48:42.000Z</time>
    </trkpt>
    <trkpt lat="59.0928840637" lon="29.9899077415">
        <ele>0.0</ele>
        <time>2026-04-25T12:48:44.000Z</time>
    </trkpt>
    <trkpt lat="59.0928411484" lon="29.9899935722">
        <ele>0.0</ele>
        <time>2026-04-25T12:48:49.000Z</time>
    </trkpt>
    <trkpt lat="59.0928411484" lon="29.9899935722">
        <ele>0.0</ele>
        <time>2026-04-25T12:48:52.000Z</time>
    </trkpt>
    <trkpt lat="59.092862606" lon="29.9899935722">
        <ele>0.0</ele>
        <time>2026-04-25T12:48:54.000Z</time>
    </trkpt>
    <trkpt lat="59.092862606" lon="29.9899935722">
        <ele>0.0</ele>
        <time>2026-04-25T12:48:57.000Z</time>
    </trkpt>
    <trkpt lat="59.0928840637" lon="29.9899935722">
        <ele>0.0</ele>
        <time>2026-04-25T12:48:59.000Z</time>
    </trkpt>
    <trkpt lat="59.092862606" lon="29.9899935722">
        <ele>0.0</ele>
        <time>2026-04-25T12:49:02.000Z</time>
    </trkpt>
    <trkpt lat="59.0928196907" lon="29.9900150299">
        <ele>0.0</ele>
        <time>2026-04-25T12:49:04.000Z</time>
    </trkpt>
    <trkpt lat="59.0928196907" lon="29.9900150299">
        <ele>0.0</ele>
        <time>2026-04-25T12:49:07.000Z</time>
    </trkpt>
    <trkpt lat="59.0928196907" lon="29.9900150299">
        <ele>0.0</ele>
        <time>2026-04-25T12:49:09.000Z</time>
    </trkpt>
    <trkpt lat="59.092862606" lon="29.9899935722">
        <ele>0.0</ele>
        <time>2026-04-25T12:49:12.000Z</time>
    </trkpt>
    <trkpt lat="59.0928411484" lon="29.9900579453">
        <ele>0.0</ele>
        <time>2026-04-25T12:49:14.000Z</time>
    </trkpt>
    <trkpt lat="59.0928411484" lon="29.9900579453">
        <ele>0.0</ele>
        <time>2026-04-25T12:49:17.000Z</time>
    </trkpt>
    <trkpt lat="59.0928411484" lon="29.9899721146">
        <ele>0.0</ele>
        <time>2026-04-25T12:49:19.000Z</time>
    </trkpt>
    <trkpt lat="59.092862606" lon="29.9900364876">
        <ele>0.0</ele>
        <time>2026-04-25T12:49:22.000Z</time>
    </trkpt>
    <trkpt lat="59.0929055214" lon="29.9901652336">
        <ele>0.0</ele>
        <time>2026-04-25T12:49:24.000Z</time>
    </trkpt>
    <trkpt lat="59.0928840637" lon="29.9901437759">
        <ele>0.0</ele>
        <time>2026-04-25T12:49:27.000Z</time>
    </trkpt>
    <trkpt lat="59.0928840637" lon="29.9901437759">
        <ele>0.0</ele>
        <time>2026-04-25T12:49:29.000Z</time>
    </trkpt>
    <trkpt lat="59.0928840637" lon="29.9901437759">
        <ele>0.0</ele>
        <time>2026-04-25T12:49:32.000Z</time>
    </trkpt>
    <trkpt lat="59.0928840637" lon="29.9901437759">
        <ele>0.0</ele>
        <time>2026-04-25T12:49:34.000Z</time>
    </trkpt>
    <trkpt lat="59.0928840637" lon="29.9901652336">
        <ele>0.0</ele>
        <time>2026-04-25T12:49:37.000Z</time>
    </trkpt>
    <trkpt lat="59.0929269791" lon="29.9904227257">
        <ele>0.0</ele>
        <time>2026-04-25T12:49:39.000Z</time>
    </trkpt>
    <trkpt lat="59.0929055214" lon="29.9905514717">
        <ele>0.0</ele>
        <time>2026-04-25T12:49:42.000Z</time>
    </trkpt>
    <trkpt lat="59.0928840637" lon="29.9905514717">
        <ele>0.0</ele>
        <time>2026-04-25T12:49:44.000Z</time>
    </trkpt>
    <trkpt lat="59.0929055214" lon="29.9905729294">
        <ele>0.0</ele>
        <time>2026-04-25T12:49:47.000Z</time>
    </trkpt>
    <trkpt lat="59.0929698944" lon="29.9906587601">
        <ele>0.0</ele>
        <time>2026-04-25T12:49:49.000Z</time>
    </trkpt>
    <trkpt lat="59.0929698944" lon="29.9906587601">
        <ele>0.0</ele>
        <time>2026-04-25T12:49:52.000Z</time>
    </trkpt>
    <trkpt lat="59.0929698944" lon="29.9906587601">
        <ele>0.0</ele>
        <time>2026-04-25T12:49:54.000Z</time>
    </trkpt>
    <trkpt lat="59.0929698944" lon="29.9906587601">
        <ele>0.0</ele>
        <time>2026-04-25T12:49:57.000Z</time>
    </trkpt>
    <trkpt lat="59.0929913521" lon="29.9906802177">
        <ele>0.0</ele>
        <time>2026-04-25T12:49:59.000Z</time>
    </trkpt>
    <trkpt lat="59.0930128098" lon="29.9908089638">
        <ele>0.0</ele>
        <time>2026-04-25T12:50:02.000Z</time>
    </trkpt>
    <trkpt lat="59.0930557251" lon="29.9910020828">
        <ele>0.0</ele>
        <time>2026-04-25T12:50:04.000Z</time>
    </trkpt>
    <trkpt lat="59.0930771828" lon="29.9910664558">
        <ele>0.0</ele>
        <time>2026-04-25T12:50:07.000Z</time>
    </trkpt>
    <trkpt lat="59.0930771828" lon="29.9910664558">
        <ele>0.0</ele>
        <time>2026-04-25T12:50:09.000Z</time>
    </trkpt>
    <trkpt lat="59.0930771828" lon="29.9911522865">
        <ele>0.0</ele>
        <time>2026-04-25T12:50:12.000Z</time>
    </trkpt>
    <trkpt lat="59.0930771828" lon="29.9911952019">
        <ele>0.0</ele>
        <time>2026-04-25T12:50:14.000Z</time>
    </trkpt>
    <trkpt lat="59.0930986404" lon="29.9912381172">
        <ele>0.0</ele>
        <time>2026-04-25T12:50:17.000Z</time>
    </trkpt>
    <trkpt lat="59.0930986404" lon="29.9912595749">
        <ele>0.0</ele>
        <time>2026-04-25T12:50:19.000Z</time>
    </trkpt>
    <trkpt lat="59.0930986404" lon="29.9912595749">
        <ele>0.0</ele>
        <time>2026-04-25T12:50:22.000Z</time>
    </trkpt>
    <trkpt lat="59.0931200981" lon="29.9913454056">
        <ele>0.0</ele>
        <time>2026-04-25T12:50:24.000Z</time>
    </trkpt>
    <trkpt lat="59.0931200981" lon="29.9914312363">
        <ele>0.0</ele>
        <time>2026-04-25T12:50:27.000Z</time>
    </trkpt>
    <trkpt lat="59.0931415558" lon="29.9915599823">
        <ele>0.0</ele>
        <time>2026-04-25T12:50:29.000Z</time>
    </trkpt>
    <trkpt lat="59.0931630135" lon="29.9916243553">
        <ele>0.0</ele>
        <time>2026-04-25T12:50:32.000Z</time>
    </trkpt>
    <trkpt lat="59.0931844711" lon="29.9916672707">
        <ele>0.0</ele>
        <time>2026-04-25T12:50:34.000Z</time>
    </trkpt>
    <trkpt lat="59.0931844711" lon="29.991710186">
        <ele>0.0</ele>
        <time>2026-04-25T12:50:37.000Z</time>
    </trkpt>
    <trkpt lat="59.0932059288" lon="29.9917960167">
        <ele>0.0</ele>
        <time>2026-04-25T12:50:39.000Z</time>
    </trkpt>
    <trkpt lat="59.0932273865" lon="29.9919033051">
        <ele>0.0</ele>
        <time>2026-04-25T12:50:44.000Z</time>
    </trkpt>
    <trkpt lat="59.0932273865" lon="29.9919676781">
        <ele>0.0</ele>
        <time>2026-04-25T12:50:47.000Z</time>
    </trkpt>
    <trkpt lat="59.0932488441" lon="29.9920320511">
        <ele>0.0</ele>
        <time>2026-04-25T12:50:49.000Z</time>
    </trkpt>
    <trkpt lat="59.0932488441" lon="29.9920964241">
        <ele>0.0</ele>
        <time>2026-04-25T12:50:52.000Z</time>
    </trkpt>
    <trkpt lat="59.0932488441" lon="29.9920964241">
        <ele>0.0</ele>
        <time>2026-04-25T12:50:54.000Z</time>
    </trkpt>
    <trkpt lat="59.0932488441" lon="29.9920964241">
        <ele>0.0</ele>
        <time>2026-04-25T12:50:57.000Z</time>
    </trkpt>
    <trkpt lat="59.0932488441" lon="29.9920964241">
        <ele>0.0</ele>
        <time>2026-04-25T12:50:59.000Z</time>
    </trkpt>
    <trkpt lat="59.0932488441" lon="29.9920964241">
        <ele>0.0</ele>
        <time>2026-04-25T12:51:02.000Z</time>
    </trkpt>
    <trkpt lat="59.0932488441" lon="29.9920964241">
        <ele>0.0</ele>
        <time>2026-04-25T12:51:04.000Z</time>
    </trkpt>
    <trkpt lat="59.0932488441" lon="29.9920964241">
        <ele>0.0</ele>
        <time>2026-04-25T12:51:07.000Z</time>
    </trkpt>
    <trkpt lat="59.0932488441" lon="29.9920964241">
        <ele>0.0</ele>
        <time>2026-04-25T12:51:09.000Z</time>
    </trkpt>
    <trkpt lat="59.0932488441" lon="29.9920964241">
        <ele>0.0</ele>
        <time>2026-04-25T12:51:12.000Z</time>
    </trkpt>
    <trkpt lat="59.0932488441" lon="29.9920964241">
        <ele>0.0</ele>
        <time>2026-04-25T12:51:14.000Z</time>
    </trkpt>
    <trkpt lat="59.0932488441" lon="29.9921607971">
        <ele>0.0</ele>
        <time>2026-04-25T12:51:17.000Z</time>
    </trkpt>
    <trkpt lat="59.0933346748" lon="29.9925470352">
        <ele>0.0</ele>
        <time>2026-04-25T12:51:19.000Z</time>
    </trkpt>
    <trkpt lat="59.0933561325" lon="29.9928045273">
        <ele>0.0</ele>
        <time>2026-04-25T12:51:22.000Z</time>
    </trkpt>
    <trkpt lat="59.0934205055" lon="29.993083477">
        <ele>0.0</ele>
        <time>2026-04-25T12:51:24.000Z</time>
    </trkpt>
    <trkpt lat="59.0934419632" lon="29.9932122231">
        <ele>0.0</ele>
        <time>2026-04-25T12:51:27.000Z</time>
    </trkpt>
    <trkpt lat="59.0934634209" lon="29.9933195114">
        <ele>0.0</ele>
        <time>2026-04-25T12:51:29.000Z</time>
    </trkpt>
    <trkpt lat="59.0934634209" lon="29.9933195114">
        <ele>0.0</ele>
        <time>2026-04-25T12:51:32.000Z</time>
    </trkpt>
    <trkpt lat="59.0934634209" lon="29.9933195114">
        <ele>0.0</ele>
        <time>2026-04-25T12:51:34.000Z</time>
    </trkpt>
    <trkpt lat="59.0934634209" lon="29.9933195114">
        <ele>0.0</ele>
        <time>2026-04-25T12:51:37.000Z</time>
    </trkpt>
    <trkpt lat="59.0934848785" lon="29.9933195114">
        <ele>0.0</ele>
        <time>2026-04-25T12:51:39.000Z</time>
    </trkpt>
    <trkpt lat="59.0934848785" lon="29.9933195114">
        <ele>0.0</ele>
        <time>2026-04-25T12:51:42.000Z</time>
    </trkpt>
    <trkpt lat="59.0934634209" lon="29.9933624268">
        <ele>0.0</ele>
        <time>2026-04-25T12:51:44.000Z</time>
    </trkpt>
    <trkpt lat="59.0934634209" lon="29.9934482574">
        <ele>0.0</ele>
        <time>2026-04-25T12:51:47.000Z</time>
    </trkpt>
    <trkpt lat="59.0934634209" lon="29.9935340881">
        <ele>0.0</ele>
        <time>2026-04-25T12:51:49.000Z</time>
    </trkpt>
    <trkpt lat="59.0934634209" lon="29.9935340881">
        <ele>0.0</ele>
        <time>2026-04-25T12:51:52.000Z</time>
    </trkpt>
    <trkpt lat="59.0934848785" lon="29.9936199188">
        <ele>0.0</ele>
        <time>2026-04-25T12:51:54.000Z</time>
    </trkpt>
    <trkpt lat="59.0935063362" lon="29.9936842918">
        <ele>0.0</ele>
        <time>2026-04-25T12:51:57.000Z</time>
    </trkpt>
    <trkpt lat="59.0935063362" lon="29.9937915802">
        <ele>0.0</ele>
        <time>2026-04-25T12:51:59.000Z</time>
    </trkpt>
    <trkpt lat="59.0935277939" lon="29.9938559532">
        <ele>0.0</ele>
        <time>2026-04-25T12:52:02.000Z</time>
    </trkpt>
    <trkpt lat="59.0935492516" lon="29.9938988686">
        <ele>0.0</ele>
        <time>2026-04-25T12:52:04.000Z</time>
    </trkpt>
    <trkpt lat="59.0935492516" lon="29.9938988686">
        <ele>0.0</ele>
        <time>2026-04-25T12:52:07.000Z</time>
    </trkpt>
    <trkpt lat="59.0935492516" lon="29.9938774109">
        <ele>0.0</ele>
        <time>2026-04-25T12:52:09.000Z</time>
    </trkpt>
    <trkpt lat="59.0935921669" lon="29.9939417839">
        <ele>0.0</ele>
        <time>2026-04-25T12:52:12.000Z</time>
    </trkpt>
    <trkpt lat="59.0936565399" lon="29.9939846992">
        <ele>0.0</ele>
        <time>2026-04-25T12:52:14.000Z</time>
    </trkpt>
    <trkpt lat="59.0936994553" lon="29.9940705299">
        <ele>0.0</ele>
        <time>2026-04-25T12:52:17.000Z</time>
    </trkpt>
    <trkpt lat="59.0936350822" lon="29.994134903">
        <ele>0.0</ele>
        <time>2026-04-25T12:52:19.000Z</time>
    </trkpt>
    <trkpt lat="59.0935921669" lon="29.9941563606">
        <ele>0.0</ele>
        <time>2026-04-25T12:52:22.000Z</time>
    </trkpt>
    <trkpt lat="59.0936136246" lon="29.994328022">
        <ele>0.0</ele>
        <time>2026-04-25T12:52:24.000Z</time>
    </trkpt>
    <trkpt lat="59.0936136246" lon="29.994392395">
        <ele>0.0</ele>
        <time>2026-04-25T12:52:27.000Z</time>
    </trkpt>
    <trkpt lat="59.0936136246" lon="29.9944138527">
        <ele>0.0</ele>
        <time>2026-04-25T12:52:29.000Z</time>
    </trkpt>
    <trkpt lat="59.0936136246" lon="29.9944138527">
        <ele>0.0</ele>
        <time>2026-04-25T12:52:32.000Z</time>
    </trkpt>
    <trkpt lat="59.0936136246" lon="29.9944138527">
        <ele>0.0</ele>
        <time>2026-04-25T12:52:34.000Z</time>
    </trkpt>
    <trkpt lat="59.0936136246" lon="29.9944138527">
        <ele>0.0</ele>
        <time>2026-04-25T12:52:37.000Z</time>
    </trkpt>
    <trkpt lat="59.0936136246" lon="29.994456768">
        <ele>0.0</ele>
        <time>2026-04-25T12:52:39.000Z</time>
    </trkpt>
    <trkpt lat="59.0936350822" lon="29.9944996834">
        <ele>0.0</ele>
        <time>2026-04-25T12:52:42.000Z</time>
    </trkpt>
    <trkpt lat="59.0936565399" lon="29.9945855141">
        <ele>0.0</ele>
        <time>2026-04-25T12:52:44.000Z</time>
    </trkpt>
    <trkpt lat="59.0936779976" lon="29.9946284294">
        <ele>0.0</ele>
        <time>2026-04-25T12:52:47.000Z</time>
    </trkpt>
    <trkpt lat="59.0936565399" lon="29.9946713448">
        <ele>0.0</ele>
        <time>2026-04-25T12:52:49.000Z</time>
    </trkpt>
    <trkpt lat="59.0936779976" lon="29.9947357178">
        <ele>0.0</ele>
        <time>2026-04-25T12:52:52.000Z</time>
    </trkpt>
    <trkpt lat="59.0937209129" lon="29.9948215485">
        <ele>0.0</ele>
        <time>2026-04-25T12:52:54.000Z</time>
    </trkpt>
    <trkpt lat="59.0937423706" lon="29.9948644638">
        <ele>0.0</ele>
        <time>2026-04-25T12:52:57.000Z</time>
    </trkpt>
    <trkpt lat="59.0937423706" lon="29.9948430061">
        <ele>0.0</ele>
        <time>2026-04-25T12:52:59.000Z</time>
    </trkpt>
    <trkpt lat="59.0937423706" lon="29.9948430061">
        <ele>0.0</ele>
        <time>2026-04-25T12:53:02.000Z</time>
    </trkpt>
    <trkpt lat="59.0937423706" lon="29.9948430061">
        <ele>0.0</ele>
        <time>2026-04-25T12:53:04.000Z</time>
    </trkpt>
    <trkpt lat="59.0937638283" lon="29.9949288368">
        <ele>0.0</ele>
        <time>2026-04-25T12:53:07.000Z</time>
    </trkpt>
    <trkpt lat="59.0937852859" lon="29.9950361252">
        <ele>0.0</ele>
        <time>2026-04-25T12:53:09.000Z</time>
    </trkpt>
    <trkpt lat="59.0938067436" lon="29.9950575829">
        <ele>0.0</ele>
        <time>2026-04-25T12:53:12.000Z</time>
    </trkpt>
    <trkpt lat="59.0937852859" lon="29.9950361252">
        <ele>0.0</ele>
        <time>2026-04-25T12:53:14.000Z</time>
    </trkpt>
    <trkpt lat="59.0937852859" lon="29.9950575829">
        <ele>0.0</ele>
        <time>2026-04-25T12:53:17.000Z</time>
    </trkpt>
    <trkpt lat="59.0937852859" lon="29.9950575829">
        <ele>0.0</ele>
        <time>2026-04-25T12:53:19.000Z</time>
    </trkpt>
    <trkpt lat="59.0937852859" lon="29.9950575829">
        <ele>0.0</ele>
        <time>2026-04-25T12:53:22.000Z</time>
    </trkpt>
    <trkpt lat="59.0937852859" lon="29.9950790405">
        <ele>0.0</ele>
        <time>2026-04-25T12:53:24.000Z</time>
    </trkpt>
    <trkpt lat="59.0938067436" lon="29.9951648712">
        <ele>0.0</ele>
        <time>2026-04-25T12:53:27.000Z</time>
    </trkpt>
    <trkpt lat="59.093849659" lon="29.9954867363">
        <ele>0.0</ele>
        <time>2026-04-25T12:53:29.000Z</time>
    </trkpt>
    <trkpt lat="59.0938711166" lon="29.9956154823">
        <ele>0.0</ele>
        <time>2026-04-25T12:53:32.000Z</time>
    </trkpt>
    <trkpt lat="59.0938925743" lon="29.9957227707">
        <ele>0.0</ele>
        <time>2026-04-25T12:53:34.000Z</time>
    </trkpt>
    <trkpt lat="59.093914032" lon="29.9957227707">
        <ele>0.0</ele>
        <time>2026-04-25T12:53:37.000Z</time>
    </trkpt>
    <trkpt lat="59.0938925743" lon="29.9957442284">
        <ele>0.0</ele>
        <time>2026-04-25T12:53:39.000Z</time>
    </trkpt>
    <trkpt lat="59.093914032" lon="29.9958086014">
        <ele>0.0</ele>
        <time>2026-04-25T12:53:42.000Z</time>
    </trkpt>
    <trkpt lat="59.093914032" lon="29.9959158897">
        <ele>0.0</ele>
        <time>2026-04-25T12:53:44.000Z</time>
    </trkpt>
    <trkpt lat="59.0939354897" lon="29.9959588051">
        <ele>0.0</ele>
        <time>2026-04-25T12:53:47.000Z</time>
    </trkpt>
    <trkpt lat="59.0939354897" lon="29.9960446358">
        <ele>0.0</ele>
        <time>2026-04-25T12:53:49.000Z</time>
    </trkpt>
    <trkpt lat="59.0939569473" lon="29.9961090088">
        <ele>0.0</ele>
        <time>2026-04-25T12:53:52.000Z</time>
    </trkpt>
    <trkpt lat="59.0939569473" lon="29.9961948395">
        <ele>0.0</ele>
        <time>2026-04-25T12:53:54.000Z</time>
    </trkpt>
    <trkpt lat="59.093978405" lon="29.9962592125">
        <ele>0.0</ele>
        <time>2026-04-25T12:53:57.000Z</time>
    </trkpt>
    <trkpt lat="59.093978405" lon="29.9963450432">
        <ele>0.0</ele>
        <time>2026-04-25T12:53:59.000Z</time>
    </trkpt>
    <trkpt lat="59.093978405" lon="29.9963021278">
        <ele>0.0</ele>
        <time>2026-04-25T12:54:02.000Z</time>
    </trkpt>
    <trkpt lat="59.093978405" lon="29.9962592125">
        <ele>0.0</ele>
        <time>2026-04-25T12:54:04.000Z</time>
    </trkpt>
    <trkpt lat="59.093978405" lon="29.9962592125">
        <ele>0.0</ele>
        <time>2026-04-25T12:54:07.000Z</time>
    </trkpt>
    <trkpt lat="59.093978405" lon="29.9963021278">
        <ele>0.0</ele>
        <time>2026-04-25T12:54:09.000Z</time>
    </trkpt>
    <trkpt lat="59.0939998627" lon="29.9963879585">
        <ele>0.0</ele>
        <time>2026-04-25T12:54:12.000Z</time>
    </trkpt>
    <trkpt lat="59.094042778" lon="29.9964952469">
        <ele>0.0</ele>
        <time>2026-04-25T12:54:14.000Z</time>
    </trkpt>
    <trkpt lat="59.094042778" lon="29.9965810776">
        <ele>0.0</ele>
        <time>2026-04-25T12:54:17.000Z</time>
    </trkpt>
    <trkpt lat="59.0940642357" lon="29.9966669083">
        <ele>0.0</ele>
        <time>2026-04-25T12:54:19.000Z</time>
    </trkpt>
    <trkpt lat="59.0940642357" lon="29.9967312813">
        <ele>0.0</ele>
        <time>2026-04-25T12:54:22.000Z</time>
    </trkpt>
    <trkpt lat="59.0940856934" lon="29.9967956543">
        <ele>0.0</ele>
        <time>2026-04-25T12:54:24.000Z</time>
    </trkpt>
    <trkpt lat="59.0940856934" lon="29.9968600273">
        <ele>0.0</ele>
        <time>2026-04-25T12:54:27.000Z</time>
    </trkpt>
    <trkpt lat="59.094107151" lon="29.9969887733">
        <ele>0.0</ele>
        <time>2026-04-25T12:54:29.000Z</time>
    </trkpt>
    <trkpt lat="59.094107151" lon="29.997010231">
        <ele>0.0</ele>
        <time>2026-04-25T12:54:32.000Z</time>
    </trkpt>
    <trkpt lat="59.094107151" lon="29.997010231">
        <ele>0.0</ele>
        <time>2026-04-25T12:54:34.000Z</time>
    </trkpt>
    <trkpt lat="59.0941286087" lon="29.997074604">
        <ele>0.0</ele>
        <time>2026-04-25T12:54:37.000Z</time>
    </trkpt>
    <trkpt lat="59.0941286087" lon="29.9971175194">
        <ele>0.0</ele>
        <time>2026-04-25T12:54:39.000Z</time>
    </trkpt>
    <trkpt lat="59.094107151" lon="29.9970960617">
        <ele>0.0</ele>
        <time>2026-04-25T12:54:42.000Z</time>
    </trkpt>
    <trkpt lat="59.0940856934" lon="29.997074604">
        <ele>0.0</ele>
        <time>2026-04-25T12:54:44.000Z</time>
    </trkpt>
    <trkpt lat="59.0940856934" lon="29.9970960617">
        <ele>0.0</ele>
        <time>2026-04-25T12:54:47.000Z</time>
    </trkpt>
    <trkpt lat="59.0940856934" lon="29.9970960617">
        <ele>0.0</ele>
        <time>2026-04-25T12:54:49.000Z</time>
    </trkpt>
    <trkpt lat="59.0940642357" lon="29.9970960617">
        <ele>0.0</ele>
        <time>2026-04-25T12:54:52.000Z</time>
    </trkpt>
    <trkpt lat="59.0940642357" lon="29.9970960617">
        <ele>0.0</ele>
        <time>2026-04-25T12:54:54.000Z</time>
    </trkpt>
    <trkpt lat="59.094042778" lon="29.9970960617">
        <ele>0.0</ele>
        <time>2026-04-25T12:54:57.000Z</time>
    </trkpt>
    <trkpt lat="59.0939998627" lon="29.9971175194">
        <ele>0.0</ele>
        <time>2026-04-25T12:54:59.000Z</time>
    </trkpt>
    <trkpt lat="59.093978405" lon="29.9971389771">
        <ele>0.0</ele>
        <time>2026-04-25T12:55:02.000Z</time>
    </trkpt>
    <trkpt lat="59.093978405" lon="29.9971389771">
        <ele>0.0</ele>
        <time>2026-04-25T12:55:04.000Z</time>
    </trkpt>
    <trkpt lat="59.0939569473" lon="29.9971604347">
        <ele>0.0</ele>
        <time>2026-04-25T12:55:07.000Z</time>
    </trkpt>
    <trkpt lat="59.0939569473" lon="29.9972248077">
        <ele>0.0</ele>
        <time>2026-04-25T12:55:09.000Z</time>
    </trkpt>
    <trkpt lat="59.0939569473" lon="29.9972462654">
        <ele>0.0</ele>
        <time>2026-04-25T12:55:12.000Z</time>
    </trkpt>
    <trkpt lat="59.093914032" lon="29.9972891808">
        <ele>0.0</ele>
        <time>2026-04-25T12:55:14.000Z</time>
    </trkpt>
    <trkpt lat="59.093914032" lon="29.9973320961">
        <ele>0.0</ele>
        <time>2026-04-25T12:55:17.000Z</time>
    </trkpt>
    <trkpt lat="59.093914032" lon="29.9973320961">
        <ele>0.0</ele>
        <time>2026-04-25T12:55:19.000Z</time>
    </trkpt>
    <trkpt lat="59.093914032" lon="29.9973320961">
        <ele>0.0</ele>
        <time>2026-04-25T12:55:22.000Z</time>
    </trkpt>
    <trkpt lat="59.093914032" lon="29.9973320961">
        <ele>0.0</ele>
        <time>2026-04-25T12:55:24.000Z</time>
    </trkpt>
    <trkpt lat="59.0938925743" lon="29.9973535538">
        <ele>0.0</ele>
        <time>2026-04-25T12:55:27.000Z</time>
    </trkpt>
    <trkpt lat="59.093849659" lon="29.9973535538">
        <ele>0.0</ele>
        <time>2026-04-25T12:55:29.000Z</time>
    </trkpt>
    <trkpt lat="59.093849659" lon="29.9973535538">
        <ele>0.0</ele>
        <time>2026-04-25T12:55:32.000Z</time>
    </trkpt>
    <trkpt lat="59.0937638283" lon="29.9974393845">
        <ele>0.0</ele>
        <time>2026-04-25T12:55:34.000Z</time>
    </trkpt>
    <trkpt lat="59.0937423706" lon="29.9975037575">
        <ele>0.0</ele>
        <time>2026-04-25T12:55:37.000Z</time>
    </trkpt>
    <trkpt lat="59.0937423706" lon="29.9975252151">
        <ele>0.0</ele>
        <time>2026-04-25T12:55:39.000Z</time>
    </trkpt>
    <trkpt lat="59.0937423706" lon="29.9975252151">
        <ele>0.0</ele>
        <time>2026-04-25T12:55:42.000Z</time>
    </trkpt>
    <trkpt lat="59.0937423706" lon="29.9975681305">
        <ele>0.0</ele>
        <time>2026-04-25T12:55:44.000Z</time>
    </trkpt>
    <trkpt lat="59.0937209129" lon="29.9975895882">
        <ele>0.0</ele>
        <time>2026-04-25T12:55:47.000Z</time>
    </trkpt>
    <trkpt lat="59.0936779976" lon="29.9976754189">
        <ele>0.0</ele>
        <time>2026-04-25T12:55:49.000Z</time>
    </trkpt>
    <trkpt lat="59.0935921669" lon="29.9976968765">
        <ele>0.0</ele>
        <time>2026-04-25T12:55:52.000Z</time>
    </trkpt>
    <trkpt lat="59.0935277939" lon="29.9976325035">
        <ele>0.0</ele>
        <time>2026-04-25T12:55:54.000Z</time>
    </trkpt>
    <trkpt lat="59.0934848785" lon="29.9976325035">
        <ele>0.0</ele>
        <time>2026-04-25T12:55:57.000Z</time>
    </trkpt>
    <trkpt lat="59.0934634209" lon="29.9976110458">
        <ele>0.0</ele>
        <time>2026-04-25T12:55:59.000Z</time>
    </trkpt>
    <trkpt lat="59.0934205055" lon="29.9975895882">
        <ele>0.0</ele>
        <time>2026-04-25T12:56:02.000Z</time>
    </trkpt>
    <trkpt lat="59.0934419632" lon="29.9976110458">
        <ele>0.0</ele>
        <time>2026-04-25T12:56:04.000Z</time>
    </trkpt>
    <trkpt lat="59.0934848785" lon="29.9976539612">
        <ele>0.0</ele>
        <time>2026-04-25T12:56:07.000Z</time>
    </trkpt>
    <trkpt lat="59.0935707092" lon="29.9976968765">
        <ele>0.0</ele>
        <time>2026-04-25T12:56:09.000Z</time>
    </trkpt>
    <trkpt lat="59.0936565399" lon="29.9976968765">
        <ele>0.0</ele>
        <time>2026-04-25T12:56:12.000Z</time>
    </trkpt>
    <trkpt lat="59.0937423706" lon="29.9975895882">
        <ele>0.0</ele>
        <time>2026-04-25T12:56:14.000Z</time>
    </trkpt>
    <trkpt lat="59.0938711166" lon="29.9973535538">
        <ele>0.0</ele>
        <time>2026-04-25T12:56:19.000Z</time>
    </trkpt>
    <trkpt lat="59.0939569473" lon="29.9972462654">
        <ele>0.0</ele>
        <time>2026-04-25T12:56:22.000Z</time>
    </trkpt>
    <trkpt lat="59.0940213203" lon="29.9971604347">
        <ele>0.0</ele>
        <time>2026-04-25T12:56:24.000Z</time>
    </trkpt>
    <trkpt lat="59.0940213203" lon="29.9971604347">
        <ele>0.0</ele>
        <time>2026-04-25T12:56:27.000Z</time>
    </trkpt>
    <trkpt lat="59.0940213203" lon="29.9971604347">
        <ele>0.0</ele>
        <time>2026-04-25T12:56:29.000Z</time>
    </trkpt>
    <trkpt lat="59.0940213203" lon="29.9971389771">
        <ele>0.0</ele>
        <time>2026-04-25T12:56:32.000Z</time>
    </trkpt>
    <trkpt lat="59.0940213203" lon="29.9971389771">
        <ele>0.0</ele>
        <time>2026-04-25T12:56:34.000Z</time>
    </trkpt>
    <trkpt lat="59.0940213203" lon="29.9971389771">
        <ele>0.0</ele>
        <time>2026-04-25T12:56:37.000Z</time>
    </trkpt>
    <trkpt lat="59.0940213203" lon="29.9971818924">
        <ele>0.0</ele>
        <time>2026-04-25T12:56:39.000Z</time>
    </trkpt>
    <trkpt lat="59.0939998627" lon="29.9971389771">
        <ele>0.0</ele>
        <time>2026-04-25T12:56:42.000Z</time>
    </trkpt>
    <trkpt lat="59.093978405" lon="29.9971604347">
        <ele>0.0</ele>
        <time>2026-04-25T12:56:44.000Z</time>
    </trkpt>
    <trkpt lat="59.093978405" lon="29.9971818924">
        <ele>0.0</ele>
        <time>2026-04-25T12:56:47.000Z</time>
    </trkpt>
    <trkpt lat="59.0939569473" lon="29.9972248077">
        <ele>0.0</ele>
        <time>2026-04-25T12:56:49.000Z</time>
    </trkpt>
    <trkpt lat="59.0939354897" lon="29.9972677231">
        <ele>0.0</ele>
        <time>2026-04-25T12:56:52.000Z</time>
    </trkpt>
    <trkpt lat="59.0939354897" lon="29.9972891808">
        <ele>0.0</ele>
        <time>2026-04-25T12:56:54.000Z</time>
    </trkpt>
    <trkpt lat="59.0938925743" lon="29.9972891808">
        <ele>0.0</ele>
        <time>2026-04-25T12:56:57.000Z</time>
    </trkpt>
    <trkpt lat="59.0938711166" lon="29.9972677231">
        <ele>0.0</ele>
        <time>2026-04-25T12:56:59.000Z</time>
    </trkpt>
    <trkpt lat="59.0938711166" lon="29.9972677231">
        <ele>0.0</ele>
        <time>2026-04-25T12:57:02.000Z</time>
    </trkpt>
    <trkpt lat="59.0938711166" lon="29.9973320961">
        <ele>0.0</ele>
        <time>2026-04-25T12:57:04.000Z</time>
    </trkpt>
    <trkpt lat="59.0938711166" lon="29.9973535538">
        <ele>0.0</ele>
        <time>2026-04-25T12:57:07.000Z</time>
    </trkpt>
    <trkpt lat="59.093849659" lon="29.9974179268">
        <ele>0.0</ele>
        <time>2026-04-25T12:57:09.000Z</time>
    </trkpt>
    <trkpt lat="59.0938711166" lon="29.9974608421">
        <ele>0.0</ele>
        <time>2026-04-25T12:57:12.000Z</time>
    </trkpt>
    <trkpt lat="59.093849659" lon="29.9975252151">
        <ele>0.0</ele>
        <time>2026-04-25T12:57:14.000Z</time>
    </trkpt>
    <trkpt lat="59.093849659" lon="29.9975681305">
        <ele>0.0</ele>
        <time>2026-04-25T12:57:17.000Z</time>
    </trkpt>
    <trkpt lat="59.093849659" lon="29.9976968765">
        <ele>0.0</ele>
        <time>2026-04-25T12:57:19.000Z</time>
    </trkpt>
    <trkpt lat="59.0938067436" lon="29.9978041649">
        <ele>0.0</ele>
        <time>2026-04-25T12:57:22.000Z</time>
    </trkpt>
    <trkpt lat="59.0937852859" lon="29.9978685379">
        <ele>0.0</ele>
        <time>2026-04-25T12:57:24.000Z</time>
    </trkpt>
    <trkpt lat="59.0937638283" lon="29.9978470802">
        <ele>0.0</ele>
        <time>2026-04-25T12:57:27.000Z</time>
    </trkpt>
    <trkpt lat="59.0937423706" lon="29.9977612495">
        <ele>0.0</ele>
        <time>2026-04-25T12:57:29.000Z</time>
    </trkpt>
    <trkpt lat="59.0937209129" lon="29.9977612495">
        <ele>0.0</ele>
        <time>2026-04-25T12:57:32.000Z</time>
    </trkpt>
    <trkpt lat="59.0937209129" lon="29.9977612495">
        <ele>0.0</ele>
        <time>2026-04-25T12:57:34.000Z</time>
    </trkpt>
    <trkpt lat="59.0937209129" lon="29.9977183342">
        <ele>0.0</ele>
        <time>2026-04-25T12:57:37.000Z</time>
    </trkpt>
    <trkpt lat="59.0936994553" lon="29.9976968765">
        <ele>0.0</ele>
        <time>2026-04-25T12:57:39.000Z</time>
    </trkpt>
    <trkpt lat="59.0936994553" lon="29.9976968765">
        <ele>0.0</ele>
        <time>2026-04-25T12:57:42.000Z</time>
    </trkpt>
    <trkpt lat="59.0936994553" lon="29.9976968765">
        <ele>0.0</ele>
        <time>2026-04-25T12:57:44.000Z</time>
    </trkpt>
    <trkpt lat="59.0936994553" lon="29.9976968765">
        <ele>0.0</ele>
        <time>2026-04-25T12:57:47.000Z</time>
    </trkpt>
    <trkpt lat="59.0936994553" lon="29.9976968765">
        <ele>0.0</ele>
        <time>2026-04-25T12:57:49.000Z</time>
    </trkpt>
    <trkpt lat="59.0936994553" lon="29.9976968765">
        <ele>0.0</ele>
        <time>2026-04-25T12:57:52.000Z</time>
    </trkpt>
    <trkpt lat="59.0936994553" lon="29.9976539612">
        <ele>0.0</ele>
        <time>2026-04-25T12:57:54.000Z</time>
    </trkpt>
    <trkpt lat="59.0937209129" lon="29.9976325035">
        <ele>0.0</ele>
        <time>2026-04-25T12:57:57.000Z</time>
    </trkpt>
    <trkpt lat="59.0937209129" lon="29.9975681305">
        <ele>0.0</ele>
        <time>2026-04-25T12:57:59.000Z</time>
    </trkpt>
    <trkpt lat="59.0937209129" lon="29.9975466728">
        <ele>0.0</ele>
        <time>2026-04-25T12:58:02.000Z</time>
    </trkpt>
    <trkpt lat="59.0937209129" lon="29.9974822998">
        <ele>0.0</ele>
        <time>2026-04-25T12:58:04.000Z</time>
    </trkpt>
    <trkpt lat="59.0937423706" lon="29.9974393845">
        <ele>0.0</ele>
        <time>2026-04-25T12:58:07.000Z</time>
    </trkpt>
    <trkpt lat="59.0937638283" lon="29.9974393845">
        <ele>0.0</ele>
        <time>2026-04-25T12:58:09.000Z</time>
    </trkpt>
    <trkpt lat="59.0937638283" lon="29.9974608421">
        <ele>0.0</ele>
        <time>2026-04-25T12:58:12.000Z</time>
    </trkpt>
    <trkpt lat="59.0937638283" lon="29.9974822998">
        <ele>0.0</ele>
        <time>2026-04-25T12:58:14.000Z</time>
    </trkpt>
    <trkpt lat="59.0937638283" lon="29.9974608421">
        <ele>0.0</ele>
        <time>2026-04-25T12:58:17.000Z</time>
    </trkpt>
    <trkpt lat="59.0937638283" lon="29.9974393845">
        <ele>0.0</ele>
        <time>2026-04-25T12:58:19.000Z</time>
    </trkpt>
    <trkpt lat="59.0937638283" lon="29.9974393845">
        <ele>0.0</ele>
        <time>2026-04-25T12:58:22.000Z</time>
    </trkpt>
    <trkpt lat="59.0937209129" lon="29.9974822998">
        <ele>0.0</ele>
        <time>2026-04-25T12:58:24.000Z</time>
    </trkpt>
    <trkpt lat="59.0936994553" lon="29.9975037575">
        <ele>0.0</ele>
        <time>2026-04-25T12:58:27.000Z</time>
    </trkpt>
    <trkpt lat="59.0936779976" lon="29.9975681305">
        <ele>0.0</ele>
        <time>2026-04-25T12:58:29.000Z</time>
    </trkpt>
    <trkpt lat="59.0936565399" lon="29.9975895882">
        <ele>0.0</ele>
        <time>2026-04-25T12:58:32.000Z</time>
    </trkpt>
    <trkpt lat="59.0936565399" lon="29.9976110458">
        <ele>0.0</ele>
        <time>2026-04-25T12:58:34.000Z</time>
    </trkpt>
    <trkpt lat="59.0936565399" lon="29.9976325035">
        <ele>0.0</ele>
        <time>2026-04-25T12:58:37.000Z</time>
    </trkpt>
    <trkpt lat="59.0936565399" lon="29.9976754189">
        <ele>0.0</ele>
        <time>2026-04-25T12:58:39.000Z</time>
    </trkpt>
    <trkpt lat="59.0936565399" lon="29.9976968765">
        <ele>0.0</ele>
        <time>2026-04-25T12:58:42.000Z</time>
    </trkpt>
    <trkpt lat="59.0936350822" lon="29.9977183342">
        <ele>0.0</ele>
        <time>2026-04-25T12:58:44.000Z</time>
    </trkpt>
    <trkpt lat="59.0936136246" lon="29.9977397919">
        <ele>0.0</ele>
        <time>2026-04-25T12:58:47.000Z</time>
    </trkpt>
    <trkpt lat="59.0935707092" lon="29.9977827072">
        <ele>0.0</ele>
        <time>2026-04-25T12:58:49.000Z</time>
    </trkpt>
    <trkpt lat="59.0935492516" lon="29.9977612495">
        <ele>0.0</ele>
        <time>2026-04-25T12:58:52.000Z</time>
    </trkpt>
    <trkpt lat="59.0935277939" lon="29.9976968765">
        <ele>0.0</ele>
        <time>2026-04-25T12:58:54.000Z</time>
    </trkpt>
    <trkpt lat="59.0935492516" lon="29.9976539612">
        <ele>0.0</ele>
        <time>2026-04-25T12:58:57.000Z</time>
    </trkpt>
    <trkpt lat="59.0935492516" lon="29.9976325035">
        <ele>0.0</ele>
        <time>2026-04-25T12:58:59.000Z</time>
    </trkpt>
    <trkpt lat="59.0935277939" lon="29.9976754189">
        <ele>0.0</ele>
        <time>2026-04-25T12:59:02.000Z</time>
    </trkpt>
    <trkpt lat="59.0935063362" lon="29.9977827072">
        <ele>0.0</ele>
        <time>2026-04-25T12:59:04.000Z</time>
    </trkpt>
    <trkpt lat="59.0934848785" lon="29.9978041649">
        <ele>0.0</ele>
        <time>2026-04-25T12:59:07.000Z</time>
    </trkpt>
    <trkpt lat="59.0934848785" lon="29.9978041649">
        <ele>0.0</ele>
        <time>2026-04-25T12:59:09.000Z</time>
    </trkpt>
    <trkpt lat="59.0934848785" lon="29.9978041649">
        <ele>0.0</ele>
        <time>2026-04-25T12:59:12.000Z</time>
    </trkpt>
    <trkpt lat="59.0934848785" lon="29.9977612495">
        <ele>0.0</ele>
        <time>2026-04-25T12:59:14.000Z</time>
    </trkpt>
    <trkpt lat="59.0934419632" lon="29.9976754189">
        <ele>0.0</ele>
        <time>2026-04-25T12:59:17.000Z</time>
    </trkpt>
    <trkpt lat="59.0933990479" lon="29.9976325035">
        <ele>0.0</ele>
        <time>2026-04-25T12:59:19.000Z</time>
    </trkpt>
    <trkpt lat="59.0933990479" lon="29.9975681305">
        <ele>0.0</ele>
        <time>2026-04-25T12:59:22.000Z</time>
    </trkpt>
    <trkpt lat="59.0933775902" lon="29.9974822998">
        <ele>0.0</ele>
        <time>2026-04-25T12:59:24.000Z</time>
    </trkpt>
    <trkpt lat="59.0933561325" lon="29.9975252151">
        <ele>0.0</ele>
        <time>2026-04-25T12:59:27.000Z</time>
    </trkpt>
    <trkpt lat="59.0933132172" lon="29.9975681305">
        <ele>0.0</ele>
        <time>2026-04-25T12:59:29.000Z</time>
    </trkpt>
    <trkpt lat="59.0932917595" lon="29.9975895882">
        <ele>0.0</ele>
        <time>2026-04-25T12:59:32.000Z</time>
    </trkpt>
    <trkpt lat="59.0932488441" lon="29.9976110458">
        <ele>0.0</ele>
        <time>2026-04-25T12:59:34.000Z</time>
    </trkpt>
    <trkpt lat="59.0932488441" lon="29.9976110458">
        <ele>0.0</ele>
        <time>2026-04-25T12:59:37.000Z</time>
    </trkpt>
    <trkpt lat="59.0932059288" lon="29.9976539612">
        <ele>0.0</ele>
        <time>2026-04-25T12:59:39.000Z</time>
    </trkpt>
    <trkpt lat="59.0931844711" lon="29.9976968765">
        <ele>0.0</ele>
        <time>2026-04-25T12:59:42.000Z</time>
    </trkpt>
    <trkpt lat="59.0931630135" lon="29.9976968765">
        <ele>0.0</ele>
        <time>2026-04-25T12:59:44.000Z</time>
    </trkpt>
    <trkpt lat="59.0931844711" lon="29.9976754189">
        <ele>0.0</ele>
        <time>2026-04-25T12:59:47.000Z</time>
    </trkpt>
    <trkpt lat="59.0931630135" lon="29.9976754189">
        <ele>0.0</ele>
        <time>2026-04-25T12:59:49.000Z</time>
    </trkpt>
    <trkpt lat="59.0931630135" lon="29.9976539612">
        <ele>0.0</ele>
        <time>2026-04-25T12:59:52.000Z</time>
    </trkpt>
    <trkpt lat="59.0931844711" lon="29.9976754189">
        <ele>0.0</ele>
        <time>2026-04-25T12:59:54.000Z</time>
    </trkpt>
    <trkpt lat="59.0932488441" lon="29.9976539612">
        <ele>0.0</ele>
        <time>2026-04-25T12:59:57.000Z</time>
    </trkpt>
    <trkpt lat="59.0932488441" lon="29.9976754189">
        <ele>0.0</ele>
        <time>2026-04-25T12:59:59.000Z</time>
    </trkpt>
    <trkpt lat="59.0932273865" lon="29.9976539612">
        <ele>0.0</ele>
        <time>2026-04-25T13:00:02.000Z</time>
    </trkpt>
    <trkpt lat="59.0932059288" lon="29.9976325035">
        <ele>0.0</ele>
        <time>2026-04-25T13:00:04.000Z</time>
    </trkpt>
    <trkpt lat="59.0931844711" lon="29.9976539612">
        <ele>0.0</ele>
        <time>2026-04-25T13:00:07.000Z</time>
    </trkpt>
    <trkpt lat="59.0931630135" lon="29.9976325035">
        <ele>0.0</ele>
        <time>2026-04-25T13:00:09.000Z</time>
    </trkpt>
    <trkpt lat="59.0931415558" lon="29.9976325035">
        <ele>0.0</ele>
        <time>2026-04-25T13:00:12.000Z</time>
    </trkpt>
    <trkpt lat="59.0931415558" lon="29.9976325035">
        <ele>0.0</ele>
        <time>2026-04-25T13:00:14.000Z</time>
    </trkpt>
    <trkpt lat="59.0931415558" lon="29.9976325035">
        <ele>0.0</ele>
        <time>2026-04-25T13:00:17.000Z</time>
    </trkpt>
    <trkpt lat="59.0931630135" lon="29.9975895882">
        <ele>0.0</ele>
        <time>2026-04-25T13:00:19.000Z</time>
    </trkpt>
    <trkpt lat="59.0931630135" lon="29.9975895882">
        <ele>0.0</ele>
        <time>2026-04-25T13:00:22.000Z</time>
    </trkpt>
    <trkpt lat="59.0931630135" lon="29.9976110458">
        <ele>0.0</ele>
        <time>2026-04-25T13:00:24.000Z</time>
    </trkpt>
    <trkpt lat="59.0931630135" lon="29.9976110458">
        <ele>0.0</ele>
        <time>2026-04-25T13:00:27.000Z</time>
    </trkpt>
    <trkpt lat="59.0931630135" lon="29.9975895882">
        <ele>0.0</ele>
        <time>2026-04-25T13:00:29.000Z</time>
    </trkpt>
    <trkpt lat="59.0931630135" lon="29.9975895882">
        <ele>0.0</ele>
        <time>2026-04-25T13:00:32.000Z</time>
    </trkpt>
    <trkpt lat="59.0932059288" lon="29.9975895882">
        <ele>0.0</ele>
        <time>2026-04-25T13:00:34.000Z</time>
    </trkpt>
    <trkpt lat="59.0932488441" lon="29.9976539612">
        <ele>0.0</ele>
        <time>2026-04-25T13:00:37.000Z</time>
    </trkpt>
    <trkpt lat="59.0933775902" lon="29.9976968765">
        <ele>0.0</ele>
        <time>2026-04-25T13:00:39.000Z</time>
    </trkpt>
    <trkpt lat="59.0934205055" lon="29.9977183342">
        <ele>0.0</ele>
        <time>2026-04-25T13:00:42.000Z</time>
    </trkpt>
    <trkpt lat="59.0934419632" lon="29.9977397919">
        <ele>0.0</ele>
        <time>2026-04-25T13:00:44.000Z</time>
    </trkpt>
    <trkpt lat="59.0934634209" lon="29.9977183342">
        <ele>0.0</ele>
        <time>2026-04-25T13:00:47.000Z</time>
    </trkpt>
    <trkpt lat="59.0935492516" lon="29.9977397919">
        <ele>0.0</ele>
        <time>2026-04-25T13:00:49.000Z</time>
    </trkpt>
    <trkpt lat="59.0935707092" lon="29.9976968765">
        <ele>0.0</ele>
        <time>2026-04-25T13:00:52.000Z</time>
    </trkpt>
    <trkpt lat="59.0935707092" lon="29.9976968765">
        <ele>0.0</ele>
        <time>2026-04-25T13:00:54.000Z</time>
    </trkpt>
    <trkpt lat="59.0936565399" lon="29.9975895882">
        <ele>0.0</ele>
        <time>2026-04-25T13:00:57.000Z</time>
    </trkpt>
    <trkpt lat="59.0937209129" lon="29.9975252151">
        <ele>0.0</ele>
        <time>2026-04-25T13:00:59.000Z</time>
    </trkpt>
    <trkpt lat="59.0937209129" lon="29.9975252151">
        <ele>0.0</ele>
        <time>2026-04-25T13:01:02.000Z</time>
    </trkpt>
    <trkpt lat="59.0937209129" lon="29.9975252151">
        <ele>0.0</ele>
        <time>2026-04-25T13:01:04.000Z</time>
    </trkpt>
    <trkpt lat="59.0937209129" lon="29.9975252151">
        <ele>0.0</ele>
        <time>2026-04-25T13:01:07.000Z</time>
    </trkpt>
    <trkpt lat="59.0937209129" lon="29.9975252151">
        <ele>0.0</ele>
        <time>2026-04-25T13:01:09.000Z</time>
    </trkpt>
    <trkpt lat="59.0937209129" lon="29.9975252151">
        <ele>0.0</ele>
        <time>2026-04-25T13:01:12.000Z</time>
    </trkpt>
    <trkpt lat="59.0937209129" lon="29.9975252151">
        <ele>0.0</ele>
        <time>2026-04-25T13:01:14.000Z</time>
    </trkpt>
    <trkpt lat="59.0937209129" lon="29.9975252151">
        <ele>0.0</ele>
        <time>2026-04-25T13:01:17.000Z</time>
    </trkpt>
    <trkpt lat="59.0937209129" lon="29.9975252151">
        <ele>0.0</ele>
        <time>2026-04-25T13:01:19.000Z</time>
    </trkpt>
    <trkpt lat="59.0937209129" lon="29.9975252151">
        <ele>0.0</ele>
        <time>2026-04-25T13:01:22.000Z</time>
    </trkpt>
    <trkpt lat="59.0937209129" lon="29.9975252151">
        <ele>0.0</ele>
        <time>2026-04-25T13:01:24.000Z</time>
    </trkpt>
    <trkpt lat="59.0937209129" lon="29.9975252151">
        <ele>0.0</ele>
        <time>2026-04-25T13:01:27.000Z</time>
    </trkpt>
    <trkpt lat="59.0937209129" lon="29.9975252151">
        <ele>0.0</ele>
        <time>2026-04-25T13:01:29.000Z</time>
    </trkpt>
    <trkpt lat="59.0937209129" lon="29.9975252151">
        <ele>0.0</ele>
        <time>2026-04-25T13:01:32.000Z</time>
    </trkpt>
    <trkpt lat="59.0937209129" lon="29.9975252151">
        <ele>0.0</ele>
        <time>2026-04-25T13:01:34.000Z</time>
    </trkpt>
    <trkpt lat="59.0937209129" lon="29.9975252151">
        <ele>0.0</ele>
        <time>2026-04-25T13:01:37.000Z</time>
    </trkpt>
    <trkpt lat="59.0937209129" lon="29.9975252151">
        <ele>0.0</ele>
        <time>2026-04-25T13:01:39.000Z</time>
    </trkpt>
    <trkpt lat="59.0937209129" lon="29.9975252151">
        <ele>0.0</ele>
        <time>2026-04-25T13:01:42.000Z</time>
    </trkpt>
    <trkpt lat="59.0937209129" lon="29.9975252151">
        <ele>0.0</ele>
        <time>2026-04-25T13:01:44.000Z</time>
    </trkpt>
    <trkpt lat="59.0937209129" lon="29.9975252151">
        <ele>0.0</ele>
        <time>2026-04-25T13:01:47.000Z</time>
    </trkpt>
    <trkpt lat="59.0937209129" lon="29.9975252151">
        <ele>0.0</ele>
        <time>2026-04-25T13:01:49.000Z</time>
    </trkpt>
    <trkpt lat="59.0937209129" lon="29.9975252151">
        <ele>0.0</ele>
        <time>2026-04-25T13:01:52.000Z</time>
    </trkpt>
    <trkpt lat="59.0937209129" lon="29.9975252151">
        <ele>0.0</ele>
        <time>2026-04-25T13:01:54.000Z</time>
    </trkpt>
    <trkpt lat="59.0937209129" lon="29.9975252151">
        <ele>0.0</ele>
        <time>2026-04-25T13:01:57.000Z</time>
    </trkpt>
    <trkpt lat="59.0937209129" lon="29.9975252151">
        <ele>0.0</ele>
        <time>2026-04-25T13:01:59.000Z</time>
    </trkpt>
    <trkpt lat="59.0937209129" lon="29.9975252151">
        <ele>0.0</ele>
        <time>2026-04-25T13:02:02.000Z</time>
    </trkpt>
    <trkpt lat="59.0937638283" lon="29.9974608421">
        <ele>0.0</ele>
        <time>2026-04-25T13:02:04.000Z</time>
    </trkpt>
    <trkpt lat="59.093849659" lon="29.9973750114">
        <ele>0.0</ele>
        <time>2026-04-25T13:02:07.000Z</time>
    </trkpt>
    <trkpt lat="59.0939569473" lon="29.9972462654">
        <ele>0.0</ele>
        <time>2026-04-25T13:02:09.000Z</time>
    </trkpt>
    <trkpt lat="59.093978405" lon="29.9972248077">
        <ele>0.0</ele>
        <time>2026-04-25T13:02:12.000Z</time>
    </trkpt>
    <trkpt lat="59.093978405" lon="29.9972248077">
        <ele>0.0</ele>
        <time>2026-04-25T13:02:14.000Z</time>
    </trkpt>
    <trkpt lat="59.0939998627" lon="29.9971818924">
        <ele>0.0</ele>
        <time>2026-04-25T13:02:17.000Z</time>
    </trkpt>
    <trkpt lat="59.0939998627" lon="29.9971818924">
        <ele>0.0</ele>
        <time>2026-04-25T13:02:19.000Z</time>
    </trkpt>
    <trkpt lat="59.0940213203" lon="29.9971175194">
        <ele>0.0</ele>
        <time>2026-04-25T13:02:22.000Z</time>
    </trkpt>
    <trkpt lat="59.094042778" lon="29.9970960617">
        <ele>0.0</ele>
        <time>2026-04-25T13:02:24.000Z</time>
    </trkpt>
    <trkpt lat="59.0940642357" lon="29.9971389771">
        <ele>0.0</ele>
        <time>2026-04-25T13:02:27.000Z</time>
    </trkpt>
    <trkpt lat="59.0940642357" lon="29.9971175194">
        <ele>0.0</ele>
        <time>2026-04-25T13:02:29.000Z</time>
    </trkpt>
    <trkpt lat="59.0940642357" lon="29.9971175194">
        <ele>0.0</ele>
        <time>2026-04-25T13:02:32.000Z</time>
    </trkpt>
    <trkpt lat="59.0940642357" lon="29.9971175194">
        <ele>0.0</ele>
        <time>2026-04-25T13:02:34.000Z</time>
    </trkpt>
    <trkpt lat="59.0940642357" lon="29.9971175194">
        <ele>0.0</ele>
        <time>2026-04-25T13:02:37.000Z</time>
    </trkpt>
    <trkpt lat="59.094107151" lon="29.9972033501">
        <ele>0.0</ele>
        <time>2026-04-25T13:02:39.000Z</time>
    </trkpt>
    <trkpt lat="59.094107151" lon="29.9972248077">
        <ele>0.0</ele>
        <time>2026-04-25T13:02:42.000Z</time>
    </trkpt>
    <trkpt lat="59.0941286087" lon="29.9973106384">
        <ele>0.0</ele>
        <time>2026-04-25T13:02:44.000Z</time>
    </trkpt>
    <trkpt lat="59.094171524" lon="29.9974608421">
        <ele>0.0</ele>
        <time>2026-04-25T13:02:47.000Z</time>
    </trkpt>
    <trkpt lat="59.0942144394" lon="29.9976968765">
        <ele>0.0</ele>
        <time>2026-04-25T13:02:49.000Z</time>
    </trkpt>
    <trkpt lat="59.0942358971" lon="29.9977397919">
        <ele>0.0</ele>
        <time>2026-04-25T13:02:52.000Z</time>
    </trkpt>
    <trkpt lat="59.0942573547" lon="29.9977827072">
        <ele>0.0</ele>
        <time>2026-04-25T13:02:54.000Z</time>
    </trkpt>
    <trkpt lat="59.0942573547" lon="29.9978041649">
        <ele>0.0</ele>
        <time>2026-04-25T13:02:57.000Z</time>
    </trkpt>
    <trkpt lat="59.0942573547" lon="29.9978685379">
        <ele>0.0</ele>
        <time>2026-04-25T13:02:59.000Z</time>
    </trkpt>
    <trkpt lat="59.0942573547" lon="29.9979114532">
        <ele>0.0</ele>
        <time>2026-04-25T13:03:02.000Z</time>
    </trkpt>
    <trkpt lat="59.0942573547" lon="29.9979114532">
        <ele>0.0</ele>
        <time>2026-04-25T13:03:04.000Z</time>
    </trkpt>
    <trkpt lat="59.0942573547" lon="29.9979114532">
        <ele>0.0</ele>
        <time>2026-04-25T13:03:07.000Z</time>
    </trkpt>
    <trkpt lat="59.0942573547" lon="29.9979114532">
        <ele>0.0</ele>
        <time>2026-04-25T13:03:09.000Z</time>
    </trkpt>
    <trkpt lat="59.0942788124" lon="29.9979543686">
        <ele>0.0</ele>
        <time>2026-04-25T13:03:12.000Z</time>
    </trkpt>
    <trkpt lat="59.0943002701" lon="29.9980401993">
        <ele>0.0</ele>
        <time>2026-04-25T13:03:14.000Z</time>
    </trkpt>
    <trkpt lat="59.0943217278" lon="29.99812603">
        <ele>0.0</ele>
        <time>2026-04-25T13:03:17.000Z</time>
    </trkpt>
    <trkpt lat="59.0943217278" lon="29.9981474876">
        <ele>0.0</ele>
        <time>2026-04-25T13:03:19.000Z</time>
    </trkpt>
    <trkpt lat="59.0943217278" lon="29.9981474876">
        <ele>0.0</ele>
        <time>2026-04-25T13:03:22.000Z</time>
    </trkpt>
    <trkpt lat="59.0943431854" lon="29.998254776">
        <ele>0.0</ele>
        <time>2026-04-25T13:03:24.000Z</time>
    </trkpt>
    <trkpt lat="59.0943646431" lon="29.9983406067">
        <ele>0.0</ele>
        <time>2026-04-25T13:03:27.000Z</time>
    </trkpt>
    <trkpt lat="59.0943646431" lon="29.9984693527">
        <ele>0.0</ele>
        <time>2026-04-25T13:03:29.000Z</time>
    </trkpt>
    <trkpt lat="59.0943861008" lon="29.9985551834">
        <ele>0.0</ele>
        <time>2026-04-25T13:03:32.000Z</time>
    </trkpt>
    <trkpt lat="59.0944075584" lon="29.9986410141">
        <ele>0.0</ele>
        <time>2026-04-25T13:03:34.000Z</time>
    </trkpt>
    <trkpt lat="59.0944075584" lon="29.9986624718">
        <ele>0.0</ele>
        <time>2026-04-25T13:03:37.000Z</time>
    </trkpt>
    <trkpt lat="59.0944290161" lon="29.9986624718">
        <ele>0.0</ele>
        <time>2026-04-25T13:03:39.000Z</time>
    </trkpt>
    <trkpt lat="59.0944290161" lon="29.9986839294">
        <ele>0.0</ele>
        <time>2026-04-25T13:03:42.000Z</time>
    </trkpt>
    <trkpt lat="59.0944290161" lon="29.9987268448">
        <ele>0.0</ele>
        <time>2026-04-25T13:03:44.000Z</time>
    </trkpt>
    <trkpt lat="59.0944290161" lon="29.9988126755">
        <ele>0.0</ele>
        <time>2026-04-25T13:03:47.000Z</time>
    </trkpt>
    <trkpt lat="59.0944504738" lon="29.9989199638">
        <ele>0.0</ele>
        <time>2026-04-25T13:03:49.000Z</time>
    </trkpt>
    <trkpt lat="59.0944504738" lon="29.9989843369">
        <ele>0.0</ele>
        <time>2026-04-25T13:03:52.000Z</time>
    </trkpt>
    <trkpt lat="59.0944719315" lon="29.9990272522">
        <ele>0.0</ele>
        <time>2026-04-25T13:03:54.000Z</time>
    </trkpt>
    <trkpt lat="59.0944719315" lon="29.9990487099">
        <ele>0.0</ele>
        <time>2026-04-25T13:03:57.000Z</time>
    </trkpt>
    <trkpt lat="59.0944933891" lon="29.9990916252">
        <ele>0.0</ele>
        <time>2026-04-25T13:03:59.000Z</time>
    </trkpt>
    <trkpt lat="59.0944933891" lon="29.9990916252">
        <ele>0.0</ele>
        <time>2026-04-25T13:04:02.000Z</time>
    </trkpt>
    <trkpt lat="59.0944933891" lon="29.9990916252">
        <ele>0.0</ele>
        <time>2026-04-25T13:04:04.000Z</time>
    </trkpt>
    <trkpt lat="59.0944933891" lon="29.9991774559">
        <ele>0.0</ele>
        <time>2026-04-25T13:04:07.000Z</time>
    </trkpt>
    <trkpt lat="59.0945148468" lon="29.9991989136">
        <ele>0.0</ele>
        <time>2026-04-25T13:04:09.000Z</time>
    </trkpt>
    <trkpt lat="59.0945148468" lon="29.9992632866">
        <ele>0.0</ele>
        <time>2026-04-25T13:04:12.000Z</time>
    </trkpt>
    <trkpt lat="59.0945363045" lon="29.999370575">
        <ele>0.0</ele>
        <time>2026-04-25T13:04:14.000Z</time>
    </trkpt>
    <trkpt lat="59.0945577621" lon="29.9993920326">
        <ele>0.0</ele>
        <time>2026-04-25T13:04:17.000Z</time>
    </trkpt>
    <trkpt lat="59.0945577621" lon="29.999434948">
        <ele>0.0</ele>
        <time>2026-04-25T13:04:19.000Z</time>
    </trkpt>
    <trkpt lat="59.0945577621" lon="29.9994564056">
        <ele>0.0</ele>
        <time>2026-04-25T13:04:22.000Z</time>
    </trkpt>
    <trkpt lat="59.0945577621" lon="29.999499321">
        <ele>0.0</ele>
        <time>2026-04-25T13:04:24.000Z</time>
    </trkpt>
    <trkpt lat="59.0945792198" lon="29.9996066093">
        <ele>0.0</ele>
        <time>2026-04-25T13:04:27.000Z</time>
    </trkpt>
    <trkpt lat="59.0946006775" lon="29.99969244">
        <ele>0.0</ele>
        <time>2026-04-25T13:04:29.000Z</time>
    </trkpt>
    <trkpt lat="59.0946221352" lon="29.9997138977">
        <ele>0.0</ele>
        <time>2026-04-25T13:04:32.000Z</time>
    </trkpt>
    <trkpt lat="59.0946221352" lon="29.9997138977">
        <ele>0.0</ele>
        <time>2026-04-25T13:04:34.000Z</time>
    </trkpt>
    <trkpt lat="59.0946221352" lon="29.9997138977">
        <ele>0.0</ele>
        <time>2026-04-25T13:04:37.000Z</time>
    </trkpt>
    <trkpt lat="59.0946221352" lon="29.9998211861">
        <ele>0.0</ele>
        <time>2026-04-25T13:04:39.000Z</time>
    </trkpt>
    <trkpt lat="59.0946435928" lon="29.9999284744">
        <ele>0.0</ele>
        <time>2026-04-25T13:04:42.000Z</time>
    </trkpt>
    <trkpt lat="59.0946650505" lon="30.0000572205">
        <ele>0.0</ele>
        <time>2026-04-25T13:04:44.000Z</time>
    </trkpt>
    <trkpt lat="59.0946865082" lon="30.0001215935">
        <ele>0.0</ele>
        <time>2026-04-25T13:04:47.000Z</time>
    </trkpt>
    <trkpt lat="59.0946865082" lon="30.0001215935">
        <ele>0.0</ele>
        <time>2026-04-25T13:04:49.000Z</time>
    </trkpt>
    <trkpt lat="59.0946865082" lon="30.0001215935">
        <ele>0.0</ele>
        <time>2026-04-25T13:04:52.000Z</time>
    </trkpt>
    <trkpt lat="59.0946865082" lon="30.0001430511">
        <ele>0.0</ele>
        <time>2026-04-25T13:04:54.000Z</time>
    </trkpt>
    <trkpt lat="59.0946865082" lon="30.0002074242">
        <ele>0.0</ele>
        <time>2026-04-25T13:04:57.000Z</time>
    </trkpt>
    <trkpt lat="59.0947079659" lon="30.0003576279">
        <ele>0.0</ele>
        <time>2026-04-25T13:04:59.000Z</time>
    </trkpt>
    <trkpt lat="59.0947294235" lon="30.0004649162">
        <ele>0.0</ele>
        <time>2026-04-25T13:05:02.000Z</time>
    </trkpt>
    <trkpt lat="59.0947508812" lon="30.0005936623">
        <ele>0.0</ele>
        <time>2026-04-25T13:05:04.000Z</time>
    </trkpt>
    <trkpt lat="59.0947508812" lon="30.0006151199">
        <ele>0.0</ele>
        <time>2026-04-25T13:05:07.000Z</time>
    </trkpt>
    <trkpt lat="59.0947508812" lon="30.0006151199">
        <ele>0.0</ele>
        <time>2026-04-25T13:05:09.000Z</time>
    </trkpt>
    <trkpt lat="59.0947508812" lon="30.0006151199">
        <ele>0.0</ele>
        <time>2026-04-25T13:05:12.000Z</time>
    </trkpt>
    <trkpt lat="59.0947723389" lon="30.0007224083">
        <ele>0.0</ele>
        <time>2026-04-25T13:05:14.000Z</time>
    </trkpt>
    <trkpt lat="59.0947937965" lon="30.0007867813">
        <ele>0.0</ele>
        <time>2026-04-25T13:05:17.000Z</time>
    </trkpt>
    <trkpt lat="59.0947937965" lon="30.0008296967">
        <ele>0.0</ele>
        <time>2026-04-25T13:05:19.000Z</time>
    </trkpt>
    <trkpt lat="59.0947937965" lon="30.0008296967">
        <ele>0.0</ele>
        <time>2026-04-25T13:05:22.000Z</time>
    </trkpt>
    <trkpt lat="59.0948152542" lon="30.0008940697">
        <ele>0.0</ele>
        <time>2026-04-25T13:05:24.000Z</time>
    </trkpt>
    <trkpt lat="59.0948367119" lon="30.001001358">
        <ele>0.0</ele>
        <time>2026-04-25T13:05:27.000Z</time>
    </trkpt>
    <trkpt lat="59.0948367119" lon="30.0011944771">
        <ele>0.0</ele>
        <time>2026-04-25T13:05:29.000Z</time>
    </trkpt>
    <trkpt lat="59.0948367119" lon="30.0013017654">
        <ele>0.0</ele>
        <time>2026-04-25T13:05:32.000Z</time>
    </trkpt>
    <trkpt lat="59.0948581696" lon="30.0013875961">
        <ele>0.0</ele>
        <time>2026-04-25T13:05:34.000Z</time>
    </trkpt>
    <trkpt lat="59.0948796272" lon="30.0014305115">
        <ele>0.0</ele>
        <time>2026-04-25T13:05:37.000Z</time>
    </trkpt>
    <trkpt lat="59.0949010849" lon="30.0015163422">
        <ele>0.0</ele>
        <time>2026-04-25T13:05:39.000Z</time>
    </trkpt>
    <trkpt lat="59.0949010849" lon="30.0015377998">
        <ele>0.0</ele>
        <time>2026-04-25T13:05:42.000Z</time>
    </trkpt>
    <trkpt lat="59.0949010849" lon="30.0015807152">
        <ele>0.0</ele>
        <time>2026-04-25T13:05:44.000Z</time>
    </trkpt>
    <trkpt lat="59.0949225426" lon="30.0016236305">
        <ele>0.0</ele>
        <time>2026-04-25T13:05:47.000Z</time>
    </trkpt>
    <trkpt lat="59.0949440002" lon="30.0016665459">
        <ele>0.0</ele>
        <time>2026-04-25T13:05:49.000Z</time>
    </trkpt>
    <trkpt lat="59.0949440002" lon="30.0016880035">
        <ele>0.0</ele>
        <time>2026-04-25T13:05:52.000Z</time>
    </trkpt>
    <trkpt lat="59.0949440002" lon="30.0016880035">
        <ele>0.0</ele>
        <time>2026-04-25T13:05:54.000Z</time>
    </trkpt>
    <trkpt lat="59.0949440002" lon="30.0016880035">
        <ele>0.0</ele>
        <time>2026-04-25T13:05:57.000Z</time>
    </trkpt>
    <trkpt lat="59.0949654579" lon="30.0017952919">
        <ele>0.0</ele>
        <time>2026-04-25T13:05:59.000Z</time>
    </trkpt>
    <trkpt lat="59.0949869156" lon="30.0019025803">
        <ele>0.0</ele>
        <time>2026-04-25T13:06:02.000Z</time>
    </trkpt>
    <trkpt lat="59.0949869156" lon="30.0020313263">
        <ele>0.0</ele>
        <time>2026-04-25T13:06:04.000Z</time>
    </trkpt>
    <trkpt lat="59.0950083733" lon="30.002117157">
        <ele>0.0</ele>
        <time>2026-04-25T13:06:07.000Z</time>
    </trkpt>
    <trkpt lat="59.0950083733" lon="30.00218153">
        <ele>0.0</ele>
        <time>2026-04-25T13:06:09.000Z</time>
    </trkpt>
    <trkpt lat="59.0950298309" lon="30.0022029877">
        <ele>0.0</ele>
        <time>2026-04-25T13:06:12.000Z</time>
    </trkpt>
    <trkpt lat="59.0950083733" lon="30.0022244453">
        <ele>0.0</ele>
        <time>2026-04-25T13:06:14.000Z</time>
    </trkpt>
    <trkpt lat="59.0950298309" lon="30.0022888184">
        <ele>0.0</ele>
        <time>2026-04-25T13:06:17.000Z</time>
    </trkpt>
    <trkpt lat="59.0950298309" lon="30.0023961067">
        <ele>0.0</ele>
        <time>2026-04-25T13:06:19.000Z</time>
    </trkpt>
    <trkpt lat="59.0950298309" lon="30.0023961067">
        <ele>0.0</ele>
        <time>2026-04-25T13:06:22.000Z</time>
    </trkpt>
    <trkpt lat="59.0950298309" lon="30.0024175644">
        <ele>0.0</ele>
        <time>2026-04-25T13:06:24.000Z</time>
    </trkpt>
    <trkpt lat="59.0950298309" lon="30.0024390221">
        <ele>0.0</ele>
        <time>2026-04-25T13:06:27.000Z</time>
    </trkpt>
    <trkpt lat="59.0950298309" lon="30.0024390221">
        <ele>0.0</ele>
        <time>2026-04-25T13:06:29.000Z</time>
    </trkpt>
    <trkpt lat="59.0950298309" lon="30.0024604797">
        <ele>0.0</ele>
        <time>2026-04-25T13:06:32.000Z</time>
    </trkpt>
    <trkpt lat="59.0950942039" lon="30.0025677681">
        <ele>0.0</ele>
        <time>2026-04-25T13:06:34.000Z</time>
    </trkpt>
    <trkpt lat="59.0951371193" lon="30.0027394295">
        <ele>0.0</ele>
        <time>2026-04-25T13:06:37.000Z</time>
    </trkpt>
    <trkpt lat="59.095158577" lon="30.0028681755">
        <ele>0.0</ele>
        <time>2026-04-25T13:06:39.000Z</time>
    </trkpt>
    <trkpt lat="59.095158577" lon="30.0028896332">
        <ele>0.0</ele>
        <time>2026-04-25T13:06:42.000Z</time>
    </trkpt>
    <trkpt lat="59.095158577" lon="30.0029969215">
        <ele>0.0</ele>
        <time>2026-04-25T13:06:44.000Z</time>
    </trkpt>
    <trkpt lat="59.095158577" lon="30.0030398369">
        <ele>0.0</ele>
        <time>2026-04-25T13:06:47.000Z</time>
    </trkpt>
    <trkpt lat="59.095158577" lon="30.0030827522">
        <ele>0.0</ele>
        <time>2026-04-25T13:06:49.000Z</time>
    </trkpt>
    <trkpt lat="59.0951800346" lon="30.0031471252">
        <ele>0.0</ele>
        <time>2026-04-25T13:06:52.000Z</time>
    </trkpt>
    <trkpt lat="59.0951800346" lon="30.0031471252">
        <ele>0.0</ele>
        <time>2026-04-25T13:06:54.000Z</time>
    </trkpt>
    <trkpt lat="59.095158577" lon="30.0031471252">
        <ele>0.0</ele>
        <time>2026-04-25T13:06:57.000Z</time>
    </trkpt>
    <trkpt lat="59.095158577" lon="30.0031471252">
        <ele>0.0</ele>
        <time>2026-04-25T13:06:59.000Z</time>
    </trkpt>
    <trkpt lat="59.095158577" lon="30.0031471252">
        <ele>0.0</ele>
        <time>2026-04-25T13:07:02.000Z</time>
    </trkpt>
    <trkpt lat="59.0951800346" lon="30.0032114983">
        <ele>0.0</ele>
        <time>2026-04-25T13:07:04.000Z</time>
    </trkpt>
    <trkpt lat="59.0952014923" lon="30.0032973289">
        <ele>0.0</ele>
        <time>2026-04-25T13:07:07.000Z</time>
    </trkpt>
    <trkpt lat="59.0952014923" lon="30.003426075">
        <ele>0.0</ele>
        <time>2026-04-25T13:07:09.000Z</time>
    </trkpt>
    <trkpt lat="59.09522295" lon="30.003490448">
        <ele>0.0</ele>
        <time>2026-04-25T13:07:12.000Z</time>
    </trkpt>
    <trkpt lat="59.0952444077" lon="30.0035762787">
        <ele>0.0</ele>
        <time>2026-04-25T13:07:14.000Z</time>
    </trkpt>
    <trkpt lat="59.0952444077" lon="30.0036406517">
        <ele>0.0</ele>
        <time>2026-04-25T13:07:17.000Z</time>
    </trkpt>
    <trkpt lat="59.0952658653" lon="30.0037264824">
        <ele>0.0</ele>
        <time>2026-04-25T13:07:19.000Z</time>
    </trkpt>
    <trkpt lat="59.0952444077" lon="30.0037264824">
        <ele>0.0</ele>
        <time>2026-04-25T13:07:22.000Z</time>
    </trkpt>
    <trkpt lat="59.0952444077" lon="30.0037264824">
        <ele>0.0</ele>
        <time>2026-04-25T13:07:24.000Z</time>
    </trkpt>
    <trkpt lat="59.0952444077" lon="30.0037264824">
        <ele>0.0</ele>
        <time>2026-04-25T13:07:27.000Z</time>
    </trkpt>
    <trkpt lat="59.0952658653" lon="30.0037264824">
        <ele>0.0</ele>
        <time>2026-04-25T13:07:29.000Z</time>
    </trkpt>
    <trkpt lat="59.095287323" lon="30.0038552284">
        <ele>0.0</ele>
        <time>2026-04-25T13:07:32.000Z</time>
    </trkpt>
    <trkpt lat="59.0952444077" lon="30.0038766861">
        <ele>0.0</ele>
        <time>2026-04-25T13:07:34.000Z</time>
    </trkpt>
    <trkpt lat="59.0952444077" lon="30.0038981438">
        <ele>0.0</ele>
        <time>2026-04-25T13:07:37.000Z</time>
    </trkpt>
    <trkpt lat="59.09522295" lon="30.0038981438">
        <ele>0.0</ele>
        <time>2026-04-25T13:07:39.000Z</time>
    </trkpt>
    <trkpt lat="59.09522295" lon="30.0039625168">
        <ele>0.0</ele>
        <time>2026-04-25T13:07:42.000Z</time>
    </trkpt>
    <trkpt lat="59.09522295" lon="30.0040483475">
        <ele>0.0</ele>
        <time>2026-04-25T13:07:44.000Z</time>
    </trkpt>
    <trkpt lat="59.09522295" lon="30.0040483475">
        <ele>0.0</ele>
        <time>2026-04-25T13:07:47.000Z</time>
    </trkpt>
    <trkpt lat="59.09522295" lon="30.0040698051">
        <ele>0.0</ele>
        <time>2026-04-25T13:07:49.000Z</time>
    </trkpt>
    <trkpt lat="59.09522295" lon="30.0040698051">
        <ele>0.0</ele>
        <time>2026-04-25T13:07:52.000Z</time>
    </trkpt>
    <trkpt lat="59.095287323" lon="30.0040054321">
        <ele>0.0</ele>
        <time>2026-04-25T13:07:54.000Z</time>
    </trkpt>
    <trkpt lat="59.0953087807" lon="30.0040054321">
        <ele>0.0</ele>
        <time>2026-04-25T13:07:57.000Z</time>
    </trkpt>
    <trkpt lat="59.0953087807" lon="30.0040054321">
        <ele>0.0</ele>
        <time>2026-04-25T13:07:59.000Z</time>
    </trkpt>
    <trkpt lat="59.0953087807" lon="30.0040054321">
        <ele>0.0</ele>
        <time>2026-04-25T13:08:02.000Z</time>
    </trkpt>
    <trkpt lat="59.0953302383" lon="30.0041127205">
        <ele>0.0</ele>
        <time>2026-04-25T13:08:04.000Z</time>
    </trkpt>
    <trkpt lat="59.0953302383" lon="30.0041127205">
        <ele>0.0</ele>
        <time>2026-04-25T13:08:07.000Z</time>
    </trkpt>
    <trkpt lat="59.0953302383" lon="30.0042414665">
        <ele>0.0</ele>
        <time>2026-04-25T13:08:09.000Z</time>
    </trkpt>
    <trkpt lat="59.0953302383" lon="30.0042629242">
        <ele>0.0</ele>
        <time>2026-04-25T13:08:12.000Z</time>
    </trkpt>
    <trkpt lat="59.095351696" lon="30.0043058395">
        <ele>0.0</ele>
        <time>2026-04-25T13:08:14.000Z</time>
    </trkpt>
    <trkpt lat="59.0953731537" lon="30.0043702126">
        <ele>0.0</ele>
        <time>2026-04-25T13:08:17.000Z</time>
    </trkpt>
    <trkpt lat="59.0953946114" lon="30.0044989586">
        <ele>0.0</ele>
        <time>2026-04-25T13:08:19.000Z</time>
    </trkpt>
    <trkpt lat="59.0953946114" lon="30.0045847893">
        <ele>0.0</ele>
        <time>2026-04-25T13:08:22.000Z</time>
    </trkpt>
    <trkpt lat="59.095416069" lon="30.004734993">
        <ele>0.0</ele>
        <time>2026-04-25T13:08:24.000Z</time>
    </trkpt>
    <trkpt lat="59.0954375267" lon="30.0048208237">
        <ele>0.0</ele>
        <time>2026-04-25T13:08:27.000Z</time>
    </trkpt>
    <trkpt lat="59.0954589844" lon="30.0049066544">
        <ele>0.0</ele>
        <time>2026-04-25T13:08:29.000Z</time>
    </trkpt>
    <trkpt lat="59.095480442" lon="30.0049710274">
        <ele>0.0</ele>
        <time>2026-04-25T13:08:32.000Z</time>
    </trkpt>
    <trkpt lat="59.095480442" lon="30.004992485">
        <ele>0.0</ele>
        <time>2026-04-25T13:08:34.000Z</time>
    </trkpt>
    <trkpt lat="59.095480442" lon="30.004992485">
        <ele>0.0</ele>
        <time>2026-04-25T13:08:37.000Z</time>
    </trkpt>
    <trkpt lat="59.095480442" lon="30.004992485">
        <ele>0.0</ele>
        <time>2026-04-25T13:08:39.000Z</time>
    </trkpt>
    <trkpt lat="59.095480442" lon="30.0050354004">
        <ele>0.0</ele>
        <time>2026-04-25T13:08:42.000Z</time>
    </trkpt>
    <trkpt lat="59.0955018997" lon="30.0051426888">
        <ele>0.0</ele>
        <time>2026-04-25T13:08:44.000Z</time>
    </trkpt>
    <trkpt lat="59.0955233574" lon="30.0052285194">
        <ele>0.0</ele>
        <time>2026-04-25T13:08:47.000Z</time>
    </trkpt>
    <trkpt lat="59.0955448151" lon="30.0053143501">
        <ele>0.0</ele>
        <time>2026-04-25T13:08:49.000Z</time>
    </trkpt>
    <trkpt lat="59.0955018997" lon="30.0053358078">
        <ele>0.0</ele>
        <time>2026-04-25T13:08:52.000Z</time>
    </trkpt>
    <trkpt lat="59.0954589844" lon="30.0054430962">
        <ele>0.0</ele>
        <time>2026-04-25T13:08:54.000Z</time>
    </trkpt>
    <trkpt lat="59.0954589844" lon="30.0055289268">
        <ele>0.0</ele>
        <time>2026-04-25T13:08:57.000Z</time>
    </trkpt>
    <trkpt lat="59.0954589844" lon="30.0056791306">
        <ele>0.0</ele>
        <time>2026-04-25T13:08:59.000Z</time>
    </trkpt>
    <trkpt lat="59.095416069" lon="30.0057005882">
        <ele>0.0</ele>
        <time>2026-04-25T13:09:02.000Z</time>
    </trkpt>
    <trkpt lat="59.0953731537" lon="30.0056791306">
        <ele>0.0</ele>
        <time>2026-04-25T13:09:04.000Z</time>
    </trkpt>
    <trkpt lat="59.0953731537" lon="30.0056576729">
        <ele>0.0</ele>
        <time>2026-04-25T13:09:07.000Z</time>
    </trkpt>
    <trkpt lat="59.0953946114" lon="30.0055932999">
        <ele>0.0</ele>
        <time>2026-04-25T13:09:09.000Z</time>
    </trkpt>
    <trkpt lat="59.0954589844" lon="30.0055503845">
        <ele>0.0</ele>
        <time>2026-04-25T13:09:12.000Z</time>
    </trkpt>
    <trkpt lat="59.0955448151" lon="30.0055932999">
        <ele>0.0</ele>
        <time>2026-04-25T13:09:14.000Z</time>
    </trkpt>
    <trkpt lat="59.0955877304" lon="30.0057649612">
        <ele>0.0</ele>
        <time>2026-04-25T13:09:17.000Z</time>
    </trkpt>
    <trkpt lat="59.0956306458" lon="30.0059580803">
        <ele>0.0</ele>
        <time>2026-04-25T13:09:19.000Z</time>
    </trkpt>
    <trkpt lat="59.0956306458" lon="30.0060009956">
        <ele>0.0</ele>
        <time>2026-04-25T13:09:22.000Z</time>
    </trkpt>
    <trkpt lat="59.0956091881" lon="30.006043911">
        <ele>0.0</ele>
        <time>2026-04-25T13:09:24.000Z</time>
    </trkpt>
    <trkpt lat="59.0956091881" lon="30.006043911">
        <ele>0.0</ele>
        <time>2026-04-25T13:09:27.000Z</time>
    </trkpt>
    <trkpt lat="59.0956306458" lon="30.0060868263">
        <ele>0.0</ele>
        <time>2026-04-25T13:09:29.000Z</time>
    </trkpt>
    <trkpt lat="59.0956735611" lon="30.00623703">
        <ele>0.0</ele>
        <time>2026-04-25T13:09:34.000Z</time>
    </trkpt>
    <trkpt lat="59.0956950188" lon="30.0063228607">
        <ele>0.0</ele>
        <time>2026-04-25T13:09:37.000Z</time>
    </trkpt>
    <trkpt lat="59.0957164764" lon="30.0064086914">
        <ele>0.0</ele>
        <time>2026-04-25T13:09:39.000Z</time>
    </trkpt>
    <trkpt lat="59.0956950188" lon="30.0064516068">
        <ele>0.0</ele>
        <time>2026-04-25T13:09:42.000Z</time>
    </trkpt>
    <trkpt lat="59.0957164764" lon="30.0065374374">
        <ele>0.0</ele>
        <time>2026-04-25T13:09:44.000Z</time>
    </trkpt>
    <trkpt lat="59.0957164764" lon="30.0065588951">
        <ele>0.0</ele>
        <time>2026-04-25T13:09:47.000Z</time>
    </trkpt>
    <trkpt lat="59.0957379341" lon="30.0066661835">
        <ele>0.0</ele>
        <time>2026-04-25T13:09:49.000Z</time>
    </trkpt>
    <trkpt lat="59.0957379341" lon="30.0067520142">
        <ele>0.0</ele>
        <time>2026-04-25T13:09:52.000Z</time>
    </trkpt>
    <trkpt lat="59.0957808495" lon="30.0067734718">
        <ele>0.0</ele>
        <time>2026-04-25T13:09:54.000Z</time>
    </trkpt>
    <trkpt lat="59.0957808495" lon="30.0067520142">
        <ele>0.0</ele>
        <time>2026-04-25T13:09:57.000Z</time>
    </trkpt>
    <trkpt lat="59.0958023071" lon="30.0067520142">
        <ele>0.0</ele>
        <time>2026-04-25T13:09:59.000Z</time>
    </trkpt>
    <trkpt lat="59.0958023071" lon="30.0068163872">
        <ele>0.0</ele>
        <time>2026-04-25T13:10:02.000Z</time>
    </trkpt>
    <trkpt lat="59.0958023071" lon="30.0069236755">
        <ele>0.0</ele>
        <time>2026-04-25T13:10:04.000Z</time>
    </trkpt>
    <trkpt lat="59.0958023071" lon="30.0069880486">
        <ele>0.0</ele>
        <time>2026-04-25T13:10:07.000Z</time>
    </trkpt>
    <trkpt lat="59.0958237648" lon="30.0070095062">
        <ele>0.0</ele>
        <time>2026-04-25T13:10:09.000Z</time>
    </trkpt>
    <trkpt lat="59.0958237648" lon="30.0070309639">
        <ele>0.0</ele>
        <time>2026-04-25T13:10:12.000Z</time>
    </trkpt>
    <trkpt lat="59.0958452225" lon="30.0071167946">
        <ele>0.0</ele>
        <time>2026-04-25T13:10:14.000Z</time>
    </trkpt>
    <trkpt lat="59.0958452225" lon="30.0071811676">
        <ele>0.0</ele>
        <time>2026-04-25T13:10:17.000Z</time>
    </trkpt>
    <trkpt lat="59.0958666801" lon="30.0072669983">
        <ele>0.0</ele>
        <time>2026-04-25T13:10:19.000Z</time>
    </trkpt>
    <trkpt lat="59.0958666801" lon="30.0073099136">
        <ele>0.0</ele>
        <time>2026-04-25T13:10:22.000Z</time>
    </trkpt>
    <trkpt lat="59.0958881378" lon="30.007352829">
        <ele>0.0</ele>
        <time>2026-04-25T13:10:24.000Z</time>
    </trkpt>
    <trkpt lat="59.0958881378" lon="30.0073742867">
        <ele>0.0</ele>
        <time>2026-04-25T13:10:27.000Z</time>
    </trkpt>
    <trkpt lat="59.0959095955" lon="30.0074386597">
        <ele>0.0</ele>
        <time>2026-04-25T13:10:29.000Z</time>
    </trkpt>
    <trkpt lat="59.0959095955" lon="30.0075030327">
        <ele>0.0</ele>
        <time>2026-04-25T13:10:32.000Z</time>
    </trkpt>
    <trkpt lat="59.0959310532" lon="30.0075244904">
        <ele>0.0</ele>
        <time>2026-04-25T13:10:34.000Z</time>
    </trkpt>
    <trkpt lat="59.0959310532" lon="30.007545948">
        <ele>0.0</ele>
        <time>2026-04-25T13:10:37.000Z</time>
    </trkpt>
    <trkpt lat="59.0959525108" lon="30.0075674057">
        <ele>0.0</ele>
        <time>2026-04-25T13:10:39.000Z</time>
    </trkpt>
    <trkpt lat="59.0959310532" lon="30.0076317787">
        <ele>0.0</ele>
        <time>2026-04-25T13:10:42.000Z</time>
    </trkpt>
    <trkpt lat="59.0959525108" lon="30.0077390671">
        <ele>0.0</ele>
        <time>2026-04-25T13:10:44.000Z</time>
    </trkpt>
    <trkpt lat="59.0959739685" lon="30.0078248978">
        <ele>0.0</ele>
        <time>2026-04-25T13:10:47.000Z</time>
    </trkpt>
    <trkpt lat="59.0959739685" lon="30.0079321861">
        <ele>0.0</ele>
        <time>2026-04-25T13:10:49.000Z</time>
    </trkpt>
    <trkpt lat="59.0959954262" lon="30.0079965591">
        <ele>0.0</ele>
        <time>2026-04-25T13:10:52.000Z</time>
    </trkpt>
    <trkpt lat="59.0960168839" lon="30.0080609322">
        <ele>0.0</ele>
        <time>2026-04-25T13:10:54.000Z</time>
    </trkpt>
    <trkpt lat="59.0960383415" lon="30.0081038475">
        <ele>0.0</ele>
        <time>2026-04-25T13:10:57.000Z</time>
    </trkpt>
    <trkpt lat="59.0960383415" lon="30.0081467628">
        <ele>0.0</ele>
        <time>2026-04-25T13:10:59.000Z</time>
    </trkpt>
    <trkpt lat="59.0960383415" lon="30.0081467628">
        <ele>0.0</ele>
        <time>2026-04-25T13:11:02.000Z</time>
    </trkpt>
    <trkpt lat="59.0960383415" lon="30.0082540512">
        <ele>0.0</ele>
        <time>2026-04-25T13:11:04.000Z</time>
    </trkpt>
    <trkpt lat="59.0960597992" lon="30.0082969666">
        <ele>0.0</ele>
        <time>2026-04-25T13:11:07.000Z</time>
    </trkpt>
    <trkpt lat="59.0960597992" lon="30.0083398819">
        <ele>0.0</ele>
        <time>2026-04-25T13:11:09.000Z</time>
    </trkpt>
    <trkpt lat="59.0960597992" lon="30.0083827972">
        <ele>0.0</ele>
        <time>2026-04-25T13:11:12.000Z</time>
    </trkpt>
    <trkpt lat="59.0960812569" lon="30.0084471703">
        <ele>0.0</ele>
        <time>2026-04-25T13:11:14.000Z</time>
    </trkpt>
    <trkpt lat="59.0961027145" lon="30.0084900856">
        <ele>0.0</ele>
        <time>2026-04-25T13:11:17.000Z</time>
    </trkpt>
    <trkpt lat="59.0961027145" lon="30.0084900856">
        <ele>0.0</ele>
        <time>2026-04-25T13:11:19.000Z</time>
    </trkpt>
    <trkpt lat="59.0961027145" lon="30.0085759163">
        <ele>0.0</ele>
        <time>2026-04-25T13:11:22.000Z</time>
    </trkpt>
    <trkpt lat="59.0961241722" lon="30.008661747">
        <ele>0.0</ele>
        <time>2026-04-25T13:11:24.000Z</time>
    </trkpt>
    <trkpt lat="59.0961241722" lon="30.0087046623">
        <ele>0.0</ele>
        <time>2026-04-25T13:11:27.000Z</time>
    </trkpt>
    <trkpt lat="59.0961456299" lon="30.008790493">
        <ele>0.0</ele>
        <time>2026-04-25T13:11:29.000Z</time>
    </trkpt>
    <trkpt lat="59.0961456299" lon="30.008854866">
        <ele>0.0</ele>
        <time>2026-04-25T13:11:32.000Z</time>
    </trkpt>
    <trkpt lat="59.0961670876" lon="30.0089621544">
        <ele>0.0</ele>
        <time>2026-04-25T13:11:34.000Z</time>
    </trkpt>
    <trkpt lat="59.0961670876" lon="30.0090265274">
        <ele>0.0</ele>
        <time>2026-04-25T13:11:37.000Z</time>
    </trkpt>
    <trkpt lat="59.0961885452" lon="30.0091123581">
        <ele>0.0</ele>
        <time>2026-04-25T13:11:39.000Z</time>
    </trkpt>
    <trkpt lat="59.0962100029" lon="30.0091981888">
        <ele>0.0</ele>
        <time>2026-04-25T13:11:42.000Z</time>
    </trkpt>
    <trkpt lat="59.0962100029" lon="30.0093054771">
        <ele>0.0</ele>
        <time>2026-04-25T13:11:44.000Z</time>
    </trkpt>
    <trkpt lat="59.0962100029" lon="30.0093698502">
        <ele>0.0</ele>
        <time>2026-04-25T13:11:47.000Z</time>
    </trkpt>
    <trkpt lat="59.0962100029" lon="30.0093913078">
        <ele>0.0</ele>
        <time>2026-04-25T13:11:49.000Z</time>
    </trkpt>
    <trkpt lat="59.0962100029" lon="30.0094127655">
        <ele>0.0</ele>
        <time>2026-04-25T13:11:52.000Z</time>
    </trkpt>
    <trkpt lat="59.0962100029" lon="30.0093913078">
        <ele>0.0</ele>
        <time>2026-04-25T13:11:54.000Z</time>
    </trkpt>
    <trkpt lat="59.0962100029" lon="30.0093913078">
        <ele>0.0</ele>
        <time>2026-04-25T13:11:57.000Z</time>
    </trkpt>
    <trkpt lat="59.0962529182" lon="30.0094985962">
        <ele>0.0</ele>
        <time>2026-04-25T13:11:59.000Z</time>
    </trkpt>
    <trkpt lat="59.0962743759" lon="30.0095629692">
        <ele>0.0</ele>
        <time>2026-04-25T13:12:02.000Z</time>
    </trkpt>
    <trkpt lat="59.0962958336" lon="30.0096487999">
        <ele>0.0</ele>
        <time>2026-04-25T13:12:04.000Z</time>
    </trkpt>
    <trkpt lat="59.0962743759" lon="30.0096487999">
        <ele>0.0</ele>
        <time>2026-04-25T13:12:07.000Z</time>
    </trkpt>
    <trkpt lat="59.0962743759" lon="30.0096487999">
        <ele>0.0</ele>
        <time>2026-04-25T13:12:09.000Z</time>
    </trkpt>
    <trkpt lat="59.0962743759" lon="30.0096487999">
        <ele>0.0</ele>
        <time>2026-04-25T13:12:12.000Z</time>
    </trkpt>
    <trkpt lat="59.0962958336" lon="30.0096487999">
        <ele>0.0</ele>
        <time>2026-04-25T13:12:14.000Z</time>
    </trkpt>
    <trkpt lat="59.0963172913" lon="30.0097131729">
        <ele>0.0</ele>
        <time>2026-04-25T13:12:17.000Z</time>
    </trkpt>
    <trkpt lat="59.0963387489" lon="30.0098419189">
        <ele>0.0</ele>
        <time>2026-04-25T13:12:19.000Z</time>
    </trkpt>
    <trkpt lat="59.0963602066" lon="30.0099277496">
        <ele>0.0</ele>
        <time>2026-04-25T13:12:22.000Z</time>
    </trkpt>
    <trkpt lat="59.0963816643" lon="30.0100135803">
        <ele>0.0</ele>
        <time>2026-04-25T13:12:24.000Z</time>
    </trkpt>
    <trkpt lat="59.0964031219" lon="30.0100779533">
        <ele>0.0</ele>
        <time>2026-04-25T13:12:29.000Z</time>
    </trkpt>
    <trkpt lat="59.0964245796" lon="30.010228157">
        <ele>0.0</ele>
        <time>2026-04-25T13:12:32.000Z</time>
    </trkpt>
    <trkpt lat="59.0964460373" lon="30.0103569031">
        <ele>0.0</ele>
        <time>2026-04-25T13:12:34.000Z</time>
    </trkpt>
    <trkpt lat="59.0964245796" lon="30.0103569031">
        <ele>0.0</ele>
        <time>2026-04-25T13:12:37.000Z</time>
    </trkpt>
    <trkpt lat="59.0964245796" lon="30.0103354454">
        <ele>0.0</ele>
        <time>2026-04-25T13:12:39.000Z</time>
    </trkpt>
    <trkpt lat="59.0964245796" lon="30.0103354454">
        <ele>0.0</ele>
        <time>2026-04-25T13:12:42.000Z</time>
    </trkpt>
    <trkpt lat="59.0964245796" lon="30.0103354454">
        <ele>0.0</ele>
        <time>2026-04-25T13:12:44.000Z</time>
    </trkpt>
    <trkpt lat="59.0964031219" lon="30.0103569031">
        <ele>0.0</ele>
        <time>2026-04-25T13:12:47.000Z</time>
    </trkpt>
    <trkpt lat="59.0964460373" lon="30.0104856491">
        <ele>0.0</ele>
        <time>2026-04-25T13:12:49.000Z</time>
    </trkpt>
    <trkpt lat="59.096467495" lon="30.0105714798">
        <ele>0.0</ele>
        <time>2026-04-25T13:12:52.000Z</time>
    </trkpt>
    <trkpt lat="59.096467495" lon="30.0106787682">
        <ele>0.0</ele>
        <time>2026-04-25T13:12:54.000Z</time>
    </trkpt>
    <trkpt lat="59.0964889526" lon="30.0107431412">
        <ele>0.0</ele>
        <time>2026-04-25T13:12:57.000Z</time>
    </trkpt>
    <trkpt lat="59.0964889526" lon="30.0108504295">
        <ele>0.0</ele>
        <time>2026-04-25T13:12:59.000Z</time>
    </trkpt>
    <trkpt lat="59.0964889526" lon="30.0108289719">
        <ele>0.0</ele>
        <time>2026-04-25T13:13:02.000Z</time>
    </trkpt>
    <trkpt lat="59.0964889526" lon="30.0108289719">
        <ele>0.0</ele>
        <time>2026-04-25T13:13:04.000Z</time>
    </trkpt>
    <trkpt lat="59.0964889526" lon="30.0108289719">
        <ele>0.0</ele>
        <time>2026-04-25T13:13:07.000Z</time>
    </trkpt>
    <trkpt lat="59.0964889526" lon="30.0108289719">
        <ele>0.0</ele>
        <time>2026-04-25T13:13:09.000Z</time>
    </trkpt>
    <trkpt lat="59.0964889526" lon="30.0108289719">
        <ele>0.0</ele>
        <time>2026-04-25T13:13:12.000Z</time>
    </trkpt>
    <trkpt lat="59.0965104103" lon="30.0108933449">
        <ele>0.0</ele>
        <time>2026-04-25T13:13:14.000Z</time>
    </trkpt>
    <trkpt lat="59.0965533257" lon="30.0110864639">
        <ele>0.0</ele>
        <time>2026-04-25T13:13:17.000Z</time>
    </trkpt>
    <trkpt lat="59.0965747833" lon="30.0112581253">
        <ele>0.0</ele>
        <time>2026-04-25T13:13:19.000Z</time>
    </trkpt>
    <trkpt lat="59.0965747833" lon="30.0112581253">
        <ele>0.0</ele>
        <time>2026-04-25T13:13:22.000Z</time>
    </trkpt>
    <trkpt lat="59.096596241" lon="30.011279583">
        <ele>0.0</ele>
        <time>2026-04-25T13:13:24.000Z</time>
    </trkpt>
    <trkpt lat="59.096596241" lon="30.0113224983">
        <ele>0.0</ele>
        <time>2026-04-25T13:13:27.000Z</time>
    </trkpt>
    <trkpt lat="59.0966176987" lon="30.0114512444">
        <ele>0.0</ele>
        <time>2026-04-25T13:13:29.000Z</time>
    </trkpt>
    <trkpt lat="59.0966176987" lon="30.011537075">
        <ele>0.0</ele>
        <time>2026-04-25T13:13:32.000Z</time>
    </trkpt>
    <trkpt lat="59.0966391563" lon="30.0116872787">
        <ele>0.0</ele>
        <time>2026-04-25T13:13:34.000Z</time>
    </trkpt>
    <trkpt lat="59.096660614" lon="30.0117516518">
        <ele>0.0</ele>
        <time>2026-04-25T13:13:37.000Z</time>
    </trkpt>
    <trkpt lat="59.0966820717" lon="30.0118803978">
        <ele>0.0</ele>
        <time>2026-04-25T13:13:39.000Z</time>
    </trkpt>
    <trkpt lat="59.0966820717" lon="30.0119447708">
        <ele>0.0</ele>
        <time>2026-04-25T13:13:42.000Z</time>
    </trkpt>
    <trkpt lat="59.0967035294" lon="30.0120306015">
        <ele>0.0</ele>
        <time>2026-04-25T13:13:44.000Z</time>
    </trkpt>
    <trkpt lat="59.0967035294" lon="30.0120306015">
        <ele>0.0</ele>
        <time>2026-04-25T13:13:47.000Z</time>
    </trkpt>
    <trkpt lat="59.0967035294" lon="30.0120520592">
        <ele>0.0</ele>
        <time>2026-04-25T13:13:49.000Z</time>
    </trkpt>
    <trkpt lat="59.096724987" lon="30.0121164322">
        <ele>0.0</ele>
        <time>2026-04-25T13:13:52.000Z</time>
    </trkpt>
    <trkpt lat="59.096724987" lon="30.0121164322">
        <ele>0.0</ele>
        <time>2026-04-25T13:13:54.000Z</time>
    </trkpt>
    <trkpt lat="59.096724987" lon="30.0121378899">
        <ele>0.0</ele>
        <time>2026-04-25T13:13:57.000Z</time>
    </trkpt>
    <trkpt lat="59.0967464447" lon="30.0122451782">
        <ele>0.0</ele>
        <time>2026-04-25T13:13:59.000Z</time>
    </trkpt>
    <trkpt lat="59.0967679024" lon="30.0122880936">
        <ele>0.0</ele>
        <time>2026-04-25T13:14:02.000Z</time>
    </trkpt>
    <trkpt lat="59.09678936" lon="30.0123310089">
        <ele>0.0</ele>
        <time>2026-04-25T13:14:04.000Z</time>
    </trkpt>
    <trkpt lat="59.09678936" lon="30.0124168396">
        <ele>0.0</ele>
        <time>2026-04-25T13:14:07.000Z</time>
    </trkpt>
    <trkpt lat="59.0968108177" lon="30.012524128">
        <ele>0.0</ele>
        <time>2026-04-25T13:14:09.000Z</time>
    </trkpt>
    <trkpt lat="59.0968108177" lon="30.012588501">
        <ele>0.0</ele>
        <time>2026-04-25T13:14:12.000Z</time>
    </trkpt>
    <trkpt lat="59.0968322754" lon="30.0126743317">
        <ele>0.0</ele>
        <time>2026-04-25T13:14:14.000Z</time>
    </trkpt>
    <trkpt lat="59.0968322754" lon="30.012717247">
        <ele>0.0</ele>
        <time>2026-04-25T13:14:17.000Z</time>
    </trkpt>
    <trkpt lat="59.0968322754" lon="30.012717247">
        <ele>0.0</ele>
        <time>2026-04-25T13:14:19.000Z</time>
    </trkpt>
    <trkpt lat="59.0968322754" lon="30.0126743317">
        <ele>0.0</ele>
        <time>2026-04-25T13:14:22.000Z</time>
    </trkpt>
    <trkpt lat="59.0968322754" lon="30.0126743317">
        <ele>0.0</ele>
        <time>2026-04-25T13:14:24.000Z</time>
    </trkpt>
    <trkpt lat="59.0968322754" lon="30.0126743317">
        <ele>0.0</ele>
        <time>2026-04-25T13:14:27.000Z</time>
    </trkpt>
    <trkpt lat="59.0968322754" lon="30.0126743317">
        <ele>0.0</ele>
        <time>2026-04-25T13:14:29.000Z</time>
    </trkpt>
    <trkpt lat="59.0968537331" lon="30.0128030777">
        <ele>0.0</ele>
        <time>2026-04-25T13:14:32.000Z</time>
    </trkpt>
    <trkpt lat="59.0968751907" lon="30.0129747391">
        <ele>0.0</ele>
        <time>2026-04-25T13:14:34.000Z</time>
    </trkpt>
    <trkpt lat="59.0968966484" lon="30.0130605698">
        <ele>0.0</ele>
        <time>2026-04-25T13:14:37.000Z</time>
    </trkpt>
    <trkpt lat="59.0968966484" lon="30.0131034851">
        <ele>0.0</ele>
        <time>2026-04-25T13:14:39.000Z</time>
    </trkpt>
    <trkpt lat="59.0968966484" lon="30.0131034851">
        <ele>0.0</ele>
        <time>2026-04-25T13:14:42.000Z</time>
    </trkpt>
    <trkpt lat="59.0968966484" lon="30.0131034851">
        <ele>0.0</ele>
        <time>2026-04-25T13:14:44.000Z</time>
    </trkpt>
    <trkpt lat="59.0968751907" lon="30.0130820274">
        <ele>0.0</ele>
        <time>2026-04-25T13:14:47.000Z</time>
    </trkpt>
    <trkpt lat="59.0968751907" lon="30.0130820274">
        <ele>0.0</ele>
        <time>2026-04-25T13:14:49.000Z</time>
    </trkpt>
    <trkpt lat="59.0968751907" lon="30.0130820274">
        <ele>0.0</ele>
        <time>2026-04-25T13:14:52.000Z</time>
    </trkpt>
    <trkpt lat="59.0968751907" lon="30.0130820274">
        <ele>0.0</ele>
        <time>2026-04-25T13:14:54.000Z</time>
    </trkpt>
    <trkpt lat="59.0969181061" lon="30.0131893158">
        <ele>0.0</ele>
        <time>2026-04-25T13:14:57.000Z</time>
    </trkpt>
    <trkpt lat="59.0969610214" lon="30.0135111809">
        <ele>0.0</ele>
        <time>2026-04-25T13:14:59.000Z</time>
    </trkpt>
    <trkpt lat="59.0969824791" lon="30.0135755539">
        <ele>0.0</ele>
        <time>2026-04-25T13:15:02.000Z</time>
    </trkpt>
    <trkpt lat="59.0969824791" lon="30.0135540962">
        <ele>0.0</ele>
        <time>2026-04-25T13:15:04.000Z</time>
    </trkpt>
    <trkpt lat="59.0969824791" lon="30.0136184692">
        <ele>0.0</ele>
        <time>2026-04-25T13:15:07.000Z</time>
    </trkpt>
    <trkpt lat="59.0970253944" lon="30.0136828423">
        <ele>0.0</ele>
        <time>2026-04-25T13:15:09.000Z</time>
    </trkpt>
    <trkpt lat="59.0970253944" lon="30.0137042999">
        <ele>0.0</ele>
        <time>2026-04-25T13:15:12.000Z</time>
    </trkpt>
    <trkpt lat="59.0970253944" lon="30.0138115883">
        <ele>0.0</ele>
        <time>2026-04-25T13:15:14.000Z</time>
    </trkpt>
    <trkpt lat="59.0970468521" lon="30.0138545036">
        <ele>0.0</ele>
        <time>2026-04-25T13:15:17.000Z</time>
    </trkpt>
    <trkpt lat="59.0970683098" lon="30.0139403343">
        <ele>0.0</ele>
        <time>2026-04-25T13:15:19.000Z</time>
    </trkpt>
    <trkpt lat="59.0970683098" lon="30.0140047073">
        <ele>0.0</ele>
        <time>2026-04-25T13:15:22.000Z</time>
    </trkpt>
    <trkpt lat="59.0970683098" lon="30.0140690804">
        <ele>0.0</ele>
        <time>2026-04-25T13:15:24.000Z</time>
    </trkpt>
    <trkpt lat="59.0970683098" lon="30.0140690804">
        <ele>0.0</ele>
        <time>2026-04-25T13:15:27.000Z</time>
    </trkpt>
    <trkpt lat="59.0970683098" lon="30.014090538">
        <ele>0.0</ele>
        <time>2026-04-25T13:15:29.000Z</time>
    </trkpt>
    <trkpt lat="59.0970683098" lon="30.014090538">
        <ele>0.0</ele>
        <time>2026-04-25T13:15:32.000Z</time>
    </trkpt>
    <trkpt lat="59.0970683098" lon="30.014090538">
        <ele>0.0</ele>
        <time>2026-04-25T13:15:34.000Z</time>
    </trkpt>
    <trkpt lat="59.0970683098" lon="30.0141119957">
        <ele>0.0</ele>
        <time>2026-04-25T13:15:37.000Z</time>
    </trkpt>
    <trkpt lat="59.0971112251" lon="30.0143265724">
        <ele>0.0</ele>
        <time>2026-04-25T13:15:39.000Z</time>
    </trkpt>
    <trkpt lat="59.0971541405" lon="30.0144982338">
        <ele>0.0</ele>
        <time>2026-04-25T13:15:42.000Z</time>
    </trkpt>
    <trkpt lat="59.0972185135" lon="30.0146484375">
        <ele>0.0</ele>
        <time>2026-04-25T13:15:44.000Z</time>
    </trkpt>
    <trkpt lat="59.0972185135" lon="30.0146484375">
        <ele>0.0</ele>
        <time>2026-04-25T13:15:47.000Z</time>
    </trkpt>
    <trkpt lat="59.0972185135" lon="30.0146484375">
        <ele>0.0</ele>
        <time>2026-04-25T13:15:49.000Z</time>
    </trkpt>
    <trkpt lat="59.0972185135" lon="30.0146484375">
        <ele>0.0</ele>
        <time>2026-04-25T13:15:52.000Z</time>
    </trkpt>
    <trkpt lat="59.0972185135" lon="30.0146484375">
        <ele>0.0</ele>
        <time>2026-04-25T13:15:54.000Z</time>
    </trkpt>
    <trkpt lat="59.0972185135" lon="30.0146484375">
        <ele>0.0</ele>
        <time>2026-04-25T13:15:57.000Z</time>
    </trkpt>
    <trkpt lat="59.0972185135" lon="30.0146484375">
        <ele>0.0</ele>
        <time>2026-04-25T13:15:59.000Z</time>
    </trkpt>
    <trkpt lat="59.0972185135" lon="30.0146484375">
        <ele>0.0</ele>
        <time>2026-04-25T13:16:02.000Z</time>
    </trkpt>
    <trkpt lat="59.0972185135" lon="30.0147128105">
        <ele>0.0</ele>
        <time>2026-04-25T13:16:04.000Z</time>
    </trkpt>
    <trkpt lat="59.0972399712" lon="30.0148630142">
        <ele>0.0</ele>
        <time>2026-04-25T13:16:07.000Z</time>
    </trkpt>
    <trkpt lat="59.0972614288" lon="30.0149703026">
        <ele>0.0</ele>
        <time>2026-04-25T13:16:09.000Z</time>
    </trkpt>
    <trkpt lat="59.0972614288" lon="30.0149703026">
        <ele>0.0</ele>
        <time>2026-04-25T13:16:12.000Z</time>
    </trkpt>
    <trkpt lat="59.0972614288" lon="30.0149703026">
        <ele>0.0</ele>
        <time>2026-04-25T13:16:14.000Z</time>
    </trkpt>
    <trkpt lat="59.0972614288" lon="30.0150561333">
        <ele>0.0</ele>
        <time>2026-04-25T13:16:17.000Z</time>
    </trkpt>
    <trkpt lat="59.0973043442" lon="30.0151205063">
        <ele>0.0</ele>
        <time>2026-04-25T13:16:19.000Z</time>
    </trkpt>
    <trkpt lat="59.0973043442" lon="30.0151205063">
        <ele>0.0</ele>
        <time>2026-04-25T13:16:22.000Z</time>
    </trkpt>
    <trkpt lat="59.0973043442" lon="30.0151205063">
        <ele>0.0</ele>
        <time>2026-04-25T13:16:24.000Z</time>
    </trkpt>
    <trkpt lat="59.0973043442" lon="30.0151848793">
        <ele>0.0</ele>
        <time>2026-04-25T13:16:27.000Z</time>
    </trkpt>
    <trkpt lat="59.0973258018" lon="30.015399456">
        <ele>0.0</ele>
        <time>2026-04-25T13:16:29.000Z</time>
    </trkpt>
    <trkpt lat="59.0973472595" lon="30.015463829">
        <ele>0.0</ele>
        <time>2026-04-25T13:16:32.000Z</time>
    </trkpt>
    <trkpt lat="59.0973472595" lon="30.0155496597">
        <ele>0.0</ele>
        <time>2026-04-25T13:16:34.000Z</time>
    </trkpt>
    <trkpt lat="59.0973687172" lon="30.0155925751">
        <ele>0.0</ele>
        <time>2026-04-25T13:16:37.000Z</time>
    </trkpt>
    <trkpt lat="59.0973687172" lon="30.0155925751">
        <ele>0.0</ele>
        <time>2026-04-25T13:16:39.000Z</time>
    </trkpt>
    <trkpt lat="59.0973687172" lon="30.0156140327">
        <ele>0.0</ele>
        <time>2026-04-25T13:16:42.000Z</time>
    </trkpt>
    <trkpt lat="59.0973901749" lon="30.0156998634">
        <ele>0.0</ele>
        <time>2026-04-25T13:16:44.000Z</time>
    </trkpt>
    <trkpt lat="59.0973901749" lon="30.0157642365">
        <ele>0.0</ele>
        <time>2026-04-25T13:16:47.000Z</time>
    </trkpt>
    <trkpt lat="59.0974116325" lon="30.0158071518">
        <ele>0.0</ele>
        <time>2026-04-25T13:16:49.000Z</time>
    </trkpt>
    <trkpt lat="59.0974116325" lon="30.0158071518">
        <ele>0.0</ele>
        <time>2026-04-25T13:16:52.000Z</time>
    </trkpt>
    <trkpt lat="59.0974116325" lon="30.0158286095">
        <ele>0.0</ele>
        <time>2026-04-25T13:16:54.000Z</time>
    </trkpt>
    <trkpt lat="59.0974116325" lon="30.0159144402">
        <ele>0.0</ele>
        <time>2026-04-25T13:16:57.000Z</time>
    </trkpt>
    <trkpt lat="59.0974330902" lon="30.0160431862">
        <ele>0.0</ele>
        <time>2026-04-25T13:16:59.000Z</time>
    </trkpt>
    <trkpt lat="59.0974545479" lon="30.0161075592">
        <ele>0.0</ele>
        <time>2026-04-25T13:17:02.000Z</time>
    </trkpt>
    <trkpt lat="59.0974545479" lon="30.0161290169">
        <ele>0.0</ele>
        <time>2026-04-25T13:17:04.000Z</time>
    </trkpt>
    <trkpt lat="59.0974545479" lon="30.0161290169">
        <ele>0.0</ele>
        <time>2026-04-25T13:17:07.000Z</time>
    </trkpt>
    <trkpt lat="59.0974545479" lon="30.0161290169">
        <ele>0.0</ele>
        <time>2026-04-25T13:17:09.000Z</time>
    </trkpt>
    <trkpt lat="59.0974545479" lon="30.0161504745">
        <ele>0.0</ele>
        <time>2026-04-25T13:17:12.000Z</time>
    </trkpt>
    <trkpt lat="59.0974545479" lon="30.0161504745">
        <ele>0.0</ele>
        <time>2026-04-25T13:17:14.000Z</time>
    </trkpt>
    <trkpt lat="59.0974760056" lon="30.0162577629">
        <ele>0.0</ele>
        <time>2026-04-25T13:17:17.000Z</time>
    </trkpt>
    <trkpt lat="59.0975189209" lon="30.0164294243">
        <ele>0.0</ele>
        <time>2026-04-25T13:17:19.000Z</time>
    </trkpt>
    <trkpt lat="59.0974974632" lon="30.0164294243">
        <ele>0.0</ele>
        <time>2026-04-25T13:17:22.000Z</time>
    </trkpt>
    <trkpt lat="59.0975189209" lon="30.0164079666">
        <ele>0.0</ele>
        <time>2026-04-25T13:17:24.000Z</time>
    </trkpt>
    <trkpt lat="59.0975189209" lon="30.0164079666">
        <ele>0.0</ele>
        <time>2026-04-25T13:17:27.000Z</time>
    </trkpt>
    <trkpt lat="59.0975189209" lon="30.016579628">
        <ele>0.0</ele>
        <time>2026-04-25T13:17:29.000Z</time>
    </trkpt>
    <trkpt lat="59.0975618362" lon="30.016772747">
        <ele>0.0</ele>
        <time>2026-04-25T13:17:32.000Z</time>
    </trkpt>
    <trkpt lat="59.0975618362" lon="30.0168800354">
        <ele>0.0</ele>
        <time>2026-04-25T13:17:34.000Z</time>
    </trkpt>
    <trkpt lat="59.0975832939" lon="30.0169658661">
        <ele>0.0</ele>
        <time>2026-04-25T13:17:37.000Z</time>
    </trkpt>
    <trkpt lat="59.0976047516" lon="30.0170087814">
        <ele>0.0</ele>
        <time>2026-04-25T13:17:39.000Z</time>
    </trkpt>
    <trkpt lat="59.0976047516" lon="30.0170087814">
        <ele>0.0</ele>
        <time>2026-04-25T13:17:42.000Z</time>
    </trkpt>
    <trkpt lat="59.0976047516" lon="30.0170087814">
        <ele>0.0</ele>
        <time>2026-04-25T13:17:44.000Z</time>
    </trkpt>
    <trkpt lat="59.0976047516" lon="30.0170302391">
        <ele>0.0</ele>
        <time>2026-04-25T13:17:47.000Z</time>
    </trkpt>
    <trkpt lat="59.0976262093" lon="30.0171375275">
        <ele>0.0</ele>
        <time>2026-04-25T13:17:49.000Z</time>
    </trkpt>
    <trkpt lat="59.0976476669" lon="30.0171375275">
        <ele>0.0</ele>
        <time>2026-04-25T13:17:52.000Z</time>
    </trkpt>
    <trkpt lat="59.0976476669" lon="30.0171375275">
        <ele>0.0</ele>
        <time>2026-04-25T13:17:54.000Z</time>
    </trkpt>
    <trkpt lat="59.0976691246" lon="30.0172448158">
        <ele>0.0</ele>
        <time>2026-04-25T13:17:57.000Z</time>
    </trkpt>
    <trkpt lat="59.0976691246" lon="30.0173950195">
        <ele>0.0</ele>
        <time>2026-04-25T13:17:59.000Z</time>
    </trkpt>
    <trkpt lat="59.0976691246" lon="30.0174593925">
        <ele>0.0</ele>
        <time>2026-04-25T13:18:02.000Z</time>
    </trkpt>
    <trkpt lat="59.0976905823" lon="30.0175023079">
        <ele>0.0</ele>
        <time>2026-04-25T13:18:04.000Z</time>
    </trkpt>
    <trkpt lat="59.0976905823" lon="30.0175666809">
        <ele>0.0</ele>
        <time>2026-04-25T13:18:07.000Z</time>
    </trkpt>
    <trkpt lat="59.0976905823" lon="30.0176739693">
        <ele>0.0</ele>
        <time>2026-04-25T13:18:09.000Z</time>
    </trkpt>
    <trkpt lat="59.0977120399" lon="30.0176739693">
        <ele>0.0</ele>
        <time>2026-04-25T13:18:12.000Z</time>
    </trkpt>
    <trkpt lat="59.0977120399" lon="30.0176310539">
        <ele>0.0</ele>
        <time>2026-04-25T13:18:14.000Z</time>
    </trkpt>
    <trkpt lat="59.0977120399" lon="30.0176095963">
        <ele>0.0</ele>
        <time>2026-04-25T13:18:17.000Z</time>
    </trkpt>
    <trkpt lat="59.0977334976" lon="30.0177812576">
        <ele>0.0</ele>
        <time>2026-04-25T13:18:19.000Z</time>
    </trkpt>
    <trkpt lat="59.0977549553" lon="30.0179100037">
        <ele>0.0</ele>
        <time>2026-04-25T13:18:22.000Z</time>
    </trkpt>
    <trkpt lat="59.097776413" lon="30.0179314613">
        <ele>0.0</ele>
        <time>2026-04-25T13:18:24.000Z</time>
    </trkpt>
    <trkpt lat="59.097776413" lon="30.0179100037">
        <ele>0.0</ele>
        <time>2026-04-25T13:18:27.000Z</time>
    </trkpt>
    <trkpt lat="59.0977978706" lon="30.0180387497">
        <ele>0.0</ele>
        <time>2026-04-25T13:18:29.000Z</time>
    </trkpt>
    <trkpt lat="59.0977978706" lon="30.018081665">
        <ele>0.0</ele>
        <time>2026-04-25T13:18:32.000Z</time>
    </trkpt>
    <trkpt lat="59.0977978706" lon="30.0181674957">
        <ele>0.0</ele>
        <time>2026-04-25T13:18:34.000Z</time>
    </trkpt>
    <trkpt lat="59.0978193283" lon="30.0182318687">
        <ele>0.0</ele>
        <time>2026-04-25T13:18:37.000Z</time>
    </trkpt>
    <trkpt lat="59.0978622437" lon="30.0183820724">
        <ele>0.0</ele>
        <time>2026-04-25T13:18:42.000Z</time>
    </trkpt>
    <trkpt lat="59.0978622437" lon="30.0184035301">
        <ele>0.0</ele>
        <time>2026-04-25T13:18:44.000Z</time>
    </trkpt>
    <trkpt lat="59.0978622437" lon="30.0184035301">
        <ele>0.0</ele>
        <time>2026-04-25T13:18:47.000Z</time>
    </trkpt>
    <trkpt lat="59.0978622437" lon="30.0185108185">
        <ele>0.0</ele>
        <time>2026-04-25T13:18:49.000Z</time>
    </trkpt>
    <trkpt lat="59.0978837013" lon="30.0185751915">
        <ele>0.0</ele>
        <time>2026-04-25T13:18:52.000Z</time>
    </trkpt>
    <trkpt lat="59.0978837013" lon="30.0186395645">
        <ele>0.0</ele>
        <time>2026-04-25T13:18:54.000Z</time>
    </trkpt>
    <trkpt lat="59.097905159" lon="30.0186824799">
        <ele>0.0</ele>
        <time>2026-04-25T13:18:57.000Z</time>
    </trkpt>
    <trkpt lat="59.097905159" lon="30.0187683105">
        <ele>0.0</ele>
        <time>2026-04-25T13:18:59.000Z</time>
    </trkpt>
    <trkpt lat="59.0979266167" lon="30.0188112259">
        <ele>0.0</ele>
        <time>2026-04-25T13:19:02.000Z</time>
    </trkpt>
    <trkpt lat="59.0979266167" lon="30.0188970566">
        <ele>0.0</ele>
        <time>2026-04-25T13:19:04.000Z</time>
    </trkpt>
    <trkpt lat="59.0979480743" lon="30.0189614296">
        <ele>0.0</ele>
        <time>2026-04-25T13:19:07.000Z</time>
    </trkpt>
    <trkpt lat="59.0979480743" lon="30.0189399719">
        <ele>0.0</ele>
        <time>2026-04-25T13:19:09.000Z</time>
    </trkpt>
    <trkpt lat="59.0979480743" lon="30.0189828873">
        <ele>0.0</ele>
        <time>2026-04-25T13:19:12.000Z</time>
    </trkpt>
    <trkpt lat="59.0979480743" lon="30.019068718">
        <ele>0.0</ele>
        <time>2026-04-25T13:19:14.000Z</time>
    </trkpt>
    <trkpt lat="59.0979480743" lon="30.0191545486">
        <ele>0.0</ele>
        <time>2026-04-25T13:19:17.000Z</time>
    </trkpt>
    <trkpt lat="59.097969532" lon="30.019261837">
        <ele>0.0</ele>
        <time>2026-04-25T13:19:19.000Z</time>
    </trkpt>
    <trkpt lat="59.097969532" lon="30.0193047523">
        <ele>0.0</ele>
        <time>2026-04-25T13:19:22.000Z</time>
    </trkpt>
    <trkpt lat="59.0979909897" lon="30.0193691254">
        <ele>0.0</ele>
        <time>2026-04-25T13:19:24.000Z</time>
    </trkpt>
    <trkpt lat="59.0980124474" lon="30.0194334984">
        <ele>0.0</ele>
        <time>2026-04-25T13:19:27.000Z</time>
    </trkpt>
    <trkpt lat="59.0979909897" lon="30.0194764137">
        <ele>0.0</ele>
        <time>2026-04-25T13:19:29.000Z</time>
    </trkpt>
    <trkpt lat="59.0979909897" lon="30.0194764137">
        <ele>0.0</ele>
        <time>2026-04-25T13:19:32.000Z</time>
    </trkpt>
    <trkpt lat="59.0980124474" lon="30.0195193291">
        <ele>0.0</ele>
        <time>2026-04-25T13:19:34.000Z</time>
    </trkpt>
    <trkpt lat="59.098033905" lon="30.0196266174">
        <ele>0.0</ele>
        <time>2026-04-25T13:19:37.000Z</time>
    </trkpt>
    <trkpt lat="59.0980553627" lon="30.0197339058">
        <ele>0.0</ele>
        <time>2026-04-25T13:19:39.000Z</time>
    </trkpt>
    <trkpt lat="59.0980768204" lon="30.0198197365">
        <ele>0.0</ele>
        <time>2026-04-25T13:19:42.000Z</time>
    </trkpt>
    <trkpt lat="59.098098278" lon="30.0199055672">
        <ele>0.0</ele>
        <time>2026-04-25T13:19:44.000Z</time>
    </trkpt>
    <trkpt lat="59.0981197357" lon="30.0199699402">
        <ele>0.0</ele>
        <time>2026-04-25T13:19:47.000Z</time>
    </trkpt>
    <trkpt lat="59.0981197357" lon="30.0199699402">
        <ele>0.0</ele>
        <time>2026-04-25T13:19:49.000Z</time>
    </trkpt>
    <trkpt lat="59.0981197357" lon="30.0200128555">
        <ele>0.0</ele>
        <time>2026-04-25T13:19:52.000Z</time>
    </trkpt>
    <trkpt lat="59.0981411934" lon="30.0200557709">
        <ele>0.0</ele>
        <time>2026-04-25T13:19:54.000Z</time>
    </trkpt>
    <trkpt lat="59.0981411934" lon="30.0200986862">
        <ele>0.0</ele>
        <time>2026-04-25T13:19:57.000Z</time>
    </trkpt>
    <trkpt lat="59.0981626511" lon="30.0201201439">
        <ele>0.0</ele>
        <time>2026-04-25T13:19:59.000Z</time>
    </trkpt>
    <trkpt lat="59.0981626511" lon="30.0201630592">
        <ele>0.0</ele>
        <time>2026-04-25T13:20:02.000Z</time>
    </trkpt>
    <trkpt lat="59.0981626511" lon="30.0202274323">
        <ele>0.0</ele>
        <time>2026-04-25T13:20:04.000Z</time>
    </trkpt>
    <trkpt lat="59.0981626511" lon="30.0202918053">
        <ele>0.0</ele>
        <time>2026-04-25T13:20:09.000Z</time>
    </trkpt>
    <trkpt lat="59.0981841087" lon="30.0203347206">
        <ele>0.0</ele>
        <time>2026-04-25T13:20:12.000Z</time>
    </trkpt>
    <trkpt lat="59.0982055664" lon="30.0204205513">
        <ele>0.0</ele>
        <time>2026-04-25T13:20:14.000Z</time>
    </trkpt>
    <trkpt lat="59.0982270241" lon="30.0204205513">
        <ele>0.0</ele>
        <time>2026-04-25T13:20:17.000Z</time>
    </trkpt>
    <trkpt lat="59.0982055664" lon="30.020442009">
        <ele>0.0</ele>
        <time>2026-04-25T13:20:19.000Z</time>
    </trkpt>
    <trkpt lat="59.0982270241" lon="30.020506382">
        <ele>0.0</ele>
        <time>2026-04-25T13:20:22.000Z</time>
    </trkpt>
    <trkpt lat="59.0982484818" lon="30.0206136703">
        <ele>0.0</ele>
        <time>2026-04-25T13:20:24.000Z</time>
    </trkpt>
    <trkpt lat="59.0982484818" lon="30.0206780434">
        <ele>0.0</ele>
        <time>2026-04-25T13:20:27.000Z</time>
    </trkpt>
    <trkpt lat="59.0982699394" lon="30.0207638741">
        <ele>0.0</ele>
        <time>2026-04-25T13:20:29.000Z</time>
    </trkpt>
    <trkpt lat="59.0982913971" lon="30.0208282471">
        <ele>0.0</ele>
        <time>2026-04-25T13:20:32.000Z</time>
    </trkpt>
    <trkpt lat="59.0982913971" lon="30.0209355354">
        <ele>0.0</ele>
        <time>2026-04-25T13:20:34.000Z</time>
    </trkpt>
    <trkpt lat="59.0983128548" lon="30.0209784508">
        <ele>0.0</ele>
        <time>2026-04-25T13:20:37.000Z</time>
    </trkpt>
    <trkpt lat="59.0983128548" lon="30.0210642815">
        <ele>0.0</ele>
        <time>2026-04-25T13:20:39.000Z</time>
    </trkpt>
    <trkpt lat="59.0983128548" lon="30.0210857391">
        <ele>0.0</ele>
        <time>2026-04-25T13:20:42.000Z</time>
    </trkpt>
    <trkpt lat="59.0983128548" lon="30.0211286545">
        <ele>0.0</ele>
        <time>2026-04-25T13:20:44.000Z</time>
    </trkpt>
    <trkpt lat="59.0983128548" lon="30.0211501122">
        <ele>0.0</ele>
        <time>2026-04-25T13:20:47.000Z</time>
    </trkpt>
    <trkpt lat="59.0983128548" lon="30.0211501122">
        <ele>0.0</ele>
        <time>2026-04-25T13:20:49.000Z</time>
    </trkpt>
    <trkpt lat="59.0983128548" lon="30.0211715698">
        <ele>0.0</ele>
        <time>2026-04-25T13:20:52.000Z</time>
    </trkpt>
    <trkpt lat="59.0983128548" lon="30.0211715698">
        <ele>0.0</ele>
        <time>2026-04-25T13:20:54.000Z</time>
    </trkpt>
    <trkpt lat="59.0983128548" lon="30.0211501122">
        <ele>0.0</ele>
        <time>2026-04-25T13:20:57.000Z</time>
    </trkpt>
    <trkpt lat="59.0983128548" lon="30.0211071968">
        <ele>0.0</ele>
        <time>2026-04-25T13:20:59.000Z</time>
    </trkpt>
    <trkpt lat="59.0983343124" lon="30.0211501122">
        <ele>0.0</ele>
        <time>2026-04-25T13:21:02.000Z</time>
    </trkpt>
    <trkpt lat="59.0983557701" lon="30.0214290619">
        <ele>0.0</ele>
        <time>2026-04-25T13:21:04.000Z</time>
    </trkpt>
    <trkpt lat="59.0983772278" lon="30.0214934349">
        <ele>0.0</ele>
        <time>2026-04-25T13:21:07.000Z</time>
    </trkpt>
    <trkpt lat="59.0983986855" lon="30.0216007233">
        <ele>0.0</ele>
        <time>2026-04-25T13:21:09.000Z</time>
    </trkpt>
    <trkpt lat="59.0983986855" lon="30.0216436386">
        <ele>0.0</ele>
        <time>2026-04-25T13:21:12.000Z</time>
    </trkpt>
    <trkpt lat="59.0984201431" lon="30.021750927">
        <ele>0.0</ele>
        <time>2026-04-25T13:21:14.000Z</time>
    </trkpt>
    <trkpt lat="59.0984416008" lon="30.0217938423">
        <ele>0.0</ele>
        <time>2026-04-25T13:21:17.000Z</time>
    </trkpt>
    <trkpt lat="59.0984416008" lon="30.0218153">
        <ele>0.0</ele>
        <time>2026-04-25T13:21:19.000Z</time>
    </trkpt>
    <trkpt lat="59.0984416008" lon="30.0218153">
        <ele>0.0</ele>
        <time>2026-04-25T13:21:22.000Z</time>
    </trkpt>
    <trkpt lat="59.0984630585" lon="30.0219011307">
        <ele>0.0</ele>
        <time>2026-04-25T13:21:24.000Z</time>
    </trkpt>
    <trkpt lat="59.0984845161" lon="30.0219655037">
        <ele>0.0</ele>
        <time>2026-04-25T13:21:27.000Z</time>
    </trkpt>
    <trkpt lat="59.0984845161" lon="30.0220513344">
        <ele>0.0</ele>
        <time>2026-04-25T13:21:29.000Z</time>
    </trkpt>
    <trkpt lat="59.0985059738" lon="30.0220298767">
        <ele>0.0</ele>
        <time>2026-04-25T13:21:32.000Z</time>
    </trkpt>
    <trkpt lat="59.0985059738" lon="30.0220727921">
        <ele>0.0</ele>
        <time>2026-04-25T13:21:34.000Z</time>
    </trkpt>
    <trkpt lat="59.0985059738" lon="30.0221371651">
        <ele>0.0</ele>
        <time>2026-04-25T13:21:37.000Z</time>
    </trkpt>
    <trkpt lat="59.0985274315" lon="30.0222444534">
        <ele>0.0</ele>
        <time>2026-04-25T13:21:39.000Z</time>
    </trkpt>
    <trkpt lat="59.0985274315" lon="30.0222873688">
        <ele>0.0</ele>
        <time>2026-04-25T13:21:42.000Z</time>
    </trkpt>
    <trkpt lat="59.0985488892" lon="30.0223731995">
        <ele>0.0</ele>
        <time>2026-04-25T13:21:44.000Z</time>
    </trkpt>
    <trkpt lat="59.0985488892" lon="30.0224161148">
        <ele>0.0</ele>
        <time>2026-04-25T13:21:47.000Z</time>
    </trkpt>
    <trkpt lat="59.0985703468" lon="30.0224804878">
        <ele>0.0</ele>
        <time>2026-04-25T13:21:49.000Z</time>
    </trkpt>
    <trkpt lat="59.0985703468" lon="30.0224804878">
        <ele>0.0</ele>
        <time>2026-04-25T13:21:52.000Z</time>
    </trkpt>
    <trkpt lat="59.0985703468" lon="30.0224804878">
        <ele>0.0</ele>
        <time>2026-04-25T13:21:54.000Z</time>
    </trkpt>
    <trkpt lat="59.0985703468" lon="30.0224804878">
        <ele>0.0</ele>
        <time>2026-04-25T13:21:57.000Z</time>
    </trkpt>
    <trkpt lat="59.0985703468" lon="30.0225448608">
        <ele>0.0</ele>
        <time>2026-04-25T13:21:59.000Z</time>
    </trkpt>
    <trkpt lat="59.0985703468" lon="30.0225877762">
        <ele>0.0</ele>
        <time>2026-04-25T13:22:02.000Z</time>
    </trkpt>
    <trkpt lat="59.0985918045" lon="30.0226092339">
        <ele>0.0</ele>
        <time>2026-04-25T13:22:04.000Z</time>
    </trkpt>
    <trkpt lat="59.0985918045" lon="30.0226950645">
        <ele>0.0</ele>
        <time>2026-04-25T13:22:07.000Z</time>
    </trkpt>
    <trkpt lat="59.0986132622" lon="30.0228023529">
        <ele>0.0</ele>
        <time>2026-04-25T13:22:09.000Z</time>
    </trkpt>
    <trkpt lat="59.0986132622" lon="30.0228238106">
        <ele>0.0</ele>
        <time>2026-04-25T13:22:12.000Z</time>
    </trkpt>
    <trkpt lat="59.0986132622" lon="30.0228238106">
        <ele>0.0</ele>
        <time>2026-04-25T13:22:14.000Z</time>
    </trkpt>
    <trkpt lat="59.0986347198" lon="30.0228452682">
        <ele>0.0</ele>
        <time>2026-04-25T13:22:17.000Z</time>
    </trkpt>
    <trkpt lat="59.0986347198" lon="30.0228881836">
        <ele>0.0</ele>
        <time>2026-04-25T13:22:19.000Z</time>
    </trkpt>
    <trkpt lat="59.0986561775" lon="30.0229525566">
        <ele>0.0</ele>
        <time>2026-04-25T13:22:22.000Z</time>
    </trkpt>
    <trkpt lat="59.0986561775" lon="30.023059845">
        <ele>0.0</ele>
        <time>2026-04-25T13:22:24.000Z</time>
    </trkpt>
    <trkpt lat="59.0986776352" lon="30.0231671333">
        <ele>0.0</ele>
        <time>2026-04-25T13:22:27.000Z</time>
    </trkpt>
    <trkpt lat="59.0986990929" lon="30.0232315063">
        <ele>0.0</ele>
        <time>2026-04-25T13:22:29.000Z</time>
    </trkpt>
    <trkpt lat="59.0986990929" lon="30.0232315063">
        <ele>0.0</ele>
        <time>2026-04-25T13:22:32.000Z</time>
    </trkpt>
    <trkpt lat="59.0986990929" lon="30.0232315063">
        <ele>0.0</ele>
        <time>2026-04-25T13:22:34.000Z</time>
    </trkpt>
    <trkpt lat="59.0986990929" lon="30.0232315063">
        <ele>0.0</ele>
        <time>2026-04-25T13:22:37.000Z</time>
    </trkpt>
    <trkpt lat="59.0987205505" lon="30.0233387947">
        <ele>0.0</ele>
        <time>2026-04-25T13:22:39.000Z</time>
    </trkpt>
    <trkpt lat="59.0987205505" lon="30.0233602524">
        <ele>0.0</ele>
        <time>2026-04-25T13:22:42.000Z</time>
    </trkpt>
    <trkpt lat="59.0987205505" lon="30.0234675407">
        <ele>0.0</ele>
        <time>2026-04-25T13:22:44.000Z</time>
    </trkpt>
    <trkpt lat="59.0987420082" lon="30.0235319138">
        <ele>0.0</ele>
        <time>2026-04-25T13:22:47.000Z</time>
    </trkpt>
    <trkpt lat="59.0987420082" lon="30.0236392021">
        <ele>0.0</ele>
        <time>2026-04-25T13:22:49.000Z</time>
    </trkpt>
    <trkpt lat="59.0987420082" lon="30.0236392021">
        <ele>0.0</ele>
        <time>2026-04-25T13:22:52.000Z</time>
    </trkpt>
    <trkpt lat="59.0987420082" lon="30.0236392021">
        <ele>0.0</ele>
        <time>2026-04-25T13:22:54.000Z</time>
    </trkpt>
    <trkpt lat="59.0987420082" lon="30.0236392021">
        <ele>0.0</ele>
        <time>2026-04-25T13:22:57.000Z</time>
    </trkpt>
    <trkpt lat="59.0987420082" lon="30.0236392021">
        <ele>0.0</ele>
        <time>2026-04-25T13:22:59.000Z</time>
    </trkpt>
    <trkpt lat="59.0987420082" lon="30.0236392021">
        <ele>0.0</ele>
        <time>2026-04-25T13:23:02.000Z</time>
    </trkpt>
    <trkpt lat="59.0987849236" lon="30.0238323212">
        <ele>0.0</ele>
        <time>2026-04-25T13:23:04.000Z</time>
    </trkpt>
    <trkpt lat="59.0987849236" lon="30.0238966942">
        <ele>0.0</ele>
        <time>2026-04-25T13:23:07.000Z</time>
    </trkpt>
    <trkpt lat="59.0987849236" lon="30.0238966942">
        <ele>0.0</ele>
        <time>2026-04-25T13:23:09.000Z</time>
    </trkpt>
    <trkpt lat="59.0988063812" lon="30.0239825249">
        <ele>0.0</ele>
        <time>2026-04-25T13:23:12.000Z</time>
    </trkpt>
    <trkpt lat="59.0988278389" lon="30.0240683556">
        <ele>0.0</ele>
        <time>2026-04-25T13:23:14.000Z</time>
    </trkpt>
    <trkpt lat="59.0988492966" lon="30.0241327286">
        <ele>0.0</ele>
        <time>2026-04-25T13:23:17.000Z</time>
    </trkpt>
    <trkpt lat="59.0988492966" lon="30.0241756439">
        <ele>0.0</ele>
        <time>2026-04-25T13:23:19.000Z</time>
    </trkpt>
    <trkpt lat="59.0988707542" lon="30.0242185593">
        <ele>0.0</ele>
        <time>2026-04-25T13:23:22.000Z</time>
    </trkpt>
    <trkpt lat="59.0988707542" lon="30.02430439">
        <ele>0.0</ele>
        <time>2026-04-25T13:23:24.000Z</time>
    </trkpt>
    <trkpt lat="59.0988707542" lon="30.0243473053">
        <ele>0.0</ele>
        <time>2026-04-25T13:23:27.000Z</time>
    </trkpt>
    <trkpt lat="59.0988707542" lon="30.024368763">
        <ele>0.0</ele>
        <time>2026-04-25T13:23:29.000Z</time>
    </trkpt>
    <trkpt lat="59.0988922119" lon="30.0244116783">
        <ele>0.0</ele>
        <time>2026-04-25T13:23:32.000Z</time>
    </trkpt>
    <trkpt lat="59.0989136696" lon="30.024497509">
        <ele>0.0</ele>
        <time>2026-04-25T13:23:34.000Z</time>
    </trkpt>
    <trkpt lat="59.0989136696" lon="30.024561882">
        <ele>0.0</ele>
        <time>2026-04-25T13:23:37.000Z</time>
    </trkpt>
    <trkpt lat="59.0989351273" lon="30.0246477127">
        <ele>0.0</ele>
        <time>2026-04-25T13:23:39.000Z</time>
    </trkpt>
    <trkpt lat="59.0989351273" lon="30.0247120857">
        <ele>0.0</ele>
        <time>2026-04-25T13:23:42.000Z</time>
    </trkpt>
    <trkpt lat="59.0989565849" lon="30.0247979164">
        <ele>0.0</ele>
        <time>2026-04-25T13:23:44.000Z</time>
    </trkpt>
    <trkpt lat="59.0989565849" lon="30.0248193741">
        <ele>0.0</ele>
        <time>2026-04-25T13:23:47.000Z</time>
    </trkpt>
    <trkpt lat="59.0989780426" lon="30.0248408318">
        <ele>0.0</ele>
        <time>2026-04-25T13:23:49.000Z</time>
    </trkpt>
    <trkpt lat="59.0989995003" lon="30.0248837471">
        <ele>0.0</ele>
        <time>2026-04-25T13:23:52.000Z</time>
    </trkpt>
    <trkpt lat="59.0990209579" lon="30.0249695778">
        <ele>0.0</ele>
        <time>2026-04-25T13:23:54.000Z</time>
    </trkpt>
    <trkpt lat="59.0990209579" lon="30.0249695778">
        <ele>0.0</ele>
        <time>2026-04-25T13:23:57.000Z</time>
    </trkpt>
    <trkpt lat="59.0990209579" lon="30.0249695778">
        <ele>0.0</ele>
        <time>2026-04-25T13:23:59.000Z</time>
    </trkpt>
    <trkpt lat="59.0990209579" lon="30.0249695778">
        <ele>0.0</ele>
        <time>2026-04-25T13:24:02.000Z</time>
    </trkpt>
    <trkpt lat="59.0990209579" lon="30.0249695778">
        <ele>0.0</ele>
        <time>2026-04-25T13:24:04.000Z</time>
    </trkpt>
    <trkpt lat="59.0990209579" lon="30.0249695778">
        <ele>0.0</ele>
        <time>2026-04-25T13:24:07.000Z</time>
    </trkpt>
    <trkpt lat="59.0990424156" lon="30.0251412392">
        <ele>0.0</ele>
        <time>2026-04-25T13:24:09.000Z</time>
    </trkpt>
    <trkpt lat="59.0990638733" lon="30.0251841545">
        <ele>0.0</ele>
        <time>2026-04-25T13:24:12.000Z</time>
    </trkpt>
    <trkpt lat="59.099085331" lon="30.0251841545">
        <ele>0.0</ele>
        <time>2026-04-25T13:24:14.000Z</time>
    </trkpt>
    <trkpt lat="59.099085331" lon="30.0252270699">
        <ele>0.0</ele>
        <time>2026-04-25T13:24:17.000Z</time>
    </trkpt>
    <trkpt lat="59.099085331" lon="30.0253129005">
        <ele>0.0</ele>
        <time>2026-04-25T13:24:19.000Z</time>
    </trkpt>
    <trkpt lat="59.0991067886" lon="30.0253129005">
        <ele>0.0</ele>
        <time>2026-04-25T13:24:22.000Z</time>
    </trkpt>
    <trkpt lat="59.0991067886" lon="30.0253129005">
        <ele>0.0</ele>
        <time>2026-04-25T13:24:24.000Z</time>
    </trkpt>
    <trkpt lat="59.099085331" lon="30.0253343582">
        <ele>0.0</ele>
        <time>2026-04-25T13:24:27.000Z</time>
    </trkpt>
    <trkpt lat="59.099085331" lon="30.0253987312">
        <ele>0.0</ele>
        <time>2026-04-25T13:24:29.000Z</time>
    </trkpt>
    <trkpt lat="59.099085331" lon="30.0254631042">
        <ele>0.0</ele>
        <time>2026-04-25T13:24:32.000Z</time>
    </trkpt>
    <trkpt lat="59.0991067886" lon="30.0255703926">
        <ele>0.0</ele>
        <time>2026-04-25T13:24:34.000Z</time>
    </trkpt>
    <trkpt lat="59.0991282463" lon="30.025613308">
        <ele>0.0</ele>
        <time>2026-04-25T13:24:37.000Z</time>
    </trkpt>
    <trkpt lat="59.099085331" lon="30.0254845619">
        <ele>0.0</ele>
        <time>2026-04-25T13:24:39.000Z</time>
    </trkpt>
    <trkpt lat="59.0991067886" lon="30.0254201889">
        <ele>0.0</ele>
        <time>2026-04-25T13:24:42.000Z</time>
    </trkpt>
    <trkpt lat="59.0991282463" lon="30.0254201889">
        <ele>0.0</ele>
        <time>2026-04-25T13:24:44.000Z</time>
    </trkpt>
    <trkpt lat="59.0991282463" lon="30.0254201889">
        <ele>0.0</ele>
        <time>2026-04-25T13:24:47.000Z</time>
    </trkpt>
    <trkpt lat="59.0991067886" lon="30.0253987312">
        <ele>0.0</ele>
        <time>2026-04-25T13:24:49.000Z</time>
    </trkpt>
    <trkpt lat="59.0991067886" lon="30.0253987312">
        <ele>0.0</ele>
        <time>2026-04-25T13:24:52.000Z</time>
    </trkpt>
    <trkpt lat="59.0991067886" lon="30.0253987312">
        <ele>0.0</ele>
        <time>2026-04-25T13:24:54.000Z</time>
    </trkpt>
    <trkpt lat="59.0991067886" lon="30.0253987312">
        <ele>0.0</ele>
        <time>2026-04-25T13:24:57.000Z</time>
    </trkpt>
    <trkpt lat="59.0991067886" lon="30.0253987312">
        <ele>0.0</ele>
        <time>2026-04-25T13:24:59.000Z</time>
    </trkpt>
    <trkpt lat="59.0991067886" lon="30.0253987312">
        <ele>0.0</ele>
        <time>2026-04-25T13:25:02.000Z</time>
    </trkpt>
    <trkpt lat="59.0991067886" lon="30.0253987312">
        <ele>0.0</ele>
        <time>2026-04-25T13:25:04.000Z</time>
    </trkpt>
    <trkpt lat="59.0991067886" lon="30.0253987312">
        <ele>0.0</ele>
        <time>2026-04-25T13:25:07.000Z</time>
    </trkpt>
    <trkpt lat="59.0991067886" lon="30.0253987312">
        <ele>0.0</ele>
        <time>2026-04-25T13:25:09.000Z</time>
    </trkpt>
    <trkpt lat="59.0991067886" lon="30.0254201889">
        <ele>0.0</ele>
        <time>2026-04-25T13:25:12.000Z</time>
    </trkpt>
    <trkpt lat="59.099149704" lon="30.0256347656">
        <ele>0.0</ele>
        <time>2026-04-25T13:25:14.000Z</time>
    </trkpt>
    <trkpt lat="59.0991711617" lon="30.0257205963">
        <ele>0.0</ele>
        <time>2026-04-25T13:25:17.000Z</time>
    </trkpt>
    <trkpt lat="59.0991711617" lon="30.0257635117">
        <ele>0.0</ele>
        <time>2026-04-25T13:25:19.000Z</time>
    </trkpt>
    <trkpt lat="59.0991711617" lon="30.025742054">
        <ele>0.0</ele>
        <time>2026-04-25T13:25:22.000Z</time>
    </trkpt>
    <trkpt lat="59.0991711617" lon="30.0257635117">
        <ele>0.0</ele>
        <time>2026-04-25T13:25:24.000Z</time>
    </trkpt>
    <trkpt lat="59.0991711617" lon="30.0257635117">
        <ele>0.0</ele>
        <time>2026-04-25T13:25:27.000Z</time>
    </trkpt>
    <trkpt lat="59.0991711617" lon="30.0257635117">
        <ele>0.0</ele>
        <time>2026-04-25T13:25:29.000Z</time>
    </trkpt>
    <trkpt lat="59.0991711617" lon="30.0257635117">
        <ele>0.0</ele>
        <time>2026-04-25T13:25:32.000Z</time>
    </trkpt>
    <trkpt lat="59.099149704" lon="30.0257635117">
        <ele>0.0</ele>
        <time>2026-04-25T13:25:34.000Z</time>
    </trkpt>
    <trkpt lat="59.099149704" lon="30.025742054">
        <ele>0.0</ele>
        <time>2026-04-25T13:25:37.000Z</time>
    </trkpt>
    <trkpt lat="59.099149704" lon="30.0257205963">
        <ele>0.0</ele>
        <time>2026-04-25T13:25:39.000Z</time>
    </trkpt>
    <trkpt lat="59.0991711617" lon="30.0257635117">
        <ele>0.0</ele>
        <time>2026-04-25T13:25:42.000Z</time>
    </trkpt>
    <trkpt lat="59.0991711617" lon="30.0257849693">
        <ele>0.0</ele>
        <time>2026-04-25T13:25:44.000Z</time>
    </trkpt>
    <trkpt lat="59.0991926193" lon="30.0257635117">
        <ele>0.0</ele>
        <time>2026-04-25T13:25:47.000Z</time>
    </trkpt>
    <trkpt lat="59.0991926193" lon="30.0257635117">
        <ele>0.0</ele>
        <time>2026-04-25T13:25:49.000Z</time>
    </trkpt>
    <trkpt lat="59.0991926193" lon="30.0257635117">
        <ele>0.0</ele>
        <time>2026-04-25T13:25:52.000Z</time>
    </trkpt>
    <trkpt lat="59.0991926193" lon="30.0257635117">
        <ele>0.0</ele>
        <time>2026-04-25T13:25:54.000Z</time>
    </trkpt>
    <trkpt lat="59.0991926193" lon="30.0257635117">
        <ele>0.0</ele>
        <time>2026-04-25T13:25:57.000Z</time>
    </trkpt>
    <trkpt lat="59.0991926193" lon="30.0257635117">
        <ele>0.0</ele>
        <time>2026-04-25T13:25:59.000Z</time>
    </trkpt>
    <trkpt lat="59.0991926193" lon="30.0257635117">
        <ele>0.0</ele>
        <time>2026-04-25T13:26:02.000Z</time>
    </trkpt>
    <trkpt lat="59.0991926193" lon="30.0257635117">
        <ele>0.0</ele>
        <time>2026-04-25T13:26:04.000Z</time>
    </trkpt>
    <trkpt lat="59.0991926193" lon="30.0257635117">
        <ele>0.0</ele>
        <time>2026-04-25T13:26:07.000Z</time>
    </trkpt>
    <trkpt lat="59.0991926193" lon="30.0257635117">
        <ele>0.0</ele>
        <time>2026-04-25T13:26:09.000Z</time>
    </trkpt>
    <trkpt lat="59.0991926193" lon="30.0257635117">
        <ele>0.0</ele>
        <time>2026-04-25T13:26:12.000Z</time>
    </trkpt>
    <trkpt lat="59.0991926193" lon="30.025742054">
        <ele>0.0</ele>
        <time>2026-04-25T13:26:14.000Z</time>
    </trkpt>
    <trkpt lat="59.0991926193" lon="30.025742054">
        <ele>0.0</ele>
        <time>2026-04-25T13:26:17.000Z</time>
    </trkpt>
    <trkpt lat="59.0991926193" lon="30.025742054">
        <ele>0.0</ele>
        <time>2026-04-25T13:26:19.000Z</time>
    </trkpt>
    <trkpt lat="59.0991926193" lon="30.025742054">
        <ele>0.0</ele>
        <time>2026-04-25T13:26:22.000Z</time>
    </trkpt>
    <trkpt lat="59.0991926193" lon="30.025742054">
        <ele>0.0</ele>
        <time>2026-04-25T13:26:24.000Z</time>
    </trkpt>
    <trkpt lat="59.0991926193" lon="30.025742054">
        <ele>0.0</ele>
        <time>2026-04-25T13:26:27.000Z</time>
    </trkpt>
    <trkpt lat="59.0991926193" lon="30.025677681">
        <ele>0.0</ele>
        <time>2026-04-25T13:26:29.000Z</time>
    </trkpt>
    <trkpt lat="59.099214077" lon="30.0256347656">
        <ele>0.0</ele>
        <time>2026-04-25T13:26:32.000Z</time>
    </trkpt>
    <trkpt lat="59.099214077" lon="30.0256347656">
        <ele>0.0</ele>
        <time>2026-04-25T13:26:34.000Z</time>
    </trkpt>
    <trkpt lat="59.099214077" lon="30.0256347656">
        <ele>0.0</ele>
        <time>2026-04-25T13:26:37.000Z</time>
    </trkpt>
    <trkpt lat="59.0992355347" lon="30.025613308">
        <ele>0.0</ele>
        <time>2026-04-25T13:26:39.000Z</time>
    </trkpt>
    <trkpt lat="59.0992355347" lon="30.025613308">
        <ele>0.0</ele>
        <time>2026-04-25T13:26:42.000Z</time>
    </trkpt>
    <trkpt lat="59.0992355347" lon="30.025613308">
        <ele>0.0</ele>
        <time>2026-04-25T13:26:44.000Z</time>
    </trkpt>
    <trkpt lat="59.0992355347" lon="30.025613308">
        <ele>0.0</ele>
        <time>2026-04-25T13:26:47.000Z</time>
    </trkpt>
    <trkpt lat="59.0992355347" lon="30.025613308">
        <ele>0.0</ele>
        <time>2026-04-25T13:26:49.000Z</time>
    </trkpt>
    <trkpt lat="59.0992355347" lon="30.025613308">
        <ele>0.0</ele>
        <time>2026-04-25T13:26:52.000Z</time>
    </trkpt>
    <trkpt lat="59.0992569923" lon="30.0255703926">
        <ele>0.0</ele>
        <time>2026-04-25T13:26:54.000Z</time>
    </trkpt>
    <trkpt lat="59.0992569923" lon="30.0255703926">
        <ele>0.0</ele>
        <time>2026-04-25T13:26:57.000Z</time>
    </trkpt>
    <trkpt lat="59.0992569923" lon="30.0255489349">
        <ele>0.0</ele>
        <time>2026-04-25T13:26:59.000Z</time>
    </trkpt>
    <trkpt lat="59.0992569923" lon="30.0255489349">
        <ele>0.0</ele>
        <time>2026-04-25T13:27:02.000Z</time>
    </trkpt>
    <trkpt lat="59.0992569923" lon="30.0255489349">
        <ele>0.0</ele>
        <time>2026-04-25T13:27:04.000Z</time>
    </trkpt>
    <trkpt lat="59.0992569923" lon="30.0255489349">
        <ele>0.0</ele>
        <time>2026-04-25T13:27:07.000Z</time>
    </trkpt>
    <trkpt lat="59.0992569923" lon="30.0255489349">
        <ele>0.0</ele>
        <time>2026-04-25T13:27:09.000Z</time>
    </trkpt>
    <trkpt lat="59.0992569923" lon="30.0255489349">
        <ele>0.0</ele>
        <time>2026-04-25T13:27:12.000Z</time>
    </trkpt>
    <trkpt lat="59.0992569923" lon="30.0255489349">
        <ele>0.0</ele>
        <time>2026-04-25T13:27:14.000Z</time>
    </trkpt>
    <trkpt lat="59.0992569923" lon="30.0255489349">
        <ele>0.0</ele>
        <time>2026-04-25T13:27:17.000Z</time>
    </trkpt>
    <trkpt lat="59.0992569923" lon="30.0255489349">
        <ele>0.0</ele>
        <time>2026-04-25T13:27:19.000Z</time>
    </trkpt>
    <trkpt lat="59.0992569923" lon="30.0255489349">
        <ele>0.0</ele>
        <time>2026-04-25T13:27:22.000Z</time>
    </trkpt>
    <trkpt lat="59.0992569923" lon="30.0255489349">
        <ele>0.0</ele>
        <time>2026-04-25T13:27:24.000Z</time>
    </trkpt>
    <trkpt lat="59.0992569923" lon="30.0255274773">
        <ele>0.0</ele>
        <time>2026-04-25T13:27:27.000Z</time>
    </trkpt>
    <trkpt lat="59.09927845" lon="30.0255060196">
        <ele>0.0</ele>
        <time>2026-04-25T13:27:29.000Z</time>
    </trkpt>
    <trkpt lat="59.09927845" lon="30.0255060196">
        <ele>0.0</ele>
        <time>2026-04-25T13:27:32.000Z</time>
    </trkpt>
    <trkpt lat="59.09927845" lon="30.0254631042">
        <ele>0.0</ele>
        <time>2026-04-25T13:27:34.000Z</time>
    </trkpt>
    <trkpt lat="59.0992999077" lon="30.0253558159">
        <ele>0.0</ele>
        <time>2026-04-25T13:27:37.000Z</time>
    </trkpt>
    <trkpt lat="59.099342823" lon="30.0252270699">
        <ele>0.0</ele>
        <time>2026-04-25T13:27:39.000Z</time>
    </trkpt>
    <trkpt lat="59.0993642807" lon="30.0251412392">
        <ele>0.0</ele>
        <time>2026-04-25T13:27:42.000Z</time>
    </trkpt>
    <trkpt lat="59.0993857384" lon="30.0250768661">
        <ele>0.0</ele>
        <time>2026-04-25T13:27:44.000Z</time>
    </trkpt>
    <trkpt lat="59.0993857384" lon="30.0249910355">
        <ele>0.0</ele>
        <time>2026-04-25T13:27:47.000Z</time>
    </trkpt>
    <trkpt lat="59.099407196" lon="30.0249695778">
        <ele>0.0</ele>
        <time>2026-04-25T13:27:49.000Z</time>
    </trkpt>
    <trkpt lat="59.099407196" lon="30.0249910355">
        <ele>0.0</ele>
        <time>2026-04-25T13:27:52.000Z</time>
    </trkpt>
    <trkpt lat="59.099407196" lon="30.0250124931">
        <ele>0.0</ele>
        <time>2026-04-25T13:27:54.000Z</time>
    </trkpt>
    <trkpt lat="59.099407196" lon="30.0250339508">
        <ele>0.0</ele>
        <time>2026-04-25T13:27:57.000Z</time>
    </trkpt>
    <trkpt lat="59.099407196" lon="30.0250339508">
        <ele>0.0</ele>
        <time>2026-04-25T13:27:59.000Z</time>
    </trkpt>
    <trkpt lat="59.099407196" lon="30.0250339508">
        <ele>0.0</ele>
        <time>2026-04-25T13:28:02.000Z</time>
    </trkpt>
    <trkpt lat="59.099407196" lon="30.0250339508">
        <ele>0.0</ele>
        <time>2026-04-25T13:28:04.000Z</time>
    </trkpt>
    <trkpt lat="59.099407196" lon="30.0250339508">
        <ele>0.0</ele>
        <time>2026-04-25T13:28:07.000Z</time>
    </trkpt>
    <trkpt lat="59.099407196" lon="30.0250339508">
        <ele>0.0</ele>
        <time>2026-04-25T13:28:09.000Z</time>
    </trkpt>
    <trkpt lat="59.0994286537" lon="30.0250339508">
        <ele>0.0</ele>
        <time>2026-04-25T13:28:12.000Z</time>
    </trkpt>
    <trkpt lat="59.0994286537" lon="30.0250339508">
        <ele>0.0</ele>
        <time>2026-04-25T13:28:14.000Z</time>
    </trkpt>
    <trkpt lat="59.0994501114" lon="30.0250339508">
        <ele>0.0</ele>
        <time>2026-04-25T13:28:17.000Z</time>
    </trkpt>
    <trkpt lat="59.0994715691" lon="30.0250554085">
        <ele>0.0</ele>
        <time>2026-04-25T13:28:19.000Z</time>
    </trkpt>
    <trkpt lat="59.0994715691" lon="30.0250554085">
        <ele>0.0</ele>
        <time>2026-04-25T13:28:22.000Z</time>
    </trkpt>
    <trkpt lat="59.0995144844" lon="30.0250124931">
        <ele>0.0</ele>
        <time>2026-04-25T13:28:24.000Z</time>
    </trkpt>
    <trkpt lat="59.0995359421" lon="30.0250339508">
        <ele>0.0</ele>
        <time>2026-04-25T13:28:27.000Z</time>
    </trkpt>
    <trkpt lat="59.0995573997" lon="30.0250768661">
        <ele>0.0</ele>
        <time>2026-04-25T13:28:29.000Z</time>
    </trkpt>
    <trkpt lat="59.0995573997" lon="30.0250983238">
        <ele>0.0</ele>
        <time>2026-04-25T13:28:32.000Z</time>
    </trkpt>
    <trkpt lat="59.0995573997" lon="30.0250983238">
        <ele>0.0</ele>
        <time>2026-04-25T13:28:34.000Z</time>
    </trkpt>
    <trkpt lat="59.0995573997" lon="30.0250983238">
        <ele>0.0</ele>
        <time>2026-04-25T13:28:37.000Z</time>
    </trkpt>
    <trkpt lat="59.0995788574" lon="30.0250768661">
        <ele>0.0</ele>
        <time>2026-04-25T13:28:39.000Z</time>
    </trkpt>
    <trkpt lat="59.0995788574" lon="30.0250768661">
        <ele>0.0</ele>
        <time>2026-04-25T13:28:42.000Z</time>
    </trkpt>
    <trkpt lat="59.0995788574" lon="30.0250554085">
        <ele>0.0</ele>
        <time>2026-04-25T13:28:44.000Z</time>
    </trkpt>
    <trkpt lat="59.0995788574" lon="30.0250554085">
        <ele>0.0</ele>
        <time>2026-04-25T13:28:47.000Z</time>
    </trkpt>
    <trkpt lat="59.0996003151" lon="30.0250554085">
        <ele>0.0</ele>
        <time>2026-04-25T13:28:49.000Z</time>
    </trkpt>
    <trkpt lat="59.0996217728" lon="30.0250554085">
        <ele>0.0</ele>
        <time>2026-04-25T13:28:52.000Z</time>
    </trkpt>
    <trkpt lat="59.0996432304" lon="30.0250768661">
        <ele>0.0</ele>
        <time>2026-04-25T13:28:54.000Z</time>
    </trkpt>
    <trkpt lat="59.0996646881" lon="30.0250124931">
        <ele>0.0</ele>
        <time>2026-04-25T13:28:57.000Z</time>
    </trkpt>
    <trkpt lat="59.0996861458" lon="30.0249910355">
        <ele>0.0</ele>
        <time>2026-04-25T13:28:59.000Z</time>
    </trkpt>
    <trkpt lat="59.0996861458" lon="30.0249695778">
        <ele>0.0</ele>
        <time>2026-04-25T13:29:02.000Z</time>
    </trkpt>
    <trkpt lat="59.0996861458" lon="30.0249695778">
        <ele>0.0</ele>
        <time>2026-04-25T13:29:04.000Z</time>
    </trkpt>
    <trkpt lat="59.0997076035" lon="30.0249481201">
        <ele>0.0</ele>
        <time>2026-04-25T13:29:07.000Z</time>
    </trkpt>
    <trkpt lat="59.0997076035" lon="30.0249910355">
        <ele>0.0</ele>
        <time>2026-04-25T13:29:09.000Z</time>
    </trkpt>
    <trkpt lat="59.0997290611" lon="30.0249910355">
        <ele>0.0</ele>
        <time>2026-04-25T13:29:12.000Z</time>
    </trkpt>
    <trkpt lat="59.0997076035" lon="30.0249695778">
        <ele>0.0</ele>
        <time>2026-04-25T13:29:14.000Z</time>
    </trkpt>
    <trkpt lat="59.0997076035" lon="30.0249481201">
        <ele>0.0</ele>
        <time>2026-04-25T13:29:17.000Z</time>
    </trkpt>
    <trkpt lat="59.0997076035" lon="30.0249052048">
        <ele>0.0</ele>
        <time>2026-04-25T13:29:19.000Z</time>
    </trkpt>
    <trkpt lat="59.0997076035" lon="30.0248837471">
        <ele>0.0</ele>
        <time>2026-04-25T13:29:22.000Z</time>
    </trkpt>
    <trkpt lat="59.0996861458" lon="30.0248193741">
        <ele>0.0</ele>
        <time>2026-04-25T13:29:24.000Z</time>
    </trkpt>
    <trkpt lat="59.0996861458" lon="30.0247979164">
        <ele>0.0</ele>
        <time>2026-04-25T13:29:27.000Z</time>
    </trkpt>
    <trkpt lat="59.0996861458" lon="30.0247550011">
        <ele>0.0</ele>
        <time>2026-04-25T13:29:29.000Z</time>
    </trkpt>
    <trkpt lat="59.0997076035" lon="30.0247335434">
        <ele>0.0</ele>
        <time>2026-04-25T13:29:32.000Z</time>
    </trkpt>
    <trkpt lat="59.0997290611" lon="30.0246477127">
        <ele>0.0</ele>
        <time>2026-04-25T13:29:34.000Z</time>
    </trkpt>
    <trkpt lat="59.0997290611" lon="30.0246477127">
        <ele>0.0</ele>
        <time>2026-04-25T13:29:37.000Z</time>
    </trkpt>
    <trkpt lat="59.0997290611" lon="30.024626255">
        <ele>0.0</ele>
        <time>2026-04-25T13:29:39.000Z</time>
    </trkpt>
    <trkpt lat="59.0997290611" lon="30.0246047974">
        <ele>0.0</ele>
        <time>2026-04-25T13:29:42.000Z</time>
    </trkpt>
    <trkpt lat="59.0997290611" lon="30.024561882">
        <ele>0.0</ele>
        <time>2026-04-25T13:29:44.000Z</time>
    </trkpt>
    <trkpt lat="59.0997076035" lon="30.0245404243">
        <ele>0.0</ele>
        <time>2026-04-25T13:29:47.000Z</time>
    </trkpt>
    <trkpt lat="59.0997076035" lon="30.024497509">
        <ele>0.0</ele>
        <time>2026-04-25T13:29:49.000Z</time>
    </trkpt>
    <trkpt lat="59.0997076035" lon="30.024433136">
        <ele>0.0</ele>
        <time>2026-04-25T13:29:52.000Z</time>
    </trkpt>
    <trkpt lat="59.0997290611" lon="30.024368763">
        <ele>0.0</ele>
        <time>2026-04-25T13:29:54.000Z</time>
    </trkpt>
    <trkpt lat="59.0997505188" lon="30.024368763">
        <ele>0.0</ele>
        <time>2026-04-25T13:29:57.000Z</time>
    </trkpt>
    <trkpt lat="59.0997505188" lon="30.0243473053">
        <ele>0.0</ele>
        <time>2026-04-25T13:29:59.000Z</time>
    </trkpt>
    <trkpt lat="59.0997505188" lon="30.0243473053">
        <ele>0.0</ele>
        <time>2026-04-25T13:30:02.000Z</time>
    </trkpt>
    <trkpt lat="59.0997719765" lon="30.0243473053">
        <ele>0.0</ele>
        <time>2026-04-25T13:30:04.000Z</time>
    </trkpt>
    <trkpt lat="59.0997719765" lon="30.0243473053">
        <ele>0.0</ele>
        <time>2026-04-25T13:30:07.000Z</time>
    </trkpt>
    <trkpt lat="59.0997719765" lon="30.024368763">
        <ele>0.0</ele>
        <time>2026-04-25T13:30:09.000Z</time>
    </trkpt>
    <trkpt lat="59.0997719765" lon="30.024368763">
        <ele>0.0</ele>
        <time>2026-04-25T13:30:12.000Z</time>
    </trkpt>
    <trkpt lat="59.0997719765" lon="30.024368763">
        <ele>0.0</ele>
        <time>2026-04-25T13:30:14.000Z</time>
    </trkpt>
    <trkpt lat="59.0997719765" lon="30.024368763">
        <ele>0.0</ele>
        <time>2026-04-25T13:30:17.000Z</time>
    </trkpt>
    <trkpt lat="59.0997719765" lon="30.0243473053">
        <ele>0.0</ele>
        <time>2026-04-25T13:30:19.000Z</time>
    </trkpt>
    <trkpt lat="59.0997719765" lon="30.0243258476">
        <ele>0.0</ele>
        <time>2026-04-25T13:30:22.000Z</time>
    </trkpt>
    <trkpt lat="59.0997719765" lon="30.02430439">
        <ele>0.0</ele>
        <time>2026-04-25T13:30:24.000Z</time>
    </trkpt>
    <trkpt lat="59.0997719765" lon="30.02430439">
        <ele>0.0</ele>
        <time>2026-04-25T13:30:27.000Z</time>
    </trkpt>
    <trkpt lat="59.0997719765" lon="30.02430439">
        <ele>0.0</ele>
        <time>2026-04-25T13:30:29.000Z</time>
    </trkpt>
    <trkpt lat="59.0997719765" lon="30.02430439">
        <ele>0.0</ele>
        <time>2026-04-25T13:30:32.000Z</time>
    </trkpt>
    <trkpt lat="59.0997719765" lon="30.02430439">
        <ele>0.0</ele>
        <time>2026-04-25T13:30:34.000Z</time>
    </trkpt>
    <trkpt lat="59.0997719765" lon="30.02430439">
        <ele>0.0</ele>
        <time>2026-04-25T13:30:37.000Z</time>
    </trkpt>
    <trkpt lat="59.0997719765" lon="30.02430439">
        <ele>0.0</ele>
        <time>2026-04-25T13:30:39.000Z</time>
    </trkpt>
    <trkpt lat="59.0997719765" lon="30.0242829323">
        <ele>0.0</ele>
        <time>2026-04-25T13:30:42.000Z</time>
    </trkpt>
    <trkpt lat="59.0997719765" lon="30.02430439">
        <ele>0.0</ele>
        <time>2026-04-25T13:30:44.000Z</time>
    </trkpt>
    <trkpt lat="59.0997934341" lon="30.0243258476">
        <ele>0.0</ele>
        <time>2026-04-25T13:30:47.000Z</time>
    </trkpt>
    <trkpt lat="59.0998148918" lon="30.0243473053">
        <ele>0.0</ele>
        <time>2026-04-25T13:30:49.000Z</time>
    </trkpt>
    <trkpt lat="59.0998148918" lon="30.0243473053">
        <ele>0.0</ele>
        <time>2026-04-25T13:30:52.000Z</time>
    </trkpt>
    <trkpt lat="59.0998148918" lon="30.0243473053">
        <ele>0.0</ele>
        <time>2026-04-25T13:30:54.000Z</time>
    </trkpt>
    <trkpt lat="59.0998363495" lon="30.024368763">
        <ele>0.0</ele>
        <time>2026-04-25T13:30:57.000Z</time>
    </trkpt>
    <trkpt lat="59.0998363495" lon="30.0242829323">
        <ele>0.0</ele>
        <time>2026-04-25T13:30:59.000Z</time>
    </trkpt>
    <trkpt lat="59.0998578072" lon="30.0242614746">
        <ele>0.0</ele>
        <time>2026-04-25T13:31:02.000Z</time>
    </trkpt>
    <trkpt lat="59.0998578072" lon="30.0242614746">
        <ele>0.0</ele>
        <time>2026-04-25T13:31:04.000Z</time>
    </trkpt>
    <trkpt lat="59.0998792648" lon="30.0242829323">
        <ele>0.0</ele>
        <time>2026-04-25T13:31:07.000Z</time>
    </trkpt>
    <trkpt lat="59.0999007225" lon="30.0242614746">
        <ele>0.0</ele>
        <time>2026-04-25T13:31:09.000Z</time>
    </trkpt>
    <trkpt lat="59.0999007225" lon="30.0242400169">
        <ele>0.0</ele>
        <time>2026-04-25T13:31:12.000Z</time>
    </trkpt>
    <trkpt lat="59.0999221802" lon="30.0242185593">
        <ele>0.0</ele>
        <time>2026-04-25T13:31:14.000Z</time>
    </trkpt>
    <trkpt lat="59.0999436378" lon="30.0242185593">
        <ele>0.0</ele>
        <time>2026-04-25T13:31:17.000Z</time>
    </trkpt>
    <trkpt lat="59.0999650955" lon="30.0241756439">
        <ele>0.0</ele>
        <time>2026-04-25T13:31:19.000Z</time>
    </trkpt>
    <trkpt lat="59.0999865532" lon="30.0241971016">
        <ele>0.0</ele>
        <time>2026-04-25T13:31:22.000Z</time>
    </trkpt>
    <trkpt lat="59.1000509262" lon="30.0241756439">
        <ele>0.0</ele>
        <time>2026-04-25T13:31:24.000Z</time>
    </trkpt>
    <trkpt lat="59.1000509262" lon="30.0241541862">
        <ele>0.0</ele>
        <time>2026-04-25T13:31:27.000Z</time>
    </trkpt>
    <trkpt lat="59.1000723839" lon="30.0241112709">
        <ele>0.0</ele>
        <time>2026-04-25T13:31:29.000Z</time>
    </trkpt>
    <trkpt lat="59.1000723839" lon="30.0241112709">
        <ele>0.0</ele>
        <time>2026-04-25T13:31:32.000Z</time>
    </trkpt>
    <trkpt lat="59.1000938416" lon="30.0241112709">
        <ele>0.0</ele>
        <time>2026-04-25T13:31:34.000Z</time>
    </trkpt>
    <trkpt lat="59.1001152992" lon="30.0240898132">
        <ele>0.0</ele>
        <time>2026-04-25T13:31:37.000Z</time>
    </trkpt>
    <trkpt lat="59.1001367569" lon="30.0240898132">
        <ele>0.0</ele>
        <time>2026-04-25T13:31:39.000Z</time>
    </trkpt>
    <trkpt lat="59.1001367569" lon="30.0240683556">
        <ele>0.0</ele>
        <time>2026-04-25T13:31:42.000Z</time>
    </trkpt>
    <trkpt lat="59.1001367569" lon="30.0240898132">
        <ele>0.0</ele>
        <time>2026-04-25T13:31:44.000Z</time>
    </trkpt>
    <trkpt lat="59.1001367569" lon="30.0240683556">
        <ele>0.0</ele>
        <time>2026-04-25T13:31:47.000Z</time>
    </trkpt>
    <trkpt lat="59.1001152992" lon="30.0240683556">
        <ele>0.0</ele>
        <time>2026-04-25T13:31:49.000Z</time>
    </trkpt>
    <trkpt lat="59.1001152992" lon="30.0240683556">
        <ele>0.0</ele>
        <time>2026-04-25T13:31:52.000Z</time>
    </trkpt>
    <trkpt lat="59.1001152992" lon="30.0240683556">
        <ele>0.0</ele>
        <time>2026-04-25T13:31:54.000Z</time>
    </trkpt>
    <trkpt lat="59.1001152992" lon="30.0240683556">
        <ele>0.0</ele>
        <time>2026-04-25T13:31:57.000Z</time>
    </trkpt>
    <trkpt lat="59.1001152992" lon="30.0240898132">
        <ele>0.0</ele>
        <time>2026-04-25T13:31:59.000Z</time>
    </trkpt>
    <trkpt lat="59.1001367569" lon="30.0241112709">
        <ele>0.0</ele>
        <time>2026-04-25T13:32:02.000Z</time>
    </trkpt>
    <trkpt lat="59.1001367569" lon="30.0241112709">
        <ele>0.0</ele>
        <time>2026-04-25T13:32:04.000Z</time>
    </trkpt>
    <trkpt lat="59.1001367569" lon="30.0241112709">
        <ele>0.0</ele>
        <time>2026-04-25T13:32:07.000Z</time>
    </trkpt>
    <trkpt lat="59.1001367569" lon="30.0240898132">
        <ele>0.0</ele>
        <time>2026-04-25T13:32:09.000Z</time>
    </trkpt>
    <trkpt lat="59.1001152992" lon="30.0240683556">
        <ele>0.0</ele>
        <time>2026-04-25T13:32:12.000Z</time>
    </trkpt>
    <trkpt lat="59.1001152992" lon="30.0240898132">
        <ele>0.0</ele>
        <time>2026-04-25T13:32:14.000Z</time>
    </trkpt>
    <trkpt lat="59.1001367569" lon="30.0241327286">
        <ele>0.0</ele>
        <time>2026-04-25T13:32:17.000Z</time>
    </trkpt>
    <trkpt lat="59.1001582146" lon="30.0241327286">
        <ele>0.0</ele>
        <time>2026-04-25T13:32:19.000Z</time>
    </trkpt>
    <trkpt lat="59.1001582146" lon="30.0240898132">
        <ele>0.0</ele>
        <time>2026-04-25T13:32:22.000Z</time>
    </trkpt>
    <trkpt lat="59.1001796722" lon="30.0240683556">
        <ele>0.0</ele>
        <time>2026-04-25T13:32:24.000Z</time>
    </trkpt>
    <trkpt lat="59.1002011299" lon="30.0240683556">
        <ele>0.0</ele>
        <time>2026-04-25T13:32:27.000Z</time>
    </trkpt>
    <trkpt lat="59.1002011299" lon="30.0240683556">
        <ele>0.0</ele>
        <time>2026-04-25T13:32:29.000Z</time>
    </trkpt>
    <trkpt lat="59.1002011299" lon="30.0240683556">
        <ele>0.0</ele>
        <time>2026-04-25T13:32:32.000Z</time>
    </trkpt>
    <trkpt lat="59.1002225876" lon="30.0240683556">
        <ele>0.0</ele>
        <time>2026-04-25T13:32:34.000Z</time>
    </trkpt>
    <trkpt lat="59.1002440453" lon="30.0240683556">
        <ele>0.0</ele>
        <time>2026-04-25T13:32:37.000Z</time>
    </trkpt>
    <trkpt lat="59.1002655029" lon="30.0240468979">
        <ele>0.0</ele>
        <time>2026-04-25T13:32:39.000Z</time>
    </trkpt>
    <trkpt lat="59.1002869606" lon="30.0240039825">
        <ele>0.0</ele>
        <time>2026-04-25T13:32:42.000Z</time>
    </trkpt>
    <trkpt lat="59.1003084183" lon="30.0240039825">
        <ele>0.0</ele>
        <time>2026-04-25T13:32:44.000Z</time>
    </trkpt>
    <trkpt lat="59.1003298759" lon="30.0239825249">
        <ele>0.0</ele>
        <time>2026-04-25T13:32:47.000Z</time>
    </trkpt>
    <trkpt lat="59.1003298759" lon="30.0239610672">
        <ele>0.0</ele>
        <time>2026-04-25T13:32:49.000Z</time>
    </trkpt>
    <trkpt lat="59.1003513336" lon="30.0239396095">
        <ele>0.0</ele>
        <time>2026-04-25T13:32:52.000Z</time>
    </trkpt>
    <trkpt lat="59.1003727913" lon="30.0239396095">
        <ele>0.0</ele>
        <time>2026-04-25T13:32:54.000Z</time>
    </trkpt>
    <trkpt lat="59.100394249" lon="30.0239610672">
        <ele>0.0</ele>
        <time>2026-04-25T13:32:57.000Z</time>
    </trkpt>
    <trkpt lat="59.1004157066" lon="30.0239610672">
        <ele>0.0</ele>
        <time>2026-04-25T13:32:59.000Z</time>
    </trkpt>
    <trkpt lat="59.1004157066" lon="30.0239610672">
        <ele>0.0</ele>
        <time>2026-04-25T13:33:02.000Z</time>
    </trkpt>
    <trkpt lat="59.1004157066" lon="30.0239825249">
        <ele>0.0</ele>
        <time>2026-04-25T13:33:04.000Z</time>
    </trkpt>
    <trkpt lat="59.1004157066" lon="30.0239610672">
        <ele>0.0</ele>
        <time>2026-04-25T13:33:07.000Z</time>
    </trkpt>
    <trkpt lat="59.100394249" lon="30.0239396095">
        <ele>0.0</ele>
        <time>2026-04-25T13:33:09.000Z</time>
    </trkpt>
    <trkpt lat="59.1004157066" lon="30.0239181519">
        <ele>0.0</ele>
        <time>2026-04-25T13:33:12.000Z</time>
    </trkpt>
    <trkpt lat="59.1004371643" lon="30.0238966942">
        <ele>0.0</ele>
        <time>2026-04-25T13:33:14.000Z</time>
    </trkpt>
    <trkpt lat="59.1004371643" lon="30.0238966942">
        <ele>0.0</ele>
        <time>2026-04-25T13:33:17.000Z</time>
    </trkpt>
    <trkpt lat="59.100458622" lon="30.0238966942">
        <ele>0.0</ele>
        <time>2026-04-25T13:33:19.000Z</time>
    </trkpt>
    <trkpt lat="59.100458622" lon="30.0238966942">
        <ele>0.0</ele>
        <time>2026-04-25T13:33:22.000Z</time>
    </trkpt>
    <trkpt lat="59.1005015373" lon="30.0238966942">
        <ele>0.0</ele>
        <time>2026-04-25T13:33:24.000Z</time>
    </trkpt>
    <trkpt lat="59.1005015373" lon="30.0238966942">
        <ele>0.0</ele>
        <time>2026-04-25T13:33:27.000Z</time>
    </trkpt>
    <trkpt lat="59.1004800797" lon="30.0239181519">
        <ele>0.0</ele>
        <time>2026-04-25T13:33:29.000Z</time>
    </trkpt>
    <trkpt lat="59.1004800797" lon="30.0239396095">
        <ele>0.0</ele>
        <time>2026-04-25T13:33:32.000Z</time>
    </trkpt>
    <trkpt lat="59.1004800797" lon="30.0239181519">
        <ele>0.0</ele>
        <time>2026-04-25T13:33:34.000Z</time>
    </trkpt>
    <trkpt lat="59.1005015373" lon="30.0238752365">
        <ele>0.0</ele>
        <time>2026-04-25T13:33:37.000Z</time>
    </trkpt>
    <trkpt lat="59.1004800797" lon="30.0238323212">
        <ele>0.0</ele>
        <time>2026-04-25T13:33:39.000Z</time>
    </trkpt>
    <trkpt lat="59.1004800797" lon="30.0238323212">
        <ele>0.0</ele>
        <time>2026-04-25T13:33:42.000Z</time>
    </trkpt>
    <trkpt lat="59.1004800797" lon="30.0238323212">
        <ele>0.0</ele>
        <time>2026-04-25T13:33:44.000Z</time>
    </trkpt>
    <trkpt lat="59.1005015373" lon="30.0238323212">
        <ele>0.0</ele>
        <time>2026-04-25T13:33:47.000Z</time>
    </trkpt>
    <trkpt lat="59.1005015373" lon="30.0238323212">
        <ele>0.0</ele>
        <time>2026-04-25T13:33:49.000Z</time>
    </trkpt>
    <trkpt lat="59.100522995" lon="30.0238323212">
        <ele>0.0</ele>
        <time>2026-04-25T13:33:52.000Z</time>
    </trkpt>
    <trkpt lat="59.100522995" lon="30.0238108635">
        <ele>0.0</ele>
        <time>2026-04-25T13:33:54.000Z</time>
    </trkpt>
    <trkpt lat="59.100522995" lon="30.0238108635">
        <ele>0.0</ele>
        <time>2026-04-25T13:33:57.000Z</time>
    </trkpt>
    <trkpt lat="59.1005444527" lon="30.0238108635">
        <ele>0.0</ele>
        <time>2026-04-25T13:33:59.000Z</time>
    </trkpt>
    <trkpt lat="59.1005659103" lon="30.0238108635">
        <ele>0.0</ele>
        <time>2026-04-25T13:34:02.000Z</time>
    </trkpt>
    <trkpt lat="59.100587368" lon="30.0238108635">
        <ele>0.0</ele>
        <time>2026-04-25T13:34:04.000Z</time>
    </trkpt>
    <trkpt lat="59.1006088257" lon="30.0237679482">
        <ele>0.0</ele>
        <time>2026-04-25T13:34:07.000Z</time>
    </trkpt>
    <trkpt lat="59.1006088257" lon="30.0237679482">
        <ele>0.0</ele>
        <time>2026-04-25T13:34:09.000Z</time>
    </trkpt>
    <trkpt lat="59.1006088257" lon="30.0237679482">
        <ele>0.0</ele>
        <time>2026-04-25T13:34:12.000Z</time>
    </trkpt>
    <trkpt lat="59.1006088257" lon="30.0237679482">
        <ele>0.0</ele>
        <time>2026-04-25T13:34:14.000Z</time>
    </trkpt>
    <trkpt lat="59.1006088257" lon="30.0237894058">
        <ele>0.0</ele>
        <time>2026-04-25T13:34:17.000Z</time>
    </trkpt>
    <trkpt lat="59.100587368" lon="30.0238108635">
        <ele>0.0</ele>
        <time>2026-04-25T13:34:19.000Z</time>
    </trkpt>
    <trkpt lat="59.100587368" lon="30.0238108635">
        <ele>0.0</ele>
        <time>2026-04-25T13:34:22.000Z</time>
    </trkpt>
    <trkpt lat="59.100587368" lon="30.0238323212">
        <ele>0.0</ele>
        <time>2026-04-25T13:34:24.000Z</time>
    </trkpt>
    <trkpt lat="59.100587368" lon="30.0238323212">
        <ele>0.0</ele>
        <time>2026-04-25T13:34:27.000Z</time>
    </trkpt>
    <trkpt lat="59.1005659103" lon="30.0238108635">
        <ele>0.0</ele>
        <time>2026-04-25T13:34:29.000Z</time>
    </trkpt>
    <trkpt lat="59.1005444527" lon="30.0237894058">
        <ele>0.0</ele>
        <time>2026-04-25T13:34:32.000Z</time>
    </trkpt>
    <trkpt lat="59.1005444527" lon="30.0237894058">
        <ele>0.0</ele>
        <time>2026-04-25T13:34:34.000Z</time>
    </trkpt>
    <trkpt lat="59.1005444527" lon="30.0237894058">
        <ele>0.0</ele>
        <time>2026-04-25T13:34:37.000Z</time>
    </trkpt>
    <trkpt lat="59.1005444527" lon="30.0237894058">
        <ele>0.0</ele>
        <time>2026-04-25T13:34:39.000Z</time>
    </trkpt>
    <trkpt lat="59.1005444527" lon="30.0237894058">
        <ele>0.0</ele>
        <time>2026-04-25T13:34:42.000Z</time>
    </trkpt>
    <trkpt lat="59.1005444527" lon="30.0237894058">
        <ele>0.0</ele>
        <time>2026-04-25T13:34:44.000Z</time>
    </trkpt>
    <trkpt lat="59.1005659103" lon="30.0237894058">
        <ele>0.0</ele>
        <time>2026-04-25T13:34:47.000Z</time>
    </trkpt>
    <trkpt lat="59.1005659103" lon="30.0237894058">
        <ele>0.0</ele>
        <time>2026-04-25T13:34:49.000Z</time>
    </trkpt>
    <trkpt lat="59.1005444527" lon="30.0237679482">
        <ele>0.0</ele>
        <time>2026-04-25T13:34:52.000Z</time>
    </trkpt>
    <trkpt lat="59.1005444527" lon="30.0237679482">
        <ele>0.0</ele>
        <time>2026-04-25T13:34:54.000Z</time>
    </trkpt>
    <trkpt lat="59.1005444527" lon="30.0237679482">
        <ele>0.0</ele>
        <time>2026-04-25T13:34:57.000Z</time>
    </trkpt>
    <trkpt lat="59.1005659103" lon="30.0237894058">
        <ele>0.0</ele>
        <time>2026-04-25T13:34:59.000Z</time>
    </trkpt>
    <trkpt lat="59.1005659103" lon="30.0237894058">
        <ele>0.0</ele>
        <time>2026-04-25T13:35:02.000Z</time>
    </trkpt>
    <trkpt lat="59.1005659103" lon="30.0238108635">
        <ele>0.0</ele>
        <time>2026-04-25T13:35:04.000Z</time>
    </trkpt>
    <trkpt lat="59.100587368" lon="30.0237894058">
        <ele>0.0</ele>
        <time>2026-04-25T13:35:07.000Z</time>
    </trkpt>
    <trkpt lat="59.1006088257" lon="30.0238108635">
        <ele>0.0</ele>
        <time>2026-04-25T13:35:09.000Z</time>
    </trkpt>
    <trkpt lat="59.1006302834" lon="30.0237679482">
        <ele>0.0</ele>
        <time>2026-04-25T13:35:12.000Z</time>
    </trkpt>
    <trkpt lat="59.1006731987" lon="30.0237464905">
        <ele>0.0</ele>
        <time>2026-04-25T13:35:14.000Z</time>
    </trkpt>
    <trkpt lat="59.1006731987" lon="30.0237250328">
        <ele>0.0</ele>
        <time>2026-04-25T13:35:17.000Z</time>
    </trkpt>
    <trkpt lat="59.1006731987" lon="30.0237250328">
        <ele>0.0</ele>
        <time>2026-04-25T13:35:19.000Z</time>
    </trkpt>
    <trkpt lat="59.1006731987" lon="30.0237250328">
        <ele>0.0</ele>
        <time>2026-04-25T13:35:22.000Z</time>
    </trkpt>
    <trkpt lat="59.1006946564" lon="30.0237250328">
        <ele>0.0</ele>
        <time>2026-04-25T13:35:24.000Z</time>
    </trkpt>
    <trkpt lat="59.1006946564" lon="30.0237035751">
        <ele>0.0</ele>
        <time>2026-04-25T13:35:27.000Z</time>
    </trkpt>
    <trkpt lat="59.1006946564" lon="30.0237250328">
        <ele>0.0</ele>
        <time>2026-04-25T13:35:29.000Z</time>
    </trkpt>
    <trkpt lat="59.1006946564" lon="30.0237464905">
        <ele>0.0</ele>
        <time>2026-04-25T13:35:32.000Z</time>
    </trkpt>
    <trkpt lat="59.100716114" lon="30.0237679482">
        <ele>0.0</ele>
        <time>2026-04-25T13:35:34.000Z</time>
    </trkpt>
    <trkpt lat="59.100716114" lon="30.0237679482">
        <ele>0.0</ele>
        <time>2026-04-25T13:35:37.000Z</time>
    </trkpt>
    <trkpt lat="59.1007375717" lon="30.0237679482">
        <ele>0.0</ele>
        <time>2026-04-25T13:35:39.000Z</time>
    </trkpt>
    <trkpt lat="59.1007375717" lon="30.0237679482">
        <ele>0.0</ele>
        <time>2026-04-25T13:35:42.000Z</time>
    </trkpt>
    <trkpt lat="59.1007375717" lon="30.0237679482">
        <ele>0.0</ele>
        <time>2026-04-25T13:35:44.000Z</time>
    </trkpt>
    <trkpt lat="59.1007590294" lon="30.0237679482">
        <ele>0.0</ele>
        <time>2026-04-25T13:35:47.000Z</time>
    </trkpt>
    <trkpt lat="59.1007590294" lon="30.0237679482">
        <ele>0.0</ele>
        <time>2026-04-25T13:35:49.000Z</time>
    </trkpt>
    <trkpt lat="59.1007590294" lon="30.0237679482">
        <ele>0.0</ele>
        <time>2026-04-25T13:35:52.000Z</time>
    </trkpt>
    <trkpt lat="59.1007590294" lon="30.0237679482">
        <ele>0.0</ele>
        <time>2026-04-25T13:35:54.000Z</time>
    </trkpt>
    <trkpt lat="59.1007590294" lon="30.0237679482">
        <ele>0.0</ele>
        <time>2026-04-25T13:35:57.000Z</time>
    </trkpt>
    <trkpt lat="59.1007590294" lon="30.0237679482">
        <ele>0.0</ele>
        <time>2026-04-25T13:35:59.000Z</time>
    </trkpt>
    <trkpt lat="59.1007590294" lon="30.0237679482">
        <ele>0.0</ele>
        <time>2026-04-25T13:36:02.000Z</time>
    </trkpt>
    <trkpt lat="59.1007590294" lon="30.0237679482">
        <ele>0.0</ele>
        <time>2026-04-25T13:36:04.000Z</time>
    </trkpt>
    <trkpt lat="59.1007590294" lon="30.0237679482">
        <ele>0.0</ele>
        <time>2026-04-25T13:36:07.000Z</time>
    </trkpt>
    <trkpt lat="59.1007590294" lon="30.0237679482">
        <ele>0.0</ele>
        <time>2026-04-25T13:36:09.000Z</time>
    </trkpt>
    <trkpt lat="59.1007590294" lon="30.0237679482">
        <ele>0.0</ele>
        <time>2026-04-25T13:36:12.000Z</time>
    </trkpt>
    <trkpt lat="59.1007590294" lon="30.0237679482">
        <ele>0.0</ele>
        <time>2026-04-25T13:36:14.000Z</time>
    </trkpt>
    <trkpt lat="59.1007590294" lon="30.0237679482">
        <ele>0.0</ele>
        <time>2026-04-25T13:36:17.000Z</time>
    </trkpt>
    <trkpt lat="59.1007590294" lon="30.0237679482">
        <ele>0.0</ele>
        <time>2026-04-25T13:36:19.000Z</time>
    </trkpt>
    <trkpt lat="59.1007590294" lon="30.0237679482">
        <ele>0.0</ele>
        <time>2026-04-25T13:36:22.000Z</time>
    </trkpt>
    <trkpt lat="59.1007590294" lon="30.0237679482">
        <ele>0.0</ele>
        <time>2026-04-25T13:36:24.000Z</time>
    </trkpt>
    <trkpt lat="59.1007590294" lon="30.0237679482">
        <ele>0.0</ele>
        <time>2026-04-25T13:36:27.000Z</time>
    </trkpt>
    <trkpt lat="59.1007804871" lon="30.0237035751">
        <ele>0.0</ele>
        <time>2026-04-25T13:36:29.000Z</time>
    </trkpt>
    <trkpt lat="59.1007804871" lon="30.0236606598">
        <ele>0.0</ele>
        <time>2026-04-25T13:36:32.000Z</time>
    </trkpt>
    <trkpt lat="59.1008019447" lon="30.0236177444">
        <ele>0.0</ele>
        <time>2026-04-25T13:36:34.000Z</time>
    </trkpt>
    <trkpt lat="59.1008019447" lon="30.0236177444">
        <ele>0.0</ele>
        <time>2026-04-25T13:36:37.000Z</time>
    </trkpt>
    <trkpt lat="59.1008234024" lon="30.0236177444">
        <ele>0.0</ele>
        <time>2026-04-25T13:36:39.000Z</time>
    </trkpt>
    <trkpt lat="59.1008234024" lon="30.0236177444">
        <ele>0.0</ele>
        <time>2026-04-25T13:36:42.000Z</time>
    </trkpt>
    <trkpt lat="59.1008234024" lon="30.0236392021">
        <ele>0.0</ele>
        <time>2026-04-25T13:36:44.000Z</time>
    </trkpt>
    <trkpt lat="59.1008234024" lon="30.0236392021">
        <ele>0.0</ele>
        <time>2026-04-25T13:36:47.000Z</time>
    </trkpt>
    <trkpt lat="59.1008019447" lon="30.0236392021">
        <ele>0.0</ele>
        <time>2026-04-25T13:36:49.000Z</time>
    </trkpt>
    <trkpt lat="59.1008234024" lon="30.0236177444">
        <ele>0.0</ele>
        <time>2026-04-25T13:36:52.000Z</time>
    </trkpt>
    <trkpt lat="59.1008234024" lon="30.0235962868">
        <ele>0.0</ele>
        <time>2026-04-25T13:36:57.000Z</time>
    </trkpt>
    <trkpt lat="59.1008234024" lon="30.0236177444">
        <ele>0.0</ele>
        <time>2026-04-25T13:36:59.000Z</time>
    </trkpt>
    <trkpt lat="59.1008448601" lon="30.0236392021">
        <ele>0.0</ele>
        <time>2026-04-25T13:37:02.000Z</time>
    </trkpt>
    <trkpt lat="59.1008448601" lon="30.0236392021">
        <ele>0.0</ele>
        <time>2026-04-25T13:37:04.000Z</time>
    </trkpt>
    <trkpt lat="59.1008448601" lon="30.0236392021">
        <ele>0.0</ele>
        <time>2026-04-25T13:37:07.000Z</time>
    </trkpt>
    <trkpt lat="59.1008448601" lon="30.0236392021">
        <ele>0.0</ele>
        <time>2026-04-25T13:37:09.000Z</time>
    </trkpt>
    <trkpt lat="59.1008448601" lon="30.0236392021">
        <ele>0.0</ele>
        <time>2026-04-25T13:37:12.000Z</time>
    </trkpt>
    <trkpt lat="59.1008448601" lon="30.0236177444">
        <ele>0.0</ele>
        <time>2026-04-25T13:37:14.000Z</time>
    </trkpt>
    <trkpt lat="59.1008448601" lon="30.0236177444">
        <ele>0.0</ele>
        <time>2026-04-25T13:37:17.000Z</time>
    </trkpt>
    <trkpt lat="59.1008663177" lon="30.0236177444">
        <ele>0.0</ele>
        <time>2026-04-25T13:37:19.000Z</time>
    </trkpt>
    <trkpt lat="59.1008663177" lon="30.0236177444">
        <ele>0.0</ele>
        <time>2026-04-25T13:37:22.000Z</time>
    </trkpt>
    <trkpt lat="59.1008663177" lon="30.0235962868">
        <ele>0.0</ele>
        <time>2026-04-25T13:37:24.000Z</time>
    </trkpt>
    <trkpt lat="59.1008663177" lon="30.0235962868">
        <ele>0.0</ele>
        <time>2026-04-25T13:37:27.000Z</time>
    </trkpt>
    <trkpt lat="59.1008663177" lon="30.0235962868">
        <ele>0.0</ele>
        <time>2026-04-25T13:37:29.000Z</time>
    </trkpt>
    <trkpt lat="59.1008663177" lon="30.0235962868">
        <ele>0.0</ele>
        <time>2026-04-25T13:37:32.000Z</time>
    </trkpt>
    <trkpt lat="59.1008663177" lon="30.0235962868">
        <ele>0.0</ele>
        <time>2026-04-25T13:37:34.000Z</time>
    </trkpt>
    <trkpt lat="59.1008663177" lon="30.0235962868">
        <ele>0.0</ele>
        <time>2026-04-25T13:37:37.000Z</time>
    </trkpt>
    <trkpt lat="59.1008877754" lon="30.0235962868">
        <ele>0.0</ele>
        <time>2026-04-25T13:37:39.000Z</time>
    </trkpt>
    <trkpt lat="59.1008877754" lon="30.0235962868">
        <ele>0.0</ele>
        <time>2026-04-25T13:37:42.000Z</time>
    </trkpt>
    <trkpt lat="59.1008877754" lon="30.0235748291">
        <ele>0.0</ele>
        <time>2026-04-25T13:37:44.000Z</time>
    </trkpt>
    <trkpt lat="59.1008877754" lon="30.0235748291">
        <ele>0.0</ele>
        <time>2026-04-25T13:37:47.000Z</time>
    </trkpt>
    <trkpt lat="59.1009092331" lon="30.0235748291">
        <ele>0.0</ele>
        <time>2026-04-25T13:37:49.000Z</time>
    </trkpt>
    <trkpt lat="59.1009092331" lon="30.0235748291">
        <ele>0.0</ele>
        <time>2026-04-25T13:37:52.000Z</time>
    </trkpt>
    <trkpt lat="59.1009092331" lon="30.0235748291">
        <ele>0.0</ele>
        <time>2026-04-25T13:37:54.000Z</time>
    </trkpt>
    <trkpt lat="59.1009092331" lon="30.0235748291">
        <ele>0.0</ele>
        <time>2026-04-25T13:37:57.000Z</time>
    </trkpt>
    <trkpt lat="59.1009092331" lon="30.0235748291">
        <ele>0.0</ele>
        <time>2026-04-25T13:37:59.000Z</time>
    </trkpt>
    <trkpt lat="59.1009092331" lon="30.0235748291">
        <ele>0.0</ele>
        <time>2026-04-25T13:38:02.000Z</time>
    </trkpt>
    <trkpt lat="59.1009092331" lon="30.0235748291">
        <ele>0.0</ele>
        <time>2026-04-25T13:38:04.000Z</time>
    </trkpt>
    <trkpt lat="59.1009306908" lon="30.0235533714">
        <ele>0.0</ele>
        <time>2026-04-25T13:38:07.000Z</time>
    </trkpt>
    <trkpt lat="59.1009306908" lon="30.0235533714">
        <ele>0.0</ele>
        <time>2026-04-25T13:38:09.000Z</time>
    </trkpt>
    <trkpt lat="59.1009306908" lon="30.0235533714">
        <ele>0.0</ele>
        <time>2026-04-25T13:38:12.000Z</time>
    </trkpt>
    <trkpt lat="59.1009306908" lon="30.0235533714">
        <ele>0.0</ele>
        <time>2026-04-25T13:38:14.000Z</time>
    </trkpt>
    <trkpt lat="59.1009521484" lon="30.0235748291">
        <ele>0.0</ele>
        <time>2026-04-25T13:38:17.000Z</time>
    </trkpt>
    <trkpt lat="59.1009521484" lon="30.0235533714">
        <ele>0.0</ele>
        <time>2026-04-25T13:38:19.000Z</time>
    </trkpt>
    <trkpt lat="59.1009521484" lon="30.0235319138">
        <ele>0.0</ele>
        <time>2026-04-25T13:38:22.000Z</time>
    </trkpt>
    <trkpt lat="59.1009950638" lon="30.0235104561">
        <ele>0.0</ele>
        <time>2026-04-25T13:38:24.000Z</time>
    </trkpt>
    <trkpt lat="59.1009950638" lon="30.0234889984">
        <ele>0.0</ele>
        <time>2026-04-25T13:38:27.000Z</time>
    </trkpt>
    <trkpt lat="59.1009950638" lon="30.0234889984">
        <ele>0.0</ele>
        <time>2026-04-25T13:38:29.000Z</time>
    </trkpt>
    <trkpt lat="59.1009950638" lon="30.0234889984">
        <ele>0.0</ele>
        <time>2026-04-25T13:38:32.000Z</time>
    </trkpt>
    <trkpt lat="59.1009736061" lon="30.0235104561">
        <ele>0.0</ele>
        <time>2026-04-25T13:38:34.000Z</time>
    </trkpt>
    <trkpt lat="59.1009950638" lon="30.0235104561">
        <ele>0.0</ele>
        <time>2026-04-25T13:38:37.000Z</time>
    </trkpt>
    <trkpt lat="59.1009950638" lon="30.0235319138">
        <ele>0.0</ele>
        <time>2026-04-25T13:38:39.000Z</time>
    </trkpt>
    <trkpt lat="59.1010165215" lon="30.0235104561">
        <ele>0.0</ele>
        <time>2026-04-25T13:38:42.000Z</time>
    </trkpt>
    <trkpt lat="59.1010165215" lon="30.0235319138">
        <ele>0.0</ele>
        <time>2026-04-25T13:38:44.000Z</time>
    </trkpt>
    <trkpt lat="59.1010165215" lon="30.0235104561">
        <ele>0.0</ele>
        <time>2026-04-25T13:38:47.000Z</time>
    </trkpt>
    <trkpt lat="59.1010594368" lon="30.0234889984">
        <ele>0.0</ele>
        <time>2026-04-25T13:38:49.000Z</time>
    </trkpt>
    <trkpt lat="59.1010808945" lon="30.0234889984">
        <ele>0.0</ele>
        <time>2026-04-25T13:38:52.000Z</time>
    </trkpt>
    <trkpt lat="59.1011238098" lon="30.0234460831">
        <ele>0.0</ele>
        <time>2026-04-25T13:38:54.000Z</time>
    </trkpt>
    <trkpt lat="59.1011238098" lon="30.0234246254">
        <ele>0.0</ele>
        <time>2026-04-25T13:38:57.000Z</time>
    </trkpt>
    <trkpt lat="59.1011452675" lon="30.0234031677">
        <ele>0.0</ele>
        <time>2026-04-25T13:38:59.000Z</time>
    </trkpt>
    <trkpt lat="59.1011452675" lon="30.0234031677">
        <ele>0.0</ele>
        <time>2026-04-25T13:39:02.000Z</time>
    </trkpt>
    <trkpt lat="59.1011667252" lon="30.0233817101">
        <ele>0.0</ele>
        <time>2026-04-25T13:39:04.000Z</time>
    </trkpt>
    <trkpt lat="59.1011881828" lon="30.0233602524">
        <ele>0.0</ele>
        <time>2026-04-25T13:39:07.000Z</time>
    </trkpt>
    <trkpt lat="59.1011881828" lon="30.0233602524">
        <ele>0.0</ele>
        <time>2026-04-25T13:39:09.000Z</time>
    </trkpt>
    <trkpt lat="59.1011881828" lon="30.0233817101">
        <ele>0.0</ele>
        <time>2026-04-25T13:39:12.000Z</time>
    </trkpt>
    <trkpt lat="59.1011881828" lon="30.0233817101">
        <ele>0.0</ele>
        <time>2026-04-25T13:39:14.000Z</time>
    </trkpt>
    <trkpt lat="59.1011881828" lon="30.0233817101">
        <ele>0.0</ele>
        <time>2026-04-25T13:39:17.000Z</time>
    </trkpt>
    <trkpt lat="59.1011881828" lon="30.0233817101">
        <ele>0.0</ele>
        <time>2026-04-25T13:39:19.000Z</time>
    </trkpt>
    <trkpt lat="59.1011881828" lon="30.0233817101">
        <ele>0.0</ele>
        <time>2026-04-25T13:39:22.000Z</time>
    </trkpt>
    <trkpt lat="59.1011667252" lon="30.0233817101">
        <ele>0.0</ele>
        <time>2026-04-25T13:39:24.000Z</time>
    </trkpt>
    <trkpt lat="59.1011452675" lon="30.0234031677">
        <ele>0.0</ele>
        <time>2026-04-25T13:39:27.000Z</time>
    </trkpt>
    <trkpt lat="59.1011238098" lon="30.0233817101">
        <ele>0.0</ele>
        <time>2026-04-25T13:39:29.000Z</time>
    </trkpt>
    <trkpt lat="59.1011238098" lon="30.0234031677">
        <ele>0.0</ele>
        <time>2026-04-25T13:39:32.000Z</time>
    </trkpt>
    <trkpt lat="59.1011238098" lon="30.0234031677">
        <ele>0.0</ele>
        <time>2026-04-25T13:39:34.000Z</time>
    </trkpt>
    <trkpt lat="59.1011238098" lon="30.0234031677">
        <ele>0.0</ele>
        <time>2026-04-25T13:39:37.000Z</time>
    </trkpt>
    <trkpt lat="59.1011452675" lon="30.0233817101">
        <ele>0.0</ele>
        <time>2026-04-25T13:39:39.000Z</time>
    </trkpt>
    <trkpt lat="59.1011452675" lon="30.0233817101">
        <ele>0.0</ele>
        <time>2026-04-25T13:39:42.000Z</time>
    </trkpt>
    <trkpt lat="59.1011667252" lon="30.0233817101">
        <ele>0.0</ele>
        <time>2026-04-25T13:39:44.000Z</time>
    </trkpt>
    <trkpt lat="59.1011881828" lon="30.0233602524">
        <ele>0.0</ele>
        <time>2026-04-25T13:39:47.000Z</time>
    </trkpt>
    <trkpt lat="59.1012096405" lon="30.0233602524">
        <ele>0.0</ele>
        <time>2026-04-25T13:39:49.000Z</time>
    </trkpt>
    <trkpt lat="59.1012096405" lon="30.0233602524">
        <ele>0.0</ele>
        <time>2026-04-25T13:39:52.000Z</time>
    </trkpt>
    <trkpt lat="59.1012096405" lon="30.0233602524">
        <ele>0.0</ele>
        <time>2026-04-25T13:39:54.000Z</time>
    </trkpt>
    <trkpt lat="59.1012096405" lon="30.0233387947">
        <ele>0.0</ele>
        <time>2026-04-25T13:39:57.000Z</time>
    </trkpt>
    <trkpt lat="59.1012096405" lon="30.0233817101">
        <ele>0.0</ele>
        <time>2026-04-25T13:39:59.000Z</time>
    </trkpt>
    <trkpt lat="59.1012096405" lon="30.0233817101">
        <ele>0.0</ele>
        <time>2026-04-25T13:40:02.000Z</time>
    </trkpt>
    <trkpt lat="59.1012096405" lon="30.0233817101">
        <ele>0.0</ele>
        <time>2026-04-25T13:40:04.000Z</time>
    </trkpt>
    <trkpt lat="59.1012310982" lon="30.0233817101">
        <ele>0.0</ele>
        <time>2026-04-25T13:40:07.000Z</time>
    </trkpt>
    <trkpt lat="59.1012525558" lon="30.0233387947">
        <ele>0.0</ele>
        <time>2026-04-25T13:40:09.000Z</time>
    </trkpt>
    <trkpt lat="59.1012525558" lon="30.023317337">
        <ele>0.0</ele>
        <time>2026-04-25T13:40:12.000Z</time>
    </trkpt>
    <trkpt lat="59.1012525558" lon="30.023317337">
        <ele>0.0</ele>
        <time>2026-04-25T13:40:14.000Z</time>
    </trkpt>
    <trkpt lat="59.1012525558" lon="30.023317337">
        <ele>0.0</ele>
        <time>2026-04-25T13:40:17.000Z</time>
    </trkpt>
    <trkpt lat="59.1012740135" lon="30.023317337">
        <ele>0.0</ele>
        <time>2026-04-25T13:40:19.000Z</time>
    </trkpt>
    <trkpt lat="59.1012740135" lon="30.023317337">
        <ele>0.0</ele>
        <time>2026-04-25T13:40:22.000Z</time>
    </trkpt>
    <trkpt lat="59.1012740135" lon="30.023317337">
        <ele>0.0</ele>
        <time>2026-04-25T13:40:24.000Z</time>
    </trkpt>
    <trkpt lat="59.1012740135" lon="30.023317337">
        <ele>0.0</ele>
        <time>2026-04-25T13:40:27.000Z</time>
    </trkpt>
    <trkpt lat="59.1012740135" lon="30.023317337">
        <ele>0.0</ele>
        <time>2026-04-25T13:40:29.000Z</time>
    </trkpt>
    <trkpt lat="59.1012740135" lon="30.023317337">
        <ele>0.0</ele>
        <time>2026-04-25T13:40:32.000Z</time>
    </trkpt>
    <trkpt lat="59.1012740135" lon="30.023317337">
        <ele>0.0</ele>
        <time>2026-04-25T13:40:34.000Z</time>
    </trkpt>
    <trkpt lat="59.1012740135" lon="30.023317337">
        <ele>0.0</ele>
        <time>2026-04-25T13:40:37.000Z</time>
    </trkpt>
    <trkpt lat="59.1012740135" lon="30.0232744217">
        <ele>0.0</ele>
        <time>2026-04-25T13:40:39.000Z</time>
    </trkpt>
    <trkpt lat="59.1012740135" lon="30.0232744217">
        <ele>0.0</ele>
        <time>2026-04-25T13:40:42.000Z</time>
    </trkpt>
    <trkpt lat="59.1012740135" lon="30.0232744217">
        <ele>0.0</ele>
        <time>2026-04-25T13:40:44.000Z</time>
    </trkpt>
    <trkpt lat="59.1012740135" lon="30.023252964">
        <ele>0.0</ele>
        <time>2026-04-25T13:40:47.000Z</time>
    </trkpt>
    <trkpt lat="59.1012740135" lon="30.0232100487">
        <ele>0.0</ele>
        <time>2026-04-25T13:40:49.000Z</time>
    </trkpt>
    <trkpt lat="59.1012740135" lon="30.0232100487">
        <ele>0.0</ele>
        <time>2026-04-25T13:40:52.000Z</time>
    </trkpt>
    <trkpt lat="59.1012740135" lon="30.023188591">
        <ele>0.0</ele>
        <time>2026-04-25T13:40:54.000Z</time>
    </trkpt>
    <trkpt lat="59.1012740135" lon="30.023188591">
        <ele>0.0</ele>
        <time>2026-04-25T13:40:57.000Z</time>
    </trkpt>
    <trkpt lat="59.1012525558" lon="30.0231671333">
        <ele>0.0</ele>
        <time>2026-04-25T13:41:02.000Z</time>
    </trkpt>
    <trkpt lat="59.1012525558" lon="30.023124218">
        <ele>0.0</ele>
        <time>2026-04-25T13:41:04.000Z</time>
    </trkpt>
    <trkpt lat="59.1012525558" lon="30.023124218">
        <ele>0.0</ele>
        <time>2026-04-25T13:41:07.000Z</time>
    </trkpt>
    <trkpt lat="59.1012525558" lon="30.0231027603">
        <ele>0.0</ele>
        <time>2026-04-25T13:41:09.000Z</time>
    </trkpt>
    <trkpt lat="59.1012525558" lon="30.0230813026">
        <ele>0.0</ele>
        <time>2026-04-25T13:41:12.000Z</time>
    </trkpt>
    <trkpt lat="59.1012310982" lon="30.023059845">
        <ele>0.0</ele>
        <time>2026-04-25T13:41:14.000Z</time>
    </trkpt>
    <trkpt lat="59.1012310982" lon="30.023059845">
        <ele>0.0</ele>
        <time>2026-04-25T13:41:17.000Z</time>
    </trkpt>
    <trkpt lat="59.1012310982" lon="30.023059845">
        <ele>0.0</ele>
        <time>2026-04-25T13:41:19.000Z</time>
    </trkpt>
    <trkpt lat="59.1012310982" lon="30.023059845">
        <ele>0.0</ele>
        <time>2026-04-25T13:41:22.000Z</time>
    </trkpt>
    <trkpt lat="59.1012310982" lon="30.023059845">
        <ele>0.0</ele>
        <time>2026-04-25T13:41:24.000Z</time>
    </trkpt>
    <trkpt lat="59.1012310982" lon="30.0230383873">
        <ele>0.0</ele>
        <time>2026-04-25T13:41:27.000Z</time>
    </trkpt>
    <trkpt lat="59.1012525558" lon="30.0231027603">
        <ele>0.0</ele>
        <time>2026-04-25T13:41:29.000Z</time>
    </trkpt>
    <trkpt lat="59.1012525558" lon="30.023124218">
        <ele>0.0</ele>
        <time>2026-04-25T13:41:32.000Z</time>
    </trkpt>
    <trkpt lat="59.1012740135" lon="30.0231671333">
        <ele>0.0</ele>
        <time>2026-04-25T13:41:34.000Z</time>
    </trkpt>
    <trkpt lat="59.1012954712" lon="30.023188591">
        <ele>0.0</ele>
        <time>2026-04-25T13:41:37.000Z</time>
    </trkpt>
    <trkpt lat="59.1012954712" lon="30.0232100487">
        <ele>0.0</ele>
        <time>2026-04-25T13:41:39.000Z</time>
    </trkpt>
    <trkpt lat="59.1012954712" lon="30.0232100487">
        <ele>0.0</ele>
        <time>2026-04-25T13:41:42.000Z</time>
    </trkpt>
    <trkpt lat="59.1012954712" lon="30.0232100487">
        <ele>0.0</ele>
        <time>2026-04-25T13:41:44.000Z</time>
    </trkpt>
    <trkpt lat="59.1013169289" lon="30.0232100487">
        <ele>0.0</ele>
        <time>2026-04-25T13:41:47.000Z</time>
    </trkpt>
    <trkpt lat="59.1013169289" lon="30.0232100487">
        <ele>0.0</ele>
        <time>2026-04-25T13:41:49.000Z</time>
    </trkpt>
    <trkpt lat="59.1013169289" lon="30.023188591">
        <ele>0.0</ele>
        <time>2026-04-25T13:41:52.000Z</time>
    </trkpt>
    <trkpt lat="59.1013169289" lon="30.023188591">
        <ele>0.0</ele>
        <time>2026-04-25T13:41:54.000Z</time>
    </trkpt>
    <trkpt lat="59.1013169289" lon="30.0231456757">
        <ele>0.0</ele>
        <time>2026-04-25T13:41:57.000Z</time>
    </trkpt>
    <trkpt lat="59.1013169289" lon="30.0231027603">
        <ele>0.0</ele>
        <time>2026-04-25T13:41:59.000Z</time>
    </trkpt>
    <trkpt lat="59.1013169289" lon="30.0231027603">
        <ele>0.0</ele>
        <time>2026-04-25T13:42:02.000Z</time>
    </trkpt>
    <trkpt lat="59.1013169289" lon="30.0231027603">
        <ele>0.0</ele>
        <time>2026-04-25T13:42:04.000Z</time>
    </trkpt>
    <trkpt lat="59.1013169289" lon="30.0231027603">
        <ele>0.0</ele>
        <time>2026-04-25T13:42:07.000Z</time>
    </trkpt>
    <trkpt lat="59.1012954712" lon="30.023124218">
        <ele>0.0</ele>
        <time>2026-04-25T13:42:09.000Z</time>
    </trkpt>
    <trkpt lat="59.1012954712" lon="30.023124218">
        <ele>0.0</ele>
        <time>2026-04-25T13:42:12.000Z</time>
    </trkpt>
    <trkpt lat="59.1012954712" lon="30.023124218">
        <ele>0.0</ele>
        <time>2026-04-25T13:42:14.000Z</time>
    </trkpt>
    <trkpt lat="59.1012954712" lon="30.023124218">
        <ele>0.0</ele>
        <time>2026-04-25T13:42:17.000Z</time>
    </trkpt>
    <trkpt lat="59.1012954712" lon="30.0231671333">
        <ele>0.0</ele>
        <time>2026-04-25T13:42:19.000Z</time>
    </trkpt>
    <trkpt lat="59.1012954712" lon="30.0231671333">
        <ele>0.0</ele>
        <time>2026-04-25T13:42:22.000Z</time>
    </trkpt>
    <trkpt lat="59.1013169289" lon="30.0231671333">
        <ele>0.0</ele>
        <time>2026-04-25T13:42:24.000Z</time>
    </trkpt>
    <trkpt lat="59.1013169289" lon="30.0231671333">
        <ele>0.0</ele>
        <time>2026-04-25T13:42:27.000Z</time>
    </trkpt>
    <trkpt lat="59.1013383865" lon="30.0231671333">
        <ele>0.0</ele>
        <time>2026-04-25T13:42:29.000Z</time>
    </trkpt>
    <trkpt lat="59.1013383865" lon="30.0231671333">
        <ele>0.0</ele>
        <time>2026-04-25T13:42:32.000Z</time>
    </trkpt>
    <trkpt lat="59.1013383865" lon="30.0231671333">
        <ele>0.0</ele>
        <time>2026-04-25T13:42:34.000Z</time>
    </trkpt>
    <trkpt lat="59.1013383865" lon="30.0231671333">
        <ele>0.0</ele>
        <time>2026-04-25T13:42:37.000Z</time>
    </trkpt>
    <trkpt lat="59.1013598442" lon="30.0231456757">
        <ele>0.0</ele>
        <time>2026-04-25T13:42:39.000Z</time>
    </trkpt>
    <trkpt lat="59.1013598442" lon="30.0231456757">
        <ele>0.0</ele>
        <time>2026-04-25T13:42:42.000Z</time>
    </trkpt>
    <trkpt lat="59.1013598442" lon="30.0231456757">
        <ele>0.0</ele>
        <time>2026-04-25T13:42:44.000Z</time>
    </trkpt>
    <trkpt lat="59.1013598442" lon="30.0231456757">
        <ele>0.0</ele>
        <time>2026-04-25T13:42:47.000Z</time>
    </trkpt>
    <trkpt lat="59.1013598442" lon="30.0231456757">
        <ele>0.0</ele>
        <time>2026-04-25T13:42:49.000Z</time>
    </trkpt>
    <trkpt lat="59.1013598442" lon="30.0231456757">
        <ele>0.0</ele>
        <time>2026-04-25T13:42:52.000Z</time>
    </trkpt>
    <trkpt lat="59.1013598442" lon="30.0231456757">
        <ele>0.0</ele>
        <time>2026-04-25T13:42:54.000Z</time>
    </trkpt>
    <trkpt lat="59.1013598442" lon="30.0231456757">
        <ele>0.0</ele>
        <time>2026-04-25T13:42:57.000Z</time>
    </trkpt>
    <trkpt lat="59.1013598442" lon="30.0231456757">
        <ele>0.0</ele>
        <time>2026-04-25T13:42:59.000Z</time>
    </trkpt>
    <trkpt lat="59.1013598442" lon="30.0231456757">
        <ele>0.0</ele>
        <time>2026-04-25T13:43:02.000Z</time>
    </trkpt>
    <trkpt lat="59.1013598442" lon="30.0231456757">
        <ele>0.0</ele>
        <time>2026-04-25T13:43:04.000Z</time>
    </trkpt>
    <trkpt lat="59.1013598442" lon="30.0231456757">
        <ele>0.0</ele>
        <time>2026-04-25T13:43:07.000Z</time>
    </trkpt>
    <trkpt lat="59.1013813019" lon="30.023124218">
        <ele>0.0</ele>
        <time>2026-04-25T13:43:12.000Z</time>
    </trkpt>
    <trkpt lat="59.1013813019" lon="30.023124218">
        <ele>0.0</ele>
        <time>2026-04-25T13:43:14.000Z</time>
    </trkpt>
    <trkpt lat="59.1013813019" lon="30.023124218">
        <ele>0.0</ele>
        <time>2026-04-25T13:43:17.000Z</time>
    </trkpt>
    <trkpt lat="59.1013598442" lon="30.023124218">
        <ele>0.0</ele>
        <time>2026-04-25T13:43:19.000Z</time>
    </trkpt>
    <trkpt lat="59.1013598442" lon="30.0231456757">
        <ele>0.0</ele>
        <time>2026-04-25T13:43:22.000Z</time>
    </trkpt>
    <trkpt lat="59.1013598442" lon="30.0231456757">
        <ele>0.0</ele>
        <time>2026-04-25T13:43:24.000Z</time>
    </trkpt>
    <trkpt lat="59.1013598442" lon="30.023188591">
        <ele>0.0</ele>
        <time>2026-04-25T13:43:27.000Z</time>
    </trkpt>
    <trkpt lat="59.1013383865" lon="30.0231671333">
        <ele>0.0</ele>
        <time>2026-04-25T13:43:29.000Z</time>
    </trkpt>
    <trkpt lat="59.1012954712" lon="30.0232100487">
        <ele>0.0</ele>
        <time>2026-04-25T13:43:32.000Z</time>
    </trkpt>
    <trkpt lat="59.1012954712" lon="30.023252964">
        <ele>0.0</ele>
        <time>2026-04-25T13:43:34.000Z</time>
    </trkpt>
    <trkpt lat="59.1012954712" lon="30.023317337">
        <ele>0.0</ele>
        <time>2026-04-25T13:43:37.000Z</time>
    </trkpt>
    <trkpt lat="59.1013383865" lon="30.0233387947">
        <ele>0.0</ele>
        <time>2026-04-25T13:43:39.000Z</time>
    </trkpt>
    <trkpt lat="59.1013383865" lon="30.0233387947">
        <ele>0.0</ele>
        <time>2026-04-25T13:43:42.000Z</time>
    </trkpt>
    <trkpt lat="59.1013169289" lon="30.023317337">
        <ele>0.0</ele>
        <time>2026-04-25T13:43:44.000Z</time>
    </trkpt>
    <trkpt lat="59.1013169289" lon="30.023317337">
        <ele>0.0</ele>
        <time>2026-04-25T13:43:47.000Z</time>
    </trkpt>
    <trkpt lat="59.1013383865" lon="30.023317337">
        <ele>0.0</ele>
        <time>2026-04-25T13:43:49.000Z</time>
    </trkpt>
    <trkpt lat="59.1013383865" lon="30.023317337">
        <ele>0.0</ele>
        <time>2026-04-25T13:43:52.000Z</time>
    </trkpt>
    <trkpt lat="59.1013813019" lon="30.0232744217">
        <ele>0.0</ele>
        <time>2026-04-25T13:43:54.000Z</time>
    </trkpt>
    <trkpt lat="59.1013813019" lon="30.0232744217">
        <ele>0.0</ele>
        <time>2026-04-25T13:43:57.000Z</time>
    </trkpt>
    <trkpt lat="59.1013813019" lon="30.0232744217">
        <ele>0.0</ele>
        <time>2026-04-25T13:43:59.000Z</time>
    </trkpt>
    <trkpt lat="59.1013813019" lon="30.0232744217">
        <ele>0.0</ele>
        <time>2026-04-25T13:44:02.000Z</time>
    </trkpt>
    <trkpt lat="59.1014027596" lon="30.023252964">
        <ele>0.0</ele>
        <time>2026-04-25T13:44:04.000Z</time>
    </trkpt>
    <trkpt lat="59.1014242172" lon="30.023252964">
        <ele>0.0</ele>
        <time>2026-04-25T13:44:07.000Z</time>
    </trkpt>
    <trkpt lat="59.1014456749" lon="30.0232100487">
        <ele>0.0</ele>
        <time>2026-04-25T13:44:09.000Z</time>
    </trkpt>
    <trkpt lat="59.1014671326" lon="30.023188591">
        <ele>0.0</ele>
        <time>2026-04-25T13:44:12.000Z</time>
    </trkpt>
    <trkpt lat="59.1014671326" lon="30.0231671333">
        <ele>0.0</ele>
        <time>2026-04-25T13:44:14.000Z</time>
    </trkpt>
    <trkpt lat="59.1014885902" lon="30.0231456757">
        <ele>0.0</ele>
        <time>2026-04-25T13:44:17.000Z</time>
    </trkpt>
    <trkpt lat="59.1015315056" lon="30.023124218">
        <ele>0.0</ele>
        <time>2026-04-25T13:44:19.000Z</time>
    </trkpt>
    <trkpt lat="59.1015529633" lon="30.0231027603">
        <ele>0.0</ele>
        <time>2026-04-25T13:44:22.000Z</time>
    </trkpt>
    <trkpt lat="59.1015958786" lon="30.0231027603">
        <ele>0.0</ele>
        <time>2026-04-25T13:44:24.000Z</time>
    </trkpt>
    <trkpt lat="59.1015958786" lon="30.023124218">
        <ele>0.0</ele>
        <time>2026-04-25T13:44:27.000Z</time>
    </trkpt>
    <trkpt lat="59.1015958786" lon="30.023124218">
        <ele>0.0</ele>
        <time>2026-04-25T13:44:29.000Z</time>
    </trkpt>
    <trkpt lat="59.1016173363" lon="30.0231027603">
        <ele>0.0</ele>
        <time>2026-04-25T13:44:32.000Z</time>
    </trkpt>
    <trkpt lat="59.1016173363" lon="30.0231027603">
        <ele>0.0</ele>
        <time>2026-04-25T13:44:34.000Z</time>
    </trkpt>
    <trkpt lat="59.1016387939" lon="30.0231027603">
        <ele>0.0</ele>
        <time>2026-04-25T13:44:37.000Z</time>
    </trkpt>
    <trkpt lat="59.1016817093" lon="30.0230813026">
        <ele>0.0</ele>
        <time>2026-04-25T13:44:39.000Z</time>
    </trkpt>
    <trkpt lat="59.1016817093" lon="30.023059845">
        <ele>0.0</ele>
        <time>2026-04-25T13:44:42.000Z</time>
    </trkpt>
    <trkpt lat="59.1017246246" lon="30.0230169296">
        <ele>0.0</ele>
        <time>2026-04-25T13:44:44.000Z</time>
    </trkpt>
    <trkpt lat="59.1017246246" lon="30.0230169296">
        <ele>0.0</ele>
        <time>2026-04-25T13:44:47.000Z</time>
    </trkpt>
    <trkpt lat="59.1017460823" lon="30.0230169296">
        <ele>0.0</ele>
        <time>2026-04-25T13:44:49.000Z</time>
    </trkpt>
    <trkpt lat="59.10176754" lon="30.0229740143">
        <ele>0.0</ele>
        <time>2026-04-25T13:44:52.000Z</time>
    </trkpt>
    <trkpt lat="59.10176754" lon="30.0229525566">
        <ele>0.0</ele>
        <time>2026-04-25T13:44:54.000Z</time>
    </trkpt>
    <trkpt lat="59.10176754" lon="30.0229525566">
        <ele>0.0</ele>
        <time>2026-04-25T13:44:57.000Z</time>
    </trkpt>
    <trkpt lat="59.10176754" lon="30.0229525566">
        <ele>0.0</ele>
        <time>2026-04-25T13:44:59.000Z</time>
    </trkpt>
    <trkpt lat="59.1017889977" lon="30.0229310989">
        <ele>0.0</ele>
        <time>2026-04-25T13:45:02.000Z</time>
    </trkpt>
    <trkpt lat="59.1017889977" lon="30.0229096413">
        <ele>0.0</ele>
        <time>2026-04-25T13:45:04.000Z</time>
    </trkpt>
    <trkpt lat="59.1017889977" lon="30.0228881836">
        <ele>0.0</ele>
        <time>2026-04-25T13:45:07.000Z</time>
    </trkpt>
    <trkpt lat="59.1018104553" lon="30.0228881836">
        <ele>0.0</ele>
        <time>2026-04-25T13:45:09.000Z</time>
    </trkpt>
    <trkpt lat="59.1018104553" lon="30.0228881836">
        <ele>0.0</ele>
        <time>2026-04-25T13:45:12.000Z</time>
    </trkpt>
    <trkpt lat="59.1018104553" lon="30.0229096413">
        <ele>0.0</ele>
        <time>2026-04-25T13:45:14.000Z</time>
    </trkpt>
    <trkpt lat="59.1018104553" lon="30.0229096413">
        <ele>0.0</ele>
        <time>2026-04-25T13:45:17.000Z</time>
    </trkpt>
    <trkpt lat="59.1018533707" lon="30.0229096413">
        <ele>0.0</ele>
        <time>2026-04-25T13:45:19.000Z</time>
    </trkpt>
    <trkpt lat="59.1018748283" lon="30.0228881836">
        <ele>0.0</ele>
        <time>2026-04-25T13:45:22.000Z</time>
    </trkpt>
    <trkpt lat="59.1018748283" lon="30.0228452682">
        <ele>0.0</ele>
        <time>2026-04-25T13:45:24.000Z</time>
    </trkpt>
    <trkpt lat="59.1018748283" lon="30.0228238106">
        <ele>0.0</ele>
        <time>2026-04-25T13:45:27.000Z</time>
    </trkpt>
    <trkpt lat="59.1018748283" lon="30.0228023529">
        <ele>0.0</ele>
        <time>2026-04-25T13:45:29.000Z</time>
    </trkpt>
    <trkpt lat="59.1018748283" lon="30.0227808952">
        <ele>0.0</ele>
        <time>2026-04-25T13:45:32.000Z</time>
    </trkpt>
    <trkpt lat="59.101896286" lon="30.0227808952">
        <ele>0.0</ele>
        <time>2026-04-25T13:45:34.000Z</time>
    </trkpt>
    <trkpt lat="59.101896286" lon="30.0227808952">
        <ele>0.0</ele>
        <time>2026-04-25T13:45:37.000Z</time>
    </trkpt>
    <trkpt lat="59.1019177437" lon="30.0227808952">
        <ele>0.0</ele>
        <time>2026-04-25T13:45:39.000Z</time>
    </trkpt>
    <trkpt lat="59.1019392014" lon="30.0228023529">
        <ele>0.0</ele>
        <time>2026-04-25T13:45:42.000Z</time>
    </trkpt>
    <trkpt lat="59.101960659" lon="30.0228452682">
        <ele>0.0</ele>
        <time>2026-04-25T13:45:44.000Z</time>
    </trkpt>
    <trkpt lat="59.1019821167" lon="30.0229096413">
        <ele>0.0</ele>
        <time>2026-04-25T13:45:47.000Z</time>
    </trkpt>
    <trkpt lat="59.102025032" lon="30.0229525566">
        <ele>0.0</ele>
        <time>2026-04-25T13:45:49.000Z</time>
    </trkpt>
    <trkpt lat="59.1020464897" lon="30.0229310989">
        <ele>0.0</ele>
        <time>2026-04-25T13:45:52.000Z</time>
    </trkpt>
    <trkpt lat="59.1021108627" lon="30.0228881836">
        <ele>0.0</ele>
        <time>2026-04-25T13:45:54.000Z</time>
    </trkpt>
    <trkpt lat="59.1021323204" lon="30.0228881836">
        <ele>0.0</ele>
        <time>2026-04-25T13:45:57.000Z</time>
    </trkpt>
    <trkpt lat="59.1021537781" lon="30.0228452682">
        <ele>0.0</ele>
        <time>2026-04-25T13:45:59.000Z</time>
    </trkpt>
    <trkpt lat="59.1021537781" lon="30.0228023529">
        <ele>0.0</ele>
        <time>2026-04-25T13:46:02.000Z</time>
    </trkpt>
    <trkpt lat="59.1021323204" lon="30.0227379799">
        <ele>0.0</ele>
        <time>2026-04-25T13:46:04.000Z</time>
    </trkpt>
    <trkpt lat="59.1021323204" lon="30.0227379799">
        <ele>0.0</ele>
        <time>2026-04-25T13:46:07.000Z</time>
    </trkpt>
    <trkpt lat="59.1021537781" lon="30.0226736069">
        <ele>0.0</ele>
        <time>2026-04-25T13:46:09.000Z</time>
    </trkpt>
    <trkpt lat="59.1021752357" lon="30.0226736069">
        <ele>0.0</ele>
        <time>2026-04-25T13:46:12.000Z</time>
    </trkpt>
    <trkpt lat="59.1022181511" lon="30.0226521492">
        <ele>0.0</ele>
        <time>2026-04-25T13:46:14.000Z</time>
    </trkpt>
    <trkpt lat="59.1022181511" lon="30.0226521492">
        <ele>0.0</ele>
        <time>2026-04-25T13:46:17.000Z</time>
    </trkpt>
    <trkpt lat="59.1022181511" lon="30.0226306915">
        <ele>0.0</ele>
        <time>2026-04-25T13:46:19.000Z</time>
    </trkpt>
    <trkpt lat="59.1022396088" lon="30.0226306915">
        <ele>0.0</ele>
        <time>2026-04-25T13:46:22.000Z</time>
    </trkpt>
    <trkpt lat="59.1022396088" lon="30.0226092339">
        <ele>0.0</ele>
        <time>2026-04-25T13:46:24.000Z</time>
    </trkpt>
    <trkpt lat="59.1022610664" lon="30.0226092339">
        <ele>0.0</ele>
        <time>2026-04-25T13:46:27.000Z</time>
    </trkpt>
    <trkpt lat="59.1023039818" lon="30.0225877762">
        <ele>0.0</ele>
        <time>2026-04-25T13:46:29.000Z</time>
    </trkpt>
    <trkpt lat="59.1023254395" lon="30.0226306915">
        <ele>0.0</ele>
        <time>2026-04-25T13:46:32.000Z</time>
    </trkpt>
    <trkpt lat="59.1023254395" lon="30.0226092339">
        <ele>0.0</ele>
        <time>2026-04-25T13:46:34.000Z</time>
    </trkpt>
    <trkpt lat="59.1023039818" lon="30.0226092339">
        <ele>0.0</ele>
        <time>2026-04-25T13:46:37.000Z</time>
    </trkpt>
    <trkpt lat="59.1023254395" lon="30.0225448608">
        <ele>0.0</ele>
        <time>2026-04-25T13:46:39.000Z</time>
    </trkpt>
    <trkpt lat="59.1023468971" lon="30.0225663185">
        <ele>0.0</ele>
        <time>2026-04-25T13:46:42.000Z</time>
    </trkpt>
    <trkpt lat="59.1023468971" lon="30.0225663185">
        <ele>0.0</ele>
        <time>2026-04-25T13:46:44.000Z</time>
    </trkpt>
    <trkpt lat="59.1023468971" lon="30.0225448608">
        <ele>0.0</ele>
        <time>2026-04-25T13:46:47.000Z</time>
    </trkpt>
    <trkpt lat="59.1023683548" lon="30.0225663185">
        <ele>0.0</ele>
        <time>2026-04-25T13:46:49.000Z</time>
    </trkpt>
    <trkpt lat="59.1023683548" lon="30.0225663185">
        <ele>0.0</ele>
        <time>2026-04-25T13:46:52.000Z</time>
    </trkpt>
    <trkpt lat="59.1023898125" lon="30.0225448608">
        <ele>0.0</ele>
        <time>2026-04-25T13:46:54.000Z</time>
    </trkpt>
    <trkpt lat="59.1024112701" lon="30.0225234032">
        <ele>0.0</ele>
        <time>2026-04-25T13:46:57.000Z</time>
    </trkpt>
    <trkpt lat="59.1024541855" lon="30.0224804878">
        <ele>0.0</ele>
        <time>2026-04-25T13:46:59.000Z</time>
    </trkpt>
    <trkpt lat="59.1024541855" lon="30.0224804878">
        <ele>0.0</ele>
        <time>2026-04-25T13:47:02.000Z</time>
    </trkpt>
    <trkpt lat="59.1024541855" lon="30.0224804878">
        <ele>0.0</ele>
        <time>2026-04-25T13:47:04.000Z</time>
    </trkpt>
    <trkpt lat="59.1024541855" lon="30.0224804878">
        <ele>0.0</ele>
        <time>2026-04-25T13:47:07.000Z</time>
    </trkpt>
    <trkpt lat="59.1024971008" lon="30.0224375725">
        <ele>0.0</ele>
        <time>2026-04-25T13:47:09.000Z</time>
    </trkpt>
    <trkpt lat="59.1025185585" lon="30.0224375725">
        <ele>0.0</ele>
        <time>2026-04-25T13:47:12.000Z</time>
    </trkpt>
    <trkpt lat="59.1025614738" lon="30.0223946571">
        <ele>0.0</ele>
        <time>2026-04-25T13:47:14.000Z</time>
    </trkpt>
    <trkpt lat="59.1025614738" lon="30.0223946571">
        <ele>0.0</ele>
        <time>2026-04-25T13:47:17.000Z</time>
    </trkpt>
    <trkpt lat="59.1025829315" lon="30.0223946571">
        <ele>0.0</ele>
        <time>2026-04-25T13:47:19.000Z</time>
    </trkpt>
    <trkpt lat="59.1025829315" lon="30.0223946571">
        <ele>0.0</ele>
        <time>2026-04-25T13:47:22.000Z</time>
    </trkpt>
    <trkpt lat="59.1025829315" lon="30.0223946571">
        <ele>0.0</ele>
        <time>2026-04-25T13:47:24.000Z</time>
    </trkpt>
    <trkpt lat="59.1025829315" lon="30.0223946571">
        <ele>0.0</ele>
        <time>2026-04-25T13:47:27.000Z</time>
    </trkpt>
    <trkpt lat="59.1025829315" lon="30.0223946571">
        <ele>0.0</ele>
        <time>2026-04-25T13:47:29.000Z</time>
    </trkpt>
    <trkpt lat="59.1025829315" lon="30.0223946571">
        <ele>0.0</ele>
        <time>2026-04-25T13:47:32.000Z</time>
    </trkpt>
    <trkpt lat="59.1025829315" lon="30.0223946571">
        <ele>0.0</ele>
        <time>2026-04-25T13:47:34.000Z</time>
    </trkpt>
    <trkpt lat="59.1025829315" lon="30.0223946571">
        <ele>0.0</ele>
        <time>2026-04-25T13:47:37.000Z</time>
    </trkpt>
    <trkpt lat="59.1025829315" lon="30.0223946571">
        <ele>0.0</ele>
        <time>2026-04-25T13:47:39.000Z</time>
    </trkpt>
    <trkpt lat="59.1025829315" lon="30.0223946571">
        <ele>0.0</ele>
        <time>2026-04-25T13:47:42.000Z</time>
    </trkpt>
    <trkpt lat="59.1025829315" lon="30.0223946571">
        <ele>0.0</ele>
        <time>2026-04-25T13:47:44.000Z</time>
    </trkpt>
    <trkpt lat="59.1025829315" lon="30.0223946571">
        <ele>0.0</ele>
        <time>2026-04-25T13:47:47.000Z</time>
    </trkpt>
    <trkpt lat="59.1025829315" lon="30.0223946571">
        <ele>0.0</ele>
        <time>2026-04-25T13:47:49.000Z</time>
    </trkpt>
    <trkpt lat="59.1025829315" lon="30.0223946571">
        <ele>0.0</ele>
        <time>2026-04-25T13:47:52.000Z</time>
    </trkpt>
    <trkpt lat="59.1025829315" lon="30.0223946571">
        <ele>0.0</ele>
        <time>2026-04-25T13:47:54.000Z</time>
    </trkpt>
    <trkpt lat="59.1025829315" lon="30.0223946571">
        <ele>0.0</ele>
        <time>2026-04-25T13:47:57.000Z</time>
    </trkpt>
    <trkpt lat="59.1025829315" lon="30.0223946571">
        <ele>0.0</ele>
        <time>2026-04-25T13:47:59.000Z</time>
    </trkpt>
    <trkpt lat="59.1025829315" lon="30.0223946571">
        <ele>0.0</ele>
        <time>2026-04-25T13:48:02.000Z</time>
    </trkpt>
    <trkpt lat="59.1025829315" lon="30.0223946571">
        <ele>0.0</ele>
        <time>2026-04-25T13:48:04.000Z</time>
    </trkpt>
    <trkpt lat="59.1025829315" lon="30.0223946571">
        <ele>0.0</ele>
        <time>2026-04-25T13:48:07.000Z</time>
    </trkpt>
    <trkpt lat="59.1025829315" lon="30.0223946571">
        <ele>0.0</ele>
        <time>2026-04-25T13:48:09.000Z</time>
    </trkpt>
    <trkpt lat="59.1025829315" lon="30.0223946571">
        <ele>0.0</ele>
        <time>2026-04-25T13:48:12.000Z</time>
    </trkpt>
    <trkpt lat="59.1025829315" lon="30.0223946571">
        <ele>0.0</ele>
        <time>2026-04-25T13:48:14.000Z</time>
    </trkpt>
    <trkpt lat="59.1025829315" lon="30.0223946571">
        <ele>0.0</ele>
        <time>2026-04-25T13:48:17.000Z</time>
    </trkpt>
    <trkpt lat="59.1025829315" lon="30.0223946571">
        <ele>0.0</ele>
        <time>2026-04-25T13:48:19.000Z</time>
    </trkpt>
    <trkpt lat="59.1025829315" lon="30.0223946571">
        <ele>0.0</ele>
        <time>2026-04-25T13:48:22.000Z</time>
    </trkpt>
    <trkpt lat="59.1025829315" lon="30.0223946571">
        <ele>0.0</ele>
        <time>2026-04-25T13:48:24.000Z</time>
    </trkpt>
    <trkpt lat="59.1025829315" lon="30.0223946571">
        <ele>0.0</ele>
        <time>2026-04-25T13:48:27.000Z</time>
    </trkpt>
    <trkpt lat="59.1025829315" lon="30.0223946571">
        <ele>0.0</ele>
        <time>2026-04-25T13:48:29.000Z</time>
    </trkpt>
    <trkpt lat="59.1025829315" lon="30.0223946571">
        <ele>0.0</ele>
        <time>2026-04-25T13:48:32.000Z</time>
    </trkpt>
    <trkpt lat="59.1025829315" lon="30.0223946571">
        <ele>0.0</ele>
        <time>2026-04-25T13:48:34.000Z</time>
    </trkpt>
    <trkpt lat="59.1025829315" lon="30.0223946571">
        <ele>0.0</ele>
        <time>2026-04-25T13:48:37.000Z</time>
    </trkpt>
    <trkpt lat="59.1025829315" lon="30.0223946571">
        <ele>0.0</ele>
        <time>2026-04-25T13:48:39.000Z</time>
    </trkpt>
    <trkpt lat="59.1025829315" lon="30.0223946571">
        <ele>0.0</ele>
        <time>2026-04-25T13:48:42.000Z</time>
    </trkpt>
    <trkpt lat="59.1025829315" lon="30.0223946571">
        <ele>0.0</ele>
        <time>2026-04-25T13:48:44.000Z</time>
    </trkpt>
    <trkpt lat="59.1025829315" lon="30.0223946571">
        <ele>0.0</ele>
        <time>2026-04-25T13:48:47.000Z</time>
    </trkpt>
    <trkpt lat="59.1025829315" lon="30.0223946571">
        <ele>0.0</ele>
        <time>2026-04-25T13:48:49.000Z</time>
    </trkpt>
    <trkpt lat="59.1025829315" lon="30.0223946571">
        <ele>0.0</ele>
        <time>2026-04-25T13:48:52.000Z</time>
    </trkpt>
    <trkpt lat="59.1025829315" lon="30.0223946571">
        <ele>0.0</ele>
        <time>2026-04-25T13:48:54.000Z</time>
    </trkpt>
    <trkpt lat="59.1025829315" lon="30.0223946571">
        <ele>0.0</ele>
        <time>2026-04-25T13:48:57.000Z</time>
    </trkpt>
    <trkpt lat="59.1025829315" lon="30.0223946571">
        <ele>0.0</ele>
        <time>2026-04-25T13:48:59.000Z</time>
    </trkpt>
    <trkpt lat="59.1025829315" lon="30.0223946571">
        <ele>0.0</ele>
        <time>2026-04-25T13:49:02.000Z</time>
    </trkpt>
    <trkpt lat="59.1025829315" lon="30.0223946571">
        <ele>0.0</ele>
        <time>2026-04-25T13:49:04.000Z</time>
    </trkpt>
    <trkpt lat="59.1025829315" lon="30.0223946571">
        <ele>0.0</ele>
        <time>2026-04-25T13:49:07.000Z</time>
    </trkpt>
    <trkpt lat="59.1025829315" lon="30.0223946571">
        <ele>0.0</ele>
        <time>2026-04-25T13:49:09.000Z</time>
    </trkpt>
    <trkpt lat="59.1025829315" lon="30.0223731995">
        <ele>0.0</ele>
        <time>2026-04-25T13:49:12.000Z</time>
    </trkpt>
    <trkpt lat="59.1025829315" lon="30.0223731995">
        <ele>0.0</ele>
        <time>2026-04-25T13:49:14.000Z</time>
    </trkpt>
    <trkpt lat="59.1025829315" lon="30.0223731995">
        <ele>0.0</ele>
        <time>2026-04-25T13:49:17.000Z</time>
    </trkpt>
    <trkpt lat="59.1025829315" lon="30.0223946571">
        <ele>0.0</ele>
        <time>2026-04-25T13:49:19.000Z</time>
    </trkpt>
    <trkpt lat="59.1025829315" lon="30.0223946571">
        <ele>0.0</ele>
        <time>2026-04-25T13:49:22.000Z</time>
    </trkpt>
    <trkpt lat="59.1025829315" lon="30.0223946571">
        <ele>0.0</ele>
        <time>2026-04-25T13:49:24.000Z</time>
    </trkpt>
    <trkpt lat="59.1025829315" lon="30.0223946571">
        <ele>0.0</ele>
        <time>2026-04-25T13:49:27.000Z</time>
    </trkpt>
    <trkpt lat="59.1025829315" lon="30.0223946571">
        <ele>0.0</ele>
        <time>2026-04-25T13:49:29.000Z</time>
    </trkpt>
    <trkpt lat="59.1025829315" lon="30.0223946571">
        <ele>0.0</ele>
        <time>2026-04-25T13:49:32.000Z</time>
    </trkpt>
    <trkpt lat="59.1025829315" lon="30.0223946571">
        <ele>0.0</ele>
        <time>2026-04-25T13:49:34.000Z</time>
    </trkpt>
    <trkpt lat="59.1025829315" lon="30.0223946571">
        <ele>0.0</ele>
        <time>2026-04-25T13:49:37.000Z</time>
    </trkpt>
    <trkpt lat="59.1025829315" lon="30.0223946571">
        <ele>0.0</ele>
        <time>2026-04-25T13:49:39.000Z</time>
    </trkpt>
    <trkpt lat="59.1025829315" lon="30.0223946571">
        <ele>0.0</ele>
        <time>2026-04-25T13:49:42.000Z</time>
    </trkpt>
    <trkpt lat="59.1025829315" lon="30.0223946571">
        <ele>0.0</ele>
        <time>2026-04-25T13:49:44.000Z</time>
    </trkpt>
    <trkpt lat="59.1025829315" lon="30.0223946571">
        <ele>0.0</ele>
        <time>2026-04-25T13:49:47.000Z</time>
    </trkpt>
    <trkpt lat="59.1025829315" lon="30.0223946571">
        <ele>0.0</ele>
        <time>2026-04-25T13:49:49.000Z</time>
    </trkpt>
    <trkpt lat="59.1025829315" lon="30.0223946571">
        <ele>0.0</ele>
        <time>2026-04-25T13:49:52.000Z</time>
    </trkpt>
    <trkpt lat="59.1025829315" lon="30.0223946571">
        <ele>0.0</ele>
        <time>2026-04-25T13:49:54.000Z</time>
    </trkpt>
    <trkpt lat="59.1025829315" lon="30.0223946571">
        <ele>0.0</ele>
        <time>2026-04-25T13:49:57.000Z</time>
    </trkpt>
    <trkpt lat="59.1025829315" lon="30.0223946571">
        <ele>0.0</ele>
        <time>2026-04-25T13:49:59.000Z</time>
    </trkpt>
    <trkpt lat="59.1025829315" lon="30.0223946571">
        <ele>0.0</ele>
        <time>2026-04-25T13:50:02.000Z</time>
    </trkpt>
    <trkpt lat="59.1025829315" lon="30.0223946571">
        <ele>0.0</ele>
        <time>2026-04-25T13:50:04.000Z</time>
    </trkpt>
    <trkpt lat="59.1025829315" lon="30.0223946571">
        <ele>0.0</ele>
        <time>2026-04-25T13:50:07.000Z</time>
    </trkpt>
    <trkpt lat="59.1025829315" lon="30.0223946571">
        <ele>0.0</ele>
        <time>2026-04-25T13:50:09.000Z</time>
    </trkpt>
    <trkpt lat="59.1025829315" lon="30.0223946571">
        <ele>0.0</ele>
        <time>2026-04-25T13:50:12.000Z</time>
    </trkpt>
    <trkpt lat="59.1025829315" lon="30.0223946571">
        <ele>0.0</ele>
        <time>2026-04-25T13:50:14.000Z</time>
    </trkpt>
    <trkpt lat="59.1025829315" lon="30.0223946571">
        <ele>0.0</ele>
        <time>2026-04-25T13:50:17.000Z</time>
    </trkpt>
    <trkpt lat="59.1025829315" lon="30.0223946571">
        <ele>0.0</ele>
        <time>2026-04-25T13:50:19.000Z</time>
    </trkpt>
    <trkpt lat="59.1025829315" lon="30.0223946571">
        <ele>0.0</ele>
        <time>2026-04-25T13:50:22.000Z</time>
    </trkpt>
    <trkpt lat="59.1025829315" lon="30.0223946571">
        <ele>0.0</ele>
        <time>2026-04-25T13:50:24.000Z</time>
    </trkpt>
    <trkpt lat="59.1025829315" lon="30.0223946571">
        <ele>0.0</ele>
        <time>2026-04-25T13:50:27.000Z</time>
    </trkpt>
    <trkpt lat="59.1025829315" lon="30.0223946571">
        <ele>0.0</ele>
        <time>2026-04-25T13:50:29.000Z</time>
    </trkpt>
    <trkpt lat="59.1025829315" lon="30.0223946571">
        <ele>0.0</ele>
        <time>2026-04-25T13:50:32.000Z</time>
    </trkpt>
    <trkpt lat="59.1025829315" lon="30.0223946571">
        <ele>0.0</ele>
        <time>2026-04-25T13:50:34.000Z</time>
    </trkpt>
    <trkpt lat="59.1025829315" lon="30.0223946571">
        <ele>0.0</ele>
        <time>2026-04-25T13:50:37.000Z</time>
    </trkpt>
    <trkpt lat="59.1025829315" lon="30.0223946571">
        <ele>0.0</ele>
        <time>2026-04-25T13:50:39.000Z</time>
    </trkpt>
    <trkpt lat="59.1025829315" lon="30.0223946571">
        <ele>0.0</ele>
        <time>2026-04-25T13:50:42.000Z</time>
    </trkpt>
    <trkpt lat="59.1025829315" lon="30.0223946571">
        <ele>0.0</ele>
        <time>2026-04-25T13:50:44.000Z</time>
    </trkpt>
    <trkpt lat="59.1025829315" lon="30.0223946571">
        <ele>0.0</ele>
        <time>2026-04-25T13:50:47.000Z</time>
    </trkpt>
    <trkpt lat="59.1025829315" lon="30.0223731995">
        <ele>0.0</ele>
        <time>2026-04-25T13:50:49.000Z</time>
    </trkpt>
    <trkpt lat="59.1025829315" lon="30.0223731995">
        <ele>0.0</ele>
        <time>2026-04-25T13:50:52.000Z</time>
    </trkpt>
    <trkpt lat="59.1025829315" lon="30.0223731995">
        <ele>0.0</ele>
        <time>2026-04-25T13:50:54.000Z</time>
    </trkpt>
    <trkpt lat="59.1025829315" lon="30.0223731995">
        <ele>0.0</ele>
        <time>2026-04-25T13:50:57.000Z</time>
    </trkpt>
    <trkpt lat="59.1025829315" lon="30.0223731995">
        <ele>0.0</ele>
        <time>2026-04-25T13:50:59.000Z</time>
    </trkpt>
    <trkpt lat="59.1025829315" lon="30.0223731995">
        <ele>0.0</ele>
        <time>2026-04-25T13:51:02.000Z</time>
    </trkpt>
    <trkpt lat="59.1025829315" lon="30.0223731995">
        <ele>0.0</ele>
        <time>2026-04-25T13:51:04.000Z</time>
    </trkpt>
    <trkpt lat="59.1025829315" lon="30.0223731995">
        <ele>0.0</ele>
        <time>2026-04-25T13:51:07.000Z</time>
    </trkpt>
    <trkpt lat="59.1025829315" lon="30.0223731995">
        <ele>0.0</ele>
        <time>2026-04-25T13:51:09.000Z</time>
    </trkpt>
    <trkpt lat="59.1025829315" lon="30.0223731995">
        <ele>0.0</ele>
        <time>2026-04-25T13:51:12.000Z</time>
    </trkpt>
    <trkpt lat="59.1025829315" lon="30.0223731995">
        <ele>0.0</ele>
        <time>2026-04-25T13:51:14.000Z</time>
    </trkpt>
    <trkpt lat="59.1025829315" lon="30.0223731995">
        <ele>0.0</ele>
        <time>2026-04-25T13:51:17.000Z</time>
    </trkpt>
    <trkpt lat="59.1025829315" lon="30.0223731995">
        <ele>0.0</ele>
        <time>2026-04-25T13:51:19.000Z</time>
    </trkpt>
    <trkpt lat="59.1025829315" lon="30.0223731995">
        <ele>0.0</ele>
        <time>2026-04-25T13:51:22.000Z</time>
    </trkpt>
    <trkpt lat="59.1025829315" lon="30.0223731995">
        <ele>0.0</ele>
        <time>2026-04-25T13:51:24.000Z</time>
    </trkpt>
    <trkpt lat="59.1025829315" lon="30.0223731995">
        <ele>0.0</ele>
        <time>2026-04-25T13:51:27.000Z</time>
    </trkpt>
    <trkpt lat="59.1025829315" lon="30.0223731995">
        <ele>0.0</ele>
        <time>2026-04-25T13:51:29.000Z</time>
    </trkpt>
    <trkpt lat="59.1025829315" lon="30.0223731995">
        <ele>0.0</ele>
        <time>2026-04-25T13:51:32.000Z</time>
    </trkpt>
    <trkpt lat="59.1025829315" lon="30.0223731995">
        <ele>0.0</ele>
        <time>2026-04-25T13:51:34.000Z</time>
    </trkpt>
    <trkpt lat="59.1025829315" lon="30.0223731995">
        <ele>0.0</ele>
        <time>2026-04-25T13:51:37.000Z</time>
    </trkpt>
    <trkpt lat="59.1025829315" lon="30.0223731995">
        <ele>0.0</ele>
        <time>2026-04-25T13:51:39.000Z</time>
    </trkpt>
    <trkpt lat="59.1025829315" lon="30.0223731995">
        <ele>0.0</ele>
        <time>2026-04-25T13:51:42.000Z</time>
    </trkpt>
    <trkpt lat="59.1025829315" lon="30.0223731995">
        <ele>0.0</ele>
        <time>2026-04-25T13:51:44.000Z</time>
    </trkpt>
    <trkpt lat="59.1025829315" lon="30.0223731995">
        <ele>0.0</ele>
        <time>2026-04-25T13:51:47.000Z</time>
    </trkpt>
    <trkpt lat="59.1025829315" lon="30.0223731995">
        <ele>0.0</ele>
        <time>2026-04-25T13:51:49.000Z</time>
    </trkpt>
    <trkpt lat="59.1025829315" lon="30.0223731995">
        <ele>0.0</ele>
        <time>2026-04-25T13:51:52.000Z</time>
    </trkpt>
    <trkpt lat="59.1025829315" lon="30.0223731995">
        <ele>0.0</ele>
        <time>2026-04-25T13:51:54.000Z</time>
    </trkpt>
    <trkpt lat="59.1025829315" lon="30.0224375725">
        <ele>0.0</ele>
        <time>2026-04-25T13:51:57.000Z</time>
    </trkpt>
    <trkpt lat="59.1025614738" lon="30.0224161148">
        <ele>0.0</ele>
        <time>2026-04-25T13:51:59.000Z</time>
    </trkpt>
    <trkpt lat="59.1025614738" lon="30.0224375725">
        <ele>0.0</ele>
        <time>2026-04-25T13:52:02.000Z</time>
    </trkpt>
    <trkpt lat="59.1025614738" lon="30.0224375725">
        <ele>0.0</ele>
        <time>2026-04-25T13:52:04.000Z</time>
    </trkpt>
    <trkpt lat="59.1025614738" lon="30.0225448608">
        <ele>0.0</ele>
        <time>2026-04-25T13:52:07.000Z</time>
    </trkpt>
    <trkpt lat="59.1025614738" lon="30.0225877762">
        <ele>0.0</ele>
        <time>2026-04-25T13:52:09.000Z</time>
    </trkpt>
    <trkpt lat="59.1025614738" lon="30.0226521492">
        <ele>0.0</ele>
        <time>2026-04-25T13:52:12.000Z</time>
    </trkpt>
    <trkpt lat="59.1025614738" lon="30.0228023529">
        <ele>0.0</ele>
        <time>2026-04-25T13:52:14.000Z</time>
    </trkpt>
    <trkpt lat="59.1025829315" lon="30.0229096413">
        <ele>0.0</ele>
        <time>2026-04-25T13:52:17.000Z</time>
    </trkpt>
    <trkpt lat="59.1025829315" lon="30.0229525566">
        <ele>0.0</ele>
        <time>2026-04-25T13:52:19.000Z</time>
    </trkpt>
    <trkpt lat="59.1026043892" lon="30.0229740143">
        <ele>0.0</ele>
        <time>2026-04-25T13:52:22.000Z</time>
    </trkpt>
    <trkpt lat="59.1025829315" lon="30.0228881836">
        <ele>0.0</ele>
        <time>2026-04-25T13:52:24.000Z</time>
    </trkpt>
    <trkpt lat="59.1025829315" lon="30.0228452682">
        <ele>0.0</ele>
        <time>2026-04-25T13:52:27.000Z</time>
    </trkpt>
    <trkpt lat="59.1025829315" lon="30.0228452682">
        <ele>0.0</ele>
        <time>2026-04-25T13:52:29.000Z</time>
    </trkpt>
    <trkpt lat="59.1025829315" lon="30.0228667259">
        <ele>0.0</ele>
        <time>2026-04-25T13:52:32.000Z</time>
    </trkpt>
    <trkpt lat="59.1026043892" lon="30.022995472">
        <ele>0.0</ele>
        <time>2026-04-25T13:52:34.000Z</time>
    </trkpt>
    <trkpt lat="59.1026258469" lon="30.0230383873">
        <ele>0.0</ele>
        <time>2026-04-25T13:52:37.000Z</time>
    </trkpt>
    <trkpt lat="59.1026258469" lon="30.023059845">
        <ele>0.0</ele>
        <time>2026-04-25T13:52:39.000Z</time>
    </trkpt>
    <trkpt lat="59.1026258469" lon="30.023059845">
        <ele>0.0</ele>
        <time>2026-04-25T13:52:42.000Z</time>
    </trkpt>
    <trkpt lat="59.1026258469" lon="30.023059845">
        <ele>0.0</ele>
        <time>2026-04-25T13:52:44.000Z</time>
    </trkpt>
    <trkpt lat="59.1026258469" lon="30.023059845">
        <ele>0.0</ele>
        <time>2026-04-25T13:52:47.000Z</time>
    </trkpt>
    <trkpt lat="59.1026473045" lon="30.0231027603">
        <ele>0.0</ele>
        <time>2026-04-25T13:52:49.000Z</time>
    </trkpt>
    <trkpt lat="59.1026473045" lon="30.023124218">
        <ele>0.0</ele>
        <time>2026-04-25T13:52:52.000Z</time>
    </trkpt>
    <trkpt lat="59.1026687622" lon="30.023188591">
        <ele>0.0</ele>
        <time>2026-04-25T13:52:54.000Z</time>
    </trkpt>
    <trkpt lat="59.1026902199" lon="30.0232100487">
        <ele>0.0</ele>
        <time>2026-04-25T13:52:57.000Z</time>
    </trkpt>
    <trkpt lat="59.1027116776" lon="30.0232100487">
        <ele>0.0</ele>
        <time>2026-04-25T13:52:59.000Z</time>
    </trkpt>
    <trkpt lat="59.1027116776" lon="30.0232315063">
        <ele>0.0</ele>
        <time>2026-04-25T13:53:02.000Z</time>
    </trkpt>
    <trkpt lat="59.1027116776" lon="30.0232315063">
        <ele>0.0</ele>
        <time>2026-04-25T13:53:04.000Z</time>
    </trkpt>
    <trkpt lat="59.1027116776" lon="30.0232315063">
        <ele>0.0</ele>
        <time>2026-04-25T13:53:07.000Z</time>
    </trkpt>
    <trkpt lat="59.1027116776" lon="30.023252964">
        <ele>0.0</ele>
        <time>2026-04-25T13:53:09.000Z</time>
    </trkpt>
    <trkpt lat="59.1027116776" lon="30.023252964">
        <ele>0.0</ele>
        <time>2026-04-25T13:53:12.000Z</time>
    </trkpt>
    <trkpt lat="59.1027116776" lon="30.023317337">
        <ele>0.0</ele>
        <time>2026-04-25T13:53:14.000Z</time>
    </trkpt>
    <trkpt lat="59.1027116776" lon="30.0233602524">
        <ele>0.0</ele>
        <time>2026-04-25T13:53:17.000Z</time>
    </trkpt>
    <trkpt lat="59.1027116776" lon="30.0233602524">
        <ele>0.0</ele>
        <time>2026-04-25T13:53:19.000Z</time>
    </trkpt>
    <trkpt lat="59.1026902199" lon="30.0233602524">
        <ele>0.0</ele>
        <time>2026-04-25T13:53:22.000Z</time>
    </trkpt>
    <trkpt lat="59.1026687622" lon="30.0233387947">
        <ele>0.0</ele>
        <time>2026-04-25T13:53:24.000Z</time>
    </trkpt>
    <trkpt lat="59.1026687622" lon="30.023317337">
        <ele>0.0</ele>
        <time>2026-04-25T13:53:27.000Z</time>
    </trkpt>
    <trkpt lat="59.1026687622" lon="30.023317337">
        <ele>0.0</ele>
        <time>2026-04-25T13:53:29.000Z</time>
    </trkpt>
    <trkpt lat="59.1026687622" lon="30.0232958794">
        <ele>0.0</ele>
        <time>2026-04-25T13:53:32.000Z</time>
    </trkpt>
    <trkpt lat="59.1026687622" lon="30.0232958794">
        <ele>0.0</ele>
        <time>2026-04-25T13:53:34.000Z</time>
    </trkpt>
    <trkpt lat="59.1026687622" lon="30.0232958794">
        <ele>0.0</ele>
        <time>2026-04-25T13:53:37.000Z</time>
    </trkpt>
    <trkpt lat="59.1026687622" lon="30.0232958794">
        <ele>0.0</ele>
        <time>2026-04-25T13:53:39.000Z</time>
    </trkpt>
    <trkpt lat="59.1026687622" lon="30.0232744217">
        <ele>0.0</ele>
        <time>2026-04-25T13:53:42.000Z</time>
    </trkpt>
    <trkpt lat="59.1026687622" lon="30.0232315063">
        <ele>0.0</ele>
        <time>2026-04-25T13:53:44.000Z</time>
    </trkpt>
    <trkpt lat="59.1026687622" lon="30.023188591">
        <ele>0.0</ele>
        <time>2026-04-25T13:53:47.000Z</time>
    </trkpt>
    <trkpt lat="59.1026473045" lon="30.023059845">
        <ele>0.0</ele>
        <time>2026-04-25T13:53:49.000Z</time>
    </trkpt>
    <trkpt lat="59.1026473045" lon="30.022995472">
        <ele>0.0</ele>
        <time>2026-04-25T13:53:52.000Z</time>
    </trkpt>
    <trkpt lat="59.1026258469" lon="30.0229740143">
        <ele>0.0</ele>
        <time>2026-04-25T13:53:54.000Z</time>
    </trkpt>
    <trkpt lat="59.1026258469" lon="30.0229740143">
        <ele>0.0</ele>
        <time>2026-04-25T13:53:57.000Z</time>
    </trkpt>
    <trkpt lat="59.1026258469" lon="30.0229740143">
        <ele>0.0</ele>
        <time>2026-04-25T13:53:59.000Z</time>
    </trkpt>
    <trkpt lat="59.1026258469" lon="30.0229740143">
        <ele>0.0</ele>
        <time>2026-04-25T13:54:02.000Z</time>
    </trkpt>
    <trkpt lat="59.1026258469" lon="30.0229740143">
        <ele>0.0</ele>
        <time>2026-04-25T13:54:04.000Z</time>
    </trkpt>
    <trkpt lat="59.1026258469" lon="30.0229740143">
        <ele>0.0</ele>
        <time>2026-04-25T13:54:07.000Z</time>
    </trkpt>
    <trkpt lat="59.1026258469" lon="30.0229310989">
        <ele>0.0</ele>
        <time>2026-04-25T13:54:09.000Z</time>
    </trkpt>
    <trkpt lat="59.1026258469" lon="30.0228452682">
        <ele>0.0</ele>
        <time>2026-04-25T13:54:12.000Z</time>
    </trkpt>
    <trkpt lat="59.1026258469" lon="30.0228452682">
        <ele>0.0</ele>
        <time>2026-04-25T13:54:14.000Z</time>
    </trkpt>
    <trkpt lat="59.1026258469" lon="30.0228452682">
        <ele>0.0</ele>
        <time>2026-04-25T13:54:17.000Z</time>
    </trkpt>
    <trkpt lat="59.1026258469" lon="30.0228452682">
        <ele>0.0</ele>
        <time>2026-04-25T13:54:19.000Z</time>
    </trkpt>
    <trkpt lat="59.1026258469" lon="30.0228452682">
        <ele>0.0</ele>
        <time>2026-04-25T13:54:22.000Z</time>
    </trkpt>
    <trkpt lat="59.1026258469" lon="30.0227808952">
        <ele>0.0</ele>
        <time>2026-04-25T13:54:24.000Z</time>
    </trkpt>
    <trkpt lat="59.1026043892" lon="30.0226306915">
        <ele>0.0</ele>
        <time>2026-04-25T13:54:27.000Z</time>
    </trkpt>
    <trkpt lat="59.1026258469" lon="30.0224590302">
        <ele>0.0</ele>
        <time>2026-04-25T13:54:29.000Z</time>
    </trkpt>
    <trkpt lat="59.1026258469" lon="30.0224590302">
        <ele>0.0</ele>
        <time>2026-04-25T13:54:32.000Z</time>
    </trkpt>
    <trkpt lat="59.1026258469" lon="30.0224590302">
        <ele>0.0</ele>
        <time>2026-04-25T13:54:34.000Z</time>
    </trkpt>
    <trkpt lat="59.1026258469" lon="30.0224590302">
        <ele>0.0</ele>
        <time>2026-04-25T13:54:37.000Z</time>
    </trkpt>
    <trkpt lat="59.1026258469" lon="30.0224590302">
        <ele>0.0</ele>
        <time>2026-04-25T13:54:39.000Z</time>
    </trkpt>
    <trkpt lat="59.1026258469" lon="30.0224590302">
        <ele>0.0</ele>
        <time>2026-04-25T13:54:42.000Z</time>
    </trkpt>
    <trkpt lat="59.1026258469" lon="30.0224590302">
        <ele>0.0</ele>
        <time>2026-04-25T13:54:44.000Z</time>
    </trkpt>
    <trkpt lat="59.1026258469" lon="30.0224590302">
        <ele>0.0</ele>
        <time>2026-04-25T13:54:47.000Z</time>
    </trkpt>
    <trkpt lat="59.1026258469" lon="30.0224590302">
        <ele>0.0</ele>
        <time>2026-04-25T13:54:49.000Z</time>
    </trkpt>
    <trkpt lat="59.1026258469" lon="30.0224590302">
        <ele>0.0</ele>
        <time>2026-04-25T13:54:52.000Z</time>
    </trkpt>
    <trkpt lat="59.1026043892" lon="30.0224375725">
        <ele>0.0</ele>
        <time>2026-04-25T13:54:54.000Z</time>
    </trkpt>
    <trkpt lat="59.1026043892" lon="30.0224375725">
        <ele>0.0</ele>
        <time>2026-04-25T13:54:57.000Z</time>
    </trkpt>
    <trkpt lat="59.1026043892" lon="30.0224375725">
        <ele>0.0</ele>
        <time>2026-04-25T13:54:59.000Z</time>
    </trkpt>
    <trkpt lat="59.1026043892" lon="30.0224375725">
        <ele>0.0</ele>
        <time>2026-04-25T13:55:02.000Z</time>
    </trkpt>
    <trkpt lat="59.1026043892" lon="30.0224375725">
        <ele>0.0</ele>
        <time>2026-04-25T13:55:04.000Z</time>
    </trkpt>
    <trkpt lat="59.1026043892" lon="30.0224375725">
        <ele>0.0</ele>
        <time>2026-04-25T13:55:07.000Z</time>
    </trkpt>
    <trkpt lat="59.1026043892" lon="30.0224375725">
        <ele>0.0</ele>
        <time>2026-04-25T13:55:09.000Z</time>
    </trkpt>
    <trkpt lat="59.1026043892" lon="30.0224375725">
        <ele>0.0</ele>
        <time>2026-04-25T13:55:12.000Z</time>
    </trkpt>
    <trkpt lat="59.1026043892" lon="30.0224804878">
        <ele>0.0</ele>
        <time>2026-04-25T13:55:14.000Z</time>
    </trkpt>
    <trkpt lat="59.1026043892" lon="30.0226306915">
        <ele>0.0</ele>
        <time>2026-04-25T13:55:17.000Z</time>
    </trkpt>
    <trkpt lat="59.1026258469" lon="30.0228667259">
        <ele>0.0</ele>
        <time>2026-04-25T13:55:19.000Z</time>
    </trkpt>
    <trkpt lat="59.1026473045" lon="30.0230169296">
        <ele>0.0</ele>
        <time>2026-04-25T13:55:22.000Z</time>
    </trkpt>
    <trkpt lat="59.1026687622" lon="30.0232315063">
        <ele>0.0</ele>
        <time>2026-04-25T13:55:24.000Z</time>
    </trkpt>
    <trkpt lat="59.1026687622" lon="30.0232744217">
        <ele>0.0</ele>
        <time>2026-04-25T13:55:27.000Z</time>
    </trkpt>
    <trkpt lat="59.1026687622" lon="30.0232744217">
        <ele>0.0</ele>
        <time>2026-04-25T13:55:29.000Z</time>
    </trkpt>
    <trkpt lat="59.1026687622" lon="30.0232744217">
        <ele>0.0</ele>
        <time>2026-04-25T13:55:32.000Z</time>
    </trkpt>
    <trkpt lat="59.1026687622" lon="30.0232744217">
        <ele>0.0</ele>
        <time>2026-04-25T13:55:34.000Z</time>
    </trkpt>
    <trkpt lat="59.1026473045" lon="30.0232958794">
        <ele>0.0</ele>
        <time>2026-04-25T13:55:37.000Z</time>
    </trkpt>
    <trkpt lat="59.1026258469" lon="30.0232744217">
        <ele>0.0</ele>
        <time>2026-04-25T13:55:39.000Z</time>
    </trkpt>
    <trkpt lat="59.1026258469" lon="30.0232744217">
        <ele>0.0</ele>
        <time>2026-04-25T13:55:42.000Z</time>
    </trkpt>
    <trkpt lat="59.1026043892" lon="30.0232744217">
        <ele>0.0</ele>
        <time>2026-04-25T13:55:44.000Z</time>
    </trkpt>
    <trkpt lat="59.1026043892" lon="30.0232958794">
        <ele>0.0</ele>
        <time>2026-04-25T13:55:47.000Z</time>
    </trkpt>
    <trkpt lat="59.1025829315" lon="30.023317337">
        <ele>0.0</ele>
        <time>2026-04-25T13:55:49.000Z</time>
    </trkpt>
    <trkpt lat="59.1025829315" lon="30.023317337">
        <ele>0.0</ele>
        <time>2026-04-25T13:55:52.000Z</time>
    </trkpt>
    <trkpt lat="59.1025829315" lon="30.023317337">
        <ele>0.0</ele>
        <time>2026-04-25T13:55:54.000Z</time>
    </trkpt>
    <trkpt lat="59.1025614738" lon="30.023317337">
        <ele>0.0</ele>
        <time>2026-04-25T13:55:57.000Z</time>
    </trkpt>
    <trkpt lat="59.1025614738" lon="30.023317337">
        <ele>0.0</ele>
        <time>2026-04-25T13:55:59.000Z</time>
    </trkpt>
    <trkpt lat="59.1025400162" lon="30.023317337">
        <ele>0.0</ele>
        <time>2026-04-25T13:56:02.000Z</time>
    </trkpt>
    <trkpt lat="59.1024756432" lon="30.023317337">
        <ele>0.0</ele>
        <time>2026-04-25T13:56:07.000Z</time>
    </trkpt>
    <trkpt lat="59.1024541855" lon="30.0233387947">
        <ele>0.0</ele>
        <time>2026-04-25T13:56:09.000Z</time>
    </trkpt>
    <trkpt lat="59.1024541855" lon="30.0233387947">
        <ele>0.0</ele>
        <time>2026-04-25T13:56:12.000Z</time>
    </trkpt>
    <trkpt lat="59.1024327278" lon="30.0233387947">
        <ele>0.0</ele>
        <time>2026-04-25T13:56:14.000Z</time>
    </trkpt>
    <trkpt lat="59.1024327278" lon="30.0233602524">
        <ele>0.0</ele>
        <time>2026-04-25T13:56:17.000Z</time>
    </trkpt>
    <trkpt lat="59.1024112701" lon="30.0234031677">
        <ele>0.0</ele>
        <time>2026-04-25T13:56:19.000Z</time>
    </trkpt>
    <trkpt lat="59.1024112701" lon="30.0234246254">
        <ele>0.0</ele>
        <time>2026-04-25T13:56:22.000Z</time>
    </trkpt>
    <trkpt lat="59.1024112701" lon="30.0234246254">
        <ele>0.0</ele>
        <time>2026-04-25T13:56:24.000Z</time>
    </trkpt>
    <trkpt lat="59.1024112701" lon="30.0234246254">
        <ele>0.0</ele>
        <time>2026-04-25T13:56:27.000Z</time>
    </trkpt>
    <trkpt lat="59.1024112701" lon="30.0234031677">
        <ele>0.0</ele>
        <time>2026-04-25T13:56:29.000Z</time>
    </trkpt>
    <trkpt lat="59.1023898125" lon="30.0234031677">
        <ele>0.0</ele>
        <time>2026-04-25T13:56:32.000Z</time>
    </trkpt>
    <trkpt lat="59.1023898125" lon="30.0233817101">
        <ele>0.0</ele>
        <time>2026-04-25T13:56:34.000Z</time>
    </trkpt>
    <trkpt lat="59.1023898125" lon="30.0233817101">
        <ele>0.0</ele>
        <time>2026-04-25T13:56:37.000Z</time>
    </trkpt>
    <trkpt lat="59.1023683548" lon="30.0234460831">
        <ele>0.0</ele>
        <time>2026-04-25T13:56:39.000Z</time>
    </trkpt>
    <trkpt lat="59.1023468971" lon="30.0234460831">
        <ele>0.0</ele>
        <time>2026-04-25T13:56:42.000Z</time>
    </trkpt>
    <trkpt lat="59.1023254395" lon="30.0234246254">
        <ele>0.0</ele>
        <time>2026-04-25T13:56:44.000Z</time>
    </trkpt>
    <trkpt lat="59.1023254395" lon="30.0234460831">
        <ele>0.0</ele>
        <time>2026-04-25T13:56:47.000Z</time>
    </trkpt>
    <trkpt lat="59.1023039818" lon="30.0234246254">
        <ele>0.0</ele>
        <time>2026-04-25T13:56:49.000Z</time>
    </trkpt>
    <trkpt lat="59.1022825241" lon="30.0234460831">
        <ele>0.0</ele>
        <time>2026-04-25T13:56:52.000Z</time>
    </trkpt>
    <trkpt lat="59.1022825241" lon="30.0234889984">
        <ele>0.0</ele>
        <time>2026-04-25T13:56:54.000Z</time>
    </trkpt>
    <trkpt lat="59.1022825241" lon="30.0235104561">
        <ele>0.0</ele>
        <time>2026-04-25T13:56:57.000Z</time>
    </trkpt>
    <trkpt lat="59.1022610664" lon="30.0235748291">
        <ele>0.0</ele>
        <time>2026-04-25T13:56:59.000Z</time>
    </trkpt>
    <trkpt lat="59.1022610664" lon="30.0235748291">
        <ele>0.0</ele>
        <time>2026-04-25T13:57:02.000Z</time>
    </trkpt>
    <trkpt lat="59.1022610664" lon="30.0235748291">
        <ele>0.0</ele>
        <time>2026-04-25T13:57:04.000Z</time>
    </trkpt>
    <trkpt lat="59.1022610664" lon="30.0235748291">
        <ele>0.0</ele>
        <time>2026-04-25T13:57:07.000Z</time>
    </trkpt>
    <trkpt lat="59.1022610664" lon="30.0235748291">
        <ele>0.0</ele>
        <time>2026-04-25T13:57:09.000Z</time>
    </trkpt>
    <trkpt lat="59.1022610664" lon="30.0235748291">
        <ele>0.0</ele>
        <time>2026-04-25T13:57:12.000Z</time>
    </trkpt>
    <trkpt lat="59.1022610664" lon="30.0235748291">
        <ele>0.0</ele>
        <time>2026-04-25T13:57:14.000Z</time>
    </trkpt>
    <trkpt lat="59.1022610664" lon="30.0235748291">
        <ele>0.0</ele>
        <time>2026-04-25T13:57:17.000Z</time>
    </trkpt>
    <trkpt lat="59.1022610664" lon="30.0235748291">
        <ele>0.0</ele>
        <time>2026-04-25T13:57:19.000Z</time>
    </trkpt>
    <trkpt lat="59.1022610664" lon="30.0235748291">
        <ele>0.0</ele>
        <time>2026-04-25T13:57:22.000Z</time>
    </trkpt>
    <trkpt lat="59.1022610664" lon="30.0235748291">
        <ele>0.0</ele>
        <time>2026-04-25T13:57:24.000Z</time>
    </trkpt>
    <trkpt lat="59.1022610664" lon="30.0235748291">
        <ele>0.0</ele>
        <time>2026-04-25T13:57:27.000Z</time>
    </trkpt>
    <trkpt lat="59.1022396088" lon="30.0236177444">
        <ele>0.0</ele>
        <time>2026-04-25T13:57:29.000Z</time>
    </trkpt>
    <trkpt lat="59.1022396088" lon="30.0236606598">
        <ele>0.0</ele>
        <time>2026-04-25T13:57:32.000Z</time>
    </trkpt>
    <trkpt lat="59.1022181511" lon="30.0236821175">
        <ele>0.0</ele>
        <time>2026-04-25T13:57:34.000Z</time>
    </trkpt>
    <trkpt lat="59.1021966934" lon="30.0237035751">
        <ele>0.0</ele>
        <time>2026-04-25T13:57:37.000Z</time>
    </trkpt>
    <trkpt lat="59.1021752357" lon="30.0237035751">
        <ele>0.0</ele>
        <time>2026-04-25T13:57:39.000Z</time>
    </trkpt>
    <trkpt lat="59.1021537781" lon="30.0237035751">
        <ele>0.0</ele>
        <time>2026-04-25T13:57:42.000Z</time>
    </trkpt>
    <trkpt lat="59.1021537781" lon="30.0236821175">
        <ele>0.0</ele>
        <time>2026-04-25T13:57:44.000Z</time>
    </trkpt>
    <trkpt lat="59.1021537781" lon="30.0236821175">
        <ele>0.0</ele>
        <time>2026-04-25T13:57:47.000Z</time>
    </trkpt>
    <trkpt lat="59.1021323204" lon="30.0236821175">
        <ele>0.0</ele>
        <time>2026-04-25T13:57:49.000Z</time>
    </trkpt>
    <trkpt lat="59.1021108627" lon="30.0236821175">
        <ele>0.0</ele>
        <time>2026-04-25T13:57:52.000Z</time>
    </trkpt>
    <trkpt lat="59.1021108627" lon="30.0236821175">
        <ele>0.0</ele>
        <time>2026-04-25T13:57:54.000Z</time>
    </trkpt>
    <trkpt lat="59.1021108627" lon="30.0237035751">
        <ele>0.0</ele>
        <time>2026-04-25T13:57:57.000Z</time>
    </trkpt>
    <trkpt lat="59.1020894051" lon="30.0237035751">
        <ele>0.0</ele>
        <time>2026-04-25T13:57:59.000Z</time>
    </trkpt>
    <trkpt lat="59.1020679474" lon="30.0236821175">
        <ele>0.0</ele>
        <time>2026-04-25T13:58:02.000Z</time>
    </trkpt>
    <trkpt lat="59.1020464897" lon="30.0236821175">
        <ele>0.0</ele>
        <time>2026-04-25T13:58:04.000Z</time>
    </trkpt>
    <trkpt lat="59.1020464897" lon="30.0236606598">
        <ele>0.0</ele>
        <time>2026-04-25T13:58:07.000Z</time>
    </trkpt>
    <trkpt lat="59.102025032" lon="30.0236606598">
        <ele>0.0</ele>
        <time>2026-04-25T13:58:09.000Z</time>
    </trkpt>
    <trkpt lat="59.102025032" lon="30.0236606598">
        <ele>0.0</ele>
        <time>2026-04-25T13:58:12.000Z</time>
    </trkpt>
    <trkpt lat="59.102025032" lon="30.0236606598">
        <ele>0.0</ele>
        <time>2026-04-25T13:58:14.000Z</time>
    </trkpt>
    <trkpt lat="59.102025032" lon="30.0236606598">
        <ele>0.0</ele>
        <time>2026-04-25T13:58:17.000Z</time>
    </trkpt>
    <trkpt lat="59.102025032" lon="30.0236606598">
        <ele>0.0</ele>
        <time>2026-04-25T13:58:19.000Z</time>
    </trkpt>
    <trkpt lat="59.102025032" lon="30.0236606598">
        <ele>0.0</ele>
        <time>2026-04-25T13:58:22.000Z</time>
    </trkpt>
    <trkpt lat="59.102025032" lon="30.0236606598">
        <ele>0.0</ele>
        <time>2026-04-25T13:58:24.000Z</time>
    </trkpt>
    <trkpt lat="59.102025032" lon="30.0236606598">
        <ele>0.0</ele>
        <time>2026-04-25T13:58:27.000Z</time>
    </trkpt>
    <trkpt lat="59.102025032" lon="30.0236606598">
        <ele>0.0</ele>
        <time>2026-04-25T13:58:29.000Z</time>
    </trkpt>
    <trkpt lat="59.102025032" lon="30.0236606598">
        <ele>0.0</ele>
        <time>2026-04-25T13:58:32.000Z</time>
    </trkpt>
    <trkpt lat="59.102025032" lon="30.0236606598">
        <ele>0.0</ele>
        <time>2026-04-25T13:58:34.000Z</time>
    </trkpt>
    <trkpt lat="59.1020035744" lon="30.0236606598">
        <ele>0.0</ele>
        <time>2026-04-25T13:58:37.000Z</time>
    </trkpt>
    <trkpt lat="59.1020035744" lon="30.0236606598">
        <ele>0.0</ele>
        <time>2026-04-25T13:58:39.000Z</time>
    </trkpt>
    <trkpt lat="59.1020035744" lon="30.0236821175">
        <ele>0.0</ele>
        <time>2026-04-25T13:58:42.000Z</time>
    </trkpt>
    <trkpt lat="59.1019821167" lon="30.0236821175">
        <ele>0.0</ele>
        <time>2026-04-25T13:58:44.000Z</time>
    </trkpt>
    <trkpt lat="59.101960659" lon="30.0236606598">
        <ele>0.0</ele>
        <time>2026-04-25T13:58:47.000Z</time>
    </trkpt>
    <trkpt lat="59.1019821167" lon="30.0236606598">
        <ele>0.0</ele>
        <time>2026-04-25T13:58:49.000Z</time>
    </trkpt>
    <trkpt lat="59.101960659" lon="30.0236821175">
        <ele>0.0</ele>
        <time>2026-04-25T13:58:52.000Z</time>
    </trkpt>
    <trkpt lat="59.1019821167" lon="30.0237035751">
        <ele>0.0</ele>
        <time>2026-04-25T13:58:54.000Z</time>
    </trkpt>
    <trkpt lat="59.101960659" lon="30.0237035751">
        <ele>0.0</ele>
        <time>2026-04-25T13:58:57.000Z</time>
    </trkpt>
    <trkpt lat="59.1019392014" lon="30.0237250328">
        <ele>0.0</ele>
        <time>2026-04-25T13:58:59.000Z</time>
    </trkpt>
    <trkpt lat="59.1019177437" lon="30.0237464905">
        <ele>0.0</ele>
        <time>2026-04-25T13:59:02.000Z</time>
    </trkpt>
    <trkpt lat="59.101896286" lon="30.0237679482">
        <ele>0.0</ele>
        <time>2026-04-25T13:59:04.000Z</time>
    </trkpt>
    <trkpt lat="59.1018748283" lon="30.0237464905">
        <ele>0.0</ele>
        <time>2026-04-25T13:59:07.000Z</time>
    </trkpt>
    <trkpt lat="59.101831913" lon="30.0237464905">
        <ele>0.0</ele>
        <time>2026-04-25T13:59:09.000Z</time>
    </trkpt>
    <trkpt lat="59.1018104553" lon="30.0237894058">
        <ele>0.0</ele>
        <time>2026-04-25T13:59:12.000Z</time>
    </trkpt>
    <trkpt lat="59.1018104553" lon="30.0238108635">
        <ele>0.0</ele>
        <time>2026-04-25T13:59:14.000Z</time>
    </trkpt>
    <trkpt lat="59.1017889977" lon="30.0238323212">
        <ele>0.0</ele>
        <time>2026-04-25T13:59:17.000Z</time>
    </trkpt>
    <trkpt lat="59.10176754" lon="30.0238537788">
        <ele>0.0</ele>
        <time>2026-04-25T13:59:19.000Z</time>
    </trkpt>
    <trkpt lat="59.10176754" lon="30.0238752365">
        <ele>0.0</ele>
        <time>2026-04-25T13:59:22.000Z</time>
    </trkpt>
    <trkpt lat="59.10176754" lon="30.0239396095">
        <ele>0.0</ele>
        <time>2026-04-25T13:59:24.000Z</time>
    </trkpt>
    <trkpt lat="59.1017460823" lon="30.0239396095">
        <ele>0.0</ele>
        <time>2026-04-25T13:59:27.000Z</time>
    </trkpt>
    <trkpt lat="59.1017460823" lon="30.0239610672">
        <ele>0.0</ele>
        <time>2026-04-25T13:59:29.000Z</time>
    </trkpt>
    <trkpt lat="59.1017246246" lon="30.0240039825">
        <ele>0.0</ele>
        <time>2026-04-25T13:59:32.000Z</time>
    </trkpt>
    <trkpt lat="59.1017246246" lon="30.0240039825">
        <ele>0.0</ele>
        <time>2026-04-25T13:59:34.000Z</time>
    </trkpt>
    <trkpt lat="59.101703167" lon="30.0240039825">
        <ele>0.0</ele>
        <time>2026-04-25T13:59:37.000Z</time>
    </trkpt>
    <trkpt lat="59.101703167" lon="30.0240039825">
        <ele>0.0</ele>
        <time>2026-04-25T13:59:39.000Z</time>
    </trkpt>
    <trkpt lat="59.101703167" lon="30.0240039825">
        <ele>0.0</ele>
        <time>2026-04-25T13:59:42.000Z</time>
    </trkpt>
    <trkpt lat="59.101703167" lon="30.0240039825">
        <ele>0.0</ele>
        <time>2026-04-25T13:59:44.000Z</time>
    </trkpt>
    <trkpt lat="59.101703167" lon="30.0240039825">
        <ele>0.0</ele>
        <time>2026-04-25T13:59:47.000Z</time>
    </trkpt>
    <trkpt lat="59.101703167" lon="30.0240039825">
        <ele>0.0</ele>
        <time>2026-04-25T13:59:49.000Z</time>
    </trkpt>
    <trkpt lat="59.101703167" lon="30.0240039825">
        <ele>0.0</ele>
        <time>2026-04-25T13:59:52.000Z</time>
    </trkpt>
    <trkpt lat="59.1016817093" lon="30.0239396095">
        <ele>0.0</ele>
        <time>2026-04-25T13:59:54.000Z</time>
    </trkpt>
    <trkpt lat="59.1016387939" lon="30.0239610672">
        <ele>0.0</ele>
        <time>2026-04-25T13:59:57.000Z</time>
    </trkpt>
    <trkpt lat="59.1016173363" lon="30.0239825249">
        <ele>0.0</ele>
        <time>2026-04-25T13:59:59.000Z</time>
    </trkpt>
    <trkpt lat="59.1016173363" lon="30.0239825249">
        <ele>0.0</ele>
        <time>2026-04-25T14:00:02.000Z</time>
    </trkpt>
    <trkpt lat="59.1015744209" lon="30.0240039825">
        <ele>0.0</ele>
        <time>2026-04-25T14:00:04.000Z</time>
    </trkpt>
    <trkpt lat="59.1015744209" lon="30.0240039825">
        <ele>0.0</ele>
        <time>2026-04-25T14:00:07.000Z</time>
    </trkpt>
    <trkpt lat="59.1015529633" lon="30.0240254402">
        <ele>0.0</ele>
        <time>2026-04-25T14:00:09.000Z</time>
    </trkpt>
    <trkpt lat="59.1015529633" lon="30.0240254402">
        <ele>0.0</ele>
        <time>2026-04-25T14:00:12.000Z</time>
    </trkpt>
    <trkpt lat="59.1015529633" lon="30.0240254402">
        <ele>0.0</ele>
        <time>2026-04-25T14:00:14.000Z</time>
    </trkpt>
    <trkpt lat="59.1015529633" lon="30.0240254402">
        <ele>0.0</ele>
        <time>2026-04-25T14:00:17.000Z</time>
    </trkpt>
    <trkpt lat="59.1015529633" lon="30.0240254402">
        <ele>0.0</ele>
        <time>2026-04-25T14:00:19.000Z</time>
    </trkpt>
    <trkpt lat="59.1015529633" lon="30.0240468979">
        <ele>0.0</ele>
        <time>2026-04-25T14:00:22.000Z</time>
    </trkpt>
    <trkpt lat="59.1015315056" lon="30.0241112709">
        <ele>0.0</ele>
        <time>2026-04-25T14:00:24.000Z</time>
    </trkpt>
    <trkpt lat="59.1015315056" lon="30.0241112709">
        <ele>0.0</ele>
        <time>2026-04-25T14:00:27.000Z</time>
    </trkpt>
    <trkpt lat="59.1015315056" lon="30.0241971016">
        <ele>0.0</ele>
        <time>2026-04-25T14:00:29.000Z</time>
    </trkpt>
    <trkpt lat="59.1015100479" lon="30.0242400169">
        <ele>0.0</ele>
        <time>2026-04-25T14:00:32.000Z</time>
    </trkpt>
    <trkpt lat="59.1015100479" lon="30.0242614746">
        <ele>0.0</ele>
        <time>2026-04-25T14:00:34.000Z</time>
    </trkpt>
    <trkpt lat="59.1015100479" lon="30.0242614746">
        <ele>0.0</ele>
        <time>2026-04-25T14:00:37.000Z</time>
    </trkpt>
    <trkpt lat="59.1015100479" lon="30.0242400169">
        <ele>0.0</ele>
        <time>2026-04-25T14:00:39.000Z</time>
    </trkpt>
    <trkpt lat="59.1014671326" lon="30.0242400169">
        <ele>0.0</ele>
        <time>2026-04-25T14:00:42.000Z</time>
    </trkpt>
    <trkpt lat="59.1014242172" lon="30.0242400169">
        <ele>0.0</ele>
        <time>2026-04-25T14:00:44.000Z</time>
    </trkpt>
    <trkpt lat="59.1013813019" lon="30.0242400169">
        <ele>0.0</ele>
        <time>2026-04-25T14:00:47.000Z</time>
    </trkpt>
    <trkpt lat="59.1013813019" lon="30.0242400169">
        <ele>0.0</ele>
        <time>2026-04-25T14:00:49.000Z</time>
    </trkpt>
    <trkpt lat="59.1013813019" lon="30.0242400169">
        <ele>0.0</ele>
        <time>2026-04-25T14:00:52.000Z</time>
    </trkpt>
    <trkpt lat="59.1013383865" lon="30.0242400169">
        <ele>0.0</ele>
        <time>2026-04-25T14:00:54.000Z</time>
    </trkpt>
    <trkpt lat="59.1013383865" lon="30.0242614746">
        <ele>0.0</ele>
        <time>2026-04-25T14:00:57.000Z</time>
    </trkpt>
    <trkpt lat="59.1013169289" lon="30.0242614746">
        <ele>0.0</ele>
        <time>2026-04-25T14:00:59.000Z</time>
    </trkpt>
    <trkpt lat="59.1013169289" lon="30.0242614746">
        <ele>0.0</ele>
        <time>2026-04-25T14:01:02.000Z</time>
    </trkpt>
    <trkpt lat="59.1012740135" lon="30.0242829323">
        <ele>0.0</ele>
        <time>2026-04-25T14:01:04.000Z</time>
    </trkpt>
    <trkpt lat="59.1012740135" lon="30.02430439">
        <ele>0.0</ele>
        <time>2026-04-25T14:01:07.000Z</time>
    </trkpt>
    <trkpt lat="59.1012525558" lon="30.0243473053">
        <ele>0.0</ele>
        <time>2026-04-25T14:01:09.000Z</time>
    </trkpt>
    <trkpt lat="59.1012525558" lon="30.0243902206">
        <ele>0.0</ele>
        <time>2026-04-25T14:01:12.000Z</time>
    </trkpt>
    <trkpt lat="59.1012525558" lon="30.0244116783">
        <ele>0.0</ele>
        <time>2026-04-25T14:01:14.000Z</time>
    </trkpt>
    <trkpt lat="59.1012525558" lon="30.0244116783">
        <ele>0.0</ele>
        <time>2026-04-25T14:01:17.000Z</time>
    </trkpt>
    <trkpt lat="59.1012310982" lon="30.024433136">
        <ele>0.0</ele>
        <time>2026-04-25T14:01:19.000Z</time>
    </trkpt>
    <trkpt lat="59.1012310982" lon="30.024433136">
        <ele>0.0</ele>
        <time>2026-04-25T14:01:22.000Z</time>
    </trkpt>
    <trkpt lat="59.1012310982" lon="30.0244116783">
        <ele>0.0</ele>
        <time>2026-04-25T14:01:24.000Z</time>
    </trkpt>
    <trkpt lat="59.1012310982" lon="30.0244116783">
        <ele>0.0</ele>
        <time>2026-04-25T14:01:27.000Z</time>
    </trkpt>
    <trkpt lat="59.1012740135" lon="30.0244116783">
        <ele>0.0</ele>
        <time>2026-04-25T14:01:29.000Z</time>
    </trkpt>
    <trkpt lat="59.1012954712" lon="30.024433136">
        <ele>0.0</ele>
        <time>2026-04-25T14:01:32.000Z</time>
    </trkpt>
    <trkpt lat="59.1013169289" lon="30.024433136">
        <ele>0.0</ele>
        <time>2026-04-25T14:01:34.000Z</time>
    </trkpt>
    <trkpt lat="59.1013169289" lon="30.0244545937">
        <ele>0.0</ele>
        <time>2026-04-25T14:01:37.000Z</time>
    </trkpt>
    <trkpt lat="59.1013169289" lon="30.0244760513">
        <ele>0.0</ele>
        <time>2026-04-25T14:01:39.000Z</time>
    </trkpt>
    <trkpt lat="59.1013169289" lon="30.024497509">
        <ele>0.0</ele>
        <time>2026-04-25T14:01:42.000Z</time>
    </trkpt>
    <trkpt lat="59.1013169289" lon="30.0245404243">
        <ele>0.0</ele>
        <time>2026-04-25T14:01:44.000Z</time>
    </trkpt>
    <trkpt lat="59.1013169289" lon="30.0245404243">
        <ele>0.0</ele>
        <time>2026-04-25T14:01:47.000Z</time>
    </trkpt>
    <trkpt lat="59.1013169289" lon="30.0245404243">
        <ele>0.0</ele>
        <time>2026-04-25T14:01:49.000Z</time>
    </trkpt>
    <trkpt lat="59.1013169289" lon="30.0245404243">
        <ele>0.0</ele>
        <time>2026-04-25T14:01:52.000Z</time>
    </trkpt>
    <trkpt lat="59.1013169289" lon="30.0245404243">
        <ele>0.0</ele>
        <time>2026-04-25T14:01:54.000Z</time>
    </trkpt>
    <trkpt lat="59.1013169289" lon="30.0245404243">
        <ele>0.0</ele>
        <time>2026-04-25T14:01:57.000Z</time>
    </trkpt>
    <trkpt lat="59.1013169289" lon="30.0245404243">
        <ele>0.0</ele>
        <time>2026-04-25T14:01:59.000Z</time>
    </trkpt>
    <trkpt lat="59.1013169289" lon="30.0245404243">
        <ele>0.0</ele>
        <time>2026-04-25T14:02:02.000Z</time>
    </trkpt>
    <trkpt lat="59.1013169289" lon="30.0245189667">
        <ele>0.0</ele>
        <time>2026-04-25T14:02:04.000Z</time>
    </trkpt>
    <trkpt lat="59.1012954712" lon="30.024497509">
        <ele>0.0</ele>
        <time>2026-04-25T14:02:07.000Z</time>
    </trkpt>
    <trkpt lat="59.1013169289" lon="30.0244545937">
        <ele>0.0</ele>
        <time>2026-04-25T14:02:09.000Z</time>
    </trkpt>
    <trkpt lat="59.1013169289" lon="30.0244545937">
        <ele>0.0</ele>
        <time>2026-04-25T14:02:12.000Z</time>
    </trkpt>
    <trkpt lat="59.1012954712" lon="30.0244545937">
        <ele>0.0</ele>
        <time>2026-04-25T14:02:14.000Z</time>
    </trkpt>
    <trkpt lat="59.1012954712" lon="30.0244545937">
        <ele>0.0</ele>
        <time>2026-04-25T14:02:17.000Z</time>
    </trkpt>
    <trkpt lat="59.1012740135" lon="30.0244545937">
        <ele>0.0</ele>
        <time>2026-04-25T14:02:19.000Z</time>
    </trkpt>
    <trkpt lat="59.1012525558" lon="30.024497509">
        <ele>0.0</ele>
        <time>2026-04-25T14:02:22.000Z</time>
    </trkpt>
    <trkpt lat="59.1012525558" lon="30.024497509">
        <ele>0.0</ele>
        <time>2026-04-25T14:02:24.000Z</time>
    </trkpt>
    <trkpt lat="59.1012310982" lon="30.0245189667">
        <ele>0.0</ele>
        <time>2026-04-25T14:02:27.000Z</time>
    </trkpt>
    <trkpt lat="59.1012096405" lon="30.0245404243">
        <ele>0.0</ele>
        <time>2026-04-25T14:02:29.000Z</time>
    </trkpt>
    <trkpt lat="59.1012096405" lon="30.0245833397">
        <ele>0.0</ele>
        <time>2026-04-25T14:02:32.000Z</time>
    </trkpt>
    <trkpt lat="59.1012096405" lon="30.0246047974">
        <ele>0.0</ele>
        <time>2026-04-25T14:02:34.000Z</time>
    </trkpt>
    <trkpt lat="59.1012096405" lon="30.024626255">
        <ele>0.0</ele>
        <time>2026-04-25T14:02:37.000Z</time>
    </trkpt>
    <trkpt lat="59.1011881828" lon="30.024626255">
        <ele>0.0</ele>
        <time>2026-04-25T14:02:39.000Z</time>
    </trkpt>
    <trkpt lat="59.1011881828" lon="30.024626255">
        <ele>0.0</ele>
        <time>2026-04-25T14:02:42.000Z</time>
    </trkpt>
    <trkpt lat="59.1011881828" lon="30.0246477127">
        <ele>0.0</ele>
        <time>2026-04-25T14:02:44.000Z</time>
    </trkpt>
    <trkpt lat="59.1011667252" lon="30.0246906281">
        <ele>0.0</ele>
        <time>2026-04-25T14:02:47.000Z</time>
    </trkpt>
    <trkpt lat="59.1011667252" lon="30.0247120857">
        <ele>0.0</ele>
        <time>2026-04-25T14:02:49.000Z</time>
    </trkpt>
    <trkpt lat="59.1011667252" lon="30.0247120857">
        <ele>0.0</ele>
        <time>2026-04-25T14:02:52.000Z</time>
    </trkpt>
    <trkpt lat="59.1011452675" lon="30.0247120857">
        <ele>0.0</ele>
        <time>2026-04-25T14:02:54.000Z</time>
    </trkpt>
    <trkpt lat="59.1011452675" lon="30.0247120857">
        <ele>0.0</ele>
        <time>2026-04-25T14:02:57.000Z</time>
    </trkpt>
    <trkpt lat="59.1011452675" lon="30.0247120857">
        <ele>0.0</ele>
        <time>2026-04-25T14:02:59.000Z</time>
    </trkpt>
    <trkpt lat="59.1011452675" lon="30.0247120857">
        <ele>0.0</ele>
        <time>2026-04-25T14:03:02.000Z</time>
    </trkpt>
    <trkpt lat="59.1011452675" lon="30.0247120857">
        <ele>0.0</ele>
        <time>2026-04-25T14:03:04.000Z</time>
    </trkpt>
    <trkpt lat="59.1011452675" lon="30.0247120857">
        <ele>0.0</ele>
        <time>2026-04-25T14:03:07.000Z</time>
    </trkpt>
    <trkpt lat="59.1011238098" lon="30.0247120857">
        <ele>0.0</ele>
        <time>2026-04-25T14:03:09.000Z</time>
    </trkpt>
    <trkpt lat="59.1011238098" lon="30.0246906281">
        <ele>0.0</ele>
        <time>2026-04-25T14:03:12.000Z</time>
    </trkpt>
    <trkpt lat="59.1010808945" lon="30.0246691704">
        <ele>0.0</ele>
        <time>2026-04-25T14:03:14.000Z</time>
    </trkpt>
    <trkpt lat="59.1010808945" lon="30.0246477127">
        <ele>0.0</ele>
        <time>2026-04-25T14:03:17.000Z</time>
    </trkpt>
    <trkpt lat="59.1010165215" lon="30.024626255">
        <ele>0.0</ele>
        <time>2026-04-25T14:03:19.000Z</time>
    </trkpt>
    <trkpt lat="59.1010165215" lon="30.024626255">
        <ele>0.0</ele>
        <time>2026-04-25T14:03:22.000Z</time>
    </trkpt>
    <trkpt lat="59.1010165215" lon="30.024626255">
        <ele>0.0</ele>
        <time>2026-04-25T14:03:24.000Z</time>
    </trkpt>
    <trkpt lat="59.1010165215" lon="30.024626255">
        <ele>0.0</ele>
        <time>2026-04-25T14:03:27.000Z</time>
    </trkpt>
    <trkpt lat="59.1010165215" lon="30.024626255">
        <ele>0.0</ele>
        <time>2026-04-25T14:03:29.000Z</time>
    </trkpt>
    <trkpt lat="59.1010165215" lon="30.024626255">
        <ele>0.0</ele>
        <time>2026-04-25T14:03:32.000Z</time>
    </trkpt>
    <trkpt lat="59.1010165215" lon="30.024626255">
        <ele>0.0</ele>
        <time>2026-04-25T14:03:34.000Z</time>
    </trkpt>
    <trkpt lat="59.1009950638" lon="30.024626255">
        <ele>0.0</ele>
        <time>2026-04-25T14:03:37.000Z</time>
    </trkpt>
    <trkpt lat="59.1009950638" lon="30.0246477127">
        <ele>0.0</ele>
        <time>2026-04-25T14:03:39.000Z</time>
    </trkpt>
    <trkpt lat="59.1009950638" lon="30.024626255">
        <ele>0.0</ele>
        <time>2026-04-25T14:03:42.000Z</time>
    </trkpt>
    <trkpt lat="59.1009950638" lon="30.024626255">
        <ele>0.0</ele>
        <time>2026-04-25T14:03:44.000Z</time>
    </trkpt>
    <trkpt lat="59.1009736061" lon="30.0246477127">
        <ele>0.0</ele>
        <time>2026-04-25T14:03:47.000Z</time>
    </trkpt>
    <trkpt lat="59.1009736061" lon="30.0246691704">
        <ele>0.0</ele>
        <time>2026-04-25T14:03:49.000Z</time>
    </trkpt>
    <trkpt lat="59.1009736061" lon="30.0246691704">
        <ele>0.0</ele>
        <time>2026-04-25T14:03:52.000Z</time>
    </trkpt>
    <trkpt lat="59.1009736061" lon="30.0246691704">
        <ele>0.0</ele>
        <time>2026-04-25T14:03:54.000Z</time>
    </trkpt>
    <trkpt lat="59.1009736061" lon="30.0246691704">
        <ele>0.0</ele>
        <time>2026-04-25T14:03:57.000Z</time>
    </trkpt>
    <trkpt lat="59.1009736061" lon="30.0246691704">
        <ele>0.0</ele>
        <time>2026-04-25T14:03:59.000Z</time>
    </trkpt>
    <trkpt lat="59.1009736061" lon="30.0246691704">
        <ele>0.0</ele>
        <time>2026-04-25T14:04:02.000Z</time>
    </trkpt>
    <trkpt lat="59.1009736061" lon="30.0246691704">
        <ele>0.0</ele>
        <time>2026-04-25T14:04:04.000Z</time>
    </trkpt>
    <trkpt lat="59.1009736061" lon="30.0246691704">
        <ele>0.0</ele>
        <time>2026-04-25T14:04:07.000Z</time>
    </trkpt>
    <trkpt lat="59.1009736061" lon="30.0246691704">
        <ele>0.0</ele>
        <time>2026-04-25T14:04:09.000Z</time>
    </trkpt>
    <trkpt lat="59.1009736061" lon="30.0246691704">
        <ele>0.0</ele>
        <time>2026-04-25T14:04:12.000Z</time>
    </trkpt>
    <trkpt lat="59.1009736061" lon="30.0246691704">
        <ele>0.0</ele>
        <time>2026-04-25T14:04:14.000Z</time>
    </trkpt>
    <trkpt lat="59.1009736061" lon="30.0246691704">
        <ele>0.0</ele>
        <time>2026-04-25T14:04:17.000Z</time>
    </trkpt>
    <trkpt lat="59.1009521484" lon="30.0246477127">
        <ele>0.0</ele>
        <time>2026-04-25T14:04:19.000Z</time>
    </trkpt>
    <trkpt lat="59.1009306908" lon="30.0246691704">
        <ele>0.0</ele>
        <time>2026-04-25T14:04:22.000Z</time>
    </trkpt>
    <trkpt lat="59.1009306908" lon="30.0246691704">
        <ele>0.0</ele>
        <time>2026-04-25T14:04:24.000Z</time>
    </trkpt>
    <trkpt lat="59.1009306908" lon="30.0246691704">
        <ele>0.0</ele>
        <time>2026-04-25T14:04:27.000Z</time>
    </trkpt>
    <trkpt lat="59.1009306908" lon="30.0246691704">
        <ele>0.0</ele>
        <time>2026-04-25T14:04:29.000Z</time>
    </trkpt>
    <trkpt lat="59.1009306908" lon="30.0246691704">
        <ele>0.0</ele>
        <time>2026-04-25T14:04:32.000Z</time>
    </trkpt>
    <trkpt lat="59.1009092331" lon="30.0246691704">
        <ele>0.0</ele>
        <time>2026-04-25T14:04:34.000Z</time>
    </trkpt>
    <trkpt lat="59.1009092331" lon="30.0246691704">
        <ele>0.0</ele>
        <time>2026-04-25T14:04:37.000Z</time>
    </trkpt>
    <trkpt lat="59.1009092331" lon="30.0246691704">
        <ele>0.0</ele>
        <time>2026-04-25T14:04:39.000Z</time>
    </trkpt>
    <trkpt lat="59.1009092331" lon="30.0246906281">
        <ele>0.0</ele>
        <time>2026-04-25T14:04:42.000Z</time>
    </trkpt>
    <trkpt lat="59.1009092331" lon="30.0246906281">
        <ele>0.0</ele>
        <time>2026-04-25T14:04:44.000Z</time>
    </trkpt>
    <trkpt lat="59.1009092331" lon="30.0246906281">
        <ele>0.0</ele>
        <time>2026-04-25T14:04:47.000Z</time>
    </trkpt>
    <trkpt lat="59.1008877754" lon="30.0246906281">
        <ele>0.0</ele>
        <time>2026-04-25T14:04:49.000Z</time>
    </trkpt>
    <trkpt lat="59.1008663177" lon="30.0246691704">
        <ele>0.0</ele>
        <time>2026-04-25T14:04:52.000Z</time>
    </trkpt>
    <trkpt lat="59.1008663177" lon="30.0246691704">
        <ele>0.0</ele>
        <time>2026-04-25T14:04:54.000Z</time>
    </trkpt>
    <trkpt lat="59.1008663177" lon="30.0246691704">
        <ele>0.0</ele>
        <time>2026-04-25T14:04:57.000Z</time>
    </trkpt>
    <trkpt lat="59.1008448601" lon="30.0246906281">
        <ele>0.0</ele>
        <time>2026-04-25T14:04:59.000Z</time>
    </trkpt>
    <trkpt lat="59.1008448601" lon="30.0246906281">
        <ele>0.0</ele>
        <time>2026-04-25T14:05:02.000Z</time>
    </trkpt>
    <trkpt lat="59.1008448601" lon="30.0247335434">
        <ele>0.0</ele>
        <time>2026-04-25T14:05:04.000Z</time>
    </trkpt>
    <trkpt lat="59.1008234024" lon="30.0247550011">
        <ele>0.0</ele>
        <time>2026-04-25T14:05:07.000Z</time>
    </trkpt>
    <trkpt lat="59.1008234024" lon="30.0247550011">
        <ele>0.0</ele>
        <time>2026-04-25T14:05:09.000Z</time>
    </trkpt>
    <trkpt lat="59.1008234024" lon="30.0247550011">
        <ele>0.0</ele>
        <time>2026-04-25T14:05:12.000Z</time>
    </trkpt>
    <trkpt lat="59.1008234024" lon="30.0247120857">
        <ele>0.0</ele>
        <time>2026-04-25T14:05:14.000Z</time>
    </trkpt>
    <trkpt lat="59.1008234024" lon="30.0247120857">
        <ele>0.0</ele>
        <time>2026-04-25T14:05:17.000Z</time>
    </trkpt>
    <trkpt lat="59.1008019447" lon="30.0246906281">
        <ele>0.0</ele>
        <time>2026-04-25T14:05:19.000Z</time>
    </trkpt>
    <trkpt lat="59.1008019447" lon="30.0246691704">
        <ele>0.0</ele>
        <time>2026-04-25T14:05:22.000Z</time>
    </trkpt>
    <trkpt lat="59.1008019447" lon="30.0246691704">
        <ele>0.0</ele>
        <time>2026-04-25T14:05:24.000Z</time>
    </trkpt>
    <trkpt lat="59.1007804871" lon="30.0246691704">
        <ele>0.0</ele>
        <time>2026-04-25T14:05:27.000Z</time>
    </trkpt>
    <trkpt lat="59.1007804871" lon="30.0246691704">
        <ele>0.0</ele>
        <time>2026-04-25T14:05:29.000Z</time>
    </trkpt>
    <trkpt lat="59.1007804871" lon="30.0246691704">
        <ele>0.0</ele>
        <time>2026-04-25T14:05:32.000Z</time>
    </trkpt>
    <trkpt lat="59.1007804871" lon="30.0246477127">
        <ele>0.0</ele>
        <time>2026-04-25T14:05:34.000Z</time>
    </trkpt>
    <trkpt lat="59.1007590294" lon="30.024626255">
        <ele>0.0</ele>
        <time>2026-04-25T14:05:37.000Z</time>
    </trkpt>
    <trkpt lat="59.1007590294" lon="30.0246047974">
        <ele>0.0</ele>
        <time>2026-04-25T14:05:39.000Z</time>
    </trkpt>
    <trkpt lat="59.1007590294" lon="30.024626255">
        <ele>0.0</ele>
        <time>2026-04-25T14:05:42.000Z</time>
    </trkpt>
    <trkpt lat="59.1007590294" lon="30.0246477127">
        <ele>0.0</ele>
        <time>2026-04-25T14:05:44.000Z</time>
    </trkpt>
    <trkpt lat="59.1007590294" lon="30.0246477127">
        <ele>0.0</ele>
        <time>2026-04-25T14:05:47.000Z</time>
    </trkpt>
    <trkpt lat="59.1007375717" lon="30.0246691704">
        <ele>0.0</ele>
        <time>2026-04-25T14:05:49.000Z</time>
    </trkpt>
    <trkpt lat="59.1007375717" lon="30.0246691704">
        <ele>0.0</ele>
        <time>2026-04-25T14:05:52.000Z</time>
    </trkpt>
    <trkpt lat="59.1007375717" lon="30.0246691704">
        <ele>0.0</ele>
        <time>2026-04-25T14:05:54.000Z</time>
    </trkpt>
    <trkpt lat="59.1007375717" lon="30.0246691704">
        <ele>0.0</ele>
        <time>2026-04-25T14:05:57.000Z</time>
    </trkpt>
    <trkpt lat="59.1007375717" lon="30.0246906281">
        <ele>0.0</ele>
        <time>2026-04-25T14:05:59.000Z</time>
    </trkpt>
    <trkpt lat="59.1007375717" lon="30.0246906281">
        <ele>0.0</ele>
        <time>2026-04-25T14:06:02.000Z</time>
    </trkpt>
    <trkpt lat="59.100716114" lon="30.0247120857">
        <ele>0.0</ele>
        <time>2026-04-25T14:06:04.000Z</time>
    </trkpt>
    <trkpt lat="59.100716114" lon="30.0247120857">
        <ele>0.0</ele>
        <time>2026-04-25T14:06:07.000Z</time>
    </trkpt>
    <trkpt lat="59.100716114" lon="30.0247120857">
        <ele>0.0</ele>
        <time>2026-04-25T14:06:09.000Z</time>
    </trkpt>
    <trkpt lat="59.100716114" lon="30.0247120857">
        <ele>0.0</ele>
        <time>2026-04-25T14:06:12.000Z</time>
    </trkpt>
    <trkpt lat="59.1007375717" lon="30.0247120857">
        <ele>0.0</ele>
        <time>2026-04-25T14:06:14.000Z</time>
    </trkpt>
    <trkpt lat="59.1007375717" lon="30.0247120857">
        <ele>0.0</ele>
        <time>2026-04-25T14:06:17.000Z</time>
    </trkpt>
    <trkpt lat="59.1007590294" lon="30.0247120857">
        <ele>0.0</ele>
        <time>2026-04-25T14:06:19.000Z</time>
    </trkpt>
    <trkpt lat="59.1007590294" lon="30.0247120857">
        <ele>0.0</ele>
        <time>2026-04-25T14:06:22.000Z</time>
    </trkpt>
    <trkpt lat="59.1007804871" lon="30.0247120857">
        <ele>0.0</ele>
        <time>2026-04-25T14:06:24.000Z</time>
    </trkpt>
    <trkpt lat="59.1008019447" lon="30.0247120857">
        <ele>0.0</ele>
        <time>2026-04-25T14:06:27.000Z</time>
    </trkpt>
    <trkpt lat="59.1008234024" lon="30.0246906281">
        <ele>0.0</ele>
        <time>2026-04-25T14:06:29.000Z</time>
    </trkpt>
    <trkpt lat="59.1008234024" lon="30.0246906281">
        <ele>0.0</ele>
        <time>2026-04-25T14:06:32.000Z</time>
    </trkpt>
    <trkpt lat="59.1008234024" lon="30.0246906281">
        <ele>0.0</ele>
        <time>2026-04-25T14:06:34.000Z</time>
    </trkpt>
    <trkpt lat="59.1008234024" lon="30.0246906281">
        <ele>0.0</ele>
        <time>2026-04-25T14:06:37.000Z</time>
    </trkpt>
    <trkpt lat="59.1008234024" lon="30.0246906281">
        <ele>0.0</ele>
        <time>2026-04-25T14:06:39.000Z</time>
    </trkpt>
    <trkpt lat="59.1008234024" lon="30.0246906281">
        <ele>0.0</ele>
        <time>2026-04-25T14:06:42.000Z</time>
    </trkpt>
    <trkpt lat="59.1008234024" lon="30.0247120857">
        <ele>0.0</ele>
        <time>2026-04-25T14:06:44.000Z</time>
    </trkpt>
    <trkpt lat="59.1008234024" lon="30.0247120857">
        <ele>0.0</ele>
        <time>2026-04-25T14:06:47.000Z</time>
    </trkpt>
    <trkpt lat="59.1008234024" lon="30.0247120857">
        <ele>0.0</ele>
        <time>2026-04-25T14:06:49.000Z</time>
    </trkpt>
    <trkpt lat="59.1008234024" lon="30.0247120857">
        <ele>0.0</ele>
        <time>2026-04-25T14:06:52.000Z</time>
    </trkpt>
    <trkpt lat="59.1008234024" lon="30.0247550011">
        <ele>0.0</ele>
        <time>2026-04-25T14:06:54.000Z</time>
    </trkpt>
    <trkpt lat="59.1008234024" lon="30.0247764587">
        <ele>0.0</ele>
        <time>2026-04-25T14:06:57.000Z</time>
    </trkpt>
    <trkpt lat="59.1008234024" lon="30.0247764587">
        <ele>0.0</ele>
        <time>2026-04-25T14:06:59.000Z</time>
    </trkpt>
    <trkpt lat="59.1008019447" lon="30.0247979164">
        <ele>0.0</ele>
        <time>2026-04-25T14:07:02.000Z</time>
    </trkpt>
    <trkpt lat="59.1008234024" lon="30.0248193741">
        <ele>0.0</ele>
        <time>2026-04-25T14:07:04.000Z</time>
    </trkpt>
    <trkpt lat="59.1008234024" lon="30.0248193741">
        <ele>0.0</ele>
        <time>2026-04-25T14:07:07.000Z</time>
    </trkpt>
    <trkpt lat="59.1008234024" lon="30.0248193741">
        <ele>0.0</ele>
        <time>2026-04-25T14:07:09.000Z</time>
    </trkpt>
    <trkpt lat="59.1008234024" lon="30.0248193741">
        <ele>0.0</ele>
        <time>2026-04-25T14:07:12.000Z</time>
    </trkpt>
    <trkpt lat="59.1008234024" lon="30.0248622894">
        <ele>0.0</ele>
        <time>2026-04-25T14:07:14.000Z</time>
    </trkpt>
    <trkpt lat="59.1008234024" lon="30.0248622894">
        <ele>0.0</ele>
        <time>2026-04-25T14:07:17.000Z</time>
    </trkpt>
    <trkpt lat="59.1008234024" lon="30.0248622894">
        <ele>0.0</ele>
        <time>2026-04-25T14:07:19.000Z</time>
    </trkpt>
    <trkpt lat="59.1008019447" lon="30.0248622894">
        <ele>0.0</ele>
        <time>2026-04-25T14:07:22.000Z</time>
    </trkpt>
    <trkpt lat="59.1008019447" lon="30.0248837471">
        <ele>0.0</ele>
        <time>2026-04-25T14:07:24.000Z</time>
    </trkpt>
    <trkpt lat="59.1008019447" lon="30.0248837471">
        <ele>0.0</ele>
        <time>2026-04-25T14:07:27.000Z</time>
    </trkpt>
    <trkpt lat="59.1008019447" lon="30.0248837471">
        <ele>0.0</ele>
        <time>2026-04-25T14:07:29.000Z</time>
    </trkpt>
    <trkpt lat="59.1008019447" lon="30.0248837471">
        <ele>0.0</ele>
        <time>2026-04-25T14:07:32.000Z</time>
    </trkpt>
    <trkpt lat="59.1008019447" lon="30.0248837471">
        <ele>0.0</ele>
        <time>2026-04-25T14:07:34.000Z</time>
    </trkpt>
    <trkpt lat="59.1007804871" lon="30.0249052048">
        <ele>0.0</ele>
        <time>2026-04-25T14:07:37.000Z</time>
    </trkpt>
    <trkpt lat="59.1007804871" lon="30.0249481201">
        <ele>0.0</ele>
        <time>2026-04-25T14:07:39.000Z</time>
    </trkpt>
    <trkpt lat="59.1007804871" lon="30.0249695778">
        <ele>0.0</ele>
        <time>2026-04-25T14:07:42.000Z</time>
    </trkpt>
    <trkpt lat="59.1007804871" lon="30.0250124931">
        <ele>0.0</ele>
        <time>2026-04-25T14:07:44.000Z</time>
    </trkpt>
    <trkpt lat="59.1007804871" lon="30.0250339508">
        <ele>0.0</ele>
        <time>2026-04-25T14:07:49.000Z</time>
    </trkpt>
    <trkpt lat="59.1008019447" lon="30.0250339508">
        <ele>0.0</ele>
        <time>2026-04-25T14:07:52.000Z</time>
    </trkpt>
    <trkpt lat="59.1008019447" lon="30.0250339508">
        <ele>0.0</ele>
        <time>2026-04-25T14:07:54.000Z</time>
    </trkpt>
    <trkpt lat="59.1008019447" lon="30.0250339508">
        <ele>0.0</ele>
        <time>2026-04-25T14:07:57.000Z</time>
    </trkpt>
    <trkpt lat="59.1008019447" lon="30.0250339508">
        <ele>0.0</ele>
        <time>2026-04-25T14:07:59.000Z</time>
    </trkpt>
    <trkpt lat="59.1007804871" lon="30.0250339508">
        <ele>0.0</ele>
        <time>2026-04-25T14:08:02.000Z</time>
    </trkpt>
    <trkpt lat="59.1007590294" lon="30.0250124931">
        <ele>0.0</ele>
        <time>2026-04-25T14:08:04.000Z</time>
    </trkpt>
    <trkpt lat="59.1007375717" lon="30.0250554085">
        <ele>0.0</ele>
        <time>2026-04-25T14:08:07.000Z</time>
    </trkpt>
    <trkpt lat="59.100716114" lon="30.0250554085">
        <ele>0.0</ele>
        <time>2026-04-25T14:08:09.000Z</time>
    </trkpt>
    <trkpt lat="59.1006731987" lon="30.0250554085">
        <ele>0.0</ele>
        <time>2026-04-25T14:08:12.000Z</time>
    </trkpt>
    <trkpt lat="59.1006302834" lon="30.0250339508">
        <ele>0.0</ele>
        <time>2026-04-25T14:08:14.000Z</time>
    </trkpt>
    <trkpt lat="59.1006088257" lon="30.0250124931">
        <ele>0.0</ele>
        <time>2026-04-25T14:08:17.000Z</time>
    </trkpt>
    <trkpt lat="59.1006088257" lon="30.0250339508">
        <ele>0.0</ele>
        <time>2026-04-25T14:08:19.000Z</time>
    </trkpt>
    <trkpt lat="59.1006088257" lon="30.0250124931">
        <ele>0.0</ele>
        <time>2026-04-25T14:08:22.000Z</time>
    </trkpt>
    <trkpt lat="59.1006088257" lon="30.0250124931">
        <ele>0.0</ele>
        <time>2026-04-25T14:08:24.000Z</time>
    </trkpt>
    <trkpt lat="59.1006088257" lon="30.0250124931">
        <ele>0.0</ele>
        <time>2026-04-25T14:08:27.000Z</time>
    </trkpt>
    <trkpt lat="59.100587368" lon="30.0250124931">
        <ele>0.0</ele>
        <time>2026-04-25T14:08:29.000Z</time>
    </trkpt>
    <trkpt lat="59.100587368" lon="30.0250124931">
        <ele>0.0</ele>
        <time>2026-04-25T14:08:32.000Z</time>
    </trkpt>
    <trkpt lat="59.100587368" lon="30.0249910355">
        <ele>0.0</ele>
        <time>2026-04-25T14:08:34.000Z</time>
    </trkpt>
    <trkpt lat="59.1005659103" lon="30.0249910355">
        <ele>0.0</ele>
        <time>2026-04-25T14:08:37.000Z</time>
    </trkpt>
    <trkpt lat="59.1005444527" lon="30.0249910355">
        <ele>0.0</ele>
        <time>2026-04-25T14:08:39.000Z</time>
    </trkpt>
    <trkpt lat="59.1005015373" lon="30.0249910355">
        <ele>0.0</ele>
        <time>2026-04-25T14:08:42.000Z</time>
    </trkpt>
    <trkpt lat="59.1005015373" lon="30.0249910355">
        <ele>0.0</ele>
        <time>2026-04-25T14:08:44.000Z</time>
    </trkpt>
    <trkpt lat="59.1004800797" lon="30.0249910355">
        <ele>0.0</ele>
        <time>2026-04-25T14:08:47.000Z</time>
    </trkpt>
    <trkpt lat="59.100458622" lon="30.0250124931">
        <ele>0.0</ele>
        <time>2026-04-25T14:08:49.000Z</time>
    </trkpt>
    <trkpt lat="59.100458622" lon="30.0250124931">
        <ele>0.0</ele>
        <time>2026-04-25T14:08:52.000Z</time>
    </trkpt>
    <trkpt lat="59.100458622" lon="30.0250124931">
        <ele>0.0</ele>
        <time>2026-04-25T14:08:54.000Z</time>
    </trkpt>
    <trkpt lat="59.100458622" lon="30.0250124931">
        <ele>0.0</ele>
        <time>2026-04-25T14:08:57.000Z</time>
    </trkpt>
    <trkpt lat="59.100458622" lon="30.0250124931">
        <ele>0.0</ele>
        <time>2026-04-25T14:08:59.000Z</time>
    </trkpt>
    <trkpt lat="59.100458622" lon="30.0250124931">
        <ele>0.0</ele>
        <time>2026-04-25T14:09:02.000Z</time>
    </trkpt>
    <trkpt lat="59.100458622" lon="30.0250124931">
        <ele>0.0</ele>
        <time>2026-04-25T14:09:04.000Z</time>
    </trkpt>
    <trkpt lat="59.100458622" lon="30.0250124931">
        <ele>0.0</ele>
        <time>2026-04-25T14:09:07.000Z</time>
    </trkpt>
    <trkpt lat="59.1004371643" lon="30.0249695778">
        <ele>0.0</ele>
        <time>2026-04-25T14:09:09.000Z</time>
    </trkpt>
    <trkpt lat="59.1004157066" lon="30.0249695778">
        <ele>0.0</ele>
        <time>2026-04-25T14:09:12.000Z</time>
    </trkpt>
    <trkpt lat="59.100394249" lon="30.0250124931">
        <ele>0.0</ele>
        <time>2026-04-25T14:09:14.000Z</time>
    </trkpt>
    <trkpt lat="59.1003727913" lon="30.0249910355">
        <ele>0.0</ele>
        <time>2026-04-25T14:09:17.000Z</time>
    </trkpt>
    <trkpt lat="59.1003727913" lon="30.0249695778">
        <ele>0.0</ele>
        <time>2026-04-25T14:09:19.000Z</time>
    </trkpt>
    <trkpt lat="59.1003727913" lon="30.0249910355">
        <ele>0.0</ele>
        <time>2026-04-25T14:09:22.000Z</time>
    </trkpt>
    <trkpt lat="59.1003513336" lon="30.0249910355">
        <ele>0.0</ele>
        <time>2026-04-25T14:09:24.000Z</time>
    </trkpt>
    <trkpt lat="59.1003298759" lon="30.0249695778">
        <ele>0.0</ele>
        <time>2026-04-25T14:09:27.000Z</time>
    </trkpt>
    <trkpt lat="59.1003084183" lon="30.0249481201">
        <ele>0.0</ele>
        <time>2026-04-25T14:09:29.000Z</time>
    </trkpt>
    <trkpt lat="59.1002869606" lon="30.0249481201">
        <ele>0.0</ele>
        <time>2026-04-25T14:09:32.000Z</time>
    </trkpt>
    <trkpt lat="59.1002869606" lon="30.0249481201">
        <ele>0.0</ele>
        <time>2026-04-25T14:09:34.000Z</time>
    </trkpt>
    <trkpt lat="59.1002869606" lon="30.0249266624">
        <ele>0.0</ele>
        <time>2026-04-25T14:09:37.000Z</time>
    </trkpt>
    <trkpt lat="59.1003084183" lon="30.0248837471">
        <ele>0.0</ele>
        <time>2026-04-25T14:09:39.000Z</time>
    </trkpt>
    <trkpt lat="59.1003084183" lon="30.0248622894">
        <ele>0.0</ele>
        <time>2026-04-25T14:09:42.000Z</time>
    </trkpt>
    <trkpt lat="59.1002869606" lon="30.0248622894">
        <ele>0.0</ele>
        <time>2026-04-25T14:09:44.000Z</time>
    </trkpt>
    <trkpt lat="59.1002869606" lon="30.0248622894">
        <ele>0.0</ele>
        <time>2026-04-25T14:09:47.000Z</time>
    </trkpt>
    <trkpt lat="59.1002869606" lon="30.0248193741">
        <ele>0.0</ele>
        <time>2026-04-25T14:09:49.000Z</time>
    </trkpt>
    <trkpt lat="59.1002655029" lon="30.0247979164">
        <ele>0.0</ele>
        <time>2026-04-25T14:09:52.000Z</time>
    </trkpt>
    <trkpt lat="59.1002655029" lon="30.0247979164">
        <ele>0.0</ele>
        <time>2026-04-25T14:09:54.000Z</time>
    </trkpt>
    <trkpt lat="59.1002440453" lon="30.0247979164">
        <ele>0.0</ele>
        <time>2026-04-25T14:09:57.000Z</time>
    </trkpt>
    <trkpt lat="59.1002225876" lon="30.0248408318">
        <ele>0.0</ele>
        <time>2026-04-25T14:09:59.000Z</time>
    </trkpt>
    <trkpt lat="59.1002225876" lon="30.0248408318">
        <ele>0.0</ele>
        <time>2026-04-25T14:10:02.000Z</time>
    </trkpt>
    <trkpt lat="59.1002011299" lon="30.0248622894">
        <ele>0.0</ele>
        <time>2026-04-25T14:10:04.000Z</time>
    </trkpt>
    <trkpt lat="59.1001796722" lon="30.0249266624">
        <ele>0.0</ele>
        <time>2026-04-25T14:10:07.000Z</time>
    </trkpt>
    <trkpt lat="59.1001582146" lon="30.0249481201">
        <ele>0.0</ele>
        <time>2026-04-25T14:10:09.000Z</time>
    </trkpt>
    <trkpt lat="59.1001367569" lon="30.0249481201">
        <ele>0.0</ele>
        <time>2026-04-25T14:10:12.000Z</time>
    </trkpt>
    <trkpt lat="59.1001367569" lon="30.0249052048">
        <ele>0.0</ele>
        <time>2026-04-25T14:10:14.000Z</time>
    </trkpt>
    <trkpt lat="59.1001367569" lon="30.0248837471">
        <ele>0.0</ele>
        <time>2026-04-25T14:10:17.000Z</time>
    </trkpt>
    <trkpt lat="59.1001152992" lon="30.0248622894">
        <ele>0.0</ele>
        <time>2026-04-25T14:10:19.000Z</time>
    </trkpt>
    <trkpt lat="59.1001152992" lon="30.0248837471">
        <ele>0.0</ele>
        <time>2026-04-25T14:10:22.000Z</time>
    </trkpt>
    <trkpt lat="59.1000938416" lon="30.0248622894">
        <ele>0.0</ele>
        <time>2026-04-25T14:10:24.000Z</time>
    </trkpt>
    <trkpt lat="59.1000938416" lon="30.0248837471">
        <ele>0.0</ele>
        <time>2026-04-25T14:10:27.000Z</time>
    </trkpt>
    <trkpt lat="59.1000938416" lon="30.0248622894">
        <ele>0.0</ele>
        <time>2026-04-25T14:10:29.000Z</time>
    </trkpt>
    <trkpt lat="59.1000723839" lon="30.0248622894">
        <ele>0.0</ele>
        <time>2026-04-25T14:10:32.000Z</time>
    </trkpt>
    <trkpt lat="59.1000294685" lon="30.0248408318">
        <ele>0.0</ele>
        <time>2026-04-25T14:10:34.000Z</time>
    </trkpt>
    <trkpt lat="59.1000294685" lon="30.0248408318">
        <ele>0.0</ele>
        <time>2026-04-25T14:10:37.000Z</time>
    </trkpt>
    <trkpt lat="59.1000080109" lon="30.0249052048">
        <ele>0.0</ele>
        <time>2026-04-25T14:10:39.000Z</time>
    </trkpt>
    <trkpt lat="59.1000080109" lon="30.0249481201">
        <ele>0.0</ele>
        <time>2026-04-25T14:10:42.000Z</time>
    </trkpt>
    <trkpt lat="59.0999865532" lon="30.0249481201">
        <ele>0.0</ele>
        <time>2026-04-25T14:10:44.000Z</time>
    </trkpt>
    <trkpt lat="59.0999650955" lon="30.0249481201">
        <ele>0.0</ele>
        <time>2026-04-25T14:10:47.000Z</time>
    </trkpt>
    <trkpt lat="59.0999650955" lon="30.0249481201">
        <ele>0.0</ele>
        <time>2026-04-25T14:10:49.000Z</time>
    </trkpt>
    <trkpt lat="59.0999650955" lon="30.0249481201">
        <ele>0.0</ele>
        <time>2026-04-25T14:10:52.000Z</time>
    </trkpt>
    <trkpt lat="59.0999650955" lon="30.0249481201">
        <ele>0.0</ele>
        <time>2026-04-25T14:10:54.000Z</time>
    </trkpt>
    <trkpt lat="59.0999436378" lon="30.0249695778">
        <ele>0.0</ele>
        <time>2026-04-25T14:10:57.000Z</time>
    </trkpt>
    <trkpt lat="59.0999221802" lon="30.0249695778">
        <ele>0.0</ele>
        <time>2026-04-25T14:10:59.000Z</time>
    </trkpt>
    <trkpt lat="59.0999221802" lon="30.0249481201">
        <ele>0.0</ele>
        <time>2026-04-25T14:11:02.000Z</time>
    </trkpt>
    <trkpt lat="59.0999221802" lon="30.0249910355">
        <ele>0.0</ele>
        <time>2026-04-25T14:11:04.000Z</time>
    </trkpt>
    <trkpt lat="59.0999221802" lon="30.0249910355">
        <ele>0.0</ele>
        <time>2026-04-25T14:11:07.000Z</time>
    </trkpt>
    <trkpt lat="59.0999221802" lon="30.0249910355">
        <ele>0.0</ele>
        <time>2026-04-25T14:11:09.000Z</time>
    </trkpt>
    <trkpt lat="59.0999221802" lon="30.0249910355">
        <ele>0.0</ele>
        <time>2026-04-25T14:11:12.000Z</time>
    </trkpt>
    <trkpt lat="59.0999221802" lon="30.0249910355">
        <ele>0.0</ele>
        <time>2026-04-25T14:11:14.000Z</time>
    </trkpt>
    <trkpt lat="59.0999007225" lon="30.0250339508">
        <ele>0.0</ele>
        <time>2026-04-25T14:11:17.000Z</time>
    </trkpt>
    <trkpt lat="59.0998792648" lon="30.0250339508">
        <ele>0.0</ele>
        <time>2026-04-25T14:11:19.000Z</time>
    </trkpt>
    <trkpt lat="59.0998792648" lon="30.0250339508">
        <ele>0.0</ele>
        <time>2026-04-25T14:11:22.000Z</time>
    </trkpt>
    <trkpt lat="59.0998578072" lon="30.0249910355">
        <ele>0.0</ele>
        <time>2026-04-25T14:11:24.000Z</time>
    </trkpt>
    <trkpt lat="59.0998578072" lon="30.0249910355">
        <ele>0.0</ele>
        <time>2026-04-25T14:11:27.000Z</time>
    </trkpt>
    <trkpt lat="59.0998578072" lon="30.0249910355">
        <ele>0.0</ele>
        <time>2026-04-25T14:11:29.000Z</time>
    </trkpt>
    <trkpt lat="59.0998578072" lon="30.0250124931">
        <ele>0.0</ele>
        <time>2026-04-25T14:11:32.000Z</time>
    </trkpt>
    <trkpt lat="59.0998578072" lon="30.0250124931">
        <ele>0.0</ele>
        <time>2026-04-25T14:11:34.000Z</time>
    </trkpt>
    <trkpt lat="59.0998363495" lon="30.0250339508">
        <ele>0.0</ele>
        <time>2026-04-25T14:11:37.000Z</time>
    </trkpt>
    <trkpt lat="59.0998148918" lon="30.0250124931">
        <ele>0.0</ele>
        <time>2026-04-25T14:11:39.000Z</time>
    </trkpt>
    <trkpt lat="59.0998148918" lon="30.0250124931">
        <ele>0.0</ele>
        <time>2026-04-25T14:11:42.000Z</time>
    </trkpt>
    <trkpt lat="59.0998148918" lon="30.0250124931">
        <ele>0.0</ele>
        <time>2026-04-25T14:11:44.000Z</time>
    </trkpt>
    <trkpt lat="59.0998148918" lon="30.0250124931">
        <ele>0.0</ele>
        <time>2026-04-25T14:11:47.000Z</time>
    </trkpt>
    <trkpt lat="59.0998148918" lon="30.0250124931">
        <ele>0.0</ele>
        <time>2026-04-25T14:11:49.000Z</time>
    </trkpt>
    <trkpt lat="59.0998148918" lon="30.0250124931">
        <ele>0.0</ele>
        <time>2026-04-25T14:11:52.000Z</time>
    </trkpt>
    <trkpt lat="59.0998148918" lon="30.0250124931">
        <ele>0.0</ele>
        <time>2026-04-25T14:11:54.000Z</time>
    </trkpt>
    <trkpt lat="59.0998148918" lon="30.0250124931">
        <ele>0.0</ele>
        <time>2026-04-25T14:11:57.000Z</time>
    </trkpt>
    <trkpt lat="59.0998148918" lon="30.0250124931">
        <ele>0.0</ele>
        <time>2026-04-25T14:11:59.000Z</time>
    </trkpt>
    <trkpt lat="59.0998148918" lon="30.0250124931">
        <ele>0.0</ele>
        <time>2026-04-25T14:12:02.000Z</time>
    </trkpt>
    <trkpt lat="59.0998148918" lon="30.0250124931">
        <ele>0.0</ele>
        <time>2026-04-25T14:12:04.000Z</time>
    </trkpt>
    <trkpt lat="59.0998148918" lon="30.0250124931">
        <ele>0.0</ele>
        <time>2026-04-25T14:12:07.000Z</time>
    </trkpt>
    <trkpt lat="59.0998148918" lon="30.0250124931">
        <ele>0.0</ele>
        <time>2026-04-25T14:12:09.000Z</time>
    </trkpt>
    <trkpt lat="59.0998148918" lon="30.0250124931">
        <ele>0.0</ele>
        <time>2026-04-25T14:12:12.000Z</time>
    </trkpt>
    <trkpt lat="59.0998148918" lon="30.0250124931">
        <ele>0.0</ele>
        <time>2026-04-25T14:12:14.000Z</time>
    </trkpt>
    <trkpt lat="59.0998148918" lon="30.0250124931">
        <ele>0.0</ele>
        <time>2026-04-25T14:12:17.000Z</time>
    </trkpt>
    <trkpt lat="59.0998148918" lon="30.0250124931">
        <ele>0.0</ele>
        <time>2026-04-25T14:12:19.000Z</time>
    </trkpt>
    <trkpt lat="59.0998148918" lon="30.0250124931">
        <ele>0.0</ele>
        <time>2026-04-25T14:12:22.000Z</time>
    </trkpt>
    <trkpt lat="59.0998148918" lon="30.0250124931">
        <ele>0.0</ele>
        <time>2026-04-25T14:12:24.000Z</time>
    </trkpt>
    <trkpt lat="59.0998148918" lon="30.0250124931">
        <ele>0.0</ele>
        <time>2026-04-25T14:12:27.000Z</time>
    </trkpt>
    <trkpt lat="59.0998148918" lon="30.0250124931">
        <ele>0.0</ele>
        <time>2026-04-25T14:12:29.000Z</time>
    </trkpt>
    <trkpt lat="59.0998148918" lon="30.0250124931">
        <ele>0.0</ele>
        <time>2026-04-25T14:12:32.000Z</time>
    </trkpt>
    <trkpt lat="59.0998148918" lon="30.0250124931">
        <ele>0.0</ele>
        <time>2026-04-25T14:12:34.000Z</time>
    </trkpt>
    <trkpt lat="59.0998148918" lon="30.0250124931">
        <ele>0.0</ele>
        <time>2026-04-25T14:12:37.000Z</time>
    </trkpt>
    <trkpt lat="59.0998148918" lon="30.0250124931">
        <ele>0.0</ele>
        <time>2026-04-25T14:12:39.000Z</time>
    </trkpt>
    <trkpt lat="59.0998148918" lon="30.0250124931">
        <ele>0.0</ele>
        <time>2026-04-25T14:12:42.000Z</time>
    </trkpt>
    <trkpt lat="59.0998148918" lon="30.0250124931">
        <ele>0.0</ele>
        <time>2026-04-25T14:12:44.000Z</time>
    </trkpt>
    <trkpt lat="59.0998148918" lon="30.0250124931">
        <ele>0.0</ele>
        <time>2026-04-25T14:12:47.000Z</time>
    </trkpt>
    <trkpt lat="59.0998148918" lon="30.0250124931">
        <ele>0.0</ele>
        <time>2026-04-25T14:12:49.000Z</time>
    </trkpt>
    <trkpt lat="59.0998148918" lon="30.0250124931">
        <ele>0.0</ele>
        <time>2026-04-25T14:12:52.000Z</time>
    </trkpt>
    <trkpt lat="59.0998148918" lon="30.0250124931">
        <ele>0.0</ele>
        <time>2026-04-25T14:12:54.000Z</time>
    </trkpt>
    <trkpt lat="59.0998148918" lon="30.0250124931">
        <ele>0.0</ele>
        <time>2026-04-25T14:12:57.000Z</time>
    </trkpt>
    <trkpt lat="59.0998148918" lon="30.0250124931">
        <ele>0.0</ele>
        <time>2026-04-25T14:12:59.000Z</time>
    </trkpt>
    <trkpt lat="59.0998148918" lon="30.0250124931">
        <ele>0.0</ele>
        <time>2026-04-25T14:13:02.000Z</time>
    </trkpt>
    <trkpt lat="59.0998148918" lon="30.0250124931">
        <ele>0.0</ele>
        <time>2026-04-25T14:13:04.000Z</time>
    </trkpt>
    <trkpt lat="59.0998148918" lon="30.0250124931">
        <ele>0.0</ele>
        <time>2026-04-25T14:13:07.000Z</time>
    </trkpt>
    <trkpt lat="59.0998148918" lon="30.0250124931">
        <ele>0.0</ele>
        <time>2026-04-25T14:13:09.000Z</time>
    </trkpt>
    <trkpt lat="59.0998148918" lon="30.0250124931">
        <ele>0.0</ele>
        <time>2026-04-25T14:13:12.000Z</time>
    </trkpt>
    <trkpt lat="59.0998148918" lon="30.0250124931">
        <ele>0.0</ele>
        <time>2026-04-25T14:13:14.000Z</time>
    </trkpt>
    <trkpt lat="59.0998148918" lon="30.0250124931">
        <ele>0.0</ele>
        <time>2026-04-25T14:13:17.000Z</time>
    </trkpt>
    <trkpt lat="59.0998148918" lon="30.0250124931">
        <ele>0.0</ele>
        <time>2026-04-25T14:13:19.000Z</time>
    </trkpt>
    <trkpt lat="59.0998148918" lon="30.0250124931">
        <ele>0.0</ele>
        <time>2026-04-25T14:13:22.000Z</time>
    </trkpt>
    <trkpt lat="59.0998148918" lon="30.0250124931">
        <ele>0.0</ele>
        <time>2026-04-25T14:13:24.000Z</time>
    </trkpt>
    <trkpt lat="59.0998148918" lon="30.0250124931">
        <ele>0.0</ele>
        <time>2026-04-25T14:13:27.000Z</time>
    </trkpt>
    <trkpt lat="59.0998148918" lon="30.0250124931">
        <ele>0.0</ele>
        <time>2026-04-25T14:13:29.000Z</time>
    </trkpt>
    <trkpt lat="59.0998148918" lon="30.0250124931">
        <ele>0.0</ele>
        <time>2026-04-25T14:13:32.000Z</time>
    </trkpt>
    <trkpt lat="59.0998148918" lon="30.0250124931">
        <ele>0.0</ele>
        <time>2026-04-25T14:13:34.000Z</time>
    </trkpt>
    <trkpt lat="59.0998148918" lon="30.0250124931">
        <ele>0.0</ele>
        <time>2026-04-25T14:13:37.000Z</time>
    </trkpt>
    <trkpt lat="59.0998148918" lon="30.0250124931">
        <ele>0.0</ele>
        <time>2026-04-25T14:13:39.000Z</time>
    </trkpt>
    <trkpt lat="59.0998148918" lon="30.0250124931">
        <ele>0.0</ele>
        <time>2026-04-25T14:13:42.000Z</time>
    </trkpt>
    <trkpt lat="59.0998148918" lon="30.0250124931">
        <ele>0.0</ele>
        <time>2026-04-25T14:13:44.000Z</time>
    </trkpt>
    <trkpt lat="59.0998148918" lon="30.0250124931">
        <ele>0.0</ele>
        <time>2026-04-25T14:13:47.000Z</time>
    </trkpt>
    <trkpt lat="59.0998148918" lon="30.0250124931">
        <ele>0.0</ele>
        <time>2026-04-25T14:13:49.000Z</time>
    </trkpt>
    <trkpt lat="59.0998148918" lon="30.0250124931">
        <ele>0.0</ele>
        <time>2026-04-25T14:13:52.000Z</time>
    </trkpt>
    <trkpt lat="59.0998363495" lon="30.0250124931">
        <ele>0.0</ele>
        <time>2026-04-25T14:13:54.000Z</time>
    </trkpt>
    <trkpt lat="59.0998363495" lon="30.0250124931">
        <ele>0.0</ele>
        <time>2026-04-25T14:13:57.000Z</time>
    </trkpt>
    <trkpt lat="59.0998578072" lon="30.0249910355">
        <ele>0.0</ele>
        <time>2026-04-25T14:13:59.000Z</time>
    </trkpt>
    <trkpt lat="59.0998578072" lon="30.0249910355">
        <ele>0.0</ele>
        <time>2026-04-25T14:14:02.000Z</time>
    </trkpt>
    <trkpt lat="59.0998578072" lon="30.0250124931">
        <ele>0.0</ele>
        <time>2026-04-25T14:14:04.000Z</time>
    </trkpt>
    <trkpt lat="59.0998578072" lon="30.0250339508">
        <ele>0.0</ele>
        <time>2026-04-25T14:14:07.000Z</time>
    </trkpt>
    <trkpt lat="59.0998578072" lon="30.0250339508">
        <ele>0.0</ele>
        <time>2026-04-25T14:14:09.000Z</time>
    </trkpt>
    <trkpt lat="59.0998578072" lon="30.0250339508">
        <ele>0.0</ele>
        <time>2026-04-25T14:14:12.000Z</time>
    </trkpt>
    <trkpt lat="59.0998363495" lon="30.0250554085">
        <ele>0.0</ele>
        <time>2026-04-25T14:14:14.000Z</time>
    </trkpt>
    <trkpt lat="59.0998363495" lon="30.0250554085">
        <ele>0.0</ele>
        <time>2026-04-25T14:14:17.000Z</time>
    </trkpt>
    <trkpt lat="59.0998148918" lon="30.0250554085">
        <ele>0.0</ele>
        <time>2026-04-25T14:14:19.000Z</time>
    </trkpt>
    <trkpt lat="59.0997934341" lon="30.0250768661">
        <ele>0.0</ele>
        <time>2026-04-25T14:14:22.000Z</time>
    </trkpt>
    <trkpt lat="59.0997719765" lon="30.0250768661">
        <ele>0.0</ele>
        <time>2026-04-25T14:14:24.000Z</time>
    </trkpt>
    <trkpt lat="59.0997719765" lon="30.0250768661">
        <ele>0.0</ele>
        <time>2026-04-25T14:14:27.000Z</time>
    </trkpt>
    <trkpt lat="59.0997505188" lon="30.0250983238">
        <ele>0.0</ele>
        <time>2026-04-25T14:14:29.000Z</time>
    </trkpt>
    <trkpt lat="59.0997505188" lon="30.0251197815">
        <ele>0.0</ele>
        <time>2026-04-25T14:14:32.000Z</time>
    </trkpt>
    <trkpt lat="59.0997290611" lon="30.0251412392">
        <ele>0.0</ele>
        <time>2026-04-25T14:14:34.000Z</time>
    </trkpt>
    <trkpt lat="59.0997290611" lon="30.0251412392">
        <ele>0.0</ele>
        <time>2026-04-25T14:14:37.000Z</time>
    </trkpt>
    <trkpt lat="59.0997290611" lon="30.0251412392">
        <ele>0.0</ele>
        <time>2026-04-25T14:14:39.000Z</time>
    </trkpt>
    <trkpt lat="59.0997076035" lon="30.0251197815">
        <ele>0.0</ele>
        <time>2026-04-25T14:14:42.000Z</time>
    </trkpt>
    <trkpt lat="59.0997076035" lon="30.0251412392">
        <ele>0.0</ele>
        <time>2026-04-25T14:14:44.000Z</time>
    </trkpt>
    <trkpt lat="59.0996861458" lon="30.0251626968">
        <ele>0.0</ele>
        <time>2026-04-25T14:14:47.000Z</time>
    </trkpt>
    <trkpt lat="59.0996646881" lon="30.0252056122">
        <ele>0.0</ele>
        <time>2026-04-25T14:14:49.000Z</time>
    </trkpt>
    <trkpt lat="59.0996646881" lon="30.0252056122">
        <ele>0.0</ele>
        <time>2026-04-25T14:14:52.000Z</time>
    </trkpt>
    <trkpt lat="59.0996646881" lon="30.0251841545">
        <ele>0.0</ele>
        <time>2026-04-25T14:14:54.000Z</time>
    </trkpt>
    <trkpt lat="59.0996646881" lon="30.0251626968">
        <ele>0.0</ele>
        <time>2026-04-25T14:14:57.000Z</time>
    </trkpt>
    <trkpt lat="59.0996861458" lon="30.0251841545">
        <ele>0.0</ele>
        <time>2026-04-25T14:14:59.000Z</time>
    </trkpt>
    <trkpt lat="59.0996861458" lon="30.0252056122">
        <ele>0.0</ele>
        <time>2026-04-25T14:15:02.000Z</time>
    </trkpt>
    <trkpt lat="59.0997076035" lon="30.0252056122">
        <ele>0.0</ele>
        <time>2026-04-25T14:15:04.000Z</time>
    </trkpt>
    <trkpt lat="59.0997076035" lon="30.0252056122">
        <ele>0.0</ele>
        <time>2026-04-25T14:15:07.000Z</time>
    </trkpt>
    <trkpt lat="59.0997076035" lon="30.0251626968">
        <ele>0.0</ele>
        <time>2026-04-25T14:15:09.000Z</time>
    </trkpt>
    <trkpt lat="59.0997290611" lon="30.0251412392">
        <ele>0.0</ele>
        <time>2026-04-25T14:15:12.000Z</time>
    </trkpt>
    <trkpt lat="59.0997290611" lon="30.0251412392">
        <ele>0.0</ele>
        <time>2026-04-25T14:15:14.000Z</time>
    </trkpt>
    <trkpt lat="59.0997290611" lon="30.0251412392">
        <ele>0.0</ele>
        <time>2026-04-25T14:15:17.000Z</time>
    </trkpt>
    <trkpt lat="59.0997290611" lon="30.0251412392">
        <ele>0.0</ele>
        <time>2026-04-25T14:15:19.000Z</time>
    </trkpt>
    <trkpt lat="59.0997290611" lon="30.0251412392">
        <ele>0.0</ele>
        <time>2026-04-25T14:15:22.000Z</time>
    </trkpt>
    <trkpt lat="59.0997076035" lon="30.0251841545">
        <ele>0.0</ele>
        <time>2026-04-25T14:15:24.000Z</time>
    </trkpt>
    <trkpt lat="59.0997076035" lon="30.0252485275">
        <ele>0.0</ele>
        <time>2026-04-25T14:15:27.000Z</time>
    </trkpt>
    <trkpt lat="59.0997076035" lon="30.0252914429">
        <ele>0.0</ele>
        <time>2026-04-25T14:15:29.000Z</time>
    </trkpt>
    <trkpt lat="59.0997076035" lon="30.0253129005">
        <ele>0.0</ele>
        <time>2026-04-25T14:15:32.000Z</time>
    </trkpt>
    <trkpt lat="59.0997076035" lon="30.0253129005">
        <ele>0.0</ele>
        <time>2026-04-25T14:15:34.000Z</time>
    </trkpt>
    <trkpt lat="59.0997076035" lon="30.0253129005">
        <ele>0.0</ele>
        <time>2026-04-25T14:15:37.000Z</time>
    </trkpt>
    <trkpt lat="59.0997290611" lon="30.0253343582">
        <ele>0.0</ele>
        <time>2026-04-25T14:15:39.000Z</time>
    </trkpt>
    <trkpt lat="59.0997290611" lon="30.0253558159">
        <ele>0.0</ele>
        <time>2026-04-25T14:15:42.000Z</time>
    </trkpt>
    <trkpt lat="59.0997290611" lon="30.0253772736">
        <ele>0.0</ele>
        <time>2026-04-25T14:15:44.000Z</time>
    </trkpt>
    <trkpt lat="59.0997290611" lon="30.0253772736">
        <ele>0.0</ele>
        <time>2026-04-25T14:15:47.000Z</time>
    </trkpt>
    <trkpt lat="59.0997290611" lon="30.0253772736">
        <ele>0.0</ele>
        <time>2026-04-25T14:15:49.000Z</time>
    </trkpt>
    <trkpt lat="59.0997290611" lon="30.0253772736">
        <ele>0.0</ele>
        <time>2026-04-25T14:15:52.000Z</time>
    </trkpt>
    <trkpt lat="59.0997505188" lon="30.0253987312">
        <ele>0.0</ele>
        <time>2026-04-25T14:15:54.000Z</time>
    </trkpt>
    <trkpt lat="59.0997505188" lon="30.0254201889">
        <ele>0.0</ele>
        <time>2026-04-25T14:15:57.000Z</time>
    </trkpt>
    <trkpt lat="59.0997719765" lon="30.0253987312">
        <ele>0.0</ele>
        <time>2026-04-25T14:16:02.000Z</time>
    </trkpt>
    <trkpt lat="59.0997719765" lon="30.0254201889">
        <ele>0.0</ele>
        <time>2026-04-25T14:16:04.000Z</time>
    </trkpt>
    <trkpt lat="59.0997934341" lon="30.0254416466">
        <ele>0.0</ele>
        <time>2026-04-25T14:16:07.000Z</time>
    </trkpt>
    <trkpt lat="59.0997934341" lon="30.0254845619">
        <ele>0.0</ele>
        <time>2026-04-25T14:16:09.000Z</time>
    </trkpt>
    <trkpt lat="59.0997934341" lon="30.0254845619">
        <ele>0.0</ele>
        <time>2026-04-25T14:16:12.000Z</time>
    </trkpt>
    <trkpt lat="59.0997934341" lon="30.0254631042">
        <ele>0.0</ele>
        <time>2026-04-25T14:16:14.000Z</time>
    </trkpt>
    <trkpt lat="59.0997934341" lon="30.0254631042">
        <ele>0.0</ele>
        <time>2026-04-25T14:16:17.000Z</time>
    </trkpt>
    <trkpt lat="59.0998148918" lon="30.0254631042">
        <ele>0.0</ele>
        <time>2026-04-25T14:16:19.000Z</time>
    </trkpt>
    <trkpt lat="59.0998148918" lon="30.0254631042">
        <ele>0.0</ele>
        <time>2026-04-25T14:16:22.000Z</time>
    </trkpt>
    <trkpt lat="59.0998148918" lon="30.0254631042">
        <ele>0.0</ele>
        <time>2026-04-25T14:16:24.000Z</time>
    </trkpt>
    <trkpt lat="59.0998148918" lon="30.0254631042">
        <ele>0.0</ele>
        <time>2026-04-25T14:16:27.000Z</time>
    </trkpt>
    <trkpt lat="59.0998148918" lon="30.0254631042">
        <ele>0.0</ele>
        <time>2026-04-25T14:16:29.000Z</time>
    </trkpt>
    <trkpt lat="59.0998363495" lon="30.0254631042">
        <ele>0.0</ele>
        <time>2026-04-25T14:16:32.000Z</time>
    </trkpt>
    <trkpt lat="59.0998792648" lon="30.0254416466">
        <ele>0.0</ele>
        <time>2026-04-25T14:16:34.000Z</time>
    </trkpt>
    <trkpt lat="59.0999007225" lon="30.0254201889">
        <ele>0.0</ele>
        <time>2026-04-25T14:16:37.000Z</time>
    </trkpt>
    <trkpt lat="59.0999221802" lon="30.0254201889">
        <ele>0.0</ele>
        <time>2026-04-25T14:16:39.000Z</time>
    </trkpt>
    <trkpt lat="59.0999221802" lon="30.0253987312">
        <ele>0.0</ele>
        <time>2026-04-25T14:16:42.000Z</time>
    </trkpt>
    <trkpt lat="59.0999221802" lon="30.0253772736">
        <ele>0.0</ele>
        <time>2026-04-25T14:16:44.000Z</time>
    </trkpt>
    <trkpt lat="59.0999221802" lon="30.0253772736">
        <ele>0.0</ele>
        <time>2026-04-25T14:16:47.000Z</time>
    </trkpt>
    <trkpt lat="59.0999007225" lon="30.0253987312">
        <ele>0.0</ele>
        <time>2026-04-25T14:16:49.000Z</time>
    </trkpt>
    <trkpt lat="59.0998792648" lon="30.0254201889">
        <ele>0.0</ele>
        <time>2026-04-25T14:16:52.000Z</time>
    </trkpt>
    <trkpt lat="59.0998578072" lon="30.0254416466">
        <ele>0.0</ele>
        <time>2026-04-25T14:16:54.000Z</time>
    </trkpt>
    <trkpt lat="59.0998363495" lon="30.0254631042">
        <ele>0.0</ele>
        <time>2026-04-25T14:16:57.000Z</time>
    </trkpt>
    <trkpt lat="59.0998363495" lon="30.0255060196">
        <ele>0.0</ele>
        <time>2026-04-25T14:16:59.000Z</time>
    </trkpt>
    <trkpt lat="59.0998148918" lon="30.0255489349">
        <ele>0.0</ele>
        <time>2026-04-25T14:17:02.000Z</time>
    </trkpt>
    <trkpt lat="59.0998148918" lon="30.0255703926">
        <ele>0.0</ele>
        <time>2026-04-25T14:17:04.000Z</time>
    </trkpt>
    <trkpt lat="59.0997934341" lon="30.0255918503">
        <ele>0.0</ele>
        <time>2026-04-25T14:17:07.000Z</time>
    </trkpt>
    <trkpt lat="59.0997934341" lon="30.0256347656">
        <ele>0.0</ele>
        <time>2026-04-25T14:17:09.000Z</time>
    </trkpt>
    <trkpt lat="59.0997934341" lon="30.025677681">
        <ele>0.0</ele>
        <time>2026-04-25T14:17:12.000Z</time>
    </trkpt>
    <trkpt lat="59.0997719765" lon="30.0256991386">
        <ele>0.0</ele>
        <time>2026-04-25T14:17:14.000Z</time>
    </trkpt>
    <trkpt lat="59.0997719765" lon="30.0256991386">
        <ele>0.0</ele>
        <time>2026-04-25T14:17:17.000Z</time>
    </trkpt>
    <trkpt lat="59.0997505188" lon="30.0256991386">
        <ele>0.0</ele>
        <time>2026-04-25T14:17:19.000Z</time>
    </trkpt>
    <trkpt lat="59.0997290611" lon="30.0256991386">
        <ele>0.0</ele>
        <time>2026-04-25T14:17:22.000Z</time>
    </trkpt>
    <trkpt lat="59.0996861458" lon="30.0257205963">
        <ele>0.0</ele>
        <time>2026-04-25T14:17:24.000Z</time>
    </trkpt>
    <trkpt lat="59.0996861458" lon="30.0257635117">
        <ele>0.0</ele>
        <time>2026-04-25T14:17:27.000Z</time>
    </trkpt>
    <trkpt lat="59.0996861458" lon="30.025806427">
        <ele>0.0</ele>
        <time>2026-04-25T14:17:29.000Z</time>
    </trkpt>
    <trkpt lat="59.0996861458" lon="30.0258493423">
        <ele>0.0</ele>
        <time>2026-04-25T14:17:32.000Z</time>
    </trkpt>
    <trkpt lat="59.0996646881" lon="30.0258922577">
        <ele>0.0</ele>
        <time>2026-04-25T14:17:34.000Z</time>
    </trkpt>
    <trkpt lat="59.0996646881" lon="30.0259137154">
        <ele>0.0</ele>
        <time>2026-04-25T14:17:37.000Z</time>
    </trkpt>
    <trkpt lat="59.0996432304" lon="30.0259566307">
        <ele>0.0</ele>
        <time>2026-04-25T14:17:39.000Z</time>
    </trkpt>
    <trkpt lat="59.0996217728" lon="30.025935173">
        <ele>0.0</ele>
        <time>2026-04-25T14:17:42.000Z</time>
    </trkpt>
    <trkpt lat="59.0996217728" lon="30.0258922577">
        <ele>0.0</ele>
        <time>2026-04-25T14:17:44.000Z</time>
    </trkpt>
    <trkpt lat="59.0996217728" lon="30.0258922577">
        <ele>0.0</ele>
        <time>2026-04-25T14:17:47.000Z</time>
    </trkpt>
    <trkpt lat="59.0995788574" lon="30.025935173">
        <ele>0.0</ele>
        <time>2026-04-25T14:17:49.000Z</time>
    </trkpt>
    <trkpt lat="59.0995788574" lon="30.025935173">
        <ele>0.0</ele>
        <time>2026-04-25T14:17:52.000Z</time>
    </trkpt>
    <trkpt lat="59.0995573997" lon="30.0260210037">
        <ele>0.0</ele>
        <time>2026-04-25T14:17:54.000Z</time>
    </trkpt>
    <trkpt lat="59.0995359421" lon="30.0260424614">
        <ele>0.0</ele>
        <time>2026-04-25T14:17:57.000Z</time>
    </trkpt>
    <trkpt lat="59.0995573997" lon="30.0261068344">
        <ele>0.0</ele>
        <time>2026-04-25T14:17:59.000Z</time>
    </trkpt>
    <trkpt lat="59.0995573997" lon="30.0261068344">
        <ele>0.0</ele>
        <time>2026-04-25T14:18:02.000Z</time>
    </trkpt>
    <trkpt lat="59.0995573997" lon="30.0261497498">
        <ele>0.0</ele>
        <time>2026-04-25T14:18:04.000Z</time>
    </trkpt>
    <trkpt lat="59.0995573997" lon="30.0261497498">
        <ele>0.0</ele>
        <time>2026-04-25T14:18:07.000Z</time>
    </trkpt>
    <trkpt lat="59.0995573997" lon="30.0261712074">
        <ele>0.0</ele>
        <time>2026-04-25T14:18:09.000Z</time>
    </trkpt>
    <trkpt lat="59.0996003151" lon="30.0262141228">
        <ele>0.0</ele>
        <time>2026-04-25T14:18:12.000Z</time>
    </trkpt>
    <trkpt lat="59.0996003151" lon="30.0262570381">
        <ele>0.0</ele>
        <time>2026-04-25T14:18:14.000Z</time>
    </trkpt>
    <trkpt lat="59.0996003151" lon="30.0262570381">
        <ele>0.0</ele>
        <time>2026-04-25T14:18:17.000Z</time>
    </trkpt>
    <trkpt lat="59.0995788574" lon="30.0262570381">
        <ele>0.0</ele>
        <time>2026-04-25T14:18:19.000Z</time>
    </trkpt>
    <trkpt lat="59.0995788574" lon="30.0262570381">
        <ele>0.0</ele>
        <time>2026-04-25T14:18:22.000Z</time>
    </trkpt>
    <trkpt lat="59.0995788574" lon="30.0262570381">
        <ele>0.0</ele>
        <time>2026-04-25T14:18:24.000Z</time>
    </trkpt>
    <trkpt lat="59.0995359421" lon="30.0262355804">
        <ele>0.0</ele>
        <time>2026-04-25T14:18:27.000Z</time>
    </trkpt>
    <trkpt lat="59.0994715691" lon="30.0262570381">
        <ele>0.0</ele>
        <time>2026-04-25T14:18:29.000Z</time>
    </trkpt>
    <trkpt lat="59.0994501114" lon="30.0262784958">
        <ele>0.0</ele>
        <time>2026-04-25T14:18:32.000Z</time>
    </trkpt>
    <trkpt lat="59.0994286537" lon="30.0263428688">
        <ele>0.0</ele>
        <time>2026-04-25T14:18:34.000Z</time>
    </trkpt>
    <trkpt lat="59.0994286537" lon="30.0263428688">
        <ele>0.0</ele>
        <time>2026-04-25T14:18:37.000Z</time>
    </trkpt>
    <trkpt lat="59.099407196" lon="30.0263643265">
        <ele>0.0</ele>
        <time>2026-04-25T14:18:39.000Z</time>
    </trkpt>
    <trkpt lat="59.099407196" lon="30.0263643265">
        <ele>0.0</ele>
        <time>2026-04-25T14:18:42.000Z</time>
    </trkpt>
    <trkpt lat="59.099407196" lon="30.0263643265">
        <ele>0.0</ele>
        <time>2026-04-25T14:18:44.000Z</time>
    </trkpt>
    <trkpt lat="59.0993857384" lon="30.0263643265">
        <ele>0.0</ele>
        <time>2026-04-25T14:18:47.000Z</time>
    </trkpt>
    <trkpt lat="59.0993857384" lon="30.0263643265">
        <ele>0.0</ele>
        <time>2026-04-25T14:18:49.000Z</time>
    </trkpt>
    <trkpt lat="59.0993857384" lon="30.0263643265">
        <ele>0.0</ele>
        <time>2026-04-25T14:18:52.000Z</time>
    </trkpt>
    <trkpt lat="59.0993857384" lon="30.0263643265">
        <ele>0.0</ele>
        <time>2026-04-25T14:18:54.000Z</time>
    </trkpt>
    <trkpt lat="59.0993642807" lon="30.0263643265">
        <ele>0.0</ele>
        <time>2026-04-25T14:18:57.000Z</time>
    </trkpt>
    <trkpt lat="59.0993642807" lon="30.0263643265">
        <ele>0.0</ele>
        <time>2026-04-25T14:18:59.000Z</time>
    </trkpt>
    <trkpt lat="59.0993642807" lon="30.0263643265">
        <ele>0.0</ele>
        <time>2026-04-25T14:19:02.000Z</time>
    </trkpt>
    <trkpt lat="59.0993857384" lon="30.0263643265">
        <ele>0.0</ele>
        <time>2026-04-25T14:19:04.000Z</time>
    </trkpt>
    <trkpt lat="59.0994501114" lon="30.0264072418">
        <ele>0.0</ele>
        <time>2026-04-25T14:19:07.000Z</time>
    </trkpt>
    <trkpt lat="59.0995144844" lon="30.0263857841">
        <ele>0.0</ele>
        <time>2026-04-25T14:19:09.000Z</time>
    </trkpt>
    <trkpt lat="59.0995359421" lon="30.0264072418">
        <ele>0.0</ele>
        <time>2026-04-25T14:19:12.000Z</time>
    </trkpt>
    <trkpt lat="59.0995144844" lon="30.0264716148">
        <ele>0.0</ele>
        <time>2026-04-25T14:19:14.000Z</time>
    </trkpt>
    <trkpt lat="59.0995144844" lon="30.0265359879">
        <ele>0.0</ele>
        <time>2026-04-25T14:19:17.000Z</time>
    </trkpt>
    <trkpt lat="59.0994930267" lon="30.0266003609">
        <ele>0.0</ele>
        <time>2026-04-25T14:19:19.000Z</time>
    </trkpt>
    <trkpt lat="59.0994930267" lon="30.0266647339">
        <ele>0.0</ele>
        <time>2026-04-25T14:19:22.000Z</time>
    </trkpt>
    <trkpt lat="59.0994930267" lon="30.0267291069">
        <ele>0.0</ele>
        <time>2026-04-25T14:19:24.000Z</time>
    </trkpt>
    <trkpt lat="59.0995144844" lon="30.0267720222">
        <ele>0.0</ele>
        <time>2026-04-25T14:19:27.000Z</time>
    </trkpt>
    <trkpt lat="59.0995359421" lon="30.0267934799">
        <ele>0.0</ele>
        <time>2026-04-25T14:19:29.000Z</time>
    </trkpt>
    <trkpt lat="59.0995788574" lon="30.0268578529">
        <ele>0.0</ele>
        <time>2026-04-25T14:19:32.000Z</time>
    </trkpt>
    <trkpt lat="59.0996003151" lon="30.026922226">
        <ele>0.0</ele>
        <time>2026-04-25T14:19:34.000Z</time>
    </trkpt>
    <trkpt lat="59.0996432304" lon="30.0269651413">
        <ele>0.0</ele>
        <time>2026-04-25T14:19:37.000Z</time>
    </trkpt>
    <trkpt lat="59.0996861458" lon="30.0270080566">
        <ele>0.0</ele>
        <time>2026-04-25T14:19:39.000Z</time>
    </trkpt>
    <trkpt lat="59.0997076035" lon="30.027050972">
        <ele>0.0</ele>
        <time>2026-04-25T14:19:42.000Z</time>
    </trkpt>
    <trkpt lat="59.0997076035" lon="30.0270724297">
        <ele>0.0</ele>
        <time>2026-04-25T14:19:44.000Z</time>
    </trkpt>
    <trkpt lat="59.0997076035" lon="30.0270724297">
        <ele>0.0</ele>
        <time>2026-04-25T14:19:47.000Z</time>
    </trkpt>
    <trkpt lat="59.0997076035" lon="30.0270938873">
        <ele>0.0</ele>
        <time>2026-04-25T14:19:49.000Z</time>
    </trkpt>
    <trkpt lat="59.0997290611" lon="30.0270938873">
        <ele>0.0</ele>
        <time>2026-04-25T14:19:52.000Z</time>
    </trkpt>
    <trkpt lat="59.0997076035" lon="30.0271368027">
        <ele>0.0</ele>
        <time>2026-04-25T14:19:54.000Z</time>
    </trkpt>
    <trkpt lat="59.0996861458" lon="30.0271582603">
        <ele>0.0</ele>
        <time>2026-04-25T14:19:57.000Z</time>
    </trkpt>
    <trkpt lat="59.0996432304" lon="30.0272011757">
        <ele>0.0</ele>
        <time>2026-04-25T14:19:59.000Z</time>
    </trkpt>
    <trkpt lat="59.0996217728" lon="30.0272226334">
        <ele>0.0</ele>
        <time>2026-04-25T14:20:02.000Z</time>
    </trkpt>
    <trkpt lat="59.0996217728" lon="30.0272870064">
        <ele>0.0</ele>
        <time>2026-04-25T14:20:04.000Z</time>
    </trkpt>
    <trkpt lat="59.0996003151" lon="30.0273299217">
        <ele>0.0</ele>
        <time>2026-04-25T14:20:07.000Z</time>
    </trkpt>
    <trkpt lat="59.0995788574" lon="30.0273728371">
        <ele>0.0</ele>
        <time>2026-04-25T14:20:09.000Z</time>
    </trkpt>
    <trkpt lat="59.0995573997" lon="30.0273942947">
        <ele>0.0</ele>
        <time>2026-04-25T14:20:12.000Z</time>
    </trkpt>
    <trkpt lat="59.0995573997" lon="30.0273942947">
        <ele>0.0</ele>
        <time>2026-04-25T14:20:14.000Z</time>
    </trkpt>
    <trkpt lat="59.0995573997" lon="30.0273942947">
        <ele>0.0</ele>
        <time>2026-04-25T14:20:17.000Z</time>
    </trkpt>
    <trkpt lat="59.0995573997" lon="30.0273942947">
        <ele>0.0</ele>
        <time>2026-04-25T14:20:19.000Z</time>
    </trkpt>
    <trkpt lat="59.0995573997" lon="30.0274157524">
        <ele>0.0</ele>
        <time>2026-04-25T14:20:22.000Z</time>
    </trkpt>
    <trkpt lat="59.0995573997" lon="30.0274801254">
        <ele>0.0</ele>
        <time>2026-04-25T14:20:24.000Z</time>
    </trkpt>
    <trkpt lat="59.0995573997" lon="30.0275015831">
        <ele>0.0</ele>
        <time>2026-04-25T14:20:27.000Z</time>
    </trkpt>
    <trkpt lat="59.0995573997" lon="30.0275015831">
        <ele>0.0</ele>
        <time>2026-04-25T14:20:29.000Z</time>
    </trkpt>
    <trkpt lat="59.0995788574" lon="30.0275444984">
        <ele>0.0</ele>
        <time>2026-04-25T14:20:32.000Z</time>
    </trkpt>
    <trkpt lat="59.0996003151" lon="30.0275659561">
        <ele>0.0</ele>
        <time>2026-04-25T14:20:34.000Z</time>
    </trkpt>
    <trkpt lat="59.0996432304" lon="30.0275874138">
        <ele>0.0</ele>
        <time>2026-04-25T14:20:37.000Z</time>
    </trkpt>
    <trkpt lat="59.0996646881" lon="30.0275659561">
        <ele>0.0</ele>
        <time>2026-04-25T14:20:39.000Z</time>
    </trkpt>
    <trkpt lat="59.0996646881" lon="30.0275659561">
        <ele>0.0</ele>
        <time>2026-04-25T14:20:42.000Z</time>
    </trkpt>
    <trkpt lat="59.0996646881" lon="30.0275659561">
        <ele>0.0</ele>
        <time>2026-04-25T14:20:44.000Z</time>
    </trkpt>
    <trkpt lat="59.0996646881" lon="30.0275015831">
        <ele>0.0</ele>
        <time>2026-04-25T14:20:47.000Z</time>
    </trkpt>
    <trkpt lat="59.0996217728" lon="30.0273299217">
        <ele>0.0</ele>
        <time>2026-04-25T14:20:49.000Z</time>
    </trkpt>
    <trkpt lat="59.0995788574" lon="30.027244091">
        <ele>0.0</ele>
        <time>2026-04-25T14:20:52.000Z</time>
    </trkpt>
    <trkpt lat="59.0995573997" lon="30.027179718">
        <ele>0.0</ele>
        <time>2026-04-25T14:20:54.000Z</time>
    </trkpt>
    <trkpt lat="59.0995573997" lon="30.027179718">
        <ele>0.0</ele>
        <time>2026-04-25T14:20:57.000Z</time>
    </trkpt>
    <trkpt lat="59.0995573997" lon="30.027179718">
        <ele>0.0</ele>
        <time>2026-04-25T14:20:59.000Z</time>
    </trkpt>
    <trkpt lat="59.0995573997" lon="30.027179718">
        <ele>0.0</ele>
        <time>2026-04-25T14:21:02.000Z</time>
    </trkpt>
    <trkpt lat="59.0995573997" lon="30.027179718">
        <ele>0.0</ele>
        <time>2026-04-25T14:21:04.000Z</time>
    </trkpt>
    <trkpt lat="59.0995573997" lon="30.027179718">
        <ele>0.0</ele>
        <time>2026-04-25T14:21:07.000Z</time>
    </trkpt>
    <trkpt lat="59.0995788574" lon="30.0271582603">
        <ele>0.0</ele>
        <time>2026-04-25T14:21:09.000Z</time>
    </trkpt>
    <trkpt lat="59.0996003151" lon="30.027115345">
        <ele>0.0</ele>
        <time>2026-04-25T14:21:12.000Z</time>
    </trkpt>
    <trkpt lat="59.0996217728" lon="30.0270938873">
        <ele>0.0</ele>
        <time>2026-04-25T14:21:14.000Z</time>
    </trkpt>
    <trkpt lat="59.0996432304" lon="30.0270938873">
        <ele>0.0</ele>
        <time>2026-04-25T14:21:17.000Z</time>
    </trkpt>
    <trkpt lat="59.0996432304" lon="30.027050972">
        <ele>0.0</ele>
        <time>2026-04-25T14:21:19.000Z</time>
    </trkpt>
    <trkpt lat="59.0996432304" lon="30.0270295143">
        <ele>0.0</ele>
        <time>2026-04-25T14:21:22.000Z</time>
    </trkpt>
    <trkpt lat="59.0996646881" lon="30.0270080566">
        <ele>0.0</ele>
        <time>2026-04-25T14:21:24.000Z</time>
    </trkpt>
    <trkpt lat="59.0996861458" lon="30.026986599">
        <ele>0.0</ele>
        <time>2026-04-25T14:21:27.000Z</time>
    </trkpt>
    <trkpt lat="59.0997290611" lon="30.026922226">
        <ele>0.0</ele>
        <time>2026-04-25T14:21:29.000Z</time>
    </trkpt>
    <trkpt lat="59.0997290611" lon="30.0269007683">
        <ele>0.0</ele>
        <time>2026-04-25T14:21:32.000Z</time>
    </trkpt>
    <trkpt lat="59.0997505188" lon="30.0268793106">
        <ele>0.0</ele>
        <time>2026-04-25T14:21:34.000Z</time>
    </trkpt>
    <trkpt lat="59.0997505188" lon="30.0268363953">
        <ele>0.0</ele>
        <time>2026-04-25T14:21:37.000Z</time>
    </trkpt>
    <trkpt lat="59.0997934341" lon="30.0267934799">
        <ele>0.0</ele>
        <time>2026-04-25T14:21:39.000Z</time>
    </trkpt>
    <trkpt lat="59.0997934341" lon="30.0268149376">
        <ele>0.0</ele>
        <time>2026-04-25T14:21:42.000Z</time>
    </trkpt>
    <trkpt lat="59.0998363495" lon="30.0267934799">
        <ele>0.0</ele>
        <time>2026-04-25T14:21:44.000Z</time>
    </trkpt>
    <trkpt lat="59.0998363495" lon="30.0267934799">
        <ele>0.0</ele>
        <time>2026-04-25T14:21:47.000Z</time>
    </trkpt>
    <trkpt lat="59.0998578072" lon="30.0267720222">
        <ele>0.0</ele>
        <time>2026-04-25T14:21:49.000Z</time>
    </trkpt>
    <trkpt lat="59.0998578072" lon="30.0267291069">
        <ele>0.0</ele>
        <time>2026-04-25T14:21:52.000Z</time>
    </trkpt>
    <trkpt lat="59.0998792648" lon="30.0266861916">
        <ele>0.0</ele>
        <time>2026-04-25T14:21:54.000Z</time>
    </trkpt>
    <trkpt lat="59.0999007225" lon="30.0266432762">
        <ele>0.0</ele>
        <time>2026-04-25T14:21:57.000Z</time>
    </trkpt>
    <trkpt lat="59.0999007225" lon="30.0266432762">
        <ele>0.0</ele>
        <time>2026-04-25T14:21:59.000Z</time>
    </trkpt>
    <trkpt lat="59.0999007225" lon="30.0266432762">
        <ele>0.0</ele>
        <time>2026-04-25T14:22:02.000Z</time>
    </trkpt>
    <trkpt lat="59.0999007225" lon="30.0266432762">
        <ele>0.0</ele>
        <time>2026-04-25T14:22:04.000Z</time>
    </trkpt>
    <trkpt lat="59.0999221802" lon="30.0266432762">
        <ele>0.0</ele>
        <time>2026-04-25T14:22:07.000Z</time>
    </trkpt>
    <trkpt lat="59.0999221802" lon="30.0266432762">
        <ele>0.0</ele>
        <time>2026-04-25T14:22:09.000Z</time>
    </trkpt>
    <trkpt lat="59.0999221802" lon="30.0266432762">
        <ele>0.0</ele>
        <time>2026-04-25T14:22:12.000Z</time>
    </trkpt>
    <trkpt lat="59.0999221802" lon="30.0266432762">
        <ele>0.0</ele>
        <time>2026-04-25T14:22:14.000Z</time>
    </trkpt>
    <trkpt lat="59.0999221802" lon="30.0266432762">
        <ele>0.0</ele>
        <time>2026-04-25T14:22:17.000Z</time>
    </trkpt>
    <trkpt lat="59.0999221802" lon="30.0266432762">
        <ele>0.0</ele>
        <time>2026-04-25T14:22:19.000Z</time>
    </trkpt>
    <trkpt lat="59.0999221802" lon="30.0266432762">
        <ele>0.0</ele>
        <time>2026-04-25T14:22:22.000Z</time>
    </trkpt>
    <trkpt lat="59.0999221802" lon="30.0266432762">
        <ele>0.0</ele>
        <time>2026-04-25T14:22:24.000Z</time>
    </trkpt>
    <trkpt lat="59.0999221802" lon="30.0266432762">
        <ele>0.0</ele>
        <time>2026-04-25T14:22:27.000Z</time>
    </trkpt>
    <trkpt lat="59.0999221802" lon="30.0266432762">
        <ele>0.0</ele>
        <time>2026-04-25T14:22:29.000Z</time>
    </trkpt>
    <trkpt lat="59.0999221802" lon="30.0266003609">
        <ele>0.0</ele>
        <time>2026-04-25T14:22:32.000Z</time>
    </trkpt>
    <trkpt lat="59.1000080109" lon="30.0263643265">
        <ele>0.0</ele>
        <time>2026-04-25T14:22:34.000Z</time>
    </trkpt>
    <trkpt lat="59.1000294685" lon="30.0261712074">
        <ele>0.0</ele>
        <time>2026-04-25T14:22:37.000Z</time>
    </trkpt>
    <trkpt lat="59.1000723839" lon="30.0260210037">
        <ele>0.0</ele>
        <time>2026-04-25T14:22:39.000Z</time>
    </trkpt>
    <trkpt lat="59.1000723839" lon="30.0259780884">
        <ele>0.0</ele>
        <time>2026-04-25T14:22:42.000Z</time>
    </trkpt>
    <trkpt lat="59.1000938416" lon="30.0259566307">
        <ele>0.0</ele>
        <time>2026-04-25T14:22:44.000Z</time>
    </trkpt>
    <trkpt lat="59.1001152992" lon="30.025935173">
        <ele>0.0</ele>
        <time>2026-04-25T14:22:47.000Z</time>
    </trkpt>
    <trkpt lat="59.1001152992" lon="30.025935173">
        <ele>0.0</ele>
        <time>2026-04-25T14:22:49.000Z</time>
    </trkpt>
    <trkpt lat="59.1001152992" lon="30.025935173">
        <ele>0.0</ele>
        <time>2026-04-25T14:22:52.000Z</time>
    </trkpt>
    <trkpt lat="59.1001152992" lon="30.0258922577">
        <ele>0.0</ele>
        <time>2026-04-25T14:22:54.000Z</time>
    </trkpt>
    <trkpt lat="59.1001367569" lon="30.0258708">
        <ele>0.0</ele>
        <time>2026-04-25T14:22:59.000Z</time>
    </trkpt>
    <trkpt lat="59.1001367569" lon="30.0258708">
        <ele>0.0</ele>
        <time>2026-04-25T14:23:02.000Z</time>
    </trkpt>
    <trkpt lat="59.1001367569" lon="30.0258708">
        <ele>0.0</ele>
        <time>2026-04-25T14:23:04.000Z</time>
    </trkpt>
    <trkpt lat="59.1001367569" lon="30.0258708">
        <ele>0.0</ele>
        <time>2026-04-25T14:23:07.000Z</time>
    </trkpt>
    <trkpt lat="59.1001367569" lon="30.0258922577">
        <ele>0.0</ele>
        <time>2026-04-25T14:23:09.000Z</time>
    </trkpt>
    <trkpt lat="59.1001367569" lon="30.0258922577">
        <ele>0.0</ele>
        <time>2026-04-25T14:23:12.000Z</time>
    </trkpt>
    <trkpt lat="59.1001367569" lon="30.0258922577">
        <ele>0.0</ele>
        <time>2026-04-25T14:23:14.000Z</time>
    </trkpt>
    <trkpt lat="59.1001367569" lon="30.0258922577">
        <ele>0.0</ele>
        <time>2026-04-25T14:23:17.000Z</time>
    </trkpt>
    <trkpt lat="59.1001367569" lon="30.0258922577">
        <ele>0.0</ele>
        <time>2026-04-25T14:23:19.000Z</time>
    </trkpt>
    <trkpt lat="59.1001367569" lon="30.0258922577">
        <ele>0.0</ele>
        <time>2026-04-25T14:23:22.000Z</time>
    </trkpt>
    <trkpt lat="59.1001367569" lon="30.0258922577">
        <ele>0.0</ele>
        <time>2026-04-25T14:23:24.000Z</time>
    </trkpt>
    <trkpt lat="59.1001367569" lon="30.0258922577">
        <ele>0.0</ele>
        <time>2026-04-25T14:23:27.000Z</time>
    </trkpt>
    <trkpt lat="59.1001367569" lon="30.0258922577">
        <ele>0.0</ele>
        <time>2026-04-25T14:23:29.000Z</time>
    </trkpt>
    <trkpt lat="59.1001367569" lon="30.0259566307">
        <ele>0.0</ele>
        <time>2026-04-25T14:23:32.000Z</time>
    </trkpt>
    <trkpt lat="59.1001582146" lon="30.0259995461">
        <ele>0.0</ele>
        <time>2026-04-25T14:23:34.000Z</time>
    </trkpt>
    <trkpt lat="59.1001582146" lon="30.0260424614">
        <ele>0.0</ele>
        <time>2026-04-25T14:23:37.000Z</time>
    </trkpt>
    <trkpt lat="59.1001796722" lon="30.0261068344">
        <ele>0.0</ele>
        <time>2026-04-25T14:23:39.000Z</time>
    </trkpt>
    <trkpt lat="59.1001796722" lon="30.0261926651">
        <ele>0.0</ele>
        <time>2026-04-25T14:23:44.000Z</time>
    </trkpt>
    <trkpt lat="59.1001582146" lon="30.0262141228">
        <ele>0.0</ele>
        <time>2026-04-25T14:23:47.000Z</time>
    </trkpt>
    <trkpt lat="59.1001582146" lon="30.0262999535">
        <ele>0.0</ele>
        <time>2026-04-25T14:23:49.000Z</time>
    </trkpt>
    <trkpt lat="59.1001582146" lon="30.0263214111">
        <ele>0.0</ele>
        <time>2026-04-25T14:23:52.000Z</time>
    </trkpt>
    <trkpt lat="59.1002011299" lon="30.0263428688">
        <ele>0.0</ele>
        <time>2026-04-25T14:23:54.000Z</time>
    </trkpt>
    <trkpt lat="59.1002440453" lon="30.0263857841">
        <ele>0.0</ele>
        <time>2026-04-25T14:23:57.000Z</time>
    </trkpt>
    <trkpt lat="59.1002655029" lon="30.0264072418">
        <ele>0.0</ele>
        <time>2026-04-25T14:23:59.000Z</time>
    </trkpt>
    <trkpt lat="59.1002869606" lon="30.0264286995">
        <ele>0.0</ele>
        <time>2026-04-25T14:24:02.000Z</time>
    </trkpt>
    <trkpt lat="59.1003084183" lon="30.0264286995">
        <ele>0.0</ele>
        <time>2026-04-25T14:24:04.000Z</time>
    </trkpt>
    <trkpt lat="59.1002869606" lon="30.0264501572">
        <ele>0.0</ele>
        <time>2026-04-25T14:24:07.000Z</time>
    </trkpt>
    <trkpt lat="59.1003084183" lon="30.0264716148">
        <ele>0.0</ele>
        <time>2026-04-25T14:24:09.000Z</time>
    </trkpt>
    <trkpt lat="59.1003084183" lon="30.0264716148">
        <ele>0.0</ele>
        <time>2026-04-25T14:24:12.000Z</time>
    </trkpt>
    <trkpt lat="59.1003298759" lon="30.0264716148">
        <ele>0.0</ele>
        <time>2026-04-25T14:24:14.000Z</time>
    </trkpt>
    <trkpt lat="59.1003727913" lon="30.0264716148">
        <ele>0.0</ele>
        <time>2026-04-25T14:24:17.000Z</time>
    </trkpt>
    <trkpt lat="59.100394249" lon="30.0264072418">
        <ele>0.0</ele>
        <time>2026-04-25T14:24:19.000Z</time>
    </trkpt>
    <trkpt lat="59.1004371643" lon="30.0263857841">
        <ele>0.0</ele>
        <time>2026-04-25T14:24:22.000Z</time>
    </trkpt>
    <trkpt lat="59.100458622" lon="30.0263643265">
        <ele>0.0</ele>
        <time>2026-04-25T14:24:24.000Z</time>
    </trkpt>
    <trkpt lat="59.100458622" lon="30.0263643265">
        <ele>0.0</ele>
        <time>2026-04-25T14:24:27.000Z</time>
    </trkpt>
    <trkpt lat="59.100458622" lon="30.0263643265">
        <ele>0.0</ele>
        <time>2026-04-25T14:24:29.000Z</time>
    </trkpt>
    <trkpt lat="59.1004371643" lon="30.0263643265">
        <ele>0.0</ele>
        <time>2026-04-25T14:24:32.000Z</time>
    </trkpt>
    <trkpt lat="59.100394249" lon="30.0263428688">
        <ele>0.0</ele>
        <time>2026-04-25T14:24:34.000Z</time>
    </trkpt>
    <trkpt lat="59.100394249" lon="30.0263214111">
        <ele>0.0</ele>
        <time>2026-04-25T14:24:37.000Z</time>
    </trkpt>
    <trkpt lat="59.1004157066" lon="30.0263214111">
        <ele>0.0</ele>
        <time>2026-04-25T14:24:39.000Z</time>
    </trkpt>
    <trkpt lat="59.1004157066" lon="30.0262999535">
        <ele>0.0</ele>
        <time>2026-04-25T14:24:42.000Z</time>
    </trkpt>
    <trkpt lat="59.1004371643" lon="30.0263214111">
        <ele>0.0</ele>
        <time>2026-04-25T14:24:44.000Z</time>
    </trkpt>
    <trkpt lat="59.1004371643" lon="30.0263214111">
        <ele>0.0</ele>
        <time>2026-04-25T14:24:47.000Z</time>
    </trkpt>
    <trkpt lat="59.1004157066" lon="30.0263214111">
        <ele>0.0</ele>
        <time>2026-04-25T14:24:49.000Z</time>
    </trkpt>
    <trkpt lat="59.1004157066" lon="30.0263214111">
        <ele>0.0</ele>
        <time>2026-04-25T14:24:52.000Z</time>
    </trkpt>
    <trkpt lat="59.1004371643" lon="30.0263428688">
        <ele>0.0</ele>
        <time>2026-04-25T14:24:54.000Z</time>
    </trkpt>
    <trkpt lat="59.1004371643" lon="30.0263428688">
        <ele>0.0</ele>
        <time>2026-04-25T14:24:59.000Z</time>
    </trkpt>
    <trkpt lat="59.1004371643" lon="30.0263428688">
        <ele>0.0</ele>
        <time>2026-04-25T14:25:02.000Z</time>
    </trkpt>
    <trkpt lat="59.1004371643" lon="30.0263428688">
        <ele>0.0</ele>
        <time>2026-04-25T14:25:04.000Z</time>
    </trkpt>
    <trkpt lat="59.1004371643" lon="30.0263428688">
        <ele>0.0</ele>
        <time>2026-04-25T14:25:07.000Z</time>
    </trkpt>
    <trkpt lat="59.1004371643" lon="30.0263428688">
        <ele>0.0</ele>
        <time>2026-04-25T14:25:09.000Z</time>
    </trkpt>
    <trkpt lat="59.1004371643" lon="30.0263428688">
        <ele>0.0</ele>
        <time>2026-04-25T14:25:12.000Z</time>
    </trkpt>
    <trkpt lat="59.1004371643" lon="30.0263428688">
        <ele>0.0</ele>
        <time>2026-04-25T14:25:14.000Z</time>
    </trkpt>
    <trkpt lat="59.1004157066" lon="30.0263214111">
        <ele>0.0</ele>
        <time>2026-04-25T14:25:17.000Z</time>
    </trkpt>
    <trkpt lat="59.1004157066" lon="30.0263214111">
        <ele>0.0</ele>
        <time>2026-04-25T14:25:19.000Z</time>
    </trkpt>
    <trkpt lat="59.1004800797" lon="30.0263214111">
        <ele>0.0</ele>
        <time>2026-04-25T14:25:22.000Z</time>
    </trkpt>
    <trkpt lat="59.1004800797" lon="30.0263214111">
        <ele>0.0</ele>
        <time>2026-04-25T14:25:24.000Z</time>
    </trkpt>
    <trkpt lat="59.1004800797" lon="30.0263214111">
        <ele>0.0</ele>
        <time>2026-04-25T14:25:27.000Z</time>
    </trkpt>
    <trkpt lat="59.100522995" lon="30.0262999535">
        <ele>0.0</ele>
        <time>2026-04-25T14:25:29.000Z</time>
    </trkpt>
    <trkpt lat="59.1005444527" lon="30.0262999535">
        <ele>0.0</ele>
        <time>2026-04-25T14:25:32.000Z</time>
    </trkpt>
    <trkpt lat="59.1005659103" lon="30.0262999535">
        <ele>0.0</ele>
        <time>2026-04-25T14:25:34.000Z</time>
    </trkpt>
    <trkpt lat="59.1006088257" lon="30.0262999535">
        <ele>0.0</ele>
        <time>2026-04-25T14:25:37.000Z</time>
    </trkpt>
    <trkpt lat="59.1006088257" lon="30.0262999535">
        <ele>0.0</ele>
        <time>2026-04-25T14:25:39.000Z</time>
    </trkpt>
    <trkpt lat="59.1006088257" lon="30.0262999535">
        <ele>0.0</ele>
        <time>2026-04-25T14:25:42.000Z</time>
    </trkpt>
    <trkpt lat="59.1006302834" lon="30.0262570381">
        <ele>0.0</ele>
        <time>2026-04-25T14:25:44.000Z</time>
    </trkpt>
    <trkpt lat="59.1006731987" lon="30.0262355804">
        <ele>0.0</ele>
        <time>2026-04-25T14:25:47.000Z</time>
    </trkpt>
    <trkpt lat="59.100716114" lon="30.0261497498">
        <ele>0.0</ele>
        <time>2026-04-25T14:25:49.000Z</time>
    </trkpt>
    <trkpt lat="59.100716114" lon="30.0260853767">
        <ele>0.0</ele>
        <time>2026-04-25T14:25:52.000Z</time>
    </trkpt>
    <trkpt lat="59.1007804871" lon="30.0260853767">
        <ele>0.0</ele>
        <time>2026-04-25T14:25:54.000Z</time>
    </trkpt>
    <trkpt lat="59.1008019447" lon="30.0260853767">
        <ele>0.0</ele>
        <time>2026-04-25T14:25:57.000Z</time>
    </trkpt>
    <trkpt lat="59.1008019447" lon="30.0260639191">
        <ele>0.0</ele>
        <time>2026-04-25T14:25:59.000Z</time>
    </trkpt>
    <trkpt lat="59.1008234024" lon="30.0260210037">
        <ele>0.0</ele>
        <time>2026-04-25T14:26:02.000Z</time>
    </trkpt>
    <trkpt lat="59.1008448601" lon="30.025935173">
        <ele>0.0</ele>
        <time>2026-04-25T14:26:04.000Z</time>
    </trkpt>
    <trkpt lat="59.1008663177" lon="30.0258708">
        <ele>0.0</ele>
        <time>2026-04-25T14:26:07.000Z</time>
    </trkpt>
    <trkpt lat="59.1008663177" lon="30.0258278847">
        <ele>0.0</ele>
        <time>2026-04-25T14:26:09.000Z</time>
    </trkpt>
    <trkpt lat="59.1008877754" lon="30.025806427">
        <ele>0.0</ele>
        <time>2026-04-25T14:26:12.000Z</time>
    </trkpt>
    <trkpt lat="59.1009092331" lon="30.0258278847">
        <ele>0.0</ele>
        <time>2026-04-25T14:26:14.000Z</time>
    </trkpt>
    <trkpt lat="59.1009306908" lon="30.0258708">
        <ele>0.0</ele>
        <time>2026-04-25T14:26:17.000Z</time>
    </trkpt>
    <trkpt lat="59.1009521484" lon="30.0258708">
        <ele>0.0</ele>
        <time>2026-04-25T14:26:19.000Z</time>
    </trkpt>
    <trkpt lat="59.1009950638" lon="30.0258708">
        <ele>0.0</ele>
        <time>2026-04-25T14:26:22.000Z</time>
    </trkpt>
    <trkpt lat="59.1009950638" lon="30.0258708">
        <ele>0.0</ele>
        <time>2026-04-25T14:26:24.000Z</time>
    </trkpt>
    <trkpt lat="59.1010165215" lon="30.0258708">
        <ele>0.0</ele>
        <time>2026-04-25T14:26:27.000Z</time>
    </trkpt>
    <trkpt lat="59.1010379791" lon="30.0258708">
        <ele>0.0</ele>
        <time>2026-04-25T14:26:29.000Z</time>
    </trkpt>
    <trkpt lat="59.1010379791" lon="30.0258493423">
        <ele>0.0</ele>
        <time>2026-04-25T14:26:32.000Z</time>
    </trkpt>
    <trkpt lat="59.1010594368" lon="30.0258493423">
        <ele>0.0</ele>
        <time>2026-04-25T14:26:34.000Z</time>
    </trkpt>
    <trkpt lat="59.1010808945" lon="30.0258278847">
        <ele>0.0</ele>
        <time>2026-04-25T14:26:37.000Z</time>
    </trkpt>
    <trkpt lat="59.1011023521" lon="30.025806427">
        <ele>0.0</ele>
        <time>2026-04-25T14:26:39.000Z</time>
    </trkpt>
    <trkpt lat="59.1011023521" lon="30.025806427">
        <ele>0.0</ele>
        <time>2026-04-25T14:26:42.000Z</time>
    </trkpt>
    <trkpt lat="59.1011023521" lon="30.025806427">
        <ele>0.0</ele>
        <time>2026-04-25T14:26:44.000Z</time>
    </trkpt>
    <trkpt lat="59.1011023521" lon="30.025806427">
        <ele>0.0</ele>
        <time>2026-04-25T14:26:47.000Z</time>
    </trkpt>
    <trkpt lat="59.1011023521" lon="30.025806427">
        <ele>0.0</ele>
        <time>2026-04-25T14:26:49.000Z</time>
    </trkpt>
    <trkpt lat="59.1011238098" lon="30.025806427">
        <ele>0.0</ele>
        <time>2026-04-25T14:26:52.000Z</time>
    </trkpt>
    <trkpt lat="59.1011452675" lon="30.025742054">
        <ele>0.0</ele>
        <time>2026-04-25T14:26:54.000Z</time>
    </trkpt>
    <trkpt lat="59.1011881828" lon="30.0256991386">
        <ele>0.0</ele>
        <time>2026-04-25T14:26:57.000Z</time>
    </trkpt>
    <trkpt lat="59.1011881828" lon="30.0256347656">
        <ele>0.0</ele>
        <time>2026-04-25T14:26:59.000Z</time>
    </trkpt>
    <trkpt lat="59.1011881828" lon="30.0256347656">
        <ele>0.0</ele>
        <time>2026-04-25T14:27:02.000Z</time>
    </trkpt>
    <trkpt lat="59.1011881828" lon="30.0256347656">
        <ele>0.0</ele>
        <time>2026-04-25T14:27:04.000Z</time>
    </trkpt>
    <trkpt lat="59.1011881828" lon="30.0256347656">
        <ele>0.0</ele>
        <time>2026-04-25T14:27:07.000Z</time>
    </trkpt>
    <trkpt lat="59.1012096405" lon="30.0256347656">
        <ele>0.0</ele>
        <time>2026-04-25T14:27:09.000Z</time>
    </trkpt>
    <trkpt lat="59.1012096405" lon="30.0256347656">
        <ele>0.0</ele>
        <time>2026-04-25T14:27:12.000Z</time>
    </trkpt>
    <trkpt lat="59.1012954712" lon="30.0255703926">
        <ele>0.0</ele>
        <time>2026-04-25T14:27:14.000Z</time>
    </trkpt>
    <trkpt lat="59.1013169289" lon="30.0255274773">
        <ele>0.0</ele>
        <time>2026-04-25T14:27:17.000Z</time>
    </trkpt>
    <trkpt lat="59.1013383865" lon="30.0255274773">
        <ele>0.0</ele>
        <time>2026-04-25T14:27:19.000Z</time>
    </trkpt>
    <trkpt lat="59.1013383865" lon="30.0255274773">
        <ele>0.0</ele>
        <time>2026-04-25T14:27:22.000Z</time>
    </trkpt>
    <trkpt lat="59.1013598442" lon="30.0255060196">
        <ele>0.0</ele>
        <time>2026-04-25T14:27:24.000Z</time>
    </trkpt>
    <trkpt lat="59.1013598442" lon="30.0255060196">
        <ele>0.0</ele>
        <time>2026-04-25T14:27:27.000Z</time>
    </trkpt>
    <trkpt lat="59.1013598442" lon="30.0254845619">
        <ele>0.0</ele>
        <time>2026-04-25T14:27:29.000Z</time>
    </trkpt>
    <trkpt lat="59.1013813019" lon="30.0254631042">
        <ele>0.0</ele>
        <time>2026-04-25T14:27:32.000Z</time>
    </trkpt>
    <trkpt lat="59.1014027596" lon="30.0253772736">
        <ele>0.0</ele>
        <time>2026-04-25T14:27:34.000Z</time>
    </trkpt>
    <trkpt lat="59.1014456749" lon="30.0252699852">
        <ele>0.0</ele>
        <time>2026-04-25T14:27:39.000Z</time>
    </trkpt>
    <trkpt lat="59.1014456749" lon="30.0252485275">
        <ele>0.0</ele>
        <time>2026-04-25T14:27:42.000Z</time>
    </trkpt>
    <trkpt lat="59.1014456749" lon="30.0252485275">
        <ele>0.0</ele>
        <time>2026-04-25T14:27:44.000Z</time>
    </trkpt>
    <trkpt lat="59.1014456749" lon="30.0252485275">
        <ele>0.0</ele>
        <time>2026-04-25T14:27:47.000Z</time>
    </trkpt>
    <trkpt lat="59.1014456749" lon="30.0252485275">
        <ele>0.0</ele>
        <time>2026-04-25T14:27:49.000Z</time>
    </trkpt>
    <trkpt lat="59.1014456749" lon="30.0252056122">
        <ele>0.0</ele>
        <time>2026-04-25T14:27:52.000Z</time>
    </trkpt>
    <trkpt lat="59.1014456749" lon="30.0252056122">
        <ele>0.0</ele>
        <time>2026-04-25T14:27:54.000Z</time>
    </trkpt>
    <trkpt lat="59.1014456749" lon="30.0252056122">
        <ele>0.0</ele>
        <time>2026-04-25T14:27:57.000Z</time>
    </trkpt>
    <trkpt lat="59.1014456749" lon="30.0252056122">
        <ele>0.0</ele>
        <time>2026-04-25T14:27:59.000Z</time>
    </trkpt>
    <trkpt lat="59.1014456749" lon="30.0252056122">
        <ele>0.0</ele>
        <time>2026-04-25T14:28:02.000Z</time>
    </trkpt>
    <trkpt lat="59.1014456749" lon="30.0252056122">
        <ele>0.0</ele>
        <time>2026-04-25T14:28:04.000Z</time>
    </trkpt>
    <trkpt lat="59.1014456749" lon="30.0252056122">
        <ele>0.0</ele>
        <time>2026-04-25T14:28:07.000Z</time>
    </trkpt>
    <trkpt lat="59.1014456749" lon="30.0252056122">
        <ele>0.0</ele>
        <time>2026-04-25T14:28:09.000Z</time>
    </trkpt>
    <trkpt lat="59.1014456749" lon="30.0251841545">
        <ele>0.0</ele>
        <time>2026-04-25T14:28:12.000Z</time>
    </trkpt>
    <trkpt lat="59.1014671326" lon="30.0252270699">
        <ele>0.0</ele>
        <time>2026-04-25T14:28:14.000Z</time>
    </trkpt>
    <trkpt lat="59.1015100479" lon="30.0252056122">
        <ele>0.0</ele>
        <time>2026-04-25T14:28:17.000Z</time>
    </trkpt>
    <trkpt lat="59.1015529633" lon="30.0252056122">
        <ele>0.0</ele>
        <time>2026-04-25T14:28:19.000Z</time>
    </trkpt>
    <trkpt lat="59.1015529633" lon="30.0252056122">
        <ele>0.0</ele>
        <time>2026-04-25T14:28:22.000Z</time>
    </trkpt>
    <trkpt lat="59.1015744209" lon="30.0252056122">
        <ele>0.0</ele>
        <time>2026-04-25T14:28:24.000Z</time>
    </trkpt>
    <trkpt lat="59.1015744209" lon="30.0251841545">
        <ele>0.0</ele>
        <time>2026-04-25T14:28:27.000Z</time>
    </trkpt>
    <trkpt lat="59.1016173363" lon="30.0252270699">
        <ele>0.0</ele>
        <time>2026-04-25T14:28:29.000Z</time>
    </trkpt>
    <trkpt lat="59.1016387939" lon="30.0252270699">
        <ele>0.0</ele>
        <time>2026-04-25T14:28:32.000Z</time>
    </trkpt>
    <trkpt lat="59.1016387939" lon="30.0252270699">
        <ele>0.0</ele>
        <time>2026-04-25T14:28:34.000Z</time>
    </trkpt>
    <trkpt lat="59.1016387939" lon="30.0252270699">
        <ele>0.0</ele>
        <time>2026-04-25T14:28:37.000Z</time>
    </trkpt>
    <trkpt lat="59.1016387939" lon="30.0252270699">
        <ele>0.0</ele>
        <time>2026-04-25T14:28:39.000Z</time>
    </trkpt>
    <trkpt lat="59.1016387939" lon="30.0252056122">
        <ele>0.0</ele>
        <time>2026-04-25T14:28:42.000Z</time>
    </trkpt>
    <trkpt lat="59.1016173363" lon="30.0252056122">
        <ele>0.0</ele>
        <time>2026-04-25T14:28:44.000Z</time>
    </trkpt>
    <trkpt lat="59.1015958786" lon="30.0252056122">
        <ele>0.0</ele>
        <time>2026-04-25T14:28:47.000Z</time>
    </trkpt>
    <trkpt lat="59.1015958786" lon="30.0251841545">
        <ele>0.0</ele>
        <time>2026-04-25T14:28:49.000Z</time>
    </trkpt>
    <trkpt lat="59.1016173363" lon="30.0251626968">
        <ele>0.0</ele>
        <time>2026-04-25T14:28:52.000Z</time>
    </trkpt>
    <trkpt lat="59.1016173363" lon="30.0251412392">
        <ele>0.0</ele>
        <time>2026-04-25T14:28:54.000Z</time>
    </trkpt>
    <trkpt lat="59.1016173363" lon="30.0251412392">
        <ele>0.0</ele>
        <time>2026-04-25T14:28:57.000Z</time>
    </trkpt>
    <trkpt lat="59.1015958786" lon="30.0250983238">
        <ele>0.0</ele>
        <time>2026-04-25T14:28:59.000Z</time>
    </trkpt>
    <trkpt lat="59.1015958786" lon="30.0250768661">
        <ele>0.0</ele>
        <time>2026-04-25T14:29:02.000Z</time>
    </trkpt>
    <trkpt lat="59.1016173363" lon="30.0250554085">
        <ele>0.0</ele>
        <time>2026-04-25T14:29:04.000Z</time>
    </trkpt>
    <trkpt lat="59.1016173363" lon="30.0250124931">
        <ele>0.0</ele>
        <time>2026-04-25T14:29:07.000Z</time>
    </trkpt>
    <trkpt lat="59.1016173363" lon="30.0250124931">
        <ele>0.0</ele>
        <time>2026-04-25T14:29:09.000Z</time>
    </trkpt>
    <trkpt lat="59.1016173363" lon="30.0250124931">
        <ele>0.0</ele>
        <time>2026-04-25T14:29:12.000Z</time>
    </trkpt>
    <trkpt lat="59.1016173363" lon="30.0250124931">
        <ele>0.0</ele>
        <time>2026-04-25T14:29:14.000Z</time>
    </trkpt>
    <trkpt lat="59.1016173363" lon="30.0250124931">
        <ele>0.0</ele>
        <time>2026-04-25T14:29:17.000Z</time>
    </trkpt>
    <trkpt lat="59.1016387939" lon="30.0249910355">
        <ele>0.0</ele>
        <time>2026-04-25T14:29:19.000Z</time>
    </trkpt>
    <trkpt lat="59.1016602516" lon="30.0249695778">
        <ele>0.0</ele>
        <time>2026-04-25T14:29:22.000Z</time>
    </trkpt>
    <trkpt lat="59.1016602516" lon="30.0249266624">
        <ele>0.0</ele>
        <time>2026-04-25T14:29:24.000Z</time>
    </trkpt>
    <trkpt lat="59.1016602516" lon="30.0249052048">
        <ele>0.0</ele>
        <time>2026-04-25T14:29:27.000Z</time>
    </trkpt>
    <trkpt lat="59.1016817093" lon="30.0248837471">
        <ele>0.0</ele>
        <time>2026-04-25T14:29:29.000Z</time>
    </trkpt>
    <trkpt lat="59.101703167" lon="30.0248837471">
        <ele>0.0</ele>
        <time>2026-04-25T14:29:32.000Z</time>
    </trkpt>
    <trkpt lat="59.1017246246" lon="30.0249052048">
        <ele>0.0</ele>
        <time>2026-04-25T14:29:34.000Z</time>
    </trkpt>
    <trkpt lat="59.10176754" lon="30.0249266624">
        <ele>0.0</ele>
        <time>2026-04-25T14:29:37.000Z</time>
    </trkpt>
    <trkpt lat="59.1017889977" lon="30.0249052048">
        <ele>0.0</ele>
        <time>2026-04-25T14:29:39.000Z</time>
    </trkpt>
    <trkpt lat="59.1017889977" lon="30.0249052048">
        <ele>0.0</ele>
        <time>2026-04-25T14:29:42.000Z</time>
    </trkpt>
    <trkpt lat="59.101831913" lon="30.0248837471">
        <ele>0.0</ele>
        <time>2026-04-25T14:29:44.000Z</time>
    </trkpt>
    <trkpt lat="59.101831913" lon="30.0248622894">
        <ele>0.0</ele>
        <time>2026-04-25T14:29:47.000Z</time>
    </trkpt>
    <trkpt lat="59.1018533707" lon="30.0248408318">
        <ele>0.0</ele>
        <time>2026-04-25T14:29:49.000Z</time>
    </trkpt>
    <trkpt lat="59.1018748283" lon="30.0248193741">
        <ele>0.0</ele>
        <time>2026-04-25T14:29:52.000Z</time>
    </trkpt>
    <trkpt lat="59.101896286" lon="30.0248193741">
        <ele>0.0</ele>
        <time>2026-04-25T14:29:54.000Z</time>
    </trkpt>
    <trkpt lat="59.101896286" lon="30.0248193741">
        <ele>0.0</ele>
        <time>2026-04-25T14:29:57.000Z</time>
    </trkpt>
    <trkpt lat="59.1019177437" lon="30.0248193741">
        <ele>0.0</ele>
        <time>2026-04-25T14:29:59.000Z</time>
    </trkpt>
    <trkpt lat="59.101960659" lon="30.0248408318">
        <ele>0.0</ele>
        <time>2026-04-25T14:30:02.000Z</time>
    </trkpt>
    <trkpt lat="59.1019821167" lon="30.0248408318">
        <ele>0.0</ele>
        <time>2026-04-25T14:30:04.000Z</time>
    </trkpt>
    <trkpt lat="59.1020035744" lon="30.0248193741">
        <ele>0.0</ele>
        <time>2026-04-25T14:30:07.000Z</time>
    </trkpt>
    <trkpt lat="59.1020035744" lon="30.0248193741">
        <ele>0.0</ele>
        <time>2026-04-25T14:30:09.000Z</time>
    </trkpt>
    <trkpt lat="59.102025032" lon="30.0248193741">
        <ele>0.0</ele>
        <time>2026-04-25T14:30:12.000Z</time>
    </trkpt>
    <trkpt lat="59.1020464897" lon="30.0247764587">
        <ele>0.0</ele>
        <time>2026-04-25T14:30:14.000Z</time>
    </trkpt>
    <trkpt lat="59.1020679474" lon="30.0247550011">
        <ele>0.0</ele>
        <time>2026-04-25T14:30:17.000Z</time>
    </trkpt>
    <trkpt lat="59.1020894051" lon="30.0247335434">
        <ele>0.0</ele>
        <time>2026-04-25T14:30:19.000Z</time>
    </trkpt>
    <trkpt lat="59.1021108627" lon="30.0246906281">
        <ele>0.0</ele>
        <time>2026-04-25T14:30:22.000Z</time>
    </trkpt>
    <trkpt lat="59.1021323204" lon="30.0246691704">
        <ele>0.0</ele>
        <time>2026-04-25T14:30:24.000Z</time>
    </trkpt>
    <trkpt lat="59.1021323204" lon="30.0246691704">
        <ele>0.0</ele>
        <time>2026-04-25T14:30:27.000Z</time>
    </trkpt>
    <trkpt lat="59.1021537781" lon="30.0246906281">
        <ele>0.0</ele>
        <time>2026-04-25T14:30:29.000Z</time>
    </trkpt>
    <trkpt lat="59.1021752357" lon="30.0247120857">
        <ele>0.0</ele>
        <time>2026-04-25T14:30:32.000Z</time>
    </trkpt>
    <trkpt lat="59.1021966934" lon="30.0247120857">
        <ele>0.0</ele>
        <time>2026-04-25T14:30:34.000Z</time>
    </trkpt>
    <trkpt lat="59.1021966934" lon="30.0247120857">
        <ele>0.0</ele>
        <time>2026-04-25T14:30:37.000Z</time>
    </trkpt>
    <trkpt lat="59.1022610664" lon="30.0247120857">
        <ele>0.0</ele>
        <time>2026-04-25T14:30:39.000Z</time>
    </trkpt>
    <trkpt lat="59.1022825241" lon="30.0246691704">
        <ele>0.0</ele>
        <time>2026-04-25T14:30:42.000Z</time>
    </trkpt>
    <trkpt lat="59.1023039818" lon="30.0246477127">
        <ele>0.0</ele>
        <time>2026-04-25T14:30:44.000Z</time>
    </trkpt>
    <trkpt lat="59.1023254395" lon="30.024626255">
        <ele>0.0</ele>
        <time>2026-04-25T14:30:47.000Z</time>
    </trkpt>
    <trkpt lat="59.1023254395" lon="30.024626255">
        <ele>0.0</ele>
        <time>2026-04-25T14:30:49.000Z</time>
    </trkpt>
    <trkpt lat="59.1023254395" lon="30.0246477127">
        <ele>0.0</ele>
        <time>2026-04-25T14:30:52.000Z</time>
    </trkpt>
    <trkpt lat="59.1023468971" lon="30.0246906281">
        <ele>0.0</ele>
        <time>2026-04-25T14:30:54.000Z</time>
    </trkpt>
    <trkpt lat="59.1023683548" lon="30.0246906281">
        <ele>0.0</ele>
        <time>2026-04-25T14:30:57.000Z</time>
    </trkpt>
    <trkpt lat="59.1024112701" lon="30.0246691704">
        <ele>0.0</ele>
        <time>2026-04-25T14:30:59.000Z</time>
    </trkpt>
    <trkpt lat="59.1024327278" lon="30.0246477127">
        <ele>0.0</ele>
        <time>2026-04-25T14:31:02.000Z</time>
    </trkpt>
    <trkpt lat="59.1024327278" lon="30.0246477127">
        <ele>0.0</ele>
        <time>2026-04-25T14:31:04.000Z</time>
    </trkpt>
    <trkpt lat="59.1024541855" lon="30.0246047974">
        <ele>0.0</ele>
        <time>2026-04-25T14:31:07.000Z</time>
    </trkpt>
    <trkpt lat="59.1024541855" lon="30.0246047974">
        <ele>0.0</ele>
        <time>2026-04-25T14:31:09.000Z</time>
    </trkpt>
    <trkpt lat="59.1024541855" lon="30.0245833397">
        <ele>0.0</ele>
        <time>2026-04-25T14:31:12.000Z</time>
    </trkpt>
    <trkpt lat="59.1024756432" lon="30.024561882">
        <ele>0.0</ele>
        <time>2026-04-25T14:31:14.000Z</time>
    </trkpt>
    <trkpt lat="59.1024756432" lon="30.024561882">
        <ele>0.0</ele>
        <time>2026-04-25T14:31:17.000Z</time>
    </trkpt>
    <trkpt lat="59.1024756432" lon="30.0245833397">
        <ele>0.0</ele>
        <time>2026-04-25T14:31:19.000Z</time>
    </trkpt>
    <trkpt lat="59.1024756432" lon="30.0246047974">
        <ele>0.0</ele>
        <time>2026-04-25T14:31:22.000Z</time>
    </trkpt>
    <trkpt lat="59.1025185585" lon="30.0246477127">
        <ele>0.0</ele>
        <time>2026-04-25T14:31:24.000Z</time>
    </trkpt>
    <trkpt lat="59.1025185585" lon="30.0246691704">
        <ele>0.0</ele>
        <time>2026-04-25T14:31:27.000Z</time>
    </trkpt>
    <trkpt lat="59.1025400162" lon="30.0246691704">
        <ele>0.0</ele>
        <time>2026-04-25T14:31:29.000Z</time>
    </trkpt>
    <trkpt lat="59.1025400162" lon="30.0246691704">
        <ele>0.0</ele>
        <time>2026-04-25T14:31:32.000Z</time>
    </trkpt>
    <trkpt lat="59.1025614738" lon="30.024626255">
        <ele>0.0</ele>
        <time>2026-04-25T14:31:34.000Z</time>
    </trkpt>
    <trkpt lat="59.1025614738" lon="30.024626255">
        <ele>0.0</ele>
        <time>2026-04-25T14:31:37.000Z</time>
    </trkpt>
    <trkpt lat="59.1025829315" lon="30.0246477127">
        <ele>0.0</ele>
        <time>2026-04-25T14:31:39.000Z</time>
    </trkpt>
    <trkpt lat="59.1025829315" lon="30.0246477127">
        <ele>0.0</ele>
        <time>2026-04-25T14:31:42.000Z</time>
    </trkpt>
    <trkpt lat="59.1026043892" lon="30.0246691704">
        <ele>0.0</ele>
        <time>2026-04-25T14:31:44.000Z</time>
    </trkpt>
    <trkpt lat="59.1026258469" lon="30.0246906281">
        <ele>0.0</ele>
        <time>2026-04-25T14:31:47.000Z</time>
    </trkpt>
    <trkpt lat="59.1026473045" lon="30.0247335434">
        <ele>0.0</ele>
        <time>2026-04-25T14:31:52.000Z</time>
    </trkpt>
    <trkpt lat="59.1026687622" lon="30.0247550011">
        <ele>0.0</ele>
        <time>2026-04-25T14:31:54.000Z</time>
    </trkpt>
    <trkpt lat="59.1026687622" lon="30.0247550011">
        <ele>0.0</ele>
        <time>2026-04-25T14:31:57.000Z</time>
    </trkpt>
    <trkpt lat="59.1026687622" lon="30.0247979164">
        <ele>0.0</ele>
        <time>2026-04-25T14:31:59.000Z</time>
    </trkpt>
    <trkpt lat="59.1026902199" lon="30.0247979164">
        <ele>0.0</ele>
        <time>2026-04-25T14:32:02.000Z</time>
    </trkpt>
    <trkpt lat="59.1026902199" lon="30.0247979164">
        <ele>0.0</ele>
        <time>2026-04-25T14:32:04.000Z</time>
    </trkpt>
    <trkpt lat="59.1027116776" lon="30.0248193741">
        <ele>0.0</ele>
        <time>2026-04-25T14:32:07.000Z</time>
    </trkpt>
    <trkpt lat="59.1027545929" lon="30.0248193741">
        <ele>0.0</ele>
        <time>2026-04-25T14:32:09.000Z</time>
    </trkpt>
    <trkpt lat="59.1027760506" lon="30.0247979164">
        <ele>0.0</ele>
        <time>2026-04-25T14:32:12.000Z</time>
    </trkpt>
    <trkpt lat="59.1028189659" lon="30.0247764587">
        <ele>0.0</ele>
        <time>2026-04-25T14:32:14.000Z</time>
    </trkpt>
    <trkpt lat="59.1028404236" lon="30.0247550011">
        <ele>0.0</ele>
        <time>2026-04-25T14:32:17.000Z</time>
    </trkpt>
    <trkpt lat="59.1028833389" lon="30.0247550011">
        <ele>0.0</ele>
        <time>2026-04-25T14:32:19.000Z</time>
    </trkpt>
    <trkpt lat="59.1028833389" lon="30.0247550011">
        <ele>0.0</ele>
        <time>2026-04-25T14:32:22.000Z</time>
    </trkpt>
    <trkpt lat="59.1029047966" lon="30.0247764587">
        <ele>0.0</ele>
        <time>2026-04-25T14:32:24.000Z</time>
    </trkpt>
    <trkpt lat="59.1029262543" lon="30.0247764587">
        <ele>0.0</ele>
        <time>2026-04-25T14:32:27.000Z</time>
    </trkpt>
    <trkpt lat="59.1029691696" lon="30.0247550011">
        <ele>0.0</ele>
        <time>2026-04-25T14:32:29.000Z</time>
    </trkpt>
    <trkpt lat="59.1029691696" lon="30.0247335434">
        <ele>0.0</ele>
        <time>2026-04-25T14:32:32.000Z</time>
    </trkpt>
    <trkpt lat="59.1030335426" lon="30.0246906281">
        <ele>0.0</ele>
        <time>2026-04-25T14:32:34.000Z</time>
    </trkpt>
    <trkpt lat="59.1030335426" lon="30.0246906281">
        <ele>0.0</ele>
        <time>2026-04-25T14:32:37.000Z</time>
    </trkpt>
    <trkpt lat="59.1030550003" lon="30.0246906281">
        <ele>0.0</ele>
        <time>2026-04-25T14:32:39.000Z</time>
    </trkpt>
    <trkpt lat="59.1030550003" lon="30.0246906281">
        <ele>0.0</ele>
        <time>2026-04-25T14:32:42.000Z</time>
    </trkpt>
    <trkpt lat="59.1030550003" lon="30.0247120857">
        <ele>0.0</ele>
        <time>2026-04-25T14:32:44.000Z</time>
    </trkpt>
    <trkpt lat="59.1030550003" lon="30.0247120857">
        <ele>0.0</ele>
        <time>2026-04-25T14:32:47.000Z</time>
    </trkpt>
    <trkpt lat="59.1030335426" lon="30.0246477127">
        <ele>0.0</ele>
        <time>2026-04-25T14:32:49.000Z</time>
    </trkpt>
    <trkpt lat="59.103012085" lon="30.0246906281">
        <ele>0.0</ele>
        <time>2026-04-25T14:32:52.000Z</time>
    </trkpt>
    <trkpt lat="59.103012085" lon="30.0247335434">
        <ele>0.0</ele>
        <time>2026-04-25T14:32:54.000Z</time>
    </trkpt>
    <trkpt lat="59.103012085" lon="30.0247335434">
        <ele>0.0</ele>
        <time>2026-04-25T14:32:57.000Z</time>
    </trkpt>
    <trkpt lat="59.1030335426" lon="30.0246477127">
        <ele>0.0</ele>
        <time>2026-04-25T14:32:59.000Z</time>
    </trkpt>
    <trkpt lat="59.1030550003" lon="30.0246477127">
        <ele>0.0</ele>
        <time>2026-04-25T14:33:02.000Z</time>
    </trkpt>
    <trkpt lat="59.103076458" lon="30.0246477127">
        <ele>0.0</ele>
        <time>2026-04-25T14:33:04.000Z</time>
    </trkpt>
    <trkpt lat="59.103076458" lon="30.0246477127">
        <ele>0.0</ele>
        <time>2026-04-25T14:33:07.000Z</time>
    </trkpt>
    <trkpt lat="59.1030979156" lon="30.0246691704">
        <ele>0.0</ele>
        <time>2026-04-25T14:33:09.000Z</time>
    </trkpt>
    <trkpt lat="59.1030979156" lon="30.0246691704">
        <ele>0.0</ele>
        <time>2026-04-25T14:33:12.000Z</time>
    </trkpt>
    <trkpt lat="59.1031193733" lon="30.0246691704">
        <ele>0.0</ele>
        <time>2026-04-25T14:33:14.000Z</time>
    </trkpt>
    <trkpt lat="59.1031193733" lon="30.0246691704">
        <ele>0.0</ele>
        <time>2026-04-25T14:33:17.000Z</time>
    </trkpt>
    <trkpt lat="59.1031193733" lon="30.0246691704">
        <ele>0.0</ele>
        <time>2026-04-25T14:33:19.000Z</time>
    </trkpt>
    <trkpt lat="59.1031193733" lon="30.0246691704">
        <ele>0.0</ele>
        <time>2026-04-25T14:33:22.000Z</time>
    </trkpt>
    <trkpt lat="59.1031193733" lon="30.0246691704">
        <ele>0.0</ele>
        <time>2026-04-25T14:33:24.000Z</time>
    </trkpt>
    <trkpt lat="59.1031193733" lon="30.0246691704">
        <ele>0.0</ele>
        <time>2026-04-25T14:33:27.000Z</time>
    </trkpt>
    <trkpt lat="59.1030979156" lon="30.0247120857">
        <ele>0.0</ele>
        <time>2026-04-25T14:33:29.000Z</time>
    </trkpt>
    <trkpt lat="59.1030979156" lon="30.0247120857">
        <ele>0.0</ele>
        <time>2026-04-25T14:33:32.000Z</time>
    </trkpt>
    <trkpt lat="59.103076458" lon="30.0247550011">
        <ele>0.0</ele>
        <time>2026-04-25T14:33:34.000Z</time>
    </trkpt>
    <trkpt lat="59.1030550003" lon="30.0247550011">
        <ele>0.0</ele>
        <time>2026-04-25T14:33:37.000Z</time>
    </trkpt>
    <trkpt lat="59.1030550003" lon="30.0247550011">
        <ele>0.0</ele>
        <time>2026-04-25T14:33:39.000Z</time>
    </trkpt>
    <trkpt lat="59.1030550003" lon="30.0247550011">
        <ele>0.0</ele>
        <time>2026-04-25T14:33:42.000Z</time>
    </trkpt>
    <trkpt lat="59.1030550003" lon="30.0247550011">
        <ele>0.0</ele>
        <time>2026-04-25T14:33:44.000Z</time>
    </trkpt>
    <trkpt lat="59.1030550003" lon="30.0247550011">
        <ele>0.0</ele>
        <time>2026-04-25T14:33:47.000Z</time>
    </trkpt>
    <trkpt lat="59.1030550003" lon="30.0247764587">
        <ele>0.0</ele>
        <time>2026-04-25T14:33:49.000Z</time>
    </trkpt>
    <trkpt lat="59.103076458" lon="30.0247764587">
        <ele>0.0</ele>
        <time>2026-04-25T14:33:52.000Z</time>
    </trkpt>
    <trkpt lat="59.1030979156" lon="30.0247979164">
        <ele>0.0</ele>
        <time>2026-04-25T14:33:54.000Z</time>
    </trkpt>
    <trkpt lat="59.1030979156" lon="30.0248193741">
        <ele>0.0</ele>
        <time>2026-04-25T14:33:57.000Z</time>
    </trkpt>
    <trkpt lat="59.1030979156" lon="30.0248193741">
        <ele>0.0</ele>
        <time>2026-04-25T14:33:59.000Z</time>
    </trkpt>
    <trkpt lat="59.1030979156" lon="30.0248193741">
        <ele>0.0</ele>
        <time>2026-04-25T14:34:02.000Z</time>
    </trkpt>
    <trkpt lat="59.1031193733" lon="30.0248408318">
        <ele>0.0</ele>
        <time>2026-04-25T14:34:04.000Z</time>
    </trkpt>
    <trkpt lat="59.1031622887" lon="30.0248193741">
        <ele>0.0</ele>
        <time>2026-04-25T14:34:07.000Z</time>
    </trkpt>
    <trkpt lat="59.1031837463" lon="30.0248193741">
        <ele>0.0</ele>
        <time>2026-04-25T14:34:09.000Z</time>
    </trkpt>
    <trkpt lat="59.1031837463" lon="30.0248193741">
        <ele>0.0</ele>
        <time>2026-04-25T14:34:12.000Z</time>
    </trkpt>
    <trkpt lat="59.103140831" lon="30.0248193741">
        <ele>0.0</ele>
        <time>2026-04-25T14:34:14.000Z</time>
    </trkpt>
    <trkpt lat="59.1031193733" lon="30.0248193741">
        <ele>0.0</ele>
        <time>2026-04-25T14:34:17.000Z</time>
    </trkpt>
    <trkpt lat="59.1030979156" lon="30.0248408318">
        <ele>0.0</ele>
        <time>2026-04-25T14:34:19.000Z</time>
    </trkpt>
    <trkpt lat="59.103076458" lon="30.0248408318">
        <ele>0.0</ele>
        <time>2026-04-25T14:34:22.000Z</time>
    </trkpt>
    <trkpt lat="59.103076458" lon="30.0248408318">
        <ele>0.0</ele>
        <time>2026-04-25T14:34:24.000Z</time>
    </trkpt>
    <trkpt lat="59.103076458" lon="30.0248408318">
        <ele>0.0</ele>
        <time>2026-04-25T14:34:27.000Z</time>
    </trkpt>
    <trkpt lat="59.103076458" lon="30.0248408318">
        <ele>0.0</ele>
        <time>2026-04-25T14:34:29.000Z</time>
    </trkpt>
    <trkpt lat="59.1030979156" lon="30.0248408318">
        <ele>0.0</ele>
        <time>2026-04-25T14:34:32.000Z</time>
    </trkpt>
    <trkpt lat="59.1030979156" lon="30.0248622894">
        <ele>0.0</ele>
        <time>2026-04-25T14:34:34.000Z</time>
    </trkpt>
    <trkpt lat="59.1030979156" lon="30.0248408318">
        <ele>0.0</ele>
        <time>2026-04-25T14:34:37.000Z</time>
    </trkpt>
    <trkpt lat="59.1030979156" lon="30.0248193741">
        <ele>0.0</ele>
        <time>2026-04-25T14:34:39.000Z</time>
    </trkpt>
    <trkpt lat="59.1031193733" lon="30.0248408318">
        <ele>0.0</ele>
        <time>2026-04-25T14:34:42.000Z</time>
    </trkpt>
    <trkpt lat="59.103140831" lon="30.0249052048">
        <ele>0.0</ele>
        <time>2026-04-25T14:34:44.000Z</time>
    </trkpt>
    <trkpt lat="59.103140831" lon="30.0249481201">
        <ele>0.0</ele>
        <time>2026-04-25T14:34:47.000Z</time>
    </trkpt>
    <trkpt lat="59.1031622887" lon="30.0249695778">
        <ele>0.0</ele>
        <time>2026-04-25T14:34:49.000Z</time>
    </trkpt>
    <trkpt lat="59.1031837463" lon="30.0249695778">
        <ele>0.0</ele>
        <time>2026-04-25T14:34:52.000Z</time>
    </trkpt>
    <trkpt lat="59.1031837463" lon="30.0249910355">
        <ele>0.0</ele>
        <time>2026-04-25T14:34:54.000Z</time>
    </trkpt>
    <trkpt lat="59.1031622887" lon="30.0250339508">
        <ele>0.0</ele>
        <time>2026-04-25T14:34:57.000Z</time>
    </trkpt>
    <trkpt lat="59.1031837463" lon="30.0251197815">
        <ele>0.0</ele>
        <time>2026-04-25T14:34:59.000Z</time>
    </trkpt>
    <trkpt lat="59.1031837463" lon="30.0251626968">
        <ele>0.0</ele>
        <time>2026-04-25T14:35:02.000Z</time>
    </trkpt>
    <trkpt lat="59.1031837463" lon="30.0252056122">
        <ele>0.0</ele>
        <time>2026-04-25T14:35:04.000Z</time>
    </trkpt>
    <trkpt lat="59.1031622887" lon="30.0252270699">
        <ele>0.0</ele>
        <time>2026-04-25T14:35:07.000Z</time>
    </trkpt>
    <trkpt lat="59.1031622887" lon="30.0252699852">
        <ele>0.0</ele>
        <time>2026-04-25T14:35:09.000Z</time>
    </trkpt>
    <trkpt lat="59.1031622887" lon="30.0252485275">
        <ele>0.0</ele>
        <time>2026-04-25T14:35:12.000Z</time>
    </trkpt>
    <trkpt lat="59.1031837463" lon="30.0252699852">
        <ele>0.0</ele>
        <time>2026-04-25T14:35:14.000Z</time>
    </trkpt>
    <trkpt lat="59.1031837463" lon="30.0252699852">
        <ele>0.0</ele>
        <time>2026-04-25T14:35:17.000Z</time>
    </trkpt>
    <trkpt lat="59.103205204" lon="30.0252485275">
        <ele>0.0</ele>
        <time>2026-04-25T14:35:19.000Z</time>
    </trkpt>
    <trkpt lat="59.1032266617" lon="30.0252056122">
        <ele>0.0</ele>
        <time>2026-04-25T14:35:22.000Z</time>
    </trkpt>
    <trkpt lat="59.1032266617" lon="30.0251841545">
        <ele>0.0</ele>
        <time>2026-04-25T14:35:24.000Z</time>
    </trkpt>
    <trkpt lat="59.103269577" lon="30.0251626968">
        <ele>0.0</ele>
        <time>2026-04-25T14:35:27.000Z</time>
    </trkpt>
    <trkpt lat="59.103269577" lon="30.0251626968">
        <ele>0.0</ele>
        <time>2026-04-25T14:35:29.000Z</time>
    </trkpt>
    <trkpt lat="59.1032910347" lon="30.0251626968">
        <ele>0.0</ele>
        <time>2026-04-25T14:35:32.000Z</time>
    </trkpt>
    <trkpt lat="59.1032910347" lon="30.0251626968">
        <ele>0.0</ele>
        <time>2026-04-25T14:35:34.000Z</time>
    </trkpt>
    <trkpt lat="59.1032910347" lon="30.0251626968">
        <ele>0.0</ele>
        <time>2026-04-25T14:35:37.000Z</time>
    </trkpt>
    <trkpt lat="59.1032910347" lon="30.0251626968">
        <ele>0.0</ele>
        <time>2026-04-25T14:35:39.000Z</time>
    </trkpt>
    <trkpt lat="59.1032910347" lon="30.0251626968">
        <ele>0.0</ele>
        <time>2026-04-25T14:35:42.000Z</time>
    </trkpt>
    <trkpt lat="59.1032910347" lon="30.0251626968">
        <ele>0.0</ele>
        <time>2026-04-25T14:35:44.000Z</time>
    </trkpt>
    <trkpt lat="59.1032910347" lon="30.0251626968">
        <ele>0.0</ele>
        <time>2026-04-25T14:35:47.000Z</time>
    </trkpt>
    <trkpt lat="59.103269577" lon="30.0251197815">
        <ele>0.0</ele>
        <time>2026-04-25T14:35:49.000Z</time>
    </trkpt>
    <trkpt lat="59.103269577" lon="30.0250768661">
        <ele>0.0</ele>
        <time>2026-04-25T14:35:52.000Z</time>
    </trkpt>
    <trkpt lat="59.103269577" lon="30.0250339508">
        <ele>0.0</ele>
        <time>2026-04-25T14:35:54.000Z</time>
    </trkpt>
    <trkpt lat="59.103269577" lon="30.0250339508">
        <ele>0.0</ele>
        <time>2026-04-25T14:35:57.000Z</time>
    </trkpt>
    <trkpt lat="59.103269577" lon="30.0250339508">
        <ele>0.0</ele>
        <time>2026-04-25T14:35:59.000Z</time>
    </trkpt>
    <trkpt lat="59.103269577" lon="30.0250339508">
        <ele>0.0</ele>
        <time>2026-04-25T14:36:02.000Z</time>
    </trkpt>
    <trkpt lat="59.103269577" lon="30.0250339508">
        <ele>0.0</ele>
        <time>2026-04-25T14:36:04.000Z</time>
    </trkpt>
    <trkpt lat="59.103269577" lon="30.0250339508">
        <ele>0.0</ele>
        <time>2026-04-25T14:36:07.000Z</time>
    </trkpt>
    <trkpt lat="59.103269577" lon="30.0250339508">
        <ele>0.0</ele>
        <time>2026-04-25T14:36:09.000Z</time>
    </trkpt>
    <trkpt lat="59.103269577" lon="30.0250339508">
        <ele>0.0</ele>
        <time>2026-04-25T14:36:12.000Z</time>
    </trkpt>
    <trkpt lat="59.1032910347" lon="30.0250554085">
        <ele>0.0</ele>
        <time>2026-04-25T14:36:14.000Z</time>
    </trkpt>
    <trkpt lat="59.1032910347" lon="30.0250768661">
        <ele>0.0</ele>
        <time>2026-04-25T14:36:17.000Z</time>
    </trkpt>
    <trkpt lat="59.1032910347" lon="30.0250768661">
        <ele>0.0</ele>
        <time>2026-04-25T14:36:19.000Z</time>
    </trkpt>
    <trkpt lat="59.1032910347" lon="30.0250768661">
        <ele>0.0</ele>
        <time>2026-04-25T14:36:22.000Z</time>
    </trkpt>
    <trkpt lat="59.1032910347" lon="30.0250768661">
        <ele>0.0</ele>
        <time>2026-04-25T14:36:24.000Z</time>
    </trkpt>
    <trkpt lat="59.1032910347" lon="30.0250768661">
        <ele>0.0</ele>
        <time>2026-04-25T14:36:27.000Z</time>
    </trkpt>
    <trkpt lat="59.1032910347" lon="30.0250768661">
        <ele>0.0</ele>
        <time>2026-04-25T14:36:29.000Z</time>
    </trkpt>
    <trkpt lat="59.1032910347" lon="30.0250768661">
        <ele>0.0</ele>
        <time>2026-04-25T14:36:32.000Z</time>
    </trkpt>
    <trkpt lat="59.1032910347" lon="30.0250768661">
        <ele>0.0</ele>
        <time>2026-04-25T14:36:34.000Z</time>
    </trkpt>
    <trkpt lat="59.1032910347" lon="30.0250768661">
        <ele>0.0</ele>
        <time>2026-04-25T14:36:37.000Z</time>
    </trkpt>
    <trkpt lat="59.1033124924" lon="30.0252056122">
        <ele>0.0</ele>
        <time>2026-04-25T14:36:39.000Z</time>
    </trkpt>
    <trkpt lat="59.1033554077" lon="30.0252485275">
        <ele>0.0</ele>
        <time>2026-04-25T14:36:42.000Z</time>
    </trkpt>
    <trkpt lat="59.1033983231" lon="30.0252270699">
        <ele>0.0</ele>
        <time>2026-04-25T14:36:44.000Z</time>
    </trkpt>
    <trkpt lat="59.1033983231" lon="30.0252056122">
        <ele>0.0</ele>
        <time>2026-04-25T14:36:47.000Z</time>
    </trkpt>
    <trkpt lat="59.1034197807" lon="30.0252485275">
        <ele>0.0</ele>
        <time>2026-04-25T14:36:49.000Z</time>
    </trkpt>
    <trkpt lat="59.1034197807" lon="30.0252699852">
        <ele>0.0</ele>
        <time>2026-04-25T14:36:52.000Z</time>
    </trkpt>
    <trkpt lat="59.1034197807" lon="30.0252699852">
        <ele>0.0</ele>
        <time>2026-04-25T14:36:54.000Z</time>
    </trkpt>
    <trkpt lat="59.1034197807" lon="30.0252914429">
        <ele>0.0</ele>
        <time>2026-04-25T14:36:57.000Z</time>
    </trkpt>
    <trkpt lat="59.1033554077" lon="30.0253343582">
        <ele>0.0</ele>
        <time>2026-04-25T14:36:59.000Z</time>
    </trkpt>
    <trkpt lat="59.1033768654" lon="30.0253772736">
        <ele>0.0</ele>
        <time>2026-04-25T14:37:02.000Z</time>
    </trkpt>
    <trkpt lat="59.1033983231" lon="30.0253772736">
        <ele>0.0</ele>
        <time>2026-04-25T14:37:04.000Z</time>
    </trkpt>
    <trkpt lat="59.1033768654" lon="30.0253987312">
        <ele>0.0</ele>
        <time>2026-04-25T14:37:07.000Z</time>
    </trkpt>
    <trkpt lat="59.1033983231" lon="30.0254631042">
        <ele>0.0</ele>
        <time>2026-04-25T14:37:09.000Z</time>
    </trkpt>
    <trkpt lat="59.1034197807" lon="30.0254845619">
        <ele>0.0</ele>
        <time>2026-04-25T14:37:12.000Z</time>
    </trkpt>
    <trkpt lat="59.1034626961" lon="30.0255060196">
        <ele>0.0</ele>
        <time>2026-04-25T14:37:14.000Z</time>
    </trkpt>
    <trkpt lat="59.1034626961" lon="30.0255703926">
        <ele>0.0</ele>
        <time>2026-04-25T14:37:17.000Z</time>
    </trkpt>
    <trkpt lat="59.1034626961" lon="30.0256347656">
        <ele>0.0</ele>
        <time>2026-04-25T14:37:19.000Z</time>
    </trkpt>
    <trkpt lat="59.1035056114" lon="30.0256562233">
        <ele>0.0</ele>
        <time>2026-04-25T14:37:22.000Z</time>
    </trkpt>
    <trkpt lat="59.1034841537" lon="30.0257205963">
        <ele>0.0</ele>
        <time>2026-04-25T14:37:24.000Z</time>
    </trkpt>
    <trkpt lat="59.1034841537" lon="30.0257849693">
        <ele>0.0</ele>
        <time>2026-04-25T14:37:27.000Z</time>
    </trkpt>
    <trkpt lat="59.1035270691" lon="30.0257635117">
        <ele>0.0</ele>
        <time>2026-04-25T14:37:29.000Z</time>
    </trkpt>
    <trkpt lat="59.1035485268" lon="30.0256991386">
        <ele>0.0</ele>
        <time>2026-04-25T14:37:32.000Z</time>
    </trkpt>
    <trkpt lat="59.1035270691" lon="30.0256347656">
        <ele>0.0</ele>
        <time>2026-04-25T14:37:34.000Z</time>
    </trkpt>
    <trkpt lat="59.1035056114" lon="30.0255918503">
        <ele>0.0</ele>
        <time>2026-04-25T14:37:37.000Z</time>
    </trkpt>
    <trkpt lat="59.1034841537" lon="30.025613308">
        <ele>0.0</ele>
        <time>2026-04-25T14:37:39.000Z</time>
    </trkpt>
    <trkpt lat="59.1034841537" lon="30.025613308">
        <ele>0.0</ele>
        <time>2026-04-25T14:37:42.000Z</time>
    </trkpt>
    <trkpt lat="59.1034412384" lon="30.0255703926">
        <ele>0.0</ele>
        <time>2026-04-25T14:37:44.000Z</time>
    </trkpt>
    <trkpt lat="59.1034197807" lon="30.0255489349">
        <ele>0.0</ele>
        <time>2026-04-25T14:37:47.000Z</time>
    </trkpt>
    <trkpt lat="59.1033983231" lon="30.0255489349">
        <ele>0.0</ele>
        <time>2026-04-25T14:37:49.000Z</time>
    </trkpt>
    <trkpt lat="59.1033983231" lon="30.0255489349">
        <ele>0.0</ele>
        <time>2026-04-25T14:37:52.000Z</time>
    </trkpt>
    <trkpt lat="59.1033768654" lon="30.0255703926">
        <ele>0.0</ele>
        <time>2026-04-25T14:37:54.000Z</time>
    </trkpt>
    <trkpt lat="59.1033983231" lon="30.0255918503">
        <ele>0.0</ele>
        <time>2026-04-25T14:37:57.000Z</time>
    </trkpt>
    <trkpt lat="59.1034197807" lon="30.0256347656">
        <ele>0.0</ele>
        <time>2026-04-25T14:37:59.000Z</time>
    </trkpt>
    <trkpt lat="59.1034412384" lon="30.0256562233">
        <ele>0.0</ele>
        <time>2026-04-25T14:38:02.000Z</time>
    </trkpt>
    <trkpt lat="59.1034412384" lon="30.025677681">
        <ele>0.0</ele>
        <time>2026-04-25T14:38:04.000Z</time>
    </trkpt>
    <trkpt lat="59.1034412384" lon="30.025677681">
        <ele>0.0</ele>
        <time>2026-04-25T14:38:07.000Z</time>
    </trkpt>
    <trkpt lat="59.1034841537" lon="30.025677681">
        <ele>0.0</ele>
        <time>2026-04-25T14:38:09.000Z</time>
    </trkpt>
    <trkpt lat="59.1034841537" lon="30.025677681">
        <ele>0.0</ele>
        <time>2026-04-25T14:38:12.000Z</time>
    </trkpt>
    <trkpt lat="59.1035056114" lon="30.025677681">
        <ele>0.0</ele>
        <time>2026-04-25T14:38:14.000Z</time>
    </trkpt>
    <trkpt lat="59.1035270691" lon="30.0256991386">
        <ele>0.0</ele>
        <time>2026-04-25T14:38:17.000Z</time>
    </trkpt>
    <trkpt lat="59.1035485268" lon="30.0256991386">
        <ele>0.0</ele>
        <time>2026-04-25T14:38:19.000Z</time>
    </trkpt>
    <trkpt lat="59.1035485268" lon="30.0256991386">
        <ele>0.0</ele>
        <time>2026-04-25T14:38:22.000Z</time>
    </trkpt>
    <trkpt lat="59.1035699844" lon="30.025742054">
        <ele>0.0</ele>
        <time>2026-04-25T14:38:24.000Z</time>
    </trkpt>
    <trkpt lat="59.1035485268" lon="30.025742054">
        <ele>0.0</ele>
        <time>2026-04-25T14:38:27.000Z</time>
    </trkpt>
    <trkpt lat="59.1035485268" lon="30.025742054">
        <ele>0.0</ele>
        <time>2026-04-25T14:38:29.000Z</time>
    </trkpt>
    <trkpt lat="59.1035485268" lon="30.025742054">
        <ele>0.0</ele>
        <time>2026-04-25T14:38:32.000Z</time>
    </trkpt>
    <trkpt lat="59.1035699844" lon="30.025742054">
        <ele>0.0</ele>
        <time>2026-04-25T14:38:34.000Z</time>
    </trkpt>
    <trkpt lat="59.1035914421" lon="30.0257205963">
        <ele>0.0</ele>
        <time>2026-04-25T14:38:37.000Z</time>
    </trkpt>
    <trkpt lat="59.1036128998" lon="30.0257205963">
        <ele>0.0</ele>
        <time>2026-04-25T14:38:39.000Z</time>
    </trkpt>
    <trkpt lat="59.1036343575" lon="30.0257205963">
        <ele>0.0</ele>
        <time>2026-04-25T14:38:42.000Z</time>
    </trkpt>
    <trkpt lat="59.1036343575" lon="30.0257205963">
        <ele>0.0</ele>
        <time>2026-04-25T14:38:44.000Z</time>
    </trkpt>
    <trkpt lat="59.1036343575" lon="30.0257205963">
        <ele>0.0</ele>
        <time>2026-04-25T14:38:47.000Z</time>
    </trkpt>
    <trkpt lat="59.1036558151" lon="30.025742054">
        <ele>0.0</ele>
        <time>2026-04-25T14:38:49.000Z</time>
    </trkpt>
    <trkpt lat="59.1036558151" lon="30.0256991386">
        <ele>0.0</ele>
        <time>2026-04-25T14:38:52.000Z</time>
    </trkpt>
    <trkpt lat="59.1036343575" lon="30.025677681">
        <ele>0.0</ele>
        <time>2026-04-25T14:38:54.000Z</time>
    </trkpt>
    <trkpt lat="59.1035914421" lon="30.0256991386">
        <ele>0.0</ele>
        <time>2026-04-25T14:38:57.000Z</time>
    </trkpt>
    <trkpt lat="59.1035699844" lon="30.025677681">
        <ele>0.0</ele>
        <time>2026-04-25T14:38:59.000Z</time>
    </trkpt>
    <trkpt lat="59.1035485268" lon="30.0256991386">
        <ele>0.0</ele>
        <time>2026-04-25T14:39:02.000Z</time>
    </trkpt>
    <trkpt lat="59.1035485268" lon="30.0256991386">
        <ele>0.0</ele>
        <time>2026-04-25T14:39:04.000Z</time>
    </trkpt>
    <trkpt lat="59.1035485268" lon="30.0256991386">
        <ele>0.0</ele>
        <time>2026-04-25T14:39:07.000Z</time>
    </trkpt>
    <trkpt lat="59.1035485268" lon="30.0256991386">
        <ele>0.0</ele>
        <time>2026-04-25T14:39:09.000Z</time>
    </trkpt>
    <trkpt lat="59.1035485268" lon="30.0256991386">
        <ele>0.0</ele>
        <time>2026-04-25T14:39:12.000Z</time>
    </trkpt>
    <trkpt lat="59.1035270691" lon="30.025677681">
        <ele>0.0</ele>
        <time>2026-04-25T14:39:14.000Z</time>
    </trkpt>
    <trkpt lat="59.1035270691" lon="30.025677681">
        <ele>0.0</ele>
        <time>2026-04-25T14:39:17.000Z</time>
    </trkpt>
    <trkpt lat="59.1035056114" lon="30.025677681">
        <ele>0.0</ele>
        <time>2026-04-25T14:39:19.000Z</time>
    </trkpt>
    <trkpt lat="59.1034626961" lon="30.025677681">
        <ele>0.0</ele>
        <time>2026-04-25T14:39:22.000Z</time>
    </trkpt>
    <trkpt lat="59.1034626961" lon="30.025677681">
        <ele>0.0</ele>
        <time>2026-04-25T14:39:24.000Z</time>
    </trkpt>
    <trkpt lat="59.1034412384" lon="30.0256562233">
        <ele>0.0</ele>
        <time>2026-04-25T14:39:27.000Z</time>
    </trkpt>
    <trkpt lat="59.1034197807" lon="30.025613308">
        <ele>0.0</ele>
        <time>2026-04-25T14:39:29.000Z</time>
    </trkpt>
    <trkpt lat="59.1034197807" lon="30.025613308">
        <ele>0.0</ele>
        <time>2026-04-25T14:39:32.000Z</time>
    </trkpt>
    <trkpt lat="59.1033983231" lon="30.0255703926">
        <ele>0.0</ele>
        <time>2026-04-25T14:39:34.000Z</time>
    </trkpt>
    <trkpt lat="59.1033983231" lon="30.0255703926">
        <ele>0.0</ele>
        <time>2026-04-25T14:39:37.000Z</time>
    </trkpt>
    <trkpt lat="59.1033554077" lon="30.0255918503">
        <ele>0.0</ele>
        <time>2026-04-25T14:39:39.000Z</time>
    </trkpt>
    <trkpt lat="59.10333395" lon="30.0255918503">
        <ele>0.0</ele>
        <time>2026-04-25T14:39:42.000Z</time>
    </trkpt>
    <trkpt lat="59.1032910347" lon="30.0255703926">
        <ele>0.0</ele>
        <time>2026-04-25T14:39:44.000Z</time>
    </trkpt>
    <trkpt lat="59.1032910347" lon="30.0255703926">
        <ele>0.0</ele>
        <time>2026-04-25T14:39:47.000Z</time>
    </trkpt>
    <trkpt lat="59.1032910347" lon="30.0255918503">
        <ele>0.0</ele>
        <time>2026-04-25T14:39:49.000Z</time>
    </trkpt>
    <trkpt lat="59.103269577" lon="30.0255918503">
        <ele>0.0</ele>
        <time>2026-04-25T14:39:52.000Z</time>
    </trkpt>
    <trkpt lat="59.1032481194" lon="30.0256562233">
        <ele>0.0</ele>
        <time>2026-04-25T14:39:54.000Z</time>
    </trkpt>
    <trkpt lat="59.1032481194" lon="30.0256991386">
        <ele>0.0</ele>
        <time>2026-04-25T14:39:57.000Z</time>
    </trkpt>
    <trkpt lat="59.1032481194" lon="30.025677681">
        <ele>0.0</ele>
        <time>2026-04-25T14:39:59.000Z</time>
    </trkpt>
    <trkpt lat="59.1032266617" lon="30.0256562233">
        <ele>0.0</ele>
        <time>2026-04-25T14:40:02.000Z</time>
    </trkpt>
    <trkpt lat="59.1031622887" lon="30.0257205963">
        <ele>0.0</ele>
        <time>2026-04-25T14:40:04.000Z</time>
    </trkpt>
    <trkpt lat="59.1031622887" lon="30.025806427">
        <ele>0.0</ele>
        <time>2026-04-25T14:40:07.000Z</time>
    </trkpt>
    <trkpt lat="59.1031193733" lon="30.0258493423">
        <ele>0.0</ele>
        <time>2026-04-25T14:40:09.000Z</time>
    </trkpt>
    <trkpt lat="59.1030979156" lon="30.0258493423">
        <ele>0.0</ele>
        <time>2026-04-25T14:40:12.000Z</time>
    </trkpt>
    <trkpt lat="59.103076458" lon="30.0258708">
        <ele>0.0</ele>
        <time>2026-04-25T14:40:14.000Z</time>
    </trkpt>
    <trkpt lat="59.103076458" lon="30.0258278847">
        <ele>0.0</ele>
        <time>2026-04-25T14:40:17.000Z</time>
    </trkpt>
    <trkpt lat="59.1030550003" lon="30.0257205963">
        <ele>0.0</ele>
        <time>2026-04-25T14:40:19.000Z</time>
    </trkpt>
    <trkpt lat="59.1030550003" lon="30.0256991386">
        <ele>0.0</ele>
        <time>2026-04-25T14:40:22.000Z</time>
    </trkpt>
    <trkpt lat="59.1030979156" lon="30.025613308">
        <ele>0.0</ele>
        <time>2026-04-25T14:40:24.000Z</time>
    </trkpt>
    <trkpt lat="59.1031193733" lon="30.025613308">
        <ele>0.0</ele>
        <time>2026-04-25T14:40:27.000Z</time>
    </trkpt>
    <trkpt lat="59.1031622887" lon="30.0256562233">
        <ele>0.0</ele>
        <time>2026-04-25T14:40:29.000Z</time>
    </trkpt>
    <trkpt lat="59.1031622887" lon="30.0256991386">
        <ele>0.0</ele>
        <time>2026-04-25T14:40:32.000Z</time>
    </trkpt>
    <trkpt lat="59.1031837463" lon="30.0257635117">
        <ele>0.0</ele>
        <time>2026-04-25T14:40:34.000Z</time>
    </trkpt>
    <trkpt lat="59.1031837463" lon="30.0257635117">
        <ele>0.0</ele>
        <time>2026-04-25T14:40:37.000Z</time>
    </trkpt>
    <trkpt lat="59.103205204" lon="30.025806427">
        <ele>0.0</ele>
        <time>2026-04-25T14:40:39.000Z</time>
    </trkpt>
    <trkpt lat="59.1031837463" lon="30.0258278847">
        <ele>0.0</ele>
        <time>2026-04-25T14:40:42.000Z</time>
    </trkpt>
    <trkpt lat="59.1031837463" lon="30.025806427">
        <ele>0.0</ele>
        <time>2026-04-25T14:40:44.000Z</time>
    </trkpt>
    <trkpt lat="59.103205204" lon="30.0258278847">
        <ele>0.0</ele>
        <time>2026-04-25T14:40:47.000Z</time>
    </trkpt>
    <trkpt lat="59.103205204" lon="30.0258278847">
        <ele>0.0</ele>
        <time>2026-04-25T14:40:49.000Z</time>
    </trkpt>
    <trkpt lat="59.1031622887" lon="30.0258493423">
        <ele>0.0</ele>
        <time>2026-04-25T14:40:52.000Z</time>
    </trkpt>
    <trkpt lat="59.1031193733" lon="30.0258922577">
        <ele>0.0</ele>
        <time>2026-04-25T14:40:54.000Z</time>
    </trkpt>
    <trkpt lat="59.1031193733" lon="30.0258922577">
        <ele>0.0</ele>
        <time>2026-04-25T14:40:57.000Z</time>
    </trkpt>
    <trkpt lat="59.103076458" lon="30.0259780884">
        <ele>0.0</ele>
        <time>2026-04-25T14:40:59.000Z</time>
    </trkpt>
    <trkpt lat="59.1030550003" lon="30.0260424614">
        <ele>0.0</ele>
        <time>2026-04-25T14:41:02.000Z</time>
    </trkpt>
    <trkpt lat="59.1030335426" lon="30.0260639191">
        <ele>0.0</ele>
        <time>2026-04-25T14:41:04.000Z</time>
    </trkpt>
    <trkpt lat="59.1029906273" lon="30.0260639191">
        <ele>0.0</ele>
        <time>2026-04-25T14:41:07.000Z</time>
    </trkpt>
    <trkpt lat="59.103012085" lon="30.0260424614">
        <ele>0.0</ele>
        <time>2026-04-25T14:41:09.000Z</time>
    </trkpt>
    <trkpt lat="59.1029906273" lon="30.0260210037">
        <ele>0.0</ele>
        <time>2026-04-25T14:41:12.000Z</time>
    </trkpt>
    <trkpt lat="59.1029477119" lon="30.0259780884">
        <ele>0.0</ele>
        <time>2026-04-25T14:41:14.000Z</time>
    </trkpt>
    <trkpt lat="59.1029477119" lon="30.0259780884">
        <ele>0.0</ele>
        <time>2026-04-25T14:41:17.000Z</time>
    </trkpt>
    <trkpt lat="59.1029477119" lon="30.0259780884">
        <ele>0.0</ele>
        <time>2026-04-25T14:41:19.000Z</time>
    </trkpt>
    <trkpt lat="59.1029477119" lon="30.0259780884">
        <ele>0.0</ele>
        <time>2026-04-25T14:41:22.000Z</time>
    </trkpt>
    <trkpt lat="59.1029477119" lon="30.0259780884">
        <ele>0.0</ele>
        <time>2026-04-25T14:41:24.000Z</time>
    </trkpt>
    <trkpt lat="59.1029477119" lon="30.0259780884">
        <ele>0.0</ele>
        <time>2026-04-25T14:41:27.000Z</time>
    </trkpt>
    <trkpt lat="59.1029477119" lon="30.0259780884">
        <ele>0.0</ele>
        <time>2026-04-25T14:41:29.000Z</time>
    </trkpt>
    <trkpt lat="59.1029477119" lon="30.0259995461">
        <ele>0.0</ele>
        <time>2026-04-25T14:41:32.000Z</time>
    </trkpt>
    <trkpt lat="59.1029477119" lon="30.0260210037">
        <ele>0.0</ele>
        <time>2026-04-25T14:41:34.000Z</time>
    </trkpt>
    <trkpt lat="59.1029262543" lon="30.0260424614">
        <ele>0.0</ele>
        <time>2026-04-25T14:41:37.000Z</time>
    </trkpt>
    <trkpt lat="59.1029262543" lon="30.0260424614">
        <ele>0.0</ele>
        <time>2026-04-25T14:41:39.000Z</time>
    </trkpt>
    <trkpt lat="59.1029262543" lon="30.0260424614">
        <ele>0.0</ele>
        <time>2026-04-25T14:41:42.000Z</time>
    </trkpt>
    <trkpt lat="59.1029047966" lon="30.0260210037">
        <ele>0.0</ele>
        <time>2026-04-25T14:41:44.000Z</time>
    </trkpt>
    <trkpt lat="59.1029047966" lon="30.0260210037">
        <ele>0.0</ele>
        <time>2026-04-25T14:41:47.000Z</time>
    </trkpt>
    <trkpt lat="59.1029047966" lon="30.0260210037">
        <ele>0.0</ele>
        <time>2026-04-25T14:41:49.000Z</time>
    </trkpt>
    <trkpt lat="59.1029047966" lon="30.0260424614">
        <ele>0.0</ele>
        <time>2026-04-25T14:41:52.000Z</time>
    </trkpt>
    <trkpt lat="59.1028833389" lon="30.0260639191">
        <ele>0.0</ele>
        <time>2026-04-25T14:41:54.000Z</time>
    </trkpt>
    <trkpt lat="59.1028833389" lon="30.0260424614">
        <ele>0.0</ele>
        <time>2026-04-25T14:41:57.000Z</time>
    </trkpt>
    <trkpt lat="59.1028833389" lon="30.0259995461">
        <ele>0.0</ele>
        <time>2026-04-25T14:41:59.000Z</time>
    </trkpt>
    <trkpt lat="59.1028833389" lon="30.0259566307">
        <ele>0.0</ele>
        <time>2026-04-25T14:42:02.000Z</time>
    </trkpt>
    <trkpt lat="59.1028833389" lon="30.0259137154">
        <ele>0.0</ele>
        <time>2026-04-25T14:42:04.000Z</time>
    </trkpt>
    <trkpt lat="59.1028618813" lon="30.0259137154">
        <ele>0.0</ele>
        <time>2026-04-25T14:42:07.000Z</time>
    </trkpt>
    <trkpt lat="59.1028404236" lon="30.0258708">
        <ele>0.0</ele>
        <time>2026-04-25T14:42:09.000Z</time>
    </trkpt>
    <trkpt lat="59.1028404236" lon="30.0258708">
        <ele>0.0</ele>
        <time>2026-04-25T14:42:12.000Z</time>
    </trkpt>
    <trkpt lat="59.1028404236" lon="30.0258708">
        <ele>0.0</ele>
        <time>2026-04-25T14:42:14.000Z</time>
    </trkpt>
    <trkpt lat="59.1028189659" lon="30.0258922577">
        <ele>0.0</ele>
        <time>2026-04-25T14:42:17.000Z</time>
    </trkpt>
    <trkpt lat="59.1028189659" lon="30.0258922577">
        <ele>0.0</ele>
        <time>2026-04-25T14:42:19.000Z</time>
    </trkpt>
    <trkpt lat="59.1028189659" lon="30.0258922577">
        <ele>0.0</ele>
        <time>2026-04-25T14:42:22.000Z</time>
    </trkpt>
    <trkpt lat="59.1027975082" lon="30.0258493423">
        <ele>0.0</ele>
        <time>2026-04-25T14:42:24.000Z</time>
    </trkpt>
    <trkpt lat="59.1027975082" lon="30.0258493423">
        <ele>0.0</ele>
        <time>2026-04-25T14:42:27.000Z</time>
    </trkpt>
    <trkpt lat="59.1027545929" lon="30.0258922577">
        <ele>0.0</ele>
        <time>2026-04-25T14:42:29.000Z</time>
    </trkpt>
    <trkpt lat="59.1027116776" lon="30.0259137154">
        <ele>0.0</ele>
        <time>2026-04-25T14:42:32.000Z</time>
    </trkpt>
    <trkpt lat="59.1027116776" lon="30.025935173">
        <ele>0.0</ele>
        <time>2026-04-25T14:42:34.000Z</time>
    </trkpt>
    <trkpt lat="59.1026902199" lon="30.025935173">
        <ele>0.0</ele>
        <time>2026-04-25T14:42:37.000Z</time>
    </trkpt>
    <trkpt lat="59.1026687622" lon="30.025935173">
        <ele>0.0</ele>
        <time>2026-04-25T14:42:39.000Z</time>
    </trkpt>
    <trkpt lat="59.1026473045" lon="30.0259566307">
        <ele>0.0</ele>
        <time>2026-04-25T14:42:42.000Z</time>
    </trkpt>
    <trkpt lat="59.1026473045" lon="30.0259780884">
        <ele>0.0</ele>
        <time>2026-04-25T14:42:44.000Z</time>
    </trkpt>
    <trkpt lat="59.1026473045" lon="30.0260210037">
        <ele>0.0</ele>
        <time>2026-04-25T14:42:47.000Z</time>
    </trkpt>
    <trkpt lat="59.1026473045" lon="30.0260210037">
        <ele>0.0</ele>
        <time>2026-04-25T14:42:49.000Z</time>
    </trkpt>
    <trkpt lat="59.1026473045" lon="30.0260424614">
        <ele>0.0</ele>
        <time>2026-04-25T14:42:52.000Z</time>
    </trkpt>
    <trkpt lat="59.1026473045" lon="30.0259995461">
        <ele>0.0</ele>
        <time>2026-04-25T14:42:54.000Z</time>
    </trkpt>
    <trkpt lat="59.1026473045" lon="30.0259780884">
        <ele>0.0</ele>
        <time>2026-04-25T14:42:57.000Z</time>
    </trkpt>
    <trkpt lat="59.1026687622" lon="30.0259137154">
        <ele>0.0</ele>
        <time>2026-04-25T14:42:59.000Z</time>
    </trkpt>
    <trkpt lat="59.1026687622" lon="30.0258922577">
        <ele>0.0</ele>
        <time>2026-04-25T14:43:02.000Z</time>
    </trkpt>
    <trkpt lat="59.1026902199" lon="30.0258708">
        <ele>0.0</ele>
        <time>2026-04-25T14:43:04.000Z</time>
    </trkpt>
    <trkpt lat="59.1027116776" lon="30.0258708">
        <ele>0.0</ele>
        <time>2026-04-25T14:43:07.000Z</time>
    </trkpt>
    <trkpt lat="59.1027116776" lon="30.0258493423">
        <ele>0.0</ele>
        <time>2026-04-25T14:43:09.000Z</time>
    </trkpt>
    <trkpt lat="59.1027116776" lon="30.0258493423">
        <ele>0.0</ele>
        <time>2026-04-25T14:43:12.000Z</time>
    </trkpt>
    <trkpt lat="59.1027116776" lon="30.0257849693">
        <ele>0.0</ele>
        <time>2026-04-25T14:43:14.000Z</time>
    </trkpt>
    <trkpt lat="59.1027331352" lon="30.0257635117">
        <ele>0.0</ele>
        <time>2026-04-25T14:43:17.000Z</time>
    </trkpt>
    <trkpt lat="59.1027331352" lon="30.025806427">
        <ele>0.0</ele>
        <time>2026-04-25T14:43:19.000Z</time>
    </trkpt>
    <trkpt lat="59.1027545929" lon="30.0258278847">
        <ele>0.0</ele>
        <time>2026-04-25T14:43:22.000Z</time>
    </trkpt>
    <trkpt lat="59.1027545929" lon="30.025806427">
        <ele>0.0</ele>
        <time>2026-04-25T14:43:24.000Z</time>
    </trkpt>
    <trkpt lat="59.1027545929" lon="30.025806427">
        <ele>0.0</ele>
        <time>2026-04-25T14:43:27.000Z</time>
    </trkpt>
    <trkpt lat="59.1027545929" lon="30.0258278847">
        <ele>0.0</ele>
        <time>2026-04-25T14:43:29.000Z</time>
    </trkpt>
    <trkpt lat="59.1027545929" lon="30.0258278847">
        <ele>0.0</ele>
        <time>2026-04-25T14:43:32.000Z</time>
    </trkpt>
    <trkpt lat="59.1027545929" lon="30.0258278847">
        <ele>0.0</ele>
        <time>2026-04-25T14:43:34.000Z</time>
    </trkpt>
    <trkpt lat="59.1027545929" lon="30.0258278847">
        <ele>0.0</ele>
        <time>2026-04-25T14:43:37.000Z</time>
    </trkpt>
    <trkpt lat="59.1027545929" lon="30.0258278847">
        <ele>0.0</ele>
        <time>2026-04-25T14:43:39.000Z</time>
    </trkpt>
    <trkpt lat="59.1027545929" lon="30.0258278847">
        <ele>0.0</ele>
        <time>2026-04-25T14:43:42.000Z</time>
    </trkpt>
    <trkpt lat="59.1027545929" lon="30.0258278847">
        <ele>0.0</ele>
        <time>2026-04-25T14:43:44.000Z</time>
    </trkpt>
    <trkpt lat="59.1027545929" lon="30.0258278847">
        <ele>0.0</ele>
        <time>2026-04-25T14:43:47.000Z</time>
    </trkpt>
    <trkpt lat="59.1027545929" lon="30.0258278847">
        <ele>0.0</ele>
        <time>2026-04-25T14:43:49.000Z</time>
    </trkpt>
    <trkpt lat="59.1027545929" lon="30.0258278847">
        <ele>0.0</ele>
        <time>2026-04-25T14:43:52.000Z</time>
    </trkpt>
    <trkpt lat="59.1027331352" lon="30.0258278847">
        <ele>0.0</ele>
        <time>2026-04-25T14:43:54.000Z</time>
    </trkpt>
    <trkpt lat="59.1027116776" lon="30.025806427">
        <ele>0.0</ele>
        <time>2026-04-25T14:43:57.000Z</time>
    </trkpt>
    <trkpt lat="59.1026902199" lon="30.0258278847">
        <ele>0.0</ele>
        <time>2026-04-25T14:43:59.000Z</time>
    </trkpt>
    <trkpt lat="59.1026902199" lon="30.0258278847">
        <ele>0.0</ele>
        <time>2026-04-25T14:44:02.000Z</time>
    </trkpt>
    <trkpt lat="59.1026687622" lon="30.0257849693">
        <ele>0.0</ele>
        <time>2026-04-25T14:44:04.000Z</time>
    </trkpt>
    <trkpt lat="59.1026687622" lon="30.0257849693">
        <ele>0.0</ele>
        <time>2026-04-25T14:44:07.000Z</time>
    </trkpt>
    <trkpt lat="59.1026473045" lon="30.0257849693">
        <ele>0.0</ele>
        <time>2026-04-25T14:44:09.000Z</time>
    </trkpt>
    <trkpt lat="59.1026258469" lon="30.0257849693">
        <ele>0.0</ele>
        <time>2026-04-25T14:44:12.000Z</time>
    </trkpt>
    <trkpt lat="59.1026043892" lon="30.0257635117">
        <ele>0.0</ele>
        <time>2026-04-25T14:44:14.000Z</time>
    </trkpt>
    <trkpt lat="59.1025829315" lon="30.0257635117">
        <ele>0.0</ele>
        <time>2026-04-25T14:44:17.000Z</time>
    </trkpt>
    <trkpt lat="59.1025400162" lon="30.025742054">
        <ele>0.0</ele>
        <time>2026-04-25T14:44:19.000Z</time>
    </trkpt>
    <trkpt lat="59.1025400162" lon="30.025742054">
        <ele>0.0</ele>
        <time>2026-04-25T14:44:22.000Z</time>
    </trkpt>
    <trkpt lat="59.1024971008" lon="30.0257205963">
        <ele>0.0</ele>
        <time>2026-04-25T14:44:24.000Z</time>
    </trkpt>
    <trkpt lat="59.1024971008" lon="30.025742054">
        <ele>0.0</ele>
        <time>2026-04-25T14:44:27.000Z</time>
    </trkpt>
    <trkpt lat="59.1024756432" lon="30.025742054">
        <ele>0.0</ele>
        <time>2026-04-25T14:44:29.000Z</time>
    </trkpt>
    <trkpt lat="59.1024756432" lon="30.0257635117">
        <ele>0.0</ele>
        <time>2026-04-25T14:44:32.000Z</time>
    </trkpt>
    <trkpt lat="59.1024541855" lon="30.0257849693">
        <ele>0.0</ele>
        <time>2026-04-25T14:44:34.000Z</time>
    </trkpt>
    <trkpt lat="59.1024541855" lon="30.025806427">
        <ele>0.0</ele>
        <time>2026-04-25T14:44:37.000Z</time>
    </trkpt>
    <trkpt lat="59.1024541855" lon="30.0258278847">
        <ele>0.0</ele>
        <time>2026-04-25T14:44:39.000Z</time>
    </trkpt>
    <trkpt lat="59.1024327278" lon="30.0258493423">
        <ele>0.0</ele>
        <time>2026-04-25T14:44:42.000Z</time>
    </trkpt>
    <trkpt lat="59.1024327278" lon="30.0258493423">
        <ele>0.0</ele>
        <time>2026-04-25T14:44:44.000Z</time>
    </trkpt>
    <trkpt lat="59.1024327278" lon="30.0258708">
        <ele>0.0</ele>
        <time>2026-04-25T14:44:47.000Z</time>
    </trkpt>
    <trkpt lat="59.1024327278" lon="30.0258493423">
        <ele>0.0</ele>
        <time>2026-04-25T14:44:49.000Z</time>
    </trkpt>
    <trkpt lat="59.1024541855" lon="30.0258493423">
        <ele>0.0</ele>
        <time>2026-04-25T14:44:52.000Z</time>
    </trkpt>
    <trkpt lat="59.1024541855" lon="30.0258493423">
        <ele>0.0</ele>
        <time>2026-04-25T14:44:54.000Z</time>
    </trkpt>
    <trkpt lat="59.1024541855" lon="30.0258493423">
        <ele>0.0</ele>
        <time>2026-04-25T14:44:57.000Z</time>
    </trkpt>
    <trkpt lat="59.1024541855" lon="30.0258278847">
        <ele>0.0</ele>
        <time>2026-04-25T14:44:59.000Z</time>
    </trkpt>
    <trkpt lat="59.1024541855" lon="30.025806427">
        <ele>0.0</ele>
        <time>2026-04-25T14:45:02.000Z</time>
    </trkpt>
    <trkpt lat="59.1024541855" lon="30.025806427">
        <ele>0.0</ele>
        <time>2026-04-25T14:45:04.000Z</time>
    </trkpt>
    <trkpt lat="59.1024112701" lon="30.0257849693">
        <ele>0.0</ele>
        <time>2026-04-25T14:45:07.000Z</time>
    </trkpt>
    <trkpt lat="59.1023254395" lon="30.0257635117">
        <ele>0.0</ele>
        <time>2026-04-25T14:45:09.000Z</time>
    </trkpt>
    <trkpt lat="59.1023254395" lon="30.0257635117">
        <ele>0.0</ele>
        <time>2026-04-25T14:45:12.000Z</time>
    </trkpt>
    <trkpt lat="59.1023254395" lon="30.0257849693">
        <ele>0.0</ele>
        <time>2026-04-25T14:45:14.000Z</time>
    </trkpt>
    <trkpt lat="59.1023039818" lon="30.0257849693">
        <ele>0.0</ele>
        <time>2026-04-25T14:45:17.000Z</time>
    </trkpt>
    <trkpt lat="59.1023254395" lon="30.0257635117">
        <ele>0.0</ele>
        <time>2026-04-25T14:45:19.000Z</time>
    </trkpt>
    <trkpt lat="59.1023468971" lon="30.0257635117">
        <ele>0.0</ele>
        <time>2026-04-25T14:45:22.000Z</time>
    </trkpt>
    <trkpt lat="59.1023039818" lon="30.0257205963">
        <ele>0.0</ele>
        <time>2026-04-25T14:45:24.000Z</time>
    </trkpt>
    <trkpt lat="59.1022825241" lon="30.0257205963">
        <ele>0.0</ele>
        <time>2026-04-25T14:45:27.000Z</time>
    </trkpt>
    <trkpt lat="59.1022610664" lon="30.0257205963">
        <ele>0.0</ele>
        <time>2026-04-25T14:45:29.000Z</time>
    </trkpt>
    <trkpt lat="59.1022396088" lon="30.0257205963">
        <ele>0.0</ele>
        <time>2026-04-25T14:45:32.000Z</time>
    </trkpt>
    <trkpt lat="59.1022396088" lon="30.0257205963">
        <ele>0.0</ele>
        <time>2026-04-25T14:45:34.000Z</time>
    </trkpt>
    <trkpt lat="59.1022396088" lon="30.025742054">
        <ele>0.0</ele>
        <time>2026-04-25T14:45:37.000Z</time>
    </trkpt>
    <trkpt lat="59.1022181511" lon="30.025742054">
        <ele>0.0</ele>
        <time>2026-04-25T14:45:39.000Z</time>
    </trkpt>
    <trkpt lat="59.1021966934" lon="30.0257205963">
        <ele>0.0</ele>
        <time>2026-04-25T14:45:42.000Z</time>
    </trkpt>
    <trkpt lat="59.1021323204" lon="30.025742054">
        <ele>0.0</ele>
        <time>2026-04-25T14:45:44.000Z</time>
    </trkpt>
    <trkpt lat="59.1021108627" lon="30.025742054">
        <ele>0.0</ele>
        <time>2026-04-25T14:45:47.000Z</time>
    </trkpt>
    <trkpt lat="59.1020894051" lon="30.025742054">
        <ele>0.0</ele>
        <time>2026-04-25T14:45:49.000Z</time>
    </trkpt>
    <trkpt lat="59.1020894051" lon="30.025742054">
        <ele>0.0</ele>
        <time>2026-04-25T14:45:52.000Z</time>
    </trkpt>
    <trkpt lat="59.1020464897" lon="30.025742054">
        <ele>0.0</ele>
        <time>2026-04-25T14:45:54.000Z</time>
    </trkpt>
    <trkpt lat="59.102025032" lon="30.0257635117">
        <ele>0.0</ele>
        <time>2026-04-25T14:45:57.000Z</time>
    </trkpt>
    <trkpt lat="59.102025032" lon="30.0257635117">
        <ele>0.0</ele>
        <time>2026-04-25T14:45:59.000Z</time>
    </trkpt>
    <trkpt lat="59.1019821167" lon="30.0257849693">
        <ele>0.0</ele>
        <time>2026-04-25T14:46:02.000Z</time>
    </trkpt>
    <trkpt lat="59.1019392014" lon="30.025806427">
        <ele>0.0</ele>
        <time>2026-04-25T14:46:04.000Z</time>
    </trkpt>
    <trkpt lat="59.1019392014" lon="30.0258278847">
        <ele>0.0</ele>
        <time>2026-04-25T14:46:07.000Z</time>
    </trkpt>
    <trkpt lat="59.1019392014" lon="30.0258278847">
        <ele>0.0</ele>
        <time>2026-04-25T14:46:09.000Z</time>
    </trkpt>
    <trkpt lat="59.1019177437" lon="30.025806427">
        <ele>0.0</ele>
        <time>2026-04-25T14:46:12.000Z</time>
    </trkpt>
    <trkpt lat="59.1018748283" lon="30.025806427">
        <ele>0.0</ele>
        <time>2026-04-25T14:46:14.000Z</time>
    </trkpt>
    <trkpt lat="59.1018533707" lon="30.0258493423">
        <ele>0.0</ele>
        <time>2026-04-25T14:46:17.000Z</time>
    </trkpt>
    <trkpt lat="59.1018533707" lon="30.025935173">
        <ele>0.0</ele>
        <time>2026-04-25T14:46:19.000Z</time>
    </trkpt>
    <trkpt lat="59.1018748283" lon="30.0259780884">
        <ele>0.0</ele>
        <time>2026-04-25T14:46:22.000Z</time>
    </trkpt>
    <trkpt lat="59.1018533707" lon="30.0259995461">
        <ele>0.0</ele>
        <time>2026-04-25T14:46:24.000Z</time>
    </trkpt>
    <trkpt lat="59.1018104553" lon="30.0260210037">
        <ele>0.0</ele>
        <time>2026-04-25T14:46:27.000Z</time>
    </trkpt>
    <trkpt lat="59.10176754" lon="30.0259995461">
        <ele>0.0</ele>
        <time>2026-04-25T14:46:29.000Z</time>
    </trkpt>
    <trkpt lat="59.1017460823" lon="30.0259780884">
        <ele>0.0</ele>
        <time>2026-04-25T14:46:32.000Z</time>
    </trkpt>
    <trkpt lat="59.1017460823" lon="30.0259780884">
        <ele>0.0</ele>
        <time>2026-04-25T14:46:34.000Z</time>
    </trkpt>
    <trkpt lat="59.1017460823" lon="30.0259780884">
        <ele>0.0</ele>
        <time>2026-04-25T14:46:37.000Z</time>
    </trkpt>
    <trkpt lat="59.1017460823" lon="30.0259780884">
        <ele>0.0</ele>
        <time>2026-04-25T14:46:39.000Z</time>
    </trkpt>
    <trkpt lat="59.1017460823" lon="30.0259780884">
        <ele>0.0</ele>
        <time>2026-04-25T14:46:42.000Z</time>
    </trkpt>
    <trkpt lat="59.1017460823" lon="30.0259780884">
        <ele>0.0</ele>
        <time>2026-04-25T14:46:44.000Z</time>
    </trkpt>
    <trkpt lat="59.1017460823" lon="30.0259780884">
        <ele>0.0</ele>
        <time>2026-04-25T14:46:47.000Z</time>
    </trkpt>
    <trkpt lat="59.1017460823" lon="30.0259780884">
        <ele>0.0</ele>
        <time>2026-04-25T14:46:49.000Z</time>
    </trkpt>
    <trkpt lat="59.1017460823" lon="30.0259780884">
        <ele>0.0</ele>
        <time>2026-04-25T14:46:52.000Z</time>
    </trkpt>
    <trkpt lat="59.1017460823" lon="30.0259780884">
        <ele>0.0</ele>
        <time>2026-04-25T14:46:54.000Z</time>
    </trkpt>
    <trkpt lat="59.1017460823" lon="30.0259780884">
        <ele>0.0</ele>
        <time>2026-04-25T14:46:57.000Z</time>
    </trkpt>
    <trkpt lat="59.1017460823" lon="30.0259780884">
        <ele>0.0</ele>
        <time>2026-04-25T14:46:59.000Z</time>
    </trkpt>
    <trkpt lat="59.1017460823" lon="30.0259780884">
        <ele>0.0</ele>
        <time>2026-04-25T14:47:02.000Z</time>
    </trkpt>
    <trkpt lat="59.1017460823" lon="30.0259780884">
        <ele>0.0</ele>
        <time>2026-04-25T14:47:04.000Z</time>
    </trkpt>
    <trkpt lat="59.1017460823" lon="30.0259780884">
        <ele>0.0</ele>
        <time>2026-04-25T14:47:07.000Z</time>
    </trkpt>
    <trkpt lat="59.1017460823" lon="30.0259780884">
        <ele>0.0</ele>
        <time>2026-04-25T14:47:09.000Z</time>
    </trkpt>
    <trkpt lat="59.1017460823" lon="30.0259780884">
        <ele>0.0</ele>
        <time>2026-04-25T14:47:12.000Z</time>
    </trkpt>
    <trkpt lat="59.1017460823" lon="30.0259780884">
        <ele>0.0</ele>
        <time>2026-04-25T14:47:14.000Z</time>
    </trkpt>
    <trkpt lat="59.1017460823" lon="30.0259780884">
        <ele>0.0</ele>
        <time>2026-04-25T14:47:17.000Z</time>
    </trkpt>
    <trkpt lat="59.1017460823" lon="30.0259995461">
        <ele>0.0</ele>
        <time>2026-04-25T14:47:19.000Z</time>
    </trkpt>
    <trkpt lat="59.1017246246" lon="30.0259995461">
        <ele>0.0</ele>
        <time>2026-04-25T14:47:22.000Z</time>
    </trkpt>
    <trkpt lat="59.1017246246" lon="30.0259995461">
        <ele>0.0</ele>
        <time>2026-04-25T14:47:24.000Z</time>
    </trkpt>
    <trkpt lat="59.101703167" lon="30.0260210037">
        <ele>0.0</ele>
        <time>2026-04-25T14:47:27.000Z</time>
    </trkpt>
    <trkpt lat="59.1016817093" lon="30.0260424614">
        <ele>0.0</ele>
        <time>2026-04-25T14:47:29.000Z</time>
    </trkpt>
    <trkpt lat="59.1016817093" lon="30.0260639191">
        <ele>0.0</ele>
        <time>2026-04-25T14:47:32.000Z</time>
    </trkpt>
    <trkpt lat="59.1016602516" lon="30.0260853767">
        <ele>0.0</ele>
        <time>2026-04-25T14:47:34.000Z</time>
    </trkpt>
    <trkpt lat="59.1016387939" lon="30.0261497498">
        <ele>0.0</ele>
        <time>2026-04-25T14:47:37.000Z</time>
    </trkpt>
    <trkpt lat="59.1016173363" lon="30.0261926651">
        <ele>0.0</ele>
        <time>2026-04-25T14:47:39.000Z</time>
    </trkpt>
    <trkpt lat="59.1015958786" lon="30.0262784958">
        <ele>0.0</ele>
        <time>2026-04-25T14:47:42.000Z</time>
    </trkpt>
    <trkpt lat="59.1015744209" lon="30.0262784958">
        <ele>0.0</ele>
        <time>2026-04-25T14:47:44.000Z</time>
    </trkpt>
    <trkpt lat="59.1015529633" lon="30.0263214111">
        <ele>0.0</ele>
        <time>2026-04-25T14:47:47.000Z</time>
    </trkpt>
    <trkpt lat="59.1015529633" lon="30.0263643265">
        <ele>0.0</ele>
        <time>2026-04-25T14:47:49.000Z</time>
    </trkpt>
    <trkpt lat="59.1015315056" lon="30.0264286995">
        <ele>0.0</ele>
        <time>2026-04-25T14:47:52.000Z</time>
    </trkpt>
    <trkpt lat="59.1015315056" lon="30.0264286995">
        <ele>0.0</ele>
        <time>2026-04-25T14:47:54.000Z</time>
    </trkpt>
    <trkpt lat="59.1015315056" lon="30.0264286995">
        <ele>0.0</ele>
        <time>2026-04-25T14:47:57.000Z</time>
    </trkpt>
    <trkpt lat="59.1015315056" lon="30.0264286995">
        <ele>0.0</ele>
        <time>2026-04-25T14:47:59.000Z</time>
    </trkpt>
    <trkpt lat="59.1015315056" lon="30.0264501572">
        <ele>0.0</ele>
        <time>2026-04-25T14:48:02.000Z</time>
    </trkpt>
    <trkpt lat="59.1015529633" lon="30.0264501572">
        <ele>0.0</ele>
        <time>2026-04-25T14:48:04.000Z</time>
    </trkpt>
    <trkpt lat="59.1015315056" lon="30.0264286995">
        <ele>0.0</ele>
        <time>2026-04-25T14:48:07.000Z</time>
    </trkpt>
    <trkpt lat="59.1014885902" lon="30.0264501572">
        <ele>0.0</ele>
        <time>2026-04-25T14:48:09.000Z</time>
    </trkpt>
    <trkpt lat="59.1014456749" lon="30.0264286995">
        <ele>0.0</ele>
        <time>2026-04-25T14:48:12.000Z</time>
    </trkpt>
    <trkpt lat="59.1014027596" lon="30.0264501572">
        <ele>0.0</ele>
        <time>2026-04-25T14:48:14.000Z</time>
    </trkpt>
    <trkpt lat="59.1013813019" lon="30.0264930725">
        <ele>0.0</ele>
        <time>2026-04-25T14:48:17.000Z</time>
    </trkpt>
    <trkpt lat="59.1013598442" lon="30.0265359879">
        <ele>0.0</ele>
        <time>2026-04-25T14:48:19.000Z</time>
    </trkpt>
    <trkpt lat="59.1013383865" lon="30.0265789032">
        <ele>0.0</ele>
        <time>2026-04-25T14:48:22.000Z</time>
    </trkpt>
    <trkpt lat="59.1013598442" lon="30.0266218185">
        <ele>0.0</ele>
        <time>2026-04-25T14:48:24.000Z</time>
    </trkpt>
    <trkpt lat="59.1013598442" lon="30.0266432762">
        <ele>0.0</ele>
        <time>2026-04-25T14:48:27.000Z</time>
    </trkpt>
    <trkpt lat="59.1013598442" lon="30.0266647339">
        <ele>0.0</ele>
        <time>2026-04-25T14:48:29.000Z</time>
    </trkpt>
    <trkpt lat="59.1013383865" lon="30.0267076492">
        <ele>0.0</ele>
        <time>2026-04-25T14:48:32.000Z</time>
    </trkpt>
    <trkpt lat="59.1013169289" lon="30.0267076492">
        <ele>0.0</ele>
        <time>2026-04-25T14:48:34.000Z</time>
    </trkpt>
    <trkpt lat="59.1012740135" lon="30.0266861916">
        <ele>0.0</ele>
        <time>2026-04-25T14:48:37.000Z</time>
    </trkpt>
    <trkpt lat="59.1012740135" lon="30.0266647339">
        <ele>0.0</ele>
        <time>2026-04-25T14:48:39.000Z</time>
    </trkpt>
    <trkpt lat="59.1012525558" lon="30.0267291069">
        <ele>0.0</ele>
        <time>2026-04-25T14:48:42.000Z</time>
    </trkpt>
    <trkpt lat="59.1012310982" lon="30.0268149376">
        <ele>0.0</ele>
        <time>2026-04-25T14:48:44.000Z</time>
    </trkpt>
    <trkpt lat="59.1012096405" lon="30.0268578529">
        <ele>0.0</ele>
        <time>2026-04-25T14:48:47.000Z</time>
    </trkpt>
    <trkpt lat="59.1011881828" lon="30.0268793106">
        <ele>0.0</ele>
        <time>2026-04-25T14:48:49.000Z</time>
    </trkpt>
    <trkpt lat="59.1011881828" lon="30.0268793106">
        <ele>0.0</ele>
        <time>2026-04-25T14:48:52.000Z</time>
    </trkpt>
    <trkpt lat="59.1011667252" lon="30.0268793106">
        <ele>0.0</ele>
        <time>2026-04-25T14:48:54.000Z</time>
    </trkpt>
    <trkpt lat="59.1011452675" lon="30.0268363953">
        <ele>0.0</ele>
        <time>2026-04-25T14:48:57.000Z</time>
    </trkpt>
    <trkpt lat="59.1011452675" lon="30.0267720222">
        <ele>0.0</ele>
        <time>2026-04-25T14:48:59.000Z</time>
    </trkpt>
    <trkpt lat="59.1011452675" lon="30.0267505646">
        <ele>0.0</ele>
        <time>2026-04-25T14:49:02.000Z</time>
    </trkpt>
    <trkpt lat="59.1011667252" lon="30.0267291069">
        <ele>0.0</ele>
        <time>2026-04-25T14:49:04.000Z</time>
    </trkpt>
    <trkpt lat="59.1011452675" lon="30.0267291069">
        <ele>0.0</ele>
        <time>2026-04-25T14:49:07.000Z</time>
    </trkpt>
    <trkpt lat="59.1011238098" lon="30.0267076492">
        <ele>0.0</ele>
        <time>2026-04-25T14:49:09.000Z</time>
    </trkpt>
    <trkpt lat="59.1011023521" lon="30.0267076492">
        <ele>0.0</ele>
        <time>2026-04-25T14:49:12.000Z</time>
    </trkpt>
    <trkpt lat="59.1010808945" lon="30.0267291069">
        <ele>0.0</ele>
        <time>2026-04-25T14:49:14.000Z</time>
    </trkpt>
    <trkpt lat="59.1010594368" lon="30.0267720222">
        <ele>0.0</ele>
        <time>2026-04-25T14:49:17.000Z</time>
    </trkpt>
    <trkpt lat="59.1010594368" lon="30.0268363953">
        <ele>0.0</ele>
        <time>2026-04-25T14:49:19.000Z</time>
    </trkpt>
    <trkpt lat="59.1010379791" lon="30.0269007683">
        <ele>0.0</ele>
        <time>2026-04-25T14:49:22.000Z</time>
    </trkpt>
    <trkpt lat="59.1010165215" lon="30.0269436836">
        <ele>0.0</ele>
        <time>2026-04-25T14:49:24.000Z</time>
    </trkpt>
    <trkpt lat="59.1010165215" lon="30.0269436836">
        <ele>0.0</ele>
        <time>2026-04-25T14:49:27.000Z</time>
    </trkpt>
    <trkpt lat="59.1010165215" lon="30.0269436836">
        <ele>0.0</ele>
        <time>2026-04-25T14:49:29.000Z</time>
    </trkpt>
    <trkpt lat="59.1010165215" lon="30.0269436836">
        <ele>0.0</ele>
        <time>2026-04-25T14:49:32.000Z</time>
    </trkpt>
    <trkpt lat="59.1010165215" lon="30.026922226">
        <ele>0.0</ele>
        <time>2026-04-25T14:49:34.000Z</time>
    </trkpt>
    <trkpt lat="59.1010165215" lon="30.026922226">
        <ele>0.0</ele>
        <time>2026-04-25T14:49:37.000Z</time>
    </trkpt>
    <trkpt lat="59.1010165215" lon="30.026922226">
        <ele>0.0</ele>
        <time>2026-04-25T14:49:39.000Z</time>
    </trkpt>
    <trkpt lat="59.1010165215" lon="30.026922226">
        <ele>0.0</ele>
        <time>2026-04-25T14:49:42.000Z</time>
    </trkpt>
    <trkpt lat="59.1010165215" lon="30.026922226">
        <ele>0.0</ele>
        <time>2026-04-25T14:49:44.000Z</time>
    </trkpt>
    <trkpt lat="59.1010165215" lon="30.026922226">
        <ele>0.0</ele>
        <time>2026-04-25T14:49:47.000Z</time>
    </trkpt>
    <trkpt lat="59.1010165215" lon="30.026922226">
        <ele>0.0</ele>
        <time>2026-04-25T14:49:49.000Z</time>
    </trkpt>
    <trkpt lat="59.1010165215" lon="30.0269007683">
        <ele>0.0</ele>
        <time>2026-04-25T14:49:52.000Z</time>
    </trkpt>
    <trkpt lat="59.1010165215" lon="30.0269007683">
        <ele>0.0</ele>
        <time>2026-04-25T14:49:54.000Z</time>
    </trkpt>
    <trkpt lat="59.1009950638" lon="30.0269007683">
        <ele>0.0</ele>
        <time>2026-04-25T14:49:57.000Z</time>
    </trkpt>
    <trkpt lat="59.1009521484" lon="30.026922226">
        <ele>0.0</ele>
        <time>2026-04-25T14:49:59.000Z</time>
    </trkpt>
    <trkpt lat="59.1009521484" lon="30.026922226">
        <ele>0.0</ele>
        <time>2026-04-25T14:50:02.000Z</time>
    </trkpt>
    <trkpt lat="59.1009306908" lon="30.026922226">
        <ele>0.0</ele>
        <time>2026-04-25T14:50:04.000Z</time>
    </trkpt>
    <trkpt lat="59.1009306908" lon="30.026922226">
        <ele>0.0</ele>
        <time>2026-04-25T14:50:07.000Z</time>
    </trkpt>
    <trkpt lat="59.1009306908" lon="30.026922226">
        <ele>0.0</ele>
        <time>2026-04-25T14:50:09.000Z</time>
    </trkpt>
    <trkpt lat="59.1009306908" lon="30.026922226">
        <ele>0.0</ele>
        <time>2026-04-25T14:50:12.000Z</time>
    </trkpt>
    <trkpt lat="59.1008877754" lon="30.026922226">
        <ele>0.0</ele>
        <time>2026-04-25T14:50:14.000Z</time>
    </trkpt>
    <trkpt lat="59.1008663177" lon="30.0269436836">
        <ele>0.0</ele>
        <time>2026-04-25T14:50:17.000Z</time>
    </trkpt>
    <trkpt lat="59.1008234024" lon="30.0269651413">
        <ele>0.0</ele>
        <time>2026-04-25T14:50:19.000Z</time>
    </trkpt>
    <trkpt lat="59.1008019447" lon="30.0269651413">
        <ele>0.0</ele>
        <time>2026-04-25T14:50:22.000Z</time>
    </trkpt>
    <trkpt lat="59.1007590294" lon="30.026986599">
        <ele>0.0</ele>
        <time>2026-04-25T14:50:24.000Z</time>
    </trkpt>
    <trkpt lat="59.1007590294" lon="30.026986599">
        <ele>0.0</ele>
        <time>2026-04-25T14:50:27.000Z</time>
    </trkpt>
    <trkpt lat="59.100716114" lon="30.026986599">
        <ele>0.0</ele>
        <time>2026-04-25T14:50:29.000Z</time>
    </trkpt>
    <trkpt lat="59.1006946564" lon="30.026986599">
        <ele>0.0</ele>
        <time>2026-04-25T14:50:32.000Z</time>
    </trkpt>
    <trkpt lat="59.1006731987" lon="30.026986599">
        <ele>0.0</ele>
        <time>2026-04-25T14:50:34.000Z</time>
    </trkpt>
    <trkpt lat="59.1006302834" lon="30.0269651413">
        <ele>0.0</ele>
        <time>2026-04-25T14:50:37.000Z</time>
    </trkpt>
    <trkpt lat="59.1006088257" lon="30.0269436836">
        <ele>0.0</ele>
        <time>2026-04-25T14:50:39.000Z</time>
    </trkpt>
    <trkpt lat="59.100587368" lon="30.0269007683">
        <ele>0.0</ele>
        <time>2026-04-25T14:50:42.000Z</time>
    </trkpt>
    <trkpt lat="59.1005659103" lon="30.0268578529">
        <ele>0.0</ele>
        <time>2026-04-25T14:50:44.000Z</time>
    </trkpt>
    <trkpt lat="59.1005444527" lon="30.0268793106">
        <ele>0.0</ele>
        <time>2026-04-25T14:50:47.000Z</time>
    </trkpt>
    <trkpt lat="59.100522995" lon="30.0269436836">
        <ele>0.0</ele>
        <time>2026-04-25T14:50:49.000Z</time>
    </trkpt>
    <trkpt lat="59.1005015373" lon="30.026986599">
        <ele>0.0</ele>
        <time>2026-04-25T14:50:52.000Z</time>
    </trkpt>
    <trkpt lat="59.1004800797" lon="30.027050972">
        <ele>0.0</ele>
        <time>2026-04-25T14:50:54.000Z</time>
    </trkpt>
    <trkpt lat="59.1004800797" lon="30.027050972">
        <ele>0.0</ele>
        <time>2026-04-25T14:50:57.000Z</time>
    </trkpt>
    <trkpt lat="59.1004800797" lon="30.0271582603">
        <ele>0.0</ele>
        <time>2026-04-25T14:50:59.000Z</time>
    </trkpt>
    <trkpt lat="59.1004800797" lon="30.0272011757">
        <ele>0.0</ele>
        <time>2026-04-25T14:51:02.000Z</time>
    </trkpt>
    <trkpt lat="59.1004800797" lon="30.0273084641">
        <ele>0.0</ele>
        <time>2026-04-25T14:51:04.000Z</time>
    </trkpt>
    <trkpt lat="59.1004800797" lon="30.0273299217">
        <ele>0.0</ele>
        <time>2026-04-25T14:51:07.000Z</time>
    </trkpt>
    <trkpt lat="59.100458622" lon="30.0272870064">
        <ele>0.0</ele>
        <time>2026-04-25T14:51:09.000Z</time>
    </trkpt>
    <trkpt lat="59.100458622" lon="30.0272870064">
        <ele>0.0</ele>
        <time>2026-04-25T14:51:12.000Z</time>
    </trkpt>
    <trkpt lat="59.100458622" lon="30.0272870064">
        <ele>0.0</ele>
        <time>2026-04-25T14:51:14.000Z</time>
    </trkpt>
    <trkpt lat="59.100458622" lon="30.0272870064">
        <ele>0.0</ele>
        <time>2026-04-25T14:51:17.000Z</time>
    </trkpt>
    <trkpt lat="59.100458622" lon="30.0272870064">
        <ele>0.0</ele>
        <time>2026-04-25T14:51:19.000Z</time>
    </trkpt>
    <trkpt lat="59.100458622" lon="30.0272870064">
        <ele>0.0</ele>
        <time>2026-04-25T14:51:22.000Z</time>
    </trkpt>
    <trkpt lat="59.100458622" lon="30.0273513794">
        <ele>0.0</ele>
        <time>2026-04-25T14:51:24.000Z</time>
    </trkpt>
    <trkpt lat="59.100458622" lon="30.0273942947">
        <ele>0.0</ele>
        <time>2026-04-25T14:51:27.000Z</time>
    </trkpt>
    <trkpt lat="59.1004371643" lon="30.0273728371">
        <ele>0.0</ele>
        <time>2026-04-25T14:51:29.000Z</time>
    </trkpt>
    <trkpt lat="59.100458622" lon="30.0273084641">
        <ele>0.0</ele>
        <time>2026-04-25T14:51:32.000Z</time>
    </trkpt>
    <trkpt lat="59.100458622" lon="30.0272655487">
        <ele>0.0</ele>
        <time>2026-04-25T14:51:34.000Z</time>
    </trkpt>
    <trkpt lat="59.1004371643" lon="30.0272870064">
        <ele>0.0</ele>
        <time>2026-04-25T14:51:37.000Z</time>
    </trkpt>
    <trkpt lat="59.100394249" lon="30.0272655487">
        <ele>0.0</ele>
        <time>2026-04-25T14:51:39.000Z</time>
    </trkpt>
    <trkpt lat="59.1003727913" lon="30.0272655487">
        <ele>0.0</ele>
        <time>2026-04-25T14:51:42.000Z</time>
    </trkpt>
    <trkpt lat="59.1003298759" lon="30.0273084641">
        <ele>0.0</ele>
        <time>2026-04-25T14:51:44.000Z</time>
    </trkpt>
    <trkpt lat="59.1003298759" lon="30.0273513794">
        <ele>0.0</ele>
        <time>2026-04-25T14:51:47.000Z</time>
    </trkpt>
    <trkpt lat="59.1003084183" lon="30.0273942947">
        <ele>0.0</ele>
        <time>2026-04-25T14:51:49.000Z</time>
    </trkpt>
    <trkpt lat="59.1002869606" lon="30.0274157524">
        <ele>0.0</ele>
        <time>2026-04-25T14:51:52.000Z</time>
    </trkpt>
    <trkpt lat="59.1002655029" lon="30.0274801254">
        <ele>0.0</ele>
        <time>2026-04-25T14:51:54.000Z</time>
    </trkpt>
    <trkpt lat="59.1002440453" lon="30.0275015831">
        <ele>0.0</ele>
        <time>2026-04-25T14:51:57.000Z</time>
    </trkpt>
    <trkpt lat="59.1002225876" lon="30.0275230408">
        <ele>0.0</ele>
        <time>2026-04-25T14:51:59.000Z</time>
    </trkpt>
    <trkpt lat="59.1002011299" lon="30.0275444984">
        <ele>0.0</ele>
        <time>2026-04-25T14:52:02.000Z</time>
    </trkpt>
    <trkpt lat="59.1002011299" lon="30.0275659561">
        <ele>0.0</ele>
        <time>2026-04-25T14:52:04.000Z</time>
    </trkpt>
    <trkpt lat="59.1002011299" lon="30.0276088715">
        <ele>0.0</ele>
        <time>2026-04-25T14:52:07.000Z</time>
    </trkpt>
    <trkpt lat="59.1001796722" lon="30.0276088715">
        <ele>0.0</ele>
        <time>2026-04-25T14:52:09.000Z</time>
    </trkpt>
    <trkpt lat="59.1001796722" lon="30.0276088715">
        <ele>0.0</ele>
        <time>2026-04-25T14:52:12.000Z</time>
    </trkpt>
    <trkpt lat="59.1001796722" lon="30.0275874138">
        <ele>0.0</ele>
        <time>2026-04-25T14:52:14.000Z</time>
    </trkpt>
    <trkpt lat="59.1001796722" lon="30.0275874138">
        <ele>0.0</ele>
        <time>2026-04-25T14:52:17.000Z</time>
    </trkpt>
    <trkpt lat="59.1001796722" lon="30.0275874138">
        <ele>0.0</ele>
        <time>2026-04-25T14:52:19.000Z</time>
    </trkpt>
    <trkpt lat="59.1001796722" lon="30.0276303291">
        <ele>0.0</ele>
        <time>2026-04-25T14:52:22.000Z</time>
    </trkpt>
    <trkpt lat="59.1001582146" lon="30.0276947021">
        <ele>0.0</ele>
        <time>2026-04-25T14:52:24.000Z</time>
    </trkpt>
    <trkpt lat="59.1001367569" lon="30.0277376175">
        <ele>0.0</ele>
        <time>2026-04-25T14:52:27.000Z</time>
    </trkpt>
    <trkpt lat="59.1001152992" lon="30.0277590752">
        <ele>0.0</ele>
        <time>2026-04-25T14:52:29.000Z</time>
    </trkpt>
    <trkpt lat="59.1001152992" lon="30.0277805328">
        <ele>0.0</ele>
        <time>2026-04-25T14:52:32.000Z</time>
    </trkpt>
    <trkpt lat="59.1001152992" lon="30.0278449059">
        <ele>0.0</ele>
        <time>2026-04-25T14:52:34.000Z</time>
    </trkpt>
    <trkpt lat="59.1001152992" lon="30.0278878212">
        <ele>0.0</ele>
        <time>2026-04-25T14:52:37.000Z</time>
    </trkpt>
    <trkpt lat="59.1000938416" lon="30.0279092789">
        <ele>0.0</ele>
        <time>2026-04-25T14:52:39.000Z</time>
    </trkpt>
    <trkpt lat="59.1000938416" lon="30.0279736519">
        <ele>0.0</ele>
        <time>2026-04-25T14:52:42.000Z</time>
    </trkpt>
    <trkpt lat="59.1000938416" lon="30.0280380249">
        <ele>0.0</ele>
        <time>2026-04-25T14:52:44.000Z</time>
    </trkpt>
    <trkpt lat="59.1000509262" lon="30.0280594826">
        <ele>0.0</ele>
        <time>2026-04-25T14:52:47.000Z</time>
    </trkpt>
    <trkpt lat="59.1000080109" lon="30.0281238556">
        <ele>0.0</ele>
        <time>2026-04-25T14:52:49.000Z</time>
    </trkpt>
    <trkpt lat="59.0999865532" lon="30.0281238556">
        <ele>0.0</ele>
        <time>2026-04-25T14:52:52.000Z</time>
    </trkpt>
    <trkpt lat="59.0999650955" lon="30.0281238556">
        <ele>0.0</ele>
        <time>2026-04-25T14:52:54.000Z</time>
    </trkpt>
    <trkpt lat="59.0999436378" lon="30.0281453133">
        <ele>0.0</ele>
        <time>2026-04-25T14:52:57.000Z</time>
    </trkpt>
    <trkpt lat="59.0999221802" lon="30.0281238556">
        <ele>0.0</ele>
        <time>2026-04-25T14:52:59.000Z</time>
    </trkpt>
    <trkpt lat="59.0999007225" lon="30.0281238556">
        <ele>0.0</ele>
        <time>2026-04-25T14:53:02.000Z</time>
    </trkpt>
    <trkpt lat="59.0998578072" lon="30.0281238556">
        <ele>0.0</ele>
        <time>2026-04-25T14:53:04.000Z</time>
    </trkpt>
    <trkpt lat="59.0998578072" lon="30.0281238556">
        <ele>0.0</ele>
        <time>2026-04-25T14:53:07.000Z</time>
    </trkpt>
    <trkpt lat="59.0998578072" lon="30.0281667709">
        <ele>0.0</ele>
        <time>2026-04-25T14:53:09.000Z</time>
    </trkpt>
    <trkpt lat="59.0998578072" lon="30.028231144">
        <ele>0.0</ele>
        <time>2026-04-25T14:53:12.000Z</time>
    </trkpt>
    <trkpt lat="59.0998363495" lon="30.0282740593">
        <ele>0.0</ele>
        <time>2026-04-25T14:53:14.000Z</time>
    </trkpt>
    <trkpt lat="59.0998148918" lon="30.0282740593">
        <ele>0.0</ele>
        <time>2026-04-25T14:53:17.000Z</time>
    </trkpt>
    <trkpt lat="59.0997719765" lon="30.028295517">
        <ele>0.0</ele>
        <time>2026-04-25T14:53:19.000Z</time>
    </trkpt>
    <trkpt lat="59.0997719765" lon="30.028295517">
        <ele>0.0</ele>
        <time>2026-04-25T14:53:22.000Z</time>
    </trkpt>
    <trkpt lat="59.0997719765" lon="30.028295517">
        <ele>0.0</ele>
        <time>2026-04-25T14:53:24.000Z</time>
    </trkpt>
    <trkpt lat="59.0997719765" lon="30.028295517">
        <ele>0.0</ele>
        <time>2026-04-25T14:53:27.000Z</time>
    </trkpt>
    <trkpt lat="59.0998363495" lon="30.0283384323">
        <ele>0.0</ele>
        <time>2026-04-25T14:53:29.000Z</time>
    </trkpt>
    <trkpt lat="59.0998578072" lon="30.02835989">
        <ele>0.0</ele>
        <time>2026-04-25T14:53:32.000Z</time>
    </trkpt>
    <trkpt lat="59.0998578072" lon="30.02835989">
        <ele>0.0</ele>
        <time>2026-04-25T14:53:34.000Z</time>
    </trkpt>
    <trkpt lat="59.0998578072" lon="30.02835989">
        <ele>0.0</ele>
        <time>2026-04-25T14:53:37.000Z</time>
    </trkpt>
    <trkpt lat="59.0998792648" lon="30.0283169746">
        <ele>0.0</ele>
        <time>2026-04-25T14:53:39.000Z</time>
    </trkpt>
    <trkpt lat="59.0998792648" lon="30.0282740593">
        <ele>0.0</ele>
        <time>2026-04-25T14:53:42.000Z</time>
    </trkpt>
    <trkpt lat="59.0999007225" lon="30.0282526016">
        <ele>0.0</ele>
        <time>2026-04-25T14:53:44.000Z</time>
    </trkpt>
    <trkpt lat="59.0999007225" lon="30.0282526016">
        <ele>0.0</ele>
        <time>2026-04-25T14:53:47.000Z</time>
    </trkpt>
    <trkpt lat="59.0998792648" lon="30.0282526016">
        <ele>0.0</ele>
        <time>2026-04-25T14:53:49.000Z</time>
    </trkpt>
    <trkpt lat="59.0999007225" lon="30.0282740593">
        <ele>0.0</ele>
        <time>2026-04-25T14:53:52.000Z</time>
    </trkpt>
    <trkpt lat="59.0998792648" lon="30.028295517">
        <ele>0.0</ele>
        <time>2026-04-25T14:53:54.000Z</time>
    </trkpt>
    <trkpt lat="59.0998578072" lon="30.0283384323">
        <ele>0.0</ele>
        <time>2026-04-25T14:53:57.000Z</time>
    </trkpt>
    <trkpt lat="59.0998578072" lon="30.0284028053">
        <ele>0.0</ele>
        <time>2026-04-25T14:53:59.000Z</time>
    </trkpt>
    <trkpt lat="59.0998578072" lon="30.0284671783">
        <ele>0.0</ele>
        <time>2026-04-25T14:54:02.000Z</time>
    </trkpt>
    <trkpt lat="59.0998792648" lon="30.0285100937">
        <ele>0.0</ele>
        <time>2026-04-25T14:54:04.000Z</time>
    </trkpt>
    <trkpt lat="59.0998792648" lon="30.0285100937">
        <ele>0.0</ele>
        <time>2026-04-25T14:54:07.000Z</time>
    </trkpt>
    <trkpt lat="59.0998792648" lon="30.0285315514">
        <ele>0.0</ele>
        <time>2026-04-25T14:54:09.000Z</time>
    </trkpt>
    <trkpt lat="59.0998363495" lon="30.0285959244">
        <ele>0.0</ele>
        <time>2026-04-25T14:54:12.000Z</time>
    </trkpt>
    <trkpt lat="59.0998148918" lon="30.0285744667">
        <ele>0.0</ele>
        <time>2026-04-25T14:54:14.000Z</time>
    </trkpt>
    <trkpt lat="59.0998363495" lon="30.0285315514">
        <ele>0.0</ele>
        <time>2026-04-25T14:54:17.000Z</time>
    </trkpt>
    <trkpt lat="59.0998363495" lon="30.0285315514">
        <ele>0.0</ele>
        <time>2026-04-25T14:54:19.000Z</time>
    </trkpt>
    <trkpt lat="59.0998363495" lon="30.0285315514">
        <ele>0.0</ele>
        <time>2026-04-25T14:54:22.000Z</time>
    </trkpt>
    <trkpt lat="59.0997934341" lon="30.0285744667">
        <ele>0.0</ele>
        <time>2026-04-25T14:54:24.000Z</time>
    </trkpt>
    <trkpt lat="59.0997719765" lon="30.0285744667">
        <ele>0.0</ele>
        <time>2026-04-25T14:54:27.000Z</time>
    </trkpt>
    <trkpt lat="59.0997076035" lon="30.0285959244">
        <ele>0.0</ele>
        <time>2026-04-25T14:54:29.000Z</time>
    </trkpt>
    <trkpt lat="59.0996646881" lon="30.028617382">
        <ele>0.0</ele>
        <time>2026-04-25T14:54:32.000Z</time>
    </trkpt>
    <trkpt lat="59.0996217728" lon="30.0286388397">
        <ele>0.0</ele>
        <time>2026-04-25T14:54:34.000Z</time>
    </trkpt>
    <trkpt lat="59.0996432304" lon="30.0286602974">
        <ele>0.0</ele>
        <time>2026-04-25T14:54:37.000Z</time>
    </trkpt>
    <trkpt lat="59.0996432304" lon="30.0286602974">
        <ele>0.0</ele>
        <time>2026-04-25T14:54:39.000Z</time>
    </trkpt>
    <trkpt lat="59.0996646881" lon="30.0288105011">
        <ele>0.0</ele>
        <time>2026-04-25T14:54:42.000Z</time>
    </trkpt>
    <trkpt lat="59.0996861458" lon="30.0288534164">
        <ele>0.0</ele>
        <time>2026-04-25T14:54:44.000Z</time>
    </trkpt>
    <trkpt lat="59.0996861458" lon="30.0288534164">
        <ele>0.0</ele>
        <time>2026-04-25T14:54:47.000Z</time>
    </trkpt>
    <trkpt lat="59.0997076035" lon="30.0288534164">
        <ele>0.0</ele>
        <time>2026-04-25T14:54:49.000Z</time>
    </trkpt>
    <trkpt lat="59.0997719765" lon="30.0288319588">
        <ele>0.0</ele>
        <time>2026-04-25T14:54:52.000Z</time>
    </trkpt>
    <trkpt lat="59.0997719765" lon="30.0288105011">
        <ele>0.0</ele>
        <time>2026-04-25T14:54:54.000Z</time>
    </trkpt>
    <trkpt lat="59.0997719765" lon="30.0288105011">
        <ele>0.0</ele>
        <time>2026-04-25T14:54:57.000Z</time>
    </trkpt>
    <trkpt lat="59.0998148918" lon="30.0288319588">
        <ele>0.0</ele>
        <time>2026-04-25T14:54:59.000Z</time>
    </trkpt>
    <trkpt lat="59.0998363495" lon="30.0288319588">
        <ele>0.0</ele>
        <time>2026-04-25T14:55:02.000Z</time>
    </trkpt>
    <trkpt lat="59.0998578072" lon="30.0288534164">
        <ele>0.0</ele>
        <time>2026-04-25T14:55:04.000Z</time>
    </trkpt>
    <trkpt lat="59.0998578072" lon="30.0288534164">
        <ele>0.0</ele>
        <time>2026-04-25T14:55:07.000Z</time>
    </trkpt>
    <trkpt lat="59.0998578072" lon="30.0288748741">
        <ele>0.0</ele>
        <time>2026-04-25T14:55:09.000Z</time>
    </trkpt>
    <trkpt lat="59.0998363495" lon="30.0289177895">
        <ele>0.0</ele>
        <time>2026-04-25T14:55:12.000Z</time>
    </trkpt>
    <trkpt lat="59.0998363495" lon="30.0289821625">
        <ele>0.0</ele>
        <time>2026-04-25T14:55:14.000Z</time>
    </trkpt>
    <trkpt lat="59.0998363495" lon="30.0289821625">
        <ele>0.0</ele>
        <time>2026-04-25T14:55:17.000Z</time>
    </trkpt>
    <trkpt lat="59.0998363495" lon="30.0290250778">
        <ele>0.0</ele>
        <time>2026-04-25T14:55:19.000Z</time>
    </trkpt>
    <trkpt lat="59.0997934341" lon="30.0290465355">
        <ele>0.0</ele>
        <time>2026-04-25T14:55:22.000Z</time>
    </trkpt>
    <trkpt lat="59.0997719765" lon="30.0290465355">
        <ele>0.0</ele>
        <time>2026-04-25T14:55:24.000Z</time>
    </trkpt>
    <trkpt lat="59.0997719765" lon="30.0290465355">
        <ele>0.0</ele>
        <time>2026-04-25T14:55:27.000Z</time>
    </trkpt>
    <trkpt lat="59.0997719765" lon="30.0290465355">
        <ele>0.0</ele>
        <time>2026-04-25T14:55:29.000Z</time>
    </trkpt>
    <trkpt lat="59.0997934341" lon="30.0290465355">
        <ele>0.0</ele>
        <time>2026-04-25T14:55:32.000Z</time>
    </trkpt>
    <trkpt lat="59.0998148918" lon="30.0290679932">
        <ele>0.0</ele>
        <time>2026-04-25T14:55:34.000Z</time>
    </trkpt>
    <trkpt lat="59.0998578072" lon="30.0290679932">
        <ele>0.0</ele>
        <time>2026-04-25T14:55:37.000Z</time>
    </trkpt>
    <trkpt lat="59.0998363495" lon="30.0290679932">
        <ele>0.0</ele>
        <time>2026-04-25T14:55:39.000Z</time>
    </trkpt>
    <trkpt lat="59.0998363495" lon="30.0290465355">
        <ele>0.0</ele>
        <time>2026-04-25T14:55:42.000Z</time>
    </trkpt>
    <trkpt lat="59.0998363495" lon="30.0290036201">
        <ele>0.0</ele>
        <time>2026-04-25T14:55:44.000Z</time>
    </trkpt>
    <trkpt lat="59.0998578072" lon="30.0289821625">
        <ele>0.0</ele>
        <time>2026-04-25T14:55:47.000Z</time>
    </trkpt>
    <trkpt lat="59.0998578072" lon="30.0289821625">
        <ele>0.0</ele>
        <time>2026-04-25T14:55:49.000Z</time>
    </trkpt>
    <trkpt lat="59.0998578072" lon="30.0289821625">
        <ele>0.0</ele>
        <time>2026-04-25T14:55:52.000Z</time>
    </trkpt>
    <trkpt lat="59.0998792648" lon="30.0289821625">
        <ele>0.0</ele>
        <time>2026-04-25T14:55:54.000Z</time>
    </trkpt>
    <trkpt lat="59.0999007225" lon="30.0289821625">
        <ele>0.0</ele>
        <time>2026-04-25T14:55:57.000Z</time>
    </trkpt>
    <trkpt lat="59.0999436378" lon="30.0289607048">
        <ele>0.0</ele>
        <time>2026-04-25T14:55:59.000Z</time>
    </trkpt>
    <trkpt lat="59.0999436378" lon="30.0289392471">
        <ele>0.0</ele>
        <time>2026-04-25T14:56:02.000Z</time>
    </trkpt>
    <trkpt lat="59.0999650955" lon="30.0288319588">
        <ele>0.0</ele>
        <time>2026-04-25T14:56:04.000Z</time>
    </trkpt>
    <trkpt lat="59.0999650955" lon="30.0287461281">
        <ele>0.0</ele>
        <time>2026-04-25T14:56:07.000Z</time>
    </trkpt>
    <trkpt lat="59.0999221802" lon="30.0287032127">
        <ele>0.0</ele>
        <time>2026-04-25T14:56:09.000Z</time>
    </trkpt>
    <trkpt lat="59.0999221802" lon="30.0286817551">
        <ele>0.0</ele>
        <time>2026-04-25T14:56:12.000Z</time>
    </trkpt>
    <trkpt lat="59.0999221802" lon="30.0286602974">
        <ele>0.0</ele>
        <time>2026-04-25T14:56:14.000Z</time>
    </trkpt>
    <trkpt lat="59.0999221802" lon="30.0286602974">
        <ele>0.0</ele>
        <time>2026-04-25T14:56:17.000Z</time>
    </trkpt>
    <trkpt lat="59.0999221802" lon="30.0286388397">
        <ele>0.0</ele>
        <time>2026-04-25T14:56:19.000Z</time>
    </trkpt>
    <trkpt lat="59.0999436378" lon="30.0286602974">
        <ele>0.0</ele>
        <time>2026-04-25T14:56:22.000Z</time>
    </trkpt>
    <trkpt lat="59.0999436378" lon="30.0286602974">
        <ele>0.0</ele>
        <time>2026-04-25T14:56:24.000Z</time>
    </trkpt>
    <trkpt lat="59.0999436378" lon="30.0286602974">
        <ele>0.0</ele>
        <time>2026-04-25T14:56:27.000Z</time>
    </trkpt>
    <trkpt lat="59.0999436378" lon="30.0286817551">
        <ele>0.0</ele>
        <time>2026-04-25T14:56:29.000Z</time>
    </trkpt>
    <trkpt lat="59.0999650955" lon="30.0286388397">
        <ele>0.0</ele>
        <time>2026-04-25T14:56:32.000Z</time>
    </trkpt>
    <trkpt lat="59.0999865532" lon="30.0286388397">
        <ele>0.0</ele>
        <time>2026-04-25T14:56:34.000Z</time>
    </trkpt>
    <trkpt lat="59.0999865532" lon="30.0286388397">
        <ele>0.0</ele>
        <time>2026-04-25T14:56:37.000Z</time>
    </trkpt>
    <trkpt lat="59.1000080109" lon="30.0287032127">
        <ele>0.0</ele>
        <time>2026-04-25T14:56:39.000Z</time>
    </trkpt>
    <trkpt lat="59.1000294685" lon="30.0287246704">
        <ele>0.0</ele>
        <time>2026-04-25T14:56:42.000Z</time>
    </trkpt>
    <trkpt lat="59.1000509262" lon="30.0288319588">
        <ele>0.0</ele>
        <time>2026-04-25T14:56:44.000Z</time>
    </trkpt>
    <trkpt lat="59.1000938416" lon="30.0288963318">
        <ele>0.0</ele>
        <time>2026-04-25T14:56:47.000Z</time>
    </trkpt>
    <trkpt lat="59.1001152992" lon="30.0289607048">
        <ele>0.0</ele>
        <time>2026-04-25T14:56:49.000Z</time>
    </trkpt>
    <trkpt lat="59.1001367569" lon="30.0290036201">
        <ele>0.0</ele>
        <time>2026-04-25T14:56:52.000Z</time>
    </trkpt>
    <trkpt lat="59.1001582146" lon="30.0290465355">
        <ele>0.0</ele>
        <time>2026-04-25T14:56:54.000Z</time>
    </trkpt>
    <trkpt lat="59.1001582146" lon="30.0290465355">
        <ele>0.0</ele>
        <time>2026-04-25T14:56:57.000Z</time>
    </trkpt>
    <trkpt lat="59.1001796722" lon="30.0290036201">
        <ele>0.0</ele>
        <time>2026-04-25T14:56:59.000Z</time>
    </trkpt>
    <trkpt lat="59.1001582146" lon="30.0289607048">
        <ele>0.0</ele>
        <time>2026-04-25T14:57:02.000Z</time>
    </trkpt>
    <trkpt lat="59.1001582146" lon="30.0288748741">
        <ele>0.0</ele>
        <time>2026-04-25T14:57:04.000Z</time>
    </trkpt>
    <trkpt lat="59.1001796722" lon="30.0288319588">
        <ele>0.0</ele>
        <time>2026-04-25T14:57:07.000Z</time>
    </trkpt>
    <trkpt lat="59.1002011299" lon="30.0287675858">
        <ele>0.0</ele>
        <time>2026-04-25T14:57:09.000Z</time>
    </trkpt>
    <trkpt lat="59.1002440453" lon="30.0287246704">
        <ele>0.0</ele>
        <time>2026-04-25T14:57:12.000Z</time>
    </trkpt>
    <trkpt lat="59.1002655029" lon="30.0287032127">
        <ele>0.0</ele>
        <time>2026-04-25T14:57:14.000Z</time>
    </trkpt>
    <trkpt lat="59.1002655029" lon="30.0287246704">
        <ele>0.0</ele>
        <time>2026-04-25T14:57:17.000Z</time>
    </trkpt>
    <trkpt lat="59.1002440453" lon="30.0287461281">
        <ele>0.0</ele>
        <time>2026-04-25T14:57:19.000Z</time>
    </trkpt>
    <trkpt lat="59.1002225876" lon="30.0287675858">
        <ele>0.0</ele>
        <time>2026-04-25T14:57:22.000Z</time>
    </trkpt>
    <trkpt lat="59.1002011299" lon="30.0288105011">
        <ele>0.0</ele>
        <time>2026-04-25T14:57:24.000Z</time>
    </trkpt>
    <trkpt lat="59.1002225876" lon="30.0288534164">
        <ele>0.0</ele>
        <time>2026-04-25T14:57:27.000Z</time>
    </trkpt>
    <trkpt lat="59.1002011299" lon="30.0288963318">
        <ele>0.0</ele>
        <time>2026-04-25T14:57:29.000Z</time>
    </trkpt>
    <trkpt lat="59.1002011299" lon="30.0288963318">
        <ele>0.0</ele>
        <time>2026-04-25T14:57:32.000Z</time>
    </trkpt>
    <trkpt lat="59.1001582146" lon="30.0288963318">
        <ele>0.0</ele>
        <time>2026-04-25T14:57:34.000Z</time>
    </trkpt>
    <trkpt lat="59.1001582146" lon="30.0289177895">
        <ele>0.0</ele>
        <time>2026-04-25T14:57:37.000Z</time>
    </trkpt>
    <trkpt lat="59.1001582146" lon="30.0289392471">
        <ele>0.0</ele>
        <time>2026-04-25T14:57:39.000Z</time>
    </trkpt>
    <trkpt lat="59.1001582146" lon="30.0289821625">
        <ele>0.0</ele>
        <time>2026-04-25T14:57:42.000Z</time>
    </trkpt>
    <trkpt lat="59.1001796722" lon="30.0290465355">
        <ele>0.0</ele>
        <time>2026-04-25T14:57:44.000Z</time>
    </trkpt>
    <trkpt lat="59.1001796722" lon="30.0290465355">
        <ele>0.0</ele>
        <time>2026-04-25T14:57:47.000Z</time>
    </trkpt>
    <trkpt lat="59.1001582146" lon="30.0290465355">
        <ele>0.0</ele>
        <time>2026-04-25T14:57:49.000Z</time>
    </trkpt>
    <trkpt lat="59.1001367569" lon="30.0290894508">
        <ele>0.0</ele>
        <time>2026-04-25T14:57:52.000Z</time>
    </trkpt>
    <trkpt lat="59.1001367569" lon="30.0290894508">
        <ele>0.0</ele>
        <time>2026-04-25T14:57:54.000Z</time>
    </trkpt>
    <trkpt lat="59.1001367569" lon="30.0290894508">
        <ele>0.0</ele>
        <time>2026-04-25T14:57:57.000Z</time>
    </trkpt>
    <trkpt lat="59.1001367569" lon="30.0290894508">
        <ele>0.0</ele>
        <time>2026-04-25T14:57:59.000Z</time>
    </trkpt>
    <trkpt lat="59.1001367569" lon="30.0290894508">
        <ele>0.0</ele>
        <time>2026-04-25T14:58:02.000Z</time>
    </trkpt>
    <trkpt lat="59.1001367569" lon="30.0290894508">
        <ele>0.0</ele>
        <time>2026-04-25T14:58:04.000Z</time>
    </trkpt>
    <trkpt lat="59.1001367569" lon="30.0290894508">
        <ele>0.0</ele>
        <time>2026-04-25T14:58:07.000Z</time>
    </trkpt>
    <trkpt lat="59.1001367569" lon="30.0290894508">
        <ele>0.0</ele>
        <time>2026-04-25T14:58:09.000Z</time>
    </trkpt>
    <trkpt lat="59.1001152992" lon="30.0290679932">
        <ele>0.0</ele>
        <time>2026-04-25T14:58:12.000Z</time>
    </trkpt>
    <trkpt lat="59.1001152992" lon="30.0290679932">
        <ele>0.0</ele>
        <time>2026-04-25T14:58:14.000Z</time>
    </trkpt>
    <trkpt lat="59.1001152992" lon="30.0291109085">
        <ele>0.0</ele>
        <time>2026-04-25T14:58:17.000Z</time>
    </trkpt>
    <trkpt lat="59.1001152992" lon="30.0291109085">
        <ele>0.0</ele>
        <time>2026-04-25T14:58:19.000Z</time>
    </trkpt>
    <trkpt lat="59.1001152992" lon="30.0291109085">
        <ele>0.0</ele>
        <time>2026-04-25T14:58:22.000Z</time>
    </trkpt>
    <trkpt lat="59.1001152992" lon="30.0291109085">
        <ele>0.0</ele>
        <time>2026-04-25T14:58:24.000Z</time>
    </trkpt>
    <trkpt lat="59.1001152992" lon="30.0291538239">
        <ele>0.0</ele>
        <time>2026-04-25T14:58:27.000Z</time>
    </trkpt>
    <trkpt lat="59.1001152992" lon="30.0292611122">
        <ele>0.0</ele>
        <time>2026-04-25T14:58:29.000Z</time>
    </trkpt>
    <trkpt lat="59.1001152992" lon="30.0293684006">
        <ele>0.0</ele>
        <time>2026-04-25T14:58:32.000Z</time>
    </trkpt>
    <trkpt lat="59.1001367569" lon="30.0295186043">
        <ele>0.0</ele>
        <time>2026-04-25T14:58:34.000Z</time>
    </trkpt>
    <trkpt lat="59.1001152992" lon="30.0295829773">
        <ele>0.0</ele>
        <time>2026-04-25T14:58:37.000Z</time>
    </trkpt>
    <trkpt lat="59.1001152992" lon="30.0296902657">
        <ele>0.0</ele>
        <time>2026-04-25T14:58:39.000Z</time>
    </trkpt>
    <trkpt lat="59.1001367569" lon="30.029733181">
        <ele>0.0</ele>
        <time>2026-04-25T14:58:42.000Z</time>
    </trkpt>
    <trkpt lat="59.1001367569" lon="30.0297546387">
        <ele>0.0</ele>
        <time>2026-04-25T14:58:44.000Z</time>
    </trkpt>
    <trkpt lat="59.1001367569" lon="30.0298190117">
        <ele>0.0</ele>
        <time>2026-04-25T14:58:47.000Z</time>
    </trkpt>
    <trkpt lat="59.1001367569" lon="30.0298404694">
        <ele>0.0</ele>
        <time>2026-04-25T14:58:49.000Z</time>
    </trkpt>
    <trkpt lat="59.1001367569" lon="30.0298404694">
        <ele>0.0</ele>
        <time>2026-04-25T14:58:52.000Z</time>
    </trkpt>
    <trkpt lat="59.1001367569" lon="30.0299048424">
        <ele>0.0</ele>
        <time>2026-04-25T14:58:54.000Z</time>
    </trkpt>
    <trkpt lat="59.1001367569" lon="30.0299692154">
        <ele>0.0</ele>
        <time>2026-04-25T14:58:57.000Z</time>
    </trkpt>
    <trkpt lat="59.1001367569" lon="30.0299906731">
        <ele>0.0</ele>
        <time>2026-04-25T14:58:59.000Z</time>
    </trkpt>
    <trkpt lat="59.1001367569" lon="30.0299906731">
        <ele>0.0</ele>
        <time>2026-04-25T14:59:02.000Z</time>
    </trkpt>
    <trkpt lat="59.1000938416" lon="30.0300550461">
        <ele>0.0</ele>
        <time>2026-04-25T14:59:04.000Z</time>
    </trkpt>
    <trkpt lat="59.1000723839" lon="30.0300765038">
        <ele>0.0</ele>
        <time>2026-04-25T14:59:07.000Z</time>
    </trkpt>
    <trkpt lat="59.1000294685" lon="30.0301623344">
        <ele>0.0</ele>
        <time>2026-04-25T14:59:09.000Z</time>
    </trkpt>
    <trkpt lat="59.1000294685" lon="30.0302052498">
        <ele>0.0</ele>
        <time>2026-04-25T14:59:12.000Z</time>
    </trkpt>
    <trkpt lat="59.1000294685" lon="30.0302052498">
        <ele>0.0</ele>
        <time>2026-04-25T14:59:14.000Z</time>
    </trkpt>
    <trkpt lat="59.1000294685" lon="30.0302267075">
        <ele>0.0</ele>
        <time>2026-04-25T14:59:17.000Z</time>
    </trkpt>
    <trkpt lat="59.1000723839" lon="30.0302267075">
        <ele>0.0</ele>
        <time>2026-04-25T14:59:19.000Z</time>
    </trkpt>
    <trkpt lat="59.1000938416" lon="30.0302696228">
        <ele>0.0</ele>
        <time>2026-04-25T14:59:22.000Z</time>
    </trkpt>
    <trkpt lat="59.1001152992" lon="30.0302910805">
        <ele>0.0</ele>
        <time>2026-04-25T14:59:24.000Z</time>
    </trkpt>
    <trkpt lat="59.1001367569" lon="30.0302910805">
        <ele>0.0</ele>
        <time>2026-04-25T14:59:27.000Z</time>
    </trkpt>
    <trkpt lat="59.1001582146" lon="30.0303125381">
        <ele>0.0</ele>
        <time>2026-04-25T14:59:29.000Z</time>
    </trkpt>
    <trkpt lat="59.1001796722" lon="30.0302910805">
        <ele>0.0</ele>
        <time>2026-04-25T14:59:32.000Z</time>
    </trkpt>
    <trkpt lat="59.1002011299" lon="30.0303339958">
        <ele>0.0</ele>
        <time>2026-04-25T14:59:34.000Z</time>
    </trkpt>
    <trkpt lat="59.1002225876" lon="30.0303339958">
        <ele>0.0</ele>
        <time>2026-04-25T14:59:37.000Z</time>
    </trkpt>
    <trkpt lat="59.1002440453" lon="30.0303554535">
        <ele>0.0</ele>
        <time>2026-04-25T14:59:39.000Z</time>
    </trkpt>
    <trkpt lat="59.1002655029" lon="30.0303769112">
        <ele>0.0</ele>
        <time>2026-04-25T14:59:42.000Z</time>
    </trkpt>
    <trkpt lat="59.1002869606" lon="30.0304198265">
        <ele>0.0</ele>
        <time>2026-04-25T14:59:44.000Z</time>
    </trkpt>
    <trkpt lat="59.1003084183" lon="30.0304412842">
        <ele>0.0</ele>
        <time>2026-04-25T14:59:47.000Z</time>
    </trkpt>
    <trkpt lat="59.1003298759" lon="30.0304627419">
        <ele>0.0</ele>
        <time>2026-04-25T14:59:49.000Z</time>
    </trkpt>
    <trkpt lat="59.1003298759" lon="30.0304627419">
        <ele>0.0</ele>
        <time>2026-04-25T14:59:52.000Z</time>
    </trkpt>
    <trkpt lat="59.1003298759" lon="30.0304627419">
        <ele>0.0</ele>
        <time>2026-04-25T14:59:54.000Z</time>
    </trkpt>
    <trkpt lat="59.1003298759" lon="30.0304841995">
        <ele>0.0</ele>
        <time>2026-04-25T14:59:57.000Z</time>
    </trkpt>
    <trkpt lat="59.1003298759" lon="30.0305271149">
        <ele>0.0</ele>
        <time>2026-04-25T14:59:59.000Z</time>
    </trkpt>
    <trkpt lat="59.1003298759" lon="30.0305271149">
        <ele>0.0</ele>
        <time>2026-04-25T15:00:02.000Z</time>
    </trkpt>
    <trkpt lat="59.1003298759" lon="30.0305485725">
        <ele>0.0</ele>
        <time>2026-04-25T15:00:04.000Z</time>
    </trkpt>
    <trkpt lat="59.1003298759" lon="30.0305485725">
        <ele>0.0</ele>
        <time>2026-04-25T15:00:07.000Z</time>
    </trkpt>
    <trkpt lat="59.1003084183" lon="30.0305485725">
        <ele>0.0</ele>
        <time>2026-04-25T15:00:09.000Z</time>
    </trkpt>
    <trkpt lat="59.1002869606" lon="30.0305271149">
        <ele>0.0</ele>
        <time>2026-04-25T15:00:12.000Z</time>
    </trkpt>
    <trkpt lat="59.1002655029" lon="30.0305485725">
        <ele>0.0</ele>
        <time>2026-04-25T15:00:14.000Z</time>
    </trkpt>
    <trkpt lat="59.1002655029" lon="30.0305485725">
        <ele>0.0</ele>
        <time>2026-04-25T15:00:17.000Z</time>
    </trkpt>
    <trkpt lat="59.1002655029" lon="30.0305700302">
        <ele>0.0</ele>
        <time>2026-04-25T15:00:19.000Z</time>
    </trkpt>
    <trkpt lat="59.1002655029" lon="30.0305914879">
        <ele>0.0</ele>
        <time>2026-04-25T15:00:22.000Z</time>
    </trkpt>
    <trkpt lat="59.1003084183" lon="30.0306344032">
        <ele>0.0</ele>
        <time>2026-04-25T15:00:24.000Z</time>
    </trkpt>
    <trkpt lat="59.1003298759" lon="30.0306773186">
        <ele>0.0</ele>
        <time>2026-04-25T15:00:27.000Z</time>
    </trkpt>
    <trkpt lat="59.1003298759" lon="30.0306558609">
        <ele>0.0</ele>
        <time>2026-04-25T15:00:29.000Z</time>
    </trkpt>
    <trkpt lat="59.1003513336" lon="30.0305914879">
        <ele>0.0</ele>
        <time>2026-04-25T15:00:32.000Z</time>
    </trkpt>
    <trkpt lat="59.1003727913" lon="30.0305271149">
        <ele>0.0</ele>
        <time>2026-04-25T15:00:34.000Z</time>
    </trkpt>
    <trkpt lat="59.1003727913" lon="30.0305056572">
        <ele>0.0</ele>
        <time>2026-04-25T15:00:37.000Z</time>
    </trkpt>
    <trkpt lat="59.1003727913" lon="30.0304841995">
        <ele>0.0</ele>
        <time>2026-04-25T15:00:39.000Z</time>
    </trkpt>
    <trkpt lat="59.1003727913" lon="30.0304627419">
        <ele>0.0</ele>
        <time>2026-04-25T15:00:42.000Z</time>
    </trkpt>
    <trkpt lat="59.100394249" lon="30.0304841995">
        <ele>0.0</ele>
        <time>2026-04-25T15:00:44.000Z</time>
    </trkpt>
    <trkpt lat="59.100394249" lon="30.0304841995">
        <ele>0.0</ele>
        <time>2026-04-25T15:00:47.000Z</time>
    </trkpt>
    <trkpt lat="59.100394249" lon="30.0304627419">
        <ele>0.0</ele>
        <time>2026-04-25T15:00:49.000Z</time>
    </trkpt>
    <trkpt lat="59.1003727913" lon="30.0304627419">
        <ele>0.0</ele>
        <time>2026-04-25T15:00:52.000Z</time>
    </trkpt>
    <trkpt lat="59.100394249" lon="30.0305271149">
        <ele>0.0</ele>
        <time>2026-04-25T15:00:54.000Z</time>
    </trkpt>
    <trkpt lat="59.1003727913" lon="30.0305485725">
        <ele>0.0</ele>
        <time>2026-04-25T15:00:57.000Z</time>
    </trkpt>
    <trkpt lat="59.1003513336" lon="30.0305914879">
        <ele>0.0</ele>
        <time>2026-04-25T15:00:59.000Z</time>
    </trkpt>
    <trkpt lat="59.1003298759" lon="30.0306344032">
        <ele>0.0</ele>
        <time>2026-04-25T15:01:02.000Z</time>
    </trkpt>
    <trkpt lat="59.1003084183" lon="30.0306773186">
        <ele>0.0</ele>
        <time>2026-04-25T15:01:04.000Z</time>
    </trkpt>
    <trkpt lat="59.1003084183" lon="30.0307202339">
        <ele>0.0</ele>
        <time>2026-04-25T15:01:07.000Z</time>
    </trkpt>
    <trkpt lat="59.1003084183" lon="30.0307631493">
        <ele>0.0</ele>
        <time>2026-04-25T15:01:09.000Z</time>
    </trkpt>
    <trkpt lat="59.1003084183" lon="30.0307846069">
        <ele>0.0</ele>
        <time>2026-04-25T15:01:12.000Z</time>
    </trkpt>
    <trkpt lat="59.1003084183" lon="30.0308060646">
        <ele>0.0</ele>
        <time>2026-04-25T15:01:14.000Z</time>
    </trkpt>
    <trkpt lat="59.1003084183" lon="30.0308060646">
        <ele>0.0</ele>
        <time>2026-04-25T15:01:17.000Z</time>
    </trkpt>
    <trkpt lat="59.1002869606" lon="30.0308704376">
        <ele>0.0</ele>
        <time>2026-04-25T15:01:19.000Z</time>
    </trkpt>
    <trkpt lat="59.1002869606" lon="30.0308918953">
        <ele>0.0</ele>
        <time>2026-04-25T15:01:22.000Z</time>
    </trkpt>
    <trkpt lat="59.1002869606" lon="30.030977726">
        <ele>0.0</ele>
        <time>2026-04-25T15:01:24.000Z</time>
    </trkpt>
    <trkpt lat="59.1003084183" lon="30.031042099">
        <ele>0.0</ele>
        <time>2026-04-25T15:01:27.000Z</time>
    </trkpt>
    <trkpt lat="59.1003084183" lon="30.0310850143">
        <ele>0.0</ele>
        <time>2026-04-25T15:01:29.000Z</time>
    </trkpt>
    <trkpt lat="59.1003084183" lon="30.0311279297">
        <ele>0.0</ele>
        <time>2026-04-25T15:01:32.000Z</time>
    </trkpt>
    <trkpt lat="59.1003298759" lon="30.0311923027">
        <ele>0.0</ele>
        <time>2026-04-25T15:01:34.000Z</time>
    </trkpt>
    <trkpt lat="59.1003298759" lon="30.0312137604">
        <ele>0.0</ele>
        <time>2026-04-25T15:01:37.000Z</time>
    </trkpt>
    <trkpt lat="59.1003298759" lon="30.0312137604">
        <ele>0.0</ele>
        <time>2026-04-25T15:01:39.000Z</time>
    </trkpt>
    <trkpt lat="59.1003298759" lon="30.0312137604">
        <ele>0.0</ele>
        <time>2026-04-25T15:01:42.000Z</time>
    </trkpt>
    <trkpt lat="59.1003298759" lon="30.0312137604">
        <ele>0.0</ele>
        <time>2026-04-25T15:01:44.000Z</time>
    </trkpt>
    <trkpt lat="59.1003298759" lon="30.0312137604">
        <ele>0.0</ele>
        <time>2026-04-25T15:01:47.000Z</time>
    </trkpt>
    <trkpt lat="59.1003298759" lon="30.0312137604">
        <ele>0.0</ele>
        <time>2026-04-25T15:01:49.000Z</time>
    </trkpt>
    <trkpt lat="59.1003298759" lon="30.0312137604">
        <ele>0.0</ele>
        <time>2026-04-25T15:01:52.000Z</time>
    </trkpt>
    <trkpt lat="59.1003298759" lon="30.0311923027">
        <ele>0.0</ele>
        <time>2026-04-25T15:01:54.000Z</time>
    </trkpt>
    <trkpt lat="59.1003298759" lon="30.0311923027">
        <ele>0.0</ele>
        <time>2026-04-25T15:01:57.000Z</time>
    </trkpt>
    <trkpt lat="59.1003298759" lon="30.0312566757">
        <ele>0.0</ele>
        <time>2026-04-25T15:01:59.000Z</time>
    </trkpt>
    <trkpt lat="59.1003298759" lon="30.0312781334">
        <ele>0.0</ele>
        <time>2026-04-25T15:02:02.000Z</time>
    </trkpt>
    <trkpt lat="59.1003298759" lon="30.0312781334">
        <ele>0.0</ele>
        <time>2026-04-25T15:02:04.000Z</time>
    </trkpt>
    <trkpt lat="59.1003298759" lon="30.0313210487">
        <ele>0.0</ele>
        <time>2026-04-25T15:02:07.000Z</time>
    </trkpt>
    <trkpt lat="59.1003298759" lon="30.0313210487">
        <ele>0.0</ele>
        <time>2026-04-25T15:02:09.000Z</time>
    </trkpt>
    <trkpt lat="59.1003298759" lon="30.0313210487">
        <ele>0.0</ele>
        <time>2026-04-25T15:02:12.000Z</time>
    </trkpt>
    <trkpt lat="59.1003298759" lon="30.0313425064">
        <ele>0.0</ele>
        <time>2026-04-25T15:02:14.000Z</time>
    </trkpt>
    <trkpt lat="59.1003513336" lon="30.0313639641">
        <ele>0.0</ele>
        <time>2026-04-25T15:02:17.000Z</time>
    </trkpt>
    <trkpt lat="59.1003727913" lon="30.0314497948">
        <ele>0.0</ele>
        <time>2026-04-25T15:02:19.000Z</time>
    </trkpt>
    <trkpt lat="59.1003727913" lon="30.0315141678">
        <ele>0.0</ele>
        <time>2026-04-25T15:02:22.000Z</time>
    </trkpt>
    <trkpt lat="59.1003727913" lon="30.0315999985">
        <ele>0.0</ele>
        <time>2026-04-25T15:02:24.000Z</time>
    </trkpt>
    <trkpt lat="59.100394249" lon="30.0316429138">
        <ele>0.0</ele>
        <time>2026-04-25T15:02:27.000Z</time>
    </trkpt>
    <trkpt lat="59.1004157066" lon="30.0317072868">
        <ele>0.0</ele>
        <time>2026-04-25T15:02:29.000Z</time>
    </trkpt>
    <trkpt lat="59.100394249" lon="30.0317072868">
        <ele>0.0</ele>
        <time>2026-04-25T15:02:32.000Z</time>
    </trkpt>
    <trkpt lat="59.1004157066" lon="30.0317502022">
        <ele>0.0</ele>
        <time>2026-04-25T15:02:34.000Z</time>
    </trkpt>
    <trkpt lat="59.1004157066" lon="30.0317931175">
        <ele>0.0</ele>
        <time>2026-04-25T15:02:37.000Z</time>
    </trkpt>
    <trkpt lat="59.1004157066" lon="30.0318789482">
        <ele>0.0</ele>
        <time>2026-04-25T15:02:39.000Z</time>
    </trkpt>
    <trkpt lat="59.1004157066" lon="30.0319218636">
        <ele>0.0</ele>
        <time>2026-04-25T15:02:42.000Z</time>
    </trkpt>
    <trkpt lat="59.1004371643" lon="30.0319862366">
        <ele>0.0</ele>
        <time>2026-04-25T15:02:44.000Z</time>
    </trkpt>
    <trkpt lat="59.1004371643" lon="30.0320291519">
        <ele>0.0</ele>
        <time>2026-04-25T15:02:47.000Z</time>
    </trkpt>
    <trkpt lat="59.1004157066" lon="30.0320506096">
        <ele>0.0</ele>
        <time>2026-04-25T15:02:49.000Z</time>
    </trkpt>
    <trkpt lat="59.100394249" lon="30.0320506096">
        <ele>0.0</ele>
        <time>2026-04-25T15:02:52.000Z</time>
    </trkpt>
    <trkpt lat="59.1003727913" lon="30.0320720673">
        <ele>0.0</ele>
        <time>2026-04-25T15:02:54.000Z</time>
    </trkpt>
    <trkpt lat="59.1003727913" lon="30.0320720673">
        <ele>0.0</ele>
        <time>2026-04-25T15:02:57.000Z</time>
    </trkpt>
    <trkpt lat="59.1003727913" lon="30.0321149826">
        <ele>0.0</ele>
        <time>2026-04-25T15:02:59.000Z</time>
    </trkpt>
    <trkpt lat="59.1003727913" lon="30.0321578979">
        <ele>0.0</ele>
        <time>2026-04-25T15:03:02.000Z</time>
    </trkpt>
    <trkpt lat="59.100394249" lon="30.0322651863">
        <ele>0.0</ele>
        <time>2026-04-25T15:03:04.000Z</time>
    </trkpt>
    <trkpt lat="59.100394249" lon="30.0322651863">
        <ele>0.0</ele>
        <time>2026-04-25T15:03:07.000Z</time>
    </trkpt>
    <trkpt lat="59.1004157066" lon="30.032222271">
        <ele>0.0</ele>
        <time>2026-04-25T15:03:09.000Z</time>
    </trkpt>
    <trkpt lat="59.1004371643" lon="30.032222271">
        <ele>0.0</ele>
        <time>2026-04-25T15:03:12.000Z</time>
    </trkpt>
    <trkpt lat="59.100458622" lon="30.032222271">
        <ele>0.0</ele>
        <time>2026-04-25T15:03:14.000Z</time>
    </trkpt>
    <trkpt lat="59.1004800797" lon="30.0322437286">
        <ele>0.0</ele>
        <time>2026-04-25T15:03:17.000Z</time>
    </trkpt>
    <trkpt lat="59.1004800797" lon="30.0322437286">
        <ele>0.0</ele>
        <time>2026-04-25T15:03:19.000Z</time>
    </trkpt>
    <trkpt lat="59.1004800797" lon="30.0322651863">
        <ele>0.0</ele>
        <time>2026-04-25T15:03:22.000Z</time>
    </trkpt>
    <trkpt lat="59.100458622" lon="30.032286644">
        <ele>0.0</ele>
        <time>2026-04-25T15:03:24.000Z</time>
    </trkpt>
    <trkpt lat="59.100458622" lon="30.0323081017">
        <ele>0.0</ele>
        <time>2026-04-25T15:03:27.000Z</time>
    </trkpt>
    <trkpt lat="59.1004371643" lon="30.0323295593">
        <ele>0.0</ele>
        <time>2026-04-25T15:03:29.000Z</time>
    </trkpt>
    <trkpt lat="59.1004371643" lon="30.032351017">
        <ele>0.0</ele>
        <time>2026-04-25T15:03:32.000Z</time>
    </trkpt>
    <trkpt lat="59.100458622" lon="30.0324368477">
        <ele>0.0</ele>
        <time>2026-04-25T15:03:34.000Z</time>
    </trkpt>
    <trkpt lat="59.100458622" lon="30.0325012207">
        <ele>0.0</ele>
        <time>2026-04-25T15:03:37.000Z</time>
    </trkpt>
    <trkpt lat="59.1004800797" lon="30.0325226784">
        <ele>0.0</ele>
        <time>2026-04-25T15:03:39.000Z</time>
    </trkpt>
    <trkpt lat="59.1005015373" lon="30.0325226784">
        <ele>0.0</ele>
        <time>2026-04-25T15:03:42.000Z</time>
    </trkpt>
    <trkpt lat="59.100522995" lon="30.0325870514">
        <ele>0.0</ele>
        <time>2026-04-25T15:03:44.000Z</time>
    </trkpt>
    <trkpt lat="59.1005444527" lon="30.0326299667">
        <ele>0.0</ele>
        <time>2026-04-25T15:03:47.000Z</time>
    </trkpt>
    <trkpt lat="59.1005659103" lon="30.0326728821">
        <ele>0.0</ele>
        <time>2026-04-25T15:03:49.000Z</time>
    </trkpt>
    <trkpt lat="59.1005659103" lon="30.0326943398">
        <ele>0.0</ele>
        <time>2026-04-25T15:03:52.000Z</time>
    </trkpt>
    <trkpt lat="59.1005659103" lon="30.0327157974">
        <ele>0.0</ele>
        <time>2026-04-25T15:03:54.000Z</time>
    </trkpt>
    <trkpt lat="59.1005659103" lon="30.0327372551">
        <ele>0.0</ele>
        <time>2026-04-25T15:03:57.000Z</time>
    </trkpt>
    <trkpt lat="59.100587368" lon="30.0327157974">
        <ele>0.0</ele>
        <time>2026-04-25T15:03:59.000Z</time>
    </trkpt>
    <trkpt lat="59.100587368" lon="30.0327157974">
        <ele>0.0</ele>
        <time>2026-04-25T15:04:02.000Z</time>
    </trkpt>
    <trkpt lat="59.100587368" lon="30.0327372551">
        <ele>0.0</ele>
        <time>2026-04-25T15:04:04.000Z</time>
    </trkpt>
    <trkpt lat="59.1006088257" lon="30.0327801704">
        <ele>0.0</ele>
        <time>2026-04-25T15:04:07.000Z</time>
    </trkpt>
    <trkpt lat="59.100587368" lon="30.0328016281">
        <ele>0.0</ele>
        <time>2026-04-25T15:04:09.000Z</time>
    </trkpt>
    <trkpt lat="59.100587368" lon="30.0328016281">
        <ele>0.0</ele>
        <time>2026-04-25T15:04:12.000Z</time>
    </trkpt>
    <trkpt lat="59.100587368" lon="30.0328016281">
        <ele>0.0</ele>
        <time>2026-04-25T15:04:14.000Z</time>
    </trkpt>
    <trkpt lat="59.100587368" lon="30.0328016281">
        <ele>0.0</ele>
        <time>2026-04-25T15:04:17.000Z</time>
    </trkpt>
    <trkpt lat="59.100587368" lon="30.0328445435">
        <ele>0.0</ele>
        <time>2026-04-25T15:04:19.000Z</time>
    </trkpt>
    <trkpt lat="59.100587368" lon="30.0328230858">
        <ele>0.0</ele>
        <time>2026-04-25T15:04:22.000Z</time>
    </trkpt>
    <trkpt lat="59.100587368" lon="30.0327372551">
        <ele>0.0</ele>
        <time>2026-04-25T15:04:24.000Z</time>
    </trkpt>
    <trkpt lat="59.1005659103" lon="30.0326299667">
        <ele>0.0</ele>
        <time>2026-04-25T15:04:27.000Z</time>
    </trkpt>
    <trkpt lat="59.1005444527" lon="30.0325870514">
        <ele>0.0</ele>
        <time>2026-04-25T15:04:29.000Z</time>
    </trkpt>
    <trkpt lat="59.1005444527" lon="30.0325870514">
        <ele>0.0</ele>
        <time>2026-04-25T15:04:32.000Z</time>
    </trkpt>
    <trkpt lat="59.1005444527" lon="30.0325870514">
        <ele>0.0</ele>
        <time>2026-04-25T15:04:34.000Z</time>
    </trkpt>
    <trkpt lat="59.100522995" lon="30.0325870514">
        <ele>0.0</ele>
        <time>2026-04-25T15:04:37.000Z</time>
    </trkpt>
    <trkpt lat="59.1005444527" lon="30.0325870514">
        <ele>0.0</ele>
        <time>2026-04-25T15:04:39.000Z</time>
    </trkpt>
    <trkpt lat="59.1005444527" lon="30.0325870514">
        <ele>0.0</ele>
        <time>2026-04-25T15:04:42.000Z</time>
    </trkpt>
    <trkpt lat="59.1005444527" lon="30.0325870514">
        <ele>0.0</ele>
        <time>2026-04-25T15:04:44.000Z</time>
    </trkpt>
    <trkpt lat="59.1005444527" lon="30.0325870514">
        <ele>0.0</ele>
        <time>2026-04-25T15:04:47.000Z</time>
    </trkpt>
    <trkpt lat="59.1005444527" lon="30.0325870514">
        <ele>0.0</ele>
        <time>2026-04-25T15:04:49.000Z</time>
    </trkpt>
    <trkpt lat="59.1005444527" lon="30.0325870514">
        <ele>0.0</ele>
        <time>2026-04-25T15:04:52.000Z</time>
    </trkpt>
    <trkpt lat="59.1005444527" lon="30.0325870514">
        <ele>0.0</ele>
        <time>2026-04-25T15:04:54.000Z</time>
    </trkpt>
    <trkpt lat="59.1005444527" lon="30.0325870514">
        <ele>0.0</ele>
        <time>2026-04-25T15:04:57.000Z</time>
    </trkpt>
    <trkpt lat="59.1005444527" lon="30.0325870514">
        <ele>0.0</ele>
        <time>2026-04-25T15:04:59.000Z</time>
    </trkpt>
    <trkpt lat="59.1005444527" lon="30.0325870514">
        <ele>0.0</ele>
        <time>2026-04-25T15:05:02.000Z</time>
    </trkpt>
    <trkpt lat="59.1005444527" lon="30.0325870514">
        <ele>0.0</ele>
        <time>2026-04-25T15:05:04.000Z</time>
    </trkpt>
    <trkpt lat="59.1005444527" lon="30.0325870514">
        <ele>0.0</ele>
        <time>2026-04-25T15:05:07.000Z</time>
    </trkpt>
    <trkpt lat="59.1005444527" lon="30.0325870514">
        <ele>0.0</ele>
        <time>2026-04-25T15:05:09.000Z</time>
    </trkpt>
    <trkpt lat="59.1005444527" lon="30.0325870514">
        <ele>0.0</ele>
        <time>2026-04-25T15:05:12.000Z</time>
    </trkpt>
    <trkpt lat="59.1005444527" lon="30.0325870514">
        <ele>0.0</ele>
        <time>2026-04-25T15:05:14.000Z</time>
    </trkpt>
    <trkpt lat="59.1005444527" lon="30.0325870514">
        <ele>0.0</ele>
        <time>2026-04-25T15:05:17.000Z</time>
    </trkpt>
    <trkpt lat="59.1005444527" lon="30.0325870514">
        <ele>0.0</ele>
        <time>2026-04-25T15:05:19.000Z</time>
    </trkpt>
    <trkpt lat="59.1005444527" lon="30.0325870514">
        <ele>0.0</ele>
        <time>2026-04-25T15:05:22.000Z</time>
    </trkpt>
    <trkpt lat="59.1005444527" lon="30.0325870514">
        <ele>0.0</ele>
        <time>2026-04-25T15:05:24.000Z</time>
    </trkpt>
    <trkpt lat="59.1005444527" lon="30.0325870514">
        <ele>0.0</ele>
        <time>2026-04-25T15:05:27.000Z</time>
    </trkpt>
    <trkpt lat="59.1005444527" lon="30.0326085091">
        <ele>0.0</ele>
        <time>2026-04-25T15:05:29.000Z</time>
    </trkpt>
    <trkpt lat="59.100522995" lon="30.0325870514">
        <ele>0.0</ele>
        <time>2026-04-25T15:05:32.000Z</time>
    </trkpt>
    <trkpt lat="59.100522995" lon="30.0325655937">
        <ele>0.0</ele>
        <time>2026-04-25T15:05:34.000Z</time>
    </trkpt>
    <trkpt lat="59.100522995" lon="30.0325655937">
        <ele>0.0</ele>
        <time>2026-04-25T15:05:37.000Z</time>
    </trkpt>
    <trkpt lat="59.1005444527" lon="30.0325870514">
        <ele>0.0</ele>
        <time>2026-04-25T15:05:39.000Z</time>
    </trkpt>
    <trkpt lat="59.1005444527" lon="30.0325870514">
        <ele>0.0</ele>
        <time>2026-04-25T15:05:42.000Z</time>
    </trkpt>
    <trkpt lat="59.1005444527" lon="30.0326514244">
        <ele>0.0</ele>
        <time>2026-04-25T15:05:44.000Z</time>
    </trkpt>
    <trkpt lat="59.1005444527" lon="30.0326514244">
        <ele>0.0</ele>
        <time>2026-04-25T15:05:47.000Z</time>
    </trkpt>
    <trkpt lat="59.1005444527" lon="30.0326514244">
        <ele>0.0</ele>
        <time>2026-04-25T15:05:49.000Z</time>
    </trkpt>
    <trkpt lat="59.1005444527" lon="30.0326514244">
        <ele>0.0</ele>
        <time>2026-04-25T15:05:52.000Z</time>
    </trkpt>
    <trkpt lat="59.1005444527" lon="30.0325870514">
        <ele>0.0</ele>
        <time>2026-04-25T15:05:54.000Z</time>
    </trkpt>
    <trkpt lat="59.1005444527" lon="30.0325870514">
        <ele>0.0</ele>
        <time>2026-04-25T15:05:57.000Z</time>
    </trkpt>
    <trkpt lat="59.1005659103" lon="30.032544136">
        <ele>0.0</ele>
        <time>2026-04-25T15:05:59.000Z</time>
    </trkpt>
    <trkpt lat="59.1005659103" lon="30.032544136">
        <ele>0.0</ele>
        <time>2026-04-25T15:06:02.000Z</time>
    </trkpt>
    <trkpt lat="59.1005659103" lon="30.032544136">
        <ele>0.0</ele>
        <time>2026-04-25T15:06:04.000Z</time>
    </trkpt>
    <trkpt lat="59.1005659103" lon="30.032544136">
        <ele>0.0</ele>
        <time>2026-04-25T15:06:07.000Z</time>
    </trkpt>
    <trkpt lat="59.1005659103" lon="30.032544136">
        <ele>0.0</ele>
        <time>2026-04-25T15:06:09.000Z</time>
    </trkpt>
    <trkpt lat="59.100587368" lon="30.0325226784">
        <ele>0.0</ele>
        <time>2026-04-25T15:06:12.000Z</time>
    </trkpt>
    <trkpt lat="59.1006088257" lon="30.0325012207">
        <ele>0.0</ele>
        <time>2026-04-25T15:06:14.000Z</time>
    </trkpt>
    <trkpt lat="59.1006088257" lon="30.0325012207">
        <ele>0.0</ele>
        <time>2026-04-25T15:06:17.000Z</time>
    </trkpt>
    <trkpt lat="59.1006302834" lon="30.0324583054">
        <ele>0.0</ele>
        <time>2026-04-25T15:06:19.000Z</time>
    </trkpt>
    <trkpt lat="59.100651741" lon="30.0324583054">
        <ele>0.0</ele>
        <time>2026-04-25T15:06:22.000Z</time>
    </trkpt>
    <trkpt lat="59.1006731987" lon="30.0324583054">
        <ele>0.0</ele>
        <time>2026-04-25T15:06:24.000Z</time>
    </trkpt>
    <trkpt lat="59.1006731987" lon="30.0324583054">
        <ele>0.0</ele>
        <time>2026-04-25T15:06:27.000Z</time>
    </trkpt>
    <trkpt lat="59.1006731987" lon="30.0323939323">
        <ele>0.0</ele>
        <time>2026-04-25T15:06:29.000Z</time>
    </trkpt>
    <trkpt lat="59.100651741" lon="30.032351017">
        <ele>0.0</ele>
        <time>2026-04-25T15:06:32.000Z</time>
    </trkpt>
    <trkpt lat="59.100651741" lon="30.0323295593">
        <ele>0.0</ele>
        <time>2026-04-25T15:06:34.000Z</time>
    </trkpt>
    <trkpt lat="59.100651741" lon="30.0323295593">
        <ele>0.0</ele>
        <time>2026-04-25T15:06:37.000Z</time>
    </trkpt>
    <trkpt lat="59.100651741" lon="30.0323295593">
        <ele>0.0</ele>
        <time>2026-04-25T15:06:39.000Z</time>
    </trkpt>
    <trkpt lat="59.1006731987" lon="30.032286644">
        <ele>0.0</ele>
        <time>2026-04-25T15:06:42.000Z</time>
    </trkpt>
    <trkpt lat="59.100651741" lon="30.0322651863">
        <ele>0.0</ele>
        <time>2026-04-25T15:06:44.000Z</time>
    </trkpt>
    <trkpt lat="59.100651741" lon="30.0322437286">
        <ele>0.0</ele>
        <time>2026-04-25T15:06:47.000Z</time>
    </trkpt>
    <trkpt lat="59.100651741" lon="30.0322437286">
        <ele>0.0</ele>
        <time>2026-04-25T15:06:49.000Z</time>
    </trkpt>
    <trkpt lat="59.1006302834" lon="30.032222271">
        <ele>0.0</ele>
        <time>2026-04-25T15:06:52.000Z</time>
    </trkpt>
    <trkpt lat="59.100651741" lon="30.0321793556">
        <ele>0.0</ele>
        <time>2026-04-25T15:06:54.000Z</time>
    </trkpt>
    <trkpt lat="59.100651741" lon="30.0321578979">
        <ele>0.0</ele>
        <time>2026-04-25T15:06:57.000Z</time>
    </trkpt>
    <trkpt lat="59.100651741" lon="30.0320935249">
        <ele>0.0</ele>
        <time>2026-04-25T15:06:59.000Z</time>
    </trkpt>
    <trkpt lat="59.100651741" lon="30.0320935249">
        <ele>0.0</ele>
        <time>2026-04-25T15:07:02.000Z</time>
    </trkpt>
    <trkpt lat="59.100651741" lon="30.0320506096">
        <ele>0.0</ele>
        <time>2026-04-25T15:07:04.000Z</time>
    </trkpt>
    <trkpt lat="59.1006731987" lon="30.0320076942">
        <ele>0.0</ele>
        <time>2026-04-25T15:07:07.000Z</time>
    </trkpt>
    <trkpt lat="59.100651741" lon="30.0319433212">
        <ele>0.0</ele>
        <time>2026-04-25T15:07:09.000Z</time>
    </trkpt>
    <trkpt lat="59.100651741" lon="30.0319004059">
        <ele>0.0</ele>
        <time>2026-04-25T15:07:12.000Z</time>
    </trkpt>
    <trkpt lat="59.100651741" lon="30.0318574905">
        <ele>0.0</ele>
        <time>2026-04-25T15:07:14.000Z</time>
    </trkpt>
    <trkpt lat="59.100651741" lon="30.0318789482">
        <ele>0.0</ele>
        <time>2026-04-25T15:07:17.000Z</time>
    </trkpt>
    <trkpt lat="59.1006731987" lon="30.0318574905">
        <ele>0.0</ele>
        <time>2026-04-25T15:07:19.000Z</time>
    </trkpt>
    <trkpt lat="59.1006946564" lon="30.0318789482">
        <ele>0.0</ele>
        <time>2026-04-25T15:07:22.000Z</time>
    </trkpt>
    <trkpt lat="59.100716114" lon="30.0319218636">
        <ele>0.0</ele>
        <time>2026-04-25T15:07:24.000Z</time>
    </trkpt>
    <trkpt lat="59.100716114" lon="30.0319218636">
        <ele>0.0</ele>
        <time>2026-04-25T15:07:27.000Z</time>
    </trkpt>
    <trkpt lat="59.1007375717" lon="30.0319004059">
        <ele>0.0</ele>
        <time>2026-04-25T15:07:29.000Z</time>
    </trkpt>
    <trkpt lat="59.1007590294" lon="30.0318789482">
        <ele>0.0</ele>
        <time>2026-04-25T15:07:32.000Z</time>
    </trkpt>
    <trkpt lat="59.1007590294" lon="30.0318574905">
        <ele>0.0</ele>
        <time>2026-04-25T15:07:34.000Z</time>
    </trkpt>
    <trkpt lat="59.1007590294" lon="30.0318574905">
        <ele>0.0</ele>
        <time>2026-04-25T15:07:37.000Z</time>
    </trkpt>
    <trkpt lat="59.1007590294" lon="30.0318574905">
        <ele>0.0</ele>
        <time>2026-04-25T15:07:39.000Z</time>
    </trkpt>
    <trkpt lat="59.1007804871" lon="30.0318360329">
        <ele>0.0</ele>
        <time>2026-04-25T15:07:42.000Z</time>
    </trkpt>
    <trkpt lat="59.1007804871" lon="30.0318145752">
        <ele>0.0</ele>
        <time>2026-04-25T15:07:44.000Z</time>
    </trkpt>
    <trkpt lat="59.1007590294" lon="30.0317931175">
        <ele>0.0</ele>
        <time>2026-04-25T15:07:47.000Z</time>
    </trkpt>
    <trkpt lat="59.1007804871" lon="30.0317502022">
        <ele>0.0</ele>
        <time>2026-04-25T15:07:49.000Z</time>
    </trkpt>
    <trkpt lat="59.1007804871" lon="30.0317502022">
        <ele>0.0</ele>
        <time>2026-04-25T15:07:52.000Z</time>
    </trkpt>
    <trkpt lat="59.1008019447" lon="30.0316643715">
        <ele>0.0</ele>
        <time>2026-04-25T15:07:54.000Z</time>
    </trkpt>
    <trkpt lat="59.1008019447" lon="30.0316214561">
        <ele>0.0</ele>
        <time>2026-04-25T15:07:57.000Z</time>
    </trkpt>
    <trkpt lat="59.1008019447" lon="30.0315570831">
        <ele>0.0</ele>
        <time>2026-04-25T15:07:59.000Z</time>
    </trkpt>
    <trkpt lat="59.1008019447" lon="30.0315570831">
        <ele>0.0</ele>
        <time>2026-04-25T15:08:02.000Z</time>
    </trkpt>
    <trkpt lat="59.1008019447" lon="30.0315570831">
        <ele>0.0</ele>
        <time>2026-04-25T15:08:04.000Z</time>
    </trkpt>
    <trkpt lat="59.1008019447" lon="30.0315570831">
        <ele>0.0</ele>
        <time>2026-04-25T15:08:07.000Z</time>
    </trkpt>
    <trkpt lat="59.1008019447" lon="30.0315570831">
        <ele>0.0</ele>
        <time>2026-04-25T15:08:09.000Z</time>
    </trkpt>
    <trkpt lat="59.1008019447" lon="30.0315570831">
        <ele>0.0</ele>
        <time>2026-04-25T15:08:12.000Z</time>
    </trkpt>
    <trkpt lat="59.1008019447" lon="30.0315570831">
        <ele>0.0</ele>
        <time>2026-04-25T15:08:14.000Z</time>
    </trkpt>
    <trkpt lat="59.1008019447" lon="30.0315356255">
        <ele>0.0</ele>
        <time>2026-04-25T15:08:17.000Z</time>
    </trkpt>
    <trkpt lat="59.1008234024" lon="30.0315141678">
        <ele>0.0</ele>
        <time>2026-04-25T15:08:19.000Z</time>
    </trkpt>
    <trkpt lat="59.1008234024" lon="30.0315141678">
        <ele>0.0</ele>
        <time>2026-04-25T15:08:22.000Z</time>
    </trkpt>
    <trkpt lat="59.1008234024" lon="30.0315141678">
        <ele>0.0</ele>
        <time>2026-04-25T15:08:24.000Z</time>
    </trkpt>
    <trkpt lat="59.1008234024" lon="30.0315141678">
        <ele>0.0</ele>
        <time>2026-04-25T15:08:27.000Z</time>
    </trkpt>
    <trkpt lat="59.1008234024" lon="30.0315141678">
        <ele>0.0</ele>
        <time>2026-04-25T15:08:29.000Z</time>
    </trkpt>
    <trkpt lat="59.1008234024" lon="30.0314927101">
        <ele>0.0</ele>
        <time>2026-04-25T15:08:32.000Z</time>
    </trkpt>
    <trkpt lat="59.1008019447" lon="30.0315356255">
        <ele>0.0</ele>
        <time>2026-04-25T15:08:34.000Z</time>
    </trkpt>
    <trkpt lat="59.1008019447" lon="30.0315356255">
        <ele>0.0</ele>
        <time>2026-04-25T15:08:37.000Z</time>
    </trkpt>
    <trkpt lat="59.1008019447" lon="30.0315356255">
        <ele>0.0</ele>
        <time>2026-04-25T15:08:39.000Z</time>
    </trkpt>
    <trkpt lat="59.1008019447" lon="30.0315356255">
        <ele>0.0</ele>
        <time>2026-04-25T15:08:42.000Z</time>
    </trkpt>
    <trkpt lat="59.1008019447" lon="30.0315570831">
        <ele>0.0</ele>
        <time>2026-04-25T15:08:44.000Z</time>
    </trkpt>
    <trkpt lat="59.1008019447" lon="30.0315785408">
        <ele>0.0</ele>
        <time>2026-04-25T15:08:47.000Z</time>
    </trkpt>
    <trkpt lat="59.1008019447" lon="30.0315785408">
        <ele>0.0</ele>
        <time>2026-04-25T15:08:49.000Z</time>
    </trkpt>
    <trkpt lat="59.1008019447" lon="30.0315785408">
        <ele>0.0</ele>
        <time>2026-04-25T15:08:52.000Z</time>
    </trkpt>
    <trkpt lat="59.1007804871" lon="30.0315999985">
        <ele>0.0</ele>
        <time>2026-04-25T15:08:54.000Z</time>
    </trkpt>
    <trkpt lat="59.1007804871" lon="30.0315999985">
        <ele>0.0</ele>
        <time>2026-04-25T15:08:57.000Z</time>
    </trkpt>
    <trkpt lat="59.1007590294" lon="30.0315999985">
        <ele>0.0</ele>
        <time>2026-04-25T15:08:59.000Z</time>
    </trkpt>
    <trkpt lat="59.1007590294" lon="30.0315999985">
        <ele>0.0</ele>
        <time>2026-04-25T15:09:02.000Z</time>
    </trkpt>
    <trkpt lat="59.1007590294" lon="30.0315999985">
        <ele>0.0</ele>
        <time>2026-04-25T15:09:04.000Z</time>
    </trkpt>
    <trkpt lat="59.1007590294" lon="30.0315999985">
        <ele>0.0</ele>
        <time>2026-04-25T15:09:07.000Z</time>
    </trkpt>
    <trkpt lat="59.1007590294" lon="30.0315356255">
        <ele>0.0</ele>
        <time>2026-04-25T15:09:09.000Z</time>
    </trkpt>
    <trkpt lat="59.1007804871" lon="30.0314927101">
        <ele>0.0</ele>
        <time>2026-04-25T15:09:12.000Z</time>
    </trkpt>
    <trkpt lat="59.1007804871" lon="30.0314497948">
        <ele>0.0</ele>
        <time>2026-04-25T15:09:14.000Z</time>
    </trkpt>
    <trkpt lat="59.1007590294" lon="30.0314068794">
        <ele>0.0</ele>
        <time>2026-04-25T15:09:17.000Z</time>
    </trkpt>
    <trkpt lat="59.1007804871" lon="30.0313210487">
        <ele>0.0</ele>
        <time>2026-04-25T15:09:19.000Z</time>
    </trkpt>
    <trkpt lat="59.1007804871" lon="30.0312781334">
        <ele>0.0</ele>
        <time>2026-04-25T15:09:22.000Z</time>
    </trkpt>
    <trkpt lat="59.1007804871" lon="30.031235218">
        <ele>0.0</ele>
        <time>2026-04-25T15:09:24.000Z</time>
    </trkpt>
    <trkpt lat="59.1008019447" lon="30.031235218">
        <ele>0.0</ele>
        <time>2026-04-25T15:09:27.000Z</time>
    </trkpt>
    <trkpt lat="59.1008019447" lon="30.0312137604">
        <ele>0.0</ele>
        <time>2026-04-25T15:09:29.000Z</time>
    </trkpt>
    <trkpt lat="59.1008019447" lon="30.0311923027">
        <ele>0.0</ele>
        <time>2026-04-25T15:09:32.000Z</time>
    </trkpt>
    <trkpt lat="59.1008019447" lon="30.031170845">
        <ele>0.0</ele>
        <time>2026-04-25T15:09:34.000Z</time>
    </trkpt>
    <trkpt lat="59.1008019447" lon="30.031170845">
        <ele>0.0</ele>
        <time>2026-04-25T15:09:37.000Z</time>
    </trkpt>
    <trkpt lat="59.1008019447" lon="30.0311279297">
        <ele>0.0</ele>
        <time>2026-04-25T15:09:39.000Z</time>
    </trkpt>
    <trkpt lat="59.1007804871" lon="30.0311279297">
        <ele>0.0</ele>
        <time>2026-04-25T15:09:42.000Z</time>
    </trkpt>
    <trkpt lat="59.1007804871" lon="30.031106472">
        <ele>0.0</ele>
        <time>2026-04-25T15:09:44.000Z</time>
    </trkpt>
    <trkpt lat="59.1007590294" lon="30.031106472">
        <ele>0.0</ele>
        <time>2026-04-25T15:09:47.000Z</time>
    </trkpt>
    <trkpt lat="59.1007375717" lon="30.0310635567">
        <ele>0.0</ele>
        <time>2026-04-25T15:09:49.000Z</time>
    </trkpt>
    <trkpt lat="59.100716114" lon="30.0310206413">
        <ele>0.0</ele>
        <time>2026-04-25T15:09:52.000Z</time>
    </trkpt>
    <trkpt lat="59.100716114" lon="30.030977726">
        <ele>0.0</ele>
        <time>2026-04-25T15:09:54.000Z</time>
    </trkpt>
    <trkpt lat="59.100716114" lon="30.0309562683">
        <ele>0.0</ele>
        <time>2026-04-25T15:09:57.000Z</time>
    </trkpt>
    <trkpt lat="59.1006946564" lon="30.030913353">
        <ele>0.0</ele>
        <time>2026-04-25T15:09:59.000Z</time>
    </trkpt>
    <trkpt lat="59.1006946564" lon="30.0308918953">
        <ele>0.0</ele>
        <time>2026-04-25T15:10:02.000Z</time>
    </trkpt>
    <trkpt lat="59.1006731987" lon="30.0308704376">
        <ele>0.0</ele>
        <time>2026-04-25T15:10:04.000Z</time>
    </trkpt>
    <trkpt lat="59.1006731987" lon="30.0308704376">
        <ele>0.0</ele>
        <time>2026-04-25T15:10:07.000Z</time>
    </trkpt>
    <trkpt lat="59.1006731987" lon="30.0308489799">
        <ele>0.0</ele>
        <time>2026-04-25T15:10:09.000Z</time>
    </trkpt>
    <trkpt lat="59.1006731987" lon="30.0308489799">
        <ele>0.0</ele>
        <time>2026-04-25T15:10:12.000Z</time>
    </trkpt>
    <trkpt lat="59.1006731987" lon="30.0308489799">
        <ele>0.0</ele>
        <time>2026-04-25T15:10:14.000Z</time>
    </trkpt>
    <trkpt lat="59.1006731987" lon="30.0308489799">
        <ele>0.0</ele>
        <time>2026-04-25T15:10:17.000Z</time>
    </trkpt>
    <trkpt lat="59.1006731987" lon="30.0308918953">
        <ele>0.0</ele>
        <time>2026-04-25T15:10:19.000Z</time>
    </trkpt>
    <trkpt lat="59.1006731987" lon="30.0308918953">
        <ele>0.0</ele>
        <time>2026-04-25T15:10:22.000Z</time>
    </trkpt>
    <trkpt lat="59.1006946564" lon="30.0308704376">
        <ele>0.0</ele>
        <time>2026-04-25T15:10:24.000Z</time>
    </trkpt>
    <trkpt lat="59.1006946564" lon="30.0308275223">
        <ele>0.0</ele>
        <time>2026-04-25T15:10:27.000Z</time>
    </trkpt>
    <trkpt lat="59.100716114" lon="30.0308275223">
        <ele>0.0</ele>
        <time>2026-04-25T15:10:29.000Z</time>
    </trkpt>
    <trkpt lat="59.1007375717" lon="30.0307846069">
        <ele>0.0</ele>
        <time>2026-04-25T15:10:32.000Z</time>
    </trkpt>
    <trkpt lat="59.100716114" lon="30.0307416916">
        <ele>0.0</ele>
        <time>2026-04-25T15:10:34.000Z</time>
    </trkpt>
    <trkpt lat="59.1006946564" lon="30.0307202339">
        <ele>0.0</ele>
        <time>2026-04-25T15:10:37.000Z</time>
    </trkpt>
    <trkpt lat="59.1006731987" lon="30.0306987762">
        <ele>0.0</ele>
        <time>2026-04-25T15:10:39.000Z</time>
    </trkpt>
    <trkpt lat="59.100651741" lon="30.0306773186">
        <ele>0.0</ele>
        <time>2026-04-25T15:10:42.000Z</time>
    </trkpt>
    <trkpt lat="59.100651741" lon="30.0306129456">
        <ele>0.0</ele>
        <time>2026-04-25T15:10:44.000Z</time>
    </trkpt>
    <trkpt lat="59.1006731987" lon="30.0306129456">
        <ele>0.0</ele>
        <time>2026-04-25T15:10:47.000Z</time>
    </trkpt>
    <trkpt lat="59.1006731987" lon="30.0305700302">
        <ele>0.0</ele>
        <time>2026-04-25T15:10:49.000Z</time>
    </trkpt>
    <trkpt lat="59.100651741" lon="30.0305271149">
        <ele>0.0</ele>
        <time>2026-04-25T15:10:52.000Z</time>
    </trkpt>
    <trkpt lat="59.100651741" lon="30.0304627419">
        <ele>0.0</ele>
        <time>2026-04-25T15:10:54.000Z</time>
    </trkpt>
    <trkpt lat="59.1006302834" lon="30.0304412842">
        <ele>0.0</ele>
        <time>2026-04-25T15:10:57.000Z</time>
    </trkpt>
    <trkpt lat="59.1006302834" lon="30.0303983688">
        <ele>0.0</ele>
        <time>2026-04-25T15:10:59.000Z</time>
    </trkpt>
    <trkpt lat="59.1006088257" lon="30.0303769112">
        <ele>0.0</ele>
        <time>2026-04-25T15:11:02.000Z</time>
    </trkpt>
    <trkpt lat="59.1006088257" lon="30.0303769112">
        <ele>0.0</ele>
        <time>2026-04-25T15:11:04.000Z</time>
    </trkpt>
    <trkpt lat="59.1006088257" lon="30.0303769112">
        <ele>0.0</ele>
        <time>2026-04-25T15:11:07.000Z</time>
    </trkpt>
    <trkpt lat="59.1006088257" lon="30.0303769112">
        <ele>0.0</ele>
        <time>2026-04-25T15:11:09.000Z</time>
    </trkpt>
    <trkpt lat="59.1006088257" lon="30.0303554535">
        <ele>0.0</ele>
        <time>2026-04-25T15:11:12.000Z</time>
    </trkpt>
    <trkpt lat="59.1006088257" lon="30.0303125381">
        <ele>0.0</ele>
        <time>2026-04-25T15:11:14.000Z</time>
    </trkpt>
    <trkpt lat="59.1006088257" lon="30.0303125381">
        <ele>0.0</ele>
        <time>2026-04-25T15:11:17.000Z</time>
    </trkpt>
    <trkpt lat="59.1006088257" lon="30.0303125381">
        <ele>0.0</ele>
        <time>2026-04-25T15:11:19.000Z</time>
    </trkpt>
    <trkpt lat="59.1006088257" lon="30.0303125381">
        <ele>0.0</ele>
        <time>2026-04-25T15:11:22.000Z</time>
    </trkpt>
    <trkpt lat="59.100587368" lon="30.0302910805">
        <ele>0.0</ele>
        <time>2026-04-25T15:11:24.000Z</time>
    </trkpt>
    <trkpt lat="59.100587368" lon="30.0302696228">
        <ele>0.0</ele>
        <time>2026-04-25T15:11:27.000Z</time>
    </trkpt>
    <trkpt lat="59.100587368" lon="30.0302481651">
        <ele>0.0</ele>
        <time>2026-04-25T15:11:29.000Z</time>
    </trkpt>
    <trkpt lat="59.100587368" lon="30.0302481651">
        <ele>0.0</ele>
        <time>2026-04-25T15:11:32.000Z</time>
    </trkpt>
    <trkpt lat="59.1005659103" lon="30.0302267075">
        <ele>0.0</ele>
        <time>2026-04-25T15:11:34.000Z</time>
    </trkpt>
    <trkpt lat="59.1005659103" lon="30.0301837921">
        <ele>0.0</ele>
        <time>2026-04-25T15:11:37.000Z</time>
    </trkpt>
    <trkpt lat="59.1005659103" lon="30.0301837921">
        <ele>0.0</ele>
        <time>2026-04-25T15:11:39.000Z</time>
    </trkpt>
    <trkpt lat="59.1005659103" lon="30.0301623344">
        <ele>0.0</ele>
        <time>2026-04-25T15:11:42.000Z</time>
    </trkpt>
    <trkpt lat="59.1005659103" lon="30.0301194191">
        <ele>0.0</ele>
        <time>2026-04-25T15:11:44.000Z</time>
    </trkpt>
    <trkpt lat="59.100587368" lon="30.0301408768">
        <ele>0.0</ele>
        <time>2026-04-25T15:11:47.000Z</time>
    </trkpt>
    <trkpt lat="59.100587368" lon="30.0301194191">
        <ele>0.0</ele>
        <time>2026-04-25T15:11:49.000Z</time>
    </trkpt>
    <trkpt lat="59.100587368" lon="30.0301194191">
        <ele>0.0</ele>
        <time>2026-04-25T15:11:52.000Z</time>
    </trkpt>
    <trkpt lat="59.100587368" lon="30.0300765038">
        <ele>0.0</ele>
        <time>2026-04-25T15:11:54.000Z</time>
    </trkpt>
    <trkpt lat="59.1006088257" lon="30.0300335884">
        <ele>0.0</ele>
        <time>2026-04-25T15:11:57.000Z</time>
    </trkpt>
    <trkpt lat="59.1006088257" lon="30.0299906731">
        <ele>0.0</ele>
        <time>2026-04-25T15:11:59.000Z</time>
    </trkpt>
    <trkpt lat="59.1006088257" lon="30.0299692154">
        <ele>0.0</ele>
        <time>2026-04-25T15:12:02.000Z</time>
    </trkpt>
    <trkpt lat="59.1006088257" lon="30.0299477577">
        <ele>0.0</ele>
        <time>2026-04-25T15:12:04.000Z</time>
    </trkpt>
    <trkpt lat="59.1006302834" lon="30.0299263">
        <ele>0.0</ele>
        <time>2026-04-25T15:12:07.000Z</time>
    </trkpt>
    <trkpt lat="59.1006088257" lon="30.029861927">
        <ele>0.0</ele>
        <time>2026-04-25T15:12:09.000Z</time>
    </trkpt>
    <trkpt lat="59.100587368" lon="30.0298404694">
        <ele>0.0</ele>
        <time>2026-04-25T15:12:12.000Z</time>
    </trkpt>
    <trkpt lat="59.1005659103" lon="30.0298190117">
        <ele>0.0</ele>
        <time>2026-04-25T15:12:14.000Z</time>
    </trkpt>
    <trkpt lat="59.1005659103" lon="30.0298190117">
        <ele>0.0</ele>
        <time>2026-04-25T15:12:17.000Z</time>
    </trkpt>
    <trkpt lat="59.1005659103" lon="30.0298404694">
        <ele>0.0</ele>
        <time>2026-04-25T15:12:19.000Z</time>
    </trkpt>
    <trkpt lat="59.1005659103" lon="30.0298404694">
        <ele>0.0</ele>
        <time>2026-04-25T15:12:22.000Z</time>
    </trkpt>
    <trkpt lat="59.1005444527" lon="30.0298404694">
        <ele>0.0</ele>
        <time>2026-04-25T15:12:24.000Z</time>
    </trkpt>
    <trkpt lat="59.100522995" lon="30.029797554">
        <ele>0.0</ele>
        <time>2026-04-25T15:12:27.000Z</time>
    </trkpt>
    <trkpt lat="59.100522995" lon="30.0297546387">
        <ele>0.0</ele>
        <time>2026-04-25T15:12:29.000Z</time>
    </trkpt>
    <trkpt lat="59.100522995" lon="30.029733181">
        <ele>0.0</ele>
        <time>2026-04-25T15:12:32.000Z</time>
    </trkpt>
    <trkpt lat="59.100522995" lon="30.029733181">
        <ele>0.0</ele>
        <time>2026-04-25T15:12:34.000Z</time>
    </trkpt>
    <trkpt lat="59.1005015373" lon="30.0296902657">
        <ele>0.0</ele>
        <time>2026-04-25T15:12:37.000Z</time>
    </trkpt>
    <trkpt lat="59.1005015373" lon="30.0296473503">
        <ele>0.0</ele>
        <time>2026-04-25T15:12:39.000Z</time>
    </trkpt>
    <trkpt lat="59.1005015373" lon="30.029604435">
        <ele>0.0</ele>
        <time>2026-04-25T15:12:42.000Z</time>
    </trkpt>
    <trkpt lat="59.1005015373" lon="30.0295615196">
        <ele>0.0</ele>
        <time>2026-04-25T15:12:44.000Z</time>
    </trkpt>
    <trkpt lat="59.1004800797" lon="30.0295186043">
        <ele>0.0</ele>
        <time>2026-04-25T15:12:47.000Z</time>
    </trkpt>
    <trkpt lat="59.1004800797" lon="30.0294971466">
        <ele>0.0</ele>
        <time>2026-04-25T15:12:49.000Z</time>
    </trkpt>
    <trkpt lat="59.1004800797" lon="30.0294542313">
        <ele>0.0</ele>
        <time>2026-04-25T15:12:52.000Z</time>
    </trkpt>
    <trkpt lat="59.100458622" lon="30.0293684006">
        <ele>0.0</ele>
        <time>2026-04-25T15:12:54.000Z</time>
    </trkpt>
    <trkpt lat="59.100458622" lon="30.0293469429">
        <ele>0.0</ele>
        <time>2026-04-25T15:12:57.000Z</time>
    </trkpt>
    <trkpt lat="59.100458622" lon="30.0293469429">
        <ele>0.0</ele>
        <time>2026-04-25T15:12:59.000Z</time>
    </trkpt>
    <trkpt lat="59.100458622" lon="30.0293469429">
        <ele>0.0</ele>
        <time>2026-04-25T15:13:02.000Z</time>
    </trkpt>
    <trkpt lat="59.1004800797" lon="30.0293040276">
        <ele>0.0</ele>
        <time>2026-04-25T15:13:04.000Z</time>
    </trkpt>
    <trkpt lat="59.100458622" lon="30.0293040276">
        <ele>0.0</ele>
        <time>2026-04-25T15:13:07.000Z</time>
    </trkpt>
    <trkpt lat="59.100458622" lon="30.0293040276">
        <ele>0.0</ele>
        <time>2026-04-25T15:13:09.000Z</time>
    </trkpt>
    <trkpt lat="59.100458622" lon="30.0293040276">
        <ele>0.0</ele>
        <time>2026-04-25T15:13:12.000Z</time>
    </trkpt>
    <trkpt lat="59.100458622" lon="30.0293040276">
        <ele>0.0</ele>
        <time>2026-04-25T15:13:14.000Z</time>
    </trkpt>
    <trkpt lat="59.100458622" lon="30.0293040276">
        <ele>0.0</ele>
        <time>2026-04-25T15:13:17.000Z</time>
    </trkpt>
    <trkpt lat="59.100458622" lon="30.0293040276">
        <ele>0.0</ele>
        <time>2026-04-25T15:13:19.000Z</time>
    </trkpt>
    <trkpt lat="59.1004800797" lon="30.0293469429">
        <ele>0.0</ele>
        <time>2026-04-25T15:13:22.000Z</time>
    </trkpt>
    <trkpt lat="59.1005015373" lon="30.0293898582">
        <ele>0.0</ele>
        <time>2026-04-25T15:13:24.000Z</time>
    </trkpt>
    <trkpt lat="59.100522995" lon="30.0294113159">
        <ele>0.0</ele>
        <time>2026-04-25T15:13:27.000Z</time>
    </trkpt>
    <trkpt lat="59.100522995" lon="30.0293684006">
        <ele>0.0</ele>
        <time>2026-04-25T15:13:29.000Z</time>
    </trkpt>
    <trkpt lat="59.1005444527" lon="30.0293469429">
        <ele>0.0</ele>
        <time>2026-04-25T15:13:32.000Z</time>
    </trkpt>
    <trkpt lat="59.1005444527" lon="30.0293469429">
        <ele>0.0</ele>
        <time>2026-04-25T15:13:34.000Z</time>
    </trkpt>
    <trkpt lat="59.1005659103" lon="30.0293254852">
        <ele>0.0</ele>
        <time>2026-04-25T15:13:37.000Z</time>
    </trkpt>
    <trkpt lat="59.1005659103" lon="30.0292825699">
        <ele>0.0</ele>
        <time>2026-04-25T15:13:39.000Z</time>
    </trkpt>
    <trkpt lat="59.1005659103" lon="30.0292825699">
        <ele>0.0</ele>
        <time>2026-04-25T15:13:42.000Z</time>
    </trkpt>
    <trkpt lat="59.1005444527" lon="30.0292181969">
        <ele>0.0</ele>
        <time>2026-04-25T15:13:44.000Z</time>
    </trkpt>
    <trkpt lat="59.1005659103" lon="30.0291752815">
        <ele>0.0</ele>
        <time>2026-04-25T15:13:47.000Z</time>
    </trkpt>
    <trkpt lat="59.1005659103" lon="30.0289607048">
        <ele>0.0</ele>
        <time>2026-04-25T15:13:49.000Z</time>
    </trkpt>
    <trkpt lat="59.1005659103" lon="30.0288748741">
        <ele>0.0</ele>
        <time>2026-04-25T15:13:52.000Z</time>
    </trkpt>
    <trkpt lat="59.1005444527" lon="30.0287675858">
        <ele>0.0</ele>
        <time>2026-04-25T15:13:54.000Z</time>
    </trkpt>
    <trkpt lat="59.1005444527" lon="30.0287461281">
        <ele>0.0</ele>
        <time>2026-04-25T15:13:57.000Z</time>
    </trkpt>
    <trkpt lat="59.1005444527" lon="30.0287461281">
        <ele>0.0</ele>
        <time>2026-04-25T15:13:59.000Z</time>
    </trkpt>
    <trkpt lat="59.1005444527" lon="30.0287461281">
        <ele>0.0</ele>
        <time>2026-04-25T15:14:02.000Z</time>
    </trkpt>
    <trkpt lat="59.100522995" lon="30.0287461281">
        <ele>0.0</ele>
        <time>2026-04-25T15:14:04.000Z</time>
    </trkpt>
    <trkpt lat="59.1005015373" lon="30.0287246704">
        <ele>0.0</ele>
        <time>2026-04-25T15:14:07.000Z</time>
    </trkpt>
    <trkpt lat="59.1004800797" lon="30.0287032127">
        <ele>0.0</ele>
        <time>2026-04-25T15:14:09.000Z</time>
    </trkpt>
    <trkpt lat="59.100458622" lon="30.0287032127">
        <ele>0.0</ele>
        <time>2026-04-25T15:14:12.000Z</time>
    </trkpt>
    <trkpt lat="59.1004371643" lon="30.0286817551">
        <ele>0.0</ele>
        <time>2026-04-25T15:14:14.000Z</time>
    </trkpt>
    <trkpt lat="59.1004371643" lon="30.0286817551">
        <ele>0.0</ele>
        <time>2026-04-25T15:14:17.000Z</time>
    </trkpt>
    <trkpt lat="59.1004371643" lon="30.0286602974">
        <ele>0.0</ele>
        <time>2026-04-25T15:14:19.000Z</time>
    </trkpt>
    <trkpt lat="59.1004371643" lon="30.0286388397">
        <ele>0.0</ele>
        <time>2026-04-25T15:14:22.000Z</time>
    </trkpt>
    <trkpt lat="59.1004157066" lon="30.0285744667">
        <ele>0.0</ele>
        <time>2026-04-25T15:14:24.000Z</time>
    </trkpt>
    <trkpt lat="59.100394249" lon="30.0285315514">
        <ele>0.0</ele>
        <time>2026-04-25T15:14:27.000Z</time>
    </trkpt>
    <trkpt lat="59.100394249" lon="30.0285100937">
        <ele>0.0</ele>
        <time>2026-04-25T15:14:29.000Z</time>
    </trkpt>
    <trkpt lat="59.1003727913" lon="30.0284671783">
        <ele>0.0</ele>
        <time>2026-04-25T15:14:32.000Z</time>
    </trkpt>
    <trkpt lat="59.1003727913" lon="30.0284457207">
        <ele>0.0</ele>
        <time>2026-04-25T15:14:34.000Z</time>
    </trkpt>
    <trkpt lat="59.1003727913" lon="30.0284457207">
        <ele>0.0</ele>
        <time>2026-04-25T15:14:37.000Z</time>
    </trkpt>
    <trkpt lat="59.1003727913" lon="30.028424263">
        <ele>0.0</ele>
        <time>2026-04-25T15:14:39.000Z</time>
    </trkpt>
    <trkpt lat="59.100394249" lon="30.0283813477">
        <ele>0.0</ele>
        <time>2026-04-25T15:14:42.000Z</time>
    </trkpt>
    <trkpt lat="59.1004157066" lon="30.0283384323">
        <ele>0.0</ele>
        <time>2026-04-25T15:14:44.000Z</time>
    </trkpt>
    <trkpt lat="59.100458622" lon="30.028295517">
        <ele>0.0</ele>
        <time>2026-04-25T15:14:47.000Z</time>
    </trkpt>
    <trkpt lat="59.1004800797" lon="30.028231144">
        <ele>0.0</ele>
        <time>2026-04-25T15:14:49.000Z</time>
    </trkpt>
    <trkpt lat="59.1004800797" lon="30.028231144">
        <ele>0.0</ele>
        <time>2026-04-25T15:14:52.000Z</time>
    </trkpt>
    <trkpt lat="59.1004800797" lon="30.028231144">
        <ele>0.0</ele>
        <time>2026-04-25T15:14:54.000Z</time>
    </trkpt>
    <trkpt lat="59.1004800797" lon="30.028231144">
        <ele>0.0</ele>
        <time>2026-04-25T15:14:57.000Z</time>
    </trkpt>
    <trkpt lat="59.1004800797" lon="30.028231144">
        <ele>0.0</ele>
        <time>2026-04-25T15:14:59.000Z</time>
    </trkpt>
    <trkpt lat="59.1004800797" lon="30.0282526016">
        <ele>0.0</ele>
        <time>2026-04-25T15:15:02.000Z</time>
    </trkpt>
    <trkpt lat="59.100458622" lon="30.0282526016">
        <ele>0.0</ele>
        <time>2026-04-25T15:15:04.000Z</time>
    </trkpt>
    <trkpt lat="59.100458622" lon="30.028295517">
        <ele>0.0</ele>
        <time>2026-04-25T15:15:07.000Z</time>
    </trkpt>
    <trkpt lat="59.100458622" lon="30.028295517">
        <ele>0.0</ele>
        <time>2026-04-25T15:15:09.000Z</time>
    </trkpt>
    <trkpt lat="59.100458622" lon="30.028295517">
        <ele>0.0</ele>
        <time>2026-04-25T15:15:12.000Z</time>
    </trkpt>
    <trkpt lat="59.100458622" lon="30.028295517">
        <ele>0.0</ele>
        <time>2026-04-25T15:15:14.000Z</time>
    </trkpt>
    <trkpt lat="59.100458622" lon="30.028295517">
        <ele>0.0</ele>
        <time>2026-04-25T15:15:17.000Z</time>
    </trkpt>
    <trkpt lat="59.100458622" lon="30.028295517">
        <ele>0.0</ele>
        <time>2026-04-25T15:15:19.000Z</time>
    </trkpt>
    <trkpt lat="59.100458622" lon="30.0282740593">
        <ele>0.0</ele>
        <time>2026-04-25T15:15:22.000Z</time>
    </trkpt>
    <trkpt lat="59.1004800797" lon="30.028295517">
        <ele>0.0</ele>
        <time>2026-04-25T15:15:24.000Z</time>
    </trkpt>
    <trkpt lat="59.100522995" lon="30.028295517">
        <ele>0.0</ele>
        <time>2026-04-25T15:15:27.000Z</time>
    </trkpt>
    <trkpt lat="59.1005659103" lon="30.0282526016">
        <ele>0.0</ele>
        <time>2026-04-25T15:15:29.000Z</time>
    </trkpt>
    <trkpt lat="59.1005659103" lon="30.028231144">
        <ele>0.0</ele>
        <time>2026-04-25T15:15:32.000Z</time>
    </trkpt>
    <trkpt lat="59.100587368" lon="30.0281667709">
        <ele>0.0</ele>
        <time>2026-04-25T15:15:34.000Z</time>
    </trkpt>
    <trkpt lat="59.100587368" lon="30.0281453133">
        <ele>0.0</ele>
        <time>2026-04-25T15:15:37.000Z</time>
    </trkpt>
    <trkpt lat="59.100587368" lon="30.0281453133">
        <ele>0.0</ele>
        <time>2026-04-25T15:15:39.000Z</time>
    </trkpt>
    <trkpt lat="59.100587368" lon="30.0281453133">
        <ele>0.0</ele>
        <time>2026-04-25T15:15:42.000Z</time>
    </trkpt>
    <trkpt lat="59.100587368" lon="30.0281453133">
        <ele>0.0</ele>
        <time>2026-04-25T15:15:44.000Z</time>
    </trkpt>
    <trkpt lat="59.1006088257" lon="30.0281238556">
        <ele>0.0</ele>
        <time>2026-04-25T15:15:47.000Z</time>
    </trkpt>
    <trkpt lat="59.100651741" lon="30.0280594826">
        <ele>0.0</ele>
        <time>2026-04-25T15:15:49.000Z</time>
    </trkpt>
    <trkpt lat="59.100651741" lon="30.0280165672">
        <ele>0.0</ele>
        <time>2026-04-25T15:15:52.000Z</time>
    </trkpt>
    <trkpt lat="59.100651741" lon="30.0279951096">
        <ele>0.0</ele>
        <time>2026-04-25T15:15:54.000Z</time>
    </trkpt>
    <trkpt lat="59.100651741" lon="30.0279951096">
        <ele>0.0</ele>
        <time>2026-04-25T15:15:57.000Z</time>
    </trkpt>
    <trkpt lat="59.100651741" lon="30.0279736519">
        <ele>0.0</ele>
        <time>2026-04-25T15:15:59.000Z</time>
    </trkpt>
    <trkpt lat="59.1006302834" lon="30.0279736519">
        <ele>0.0</ele>
        <time>2026-04-25T15:16:02.000Z</time>
    </trkpt>
    <trkpt lat="59.100651741" lon="30.0279736519">
        <ele>0.0</ele>
        <time>2026-04-25T15:16:04.000Z</time>
    </trkpt>
    <trkpt lat="59.1006946564" lon="30.0279521942">
        <ele>0.0</ele>
        <time>2026-04-25T15:16:07.000Z</time>
    </trkpt>
    <trkpt lat="59.1007375717" lon="30.0279307365">
        <ele>0.0</ele>
        <time>2026-04-25T15:16:09.000Z</time>
    </trkpt>
    <trkpt lat="59.1007375717" lon="30.0279307365">
        <ele>0.0</ele>
        <time>2026-04-25T15:16:12.000Z</time>
    </trkpt>
    <trkpt lat="59.1007590294" lon="30.0278878212">
        <ele>0.0</ele>
        <time>2026-04-25T15:16:14.000Z</time>
    </trkpt>
    <trkpt lat="59.1007804871" lon="30.0278449059">
        <ele>0.0</ele>
        <time>2026-04-25T15:16:17.000Z</time>
    </trkpt>
    <trkpt lat="59.1007804871" lon="30.0278234482">
        <ele>0.0</ele>
        <time>2026-04-25T15:16:19.000Z</time>
    </trkpt>
    <trkpt lat="59.1007804871" lon="30.0278234482">
        <ele>0.0</ele>
        <time>2026-04-25T15:16:22.000Z</time>
    </trkpt>
    <trkpt lat="59.1007804871" lon="30.0278234482">
        <ele>0.0</ele>
        <time>2026-04-25T15:16:24.000Z</time>
    </trkpt>
    <trkpt lat="59.1007804871" lon="30.0278234482">
        <ele>0.0</ele>
        <time>2026-04-25T15:16:27.000Z</time>
    </trkpt>
    <trkpt lat="59.1007804871" lon="30.0278449059">
        <ele>0.0</ele>
        <time>2026-04-25T15:16:29.000Z</time>
    </trkpt>
    <trkpt lat="59.1007804871" lon="30.0278449059">
        <ele>0.0</ele>
        <time>2026-04-25T15:16:32.000Z</time>
    </trkpt>
    <trkpt lat="59.1007804871" lon="30.0278449059">
        <ele>0.0</ele>
        <time>2026-04-25T15:16:34.000Z</time>
    </trkpt>
    <trkpt lat="59.1007590294" lon="30.0278663635">
        <ele>0.0</ele>
        <time>2026-04-25T15:16:37.000Z</time>
    </trkpt>
    <trkpt lat="59.1007590294" lon="30.0278663635">
        <ele>0.0</ele>
        <time>2026-04-25T15:16:39.000Z</time>
    </trkpt>
    <trkpt lat="59.1007590294" lon="30.0278663635">
        <ele>0.0</ele>
        <time>2026-04-25T15:16:42.000Z</time>
    </trkpt>
    <trkpt lat="59.1007590294" lon="30.0278663635">
        <ele>0.0</ele>
        <time>2026-04-25T15:16:44.000Z</time>
    </trkpt>
    <trkpt lat="59.1007590294" lon="30.0278663635">
        <ele>0.0</ele>
        <time>2026-04-25T15:16:47.000Z</time>
    </trkpt>
    <trkpt lat="59.1007804871" lon="30.0278234482">
        <ele>0.0</ele>
        <time>2026-04-25T15:16:49.000Z</time>
    </trkpt>
    <trkpt lat="59.1007590294" lon="30.0279092789">
        <ele>0.0</ele>
        <time>2026-04-25T15:16:52.000Z</time>
    </trkpt>
    <trkpt lat="59.1008019447" lon="30.0280594826">
        <ele>0.0</ele>
        <time>2026-04-25T15:16:54.000Z</time>
    </trkpt>
    <trkpt lat="59.1008019447" lon="30.0280809402">
        <ele>0.0</ele>
        <time>2026-04-25T15:16:57.000Z</time>
    </trkpt>
    <trkpt lat="59.1008019447" lon="30.0281238556">
        <ele>0.0</ele>
        <time>2026-04-25T15:16:59.000Z</time>
    </trkpt>
    <trkpt lat="59.1008234024" lon="30.0281453133">
        <ele>0.0</ele>
        <time>2026-04-25T15:17:02.000Z</time>
    </trkpt>
    <trkpt lat="59.1008448601" lon="30.0281667709">
        <ele>0.0</ele>
        <time>2026-04-25T15:17:04.000Z</time>
    </trkpt>
    <trkpt lat="59.1008663177" lon="30.0281882286">
        <ele>0.0</ele>
        <time>2026-04-25T15:17:07.000Z</time>
    </trkpt>
    <trkpt lat="59.1008877754" lon="30.028231144">
        <ele>0.0</ele>
        <time>2026-04-25T15:17:09.000Z</time>
    </trkpt>
    <trkpt lat="59.1008877754" lon="30.028231144">
        <ele>0.0</ele>
        <time>2026-04-25T15:17:12.000Z</time>
    </trkpt>
    <trkpt lat="59.1009092331" lon="30.0282526016">
        <ele>0.0</ele>
        <time>2026-04-25T15:17:14.000Z</time>
    </trkpt>
    <trkpt lat="59.1009306908" lon="30.0283169746">
        <ele>0.0</ele>
        <time>2026-04-25T15:17:17.000Z</time>
    </trkpt>
    <trkpt lat="59.1009521484" lon="30.028424263">
        <ele>0.0</ele>
        <time>2026-04-25T15:17:19.000Z</time>
    </trkpt>
    <trkpt lat="59.1009521484" lon="30.0284671783">
        <ele>0.0</ele>
        <time>2026-04-25T15:17:22.000Z</time>
    </trkpt>
    <trkpt lat="59.1009736061" lon="30.028488636">
        <ele>0.0</ele>
        <time>2026-04-25T15:17:24.000Z</time>
    </trkpt>
    <trkpt lat="59.1009736061" lon="30.0284671783">
        <ele>0.0</ele>
        <time>2026-04-25T15:17:27.000Z</time>
    </trkpt>
    <trkpt lat="59.1009950638" lon="30.0285315514">
        <ele>0.0</ele>
        <time>2026-04-25T15:17:29.000Z</time>
    </trkpt>
    <trkpt lat="59.1009950638" lon="30.0285744667">
        <ele>0.0</ele>
        <time>2026-04-25T15:17:32.000Z</time>
    </trkpt>
    <trkpt lat="59.1009736061" lon="30.0285744667">
        <ele>0.0</ele>
        <time>2026-04-25T15:17:34.000Z</time>
    </trkpt>
    <trkpt lat="59.1009521484" lon="30.028553009">
        <ele>0.0</ele>
        <time>2026-04-25T15:17:37.000Z</time>
    </trkpt>
    <trkpt lat="59.1009521484" lon="30.0285100937">
        <ele>0.0</ele>
        <time>2026-04-25T15:17:39.000Z</time>
    </trkpt>
    <trkpt lat="59.1009306908" lon="30.0285315514">
        <ele>0.0</ele>
        <time>2026-04-25T15:17:42.000Z</time>
    </trkpt>
    <trkpt lat="59.1009306908" lon="30.0285100937">
        <ele>0.0</ele>
        <time>2026-04-25T15:17:44.000Z</time>
    </trkpt>
    <trkpt lat="59.1009092331" lon="30.028488636">
        <ele>0.0</ele>
        <time>2026-04-25T15:17:47.000Z</time>
    </trkpt>
    <trkpt lat="59.1008877754" lon="30.0284671783">
        <ele>0.0</ele>
        <time>2026-04-25T15:17:49.000Z</time>
    </trkpt>
    <trkpt lat="59.1008663177" lon="30.0284457207">
        <ele>0.0</ele>
        <time>2026-04-25T15:17:52.000Z</time>
    </trkpt>
    <trkpt lat="59.1008663177" lon="30.0284457207">
        <ele>0.0</ele>
        <time>2026-04-25T15:17:54.000Z</time>
    </trkpt>
    <trkpt lat="59.1008663177" lon="30.0284457207">
        <ele>0.0</ele>
        <time>2026-04-25T15:17:57.000Z</time>
    </trkpt>
    <trkpt lat="59.1008663177" lon="30.0284457207">
        <ele>0.0</ele>
        <time>2026-04-25T15:17:59.000Z</time>
    </trkpt>
    <trkpt lat="59.1009092331" lon="30.0285100937">
        <ele>0.0</ele>
        <time>2026-04-25T15:18:02.000Z</time>
    </trkpt>
    <trkpt lat="59.1009521484" lon="30.028617382">
        <ele>0.0</ele>
        <time>2026-04-25T15:18:04.000Z</time>
    </trkpt>
    <trkpt lat="59.1009521484" lon="30.0286602974">
        <ele>0.0</ele>
        <time>2026-04-25T15:18:07.000Z</time>
    </trkpt>
    <trkpt lat="59.1009950638" lon="30.0287675858">
        <ele>0.0</ele>
        <time>2026-04-25T15:18:09.000Z</time>
    </trkpt>
    <trkpt lat="59.1010165215" lon="30.0288319588">
        <ele>0.0</ele>
        <time>2026-04-25T15:18:12.000Z</time>
    </trkpt>
    <trkpt lat="59.1010165215" lon="30.0288963318">
        <ele>0.0</ele>
        <time>2026-04-25T15:18:14.000Z</time>
    </trkpt>
    <trkpt lat="59.1010594368" lon="30.0289607048">
        <ele>0.0</ele>
        <time>2026-04-25T15:18:17.000Z</time>
    </trkpt>
    <trkpt lat="59.1010808945" lon="30.0290036201">
        <ele>0.0</ele>
        <time>2026-04-25T15:18:19.000Z</time>
    </trkpt>
    <trkpt lat="59.1011023521" lon="30.0290250778">
        <ele>0.0</ele>
        <time>2026-04-25T15:18:22.000Z</time>
    </trkpt>
    <trkpt lat="59.1011238098" lon="30.0290679932">
        <ele>0.0</ele>
        <time>2026-04-25T15:18:24.000Z</time>
    </trkpt>
    <trkpt lat="59.1011452675" lon="30.0291538239">
        <ele>0.0</ele>
        <time>2026-04-25T15:18:27.000Z</time>
    </trkpt>
    <trkpt lat="59.1011452675" lon="30.0292181969">
        <ele>0.0</ele>
        <time>2026-04-25T15:18:29.000Z</time>
    </trkpt>
    <trkpt lat="59.1011452675" lon="30.0292825699">
        <ele>0.0</ele>
        <time>2026-04-25T15:18:32.000Z</time>
    </trkpt>
    <trkpt lat="59.1011667252" lon="30.0293684006">
        <ele>0.0</ele>
        <time>2026-04-25T15:18:34.000Z</time>
    </trkpt>
    <trkpt lat="59.1011881828" lon="30.0294327736">
        <ele>0.0</ele>
        <time>2026-04-25T15:18:37.000Z</time>
    </trkpt>
    <trkpt lat="59.1011881828" lon="30.0294542313">
        <ele>0.0</ele>
        <time>2026-04-25T15:18:39.000Z</time>
    </trkpt>
    <trkpt lat="59.1011667252" lon="30.0294327736">
        <ele>0.0</ele>
        <time>2026-04-25T15:18:42.000Z</time>
    </trkpt>
    <trkpt lat="59.1011667252" lon="30.0294542313">
        <ele>0.0</ele>
        <time>2026-04-25T15:18:44.000Z</time>
    </trkpt>
    <trkpt lat="59.1011452675" lon="30.0294756889">
        <ele>0.0</ele>
        <time>2026-04-25T15:18:47.000Z</time>
    </trkpt>
    <trkpt lat="59.1011452675" lon="30.0294971466">
        <ele>0.0</ele>
        <time>2026-04-25T15:18:49.000Z</time>
    </trkpt>
    <trkpt lat="59.1011238098" lon="30.0295186043">
        <ele>0.0</ele>
        <time>2026-04-25T15:18:52.000Z</time>
    </trkpt>
    <trkpt lat="59.1010808945" lon="30.0294971466">
        <ele>0.0</ele>
        <time>2026-04-25T15:18:54.000Z</time>
    </trkpt>
    <trkpt lat="59.1010594368" lon="30.0294971466">
        <ele>0.0</ele>
        <time>2026-04-25T15:18:57.000Z</time>
    </trkpt>
    <trkpt lat="59.1010594368" lon="30.0294542313">
        <ele>0.0</ele>
        <time>2026-04-25T15:18:59.000Z</time>
    </trkpt>
    <trkpt lat="59.1010379791" lon="30.0294327736">
        <ele>0.0</ele>
        <time>2026-04-25T15:19:02.000Z</time>
    </trkpt>
    <trkpt lat="59.1009950638" lon="30.0294327736">
        <ele>0.0</ele>
        <time>2026-04-25T15:19:04.000Z</time>
    </trkpt>
    <trkpt lat="59.1009521484" lon="30.0294542313">
        <ele>0.0</ele>
        <time>2026-04-25T15:19:07.000Z</time>
    </trkpt>
    <trkpt lat="59.1009521484" lon="30.0295186043">
        <ele>0.0</ele>
        <time>2026-04-25T15:19:09.000Z</time>
    </trkpt>
    <trkpt lat="59.1009306908" lon="30.029540062">
        <ele>0.0</ele>
        <time>2026-04-25T15:19:12.000Z</time>
    </trkpt>
    <trkpt lat="59.1009092331" lon="30.0296258926">
        <ele>0.0</ele>
        <time>2026-04-25T15:19:14.000Z</time>
    </trkpt>
    <trkpt lat="59.1009092331" lon="30.029668808">
        <ele>0.0</ele>
        <time>2026-04-25T15:19:17.000Z</time>
    </trkpt>
    <trkpt lat="59.1009306908" lon="30.029733181">
        <ele>0.0</ele>
        <time>2026-04-25T15:19:19.000Z</time>
    </trkpt>
    <trkpt lat="59.1009306908" lon="30.029733181">
        <ele>0.0</ele>
        <time>2026-04-25T15:19:22.000Z</time>
    </trkpt>
    <trkpt lat="59.1009306908" lon="30.0297546387">
        <ele>0.0</ele>
        <time>2026-04-25T15:19:24.000Z</time>
    </trkpt>
    <trkpt lat="59.1009306908" lon="30.0297546387">
        <ele>0.0</ele>
        <time>2026-04-25T15:19:27.000Z</time>
    </trkpt>
    <trkpt lat="59.1009306908" lon="30.0297546387">
        <ele>0.0</ele>
        <time>2026-04-25T15:19:29.000Z</time>
    </trkpt>
    <trkpt lat="59.1009092331" lon="30.029733181">
        <ele>0.0</ele>
        <time>2026-04-25T15:19:32.000Z</time>
    </trkpt>
    <trkpt lat="59.1009092331" lon="30.0297117233">
        <ele>0.0</ele>
        <time>2026-04-25T15:19:34.000Z</time>
    </trkpt>
    <trkpt lat="59.1009306908" lon="30.0296473503">
        <ele>0.0</ele>
        <time>2026-04-25T15:19:37.000Z</time>
    </trkpt>
    <trkpt lat="59.1009306908" lon="30.0296473503">
        <ele>0.0</ele>
        <time>2026-04-25T15:19:39.000Z</time>
    </trkpt>
    <trkpt lat="59.1009521484" lon="30.0296473503">
        <ele>0.0</ele>
        <time>2026-04-25T15:19:42.000Z</time>
    </trkpt>
    <trkpt lat="59.1009736061" lon="30.0297117233">
        <ele>0.0</ele>
        <time>2026-04-25T15:19:44.000Z</time>
    </trkpt>
    <trkpt lat="59.1009950638" lon="30.029733181">
        <ele>0.0</ele>
        <time>2026-04-25T15:19:47.000Z</time>
    </trkpt>
    <trkpt lat="59.1009950638" lon="30.0297760963">
        <ele>0.0</ele>
        <time>2026-04-25T15:19:49.000Z</time>
    </trkpt>
    <trkpt lat="59.1009950638" lon="30.0297760963">
        <ele>0.0</ele>
        <time>2026-04-25T15:19:52.000Z</time>
    </trkpt>
    <trkpt lat="59.1009736061" lon="30.029797554">
        <ele>0.0</ele>
        <time>2026-04-25T15:19:54.000Z</time>
    </trkpt>
    <trkpt lat="59.1009950638" lon="30.0298190117">
        <ele>0.0</ele>
        <time>2026-04-25T15:19:57.000Z</time>
    </trkpt>
    <trkpt lat="59.1010165215" lon="30.0298404694">
        <ele>0.0</ele>
        <time>2026-04-25T15:19:59.000Z</time>
    </trkpt>
    <trkpt lat="59.1010165215" lon="30.0298404694">
        <ele>0.0</ele>
        <time>2026-04-25T15:20:02.000Z</time>
    </trkpt>
    <trkpt lat="59.1010379791" lon="30.0298833847">
        <ele>0.0</ele>
        <time>2026-04-25T15:20:04.000Z</time>
    </trkpt>
    <trkpt lat="59.1010379791" lon="30.0298833847">
        <ele>0.0</ele>
        <time>2026-04-25T15:20:07.000Z</time>
    </trkpt>
    <trkpt lat="59.1010379791" lon="30.0298833847">
        <ele>0.0</ele>
        <time>2026-04-25T15:20:09.000Z</time>
    </trkpt>
    <trkpt lat="59.1010379791" lon="30.0298833847">
        <ele>0.0</ele>
        <time>2026-04-25T15:20:12.000Z</time>
    </trkpt>
    <trkpt lat="59.1010379791" lon="30.0298833847">
        <ele>0.0</ele>
        <time>2026-04-25T15:20:14.000Z</time>
    </trkpt>
    <trkpt lat="59.1010379791" lon="30.0298833847">
        <ele>0.0</ele>
        <time>2026-04-25T15:20:17.000Z</time>
    </trkpt>
    <trkpt lat="59.1010379791" lon="30.0299263">
        <ele>0.0</ele>
        <time>2026-04-25T15:20:19.000Z</time>
    </trkpt>
    <trkpt lat="59.1010379791" lon="30.0299263">
        <ele>0.0</ele>
        <time>2026-04-25T15:20:22.000Z</time>
    </trkpt>
    <trkpt lat="59.1010379791" lon="30.0299263">
        <ele>0.0</ele>
        <time>2026-04-25T15:20:24.000Z</time>
    </trkpt>
    <trkpt lat="59.1010379791" lon="30.0299263">
        <ele>0.0</ele>
        <time>2026-04-25T15:20:27.000Z</time>
    </trkpt>
    <trkpt lat="59.1010379791" lon="30.0299477577">
        <ele>0.0</ele>
        <time>2026-04-25T15:20:29.000Z</time>
    </trkpt>
    <trkpt lat="59.1010379791" lon="30.0299477577">
        <ele>0.0</ele>
        <time>2026-04-25T15:20:32.000Z</time>
    </trkpt>
    <trkpt lat="59.1010379791" lon="30.0299692154">
        <ele>0.0</ele>
        <time>2026-04-25T15:20:34.000Z</time>
    </trkpt>
    <trkpt lat="59.1010379791" lon="30.0299692154">
        <ele>0.0</ele>
        <time>2026-04-25T15:20:37.000Z</time>
    </trkpt>
    <trkpt lat="59.1010379791" lon="30.0299906731">
        <ele>0.0</ele>
        <time>2026-04-25T15:20:39.000Z</time>
    </trkpt>
    <trkpt lat="59.1010379791" lon="30.0300121307">
        <ele>0.0</ele>
        <time>2026-04-25T15:20:42.000Z</time>
    </trkpt>
    <trkpt lat="59.1010165215" lon="30.0300121307">
        <ele>0.0</ele>
        <time>2026-04-25T15:20:44.000Z</time>
    </trkpt>
    <trkpt lat="59.1010165215" lon="30.0300121307">
        <ele>0.0</ele>
        <time>2026-04-25T15:20:47.000Z</time>
    </trkpt>
    <trkpt lat="59.1009950638" lon="30.0300550461">
        <ele>0.0</ele>
        <time>2026-04-25T15:20:49.000Z</time>
    </trkpt>
    <trkpt lat="59.1009950638" lon="30.0300550461">
        <ele>0.0</ele>
        <time>2026-04-25T15:20:52.000Z</time>
    </trkpt>
    <trkpt lat="59.1009950638" lon="30.0300550461">
        <ele>0.0</ele>
        <time>2026-04-25T15:20:54.000Z</time>
    </trkpt>
    <trkpt lat="59.1009950638" lon="30.0300550461">
        <ele>0.0</ele>
        <time>2026-04-25T15:20:57.000Z</time>
    </trkpt>
    <trkpt lat="59.1009950638" lon="30.0300979614">
        <ele>0.0</ele>
        <time>2026-04-25T15:20:59.000Z</time>
    </trkpt>
    <trkpt lat="59.1010165215" lon="30.0300979614">
        <ele>0.0</ele>
        <time>2026-04-25T15:21:02.000Z</time>
    </trkpt>
    <trkpt lat="59.1010165215" lon="30.0301194191">
        <ele>0.0</ele>
        <time>2026-04-25T15:21:04.000Z</time>
    </trkpt>
    <trkpt lat="59.1010165215" lon="30.0301623344">
        <ele>0.0</ele>
        <time>2026-04-25T15:21:07.000Z</time>
    </trkpt>
    <trkpt lat="59.1010165215" lon="30.0301837921">
        <ele>0.0</ele>
        <time>2026-04-25T15:21:09.000Z</time>
    </trkpt>
    <trkpt lat="59.1010165215" lon="30.0302267075">
        <ele>0.0</ele>
        <time>2026-04-25T15:21:12.000Z</time>
    </trkpt>
    <trkpt lat="59.1010165215" lon="30.0302481651">
        <ele>0.0</ele>
        <time>2026-04-25T15:21:14.000Z</time>
    </trkpt>
    <trkpt lat="59.1010165215" lon="30.0302910805">
        <ele>0.0</ele>
        <time>2026-04-25T15:21:17.000Z</time>
    </trkpt>
    <trkpt lat="59.1010379791" lon="30.0303339958">
        <ele>0.0</ele>
        <time>2026-04-25T15:21:19.000Z</time>
    </trkpt>
    <trkpt lat="59.1010379791" lon="30.0303769112">
        <ele>0.0</ele>
        <time>2026-04-25T15:21:22.000Z</time>
    </trkpt>
    <trkpt lat="59.1010594368" lon="30.0304198265">
        <ele>0.0</ele>
        <time>2026-04-25T15:21:24.000Z</time>
    </trkpt>
    <trkpt lat="59.1010808945" lon="30.0304627419">
        <ele>0.0</ele>
        <time>2026-04-25T15:21:27.000Z</time>
    </trkpt>
    <trkpt lat="59.1010808945" lon="30.0305700302">
        <ele>0.0</ele>
        <time>2026-04-25T15:21:29.000Z</time>
    </trkpt>
    <trkpt lat="59.1010808945" lon="30.0306129456">
        <ele>0.0</ele>
        <time>2026-04-25T15:21:32.000Z</time>
    </trkpt>
    <trkpt lat="59.1011023521" lon="30.0306558609">
        <ele>0.0</ele>
        <time>2026-04-25T15:21:34.000Z</time>
    </trkpt>
    <trkpt lat="59.1010808945" lon="30.0306987762">
        <ele>0.0</ele>
        <time>2026-04-25T15:21:37.000Z</time>
    </trkpt>
    <trkpt lat="59.1011023521" lon="30.0307416916">
        <ele>0.0</ele>
        <time>2026-04-25T15:21:39.000Z</time>
    </trkpt>
    <trkpt lat="59.1011023521" lon="30.0307416916">
        <ele>0.0</ele>
        <time>2026-04-25T15:21:42.000Z</time>
    </trkpt>
    <trkpt lat="59.1011238098" lon="30.0307631493">
        <ele>0.0</ele>
        <time>2026-04-25T15:21:44.000Z</time>
    </trkpt>
    <trkpt lat="59.1011238098" lon="30.0307631493">
        <ele>0.0</ele>
        <time>2026-04-25T15:21:47.000Z</time>
    </trkpt>
    <trkpt lat="59.1011452675" lon="30.0307631493">
        <ele>0.0</ele>
        <time>2026-04-25T15:21:49.000Z</time>
    </trkpt>
    <trkpt lat="59.1011452675" lon="30.0307631493">
        <ele>0.0</ele>
        <time>2026-04-25T15:21:52.000Z</time>
    </trkpt>
    <trkpt lat="59.1011667252" lon="30.0307846069">
        <ele>0.0</ele>
        <time>2026-04-25T15:21:54.000Z</time>
    </trkpt>
    <trkpt lat="59.1011667252" lon="30.0308275223">
        <ele>0.0</ele>
        <time>2026-04-25T15:21:57.000Z</time>
    </trkpt>
    <trkpt lat="59.1011881828" lon="30.0308489799">
        <ele>0.0</ele>
        <time>2026-04-25T15:21:59.000Z</time>
    </trkpt>
    <trkpt lat="59.1011881828" lon="30.0308704376">
        <ele>0.0</ele>
        <time>2026-04-25T15:22:02.000Z</time>
    </trkpt>
    <trkpt lat="59.1011881828" lon="30.030913353">
        <ele>0.0</ele>
        <time>2026-04-25T15:22:04.000Z</time>
    </trkpt>
    <trkpt lat="59.1012096405" lon="30.0309348106">
        <ele>0.0</ele>
        <time>2026-04-25T15:22:07.000Z</time>
    </trkpt>
    <trkpt lat="59.1012096405" lon="30.0309562683">
        <ele>0.0</ele>
        <time>2026-04-25T15:22:09.000Z</time>
    </trkpt>
    <trkpt lat="59.1011881828" lon="30.0309348106">
        <ele>0.0</ele>
        <time>2026-04-25T15:22:12.000Z</time>
    </trkpt>
    <trkpt lat="59.1012096405" lon="30.0309562683">
        <ele>0.0</ele>
        <time>2026-04-25T15:22:14.000Z</time>
    </trkpt>
    <trkpt lat="59.1012096405" lon="30.030977726">
        <ele>0.0</ele>
        <time>2026-04-25T15:22:17.000Z</time>
    </trkpt>
    <trkpt lat="59.1012096405" lon="30.030977726">
        <ele>0.0</ele>
        <time>2026-04-25T15:22:19.000Z</time>
    </trkpt>
    <trkpt lat="59.1012096405" lon="30.030977726">
        <ele>0.0</ele>
        <time>2026-04-25T15:22:22.000Z</time>
    </trkpt>
    <trkpt lat="59.1012096405" lon="30.030977726">
        <ele>0.0</ele>
        <time>2026-04-25T15:22:24.000Z</time>
    </trkpt>
    <trkpt lat="59.1012096405" lon="30.030977726">
        <ele>0.0</ele>
        <time>2026-04-25T15:22:27.000Z</time>
    </trkpt>
    <trkpt lat="59.1012096405" lon="30.030977726">
        <ele>0.0</ele>
        <time>2026-04-25T15:22:29.000Z</time>
    </trkpt>
    <trkpt lat="59.1012096405" lon="30.0309562683">
        <ele>0.0</ele>
        <time>2026-04-25T15:22:32.000Z</time>
    </trkpt>
    <trkpt lat="59.1011881828" lon="30.0308704376">
        <ele>0.0</ele>
        <time>2026-04-25T15:22:34.000Z</time>
    </trkpt>
    <trkpt lat="59.1011881828" lon="30.0308489799">
        <ele>0.0</ele>
        <time>2026-04-25T15:22:37.000Z</time>
    </trkpt>
    <trkpt lat="59.1012096405" lon="30.0308060646">
        <ele>0.0</ele>
        <time>2026-04-25T15:22:39.000Z</time>
    </trkpt>
    <trkpt lat="59.1012310982" lon="30.0307631493">
        <ele>0.0</ele>
        <time>2026-04-25T15:22:42.000Z</time>
    </trkpt>
    <trkpt lat="59.1012096405" lon="30.0307416916">
        <ele>0.0</ele>
        <time>2026-04-25T15:22:44.000Z</time>
    </trkpt>
    <trkpt lat="59.1012310982" lon="30.0307416916">
        <ele>0.0</ele>
        <time>2026-04-25T15:22:47.000Z</time>
    </trkpt>
    <trkpt lat="59.1012310982" lon="30.0307416916">
        <ele>0.0</ele>
        <time>2026-04-25T15:22:49.000Z</time>
    </trkpt>
    <trkpt lat="59.1012525558" lon="30.0307416916">
        <ele>0.0</ele>
        <time>2026-04-25T15:22:52.000Z</time>
    </trkpt>
    <trkpt lat="59.1012740135" lon="30.0307416916">
        <ele>0.0</ele>
        <time>2026-04-25T15:22:54.000Z</time>
    </trkpt>
    <trkpt lat="59.1012954712" lon="30.0307846069">
        <ele>0.0</ele>
        <time>2026-04-25T15:22:57.000Z</time>
    </trkpt>
    <trkpt lat="59.1012954712" lon="30.0308275223">
        <ele>0.0</ele>
        <time>2026-04-25T15:22:59.000Z</time>
    </trkpt>
    <trkpt lat="59.1013169289" lon="30.0308275223">
        <ele>0.0</ele>
        <time>2026-04-25T15:23:02.000Z</time>
    </trkpt>
    <trkpt lat="59.1013383865" lon="30.0308489799">
        <ele>0.0</ele>
        <time>2026-04-25T15:23:04.000Z</time>
    </trkpt>
    <trkpt lat="59.1013383865" lon="30.0308489799">
        <ele>0.0</ele>
        <time>2026-04-25T15:23:07.000Z</time>
    </trkpt>
    <trkpt lat="59.1013598442" lon="30.0308275223">
        <ele>0.0</ele>
        <time>2026-04-25T15:23:09.000Z</time>
    </trkpt>
    <trkpt lat="59.1013598442" lon="30.0308275223">
        <ele>0.0</ele>
        <time>2026-04-25T15:23:12.000Z</time>
    </trkpt>
    <trkpt lat="59.1013598442" lon="30.0308275223">
        <ele>0.0</ele>
        <time>2026-04-25T15:23:14.000Z</time>
    </trkpt>
    <trkpt lat="59.1013598442" lon="30.0308275223">
        <ele>0.0</ele>
        <time>2026-04-25T15:23:17.000Z</time>
    </trkpt>
    <trkpt lat="59.1013598442" lon="30.0308060646">
        <ele>0.0</ele>
        <time>2026-04-25T15:23:19.000Z</time>
    </trkpt>
    <trkpt lat="59.1013598442" lon="30.0308060646">
        <ele>0.0</ele>
        <time>2026-04-25T15:23:22.000Z</time>
    </trkpt>
    <trkpt lat="59.1013813019" lon="30.0308060646">
        <ele>0.0</ele>
        <time>2026-04-25T15:23:24.000Z</time>
    </trkpt>
    <trkpt lat="59.1013813019" lon="30.0308060646">
        <ele>0.0</ele>
        <time>2026-04-25T15:23:27.000Z</time>
    </trkpt>
    <trkpt lat="59.1013813019" lon="30.0307631493">
        <ele>0.0</ele>
        <time>2026-04-25T15:23:29.000Z</time>
    </trkpt>
    <trkpt lat="59.1013813019" lon="30.0307416916">
        <ele>0.0</ele>
        <time>2026-04-25T15:23:32.000Z</time>
    </trkpt>
    <trkpt lat="59.1013813019" lon="30.0306773186">
        <ele>0.0</ele>
        <time>2026-04-25T15:23:34.000Z</time>
    </trkpt>
    <trkpt lat="59.1013813019" lon="30.0306558609">
        <ele>0.0</ele>
        <time>2026-04-25T15:23:37.000Z</time>
    </trkpt>
    <trkpt lat="59.1014242172" lon="30.0306129456">
        <ele>0.0</ele>
        <time>2026-04-25T15:23:39.000Z</time>
    </trkpt>
    <trkpt lat="59.1014242172" lon="30.0305700302">
        <ele>0.0</ele>
        <time>2026-04-25T15:23:42.000Z</time>
    </trkpt>
    <trkpt lat="59.1014242172" lon="30.0305056572">
        <ele>0.0</ele>
        <time>2026-04-25T15:23:44.000Z</time>
    </trkpt>
    <trkpt lat="59.1014456749" lon="30.0304841995">
        <ele>0.0</ele>
        <time>2026-04-25T15:23:47.000Z</time>
    </trkpt>
    <trkpt lat="59.1014456749" lon="30.0304627419">
        <ele>0.0</ele>
        <time>2026-04-25T15:23:49.000Z</time>
    </trkpt>
    <trkpt lat="59.1014456749" lon="30.0304627419">
        <ele>0.0</ele>
        <time>2026-04-25T15:23:52.000Z</time>
    </trkpt>
    <trkpt lat="59.1014671326" lon="30.0304841995">
        <ele>0.0</ele>
        <time>2026-04-25T15:23:54.000Z</time>
    </trkpt>
    <trkpt lat="59.1014671326" lon="30.0304627419">
        <ele>0.0</ele>
        <time>2026-04-25T15:23:57.000Z</time>
    </trkpt>
    <trkpt lat="59.1014885902" lon="30.0304198265">
        <ele>0.0</ele>
        <time>2026-04-25T15:23:59.000Z</time>
    </trkpt>
    <trkpt lat="59.1014885902" lon="30.0304198265">
        <ele>0.0</ele>
        <time>2026-04-25T15:24:02.000Z</time>
    </trkpt>
    <trkpt lat="59.1015100479" lon="30.0304627419">
        <ele>0.0</ele>
        <time>2026-04-25T15:24:04.000Z</time>
    </trkpt>
    <trkpt lat="59.1015100479" lon="30.0304841995">
        <ele>0.0</ele>
        <time>2026-04-25T15:24:07.000Z</time>
    </trkpt>
    <trkpt lat="59.1014885902" lon="30.0305056572">
        <ele>0.0</ele>
        <time>2026-04-25T15:24:09.000Z</time>
    </trkpt>
    <trkpt lat="59.1014885902" lon="30.0305056572">
        <ele>0.0</ele>
        <time>2026-04-25T15:24:12.000Z</time>
    </trkpt>
    <trkpt lat="59.1014885902" lon="30.0305056572">
        <ele>0.0</ele>
        <time>2026-04-25T15:24:14.000Z</time>
    </trkpt>
    <trkpt lat="59.1014885902" lon="30.0305056572">
        <ele>0.0</ele>
        <time>2026-04-25T15:24:17.000Z</time>
    </trkpt>
    <trkpt lat="59.1014885902" lon="30.0305056572">
        <ele>0.0</ele>
        <time>2026-04-25T15:24:19.000Z</time>
    </trkpt>
    <trkpt lat="59.1014885902" lon="30.0305056572">
        <ele>0.0</ele>
        <time>2026-04-25T15:24:22.000Z</time>
    </trkpt>
    <trkpt lat="59.1014885902" lon="30.0305271149">
        <ele>0.0</ele>
        <time>2026-04-25T15:24:24.000Z</time>
    </trkpt>
    <trkpt lat="59.1014885902" lon="30.0305056572">
        <ele>0.0</ele>
        <time>2026-04-25T15:24:27.000Z</time>
    </trkpt>
    <trkpt lat="59.1015100479" lon="30.0305056572">
        <ele>0.0</ele>
        <time>2026-04-25T15:24:29.000Z</time>
    </trkpt>
    <trkpt lat="59.1015100479" lon="30.0305056572">
        <ele>0.0</ele>
        <time>2026-04-25T15:24:34.000Z</time>
    </trkpt>
    <trkpt lat="59.1015100479" lon="30.0305056572">
        <ele>0.0</ele>
        <time>2026-04-25T15:24:37.000Z</time>
    </trkpt>
    <trkpt lat="59.1015100479" lon="30.0305485725">
        <ele>0.0</ele>
        <time>2026-04-25T15:24:39.000Z</time>
    </trkpt>
    <trkpt lat="59.1015315056" lon="30.0305485725">
        <ele>0.0</ele>
        <time>2026-04-25T15:24:42.000Z</time>
    </trkpt>
    <trkpt lat="59.1015315056" lon="30.0305700302">
        <ele>0.0</ele>
        <time>2026-04-25T15:24:44.000Z</time>
    </trkpt>
    <trkpt lat="59.1015315056" lon="30.0305700302">
        <ele>0.0</ele>
        <time>2026-04-25T15:24:47.000Z</time>
    </trkpt>
    <trkpt lat="59.1015315056" lon="30.0305485725">
        <ele>0.0</ele>
        <time>2026-04-25T15:24:49.000Z</time>
    </trkpt>
    <trkpt lat="59.1015315056" lon="30.0305056572">
        <ele>0.0</ele>
        <time>2026-04-25T15:24:52.000Z</time>
    </trkpt>
    <trkpt lat="59.1015529633" lon="30.0305056572">
        <ele>0.0</ele>
        <time>2026-04-25T15:24:54.000Z</time>
    </trkpt>
    <trkpt lat="59.1015529633" lon="30.0304627419">
        <ele>0.0</ele>
        <time>2026-04-25T15:24:57.000Z</time>
    </trkpt>
    <trkpt lat="59.1015744209" lon="30.0304198265">
        <ele>0.0</ele>
        <time>2026-04-25T15:24:59.000Z</time>
    </trkpt>
    <trkpt lat="59.1015744209" lon="30.0303983688">
        <ele>0.0</ele>
        <time>2026-04-25T15:25:02.000Z</time>
    </trkpt>
    <trkpt lat="59.1015958786" lon="30.0303339958">
        <ele>0.0</ele>
        <time>2026-04-25T15:25:04.000Z</time>
    </trkpt>
    <trkpt lat="59.1015744209" lon="30.0302910805">
        <ele>0.0</ele>
        <time>2026-04-25T15:25:07.000Z</time>
    </trkpt>
    <trkpt lat="59.1015744209" lon="30.0302267075">
        <ele>0.0</ele>
        <time>2026-04-25T15:25:09.000Z</time>
    </trkpt>
    <trkpt lat="59.1015744209" lon="30.0302267075">
        <ele>0.0</ele>
        <time>2026-04-25T15:25:12.000Z</time>
    </trkpt>
    <trkpt lat="59.1015744209" lon="30.0302267075">
        <ele>0.0</ele>
        <time>2026-04-25T15:25:14.000Z</time>
    </trkpt>
    <trkpt lat="59.1015529633" lon="30.0302052498">
        <ele>0.0</ele>
        <time>2026-04-25T15:25:17.000Z</time>
    </trkpt>
    <trkpt lat="59.1015529633" lon="30.0301623344">
        <ele>0.0</ele>
        <time>2026-04-25T15:25:19.000Z</time>
    </trkpt>
    <trkpt lat="59.1015529633" lon="30.0301194191">
        <ele>0.0</ele>
        <time>2026-04-25T15:25:22.000Z</time>
    </trkpt>
    <trkpt lat="59.1015315056" lon="30.0301194191">
        <ele>0.0</ele>
        <time>2026-04-25T15:25:24.000Z</time>
    </trkpt>
    <trkpt lat="59.1015315056" lon="30.0300979614">
        <ele>0.0</ele>
        <time>2026-04-25T15:25:27.000Z</time>
    </trkpt>
    <trkpt lat="59.1015315056" lon="30.0300550461">
        <ele>0.0</ele>
        <time>2026-04-25T15:25:29.000Z</time>
    </trkpt>
    <trkpt lat="59.1015315056" lon="30.0300335884">
        <ele>0.0</ele>
        <time>2026-04-25T15:25:32.000Z</time>
    </trkpt>
    <trkpt lat="59.1015529633" lon="30.0299692154">
        <ele>0.0</ele>
        <time>2026-04-25T15:25:34.000Z</time>
    </trkpt>
    <trkpt lat="59.1015529633" lon="30.0299263">
        <ele>0.0</ele>
        <time>2026-04-25T15:25:37.000Z</time>
    </trkpt>
    <trkpt lat="59.1015315056" lon="30.0298833847">
        <ele>0.0</ele>
        <time>2026-04-25T15:25:39.000Z</time>
    </trkpt>
    <trkpt lat="59.1015315056" lon="30.0298190117">
        <ele>0.0</ele>
        <time>2026-04-25T15:25:42.000Z</time>
    </trkpt>
    <trkpt lat="59.1015100479" lon="30.0297546387">
        <ele>0.0</ele>
        <time>2026-04-25T15:25:44.000Z</time>
    </trkpt>
    <trkpt lat="59.1015100479" lon="30.0297117233">
        <ele>0.0</ele>
        <time>2026-04-25T15:25:47.000Z</time>
    </trkpt>
    <trkpt lat="59.1015100479" lon="30.029668808">
        <ele>0.0</ele>
        <time>2026-04-25T15:25:49.000Z</time>
    </trkpt>
    <trkpt lat="59.1015100479" lon="30.029668808">
        <ele>0.0</ele>
        <time>2026-04-25T15:25:52.000Z</time>
    </trkpt>
    <trkpt lat="59.1015100479" lon="30.029604435">
        <ele>0.0</ele>
        <time>2026-04-25T15:25:54.000Z</time>
    </trkpt>
    <trkpt lat="59.1015100479" lon="30.0295829773">
        <ele>0.0</ele>
        <time>2026-04-25T15:25:57.000Z</time>
    </trkpt>
    <trkpt lat="59.1015100479" lon="30.0295615196">
        <ele>0.0</ele>
        <time>2026-04-25T15:25:59.000Z</time>
    </trkpt>
    <trkpt lat="59.1015315056" lon="30.0295615196">
        <ele>0.0</ele>
        <time>2026-04-25T15:26:02.000Z</time>
    </trkpt>
    <trkpt lat="59.1015529633" lon="30.0295186043">
        <ele>0.0</ele>
        <time>2026-04-25T15:26:04.000Z</time>
    </trkpt>
    <trkpt lat="59.1015744209" lon="30.0294971466">
        <ele>0.0</ele>
        <time>2026-04-25T15:26:07.000Z</time>
    </trkpt>
    <trkpt lat="59.1015958786" lon="30.0295186043">
        <ele>0.0</ele>
        <time>2026-04-25T15:26:09.000Z</time>
    </trkpt>
    <trkpt lat="59.1015958786" lon="30.0295186043">
        <ele>0.0</ele>
        <time>2026-04-25T15:26:12.000Z</time>
    </trkpt>
    <trkpt lat="59.1016173363" lon="30.029540062">
        <ele>0.0</ele>
        <time>2026-04-25T15:26:14.000Z</time>
    </trkpt>
    <trkpt lat="59.1016387939" lon="30.029540062">
        <ele>0.0</ele>
        <time>2026-04-25T15:26:17.000Z</time>
    </trkpt>
    <trkpt lat="59.1016387939" lon="30.029540062">
        <ele>0.0</ele>
        <time>2026-04-25T15:26:19.000Z</time>
    </trkpt>
    <trkpt lat="59.1016387939" lon="30.029540062">
        <ele>0.0</ele>
        <time>2026-04-25T15:26:22.000Z</time>
    </trkpt>
    <trkpt lat="59.1016602516" lon="30.0295615196">
        <ele>0.0</ele>
        <time>2026-04-25T15:26:24.000Z</time>
    </trkpt>
    <trkpt lat="59.1016817093" lon="30.0295615196">
        <ele>0.0</ele>
        <time>2026-04-25T15:26:27.000Z</time>
    </trkpt>
    <trkpt lat="59.1016817093" lon="30.029540062">
        <ele>0.0</ele>
        <time>2026-04-25T15:26:29.000Z</time>
    </trkpt>
    <trkpt lat="59.101703167" lon="30.0295186043">
        <ele>0.0</ele>
        <time>2026-04-25T15:26:32.000Z</time>
    </trkpt>
    <trkpt lat="59.101703167" lon="30.029540062">
        <ele>0.0</ele>
        <time>2026-04-25T15:26:34.000Z</time>
    </trkpt>
    <trkpt lat="59.101703167" lon="30.029540062">
        <ele>0.0</ele>
        <time>2026-04-25T15:26:37.000Z</time>
    </trkpt>
    <trkpt lat="59.1017246246" lon="30.0294756889">
        <ele>0.0</ele>
        <time>2026-04-25T15:26:39.000Z</time>
    </trkpt>
    <trkpt lat="59.1017246246" lon="30.0294756889">
        <ele>0.0</ele>
        <time>2026-04-25T15:26:42.000Z</time>
    </trkpt>
    <trkpt lat="59.101703167" lon="30.0294327736">
        <ele>0.0</ele>
        <time>2026-04-25T15:26:44.000Z</time>
    </trkpt>
    <trkpt lat="59.101703167" lon="30.0294327736">
        <ele>0.0</ele>
        <time>2026-04-25T15:26:47.000Z</time>
    </trkpt>
    <trkpt lat="59.101703167" lon="30.0294327736">
        <ele>0.0</ele>
        <time>2026-04-25T15:26:49.000Z</time>
    </trkpt>
    <trkpt lat="59.101703167" lon="30.0294327736">
        <ele>0.0</ele>
        <time>2026-04-25T15:26:52.000Z</time>
    </trkpt>
    <trkpt lat="59.101703167" lon="30.0294327736">
        <ele>0.0</ele>
        <time>2026-04-25T15:26:54.000Z</time>
    </trkpt>
    <trkpt lat="59.1017246246" lon="30.0293898582">
        <ele>0.0</ele>
        <time>2026-04-25T15:26:57.000Z</time>
    </trkpt>
    <trkpt lat="59.1017460823" lon="30.0293254852">
        <ele>0.0</ele>
        <time>2026-04-25T15:26:59.000Z</time>
    </trkpt>
    <trkpt lat="59.1017460823" lon="30.0292825699">
        <ele>0.0</ele>
        <time>2026-04-25T15:27:02.000Z</time>
    </trkpt>
    <trkpt lat="59.1017246246" lon="30.0292396545">
        <ele>0.0</ele>
        <time>2026-04-25T15:27:04.000Z</time>
    </trkpt>
    <trkpt lat="59.101703167" lon="30.0292181969">
        <ele>0.0</ele>
        <time>2026-04-25T15:27:07.000Z</time>
    </trkpt>
    <trkpt lat="59.101703167" lon="30.0291538239">
        <ele>0.0</ele>
        <time>2026-04-25T15:27:09.000Z</time>
    </trkpt>
    <trkpt lat="59.1016817093" lon="30.0291109085">
        <ele>0.0</ele>
        <time>2026-04-25T15:27:12.000Z</time>
    </trkpt>
    <trkpt lat="59.1016602516" lon="30.0290894508">
        <ele>0.0</ele>
        <time>2026-04-25T15:27:14.000Z</time>
    </trkpt>
    <trkpt lat="59.1016602516" lon="30.0290894508">
        <ele>0.0</ele>
        <time>2026-04-25T15:27:17.000Z</time>
    </trkpt>
    <trkpt lat="59.1016173363" lon="30.0290465355">
        <ele>0.0</ele>
        <time>2026-04-25T15:27:19.000Z</time>
    </trkpt>
    <trkpt lat="59.1016173363" lon="30.0290465355">
        <ele>0.0</ele>
        <time>2026-04-25T15:27:22.000Z</time>
    </trkpt>
    <trkpt lat="59.1015744209" lon="30.0289821625">
        <ele>0.0</ele>
        <time>2026-04-25T15:27:24.000Z</time>
    </trkpt>
    <trkpt lat="59.1015529633" lon="30.0289821625">
        <ele>0.0</ele>
        <time>2026-04-25T15:27:27.000Z</time>
    </trkpt>
    <trkpt lat="59.1015529633" lon="30.0290250778">
        <ele>0.0</ele>
        <time>2026-04-25T15:27:29.000Z</time>
    </trkpt>
    <trkpt lat="59.1015529633" lon="30.0290465355">
        <ele>0.0</ele>
        <time>2026-04-25T15:27:32.000Z</time>
    </trkpt>
    <trkpt lat="59.1015529633" lon="30.0290465355">
        <ele>0.0</ele>
        <time>2026-04-25T15:27:34.000Z</time>
    </trkpt>
    <trkpt lat="59.1015529633" lon="30.0290465355">
        <ele>0.0</ele>
        <time>2026-04-25T15:27:37.000Z</time>
    </trkpt>
    <trkpt lat="59.1015100479" lon="30.0290036201">
        <ele>0.0</ele>
        <time>2026-04-25T15:27:39.000Z</time>
    </trkpt>
    <trkpt lat="59.1014885902" lon="30.0290036201">
        <ele>0.0</ele>
        <time>2026-04-25T15:27:42.000Z</time>
    </trkpt>
    <trkpt lat="59.1014671326" lon="30.0290036201">
        <ele>0.0</ele>
        <time>2026-04-25T15:27:44.000Z</time>
    </trkpt>
    <trkpt lat="59.1014671326" lon="30.0290036201">
        <ele>0.0</ele>
        <time>2026-04-25T15:27:47.000Z</time>
    </trkpt>
    <trkpt lat="59.1015100479" lon="30.0290465355">
        <ele>0.0</ele>
        <time>2026-04-25T15:27:49.000Z</time>
    </trkpt>
    <trkpt lat="59.1015315056" lon="30.0290894508">
        <ele>0.0</ele>
        <time>2026-04-25T15:27:52.000Z</time>
    </trkpt>
    <trkpt lat="59.1015315056" lon="30.0291323662">
        <ele>0.0</ele>
        <time>2026-04-25T15:27:54.000Z</time>
    </trkpt>
    <trkpt lat="59.1015315056" lon="30.0291538239">
        <ele>0.0</ele>
        <time>2026-04-25T15:27:57.000Z</time>
    </trkpt>
    <trkpt lat="59.1015315056" lon="30.0291538239">
        <ele>0.0</ele>
        <time>2026-04-25T15:27:59.000Z</time>
    </trkpt>
    <trkpt lat="59.1015315056" lon="30.0291538239">
        <ele>0.0</ele>
        <time>2026-04-25T15:28:02.000Z</time>
    </trkpt>
    <trkpt lat="59.1015315056" lon="30.0291538239">
        <ele>0.0</ele>
        <time>2026-04-25T15:28:04.000Z</time>
    </trkpt>
    <trkpt lat="59.1015315056" lon="30.0291538239">
        <ele>0.0</ele>
        <time>2026-04-25T15:28:07.000Z</time>
    </trkpt>
    <trkpt lat="59.1015315056" lon="30.0291538239">
        <ele>0.0</ele>
        <time>2026-04-25T15:28:09.000Z</time>
    </trkpt>
    <trkpt lat="59.1015315056" lon="30.0291109085">
        <ele>0.0</ele>
        <time>2026-04-25T15:28:12.000Z</time>
    </trkpt>
    <trkpt lat="59.1015100479" lon="30.0290036201">
        <ele>0.0</ele>
        <time>2026-04-25T15:28:14.000Z</time>
    </trkpt>
    <trkpt lat="59.1015100479" lon="30.0289821625">
        <ele>0.0</ele>
        <time>2026-04-25T15:28:17.000Z</time>
    </trkpt>
    <trkpt lat="59.1014885902" lon="30.0289607048">
        <ele>0.0</ele>
        <time>2026-04-25T15:28:19.000Z</time>
    </trkpt>
    <trkpt lat="59.1014671326" lon="30.0289607048">
        <ele>0.0</ele>
        <time>2026-04-25T15:28:22.000Z</time>
    </trkpt>
    <trkpt lat="59.1014671326" lon="30.0289392471">
        <ele>0.0</ele>
        <time>2026-04-25T15:28:24.000Z</time>
    </trkpt>
    <trkpt lat="59.1014671326" lon="30.0289177895">
        <ele>0.0</ele>
        <time>2026-04-25T15:28:27.000Z</time>
    </trkpt>
    <trkpt lat="59.1014671326" lon="30.0288534164">
        <ele>0.0</ele>
        <time>2026-04-25T15:28:29.000Z</time>
    </trkpt>
    <trkpt lat="59.1014671326" lon="30.0287890434">
        <ele>0.0</ele>
        <time>2026-04-25T15:28:32.000Z</time>
    </trkpt>
    <trkpt lat="59.1014671326" lon="30.0287246704">
        <ele>0.0</ele>
        <time>2026-04-25T15:28:34.000Z</time>
    </trkpt>
    <trkpt lat="59.1014671326" lon="30.0286817551">
        <ele>0.0</ele>
        <time>2026-04-25T15:28:37.000Z</time>
    </trkpt>
    <trkpt lat="59.1014242172" lon="30.0286388397">
        <ele>0.0</ele>
        <time>2026-04-25T15:28:39.000Z</time>
    </trkpt>
    <trkpt lat="59.1014242172" lon="30.028617382">
        <ele>0.0</ele>
        <time>2026-04-25T15:28:42.000Z</time>
    </trkpt>
    <trkpt lat="59.1014242172" lon="30.0285744667">
        <ele>0.0</ele>
        <time>2026-04-25T15:28:44.000Z</time>
    </trkpt>
    <trkpt lat="59.1014242172" lon="30.0285315514">
        <ele>0.0</ele>
        <time>2026-04-25T15:28:47.000Z</time>
    </trkpt>
    <trkpt lat="59.1014027596" lon="30.0284457207">
        <ele>0.0</ele>
        <time>2026-04-25T15:28:49.000Z</time>
    </trkpt>
    <trkpt lat="59.1014027596" lon="30.0284028053">
        <ele>0.0</ele>
        <time>2026-04-25T15:28:52.000Z</time>
    </trkpt>
    <trkpt lat="59.1013813019" lon="30.0283813477">
        <ele>0.0</ele>
        <time>2026-04-25T15:28:54.000Z</time>
    </trkpt>
    <trkpt lat="59.1013598442" lon="30.0283384323">
        <ele>0.0</ele>
        <time>2026-04-25T15:28:57.000Z</time>
    </trkpt>
    <trkpt lat="59.1013383865" lon="30.0283384323">
        <ele>0.0</ele>
        <time>2026-04-25T15:28:59.000Z</time>
    </trkpt>
    <trkpt lat="59.1013169289" lon="30.0283169746">
        <ele>0.0</ele>
        <time>2026-04-25T15:29:02.000Z</time>
    </trkpt>
    <trkpt lat="59.1012954712" lon="30.028295517">
        <ele>0.0</ele>
        <time>2026-04-25T15:29:04.000Z</time>
    </trkpt>
    <trkpt lat="59.1012954712" lon="30.0282526016">
        <ele>0.0</ele>
        <time>2026-04-25T15:29:07.000Z</time>
    </trkpt>
    <trkpt lat="59.1012525558" lon="30.028231144">
        <ele>0.0</ele>
        <time>2026-04-25T15:29:09.000Z</time>
    </trkpt>
    <trkpt lat="59.1012525558" lon="30.028231144">
        <ele>0.0</ele>
        <time>2026-04-25T15:29:12.000Z</time>
    </trkpt>
    <trkpt lat="59.1012525558" lon="30.028231144">
        <ele>0.0</ele>
        <time>2026-04-25T15:29:14.000Z</time>
    </trkpt>
    <trkpt lat="59.1012310982" lon="30.0282096863">
        <ele>0.0</ele>
        <time>2026-04-25T15:29:17.000Z</time>
    </trkpt>
    <trkpt lat="59.1012310982" lon="30.0281453133">
        <ele>0.0</ele>
        <time>2026-04-25T15:29:19.000Z</time>
    </trkpt>
    <trkpt lat="59.1012310982" lon="30.0281667709">
        <ele>0.0</ele>
        <time>2026-04-25T15:29:22.000Z</time>
    </trkpt>
    <trkpt lat="59.1012096405" lon="30.0281882286">
        <ele>0.0</ele>
        <time>2026-04-25T15:29:24.000Z</time>
    </trkpt>
    <trkpt lat="59.1012096405" lon="30.0281882286">
        <ele>0.0</ele>
        <time>2026-04-25T15:29:27.000Z</time>
    </trkpt>
    <trkpt lat="59.1012096405" lon="30.0281667709">
        <ele>0.0</ele>
        <time>2026-04-25T15:29:29.000Z</time>
    </trkpt>
    <trkpt lat="59.1012096405" lon="30.0281453133">
        <ele>0.0</ele>
        <time>2026-04-25T15:29:32.000Z</time>
    </trkpt>
    <trkpt lat="59.1012096405" lon="30.0281023979">
        <ele>0.0</ele>
        <time>2026-04-25T15:29:34.000Z</time>
    </trkpt>
    <trkpt lat="59.1012096405" lon="30.0281023979">
        <ele>0.0</ele>
        <time>2026-04-25T15:29:37.000Z</time>
    </trkpt>
    <trkpt lat="59.1012310982" lon="30.0280380249">
        <ele>0.0</ele>
        <time>2026-04-25T15:29:39.000Z</time>
    </trkpt>
    <trkpt lat="59.1012310982" lon="30.0279736519">
        <ele>0.0</ele>
        <time>2026-04-25T15:29:42.000Z</time>
    </trkpt>
    <trkpt lat="59.1012310982" lon="30.0279092789">
        <ele>0.0</ele>
        <time>2026-04-25T15:29:44.000Z</time>
    </trkpt>
    <trkpt lat="59.1012525558" lon="30.0278663635">
        <ele>0.0</ele>
        <time>2026-04-25T15:29:47.000Z</time>
    </trkpt>
    <trkpt lat="59.1012525558" lon="30.0278019905">
        <ele>0.0</ele>
        <time>2026-04-25T15:29:49.000Z</time>
    </trkpt>
    <trkpt lat="59.1012525558" lon="30.0277805328">
        <ele>0.0</ele>
        <time>2026-04-25T15:29:52.000Z</time>
    </trkpt>
    <trkpt lat="59.1012310982" lon="30.0277590752">
        <ele>0.0</ele>
        <time>2026-04-25T15:29:54.000Z</time>
    </trkpt>
    <trkpt lat="59.1012310982" lon="30.0277590752">
        <ele>0.0</ele>
        <time>2026-04-25T15:29:57.000Z</time>
    </trkpt>
    <trkpt lat="59.1011881828" lon="30.0276947021">
        <ele>0.0</ele>
        <time>2026-04-25T15:29:59.000Z</time>
    </trkpt>
    <trkpt lat="59.1011667252" lon="30.0276732445">
        <ele>0.0</ele>
        <time>2026-04-25T15:30:02.000Z</time>
    </trkpt>
    <trkpt lat="59.1011452675" lon="30.0276303291">
        <ele>0.0</ele>
        <time>2026-04-25T15:30:04.000Z</time>
    </trkpt>
    <trkpt lat="59.1011238098" lon="30.0276088715">
        <ele>0.0</ele>
        <time>2026-04-25T15:30:07.000Z</time>
    </trkpt>
    <trkpt lat="59.1011023521" lon="30.0275874138">
        <ele>0.0</ele>
        <time>2026-04-25T15:30:09.000Z</time>
    </trkpt>
    <trkpt lat="59.1010808945" lon="30.0275444984">
        <ele>0.0</ele>
        <time>2026-04-25T15:30:12.000Z</time>
    </trkpt>
    <trkpt lat="59.1010808945" lon="30.0275444984">
        <ele>0.0</ele>
        <time>2026-04-25T15:30:14.000Z</time>
    </trkpt>
    <trkpt lat="59.1011023521" lon="30.0275230408">
        <ele>0.0</ele>
        <time>2026-04-25T15:30:17.000Z</time>
    </trkpt>
    <trkpt lat="59.1011238098" lon="30.0275015831">
        <ele>0.0</ele>
        <time>2026-04-25T15:30:19.000Z</time>
    </trkpt>
    <trkpt lat="59.1011452675" lon="30.0275015831">
        <ele>0.0</ele>
        <time>2026-04-25T15:30:22.000Z</time>
    </trkpt>
    <trkpt lat="59.1011452675" lon="30.0275230408">
        <ele>0.0</ele>
        <time>2026-04-25T15:30:24.000Z</time>
    </trkpt>
    <trkpt lat="59.1011452675" lon="30.0275659561">
        <ele>0.0</ele>
        <time>2026-04-25T15:30:27.000Z</time>
    </trkpt>
    <trkpt lat="59.1011452675" lon="30.0275659561">
        <ele>0.0</ele>
        <time>2026-04-25T15:30:29.000Z</time>
    </trkpt>
    <trkpt lat="59.1011452675" lon="30.0275659561">
        <ele>0.0</ele>
        <time>2026-04-25T15:30:32.000Z</time>
    </trkpt>
    <trkpt lat="59.1011452675" lon="30.0275659561">
        <ele>0.0</ele>
        <time>2026-04-25T15:30:34.000Z</time>
    </trkpt>
    <trkpt lat="59.1011452675" lon="30.0275659561">
        <ele>0.0</ele>
        <time>2026-04-25T15:30:37.000Z</time>
    </trkpt>
    <trkpt lat="59.1011667252" lon="30.0275874138">
        <ele>0.0</ele>
        <time>2026-04-25T15:30:39.000Z</time>
    </trkpt>
    <trkpt lat="59.1011667252" lon="30.0275874138">
        <ele>0.0</ele>
        <time>2026-04-25T15:30:42.000Z</time>
    </trkpt>
    <trkpt lat="59.1011667252" lon="30.0275874138">
        <ele>0.0</ele>
        <time>2026-04-25T15:30:44.000Z</time>
    </trkpt>
    <trkpt lat="59.1011667252" lon="30.0275874138">
        <ele>0.0</ele>
        <time>2026-04-25T15:30:47.000Z</time>
    </trkpt>
    <trkpt lat="59.1012096405" lon="30.0275230408">
        <ele>0.0</ele>
        <time>2026-04-25T15:30:49.000Z</time>
    </trkpt>
    <trkpt lat="59.1012310982" lon="30.0274801254">
        <ele>0.0</ele>
        <time>2026-04-25T15:30:52.000Z</time>
    </trkpt>
    <trkpt lat="59.1012525558" lon="30.0274372101">
        <ele>0.0</ele>
        <time>2026-04-25T15:30:54.000Z</time>
    </trkpt>
    <trkpt lat="59.1012740135" lon="30.0273942947">
        <ele>0.0</ele>
        <time>2026-04-25T15:30:57.000Z</time>
    </trkpt>
    <trkpt lat="59.1012954712" lon="30.0273728371">
        <ele>0.0</ele>
        <time>2026-04-25T15:30:59.000Z</time>
    </trkpt>
    <trkpt lat="59.1013169289" lon="30.0273728371">
        <ele>0.0</ele>
        <time>2026-04-25T15:31:02.000Z</time>
    </trkpt>
    <trkpt lat="59.1013383865" lon="30.0273728371">
        <ele>0.0</ele>
        <time>2026-04-25T15:31:04.000Z</time>
    </trkpt>
    <trkpt lat="59.1013598442" lon="30.0273513794">
        <ele>0.0</ele>
        <time>2026-04-25T15:31:07.000Z</time>
    </trkpt>
    <trkpt lat="59.1013813019" lon="30.0273084641">
        <ele>0.0</ele>
        <time>2026-04-25T15:31:09.000Z</time>
    </trkpt>
    <trkpt lat="59.1013813019" lon="30.0272655487">
        <ele>0.0</ele>
        <time>2026-04-25T15:31:12.000Z</time>
    </trkpt>
    <trkpt lat="59.1014027596" lon="30.0272655487">
        <ele>0.0</ele>
        <time>2026-04-25T15:31:14.000Z</time>
    </trkpt>
    <trkpt lat="59.1014027596" lon="30.0272655487">
        <ele>0.0</ele>
        <time>2026-04-25T15:31:17.000Z</time>
    </trkpt>
    <trkpt lat="59.1014027596" lon="30.0272655487">
        <ele>0.0</ele>
        <time>2026-04-25T15:31:19.000Z</time>
    </trkpt>
    <trkpt lat="59.1014027596" lon="30.0272655487">
        <ele>0.0</ele>
        <time>2026-04-25T15:31:22.000Z</time>
    </trkpt>
    <trkpt lat="59.1014027596" lon="30.0272655487">
        <ele>0.0</ele>
        <time>2026-04-25T15:31:24.000Z</time>
    </trkpt>
    <trkpt lat="59.1014242172" lon="30.0272655487">
        <ele>0.0</ele>
        <time>2026-04-25T15:31:27.000Z</time>
    </trkpt>
    <trkpt lat="59.1014456749" lon="30.0272655487">
        <ele>0.0</ele>
        <time>2026-04-25T15:31:29.000Z</time>
    </trkpt>
    <trkpt lat="59.1014671326" lon="30.0272655487">
        <ele>0.0</ele>
        <time>2026-04-25T15:31:32.000Z</time>
    </trkpt>
    <trkpt lat="59.1014885902" lon="30.027244091">
        <ele>0.0</ele>
        <time>2026-04-25T15:31:34.000Z</time>
    </trkpt>
    <trkpt lat="59.1015100479" lon="30.0272226334">
        <ele>0.0</ele>
        <time>2026-04-25T15:31:37.000Z</time>
    </trkpt>
    <trkpt lat="59.1015100479" lon="30.0272226334">
        <ele>0.0</ele>
        <time>2026-04-25T15:31:39.000Z</time>
    </trkpt>
    <trkpt lat="59.1014885902" lon="30.027244091">
        <ele>0.0</ele>
        <time>2026-04-25T15:31:42.000Z</time>
    </trkpt>
    <trkpt lat="59.1014885902" lon="30.0272655487">
        <ele>0.0</ele>
        <time>2026-04-25T15:31:44.000Z</time>
    </trkpt>
    <trkpt lat="59.1014885902" lon="30.0272655487">
        <ele>0.0</ele>
        <time>2026-04-25T15:31:47.000Z</time>
    </trkpt>
    <trkpt lat="59.1014885902" lon="30.0272655487">
        <ele>0.0</ele>
        <time>2026-04-25T15:31:49.000Z</time>
    </trkpt>
    <trkpt lat="59.1014885902" lon="30.0272655487">
        <ele>0.0</ele>
        <time>2026-04-25T15:31:52.000Z</time>
    </trkpt>
    <trkpt lat="59.1014885902" lon="30.0272655487">
        <ele>0.0</ele>
        <time>2026-04-25T15:31:54.000Z</time>
    </trkpt>
    <trkpt lat="59.1014885902" lon="30.0272655487">
        <ele>0.0</ele>
        <time>2026-04-25T15:31:57.000Z</time>
    </trkpt>
    <trkpt lat="59.1014885902" lon="30.0272655487">
        <ele>0.0</ele>
        <time>2026-04-25T15:31:59.000Z</time>
    </trkpt>
    <trkpt lat="59.1014885902" lon="30.0272655487">
        <ele>0.0</ele>
        <time>2026-04-25T15:32:02.000Z</time>
    </trkpt>
    <trkpt lat="59.1015315056" lon="30.0272870064">
        <ele>0.0</ele>
        <time>2026-04-25T15:32:04.000Z</time>
    </trkpt>
    <trkpt lat="59.1015529633" lon="30.0273084641">
        <ele>0.0</ele>
        <time>2026-04-25T15:32:07.000Z</time>
    </trkpt>
    <trkpt lat="59.1015529633" lon="30.0273299217">
        <ele>0.0</ele>
        <time>2026-04-25T15:32:09.000Z</time>
    </trkpt>
    <trkpt lat="59.1015744209" lon="30.0274157524">
        <ele>0.0</ele>
        <time>2026-04-25T15:32:12.000Z</time>
    </trkpt>
    <trkpt lat="59.1015529633" lon="30.0274157524">
        <ele>0.0</ele>
        <time>2026-04-25T15:32:14.000Z</time>
    </trkpt>
    <trkpt lat="59.1015315056" lon="30.0273942947">
        <ele>0.0</ele>
        <time>2026-04-25T15:32:17.000Z</time>
    </trkpt>
    <trkpt lat="59.1015100479" lon="30.0273728371">
        <ele>0.0</ele>
        <time>2026-04-25T15:32:19.000Z</time>
    </trkpt>
    <trkpt lat="59.1014885902" lon="30.0273728371">
        <ele>0.0</ele>
        <time>2026-04-25T15:32:22.000Z</time>
    </trkpt>
    <trkpt lat="59.1014671326" lon="30.0273513794">
        <ele>0.0</ele>
        <time>2026-04-25T15:32:24.000Z</time>
    </trkpt>
    <trkpt lat="59.1014885902" lon="30.0273942947">
        <ele>0.0</ele>
        <time>2026-04-25T15:32:27.000Z</time>
    </trkpt>
    <trkpt lat="59.1015315056" lon="30.0274372101">
        <ele>0.0</ele>
        <time>2026-04-25T15:32:29.000Z</time>
    </trkpt>
    <trkpt lat="59.1015744209" lon="30.0275015831">
        <ele>0.0</ele>
        <time>2026-04-25T15:32:32.000Z</time>
    </trkpt>
    <trkpt lat="59.1016173363" lon="30.0276303291">
        <ele>0.0</ele>
        <time>2026-04-25T15:32:34.000Z</time>
    </trkpt>
    <trkpt lat="59.1016387939" lon="30.0276732445">
        <ele>0.0</ele>
        <time>2026-04-25T15:32:37.000Z</time>
    </trkpt>
    <trkpt lat="59.1016387939" lon="30.0277161598">
        <ele>0.0</ele>
        <time>2026-04-25T15:32:39.000Z</time>
    </trkpt>
    <trkpt lat="59.1016387939" lon="30.0277376175">
        <ele>0.0</ele>
        <time>2026-04-25T15:32:42.000Z</time>
    </trkpt>
    <trkpt lat="59.1016387939" lon="30.0277590752">
        <ele>0.0</ele>
        <time>2026-04-25T15:32:44.000Z</time>
    </trkpt>
    <trkpt lat="59.1016602516" lon="30.0278449059">
        <ele>0.0</ele>
        <time>2026-04-25T15:32:47.000Z</time>
    </trkpt>
    <trkpt lat="59.101703167" lon="30.0279307365">
        <ele>0.0</ele>
        <time>2026-04-25T15:32:49.000Z</time>
    </trkpt>
    <trkpt lat="59.101703167" lon="30.0279521942">
        <ele>0.0</ele>
        <time>2026-04-25T15:32:52.000Z</time>
    </trkpt>
    <trkpt lat="59.1017460823" lon="30.0280594826">
        <ele>0.0</ele>
        <time>2026-04-25T15:32:54.000Z</time>
    </trkpt>
    <trkpt lat="59.1017460823" lon="30.0280809402">
        <ele>0.0</ele>
        <time>2026-04-25T15:32:57.000Z</time>
    </trkpt>
    <trkpt lat="59.1017460823" lon="30.0281238556">
        <ele>0.0</ele>
        <time>2026-04-25T15:32:59.000Z</time>
    </trkpt>
    <trkpt lat="59.10176754" lon="30.0281453133">
        <ele>0.0</ele>
        <time>2026-04-25T15:33:02.000Z</time>
    </trkpt>
    <trkpt lat="59.10176754" lon="30.0281453133">
        <ele>0.0</ele>
        <time>2026-04-25T15:33:04.000Z</time>
    </trkpt>
    <trkpt lat="59.10176754" lon="30.0281882286">
        <ele>0.0</ele>
        <time>2026-04-25T15:33:07.000Z</time>
    </trkpt>
    <trkpt lat="59.10176754" lon="30.0281882286">
        <ele>0.0</ele>
        <time>2026-04-25T15:33:09.000Z</time>
    </trkpt>
    <trkpt lat="59.10176754" lon="30.0281882286">
        <ele>0.0</ele>
        <time>2026-04-25T15:33:12.000Z</time>
    </trkpt>
    <trkpt lat="59.10176754" lon="30.028231144">
        <ele>0.0</ele>
        <time>2026-04-25T15:33:14.000Z</time>
    </trkpt>
    <trkpt lat="59.1017460823" lon="30.0282740593">
        <ele>0.0</ele>
        <time>2026-04-25T15:33:17.000Z</time>
    </trkpt>
    <trkpt lat="59.1017460823" lon="30.02835989">
        <ele>0.0</ele>
        <time>2026-04-25T15:33:19.000Z</time>
    </trkpt>
    <trkpt lat="59.1017460823" lon="30.02835989">
        <ele>0.0</ele>
        <time>2026-04-25T15:33:22.000Z</time>
    </trkpt>
    <trkpt lat="59.1017460823" lon="30.02835989">
        <ele>0.0</ele>
        <time>2026-04-25T15:33:24.000Z</time>
    </trkpt>
    <trkpt lat="59.1017460823" lon="30.02835989">
        <ele>0.0</ele>
        <time>2026-04-25T15:33:27.000Z</time>
    </trkpt>
    <trkpt lat="59.1017460823" lon="30.0284028053">
        <ele>0.0</ele>
        <time>2026-04-25T15:33:29.000Z</time>
    </trkpt>
    <trkpt lat="59.1017460823" lon="30.0284671783">
        <ele>0.0</ele>
        <time>2026-04-25T15:33:32.000Z</time>
    </trkpt>
    <trkpt lat="59.1017460823" lon="30.0285315514">
        <ele>0.0</ele>
        <time>2026-04-25T15:33:34.000Z</time>
    </trkpt>
    <trkpt lat="59.1017460823" lon="30.028553009">
        <ele>0.0</ele>
        <time>2026-04-25T15:33:37.000Z</time>
    </trkpt>
    <trkpt lat="59.10176754" lon="30.0285959244">
        <ele>0.0</ele>
        <time>2026-04-25T15:33:39.000Z</time>
    </trkpt>
    <trkpt lat="59.1017889977" lon="30.028617382">
        <ele>0.0</ele>
        <time>2026-04-25T15:33:42.000Z</time>
    </trkpt>
    <trkpt lat="59.1017889977" lon="30.028617382">
        <ele>0.0</ele>
        <time>2026-04-25T15:33:44.000Z</time>
    </trkpt>
    <trkpt lat="59.1017889977" lon="30.028617382">
        <ele>0.0</ele>
        <time>2026-04-25T15:33:47.000Z</time>
    </trkpt>
    <trkpt lat="59.1018104553" lon="30.0286817551">
        <ele>0.0</ele>
        <time>2026-04-25T15:33:49.000Z</time>
    </trkpt>
    <trkpt lat="59.101831913" lon="30.0286817551">
        <ele>0.0</ele>
        <time>2026-04-25T15:33:52.000Z</time>
    </trkpt>
    <trkpt lat="59.101831913" lon="30.0287246704">
        <ele>0.0</ele>
        <time>2026-04-25T15:33:54.000Z</time>
    </trkpt>
    <trkpt lat="59.1018533707" lon="30.0287461281">
        <ele>0.0</ele>
        <time>2026-04-25T15:33:57.000Z</time>
    </trkpt>
    <trkpt lat="59.1018748283" lon="30.0287461281">
        <ele>0.0</ele>
        <time>2026-04-25T15:33:59.000Z</time>
    </trkpt>
    <trkpt lat="59.1018748283" lon="30.0287675858">
        <ele>0.0</ele>
        <time>2026-04-25T15:34:02.000Z</time>
    </trkpt>
    <trkpt lat="59.1018533707" lon="30.0287675858">
        <ele>0.0</ele>
        <time>2026-04-25T15:34:04.000Z</time>
    </trkpt>
    <trkpt lat="59.1018533707" lon="30.0287675858">
        <ele>0.0</ele>
        <time>2026-04-25T15:34:07.000Z</time>
    </trkpt>
    <trkpt lat="59.1018533707" lon="30.0287675858">
        <ele>0.0</ele>
        <time>2026-04-25T15:34:09.000Z</time>
    </trkpt>
    <trkpt lat="59.1018533707" lon="30.0287675858">
        <ele>0.0</ele>
        <time>2026-04-25T15:34:12.000Z</time>
    </trkpt>
    <trkpt lat="59.1018533707" lon="30.0287890434">
        <ele>0.0</ele>
        <time>2026-04-25T15:34:14.000Z</time>
    </trkpt>
    <trkpt lat="59.1018533707" lon="30.0288105011">
        <ele>0.0</ele>
        <time>2026-04-25T15:34:17.000Z</time>
    </trkpt>
    <trkpt lat="59.1018748283" lon="30.0288748741">
        <ele>0.0</ele>
        <time>2026-04-25T15:34:19.000Z</time>
    </trkpt>
    <trkpt lat="59.1018748283" lon="30.0289177895">
        <ele>0.0</ele>
        <time>2026-04-25T15:34:22.000Z</time>
    </trkpt>
    <trkpt lat="59.101896286" lon="30.0289821625">
        <ele>0.0</ele>
        <time>2026-04-25T15:34:24.000Z</time>
    </trkpt>
    <trkpt lat="59.1019177437" lon="30.0290250778">
        <ele>0.0</ele>
        <time>2026-04-25T15:34:27.000Z</time>
    </trkpt>
    <trkpt lat="59.101960659" lon="30.0290679932">
        <ele>0.0</ele>
        <time>2026-04-25T15:34:29.000Z</time>
    </trkpt>
    <trkpt lat="59.1019392014" lon="30.0291109085">
        <ele>0.0</ele>
        <time>2026-04-25T15:34:32.000Z</time>
    </trkpt>
    <trkpt lat="59.101960659" lon="30.0291538239">
        <ele>0.0</ele>
        <time>2026-04-25T15:34:34.000Z</time>
    </trkpt>
    <trkpt lat="59.101960659" lon="30.0291538239">
        <ele>0.0</ele>
        <time>2026-04-25T15:34:37.000Z</time>
    </trkpt>
    <trkpt lat="59.101960659" lon="30.0291967392">
        <ele>0.0</ele>
        <time>2026-04-25T15:34:39.000Z</time>
    </trkpt>
    <trkpt lat="59.1019821167" lon="30.0292181969">
        <ele>0.0</ele>
        <time>2026-04-25T15:34:42.000Z</time>
    </trkpt>
    <trkpt lat="59.1020035744" lon="30.0293040276">
        <ele>0.0</ele>
        <time>2026-04-25T15:34:44.000Z</time>
    </trkpt>
    <trkpt lat="59.1020035744" lon="30.0293469429">
        <ele>0.0</ele>
        <time>2026-04-25T15:34:47.000Z</time>
    </trkpt>
    <trkpt lat="59.1020035744" lon="30.0293898582">
        <ele>0.0</ele>
        <time>2026-04-25T15:34:49.000Z</time>
    </trkpt>
    <trkpt lat="59.102025032" lon="30.0293684006">
        <ele>0.0</ele>
        <time>2026-04-25T15:34:52.000Z</time>
    </trkpt>
    <trkpt lat="59.1020035744" lon="30.0293469429">
        <ele>0.0</ele>
        <time>2026-04-25T15:34:54.000Z</time>
    </trkpt>
    <trkpt lat="59.1020035744" lon="30.0293254852">
        <ele>0.0</ele>
        <time>2026-04-25T15:34:57.000Z</time>
    </trkpt>
    <trkpt lat="59.1019821167" lon="30.0293254852">
        <ele>0.0</ele>
        <time>2026-04-25T15:34:59.000Z</time>
    </trkpt>
    <trkpt lat="59.1019821167" lon="30.0293040276">
        <ele>0.0</ele>
        <time>2026-04-25T15:35:02.000Z</time>
    </trkpt>
    <trkpt lat="59.1019821167" lon="30.0293040276">
        <ele>0.0</ele>
        <time>2026-04-25T15:35:04.000Z</time>
    </trkpt>
    <trkpt lat="59.1019821167" lon="30.0293040276">
        <ele>0.0</ele>
        <time>2026-04-25T15:35:07.000Z</time>
    </trkpt>
    <trkpt lat="59.1019821167" lon="30.0293254852">
        <ele>0.0</ele>
        <time>2026-04-25T15:35:09.000Z</time>
    </trkpt>
    <trkpt lat="59.1019821167" lon="30.0293254852">
        <ele>0.0</ele>
        <time>2026-04-25T15:35:12.000Z</time>
    </trkpt>
    <trkpt lat="59.1019821167" lon="30.0293684006">
        <ele>0.0</ele>
        <time>2026-04-25T15:35:14.000Z</time>
    </trkpt>
    <trkpt lat="59.1019821167" lon="30.0293684006">
        <ele>0.0</ele>
        <time>2026-04-25T15:35:17.000Z</time>
    </trkpt>
    <trkpt lat="59.1019821167" lon="30.0293898582">
        <ele>0.0</ele>
        <time>2026-04-25T15:35:19.000Z</time>
    </trkpt>
    <trkpt lat="59.1019821167" lon="30.0293898582">
        <ele>0.0</ele>
        <time>2026-04-25T15:35:22.000Z</time>
    </trkpt>
    <trkpt lat="59.1019821167" lon="30.0294327736">
        <ele>0.0</ele>
        <time>2026-04-25T15:35:24.000Z</time>
    </trkpt>
    <trkpt lat="59.1019821167" lon="30.0294542313">
        <ele>0.0</ele>
        <time>2026-04-25T15:35:27.000Z</time>
    </trkpt>
    <trkpt lat="59.1019821167" lon="30.0294756889">
        <ele>0.0</ele>
        <time>2026-04-25T15:35:29.000Z</time>
    </trkpt>
    <trkpt lat="59.101960659" lon="30.0294756889">
        <ele>0.0</ele>
        <time>2026-04-25T15:35:32.000Z</time>
    </trkpt>
    <trkpt lat="59.1019821167" lon="30.0295186043">
        <ele>0.0</ele>
        <time>2026-04-25T15:35:34.000Z</time>
    </trkpt>
    <trkpt lat="59.1019821167" lon="30.0295615196">
        <ele>0.0</ele>
        <time>2026-04-25T15:35:37.000Z</time>
    </trkpt>
    <trkpt lat="59.1019821167" lon="30.029540062">
        <ele>0.0</ele>
        <time>2026-04-25T15:35:39.000Z</time>
    </trkpt>
    <trkpt lat="59.1019821167" lon="30.029540062">
        <ele>0.0</ele>
        <time>2026-04-25T15:35:42.000Z</time>
    </trkpt>
    <trkpt lat="59.1019821167" lon="30.029540062">
        <ele>0.0</ele>
        <time>2026-04-25T15:35:44.000Z</time>
    </trkpt>
    <trkpt lat="59.1019821167" lon="30.029540062">
        <ele>0.0</ele>
        <time>2026-04-25T15:35:47.000Z</time>
    </trkpt>
    <trkpt lat="59.1019821167" lon="30.029540062">
        <ele>0.0</ele>
        <time>2026-04-25T15:35:49.000Z</time>
    </trkpt>
    <trkpt lat="59.1019821167" lon="30.029540062">
        <ele>0.0</ele>
        <time>2026-04-25T15:35:52.000Z</time>
    </trkpt>
    <trkpt lat="59.1019821167" lon="30.0295186043">
        <ele>0.0</ele>
        <time>2026-04-25T15:35:54.000Z</time>
    </trkpt>
    <trkpt lat="59.1019821167" lon="30.0295186043">
        <ele>0.0</ele>
        <time>2026-04-25T15:35:57.000Z</time>
    </trkpt>
    <trkpt lat="59.101960659" lon="30.029604435">
        <ele>0.0</ele>
        <time>2026-04-25T15:35:59.000Z</time>
    </trkpt>
    <trkpt lat="59.101960659" lon="30.029668808">
        <ele>0.0</ele>
        <time>2026-04-25T15:36:02.000Z</time>
    </trkpt>
    <trkpt lat="59.1019392014" lon="30.0296902657">
        <ele>0.0</ele>
        <time>2026-04-25T15:36:04.000Z</time>
    </trkpt>
    <trkpt lat="59.1019392014" lon="30.0296902657">
        <ele>0.0</ele>
        <time>2026-04-25T15:36:07.000Z</time>
    </trkpt>
    <trkpt lat="59.1019177437" lon="30.029733181">
        <ele>0.0</ele>
        <time>2026-04-25T15:36:09.000Z</time>
    </trkpt>
    <trkpt lat="59.1019392014" lon="30.0297760963">
        <ele>0.0</ele>
        <time>2026-04-25T15:36:12.000Z</time>
    </trkpt>
    <trkpt lat="59.1019177437" lon="30.029861927">
        <ele>0.0</ele>
        <time>2026-04-25T15:36:14.000Z</time>
    </trkpt>
    <trkpt lat="59.1019177437" lon="30.0298833847">
        <ele>0.0</ele>
        <time>2026-04-25T15:36:17.000Z</time>
    </trkpt>
    <trkpt lat="59.101896286" lon="30.0299477577">
        <ele>0.0</ele>
        <time>2026-04-25T15:36:19.000Z</time>
    </trkpt>
    <trkpt lat="59.101896286" lon="30.0299692154">
        <ele>0.0</ele>
        <time>2026-04-25T15:36:22.000Z</time>
    </trkpt>
    <trkpt lat="59.101896286" lon="30.0299692154">
        <ele>0.0</ele>
        <time>2026-04-25T15:36:24.000Z</time>
    </trkpt>
    <trkpt lat="59.101896286" lon="30.0299692154">
        <ele>0.0</ele>
        <time>2026-04-25T15:36:27.000Z</time>
    </trkpt>
    <trkpt lat="59.1019177437" lon="30.0300121307">
        <ele>0.0</ele>
        <time>2026-04-25T15:36:29.000Z</time>
    </trkpt>
    <trkpt lat="59.1019392014" lon="30.0300121307">
        <ele>0.0</ele>
        <time>2026-04-25T15:36:32.000Z</time>
    </trkpt>
    <trkpt lat="59.1019392014" lon="30.0300121307">
        <ele>0.0</ele>
        <time>2026-04-25T15:36:34.000Z</time>
    </trkpt>
    <trkpt lat="59.1019392014" lon="30.0300550461">
        <ele>0.0</ele>
        <time>2026-04-25T15:36:37.000Z</time>
    </trkpt>
    <trkpt lat="59.1019821167" lon="30.0301194191">
        <ele>0.0</ele>
        <time>2026-04-25T15:36:39.000Z</time>
    </trkpt>
    <trkpt lat="59.1019821167" lon="30.0301408768">
        <ele>0.0</ele>
        <time>2026-04-25T15:36:42.000Z</time>
    </trkpt>
    <trkpt lat="59.1019821167" lon="30.0301837921">
        <ele>0.0</ele>
        <time>2026-04-25T15:36:44.000Z</time>
    </trkpt>
    <trkpt lat="59.1019821167" lon="30.0301837921">
        <ele>0.0</ele>
        <time>2026-04-25T15:36:47.000Z</time>
    </trkpt>
    <trkpt lat="59.1019821167" lon="30.0301837921">
        <ele>0.0</ele>
        <time>2026-04-25T15:36:49.000Z</time>
    </trkpt>
    <trkpt lat="59.1019821167" lon="30.0301623344">
        <ele>0.0</ele>
        <time>2026-04-25T15:36:52.000Z</time>
    </trkpt>
    <trkpt lat="59.101960659" lon="30.0301408768">
        <ele>0.0</ele>
        <time>2026-04-25T15:36:54.000Z</time>
    </trkpt>
    <trkpt lat="59.101960659" lon="30.0301194191">
        <ele>0.0</ele>
        <time>2026-04-25T15:36:57.000Z</time>
    </trkpt>
    <trkpt lat="59.1019392014" lon="30.0301194191">
        <ele>0.0</ele>
        <time>2026-04-25T15:36:59.000Z</time>
    </trkpt>
    <trkpt lat="59.1019177437" lon="30.0301623344">
        <ele>0.0</ele>
        <time>2026-04-25T15:37:02.000Z</time>
    </trkpt>
    <trkpt lat="59.1019177437" lon="30.0302267075">
        <ele>0.0</ele>
        <time>2026-04-25T15:37:04.000Z</time>
    </trkpt>
    <trkpt lat="59.1019177437" lon="30.0302696228">
        <ele>0.0</ele>
        <time>2026-04-25T15:37:07.000Z</time>
    </trkpt>
    <trkpt lat="59.1019177437" lon="30.0303339958">
        <ele>0.0</ele>
        <time>2026-04-25T15:37:09.000Z</time>
    </trkpt>
    <trkpt lat="59.101896286" lon="30.0303339958">
        <ele>0.0</ele>
        <time>2026-04-25T15:37:12.000Z</time>
    </trkpt>
    <trkpt lat="59.1018748283" lon="30.0303554535">
        <ele>0.0</ele>
        <time>2026-04-25T15:37:14.000Z</time>
    </trkpt>
    <trkpt lat="59.1018748283" lon="30.0303769112">
        <ele>0.0</ele>
        <time>2026-04-25T15:37:17.000Z</time>
    </trkpt>
    <trkpt lat="59.1018748283" lon="30.0303769112">
        <ele>0.0</ele>
        <time>2026-04-25T15:37:19.000Z</time>
    </trkpt>
    <trkpt lat="59.1018748283" lon="30.0303983688">
        <ele>0.0</ele>
        <time>2026-04-25T15:37:22.000Z</time>
    </trkpt>
    <trkpt lat="59.1018748283" lon="30.0304412842">
        <ele>0.0</ele>
        <time>2026-04-25T15:37:24.000Z</time>
    </trkpt>
    <trkpt lat="59.1018748283" lon="30.0304412842">
        <ele>0.0</ele>
        <time>2026-04-25T15:37:27.000Z</time>
    </trkpt>
    <trkpt lat="59.1018748283" lon="30.0304198265">
        <ele>0.0</ele>
        <time>2026-04-25T15:37:29.000Z</time>
    </trkpt>
    <trkpt lat="59.101896286" lon="30.0303983688">
        <ele>0.0</ele>
        <time>2026-04-25T15:37:32.000Z</time>
    </trkpt>
    <trkpt lat="59.101896286" lon="30.0303769112">
        <ele>0.0</ele>
        <time>2026-04-25T15:37:34.000Z</time>
    </trkpt>
    <trkpt lat="59.1019177437" lon="30.0303769112">
        <ele>0.0</ele>
        <time>2026-04-25T15:37:37.000Z</time>
    </trkpt>
    <trkpt lat="59.1019177437" lon="30.0303769112">
        <ele>0.0</ele>
        <time>2026-04-25T15:37:39.000Z</time>
    </trkpt>
    <trkpt lat="59.1019177437" lon="30.0303769112">
        <ele>0.0</ele>
        <time>2026-04-25T15:37:42.000Z</time>
    </trkpt>
    <trkpt lat="59.1019177437" lon="30.0303769112">
        <ele>0.0</ele>
        <time>2026-04-25T15:37:44.000Z</time>
    </trkpt>
    <trkpt lat="59.1019392014" lon="30.0303769112">
        <ele>0.0</ele>
        <time>2026-04-25T15:37:47.000Z</time>
    </trkpt>
    <trkpt lat="59.1019392014" lon="30.0303339958">
        <ele>0.0</ele>
        <time>2026-04-25T15:37:49.000Z</time>
    </trkpt>
    <trkpt lat="59.101960659" lon="30.0303339958">
        <ele>0.0</ele>
        <time>2026-04-25T15:37:52.000Z</time>
    </trkpt>
    <trkpt lat="59.101960659" lon="30.0303339958">
        <ele>0.0</ele>
        <time>2026-04-25T15:37:54.000Z</time>
    </trkpt>
    <trkpt lat="59.1019821167" lon="30.0303339958">
        <ele>0.0</ele>
        <time>2026-04-25T15:37:57.000Z</time>
    </trkpt>
    <trkpt lat="59.1019821167" lon="30.0303125381">
        <ele>0.0</ele>
        <time>2026-04-25T15:37:59.000Z</time>
    </trkpt>
    <trkpt lat="59.1019821167" lon="30.0303125381">
        <ele>0.0</ele>
        <time>2026-04-25T15:38:02.000Z</time>
    </trkpt>
    <trkpt lat="59.1020035744" lon="30.0303339958">
        <ele>0.0</ele>
        <time>2026-04-25T15:38:04.000Z</time>
    </trkpt>
    <trkpt lat="59.102025032" lon="30.0303339958">
        <ele>0.0</ele>
        <time>2026-04-25T15:38:07.000Z</time>
    </trkpt>
    <trkpt lat="59.1020464897" lon="30.0303554535">
        <ele>0.0</ele>
        <time>2026-04-25T15:38:09.000Z</time>
    </trkpt>
    <trkpt lat="59.1020679474" lon="30.0303554535">
        <ele>0.0</ele>
        <time>2026-04-25T15:38:12.000Z</time>
    </trkpt>
    <trkpt lat="59.1020679474" lon="30.0303554535">
        <ele>0.0</ele>
        <time>2026-04-25T15:38:14.000Z</time>
    </trkpt>
    <trkpt lat="59.1020679474" lon="30.0303554535">
        <ele>0.0</ele>
        <time>2026-04-25T15:38:17.000Z</time>
    </trkpt>
    <trkpt lat="59.1020679474" lon="30.0303554535">
        <ele>0.0</ele>
        <time>2026-04-25T15:38:19.000Z</time>
    </trkpt>
    <trkpt lat="59.1020679474" lon="30.0303554535">
        <ele>0.0</ele>
        <time>2026-04-25T15:38:22.000Z</time>
    </trkpt>
    <trkpt lat="59.1020679474" lon="30.0303554535">
        <ele>0.0</ele>
        <time>2026-04-25T15:38:24.000Z</time>
    </trkpt>
    <trkpt lat="59.1020679474" lon="30.0303554535">
        <ele>0.0</ele>
        <time>2026-04-25T15:38:27.000Z</time>
    </trkpt>
    <trkpt lat="59.1020894051" lon="30.0303339958">
        <ele>0.0</ele>
        <time>2026-04-25T15:38:29.000Z</time>
    </trkpt>
    <trkpt lat="59.1020894051" lon="30.0303339958">
        <ele>0.0</ele>
        <time>2026-04-25T15:38:32.000Z</time>
    </trkpt>
    <trkpt lat="59.1020894051" lon="30.0303339958">
        <ele>0.0</ele>
        <time>2026-04-25T15:38:34.000Z</time>
    </trkpt>
    <trkpt lat="59.1020894051" lon="30.0303339958">
        <ele>0.0</ele>
        <time>2026-04-25T15:38:37.000Z</time>
    </trkpt>
    <trkpt lat="59.1020894051" lon="30.0303339958">
        <ele>0.0</ele>
        <time>2026-04-25T15:38:39.000Z</time>
    </trkpt>
    <trkpt lat="59.1020894051" lon="30.0303339958">
        <ele>0.0</ele>
        <time>2026-04-25T15:38:42.000Z</time>
    </trkpt>
    <trkpt lat="59.1020894051" lon="30.0303339958">
        <ele>0.0</ele>
        <time>2026-04-25T15:38:44.000Z</time>
    </trkpt>
    <trkpt lat="59.1020894051" lon="30.0303339958">
        <ele>0.0</ele>
        <time>2026-04-25T15:38:47.000Z</time>
    </trkpt>
    <trkpt lat="59.1020894051" lon="30.0303339958">
        <ele>0.0</ele>
        <time>2026-04-25T15:38:49.000Z</time>
    </trkpt>
    <trkpt lat="59.1021108627" lon="30.0303339958">
        <ele>0.0</ele>
        <time>2026-04-25T15:38:52.000Z</time>
    </trkpt>
    <trkpt lat="59.1021323204" lon="30.0303339958">
        <ele>0.0</ele>
        <time>2026-04-25T15:38:54.000Z</time>
    </trkpt>
    <trkpt lat="59.1021537781" lon="30.0303554535">
        <ele>0.0</ele>
        <time>2026-04-25T15:38:57.000Z</time>
    </trkpt>
    <trkpt lat="59.1021537781" lon="30.0303554535">
        <ele>0.0</ele>
        <time>2026-04-25T15:38:59.000Z</time>
    </trkpt>
    <trkpt lat="59.1021537781" lon="30.0303554535">
        <ele>0.0</ele>
        <time>2026-04-25T15:39:02.000Z</time>
    </trkpt>
    <trkpt lat="59.1021537781" lon="30.0303554535">
        <ele>0.0</ele>
        <time>2026-04-25T15:39:04.000Z</time>
    </trkpt>
    <trkpt lat="59.1021537781" lon="30.0303554535">
        <ele>0.0</ele>
        <time>2026-04-25T15:39:07.000Z</time>
    </trkpt>
    <trkpt lat="59.1021537781" lon="30.0303554535">
        <ele>0.0</ele>
        <time>2026-04-25T15:39:09.000Z</time>
    </trkpt>
    <trkpt lat="59.1021537781" lon="30.0303554535">
        <ele>0.0</ele>
        <time>2026-04-25T15:39:12.000Z</time>
    </trkpt>
    <trkpt lat="59.1021537781" lon="30.0303554535">
        <ele>0.0</ele>
        <time>2026-04-25T15:39:14.000Z</time>
    </trkpt>
    <trkpt lat="59.1021537781" lon="30.0303554535">
        <ele>0.0</ele>
        <time>2026-04-25T15:39:17.000Z</time>
    </trkpt>
    <trkpt lat="59.1021537781" lon="30.0303554535">
        <ele>0.0</ele>
        <time>2026-04-25T15:39:19.000Z</time>
    </trkpt>
    <trkpt lat="59.1021537781" lon="30.0303554535">
        <ele>0.0</ele>
        <time>2026-04-25T15:39:22.000Z</time>
    </trkpt>
    <trkpt lat="59.1021537781" lon="30.0303554535">
        <ele>0.0</ele>
        <time>2026-04-25T15:39:24.000Z</time>
    </trkpt>
    <trkpt lat="59.1021537781" lon="30.0303554535">
        <ele>0.0</ele>
        <time>2026-04-25T15:39:27.000Z</time>
    </trkpt>
    <trkpt lat="59.1021537781" lon="30.0303339958">
        <ele>0.0</ele>
        <time>2026-04-25T15:39:29.000Z</time>
    </trkpt>
    <trkpt lat="59.1021752357" lon="30.0303125381">
        <ele>0.0</ele>
        <time>2026-04-25T15:39:32.000Z</time>
    </trkpt>
    <trkpt lat="59.1021966934" lon="30.0302910805">
        <ele>0.0</ele>
        <time>2026-04-25T15:39:34.000Z</time>
    </trkpt>
    <trkpt lat="59.1022181511" lon="30.0302481651">
        <ele>0.0</ele>
        <time>2026-04-25T15:39:37.000Z</time>
    </trkpt>
    <trkpt lat="59.1022610664" lon="30.0302052498">
        <ele>0.0</ele>
        <time>2026-04-25T15:39:39.000Z</time>
    </trkpt>
    <trkpt lat="59.1022825241" lon="30.0301623344">
        <ele>0.0</ele>
        <time>2026-04-25T15:39:42.000Z</time>
    </trkpt>
    <trkpt lat="59.1022825241" lon="30.0301408768">
        <ele>0.0</ele>
        <time>2026-04-25T15:39:44.000Z</time>
    </trkpt>
    <trkpt lat="59.1022825241" lon="30.0301408768">
        <ele>0.0</ele>
        <time>2026-04-25T15:39:47.000Z</time>
    </trkpt>
    <trkpt lat="59.1022825241" lon="30.0301408768">
        <ele>0.0</ele>
        <time>2026-04-25T15:39:49.000Z</time>
    </trkpt>
    <trkpt lat="59.1022825241" lon="30.0301408768">
        <ele>0.0</ele>
        <time>2026-04-25T15:39:52.000Z</time>
    </trkpt>
    <trkpt lat="59.1022825241" lon="30.0301408768">
        <ele>0.0</ele>
        <time>2026-04-25T15:39:54.000Z</time>
    </trkpt>
    <trkpt lat="59.1022825241" lon="30.0301408768">
        <ele>0.0</ele>
        <time>2026-04-25T15:39:57.000Z</time>
    </trkpt>
    <trkpt lat="59.1022825241" lon="30.0301408768">
        <ele>0.0</ele>
        <time>2026-04-25T15:39:59.000Z</time>
    </trkpt>
    <trkpt lat="59.1023039818" lon="30.0301408768">
        <ele>0.0</ele>
        <time>2026-04-25T15:40:02.000Z</time>
    </trkpt>
    <trkpt lat="59.1023039818" lon="30.0301194191">
        <ele>0.0</ele>
        <time>2026-04-25T15:40:04.000Z</time>
    </trkpt>
    <trkpt lat="59.1023039818" lon="30.0301194191">
        <ele>0.0</ele>
        <time>2026-04-25T15:40:07.000Z</time>
    </trkpt>
    <trkpt lat="59.1023468971" lon="30.0300335884">
        <ele>0.0</ele>
        <time>2026-04-25T15:40:09.000Z</time>
    </trkpt>
    <trkpt lat="59.1023683548" lon="30.0299906731">
        <ele>0.0</ele>
        <time>2026-04-25T15:40:12.000Z</time>
    </trkpt>
    <trkpt lat="59.1023898125" lon="30.0299477577">
        <ele>0.0</ele>
        <time>2026-04-25T15:40:14.000Z</time>
    </trkpt>
    <trkpt lat="59.1024112701" lon="30.0299263">
        <ele>0.0</ele>
        <time>2026-04-25T15:40:17.000Z</time>
    </trkpt>
    <trkpt lat="59.1024112701" lon="30.0299048424">
        <ele>0.0</ele>
        <time>2026-04-25T15:40:19.000Z</time>
    </trkpt>
    <trkpt lat="59.1024112701" lon="30.0299048424">
        <ele>0.0</ele>
        <time>2026-04-25T15:40:22.000Z</time>
    </trkpt>
    <trkpt lat="59.1023898125" lon="30.0298404694">
        <ele>0.0</ele>
        <time>2026-04-25T15:40:24.000Z</time>
    </trkpt>
    <trkpt lat="59.1023898125" lon="30.029797554">
        <ele>0.0</ele>
        <time>2026-04-25T15:40:27.000Z</time>
    </trkpt>
    <trkpt lat="59.1023898125" lon="30.0297117233">
        <ele>0.0</ele>
        <time>2026-04-25T15:40:29.000Z</time>
    </trkpt>
    <trkpt lat="59.1023898125" lon="30.029668808">
        <ele>0.0</ele>
        <time>2026-04-25T15:40:32.000Z</time>
    </trkpt>
    <trkpt lat="59.1023898125" lon="30.029668808">
        <ele>0.0</ele>
        <time>2026-04-25T15:40:34.000Z</time>
    </trkpt>
    <trkpt lat="59.1023898125" lon="30.029668808">
        <ele>0.0</ele>
        <time>2026-04-25T15:40:37.000Z</time>
    </trkpt>
    <trkpt lat="59.1023898125" lon="30.029668808">
        <ele>0.0</ele>
        <time>2026-04-25T15:40:39.000Z</time>
    </trkpt>
    <trkpt lat="59.1023898125" lon="30.029668808">
        <ele>0.0</ele>
        <time>2026-04-25T15:40:42.000Z</time>
    </trkpt>
    <trkpt lat="59.1023898125" lon="30.029668808">
        <ele>0.0</ele>
        <time>2026-04-25T15:40:44.000Z</time>
    </trkpt>
    <trkpt lat="59.1023898125" lon="30.029668808">
        <ele>0.0</ele>
        <time>2026-04-25T15:40:47.000Z</time>
    </trkpt>
    <trkpt lat="59.1023898125" lon="30.029668808">
        <ele>0.0</ele>
        <time>2026-04-25T15:40:49.000Z</time>
    </trkpt>
    <trkpt lat="59.1023898125" lon="30.029668808">
        <ele>0.0</ele>
        <time>2026-04-25T15:40:52.000Z</time>
    </trkpt>
    <trkpt lat="59.1023898125" lon="30.029668808">
        <ele>0.0</ele>
        <time>2026-04-25T15:40:54.000Z</time>
    </trkpt>
    <trkpt lat="59.1023898125" lon="30.029668808">
        <ele>0.0</ele>
        <time>2026-04-25T15:40:57.000Z</time>
    </trkpt>
    <trkpt lat="59.1024112701" lon="30.0296258926">
        <ele>0.0</ele>
        <time>2026-04-25T15:40:59.000Z</time>
    </trkpt>
    <trkpt lat="59.1024327278" lon="30.029604435">
        <ele>0.0</ele>
        <time>2026-04-25T15:41:02.000Z</time>
    </trkpt>
    <trkpt lat="59.1024541855" lon="30.0295615196">
        <ele>0.0</ele>
        <time>2026-04-25T15:41:04.000Z</time>
    </trkpt>
    <trkpt lat="59.1024756432" lon="30.029540062">
        <ele>0.0</ele>
        <time>2026-04-25T15:41:07.000Z</time>
    </trkpt>
    <trkpt lat="59.1024756432" lon="30.029540062">
        <ele>0.0</ele>
        <time>2026-04-25T15:41:09.000Z</time>
    </trkpt>
    <trkpt lat="59.1024756432" lon="30.029540062">
        <ele>0.0</ele>
        <time>2026-04-25T15:41:12.000Z</time>
    </trkpt>
    <trkpt lat="59.1024756432" lon="30.029540062">
        <ele>0.0</ele>
        <time>2026-04-25T15:41:14.000Z</time>
    </trkpt>
    <trkpt lat="59.1024756432" lon="30.029540062">
        <ele>0.0</ele>
        <time>2026-04-25T15:41:17.000Z</time>
    </trkpt>
    <trkpt lat="59.1024756432" lon="30.029540062">
        <ele>0.0</ele>
        <time>2026-04-25T15:41:19.000Z</time>
    </trkpt>
    <trkpt lat="59.1024756432" lon="30.029540062">
        <ele>0.0</ele>
        <time>2026-04-25T15:41:22.000Z</time>
    </trkpt>
    <trkpt lat="59.1024756432" lon="30.029540062">
        <ele>0.0</ele>
        <time>2026-04-25T15:41:24.000Z</time>
    </trkpt>
    <trkpt lat="59.1024756432" lon="30.029540062">
        <ele>0.0</ele>
        <time>2026-04-25T15:41:27.000Z</time>
    </trkpt>
    <trkpt lat="59.1024756432" lon="30.029540062">
        <ele>0.0</ele>
        <time>2026-04-25T15:41:29.000Z</time>
    </trkpt>
    <trkpt lat="59.1024756432" lon="30.029540062">
        <ele>0.0</ele>
        <time>2026-04-25T15:41:32.000Z</time>
    </trkpt>
    <trkpt lat="59.1024756432" lon="30.029540062">
        <ele>0.0</ele>
        <time>2026-04-25T15:41:34.000Z</time>
    </trkpt>
    <trkpt lat="59.1024756432" lon="30.029540062">
        <ele>0.0</ele>
        <time>2026-04-25T15:41:39.000Z</time>
    </trkpt>
    <trkpt lat="59.1024756432" lon="30.029540062">
        <ele>0.0</ele>
        <time>2026-04-25T15:41:42.000Z</time>
    </trkpt>
    <trkpt lat="59.1024756432" lon="30.029540062">
        <ele>0.0</ele>
        <time>2026-04-25T15:41:44.000Z</time>
    </trkpt>
    <trkpt lat="59.1024756432" lon="30.029540062">
        <ele>0.0</ele>
        <time>2026-04-25T15:41:47.000Z</time>
    </trkpt>
    <trkpt lat="59.1024756432" lon="30.029540062">
        <ele>0.0</ele>
        <time>2026-04-25T15:41:49.000Z</time>
    </trkpt>
    <trkpt lat="59.1024756432" lon="30.029540062">
        <ele>0.0</ele>
        <time>2026-04-25T15:41:52.000Z</time>
    </trkpt>
    <trkpt lat="59.1024756432" lon="30.029540062">
        <ele>0.0</ele>
        <time>2026-04-25T15:41:54.000Z</time>
    </trkpt>
    <trkpt lat="59.1024756432" lon="30.029540062">
        <ele>0.0</ele>
        <time>2026-04-25T15:41:57.000Z</time>
    </trkpt>
    <trkpt lat="59.1024756432" lon="30.029540062">
        <ele>0.0</ele>
        <time>2026-04-25T15:41:59.000Z</time>
    </trkpt>
    <trkpt lat="59.1024756432" lon="30.029540062">
        <ele>0.0</ele>
        <time>2026-04-25T15:42:02.000Z</time>
    </trkpt>
    <trkpt lat="59.1024756432" lon="30.029540062">
        <ele>0.0</ele>
        <time>2026-04-25T15:42:04.000Z</time>
    </trkpt>
    <trkpt lat="59.1024756432" lon="30.029540062">
        <ele>0.0</ele>
        <time>2026-04-25T15:42:07.000Z</time>
    </trkpt>
    <trkpt lat="59.1024756432" lon="30.029540062">
        <ele>0.0</ele>
        <time>2026-04-25T15:42:09.000Z</time>
    </trkpt>
    <trkpt lat="59.1024756432" lon="30.029540062">
        <ele>0.0</ele>
        <time>2026-04-25T15:42:12.000Z</time>
    </trkpt>
    <trkpt lat="59.1024756432" lon="30.029540062">
        <ele>0.0</ele>
        <time>2026-04-25T15:42:14.000Z</time>
    </trkpt>
    <trkpt lat="59.1024756432" lon="30.029540062">
        <ele>0.0</ele>
        <time>2026-04-25T15:42:17.000Z</time>
    </trkpt>
    <trkpt lat="59.1024327278" lon="30.0294542313">
        <ele>0.0</ele>
        <time>2026-04-25T15:42:19.000Z</time>
    </trkpt>
    <trkpt lat="59.1024327278" lon="30.0294113159">
        <ele>0.0</ele>
        <time>2026-04-25T15:42:22.000Z</time>
    </trkpt>
    <trkpt lat="59.1024112701" lon="30.0293898582">
        <ele>0.0</ele>
        <time>2026-04-25T15:42:24.000Z</time>
    </trkpt>
    <trkpt lat="59.1024112701" lon="30.0293898582">
        <ele>0.0</ele>
        <time>2026-04-25T15:42:27.000Z</time>
    </trkpt>
    <trkpt lat="59.1024112701" lon="30.0293898582">
        <ele>0.0</ele>
        <time>2026-04-25T15:42:29.000Z</time>
    </trkpt>
    <trkpt lat="59.1024112701" lon="30.0293898582">
        <ele>0.0</ele>
        <time>2026-04-25T15:42:32.000Z</time>
    </trkpt>
    <trkpt lat="59.1024112701" lon="30.0293898582">
        <ele>0.0</ele>
        <time>2026-04-25T15:42:34.000Z</time>
    </trkpt>
    <trkpt lat="59.1024112701" lon="30.0293898582">
        <ele>0.0</ele>
        <time>2026-04-25T15:42:37.000Z</time>
    </trkpt>
    <trkpt lat="59.1024112701" lon="30.0293898582">
        <ele>0.0</ele>
        <time>2026-04-25T15:42:39.000Z</time>
    </trkpt>
    <trkpt lat="59.1024112701" lon="30.0293898582">
        <ele>0.0</ele>
        <time>2026-04-25T15:42:42.000Z</time>
    </trkpt>
    <trkpt lat="59.1023898125" lon="30.0293684006">
        <ele>0.0</ele>
        <time>2026-04-25T15:42:44.000Z</time>
    </trkpt>
    <trkpt lat="59.1023898125" lon="30.0293254852">
        <ele>0.0</ele>
        <time>2026-04-25T15:42:47.000Z</time>
    </trkpt>
    <trkpt lat="59.1023898125" lon="30.0293254852">
        <ele>0.0</ele>
        <time>2026-04-25T15:42:49.000Z</time>
    </trkpt>
    <trkpt lat="59.1023898125" lon="30.0293254852">
        <ele>0.0</ele>
        <time>2026-04-25T15:42:52.000Z</time>
    </trkpt>
    <trkpt lat="59.1023898125" lon="30.0293254852">
        <ele>0.0</ele>
        <time>2026-04-25T15:42:54.000Z</time>
    </trkpt>
    <trkpt lat="59.1023898125" lon="30.0293254852">
        <ele>0.0</ele>
        <time>2026-04-25T15:42:57.000Z</time>
    </trkpt>
    <trkpt lat="59.1023898125" lon="30.0292825699">
        <ele>0.0</ele>
        <time>2026-04-25T15:42:59.000Z</time>
    </trkpt>
    <trkpt lat="59.1024112701" lon="30.0292396545">
        <ele>0.0</ele>
        <time>2026-04-25T15:43:02.000Z</time>
    </trkpt>
    <trkpt lat="59.1024327278" lon="30.0291752815">
        <ele>0.0</ele>
        <time>2026-04-25T15:43:04.000Z</time>
    </trkpt>
    <trkpt lat="59.1024112701" lon="30.0291323662">
        <ele>0.0</ele>
        <time>2026-04-25T15:43:07.000Z</time>
    </trkpt>
    <trkpt lat="59.1024112701" lon="30.0290465355">
        <ele>0.0</ele>
        <time>2026-04-25T15:43:09.000Z</time>
    </trkpt>
    <trkpt lat="59.1024112701" lon="30.0290250778">
        <ele>0.0</ele>
        <time>2026-04-25T15:43:12.000Z</time>
    </trkpt>
    <trkpt lat="59.1024112701" lon="30.0290250778">
        <ele>0.0</ele>
        <time>2026-04-25T15:43:14.000Z</time>
    </trkpt>
    <trkpt lat="59.1024112701" lon="30.0290250778">
        <ele>0.0</ele>
        <time>2026-04-25T15:43:17.000Z</time>
    </trkpt>
    <trkpt lat="59.1024112701" lon="30.0290250778">
        <ele>0.0</ele>
        <time>2026-04-25T15:43:19.000Z</time>
    </trkpt>
    <trkpt lat="59.1024112701" lon="30.0290250778">
        <ele>0.0</ele>
        <time>2026-04-25T15:43:22.000Z</time>
    </trkpt>
    <trkpt lat="59.1023683548" lon="30.0289607048">
        <ele>0.0</ele>
        <time>2026-04-25T15:43:24.000Z</time>
    </trkpt>
    <trkpt lat="59.1023683548" lon="30.0289607048">
        <ele>0.0</ele>
        <time>2026-04-25T15:43:27.000Z</time>
    </trkpt>
    <trkpt lat="59.1023683548" lon="30.0289607048">
        <ele>0.0</ele>
        <time>2026-04-25T15:43:29.000Z</time>
    </trkpt>
    <trkpt lat="59.1023683548" lon="30.0289607048">
        <ele>0.0</ele>
        <time>2026-04-25T15:43:32.000Z</time>
    </trkpt>
    <trkpt lat="59.1023683548" lon="30.0289607048">
        <ele>0.0</ele>
        <time>2026-04-25T15:43:34.000Z</time>
    </trkpt>
    <trkpt lat="59.1023683548" lon="30.0289607048">
        <ele>0.0</ele>
        <time>2026-04-25T15:43:37.000Z</time>
    </trkpt>
    <trkpt lat="59.1023683548" lon="30.0289607048">
        <ele>0.0</ele>
        <time>2026-04-25T15:43:39.000Z</time>
    </trkpt>
    <trkpt lat="59.1023683548" lon="30.0289177895">
        <ele>0.0</ele>
        <time>2026-04-25T15:43:42.000Z</time>
    </trkpt>
    <trkpt lat="59.1023683548" lon="30.0288534164">
        <ele>0.0</ele>
        <time>2026-04-25T15:43:44.000Z</time>
    </trkpt>
    <trkpt lat="59.1023468971" lon="30.0288105011">
        <ele>0.0</ele>
        <time>2026-04-25T15:43:47.000Z</time>
    </trkpt>
    <trkpt lat="59.1023254395" lon="30.0287675858">
        <ele>0.0</ele>
        <time>2026-04-25T15:43:49.000Z</time>
    </trkpt>
    <trkpt lat="59.1023039818" lon="30.0287246704">
        <ele>0.0</ele>
        <time>2026-04-25T15:43:52.000Z</time>
    </trkpt>
    <trkpt lat="59.1022825241" lon="30.0286817551">
        <ele>0.0</ele>
        <time>2026-04-25T15:43:54.000Z</time>
    </trkpt>
    <trkpt lat="59.1022825241" lon="30.0286388397">
        <ele>0.0</ele>
        <time>2026-04-25T15:43:57.000Z</time>
    </trkpt>
    <trkpt lat="59.1022825241" lon="30.0286388397">
        <ele>0.0</ele>
        <time>2026-04-25T15:43:59.000Z</time>
    </trkpt>
    <trkpt lat="59.1022825241" lon="30.0286388397">
        <ele>0.0</ele>
        <time>2026-04-25T15:44:02.000Z</time>
    </trkpt>
    <trkpt lat="59.1022825241" lon="30.0285959244">
        <ele>0.0</ele>
        <time>2026-04-25T15:44:04.000Z</time>
    </trkpt>
    <trkpt lat="59.1022825241" lon="30.0285744667">
        <ele>0.0</ele>
        <time>2026-04-25T15:44:07.000Z</time>
    </trkpt>
    <trkpt lat="59.1022825241" lon="30.0285744667">
        <ele>0.0</ele>
        <time>2026-04-25T15:44:09.000Z</time>
    </trkpt>
    <trkpt lat="59.1022825241" lon="30.0285744667">
        <ele>0.0</ele>
        <time>2026-04-25T15:44:12.000Z</time>
    </trkpt>
    <trkpt lat="59.1022825241" lon="30.0285744667">
        <ele>0.0</ele>
        <time>2026-04-25T15:44:14.000Z</time>
    </trkpt>
    <trkpt lat="59.1022825241" lon="30.028553009">
        <ele>0.0</ele>
        <time>2026-04-25T15:44:17.000Z</time>
    </trkpt>
    <trkpt lat="59.1022825241" lon="30.0284457207">
        <ele>0.0</ele>
        <time>2026-04-25T15:44:19.000Z</time>
    </trkpt>
    <trkpt lat="59.1022825241" lon="30.0283813477">
        <ele>0.0</ele>
        <time>2026-04-25T15:44:22.000Z</time>
    </trkpt>
    <trkpt lat="59.1023039818" lon="30.02835989">
        <ele>0.0</ele>
        <time>2026-04-25T15:44:24.000Z</time>
    </trkpt>
    <trkpt lat="59.1023039818" lon="30.0283169746">
        <ele>0.0</ele>
        <time>2026-04-25T15:44:27.000Z</time>
    </trkpt>
    <trkpt lat="59.1023039818" lon="30.028295517">
        <ele>0.0</ele>
        <time>2026-04-25T15:44:29.000Z</time>
    </trkpt>
    <trkpt lat="59.1023039818" lon="30.028295517">
        <ele>0.0</ele>
        <time>2026-04-25T15:44:32.000Z</time>
    </trkpt>
    <trkpt lat="59.1023039818" lon="30.028295517">
        <ele>0.0</ele>
        <time>2026-04-25T15:44:34.000Z</time>
    </trkpt>
    <trkpt lat="59.1023039818" lon="30.028295517">
        <ele>0.0</ele>
        <time>2026-04-25T15:44:37.000Z</time>
    </trkpt>
    <trkpt lat="59.1023039818" lon="30.028295517">
        <ele>0.0</ele>
        <time>2026-04-25T15:44:39.000Z</time>
    </trkpt>
    <trkpt lat="59.1023039818" lon="30.028295517">
        <ele>0.0</ele>
        <time>2026-04-25T15:44:42.000Z</time>
    </trkpt>
    <trkpt lat="59.1023039818" lon="30.028295517">
        <ele>0.0</ele>
        <time>2026-04-25T15:44:44.000Z</time>
    </trkpt>
    <trkpt lat="59.1023039818" lon="30.0282740593">
        <ele>0.0</ele>
        <time>2026-04-25T15:44:47.000Z</time>
    </trkpt>
    <trkpt lat="59.1023254395" lon="30.028231144">
        <ele>0.0</ele>
        <time>2026-04-25T15:44:49.000Z</time>
    </trkpt>
    <trkpt lat="59.1023039818" lon="30.0282096863">
        <ele>0.0</ele>
        <time>2026-04-25T15:44:52.000Z</time>
    </trkpt>
    <trkpt lat="59.1023039818" lon="30.0282096863">
        <ele>0.0</ele>
        <time>2026-04-25T15:44:54.000Z</time>
    </trkpt>
    <trkpt lat="59.1023039818" lon="30.0282096863">
        <ele>0.0</ele>
        <time>2026-04-25T15:44:57.000Z</time>
    </trkpt>
    <trkpt lat="59.1023039818" lon="30.0282526016">
        <ele>0.0</ele>
        <time>2026-04-25T15:44:59.000Z</time>
    </trkpt>
    <trkpt lat="59.1023039818" lon="30.0282526016">
        <ele>0.0</ele>
        <time>2026-04-25T15:45:02.000Z</time>
    </trkpt>
    <trkpt lat="59.1023039818" lon="30.0282526016">
        <ele>0.0</ele>
        <time>2026-04-25T15:45:04.000Z</time>
    </trkpt>
    <trkpt lat="59.1023039818" lon="30.0282096863">
        <ele>0.0</ele>
        <time>2026-04-25T15:45:07.000Z</time>
    </trkpt>
    <trkpt lat="59.1023039818" lon="30.0281238556">
        <ele>0.0</ele>
        <time>2026-04-25T15:45:09.000Z</time>
    </trkpt>
    <trkpt lat="59.1023039818" lon="30.0281023979">
        <ele>0.0</ele>
        <time>2026-04-25T15:45:12.000Z</time>
    </trkpt>
    <trkpt lat="59.1023039818" lon="30.0280809402">
        <ele>0.0</ele>
        <time>2026-04-25T15:45:14.000Z</time>
    </trkpt>
    <trkpt lat="59.1022610664" lon="30.0280809402">
        <ele>0.0</ele>
        <time>2026-04-25T15:45:17.000Z</time>
    </trkpt>
    <trkpt lat="59.1022610664" lon="30.0281023979">
        <ele>0.0</ele>
        <time>2026-04-25T15:45:19.000Z</time>
    </trkpt>
    <trkpt lat="59.1022396088" lon="30.0281023979">
        <ele>0.0</ele>
        <time>2026-04-25T15:45:22.000Z</time>
    </trkpt>
    <trkpt lat="59.1022610664" lon="30.0280809402">
        <ele>0.0</ele>
        <time>2026-04-25T15:45:24.000Z</time>
    </trkpt>
    <trkpt lat="59.1022610664" lon="30.0280165672">
        <ele>0.0</ele>
        <time>2026-04-25T15:45:27.000Z</time>
    </trkpt>
    <trkpt lat="59.1022396088" lon="30.0279307365">
        <ele>0.0</ele>
        <time>2026-04-25T15:45:29.000Z</time>
    </trkpt>
    <trkpt lat="59.1022181511" lon="30.0278878212">
        <ele>0.0</ele>
        <time>2026-04-25T15:45:32.000Z</time>
    </trkpt>
    <trkpt lat="59.1022181511" lon="30.0278878212">
        <ele>0.0</ele>
        <time>2026-04-25T15:45:34.000Z</time>
    </trkpt>
    <trkpt lat="59.1022181511" lon="30.0278878212">
        <ele>0.0</ele>
        <time>2026-04-25T15:45:37.000Z</time>
    </trkpt>
    <trkpt lat="59.1022181511" lon="30.0278878212">
        <ele>0.0</ele>
        <time>2026-04-25T15:45:39.000Z</time>
    </trkpt>
    <trkpt lat="59.1021966934" lon="30.0278878212">
        <ele>0.0</ele>
        <time>2026-04-25T15:45:42.000Z</time>
    </trkpt>
    <trkpt lat="59.1021752357" lon="30.0279092789">
        <ele>0.0</ele>
        <time>2026-04-25T15:45:44.000Z</time>
    </trkpt>
    <trkpt lat="59.1021752357" lon="30.0279092789">
        <ele>0.0</ele>
        <time>2026-04-25T15:45:47.000Z</time>
    </trkpt>
    <trkpt lat="59.1021752357" lon="30.0278878212">
        <ele>0.0</ele>
        <time>2026-04-25T15:45:49.000Z</time>
    </trkpt>
    <trkpt lat="59.1021537781" lon="30.0278449059">
        <ele>0.0</ele>
        <time>2026-04-25T15:45:52.000Z</time>
    </trkpt>
    <trkpt lat="59.1021537781" lon="30.0278449059">
        <ele>0.0</ele>
        <time>2026-04-25T15:45:54.000Z</time>
    </trkpt>
    <trkpt lat="59.1021537781" lon="30.0278449059">
        <ele>0.0</ele>
        <time>2026-04-25T15:45:57.000Z</time>
    </trkpt>
    <trkpt lat="59.1021108627" lon="30.0278449059">
        <ele>0.0</ele>
        <time>2026-04-25T15:45:59.000Z</time>
    </trkpt>
    <trkpt lat="59.1020679474" lon="30.0278449059">
        <ele>0.0</ele>
        <time>2026-04-25T15:46:02.000Z</time>
    </trkpt>
    <trkpt lat="59.1020679474" lon="30.0278019905">
        <ele>0.0</ele>
        <time>2026-04-25T15:46:04.000Z</time>
    </trkpt>
    <trkpt lat="59.1020894051" lon="30.0278019905">
        <ele>0.0</ele>
        <time>2026-04-25T15:46:07.000Z</time>
    </trkpt>
    <trkpt lat="59.1021108627" lon="30.0277590752">
        <ele>0.0</ele>
        <time>2026-04-25T15:46:09.000Z</time>
    </trkpt>
    <trkpt lat="59.1021108627" lon="30.0276947021">
        <ele>0.0</ele>
        <time>2026-04-25T15:46:12.000Z</time>
    </trkpt>
    <trkpt lat="59.1021537781" lon="30.0276732445">
        <ele>0.0</ele>
        <time>2026-04-25T15:46:14.000Z</time>
    </trkpt>
    <trkpt lat="59.1021752357" lon="30.0276947021">
        <ele>0.0</ele>
        <time>2026-04-25T15:46:17.000Z</time>
    </trkpt>
    <trkpt lat="59.1021752357" lon="30.0276947021">
        <ele>0.0</ele>
        <time>2026-04-25T15:46:19.000Z</time>
    </trkpt>
    <trkpt lat="59.1021752357" lon="30.0276947021">
        <ele>0.0</ele>
        <time>2026-04-25T15:46:22.000Z</time>
    </trkpt>
    <trkpt lat="59.1021752357" lon="30.0276947021">
        <ele>0.0</ele>
        <time>2026-04-25T15:46:24.000Z</time>
    </trkpt>
    <trkpt lat="59.1021752357" lon="30.0276947021">
        <ele>0.0</ele>
        <time>2026-04-25T15:46:27.000Z</time>
    </trkpt>
    <trkpt lat="59.1021752357" lon="30.0277161598">
        <ele>0.0</ele>
        <time>2026-04-25T15:46:29.000Z</time>
    </trkpt>
    <trkpt lat="59.1021752357" lon="30.0277376175">
        <ele>0.0</ele>
        <time>2026-04-25T15:46:32.000Z</time>
    </trkpt>
    <trkpt lat="59.1021752357" lon="30.0277376175">
        <ele>0.0</ele>
        <time>2026-04-25T15:46:34.000Z</time>
    </trkpt>
    <trkpt lat="59.1021537781" lon="30.0276947021">
        <ele>0.0</ele>
        <time>2026-04-25T15:46:37.000Z</time>
    </trkpt>
    <trkpt lat="59.1021537781" lon="30.0276732445">
        <ele>0.0</ele>
        <time>2026-04-25T15:46:39.000Z</time>
    </trkpt>
    <trkpt lat="59.1021323204" lon="30.0276303291">
        <ele>0.0</ele>
        <time>2026-04-25T15:46:42.000Z</time>
    </trkpt>
    <trkpt lat="59.1021323204" lon="30.0276088715">
        <ele>0.0</ele>
        <time>2026-04-25T15:46:44.000Z</time>
    </trkpt>
    <trkpt lat="59.1021323204" lon="30.0275659561">
        <ele>0.0</ele>
        <time>2026-04-25T15:46:47.000Z</time>
    </trkpt>
    <trkpt lat="59.1021323204" lon="30.0274801254">
        <ele>0.0</ele>
        <time>2026-04-25T15:46:49.000Z</time>
    </trkpt>
    <trkpt lat="59.1021323204" lon="30.0274586678">
        <ele>0.0</ele>
        <time>2026-04-25T15:46:52.000Z</time>
    </trkpt>
    <trkpt lat="59.1020894051" lon="30.0274157524">
        <ele>0.0</ele>
        <time>2026-04-25T15:46:54.000Z</time>
    </trkpt>
    <trkpt lat="59.1020894051" lon="30.0273942947">
        <ele>0.0</ele>
        <time>2026-04-25T15:46:57.000Z</time>
    </trkpt>
    <trkpt lat="59.1020679474" lon="30.0273728371">
        <ele>0.0</ele>
        <time>2026-04-25T15:46:59.000Z</time>
    </trkpt>
    <trkpt lat="59.1020679474" lon="30.0273728371">
        <ele>0.0</ele>
        <time>2026-04-25T15:47:02.000Z</time>
    </trkpt>
    <trkpt lat="59.1020679474" lon="30.0273728371">
        <ele>0.0</ele>
        <time>2026-04-25T15:47:04.000Z</time>
    </trkpt>
    <trkpt lat="59.1020679474" lon="30.0273513794">
        <ele>0.0</ele>
        <time>2026-04-25T15:47:07.000Z</time>
    </trkpt>
    <trkpt lat="59.1020894051" lon="30.0272870064">
        <ele>0.0</ele>
        <time>2026-04-25T15:47:09.000Z</time>
    </trkpt>
    <trkpt lat="59.1020894051" lon="30.0272655487">
        <ele>0.0</ele>
        <time>2026-04-25T15:47:12.000Z</time>
    </trkpt>
    <trkpt lat="59.1021108627" lon="30.0272011757">
        <ele>0.0</ele>
        <time>2026-04-25T15:47:14.000Z</time>
    </trkpt>
    <trkpt lat="59.1021108627" lon="30.0272011757">
        <ele>0.0</ele>
        <time>2026-04-25T15:47:17.000Z</time>
    </trkpt>
    <trkpt lat="59.1021108627" lon="30.0272011757">
        <ele>0.0</ele>
        <time>2026-04-25T15:47:19.000Z</time>
    </trkpt>
    <trkpt lat="59.1021108627" lon="30.0272011757">
        <ele>0.0</ele>
        <time>2026-04-25T15:47:22.000Z</time>
    </trkpt>
    <trkpt lat="59.1021108627" lon="30.0271368027">
        <ele>0.0</ele>
        <time>2026-04-25T15:47:24.000Z</time>
    </trkpt>
    <trkpt lat="59.1021108627" lon="30.0270938873">
        <ele>0.0</ele>
        <time>2026-04-25T15:47:27.000Z</time>
    </trkpt>
    <trkpt lat="59.1020894051" lon="30.0270724297">
        <ele>0.0</ele>
        <time>2026-04-25T15:47:29.000Z</time>
    </trkpt>
    <trkpt lat="59.1020894051" lon="30.0270724297">
        <ele>0.0</ele>
        <time>2026-04-25T15:47:32.000Z</time>
    </trkpt>
    <trkpt lat="59.1020894051" lon="30.027050972">
        <ele>0.0</ele>
        <time>2026-04-25T15:47:34.000Z</time>
    </trkpt>
    <trkpt lat="59.1020679474" lon="30.027050972">
        <ele>0.0</ele>
        <time>2026-04-25T15:47:37.000Z</time>
    </trkpt>
    <trkpt lat="59.1020464897" lon="30.0270295143">
        <ele>0.0</ele>
        <time>2026-04-25T15:47:39.000Z</time>
    </trkpt>
    <trkpt lat="59.1020464897" lon="30.0270080566">
        <ele>0.0</ele>
        <time>2026-04-25T15:47:42.000Z</time>
    </trkpt>
    <trkpt lat="59.102025032" lon="30.0269436836">
        <ele>0.0</ele>
        <time>2026-04-25T15:47:44.000Z</time>
    </trkpt>
    <trkpt lat="59.1020035744" lon="30.026922226">
        <ele>0.0</ele>
        <time>2026-04-25T15:47:47.000Z</time>
    </trkpt>
    <trkpt lat="59.101960659" lon="30.0268363953">
        <ele>0.0</ele>
        <time>2026-04-25T15:47:49.000Z</time>
    </trkpt>
    <trkpt lat="59.1019392014" lon="30.0268363953">
        <ele>0.0</ele>
        <time>2026-04-25T15:47:52.000Z</time>
    </trkpt>
    <trkpt lat="59.1019177437" lon="30.0268149376">
        <ele>0.0</ele>
        <time>2026-04-25T15:47:54.000Z</time>
    </trkpt>
    <trkpt lat="59.1018748283" lon="30.0267934799">
        <ele>0.0</ele>
        <time>2026-04-25T15:47:57.000Z</time>
    </trkpt>
    <trkpt lat="59.101831913" lon="30.0267720222">
        <ele>0.0</ele>
        <time>2026-04-25T15:47:59.000Z</time>
    </trkpt>
    <trkpt lat="59.1018104553" lon="30.0267720222">
        <ele>0.0</ele>
        <time>2026-04-25T15:48:02.000Z</time>
    </trkpt>
    <trkpt lat="59.1017889977" lon="30.0267505646">
        <ele>0.0</ele>
        <time>2026-04-25T15:48:04.000Z</time>
    </trkpt>
    <trkpt lat="59.1017889977" lon="30.0267505646">
        <ele>0.0</ele>
        <time>2026-04-25T15:48:07.000Z</time>
    </trkpt>
    <trkpt lat="59.1017889977" lon="30.0267505646">
        <ele>0.0</ele>
        <time>2026-04-25T15:48:09.000Z</time>
    </trkpt>
    <trkpt lat="59.1017889977" lon="30.0267720222">
        <ele>0.0</ele>
        <time>2026-04-25T15:48:12.000Z</time>
    </trkpt>
    <trkpt lat="59.101831913" lon="30.0267934799">
        <ele>0.0</ele>
        <time>2026-04-25T15:48:14.000Z</time>
    </trkpt>
    <trkpt lat="59.1018748283" lon="30.0267934799">
        <ele>0.0</ele>
        <time>2026-04-25T15:48:17.000Z</time>
    </trkpt>
    <trkpt lat="59.1019177437" lon="30.0268363953">
        <ele>0.0</ele>
        <time>2026-04-25T15:48:19.000Z</time>
    </trkpt>
    <trkpt lat="59.1019177437" lon="30.0268363953">
        <ele>0.0</ele>
        <time>2026-04-25T15:48:22.000Z</time>
    </trkpt>
    <trkpt lat="59.1019177437" lon="30.0268363953">
        <ele>0.0</ele>
        <time>2026-04-25T15:48:24.000Z</time>
    </trkpt>
    <trkpt lat="59.1019177437" lon="30.0268363953">
        <ele>0.0</ele>
        <time>2026-04-25T15:48:27.000Z</time>
    </trkpt>
    <trkpt lat="59.1019177437" lon="30.0268363953">
        <ele>0.0</ele>
        <time>2026-04-25T15:48:29.000Z</time>
    </trkpt>
    <trkpt lat="59.1019177437" lon="30.0268363953">
        <ele>0.0</ele>
        <time>2026-04-25T15:48:32.000Z</time>
    </trkpt>
    <trkpt lat="59.1019177437" lon="30.0268363953">
        <ele>0.0</ele>
        <time>2026-04-25T15:48:37.000Z</time>
    </trkpt>
    <trkpt lat="59.1019177437" lon="30.0268363953">
        <ele>0.0</ele>
        <time>2026-04-25T15:48:39.000Z</time>
    </trkpt>
    <trkpt lat="59.1019177437" lon="30.0268363953">
        <ele>0.0</ele>
        <time>2026-04-25T15:48:42.000Z</time>
    </trkpt>
    <trkpt lat="59.1019177437" lon="30.0268363953">
        <ele>0.0</ele>
        <time>2026-04-25T15:48:44.000Z</time>
    </trkpt>
    <trkpt lat="59.1019177437" lon="30.0268363953">
        <ele>0.0</ele>
        <time>2026-04-25T15:48:47.000Z</time>
    </trkpt>
    <trkpt lat="59.1019177437" lon="30.0268363953">
        <ele>0.0</ele>
        <time>2026-04-25T15:48:49.000Z</time>
    </trkpt>
    <trkpt lat="59.1019177437" lon="30.0268363953">
        <ele>0.0</ele>
        <time>2026-04-25T15:48:52.000Z</time>
    </trkpt>
    <trkpt lat="59.1019177437" lon="30.0268363953">
        <ele>0.0</ele>
        <time>2026-04-25T15:48:54.000Z</time>
    </trkpt>
    <trkpt lat="59.1019177437" lon="30.0268363953">
        <ele>0.0</ele>
        <time>2026-04-25T15:48:57.000Z</time>
    </trkpt>
    <trkpt lat="59.1019177437" lon="30.0268363953">
        <ele>0.0</ele>
        <time>2026-04-25T15:48:59.000Z</time>
    </trkpt>
    <trkpt lat="59.1019392014" lon="30.0268363953">
        <ele>0.0</ele>
        <time>2026-04-25T15:49:02.000Z</time>
    </trkpt>
    <trkpt lat="59.1019177437" lon="30.0268149376">
        <ele>0.0</ele>
        <time>2026-04-25T15:49:04.000Z</time>
    </trkpt>
    <trkpt lat="59.1019177437" lon="30.0267934799">
        <ele>0.0</ele>
        <time>2026-04-25T15:49:07.000Z</time>
    </trkpt>
    <trkpt lat="59.1019177437" lon="30.0267934799">
        <ele>0.0</ele>
        <time>2026-04-25T15:49:09.000Z</time>
    </trkpt>
    <trkpt lat="59.1019177437" lon="30.0267934799">
        <ele>0.0</ele>
        <time>2026-04-25T15:49:12.000Z</time>
    </trkpt>
    <trkpt lat="59.1019177437" lon="30.0267934799">
        <ele>0.0</ele>
        <time>2026-04-25T15:49:14.000Z</time>
    </trkpt>
    <trkpt lat="59.1019177437" lon="30.0267934799">
        <ele>0.0</ele>
        <time>2026-04-25T15:49:17.000Z</time>
    </trkpt>
    <trkpt lat="59.1019177437" lon="30.0267934799">
        <ele>0.0</ele>
        <time>2026-04-25T15:49:19.000Z</time>
    </trkpt>
    <trkpt lat="59.1019177437" lon="30.0267934799">
        <ele>0.0</ele>
        <time>2026-04-25T15:49:22.000Z</time>
    </trkpt>
    <trkpt lat="59.1019177437" lon="30.0267934799">
        <ele>0.0</ele>
        <time>2026-04-25T15:49:24.000Z</time>
    </trkpt>
    <trkpt lat="59.1019177437" lon="30.0267934799">
        <ele>0.0</ele>
        <time>2026-04-25T15:49:27.000Z</time>
    </trkpt>
    <trkpt lat="59.1019177437" lon="30.0267934799">
        <ele>0.0</ele>
        <time>2026-04-25T15:49:29.000Z</time>
    </trkpt>
    <trkpt lat="59.1019177437" lon="30.0267934799">
        <ele>0.0</ele>
        <time>2026-04-25T15:49:32.000Z</time>
    </trkpt>
    <trkpt lat="59.1019177437" lon="30.0267934799">
        <ele>0.0</ele>
        <time>2026-04-25T15:49:34.000Z</time>
    </trkpt>
    <trkpt lat="59.1019177437" lon="30.0267934799">
        <ele>0.0</ele>
        <time>2026-04-25T15:49:37.000Z</time>
    </trkpt>
    <trkpt lat="59.1019177437" lon="30.0267934799">
        <ele>0.0</ele>
        <time>2026-04-25T15:49:39.000Z</time>
    </trkpt>
    <trkpt lat="59.1019177437" lon="30.0267934799">
        <ele>0.0</ele>
        <time>2026-04-25T15:49:42.000Z</time>
    </trkpt>
    <trkpt lat="59.1019177437" lon="30.0267934799">
        <ele>0.0</ele>
        <time>2026-04-25T15:49:44.000Z</time>
    </trkpt>
    <trkpt lat="59.1019177437" lon="30.0267934799">
        <ele>0.0</ele>
        <time>2026-04-25T15:49:47.000Z</time>
    </trkpt>
    <trkpt lat="59.1019177437" lon="30.0267934799">
        <ele>0.0</ele>
        <time>2026-04-25T15:49:49.000Z</time>
    </trkpt>
    <trkpt lat="59.1019177437" lon="30.0267934799">
        <ele>0.0</ele>
        <time>2026-04-25T15:49:52.000Z</time>
    </trkpt>
    <trkpt lat="59.1019177437" lon="30.0267934799">
        <ele>0.0</ele>
        <time>2026-04-25T15:49:54.000Z</time>
    </trkpt>
    <trkpt lat="59.1019177437" lon="30.0267934799">
        <ele>0.0</ele>
        <time>2026-04-25T15:49:57.000Z</time>
    </trkpt>
    <trkpt lat="59.1019177437" lon="30.0267934799">
        <ele>0.0</ele>
        <time>2026-04-25T15:49:59.000Z</time>
    </trkpt>
    <trkpt lat="59.1019177437" lon="30.0267934799">
        <ele>0.0</ele>
        <time>2026-04-25T15:50:02.000Z</time>
    </trkpt>
    <trkpt lat="59.1019177437" lon="30.0267934799">
        <ele>0.0</ele>
        <time>2026-04-25T15:50:04.000Z</time>
    </trkpt>
    <trkpt lat="59.1019177437" lon="30.0267934799">
        <ele>0.0</ele>
        <time>2026-04-25T15:50:07.000Z</time>
    </trkpt>
    <trkpt lat="59.1019177437" lon="30.0267934799">
        <ele>0.0</ele>
        <time>2026-04-25T15:50:09.000Z</time>
    </trkpt>
    <trkpt lat="59.1019177437" lon="30.0267934799">
        <ele>0.0</ele>
        <time>2026-04-25T15:50:12.000Z</time>
    </trkpt>
    <trkpt lat="59.1019177437" lon="30.0267934799">
        <ele>0.0</ele>
        <time>2026-04-25T15:50:14.000Z</time>
    </trkpt>
    <trkpt lat="59.1019177437" lon="30.0267934799">
        <ele>0.0</ele>
        <time>2026-04-25T15:50:17.000Z</time>
    </trkpt>
    <trkpt lat="59.1019177437" lon="30.0267934799">
        <ele>0.0</ele>
        <time>2026-04-25T15:50:19.000Z</time>
    </trkpt>
    <trkpt lat="59.1019177437" lon="30.0267934799">
        <ele>0.0</ele>
        <time>2026-04-25T15:50:22.000Z</time>
    </trkpt>
    <trkpt lat="59.1019177437" lon="30.0267934799">
        <ele>0.0</ele>
        <time>2026-04-25T15:50:24.000Z</time>
    </trkpt>
    <trkpt lat="59.1019177437" lon="30.0267934799">
        <ele>0.0</ele>
        <time>2026-04-25T15:50:27.000Z</time>
    </trkpt>
    <trkpt lat="59.1019177437" lon="30.0267934799">
        <ele>0.0</ele>
        <time>2026-04-25T15:50:29.000Z</time>
    </trkpt>
    <trkpt lat="59.1019177437" lon="30.0267934799">
        <ele>0.0</ele>
        <time>2026-04-25T15:50:32.000Z</time>
    </trkpt>
    <trkpt lat="59.1019177437" lon="30.0267934799">
        <ele>0.0</ele>
        <time>2026-04-25T15:50:34.000Z</time>
    </trkpt>
    <trkpt lat="59.1019177437" lon="30.0267934799">
        <ele>0.0</ele>
        <time>2026-04-25T15:50:37.000Z</time>
    </trkpt>
    <trkpt lat="59.1019177437" lon="30.0267934799">
        <ele>0.0</ele>
        <time>2026-04-25T15:50:39.000Z</time>
    </trkpt>
    <trkpt lat="59.1019177437" lon="30.0267934799">
        <ele>0.0</ele>
        <time>2026-04-25T15:50:42.000Z</time>
    </trkpt>
    <trkpt lat="59.1019177437" lon="30.0267934799">
        <ele>0.0</ele>
        <time>2026-04-25T15:50:44.000Z</time>
    </trkpt>
    <trkpt lat="59.1019177437" lon="30.0267934799">
        <ele>0.0</ele>
        <time>2026-04-25T15:50:47.000Z</time>
    </trkpt>
    <trkpt lat="59.1019177437" lon="30.0267934799">
        <ele>0.0</ele>
        <time>2026-04-25T15:50:49.000Z</time>
    </trkpt>
    <trkpt lat="59.1019177437" lon="30.0267934799">
        <ele>0.0</ele>
        <time>2026-04-25T15:50:52.000Z</time>
    </trkpt>
    <trkpt lat="59.1019177437" lon="30.0267934799">
        <ele>0.0</ele>
        <time>2026-04-25T15:50:54.000Z</time>
    </trkpt>
    <trkpt lat="59.1019177437" lon="30.0267934799">
        <ele>0.0</ele>
        <time>2026-04-25T15:50:57.000Z</time>
    </trkpt>
    <trkpt lat="59.1019177437" lon="30.0267934799">
        <ele>0.0</ele>
        <time>2026-04-25T15:50:59.000Z</time>
    </trkpt>
    <trkpt lat="59.1019177437" lon="30.0267934799">
        <ele>0.0</ele>
        <time>2026-04-25T15:51:02.000Z</time>
    </trkpt>
    <trkpt lat="59.1019177437" lon="30.0267934799">
        <ele>0.0</ele>
        <time>2026-04-25T15:51:04.000Z</time>
    </trkpt>
    <trkpt lat="59.1019177437" lon="30.0267934799">
        <ele>0.0</ele>
        <time>2026-04-25T15:51:07.000Z</time>
    </trkpt>
    <trkpt lat="59.1019177437" lon="30.0267934799">
        <ele>0.0</ele>
        <time>2026-04-25T15:51:09.000Z</time>
    </trkpt>
    <trkpt lat="59.1019177437" lon="30.0267934799">
        <ele>0.0</ele>
        <time>2026-04-25T15:51:12.000Z</time>
    </trkpt>
    <trkpt lat="59.1019177437" lon="30.0267934799">
        <ele>0.0</ele>
        <time>2026-04-25T15:51:14.000Z</time>
    </trkpt>
    <trkpt lat="59.1019177437" lon="30.0267934799">
        <ele>0.0</ele>
        <time>2026-04-25T15:51:17.000Z</time>
    </trkpt>
    <trkpt lat="59.1019177437" lon="30.0267934799">
        <ele>0.0</ele>
        <time>2026-04-25T15:51:19.000Z</time>
    </trkpt>
    <trkpt lat="59.1019177437" lon="30.0267934799">
        <ele>0.0</ele>
        <time>2026-04-25T15:51:22.000Z</time>
    </trkpt>
    <trkpt lat="59.1019177437" lon="30.0267934799">
        <ele>0.0</ele>
        <time>2026-04-25T15:51:24.000Z</time>
    </trkpt>
    <trkpt lat="59.1019177437" lon="30.0267934799">
        <ele>0.0</ele>
        <time>2026-04-25T15:51:27.000Z</time>
    </trkpt>
    <trkpt lat="59.1019177437" lon="30.0267934799">
        <ele>0.0</ele>
        <time>2026-04-25T15:51:29.000Z</time>
    </trkpt>
    <trkpt lat="59.1019177437" lon="30.0267934799">
        <ele>0.0</ele>
        <time>2026-04-25T15:51:32.000Z</time>
    </trkpt>
    <trkpt lat="59.1019177437" lon="30.0267934799">
        <ele>0.0</ele>
        <time>2026-04-25T15:51:34.000Z</time>
    </trkpt>
    <trkpt lat="59.1019177437" lon="30.0267934799">
        <ele>0.0</ele>
        <time>2026-04-25T15:51:37.000Z</time>
    </trkpt>
    <trkpt lat="59.1019177437" lon="30.0267934799">
        <ele>0.0</ele>
        <time>2026-04-25T15:51:39.000Z</time>
    </trkpt>
    <trkpt lat="59.1019392014" lon="30.0267934799">
        <ele>0.0</ele>
        <time>2026-04-25T15:51:42.000Z</time>
    </trkpt>
    <trkpt lat="59.1019392014" lon="30.0267934799">
        <ele>0.0</ele>
        <time>2026-04-25T15:51:44.000Z</time>
    </trkpt>
    <trkpt lat="59.1019392014" lon="30.0267934799">
        <ele>0.0</ele>
        <time>2026-04-25T15:51:47.000Z</time>
    </trkpt>
    <trkpt lat="59.1019392014" lon="30.0267934799">
        <ele>0.0</ele>
        <time>2026-04-25T15:51:49.000Z</time>
    </trkpt>
    <trkpt lat="59.1019392014" lon="30.0267934799">
        <ele>0.0</ele>
        <time>2026-04-25T15:51:52.000Z</time>
    </trkpt>
    <trkpt lat="59.1019392014" lon="30.0267934799">
        <ele>0.0</ele>
        <time>2026-04-25T15:51:54.000Z</time>
    </trkpt>
    <trkpt lat="59.1019392014" lon="30.0267934799">
        <ele>0.0</ele>
        <time>2026-04-25T15:51:57.000Z</time>
    </trkpt>
    <trkpt lat="59.1019392014" lon="30.0267934799">
        <ele>0.0</ele>
        <time>2026-04-25T15:51:59.000Z</time>
    </trkpt>
    <trkpt lat="59.1019392014" lon="30.0267934799">
        <ele>0.0</ele>
        <time>2026-04-25T15:52:02.000Z</time>
    </trkpt>
    <trkpt lat="59.1019392014" lon="30.0267934799">
        <ele>0.0</ele>
        <time>2026-04-25T15:52:04.000Z</time>
    </trkpt>
    <trkpt lat="59.1019392014" lon="30.0267934799">
        <ele>0.0</ele>
        <time>2026-04-25T15:52:07.000Z</time>
    </trkpt>
    <trkpt lat="59.1019392014" lon="30.0267934799">
        <ele>0.0</ele>
        <time>2026-04-25T15:52:09.000Z</time>
    </trkpt>
    <trkpt lat="59.1019392014" lon="30.0267934799">
        <ele>0.0</ele>
        <time>2026-04-25T15:52:12.000Z</time>
    </trkpt>
    <trkpt lat="59.1019392014" lon="30.0267934799">
        <ele>0.0</ele>
        <time>2026-04-25T15:52:14.000Z</time>
    </trkpt>
    <trkpt lat="59.1019177437" lon="30.0267720222">
        <ele>0.0</ele>
        <time>2026-04-25T15:52:17.000Z</time>
    </trkpt>
    <trkpt lat="59.1019177437" lon="30.0267720222">
        <ele>0.0</ele>
        <time>2026-04-25T15:52:19.000Z</time>
    </trkpt>
    <trkpt lat="59.1019177437" lon="30.0267934799">
        <ele>0.0</ele>
        <time>2026-04-25T15:52:22.000Z</time>
    </trkpt>
    <trkpt lat="59.1019177437" lon="30.0268578529">
        <ele>0.0</ele>
        <time>2026-04-25T15:52:24.000Z</time>
    </trkpt>
    <trkpt lat="59.1019177437" lon="30.0268578529">
        <ele>0.0</ele>
        <time>2026-04-25T15:52:27.000Z</time>
    </trkpt>
    <trkpt lat="59.1019392014" lon="30.0268578529">
        <ele>0.0</ele>
        <time>2026-04-25T15:52:29.000Z</time>
    </trkpt>
    <trkpt lat="59.1019392014" lon="30.0268578529">
        <ele>0.0</ele>
        <time>2026-04-25T15:52:32.000Z</time>
    </trkpt>
    <trkpt lat="59.1019392014" lon="30.0268578529">
        <ele>0.0</ele>
        <time>2026-04-25T15:52:34.000Z</time>
    </trkpt>
    <trkpt lat="59.1019392014" lon="30.0268578529">
        <ele>0.0</ele>
        <time>2026-04-25T15:52:37.000Z</time>
    </trkpt>
    <trkpt lat="59.1019392014" lon="30.0268578529">
        <ele>0.0</ele>
        <time>2026-04-25T15:52:39.000Z</time>
    </trkpt>
    <trkpt lat="59.1019392014" lon="30.0268578529">
        <ele>0.0</ele>
        <time>2026-04-25T15:52:42.000Z</time>
    </trkpt>
    <trkpt lat="59.1019392014" lon="30.0268363953">
        <ele>0.0</ele>
        <time>2026-04-25T15:52:44.000Z</time>
    </trkpt>
    <trkpt lat="59.1019392014" lon="30.0268363953">
        <ele>0.0</ele>
        <time>2026-04-25T15:52:47.000Z</time>
    </trkpt>
    <trkpt lat="59.1019392014" lon="30.0268363953">
        <ele>0.0</ele>
        <time>2026-04-25T15:52:49.000Z</time>
    </trkpt>
    <trkpt lat="59.1019392014" lon="30.0268578529">
        <ele>0.0</ele>
        <time>2026-04-25T15:52:52.000Z</time>
    </trkpt>
    <trkpt lat="59.1019392014" lon="30.0268578529">
        <ele>0.0</ele>
        <time>2026-04-25T15:52:54.000Z</time>
    </trkpt>
    <trkpt lat="59.1019392014" lon="30.0268578529">
        <ele>0.0</ele>
        <time>2026-04-25T15:52:57.000Z</time>
    </trkpt>
    <trkpt lat="59.1019392014" lon="30.0268578529">
        <ele>0.0</ele>
        <time>2026-04-25T15:52:59.000Z</time>
    </trkpt>
    <trkpt lat="59.1019392014" lon="30.0268578529">
        <ele>0.0</ele>
        <time>2026-04-25T15:53:02.000Z</time>
    </trkpt>
    <trkpt lat="59.1019392014" lon="30.0268578529">
        <ele>0.0</ele>
        <time>2026-04-25T15:53:04.000Z</time>
    </trkpt>
    <trkpt lat="59.1019392014" lon="30.0268578529">
        <ele>0.0</ele>
        <time>2026-04-25T15:53:07.000Z</time>
    </trkpt>
    <trkpt lat="59.1019392014" lon="30.0268578529">
        <ele>0.0</ele>
        <time>2026-04-25T15:53:09.000Z</time>
    </trkpt>
    <trkpt lat="59.1019392014" lon="30.0268578529">
        <ele>0.0</ele>
        <time>2026-04-25T15:53:12.000Z</time>
    </trkpt>
    <trkpt lat="59.1019392014" lon="30.0268578529">
        <ele>0.0</ele>
        <time>2026-04-25T15:53:14.000Z</time>
    </trkpt>
    <trkpt lat="59.1019392014" lon="30.0268578529">
        <ele>0.0</ele>
        <time>2026-04-25T15:53:17.000Z</time>
    </trkpt>
    <trkpt lat="59.1019392014" lon="30.0268578529">
        <ele>0.0</ele>
        <time>2026-04-25T15:53:19.000Z</time>
    </trkpt>
    <trkpt lat="59.1019392014" lon="30.0268578529">
        <ele>0.0</ele>
        <time>2026-04-25T15:53:22.000Z</time>
    </trkpt>
    <trkpt lat="59.1019392014" lon="30.0268578529">
        <ele>0.0</ele>
        <time>2026-04-25T15:53:24.000Z</time>
    </trkpt>
    <trkpt lat="59.1019392014" lon="30.0268578529">
        <ele>0.0</ele>
        <time>2026-04-25T15:53:27.000Z</time>
    </trkpt>
    <trkpt lat="59.1019392014" lon="30.0268578529">
        <ele>0.0</ele>
        <time>2026-04-25T15:53:29.000Z</time>
    </trkpt>
    <trkpt lat="59.1019392014" lon="30.0268578529">
        <ele>0.0</ele>
        <time>2026-04-25T15:53:32.000Z</time>
    </trkpt>
    <trkpt lat="59.1019392014" lon="30.0268578529">
        <ele>0.0</ele>
        <time>2026-04-25T15:53:34.000Z</time>
    </trkpt>
    <trkpt lat="59.1019392014" lon="30.0268578529">
        <ele>0.0</ele>
        <time>2026-04-25T15:53:37.000Z</time>
    </trkpt>
    <trkpt lat="59.1019392014" lon="30.0268578529">
        <ele>0.0</ele>
        <time>2026-04-25T15:53:39.000Z</time>
    </trkpt>
    <trkpt lat="59.1019392014" lon="30.0268578529">
        <ele>0.0</ele>
        <time>2026-04-25T15:53:42.000Z</time>
    </trkpt>
    <trkpt lat="59.1019392014" lon="30.0268578529">
        <ele>0.0</ele>
        <time>2026-04-25T15:53:44.000Z</time>
    </trkpt>
    <trkpt lat="59.1019392014" lon="30.0268578529">
        <ele>0.0</ele>
        <time>2026-04-25T15:53:47.000Z</time>
    </trkpt>
    <trkpt lat="59.1019392014" lon="30.0268578529">
        <ele>0.0</ele>
        <time>2026-04-25T15:53:49.000Z</time>
    </trkpt>
    <trkpt lat="59.1019392014" lon="30.0268578529">
        <ele>0.0</ele>
        <time>2026-04-25T15:53:52.000Z</time>
    </trkpt>
    <trkpt lat="59.1019392014" lon="30.0268578529">
        <ele>0.0</ele>
        <time>2026-04-25T15:53:54.000Z</time>
    </trkpt>
    <trkpt lat="59.101960659" lon="30.0268578529">
        <ele>0.0</ele>
        <time>2026-04-25T15:53:57.000Z</time>
    </trkpt>
    <trkpt lat="59.101960659" lon="30.0268578529">
        <ele>0.0</ele>
        <time>2026-04-25T15:53:59.000Z</time>
    </trkpt>
    <trkpt lat="59.101960659" lon="30.0268578529">
        <ele>0.0</ele>
        <time>2026-04-25T15:54:02.000Z</time>
    </trkpt>
    <trkpt lat="59.101960659" lon="30.0268578529">
        <ele>0.0</ele>
        <time>2026-04-25T15:54:04.000Z</time>
    </trkpt>
    <trkpt lat="59.101960659" lon="30.0268578529">
        <ele>0.0</ele>
        <time>2026-04-25T15:54:07.000Z</time>
    </trkpt>
    <trkpt lat="59.101960659" lon="30.0268578529">
        <ele>0.0</ele>
        <time>2026-04-25T15:54:09.000Z</time>
    </trkpt>
    <trkpt lat="59.101960659" lon="30.0268578529">
        <ele>0.0</ele>
        <time>2026-04-25T15:54:12.000Z</time>
    </trkpt>
    <trkpt lat="59.101960659" lon="30.0268578529">
        <ele>0.0</ele>
        <time>2026-04-25T15:54:14.000Z</time>
    </trkpt>
    <trkpt lat="59.1019392014" lon="30.0268363953">
        <ele>0.0</ele>
        <time>2026-04-25T15:54:17.000Z</time>
    </trkpt>
    <trkpt lat="59.1019392014" lon="30.0268363953">
        <ele>0.0</ele>
        <time>2026-04-25T15:54:19.000Z</time>
    </trkpt>
    <trkpt lat="59.1019392014" lon="30.0268363953">
        <ele>0.0</ele>
        <time>2026-04-25T15:54:22.000Z</time>
    </trkpt>
    <trkpt lat="59.1019392014" lon="30.0268363953">
        <ele>0.0</ele>
        <time>2026-04-25T15:54:24.000Z</time>
    </trkpt>
    <trkpt lat="59.1019392014" lon="30.0268149376">
        <ele>0.0</ele>
        <time>2026-04-25T15:54:27.000Z</time>
    </trkpt>
    <trkpt lat="59.1019392014" lon="30.0268149376">
        <ele>0.0</ele>
        <time>2026-04-25T15:54:29.000Z</time>
    </trkpt>
    <trkpt lat="59.1019392014" lon="30.0268149376">
        <ele>0.0</ele>
        <time>2026-04-25T15:54:32.000Z</time>
    </trkpt>
    <trkpt lat="59.1019392014" lon="30.0268149376">
        <ele>0.0</ele>
        <time>2026-04-25T15:54:34.000Z</time>
    </trkpt>
    <trkpt lat="59.1019392014" lon="30.0268149376">
        <ele>0.0</ele>
        <time>2026-04-25T15:54:37.000Z</time>
    </trkpt>
    <trkpt lat="59.1019392014" lon="30.0267720222">
        <ele>0.0</ele>
        <time>2026-04-25T15:54:39.000Z</time>
    </trkpt>
    <trkpt lat="59.1019392014" lon="30.0267720222">
        <ele>0.0</ele>
        <time>2026-04-25T15:54:42.000Z</time>
    </trkpt>
    <trkpt lat="59.1019392014" lon="30.0267720222">
        <ele>0.0</ele>
        <time>2026-04-25T15:54:44.000Z</time>
    </trkpt>
    <trkpt lat="59.1019392014" lon="30.0267720222">
        <ele>0.0</ele>
        <time>2026-04-25T15:54:47.000Z</time>
    </trkpt>
    <trkpt lat="59.1019392014" lon="30.0267720222">
        <ele>0.0</ele>
        <time>2026-04-25T15:54:49.000Z</time>
    </trkpt>
    <trkpt lat="59.1019392014" lon="30.0267720222">
        <ele>0.0</ele>
        <time>2026-04-25T15:54:52.000Z</time>
    </trkpt>
    <trkpt lat="59.1019392014" lon="30.0268363953">
        <ele>0.0</ele>
        <time>2026-04-25T15:54:54.000Z</time>
    </trkpt>
    <trkpt lat="59.1019177437" lon="30.0268578529">
        <ele>0.0</ele>
        <time>2026-04-25T15:54:57.000Z</time>
    </trkpt>
    <trkpt lat="59.1019392014" lon="30.0268363953">
        <ele>0.0</ele>
        <time>2026-04-25T15:54:59.000Z</time>
    </trkpt>
    <trkpt lat="59.1019392014" lon="30.0268149376">
        <ele>0.0</ele>
        <time>2026-04-25T15:55:02.000Z</time>
    </trkpt>
    <trkpt lat="59.1019392014" lon="30.0268149376">
        <ele>0.0</ele>
        <time>2026-04-25T15:55:04.000Z</time>
    </trkpt>
    <trkpt lat="59.1019392014" lon="30.0268149376">
        <ele>0.0</ele>
        <time>2026-04-25T15:55:07.000Z</time>
    </trkpt>
    <trkpt lat="59.1019177437" lon="30.0268363953">
        <ele>0.0</ele>
        <time>2026-04-25T15:55:09.000Z</time>
    </trkpt>
    <trkpt lat="59.1019392014" lon="30.0268363953">
        <ele>0.0</ele>
        <time>2026-04-25T15:55:12.000Z</time>
    </trkpt>
    <trkpt lat="59.1019392014" lon="30.0268149376">
        <ele>0.0</ele>
        <time>2026-04-25T15:55:14.000Z</time>
    </trkpt>
    <trkpt lat="59.1019392014" lon="30.0268149376">
        <ele>0.0</ele>
        <time>2026-04-25T15:55:17.000Z</time>
    </trkpt>
    <trkpt lat="59.101960659" lon="30.0267720222">
        <ele>0.0</ele>
        <time>2026-04-25T15:55:19.000Z</time>
    </trkpt>
    <trkpt lat="59.101960659" lon="30.0267291069">
        <ele>0.0</ele>
        <time>2026-04-25T15:55:22.000Z</time>
    </trkpt>
    <trkpt lat="59.1019821167" lon="30.0267291069">
        <ele>0.0</ele>
        <time>2026-04-25T15:55:24.000Z</time>
    </trkpt>
    <trkpt lat="59.1020035744" lon="30.0267076492">
        <ele>0.0</ele>
        <time>2026-04-25T15:55:27.000Z</time>
    </trkpt>
    <trkpt lat="59.1020035744" lon="30.0266861916">
        <ele>0.0</ele>
        <time>2026-04-25T15:55:29.000Z</time>
    </trkpt>
    <trkpt lat="59.1020035744" lon="30.0266861916">
        <ele>0.0</ele>
        <time>2026-04-25T15:55:32.000Z</time>
    </trkpt>
    <trkpt lat="59.1020035744" lon="30.0266861916">
        <ele>0.0</ele>
        <time>2026-04-25T15:55:34.000Z</time>
    </trkpt>
    <trkpt lat="59.1020035744" lon="30.0266861916">
        <ele>0.0</ele>
        <time>2026-04-25T15:55:37.000Z</time>
    </trkpt>
    <trkpt lat="59.102025032" lon="30.0266861916">
        <ele>0.0</ele>
        <time>2026-04-25T15:55:39.000Z</time>
    </trkpt>
    <trkpt lat="59.1020464897" lon="30.0266647339">
        <ele>0.0</ele>
        <time>2026-04-25T15:55:42.000Z</time>
    </trkpt>
    <trkpt lat="59.1020464897" lon="30.0266432762">
        <ele>0.0</ele>
        <time>2026-04-25T15:55:44.000Z</time>
    </trkpt>
    <trkpt lat="59.1020464897" lon="30.0266432762">
        <ele>0.0</ele>
        <time>2026-04-25T15:55:47.000Z</time>
    </trkpt>
    <trkpt lat="59.1020464897" lon="30.0266218185">
        <ele>0.0</ele>
        <time>2026-04-25T15:55:49.000Z</time>
    </trkpt>
    <trkpt lat="59.102025032" lon="30.0266003609">
        <ele>0.0</ele>
        <time>2026-04-25T15:55:52.000Z</time>
    </trkpt>
    <trkpt lat="59.102025032" lon="30.0265145302">
        <ele>0.0</ele>
        <time>2026-04-25T15:55:54.000Z</time>
    </trkpt>
    <trkpt lat="59.102025032" lon="30.0264716148">
        <ele>0.0</ele>
        <time>2026-04-25T15:55:57.000Z</time>
    </trkpt>
    <trkpt lat="59.102025032" lon="30.0264072418">
        <ele>0.0</ele>
        <time>2026-04-25T15:55:59.000Z</time>
    </trkpt>
    <trkpt lat="59.102025032" lon="30.0264072418">
        <ele>0.0</ele>
        <time>2026-04-25T15:56:02.000Z</time>
    </trkpt>
    <trkpt lat="59.1020464897" lon="30.0264501572">
        <ele>0.0</ele>
        <time>2026-04-25T15:56:04.000Z</time>
    </trkpt>
    <trkpt lat="59.1020464897" lon="30.0264716148">
        <ele>0.0</ele>
        <time>2026-04-25T15:56:07.000Z</time>
    </trkpt>
    <trkpt lat="59.1020464897" lon="30.0265145302">
        <ele>0.0</ele>
        <time>2026-04-25T15:56:09.000Z</time>
    </trkpt>
    <trkpt lat="59.1020679474" lon="30.0265145302">
        <ele>0.0</ele>
        <time>2026-04-25T15:56:12.000Z</time>
    </trkpt>
    <trkpt lat="59.1021108627" lon="30.0265359879">
        <ele>0.0</ele>
        <time>2026-04-25T15:56:14.000Z</time>
    </trkpt>
    <trkpt lat="59.1021323204" lon="30.0265574455">
        <ele>0.0</ele>
        <time>2026-04-25T15:56:17.000Z</time>
    </trkpt>
    <trkpt lat="59.1021537781" lon="30.0266003609">
        <ele>0.0</ele>
        <time>2026-04-25T15:56:19.000Z</time>
    </trkpt>
    <trkpt lat="59.1021752357" lon="30.0266218185">
        <ele>0.0</ele>
        <time>2026-04-25T15:56:22.000Z</time>
    </trkpt>
    <trkpt lat="59.1021966934" lon="30.0266432762">
        <ele>0.0</ele>
        <time>2026-04-25T15:56:24.000Z</time>
    </trkpt>
    <trkpt lat="59.1021966934" lon="30.0266432762">
        <ele>0.0</ele>
        <time>2026-04-25T15:56:27.000Z</time>
    </trkpt>
    <trkpt lat="59.1022181511" lon="30.0266218185">
        <ele>0.0</ele>
        <time>2026-04-25T15:56:29.000Z</time>
    </trkpt>
    <trkpt lat="59.1022181511" lon="30.0266003609">
        <ele>0.0</ele>
        <time>2026-04-25T15:56:32.000Z</time>
    </trkpt>
    <trkpt lat="59.1022181511" lon="30.0265574455">
        <ele>0.0</ele>
        <time>2026-04-25T15:56:34.000Z</time>
    </trkpt>
    <trkpt lat="59.1022181511" lon="30.0265789032">
        <ele>0.0</ele>
        <time>2026-04-25T15:56:37.000Z</time>
    </trkpt>
    <trkpt lat="59.1022396088" lon="30.0265574455">
        <ele>0.0</ele>
        <time>2026-04-25T15:56:39.000Z</time>
    </trkpt>
    <trkpt lat="59.1022396088" lon="30.0265574455">
        <ele>0.0</ele>
        <time>2026-04-25T15:56:42.000Z</time>
    </trkpt>
    <trkpt lat="59.1022396088" lon="30.0265574455">
        <ele>0.0</ele>
        <time>2026-04-25T15:56:44.000Z</time>
    </trkpt>
    <trkpt lat="59.1022396088" lon="30.0265574455">
        <ele>0.0</ele>
        <time>2026-04-25T15:56:47.000Z</time>
    </trkpt>
    <trkpt lat="59.1022825241" lon="30.0265789032">
        <ele>0.0</ele>
        <time>2026-04-25T15:56:49.000Z</time>
    </trkpt>
    <trkpt lat="59.1022825241" lon="30.0266218185">
        <ele>0.0</ele>
        <time>2026-04-25T15:56:52.000Z</time>
    </trkpt>
    <trkpt lat="59.1023039818" lon="30.0266647339">
        <ele>0.0</ele>
        <time>2026-04-25T15:56:54.000Z</time>
    </trkpt>
    <trkpt lat="59.1023254395" lon="30.0266432762">
        <ele>0.0</ele>
        <time>2026-04-25T15:56:57.000Z</time>
    </trkpt>
    <trkpt lat="59.1023254395" lon="30.0266432762">
        <ele>0.0</ele>
        <time>2026-04-25T15:56:59.000Z</time>
    </trkpt>
    <trkpt lat="59.1023254395" lon="30.0266003609">
        <ele>0.0</ele>
        <time>2026-04-25T15:57:02.000Z</time>
    </trkpt>
    <trkpt lat="59.1023468971" lon="30.0265789032">
        <ele>0.0</ele>
        <time>2026-04-25T15:57:04.000Z</time>
    </trkpt>
    <trkpt lat="59.1023468971" lon="30.0265359879">
        <ele>0.0</ele>
        <time>2026-04-25T15:57:07.000Z</time>
    </trkpt>
    <trkpt lat="59.1023683548" lon="30.0264930725">
        <ele>0.0</ele>
        <time>2026-04-25T15:57:09.000Z</time>
    </trkpt>
    <trkpt lat="59.1023683548" lon="30.0264930725">
        <ele>0.0</ele>
        <time>2026-04-25T15:57:12.000Z</time>
    </trkpt>
    <trkpt lat="59.1023683548" lon="30.0265145302">
        <ele>0.0</ele>
        <time>2026-04-25T15:57:14.000Z</time>
    </trkpt>
    <trkpt lat="59.1023683548" lon="30.0265145302">
        <ele>0.0</ele>
        <time>2026-04-25T15:57:17.000Z</time>
    </trkpt>
    <trkpt lat="59.1023683548" lon="30.0265145302">
        <ele>0.0</ele>
        <time>2026-04-25T15:57:19.000Z</time>
    </trkpt>
    <trkpt lat="59.1023683548" lon="30.0265145302">
        <ele>0.0</ele>
        <time>2026-04-25T15:57:22.000Z</time>
    </trkpt>
    <trkpt lat="59.1023898125" lon="30.0265359879">
        <ele>0.0</ele>
        <time>2026-04-25T15:57:24.000Z</time>
    </trkpt>
    <trkpt lat="59.1023898125" lon="30.0265359879">
        <ele>0.0</ele>
        <time>2026-04-25T15:57:27.000Z</time>
    </trkpt>
    <trkpt lat="59.1024112701" lon="30.0265359879">
        <ele>0.0</ele>
        <time>2026-04-25T15:57:29.000Z</time>
    </trkpt>
    <trkpt lat="59.1024327278" lon="30.0265574455">
        <ele>0.0</ele>
        <time>2026-04-25T15:57:32.000Z</time>
    </trkpt>
    <trkpt lat="59.1024756432" lon="30.0265574455">
        <ele>0.0</ele>
        <time>2026-04-25T15:57:34.000Z</time>
    </trkpt>
    <trkpt lat="59.1024971008" lon="30.0265145302">
        <ele>0.0</ele>
        <time>2026-04-25T15:57:37.000Z</time>
    </trkpt>
    <trkpt lat="59.1025400162" lon="30.0264716148">
        <ele>0.0</ele>
        <time>2026-04-25T15:57:39.000Z</time>
    </trkpt>
    <trkpt lat="59.1025400162" lon="30.0264716148">
        <ele>0.0</ele>
        <time>2026-04-25T15:57:42.000Z</time>
    </trkpt>
    <trkpt lat="59.1025400162" lon="30.0264930725">
        <ele>0.0</ele>
        <time>2026-04-25T15:57:44.000Z</time>
    </trkpt>
    <trkpt lat="59.1025614738" lon="30.0265359879">
        <ele>0.0</ele>
        <time>2026-04-25T15:57:47.000Z</time>
    </trkpt>
    <trkpt lat="59.1025829315" lon="30.0265574455">
        <ele>0.0</ele>
        <time>2026-04-25T15:57:49.000Z</time>
    </trkpt>
    <trkpt lat="59.1026043892" lon="30.0265789032">
        <ele>0.0</ele>
        <time>2026-04-25T15:57:52.000Z</time>
    </trkpt>
    <trkpt lat="59.1026258469" lon="30.0265574455">
        <ele>0.0</ele>
        <time>2026-04-25T15:57:54.000Z</time>
    </trkpt>
    <trkpt lat="59.1026258469" lon="30.0265789032">
        <ele>0.0</ele>
        <time>2026-04-25T15:57:57.000Z</time>
    </trkpt>
    <trkpt lat="59.1026473045" lon="30.0266003609">
        <ele>0.0</ele>
        <time>2026-04-25T15:57:59.000Z</time>
    </trkpt>
    <trkpt lat="59.1026687622" lon="30.0265789032">
        <ele>0.0</ele>
        <time>2026-04-25T15:58:02.000Z</time>
    </trkpt>
    <trkpt lat="59.1027116776" lon="30.0265359879">
        <ele>0.0</ele>
        <time>2026-04-25T15:58:04.000Z</time>
    </trkpt>
    <trkpt lat="59.1027331352" lon="30.0264930725">
        <ele>0.0</ele>
        <time>2026-04-25T15:58:07.000Z</time>
    </trkpt>
    <trkpt lat="59.1027760506" lon="30.0264930725">
        <ele>0.0</ele>
        <time>2026-04-25T15:58:09.000Z</time>
    </trkpt>
    <trkpt lat="59.1027975082" lon="30.0265145302">
        <ele>0.0</ele>
        <time>2026-04-25T15:58:12.000Z</time>
    </trkpt>
    <trkpt lat="59.1028404236" lon="30.0265359879">
        <ele>0.0</ele>
        <time>2026-04-25T15:58:14.000Z</time>
    </trkpt>
    <trkpt lat="59.1028618813" lon="30.0265359879">
        <ele>0.0</ele>
        <time>2026-04-25T15:58:17.000Z</time>
    </trkpt>
    <trkpt lat="59.1028618813" lon="30.0265359879">
        <ele>0.0</ele>
        <time>2026-04-25T15:58:19.000Z</time>
    </trkpt>
    <trkpt lat="59.1028618813" lon="30.0265359879">
        <ele>0.0</ele>
        <time>2026-04-25T15:58:22.000Z</time>
    </trkpt>
    <trkpt lat="59.1028618813" lon="30.0265359879">
        <ele>0.0</ele>
        <time>2026-04-25T15:58:24.000Z</time>
    </trkpt>
    <trkpt lat="59.1028618813" lon="30.0265789032">
        <ele>0.0</ele>
        <time>2026-04-25T15:58:27.000Z</time>
    </trkpt>
    <trkpt lat="59.1028404236" lon="30.0266218185">
        <ele>0.0</ele>
        <time>2026-04-25T15:58:29.000Z</time>
    </trkpt>
    <trkpt lat="59.1028404236" lon="30.0266647339">
        <ele>0.0</ele>
        <time>2026-04-25T15:58:32.000Z</time>
    </trkpt>
    <trkpt lat="59.1028189659" lon="30.0267076492">
        <ele>0.0</ele>
        <time>2026-04-25T15:58:34.000Z</time>
    </trkpt>
    <trkpt lat="59.1027975082" lon="30.0267291069">
        <ele>0.0</ele>
        <time>2026-04-25T15:58:37.000Z</time>
    </trkpt>
    <trkpt lat="59.1027975082" lon="30.0267720222">
        <ele>0.0</ele>
        <time>2026-04-25T15:58:39.000Z</time>
    </trkpt>
    <trkpt lat="59.1027760506" lon="30.0267720222">
        <ele>0.0</ele>
        <time>2026-04-25T15:58:42.000Z</time>
    </trkpt>
    <trkpt lat="59.1027975082" lon="30.0267934799">
        <ele>0.0</ele>
        <time>2026-04-25T15:58:44.000Z</time>
    </trkpt>
    <trkpt lat="59.1027975082" lon="30.0268149376">
        <ele>0.0</ele>
        <time>2026-04-25T15:58:47.000Z</time>
    </trkpt>
    <trkpt lat="59.1028618813" lon="30.0267291069">
        <ele>0.0</ele>
        <time>2026-04-25T15:58:54.000Z</time>
    </trkpt>
    <trkpt lat="59.1028833389" lon="30.0267076492">
        <ele>0.0</ele>
        <time>2026-04-25T15:58:57.000Z</time>
    </trkpt>
    <trkpt lat="59.1028833389" lon="30.0266861916">
        <ele>0.0</ele>
        <time>2026-04-25T15:58:59.000Z</time>
    </trkpt>
    <trkpt lat="59.1029047966" lon="30.0266432762">
        <ele>0.0</ele>
        <time>2026-04-25T15:59:02.000Z</time>
    </trkpt>
    <trkpt lat="59.1029047966" lon="30.0266003609">
        <ele>0.0</ele>
        <time>2026-04-25T15:59:04.000Z</time>
    </trkpt>
    <trkpt lat="59.1029047966" lon="30.0265789032">
        <ele>0.0</ele>
        <time>2026-04-25T15:59:07.000Z</time>
    </trkpt>
    <trkpt lat="59.1029047966" lon="30.0265359879">
        <ele>0.0</ele>
        <time>2026-04-25T15:59:09.000Z</time>
    </trkpt>
    <trkpt lat="59.1029047966" lon="30.0265359879">
        <ele>0.0</ele>
        <time>2026-04-25T15:59:12.000Z</time>
    </trkpt>
    <trkpt lat="59.1029262543" lon="30.0265359879">
        <ele>0.0</ele>
        <time>2026-04-25T15:59:14.000Z</time>
    </trkpt>
    <trkpt lat="59.1029691696" lon="30.0265359879">
        <ele>0.0</ele>
        <time>2026-04-25T15:59:17.000Z</time>
    </trkpt>
    <trkpt lat="59.1029691696" lon="30.0265359879">
        <ele>0.0</ele>
        <time>2026-04-25T15:59:19.000Z</time>
    </trkpt>
    <trkpt lat="59.1029906273" lon="30.0265789032">
        <ele>0.0</ele>
        <time>2026-04-25T15:59:22.000Z</time>
    </trkpt>
    <trkpt lat="59.103012085" lon="30.0266003609">
        <ele>0.0</ele>
        <time>2026-04-25T15:59:24.000Z</time>
    </trkpt>
    <trkpt lat="59.1030335426" lon="30.0266218185">
        <ele>0.0</ele>
        <time>2026-04-25T15:59:27.000Z</time>
    </trkpt>
    <trkpt lat="59.1030550003" lon="30.0267291069">
        <ele>0.0</ele>
        <time>2026-04-25T15:59:29.000Z</time>
    </trkpt>
    <trkpt lat="59.1030550003" lon="30.0267291069">
        <ele>0.0</ele>
        <time>2026-04-25T15:59:32.000Z</time>
    </trkpt>
    <trkpt lat="59.1030550003" lon="30.0267291069">
        <ele>0.0</ele>
        <time>2026-04-25T15:59:34.000Z</time>
    </trkpt>
    <trkpt lat="59.1030550003" lon="30.0267505646">
        <ele>0.0</ele>
        <time>2026-04-25T15:59:37.000Z</time>
    </trkpt>
    <trkpt lat="59.1030550003" lon="30.0267505646">
        <ele>0.0</ele>
        <time>2026-04-25T15:59:39.000Z</time>
    </trkpt>
    <trkpt lat="59.1030550003" lon="30.0267505646">
        <ele>0.0</ele>
        <time>2026-04-25T15:59:42.000Z</time>
    </trkpt>
    <trkpt lat="59.1030550003" lon="30.0267505646">
        <ele>0.0</ele>
        <time>2026-04-25T15:59:44.000Z</time>
    </trkpt>
    <trkpt lat="59.103076458" lon="30.0267720222">
        <ele>0.0</ele>
        <time>2026-04-25T15:59:47.000Z</time>
    </trkpt>
    <trkpt lat="59.1030979156" lon="30.0268149376">
        <ele>0.0</ele>
        <time>2026-04-25T15:59:49.000Z</time>
    </trkpt>
    <trkpt lat="59.1031193733" lon="30.0268149376">
        <ele>0.0</ele>
        <time>2026-04-25T15:59:52.000Z</time>
    </trkpt>
    <trkpt lat="59.103140831" lon="30.0267291069">
        <ele>0.0</ele>
        <time>2026-04-25T15:59:54.000Z</time>
    </trkpt>
    <trkpt lat="59.1031622887" lon="30.0266861916">
        <ele>0.0</ele>
        <time>2026-04-25T15:59:57.000Z</time>
    </trkpt>
    <trkpt lat="59.1031622887" lon="30.0266432762">
        <ele>0.0</ele>
        <time>2026-04-25T15:59:59.000Z</time>
    </trkpt>
    <trkpt lat="59.1031622887" lon="30.0266432762">
        <ele>0.0</ele>
        <time>2026-04-25T16:00:02.000Z</time>
    </trkpt>
    <trkpt lat="59.1031837463" lon="30.0266218185">
        <ele>0.0</ele>
        <time>2026-04-25T16:00:04.000Z</time>
    </trkpt>
    <trkpt lat="59.1031837463" lon="30.0266218185">
        <ele>0.0</ele>
        <time>2026-04-25T16:00:07.000Z</time>
    </trkpt>
    <trkpt lat="59.1032266617" lon="30.0265789032">
        <ele>0.0</ele>
        <time>2026-04-25T16:00:09.000Z</time>
    </trkpt>
    <trkpt lat="59.1032481194" lon="30.0265789032">
        <ele>0.0</ele>
        <time>2026-04-25T16:00:12.000Z</time>
    </trkpt>
    <trkpt lat="59.1032481194" lon="30.0265574455">
        <ele>0.0</ele>
        <time>2026-04-25T16:00:14.000Z</time>
    </trkpt>
    <trkpt lat="59.1032481194" lon="30.0265574455">
        <ele>0.0</ele>
        <time>2026-04-25T16:00:17.000Z</time>
    </trkpt>
    <trkpt lat="59.103269577" lon="30.0265574455">
        <ele>0.0</ele>
        <time>2026-04-25T16:00:19.000Z</time>
    </trkpt>
    <trkpt lat="59.1032910347" lon="30.0265574455">
        <ele>0.0</ele>
        <time>2026-04-25T16:00:22.000Z</time>
    </trkpt>
    <trkpt lat="59.1033124924" lon="30.0265789032">
        <ele>0.0</ele>
        <time>2026-04-25T16:00:24.000Z</time>
    </trkpt>
    <trkpt lat="59.10333395" lon="30.0265574455">
        <ele>0.0</ele>
        <time>2026-04-25T16:00:27.000Z</time>
    </trkpt>
    <trkpt lat="59.10333395" lon="30.0264930725">
        <ele>0.0</ele>
        <time>2026-04-25T16:00:29.000Z</time>
    </trkpt>
    <trkpt lat="59.1033554077" lon="30.0264930725">
        <ele>0.0</ele>
        <time>2026-04-25T16:00:32.000Z</time>
    </trkpt>
    <trkpt lat="59.1033554077" lon="30.0264930725">
        <ele>0.0</ele>
        <time>2026-04-25T16:00:34.000Z</time>
    </trkpt>
    <trkpt lat="59.1033768654" lon="30.0264930725">
        <ele>0.0</ele>
        <time>2026-04-25T16:00:37.000Z</time>
    </trkpt>
    <trkpt lat="59.1033983231" lon="30.0265574455">
        <ele>0.0</ele>
        <time>2026-04-25T16:00:39.000Z</time>
    </trkpt>
    <trkpt lat="59.1033768654" lon="30.0266003609">
        <ele>0.0</ele>
        <time>2026-04-25T16:00:42.000Z</time>
    </trkpt>
    <trkpt lat="59.1033768654" lon="30.0266003609">
        <ele>0.0</ele>
        <time>2026-04-25T16:00:44.000Z</time>
    </trkpt>
    <trkpt lat="59.1033983231" lon="30.0266218185">
        <ele>0.0</ele>
        <time>2026-04-25T16:00:47.000Z</time>
    </trkpt>
    <trkpt lat="59.1034197807" lon="30.0266647339">
        <ele>0.0</ele>
        <time>2026-04-25T16:00:49.000Z</time>
    </trkpt>
    <trkpt lat="59.1034412384" lon="30.0266861916">
        <ele>0.0</ele>
        <time>2026-04-25T16:00:52.000Z</time>
    </trkpt>
    <trkpt lat="59.1034841537" lon="30.0266432762">
        <ele>0.0</ele>
        <time>2026-04-25T16:00:54.000Z</time>
    </trkpt>
    <trkpt lat="59.1035056114" lon="30.0266218185">
        <ele>0.0</ele>
        <time>2026-04-25T16:00:57.000Z</time>
    </trkpt>
    <trkpt lat="59.1035270691" lon="30.0265789032">
        <ele>0.0</ele>
        <time>2026-04-25T16:00:59.000Z</time>
    </trkpt>
    <trkpt lat="59.1035485268" lon="30.0265574455">
        <ele>0.0</ele>
        <time>2026-04-25T16:01:02.000Z</time>
    </trkpt>
    <trkpt lat="59.1035699844" lon="30.0265145302">
        <ele>0.0</ele>
        <time>2026-04-25T16:01:04.000Z</time>
    </trkpt>
    <trkpt lat="59.1035485268" lon="30.0265145302">
        <ele>0.0</ele>
        <time>2026-04-25T16:01:07.000Z</time>
    </trkpt>
    <trkpt lat="59.1035485268" lon="30.0264716148">
        <ele>0.0</ele>
        <time>2026-04-25T16:01:09.000Z</time>
    </trkpt>
    <trkpt lat="59.1035270691" lon="30.0264501572">
        <ele>0.0</ele>
        <time>2026-04-25T16:01:12.000Z</time>
    </trkpt>
    <trkpt lat="59.1035270691" lon="30.0264716148">
        <ele>0.0</ele>
        <time>2026-04-25T16:01:14.000Z</time>
    </trkpt>
    <trkpt lat="59.1035270691" lon="30.0264716148">
        <ele>0.0</ele>
        <time>2026-04-25T16:01:17.000Z</time>
    </trkpt>
    <trkpt lat="59.1035270691" lon="30.0264716148">
        <ele>0.0</ele>
        <time>2026-04-25T16:01:19.000Z</time>
    </trkpt>
    <trkpt lat="59.1035485268" lon="30.0264286995">
        <ele>0.0</ele>
        <time>2026-04-25T16:01:22.000Z</time>
    </trkpt>
    <trkpt lat="59.1035485268" lon="30.0264072418">
        <ele>0.0</ele>
        <time>2026-04-25T16:01:24.000Z</time>
    </trkpt>
    <trkpt lat="59.1035699844" lon="30.0264072418">
        <ele>0.0</ele>
        <time>2026-04-25T16:01:27.000Z</time>
    </trkpt>
    <trkpt lat="59.1036128998" lon="30.0263643265">
        <ele>0.0</ele>
        <time>2026-04-25T16:01:29.000Z</time>
    </trkpt>
    <trkpt lat="59.1036343575" lon="30.0263643265">
        <ele>0.0</ele>
        <time>2026-04-25T16:01:32.000Z</time>
    </trkpt>
    <trkpt lat="59.1036343575" lon="30.0263643265">
        <ele>0.0</ele>
        <time>2026-04-25T16:01:34.000Z</time>
    </trkpt>
    <trkpt lat="59.1036343575" lon="30.0263857841">
        <ele>0.0</ele>
        <time>2026-04-25T16:01:37.000Z</time>
    </trkpt>
    <trkpt lat="59.1036343575" lon="30.0263857841">
        <ele>0.0</ele>
        <time>2026-04-25T16:01:39.000Z</time>
    </trkpt>
    <trkpt lat="59.1036343575" lon="30.0263857841">
        <ele>0.0</ele>
        <time>2026-04-25T16:01:42.000Z</time>
    </trkpt>
    <trkpt lat="59.1036343575" lon="30.0264072418">
        <ele>0.0</ele>
        <time>2026-04-25T16:01:44.000Z</time>
    </trkpt>
    <trkpt lat="59.1036343575" lon="30.0264286995">
        <ele>0.0</ele>
        <time>2026-04-25T16:01:47.000Z</time>
    </trkpt>
    <trkpt lat="59.1036128998" lon="30.0264930725">
        <ele>0.0</ele>
        <time>2026-04-25T16:01:49.000Z</time>
    </trkpt>
    <trkpt lat="59.1036128998" lon="30.0265359879">
        <ele>0.0</ele>
        <time>2026-04-25T16:01:52.000Z</time>
    </trkpt>
    <trkpt lat="59.1036128998" lon="30.0265789032">
        <ele>0.0</ele>
        <time>2026-04-25T16:01:54.000Z</time>
    </trkpt>
    <trkpt lat="59.1036343575" lon="30.0265789032">
        <ele>0.0</ele>
        <time>2026-04-25T16:01:57.000Z</time>
    </trkpt>
    <trkpt lat="59.1036343575" lon="30.0265789032">
        <ele>0.0</ele>
        <time>2026-04-25T16:01:59.000Z</time>
    </trkpt>
    <trkpt lat="59.1036343575" lon="30.0265789032">
        <ele>0.0</ele>
        <time>2026-04-25T16:02:02.000Z</time>
    </trkpt>
    <trkpt lat="59.1036343575" lon="30.0266003609">
        <ele>0.0</ele>
        <time>2026-04-25T16:02:04.000Z</time>
    </trkpt>
    <trkpt lat="59.1036343575" lon="30.0266218185">
        <ele>0.0</ele>
        <time>2026-04-25T16:02:07.000Z</time>
    </trkpt>
    <trkpt lat="59.1036128998" lon="30.0266861916">
        <ele>0.0</ele>
        <time>2026-04-25T16:02:09.000Z</time>
    </trkpt>
    <trkpt lat="59.1035699844" lon="30.0267291069">
        <ele>0.0</ele>
        <time>2026-04-25T16:02:12.000Z</time>
    </trkpt>
    <trkpt lat="59.1035699844" lon="30.0268149376">
        <ele>0.0</ele>
        <time>2026-04-25T16:02:14.000Z</time>
    </trkpt>
    <trkpt lat="59.1035914421" lon="30.0268793106">
        <ele>0.0</ele>
        <time>2026-04-25T16:02:17.000Z</time>
    </trkpt>
    <trkpt lat="59.1036128998" lon="30.0269651413">
        <ele>0.0</ele>
        <time>2026-04-25T16:02:19.000Z</time>
    </trkpt>
    <trkpt lat="59.1035914421" lon="30.0270295143">
        <ele>0.0</ele>
        <time>2026-04-25T16:02:22.000Z</time>
    </trkpt>
    <trkpt lat="59.1036128998" lon="30.0270724297">
        <ele>0.0</ele>
        <time>2026-04-25T16:02:24.000Z</time>
    </trkpt>
    <trkpt lat="59.1036343575" lon="30.0270724297">
        <ele>0.0</ele>
        <time>2026-04-25T16:02:27.000Z</time>
    </trkpt>
    <trkpt lat="59.1036558151" lon="30.0270938873">
        <ele>0.0</ele>
        <time>2026-04-25T16:02:29.000Z</time>
    </trkpt>
    <trkpt lat="59.1036343575" lon="30.027115345">
        <ele>0.0</ele>
        <time>2026-04-25T16:02:32.000Z</time>
    </trkpt>
    <trkpt lat="59.1035914421" lon="30.027115345">
        <ele>0.0</ele>
        <time>2026-04-25T16:02:34.000Z</time>
    </trkpt>
    <trkpt lat="59.1035699844" lon="30.027115345">
        <ele>0.0</ele>
        <time>2026-04-25T16:02:37.000Z</time>
    </trkpt>
    <trkpt lat="59.1035270691" lon="30.027115345">
        <ele>0.0</ele>
        <time>2026-04-25T16:02:39.000Z</time>
    </trkpt>
    <trkpt lat="59.1035270691" lon="30.0271368027">
        <ele>0.0</ele>
        <time>2026-04-25T16:02:42.000Z</time>
    </trkpt>
    <trkpt lat="59.1035270691" lon="30.0271368027">
        <ele>0.0</ele>
        <time>2026-04-25T16:02:44.000Z</time>
    </trkpt>
    <trkpt lat="59.1035270691" lon="30.0271368027">
        <ele>0.0</ele>
        <time>2026-04-25T16:02:47.000Z</time>
    </trkpt>
    <trkpt lat="59.1035485268" lon="30.027115345">
        <ele>0.0</ele>
        <time>2026-04-25T16:02:49.000Z</time>
    </trkpt>
    <trkpt lat="59.1035699844" lon="30.0270938873">
        <ele>0.0</ele>
        <time>2026-04-25T16:02:52.000Z</time>
    </trkpt>
    <trkpt lat="59.1036343575" lon="30.0271368027">
        <ele>0.0</ele>
        <time>2026-04-25T16:02:54.000Z</time>
    </trkpt>
    <trkpt lat="59.1036343575" lon="30.0271368027">
        <ele>0.0</ele>
        <time>2026-04-25T16:02:57.000Z</time>
    </trkpt>
    <trkpt lat="59.1036772728" lon="30.0270938873">
        <ele>0.0</ele>
        <time>2026-04-25T16:02:59.000Z</time>
    </trkpt>
    <trkpt lat="59.1036987305" lon="30.0270938873">
        <ele>0.0</ele>
        <time>2026-04-25T16:03:02.000Z</time>
    </trkpt>
    <trkpt lat="59.1036987305" lon="30.027115345">
        <ele>0.0</ele>
        <time>2026-04-25T16:03:04.000Z</time>
    </trkpt>
    <trkpt lat="59.1036987305" lon="30.0270938873">
        <ele>0.0</ele>
        <time>2026-04-25T16:03:07.000Z</time>
    </trkpt>
    <trkpt lat="59.1036558151" lon="30.0270938873">
        <ele>0.0</ele>
        <time>2026-04-25T16:03:09.000Z</time>
    </trkpt>
    <trkpt lat="59.1036558151" lon="30.027115345">
        <ele>0.0</ele>
        <time>2026-04-25T16:03:12.000Z</time>
    </trkpt>
    <trkpt lat="59.1036558151" lon="30.0271368027">
        <ele>0.0</ele>
        <time>2026-04-25T16:03:14.000Z</time>
    </trkpt>
    <trkpt lat="59.1036772728" lon="30.0271582603">
        <ele>0.0</ele>
        <time>2026-04-25T16:03:17.000Z</time>
    </trkpt>
    <trkpt lat="59.1036772728" lon="30.0271368027">
        <ele>0.0</ele>
        <time>2026-04-25T16:03:19.000Z</time>
    </trkpt>
    <trkpt lat="59.1036772728" lon="30.0271368027">
        <ele>0.0</ele>
        <time>2026-04-25T16:03:22.000Z</time>
    </trkpt>
    <trkpt lat="59.1036772728" lon="30.027179718">
        <ele>0.0</ele>
        <time>2026-04-25T16:03:24.000Z</time>
    </trkpt>
    <trkpt lat="59.1036772728" lon="30.0272011757">
        <ele>0.0</ele>
        <time>2026-04-25T16:03:27.000Z</time>
    </trkpt>
    <trkpt lat="59.1036772728" lon="30.0271582603">
        <ele>0.0</ele>
        <time>2026-04-25T16:03:29.000Z</time>
    </trkpt>
    <trkpt lat="59.1036772728" lon="30.0271582603">
        <ele>0.0</ele>
        <time>2026-04-25T16:03:32.000Z</time>
    </trkpt>
    <trkpt lat="59.1036772728" lon="30.027179718">
        <ele>0.0</ele>
        <time>2026-04-25T16:03:34.000Z</time>
    </trkpt>
    <trkpt lat="59.1036772728" lon="30.027179718">
        <ele>0.0</ele>
        <time>2026-04-25T16:03:37.000Z</time>
    </trkpt>
    <trkpt lat="59.1036772728" lon="30.027179718">
        <ele>0.0</ele>
        <time>2026-04-25T16:03:39.000Z</time>
    </trkpt>
    <trkpt lat="59.1036558151" lon="30.027179718">
        <ele>0.0</ele>
        <time>2026-04-25T16:03:42.000Z</time>
    </trkpt>
    <trkpt lat="59.1036558151" lon="30.027179718">
        <ele>0.0</ele>
        <time>2026-04-25T16:03:44.000Z</time>
    </trkpt>
    <trkpt lat="59.1036558151" lon="30.027179718">
        <ele>0.0</ele>
        <time>2026-04-25T16:03:47.000Z</time>
    </trkpt>
    <trkpt lat="59.1036558151" lon="30.027244091">
        <ele>0.0</ele>
        <time>2026-04-25T16:03:49.000Z</time>
    </trkpt>
    <trkpt lat="59.1036558151" lon="30.0272655487">
        <ele>0.0</ele>
        <time>2026-04-25T16:03:52.000Z</time>
    </trkpt>
    <trkpt lat="59.1036772728" lon="30.0273299217">
        <ele>0.0</ele>
        <time>2026-04-25T16:03:54.000Z</time>
    </trkpt>
    <trkpt lat="59.1036987305" lon="30.0273728371">
        <ele>0.0</ele>
        <time>2026-04-25T16:03:57.000Z</time>
    </trkpt>
    <trkpt lat="59.1037201881" lon="30.0274372101">
        <ele>0.0</ele>
        <time>2026-04-25T16:03:59.000Z</time>
    </trkpt>
    <trkpt lat="59.1037416458" lon="30.0274801254">
        <ele>0.0</ele>
        <time>2026-04-25T16:04:02.000Z</time>
    </trkpt>
    <trkpt lat="59.1037201881" lon="30.0275230408">
        <ele>0.0</ele>
        <time>2026-04-25T16:04:04.000Z</time>
    </trkpt>
    <trkpt lat="59.1036987305" lon="30.0275230408">
        <ele>0.0</ele>
        <time>2026-04-25T16:04:07.000Z</time>
    </trkpt>
    <trkpt lat="59.1036772728" lon="30.0275444984">
        <ele>0.0</ele>
        <time>2026-04-25T16:04:09.000Z</time>
    </trkpt>
    <trkpt lat="59.1036558151" lon="30.0275659561">
        <ele>0.0</ele>
        <time>2026-04-25T16:04:12.000Z</time>
    </trkpt>
    <trkpt lat="59.1036772728" lon="30.0276303291">
        <ele>0.0</ele>
        <time>2026-04-25T16:04:14.000Z</time>
    </trkpt>
    <trkpt lat="59.1036772728" lon="30.0276303291">
        <ele>0.0</ele>
        <time>2026-04-25T16:04:17.000Z</time>
    </trkpt>
    <trkpt lat="59.1036772728" lon="30.0276303291">
        <ele>0.0</ele>
        <time>2026-04-25T16:04:19.000Z</time>
    </trkpt>
    <trkpt lat="59.1036772728" lon="30.0276303291">
        <ele>0.0</ele>
        <time>2026-04-25T16:04:22.000Z</time>
    </trkpt>
    <trkpt lat="59.1036772728" lon="30.0276517868">
        <ele>0.0</ele>
        <time>2026-04-25T16:04:24.000Z</time>
    </trkpt>
    <trkpt lat="59.1036772728" lon="30.0276517868">
        <ele>0.0</ele>
        <time>2026-04-25T16:04:27.000Z</time>
    </trkpt>
    <trkpt lat="59.1036987305" lon="30.0276517868">
        <ele>0.0</ele>
        <time>2026-04-25T16:04:29.000Z</time>
    </trkpt>
    <trkpt lat="59.1036987305" lon="30.0276517868">
        <ele>0.0</ele>
        <time>2026-04-25T16:04:32.000Z</time>
    </trkpt>
    <trkpt lat="59.1036772728" lon="30.0276517868">
        <ele>0.0</ele>
        <time>2026-04-25T16:04:34.000Z</time>
    </trkpt>
    <trkpt lat="59.1036772728" lon="30.0276303291">
        <ele>0.0</ele>
        <time>2026-04-25T16:04:37.000Z</time>
    </trkpt>
    <trkpt lat="59.1036558151" lon="30.0275444984">
        <ele>0.0</ele>
        <time>2026-04-25T16:04:39.000Z</time>
    </trkpt>
    <trkpt lat="59.1036558151" lon="30.0275015831">
        <ele>0.0</ele>
        <time>2026-04-25T16:04:42.000Z</time>
    </trkpt>
    <trkpt lat="59.1036558151" lon="30.0274372101">
        <ele>0.0</ele>
        <time>2026-04-25T16:04:44.000Z</time>
    </trkpt>
    <trkpt lat="59.1036558151" lon="30.0274372101">
        <ele>0.0</ele>
        <time>2026-04-25T16:04:47.000Z</time>
    </trkpt>
    <trkpt lat="59.1036558151" lon="30.0274586678">
        <ele>0.0</ele>
        <time>2026-04-25T16:04:49.000Z</time>
    </trkpt>
    <trkpt lat="59.1036558151" lon="30.0274801254">
        <ele>0.0</ele>
        <time>2026-04-25T16:04:52.000Z</time>
    </trkpt>
    <trkpt lat="59.1036343575" lon="30.0274372101">
        <ele>0.0</ele>
        <time>2026-04-25T16:04:54.000Z</time>
    </trkpt>
    <trkpt lat="59.1036558151" lon="30.0274586678">
        <ele>0.0</ele>
        <time>2026-04-25T16:04:57.000Z</time>
    </trkpt>
    <trkpt lat="59.1036558151" lon="30.0274586678">
        <ele>0.0</ele>
        <time>2026-04-25T16:04:59.000Z</time>
    </trkpt>
    <trkpt lat="59.1036558151" lon="30.0274157524">
        <ele>0.0</ele>
        <time>2026-04-25T16:05:02.000Z</time>
    </trkpt>
    <trkpt lat="59.1036772728" lon="30.0273942947">
        <ele>0.0</ele>
        <time>2026-04-25T16:05:04.000Z</time>
    </trkpt>
    <trkpt lat="59.1036772728" lon="30.0273942947">
        <ele>0.0</ele>
        <time>2026-04-25T16:05:07.000Z</time>
    </trkpt>
    <trkpt lat="59.1036772728" lon="30.0274586678">
        <ele>0.0</ele>
        <time>2026-04-25T16:05:09.000Z</time>
    </trkpt>
    <trkpt lat="59.1036772728" lon="30.0274586678">
        <ele>0.0</ele>
        <time>2026-04-25T16:05:12.000Z</time>
    </trkpt>
    <trkpt lat="59.1036772728" lon="30.0274586678">
        <ele>0.0</ele>
        <time>2026-04-25T16:05:14.000Z</time>
    </trkpt>
    <trkpt lat="59.1036772728" lon="30.0274586678">
        <ele>0.0</ele>
        <time>2026-04-25T16:05:17.000Z</time>
    </trkpt>
    <trkpt lat="59.1036772728" lon="30.0274586678">
        <ele>0.0</ele>
        <time>2026-04-25T16:05:19.000Z</time>
    </trkpt>
    <trkpt lat="59.1036772728" lon="30.0274586678">
        <ele>0.0</ele>
        <time>2026-04-25T16:05:22.000Z</time>
    </trkpt>
    <trkpt lat="59.1036772728" lon="30.0274586678">
        <ele>0.0</ele>
        <time>2026-04-25T16:05:24.000Z</time>
    </trkpt>
    <trkpt lat="59.1036772728" lon="30.0274586678">
        <ele>0.0</ele>
        <time>2026-04-25T16:05:27.000Z</time>
    </trkpt>
    <trkpt lat="59.1036772728" lon="30.0274586678">
        <ele>0.0</ele>
        <time>2026-04-25T16:05:29.000Z</time>
    </trkpt>
    <trkpt lat="59.1036772728" lon="30.0274586678">
        <ele>0.0</ele>
        <time>2026-04-25T16:05:32.000Z</time>
    </trkpt>
    <trkpt lat="59.1036772728" lon="30.0274586678">
        <ele>0.0</ele>
        <time>2026-04-25T16:05:34.000Z</time>
    </trkpt>
    <trkpt lat="59.1036772728" lon="30.0274586678">
        <ele>0.0</ele>
        <time>2026-04-25T16:05:37.000Z</time>
    </trkpt>
    <trkpt lat="59.1036772728" lon="30.0274586678">
        <ele>0.0</ele>
        <time>2026-04-25T16:05:39.000Z</time>
    </trkpt>
    <trkpt lat="59.1036772728" lon="30.0274586678">
        <ele>0.0</ele>
        <time>2026-04-25T16:05:42.000Z</time>
    </trkpt>
    <trkpt lat="59.1036772728" lon="30.0274586678">
        <ele>0.0</ele>
        <time>2026-04-25T16:05:44.000Z</time>
    </trkpt>
    <trkpt lat="59.1036772728" lon="30.0274586678">
        <ele>0.0</ele>
        <time>2026-04-25T16:05:47.000Z</time>
    </trkpt>
    <trkpt lat="59.1036772728" lon="30.0274586678">
        <ele>0.0</ele>
        <time>2026-04-25T16:05:49.000Z</time>
    </trkpt>
    <trkpt lat="59.1036772728" lon="30.0274586678">
        <ele>0.0</ele>
        <time>2026-04-25T16:05:52.000Z</time>
    </trkpt>
    <trkpt lat="59.1036772728" lon="30.0274586678">
        <ele>0.0</ele>
        <time>2026-04-25T16:05:54.000Z</time>
    </trkpt>
    <trkpt lat="59.1036772728" lon="30.0274586678">
        <ele>0.0</ele>
        <time>2026-04-25T16:05:57.000Z</time>
    </trkpt>
    <trkpt lat="59.1036772728" lon="30.0274372101">
        <ele>0.0</ele>
        <time>2026-04-25T16:05:59.000Z</time>
    </trkpt>
    <trkpt lat="59.1036772728" lon="30.0274372101">
        <ele>0.0</ele>
        <time>2026-04-25T16:06:02.000Z</time>
    </trkpt>
    <trkpt lat="59.1036772728" lon="30.0274586678">
        <ele>0.0</ele>
        <time>2026-04-25T16:06:04.000Z</time>
    </trkpt>
    <trkpt lat="59.1036772728" lon="30.0274586678">
        <ele>0.0</ele>
        <time>2026-04-25T16:06:07.000Z</time>
    </trkpt>
    <trkpt lat="59.1036772728" lon="30.0274586678">
        <ele>0.0</ele>
        <time>2026-04-25T16:06:09.000Z</time>
    </trkpt>
    <trkpt lat="59.1036772728" lon="30.0274801254">
        <ele>0.0</ele>
        <time>2026-04-25T16:06:12.000Z</time>
    </trkpt>
    <trkpt lat="59.1036772728" lon="30.0274801254">
        <ele>0.0</ele>
        <time>2026-04-25T16:06:14.000Z</time>
    </trkpt>
    <trkpt lat="59.1036558151" lon="30.0274801254">
        <ele>0.0</ele>
        <time>2026-04-25T16:06:17.000Z</time>
    </trkpt>
    <trkpt lat="59.1036558151" lon="30.0274586678">
        <ele>0.0</ele>
        <time>2026-04-25T16:06:19.000Z</time>
    </trkpt>
    <trkpt lat="59.1036558151" lon="30.0274586678">
        <ele>0.0</ele>
        <time>2026-04-25T16:06:22.000Z</time>
    </trkpt>
    <trkpt lat="59.1036343575" lon="30.0274801254">
        <ele>0.0</ele>
        <time>2026-04-25T16:06:24.000Z</time>
    </trkpt>
    <trkpt lat="59.1036343575" lon="30.0274801254">
        <ele>0.0</ele>
        <time>2026-04-25T16:06:27.000Z</time>
    </trkpt>
    <trkpt lat="59.1036558151" lon="30.0274586678">
        <ele>0.0</ele>
        <time>2026-04-25T16:06:29.000Z</time>
    </trkpt>
    <trkpt lat="59.1036343575" lon="30.0274372101">
        <ele>0.0</ele>
        <time>2026-04-25T16:06:32.000Z</time>
    </trkpt>
    <trkpt lat="59.1036128998" lon="30.0274157524">
        <ele>0.0</ele>
        <time>2026-04-25T16:06:34.000Z</time>
    </trkpt>
    <trkpt lat="59.1036128998" lon="30.0274157524">
        <ele>0.0</ele>
        <time>2026-04-25T16:06:37.000Z</time>
    </trkpt>
    <trkpt lat="59.1035914421" lon="30.0274157524">
        <ele>0.0</ele>
        <time>2026-04-25T16:06:39.000Z</time>
    </trkpt>
    <trkpt lat="59.1035914421" lon="30.0274157524">
        <ele>0.0</ele>
        <time>2026-04-25T16:06:42.000Z</time>
    </trkpt>
    <trkpt lat="59.1035699844" lon="30.0274157524">
        <ele>0.0</ele>
        <time>2026-04-25T16:06:44.000Z</time>
    </trkpt>
    <trkpt lat="59.1035699844" lon="30.0274372101">
        <ele>0.0</ele>
        <time>2026-04-25T16:06:47.000Z</time>
    </trkpt>
    <trkpt lat="59.1035914421" lon="30.0274586678">
        <ele>0.0</ele>
        <time>2026-04-25T16:06:49.000Z</time>
    </trkpt>
    <trkpt lat="59.1035914421" lon="30.0274586678">
        <ele>0.0</ele>
        <time>2026-04-25T16:06:52.000Z</time>
    </trkpt>
    <trkpt lat="59.1035699844" lon="30.0274372101">
        <ele>0.0</ele>
        <time>2026-04-25T16:06:54.000Z</time>
    </trkpt>
    <trkpt lat="59.1035699844" lon="30.0274372101">
        <ele>0.0</ele>
        <time>2026-04-25T16:06:57.000Z</time>
    </trkpt>
    <trkpt lat="59.1035485268" lon="30.0273728371">
        <ele>0.0</ele>
        <time>2026-04-25T16:06:59.000Z</time>
    </trkpt>
    <trkpt lat="59.1035485268" lon="30.0273084641">
        <ele>0.0</ele>
        <time>2026-04-25T16:07:02.000Z</time>
    </trkpt>
    <trkpt lat="59.1035270691" lon="30.0272655487">
        <ele>0.0</ele>
        <time>2026-04-25T16:07:04.000Z</time>
    </trkpt>
    <trkpt lat="59.1035056114" lon="30.0272655487">
        <ele>0.0</ele>
        <time>2026-04-25T16:07:07.000Z</time>
    </trkpt>
    <trkpt lat="59.1034626961" lon="30.0272655487">
        <ele>0.0</ele>
        <time>2026-04-25T16:07:09.000Z</time>
    </trkpt>
    <trkpt lat="59.1034412384" lon="30.0272870064">
        <ele>0.0</ele>
        <time>2026-04-25T16:07:12.000Z</time>
    </trkpt>
    <trkpt lat="59.1034197807" lon="30.0272870064">
        <ele>0.0</ele>
        <time>2026-04-25T16:07:14.000Z</time>
    </trkpt>
    <trkpt lat="59.1034197807" lon="30.0272870064">
        <ele>0.0</ele>
        <time>2026-04-25T16:07:17.000Z</time>
    </trkpt>
    <trkpt lat="59.1034197807" lon="30.027244091">
        <ele>0.0</ele>
        <time>2026-04-25T16:07:19.000Z</time>
    </trkpt>
    <trkpt lat="59.1034197807" lon="30.027244091">
        <ele>0.0</ele>
        <time>2026-04-25T16:07:22.000Z</time>
    </trkpt>
    <trkpt lat="59.1034412384" lon="30.027244091">
        <ele>0.0</ele>
        <time>2026-04-25T16:07:24.000Z</time>
    </trkpt>
    <trkpt lat="59.1034412384" lon="30.027244091">
        <ele>0.0</ele>
        <time>2026-04-25T16:07:27.000Z</time>
    </trkpt>
    <trkpt lat="59.1034412384" lon="30.027244091">
        <ele>0.0</ele>
        <time>2026-04-25T16:07:29.000Z</time>
    </trkpt>
    <trkpt lat="59.1034197807" lon="30.027244091">
        <ele>0.0</ele>
        <time>2026-04-25T16:07:32.000Z</time>
    </trkpt>
    <trkpt lat="59.1033768654" lon="30.0272870064">
        <ele>0.0</ele>
        <time>2026-04-25T16:07:34.000Z</time>
    </trkpt>
    <trkpt lat="59.10333395" lon="30.0272870064">
        <ele>0.0</ele>
        <time>2026-04-25T16:07:37.000Z</time>
    </trkpt>
    <trkpt lat="59.1032910347" lon="30.0273084641">
        <ele>0.0</ele>
        <time>2026-04-25T16:07:39.000Z</time>
    </trkpt>
    <trkpt lat="59.1032910347" lon="30.0273084641">
        <ele>0.0</ele>
        <time>2026-04-25T16:07:42.000Z</time>
    </trkpt>
    <trkpt lat="59.1032910347" lon="30.0273299217">
        <ele>0.0</ele>
        <time>2026-04-25T16:07:44.000Z</time>
    </trkpt>
    <trkpt lat="59.1032481194" lon="30.0273513794">
        <ele>0.0</ele>
        <time>2026-04-25T16:07:47.000Z</time>
    </trkpt>
    <trkpt lat="59.103205204" lon="30.0273299217">
        <ele>0.0</ele>
        <time>2026-04-25T16:07:49.000Z</time>
    </trkpt>
    <trkpt lat="59.1031837463" lon="30.0273299217">
        <ele>0.0</ele>
        <time>2026-04-25T16:07:52.000Z</time>
    </trkpt>
    <trkpt lat="59.1031837463" lon="30.0273299217">
        <ele>0.0</ele>
        <time>2026-04-25T16:07:54.000Z</time>
    </trkpt>
    <trkpt lat="59.1031622887" lon="30.0273513794">
        <ele>0.0</ele>
        <time>2026-04-25T16:07:57.000Z</time>
    </trkpt>
    <trkpt lat="59.103140831" lon="30.0273299217">
        <ele>0.0</ele>
        <time>2026-04-25T16:07:59.000Z</time>
    </trkpt>
    <trkpt lat="59.103140831" lon="30.0273513794">
        <ele>0.0</ele>
        <time>2026-04-25T16:08:02.000Z</time>
    </trkpt>
    <trkpt lat="59.1030979156" lon="30.0273942947">
        <ele>0.0</ele>
        <time>2026-04-25T16:08:04.000Z</time>
    </trkpt>
    <trkpt lat="59.103076458" lon="30.0273942947">
        <ele>0.0</ele>
        <time>2026-04-25T16:08:07.000Z</time>
    </trkpt>
    <trkpt lat="59.1030550003" lon="30.0273942947">
        <ele>0.0</ele>
        <time>2026-04-25T16:08:09.000Z</time>
    </trkpt>
    <trkpt lat="59.1030550003" lon="30.0273942947">
        <ele>0.0</ele>
        <time>2026-04-25T16:08:12.000Z</time>
    </trkpt>
    <trkpt lat="59.1030550003" lon="30.0273942947">
        <ele>0.0</ele>
        <time>2026-04-25T16:08:14.000Z</time>
    </trkpt>
    <trkpt lat="59.1030550003" lon="30.0273942947">
        <ele>0.0</ele>
        <time>2026-04-25T16:08:17.000Z</time>
    </trkpt>
    <trkpt lat="59.1030550003" lon="30.0273942947">
        <ele>0.0</ele>
        <time>2026-04-25T16:08:19.000Z</time>
    </trkpt>
    <trkpt lat="59.1030979156" lon="30.0273942947">
        <ele>0.0</ele>
        <time>2026-04-25T16:08:22.000Z</time>
    </trkpt>
    <trkpt lat="59.1030979156" lon="30.0273513794">
        <ele>0.0</ele>
        <time>2026-04-25T16:08:24.000Z</time>
    </trkpt>
    <trkpt lat="59.103076458" lon="30.0273299217">
        <ele>0.0</ele>
        <time>2026-04-25T16:08:27.000Z</time>
    </trkpt>
    <trkpt lat="59.103076458" lon="30.0273513794">
        <ele>0.0</ele>
        <time>2026-04-25T16:08:29.000Z</time>
    </trkpt>
    <trkpt lat="59.103076458" lon="30.0273728371">
        <ele>0.0</ele>
        <time>2026-04-25T16:08:32.000Z</time>
    </trkpt>
    <trkpt lat="59.103076458" lon="30.0273728371">
        <ele>0.0</ele>
        <time>2026-04-25T16:08:34.000Z</time>
    </trkpt>
    <trkpt lat="59.1030550003" lon="30.0273728371">
        <ele>0.0</ele>
        <time>2026-04-25T16:08:37.000Z</time>
    </trkpt>
    <trkpt lat="59.1030550003" lon="30.0273942947">
        <ele>0.0</ele>
        <time>2026-04-25T16:08:39.000Z</time>
    </trkpt>
    <trkpt lat="59.1030335426" lon="30.0273942947">
        <ele>0.0</ele>
        <time>2026-04-25T16:08:42.000Z</time>
    </trkpt>
    <trkpt lat="59.1030335426" lon="30.0273942947">
        <ele>0.0</ele>
        <time>2026-04-25T16:08:44.000Z</time>
    </trkpt>
    <trkpt lat="59.103012085" lon="30.0274157524">
        <ele>0.0</ele>
        <time>2026-04-25T16:08:47.000Z</time>
    </trkpt>
    <trkpt lat="59.1029906273" lon="30.0274157524">
        <ele>0.0</ele>
        <time>2026-04-25T16:08:49.000Z</time>
    </trkpt>
    <trkpt lat="59.1029906273" lon="30.0273942947">
        <ele>0.0</ele>
        <time>2026-04-25T16:08:52.000Z</time>
    </trkpt>
    <trkpt lat="59.1029691696" lon="30.0273299217">
        <ele>0.0</ele>
        <time>2026-04-25T16:08:54.000Z</time>
    </trkpt>
    <trkpt lat="59.1029691696" lon="30.0272655487">
        <ele>0.0</ele>
        <time>2026-04-25T16:08:57.000Z</time>
    </trkpt>
    <trkpt lat="59.1029691696" lon="30.0272226334">
        <ele>0.0</ele>
        <time>2026-04-25T16:08:59.000Z</time>
    </trkpt>
    <trkpt lat="59.1029262543" lon="30.0272011757">
        <ele>0.0</ele>
        <time>2026-04-25T16:09:02.000Z</time>
    </trkpt>
    <trkpt lat="59.1029047966" lon="30.0272655487">
        <ele>0.0</ele>
        <time>2026-04-25T16:09:04.000Z</time>
    </trkpt>
    <trkpt lat="59.1029047966" lon="30.0272655487">
        <ele>0.0</ele>
        <time>2026-04-25T16:09:07.000Z</time>
    </trkpt>
    <trkpt lat="59.1029047966" lon="30.0272655487">
        <ele>0.0</ele>
        <time>2026-04-25T16:09:09.000Z</time>
    </trkpt>
    <trkpt lat="59.1028833389" lon="30.0272011757">
        <ele>0.0</ele>
        <time>2026-04-25T16:09:12.000Z</time>
    </trkpt>
    <trkpt lat="59.1028618813" lon="30.0272011757">
        <ele>0.0</ele>
        <time>2026-04-25T16:09:14.000Z</time>
    </trkpt>
    <trkpt lat="59.1028618813" lon="30.0272011757">
        <ele>0.0</ele>
        <time>2026-04-25T16:09:17.000Z</time>
    </trkpt>
    <trkpt lat="59.1028618813" lon="30.0272011757">
        <ele>0.0</ele>
        <time>2026-04-25T16:09:19.000Z</time>
    </trkpt>
    <trkpt lat="59.1028618813" lon="30.0272011757">
        <ele>0.0</ele>
        <time>2026-04-25T16:09:22.000Z</time>
    </trkpt>
    <trkpt lat="59.1028618813" lon="30.0272011757">
        <ele>0.0</ele>
        <time>2026-04-25T16:09:24.000Z</time>
    </trkpt>
    <trkpt lat="59.1028404236" lon="30.0272011757">
        <ele>0.0</ele>
        <time>2026-04-25T16:09:27.000Z</time>
    </trkpt>
    <trkpt lat="59.1028404236" lon="30.0272011757">
        <ele>0.0</ele>
        <time>2026-04-25T16:09:29.000Z</time>
    </trkpt>
    <trkpt lat="59.1027760506" lon="30.0271582603">
        <ele>0.0</ele>
        <time>2026-04-25T16:09:34.000Z</time>
    </trkpt>
    <trkpt lat="59.1027331352" lon="30.0271582603">
        <ele>0.0</ele>
        <time>2026-04-25T16:09:37.000Z</time>
    </trkpt>
    <trkpt lat="59.1027116776" lon="30.027179718">
        <ele>0.0</ele>
        <time>2026-04-25T16:09:39.000Z</time>
    </trkpt>
    <trkpt lat="59.1027116776" lon="30.027244091">
        <ele>0.0</ele>
        <time>2026-04-25T16:09:42.000Z</time>
    </trkpt>
    <trkpt lat="59.1027545929" lon="30.0272870064">
        <ele>0.0</ele>
        <time>2026-04-25T16:09:44.000Z</time>
    </trkpt>
    <trkpt lat="59.1027975082" lon="30.0273084641">
        <ele>0.0</ele>
        <time>2026-04-25T16:09:47.000Z</time>
    </trkpt>
    <trkpt lat="59.1027975082" lon="30.0273299217">
        <ele>0.0</ele>
        <time>2026-04-25T16:09:49.000Z</time>
    </trkpt>
    <trkpt lat="59.1027975082" lon="30.0273084641">
        <ele>0.0</ele>
        <time>2026-04-25T16:09:52.000Z</time>
    </trkpt>
    <trkpt lat="59.1027331352" lon="30.0272870064">
        <ele>0.0</ele>
        <time>2026-04-25T16:09:54.000Z</time>
    </trkpt>
    <trkpt lat="59.1026902199" lon="30.0272870064">
        <ele>0.0</ele>
        <time>2026-04-25T16:09:57.000Z</time>
    </trkpt>
    <trkpt lat="59.1026473045" lon="30.0272655487">
        <ele>0.0</ele>
        <time>2026-04-25T16:09:59.000Z</time>
    </trkpt>
    <trkpt lat="59.1026473045" lon="30.027244091">
        <ele>0.0</ele>
        <time>2026-04-25T16:10:02.000Z</time>
    </trkpt>
    <trkpt lat="59.1026043892" lon="30.0272011757">
        <ele>0.0</ele>
        <time>2026-04-25T16:10:04.000Z</time>
    </trkpt>
    <trkpt lat="59.1025829315" lon="30.027179718">
        <ele>0.0</ele>
        <time>2026-04-25T16:10:07.000Z</time>
    </trkpt>
    <trkpt lat="59.1025614738" lon="30.0272011757">
        <ele>0.0</ele>
        <time>2026-04-25T16:10:09.000Z</time>
    </trkpt>
    <trkpt lat="59.1025614738" lon="30.0272011757">
        <ele>0.0</ele>
        <time>2026-04-25T16:10:12.000Z</time>
    </trkpt>
    <trkpt lat="59.1025400162" lon="30.0272011757">
        <ele>0.0</ele>
        <time>2026-04-25T16:10:14.000Z</time>
    </trkpt>
    <trkpt lat="59.1025400162" lon="30.027244091">
        <ele>0.0</ele>
        <time>2026-04-25T16:10:17.000Z</time>
    </trkpt>
    <trkpt lat="59.1025400162" lon="30.027244091">
        <ele>0.0</ele>
        <time>2026-04-25T16:10:19.000Z</time>
    </trkpt>
    <trkpt lat="59.1025400162" lon="30.0272655487">
        <ele>0.0</ele>
        <time>2026-04-25T16:10:22.000Z</time>
    </trkpt>
    <trkpt lat="59.1025614738" lon="30.0273084641">
        <ele>0.0</ele>
        <time>2026-04-25T16:10:24.000Z</time>
    </trkpt>
    <trkpt lat="59.1025614738" lon="30.0273299217">
        <ele>0.0</ele>
        <time>2026-04-25T16:10:27.000Z</time>
    </trkpt>
    <trkpt lat="59.1025614738" lon="30.0273513794">
        <ele>0.0</ele>
        <time>2026-04-25T16:10:29.000Z</time>
    </trkpt>
    <trkpt lat="59.1025400162" lon="30.0273728371">
        <ele>0.0</ele>
        <time>2026-04-25T16:10:32.000Z</time>
    </trkpt>
    <trkpt lat="59.1025614738" lon="30.0274586678">
        <ele>0.0</ele>
        <time>2026-04-25T16:10:34.000Z</time>
    </trkpt>
    <trkpt lat="59.1025614738" lon="30.0275015831">
        <ele>0.0</ele>
        <time>2026-04-25T16:10:37.000Z</time>
    </trkpt>
    <trkpt lat="59.1025614738" lon="30.0275015831">
        <ele>0.0</ele>
        <time>2026-04-25T16:10:39.000Z</time>
    </trkpt>
    <trkpt lat="59.1025614738" lon="30.0274586678">
        <ele>0.0</ele>
        <time>2026-04-25T16:10:42.000Z</time>
    </trkpt>
    <trkpt lat="59.1025614738" lon="30.0274157524">
        <ele>0.0</ele>
        <time>2026-04-25T16:10:44.000Z</time>
    </trkpt>
    <trkpt lat="59.1025614738" lon="30.0273942947">
        <ele>0.0</ele>
        <time>2026-04-25T16:10:47.000Z</time>
    </trkpt>
    <trkpt lat="59.1025185585" lon="30.0273728371">
        <ele>0.0</ele>
        <time>2026-04-25T16:10:49.000Z</time>
    </trkpt>
    <trkpt lat="59.1025185585" lon="30.0273299217">
        <ele>0.0</ele>
        <time>2026-04-25T16:10:52.000Z</time>
    </trkpt>
    <trkpt lat="59.1025185585" lon="30.0273299217">
        <ele>0.0</ele>
        <time>2026-04-25T16:10:54.000Z</time>
    </trkpt>
    <trkpt lat="59.1025185585" lon="30.0273299217">
        <ele>0.0</ele>
        <time>2026-04-25T16:10:57.000Z</time>
    </trkpt>
    <trkpt lat="59.1025400162" lon="30.0273513794">
        <ele>0.0</ele>
        <time>2026-04-25T16:10:59.000Z</time>
    </trkpt>
    <trkpt lat="59.1025400162" lon="30.0273728371">
        <ele>0.0</ele>
        <time>2026-04-25T16:11:02.000Z</time>
    </trkpt>
    <trkpt lat="59.1025400162" lon="30.0273942947">
        <ele>0.0</ele>
        <time>2026-04-25T16:11:04.000Z</time>
    </trkpt>
    <trkpt lat="59.1025400162" lon="30.0274157524">
        <ele>0.0</ele>
        <time>2026-04-25T16:11:07.000Z</time>
    </trkpt>
    <trkpt lat="59.1025400162" lon="30.0275015831">
        <ele>0.0</ele>
        <time>2026-04-25T16:11:09.000Z</time>
    </trkpt>
    <trkpt lat="59.1025614738" lon="30.0275230408">
        <ele>0.0</ele>
        <time>2026-04-25T16:11:12.000Z</time>
    </trkpt>
    <trkpt lat="59.1025400162" lon="30.0275659561">
        <ele>0.0</ele>
        <time>2026-04-25T16:11:14.000Z</time>
    </trkpt>
    <trkpt lat="59.1025400162" lon="30.0275659561">
        <ele>0.0</ele>
        <time>2026-04-25T16:11:17.000Z</time>
    </trkpt>
    <trkpt lat="59.1025400162" lon="30.0275874138">
        <ele>0.0</ele>
        <time>2026-04-25T16:11:19.000Z</time>
    </trkpt>
    <trkpt lat="59.1025400162" lon="30.0276303291">
        <ele>0.0</ele>
        <time>2026-04-25T16:11:22.000Z</time>
    </trkpt>
    <trkpt lat="59.1025400162" lon="30.0276947021">
        <ele>0.0</ele>
        <time>2026-04-25T16:11:24.000Z</time>
    </trkpt>
    <trkpt lat="59.1025185585" lon="30.0277161598">
        <ele>0.0</ele>
        <time>2026-04-25T16:11:27.000Z</time>
    </trkpt>
    <trkpt lat="59.1024971008" lon="30.0278019905">
        <ele>0.0</ele>
        <time>2026-04-25T16:11:29.000Z</time>
    </trkpt>
    <trkpt lat="59.1024756432" lon="30.0278449059">
        <ele>0.0</ele>
        <time>2026-04-25T16:11:32.000Z</time>
    </trkpt>
    <trkpt lat="59.1024541855" lon="30.0278878212">
        <ele>0.0</ele>
        <time>2026-04-25T16:11:34.000Z</time>
    </trkpt>
    <trkpt lat="59.1024541855" lon="30.0278878212">
        <ele>0.0</ele>
        <time>2026-04-25T16:11:37.000Z</time>
    </trkpt>
    <trkpt lat="59.1024541855" lon="30.0278878212">
        <ele>0.0</ele>
        <time>2026-04-25T16:11:39.000Z</time>
    </trkpt>
    <trkpt lat="59.1024541855" lon="30.0278878212">
        <ele>0.0</ele>
        <time>2026-04-25T16:11:42.000Z</time>
    </trkpt>
    <trkpt lat="59.1024541855" lon="30.0278878212">
        <ele>0.0</ele>
        <time>2026-04-25T16:11:44.000Z</time>
    </trkpt>
    <trkpt lat="59.1024541855" lon="30.0278878212">
        <ele>0.0</ele>
        <time>2026-04-25T16:11:47.000Z</time>
    </trkpt>
    <trkpt lat="59.1024541855" lon="30.0279736519">
        <ele>0.0</ele>
        <time>2026-04-25T16:11:49.000Z</time>
    </trkpt>
    <trkpt lat="59.1024756432" lon="30.0279736519">
        <ele>0.0</ele>
        <time>2026-04-25T16:11:52.000Z</time>
    </trkpt>
    <trkpt lat="59.1025185585" lon="30.0279521942">
        <ele>0.0</ele>
        <time>2026-04-25T16:11:54.000Z</time>
    </trkpt>
    <trkpt lat="59.1025400162" lon="30.0279521942">
        <ele>0.0</ele>
        <time>2026-04-25T16:11:57.000Z</time>
    </trkpt>
    <trkpt lat="59.1025829315" lon="30.0279736519">
        <ele>0.0</ele>
        <time>2026-04-25T16:11:59.000Z</time>
    </trkpt>
    <trkpt lat="59.1026043892" lon="30.0279951096">
        <ele>0.0</ele>
        <time>2026-04-25T16:12:02.000Z</time>
    </trkpt>
    <trkpt lat="59.1026258469" lon="30.0279736519">
        <ele>0.0</ele>
        <time>2026-04-25T16:12:04.000Z</time>
    </trkpt>
    <trkpt lat="59.1026473045" lon="30.0279736519">
        <ele>0.0</ele>
        <time>2026-04-25T16:12:07.000Z</time>
    </trkpt>
    <trkpt lat="59.1026902199" lon="30.0279951096">
        <ele>0.0</ele>
        <time>2026-04-25T16:12:09.000Z</time>
    </trkpt>
    <trkpt lat="59.1027116776" lon="30.0280380249">
        <ele>0.0</ele>
        <time>2026-04-25T16:12:12.000Z</time>
    </trkpt>
    <trkpt lat="59.1027116776" lon="30.0280809402">
        <ele>0.0</ele>
        <time>2026-04-25T16:12:14.000Z</time>
    </trkpt>
    <trkpt lat="59.1027116776" lon="30.0281023979">
        <ele>0.0</ele>
        <time>2026-04-25T16:12:17.000Z</time>
    </trkpt>
    <trkpt lat="59.1027116776" lon="30.0281667709">
        <ele>0.0</ele>
        <time>2026-04-25T16:12:19.000Z</time>
    </trkpt>
    <trkpt lat="59.1027331352" lon="30.0281882286">
        <ele>0.0</ele>
        <time>2026-04-25T16:12:22.000Z</time>
    </trkpt>
    <trkpt lat="59.1027331352" lon="30.028231144">
        <ele>0.0</ele>
        <time>2026-04-25T16:12:24.000Z</time>
    </trkpt>
    <trkpt lat="59.1027331352" lon="30.0282740593">
        <ele>0.0</ele>
        <time>2026-04-25T16:12:27.000Z</time>
    </trkpt>
    <trkpt lat="59.1027331352" lon="30.0282740593">
        <ele>0.0</ele>
        <time>2026-04-25T16:12:29.000Z</time>
    </trkpt>
    <trkpt lat="59.1027331352" lon="30.0282740593">
        <ele>0.0</ele>
        <time>2026-04-25T16:12:32.000Z</time>
    </trkpt>
    <trkpt lat="59.1027331352" lon="30.0283169746">
        <ele>0.0</ele>
        <time>2026-04-25T16:12:34.000Z</time>
    </trkpt>
    <trkpt lat="59.1027331352" lon="30.0283169746">
        <ele>0.0</ele>
        <time>2026-04-25T16:12:37.000Z</time>
    </trkpt>
    <trkpt lat="59.1027331352" lon="30.0283169746">
        <ele>0.0</ele>
        <time>2026-04-25T16:12:39.000Z</time>
    </trkpt>
    <trkpt lat="59.1027331352" lon="30.0283169746">
        <ele>0.0</ele>
        <time>2026-04-25T16:12:42.000Z</time>
    </trkpt>
    <trkpt lat="59.1027331352" lon="30.0283169746">
        <ele>0.0</ele>
        <time>2026-04-25T16:12:44.000Z</time>
    </trkpt>
    <trkpt lat="59.1027331352" lon="30.0283169746">
        <ele>0.0</ele>
        <time>2026-04-25T16:12:47.000Z</time>
    </trkpt>
    <trkpt lat="59.1027331352" lon="30.0283169746">
        <ele>0.0</ele>
        <time>2026-04-25T16:12:49.000Z</time>
    </trkpt>
    <trkpt lat="59.1027331352" lon="30.028295517">
        <ele>0.0</ele>
        <time>2026-04-25T16:12:52.000Z</time>
    </trkpt>
    <trkpt lat="59.1027331352" lon="30.0282740593">
        <ele>0.0</ele>
        <time>2026-04-25T16:12:54.000Z</time>
    </trkpt>
    <trkpt lat="59.1027331352" lon="30.0282526016">
        <ele>0.0</ele>
        <time>2026-04-25T16:12:57.000Z</time>
    </trkpt>
    <trkpt lat="59.1027331352" lon="30.0282096863">
        <ele>0.0</ele>
        <time>2026-04-25T16:12:59.000Z</time>
    </trkpt>
    <trkpt lat="59.1027116776" lon="30.0281882286">
        <ele>0.0</ele>
        <time>2026-04-25T16:13:02.000Z</time>
    </trkpt>
    <trkpt lat="59.1027116776" lon="30.0281882286">
        <ele>0.0</ele>
        <time>2026-04-25T16:13:04.000Z</time>
    </trkpt>
    <trkpt lat="59.1027116776" lon="30.0281882286">
        <ele>0.0</ele>
        <time>2026-04-25T16:13:07.000Z</time>
    </trkpt>
    <trkpt lat="59.1027116776" lon="30.0281882286">
        <ele>0.0</ele>
        <time>2026-04-25T16:13:09.000Z</time>
    </trkpt>
    <trkpt lat="59.1027116776" lon="30.0281882286">
        <ele>0.0</ele>
        <time>2026-04-25T16:13:12.000Z</time>
    </trkpt>
    <trkpt lat="59.1027116776" lon="30.0282096863">
        <ele>0.0</ele>
        <time>2026-04-25T16:13:14.000Z</time>
    </trkpt>
    <trkpt lat="59.1027116776" lon="30.0282096863">
        <ele>0.0</ele>
        <time>2026-04-25T16:13:17.000Z</time>
    </trkpt>
    <trkpt lat="59.1027116776" lon="30.0281882286">
        <ele>0.0</ele>
        <time>2026-04-25T16:13:19.000Z</time>
    </trkpt>
    <trkpt lat="59.1027116776" lon="30.0281882286">
        <ele>0.0</ele>
        <time>2026-04-25T16:13:22.000Z</time>
    </trkpt>
    <trkpt lat="59.1027116776" lon="30.0281882286">
        <ele>0.0</ele>
        <time>2026-04-25T16:13:24.000Z</time>
    </trkpt>
    <trkpt lat="59.1027116776" lon="30.0281882286">
        <ele>0.0</ele>
        <time>2026-04-25T16:13:27.000Z</time>
    </trkpt>
    <trkpt lat="59.1027331352" lon="30.0281882286">
        <ele>0.0</ele>
        <time>2026-04-25T16:13:29.000Z</time>
    </trkpt>
    <trkpt lat="59.1027545929" lon="30.0282096863">
        <ele>0.0</ele>
        <time>2026-04-25T16:13:32.000Z</time>
    </trkpt>
    <trkpt lat="59.1027545929" lon="30.0282096863">
        <ele>0.0</ele>
        <time>2026-04-25T16:13:34.000Z</time>
    </trkpt>
    <trkpt lat="59.1027545929" lon="30.0282096863">
        <ele>0.0</ele>
        <time>2026-04-25T16:13:37.000Z</time>
    </trkpt>
    <trkpt lat="59.1027545929" lon="30.0282096863">
        <ele>0.0</ele>
        <time>2026-04-25T16:13:39.000Z</time>
    </trkpt>
    <trkpt lat="59.1027545929" lon="30.0282096863">
        <ele>0.0</ele>
        <time>2026-04-25T16:13:42.000Z</time>
    </trkpt>
    <trkpt lat="59.1027545929" lon="30.0282096863">
        <ele>0.0</ele>
        <time>2026-04-25T16:13:44.000Z</time>
    </trkpt>
    <trkpt lat="59.1027545929" lon="30.0282096863">
        <ele>0.0</ele>
        <time>2026-04-25T16:13:47.000Z</time>
    </trkpt>
    <trkpt lat="59.1027545929" lon="30.0282096863">
        <ele>0.0</ele>
        <time>2026-04-25T16:13:49.000Z</time>
    </trkpt>
    <trkpt lat="59.1027545929" lon="30.0282096863">
        <ele>0.0</ele>
        <time>2026-04-25T16:13:52.000Z</time>
    </trkpt>
    <trkpt lat="59.1027545929" lon="30.0282096863">
        <ele>0.0</ele>
        <time>2026-04-25T16:13:54.000Z</time>
    </trkpt>
    <trkpt lat="59.1027545929" lon="30.0282096863">
        <ele>0.0</ele>
        <time>2026-04-25T16:13:57.000Z</time>
    </trkpt>
    <trkpt lat="59.1027545929" lon="30.0281882286">
        <ele>0.0</ele>
        <time>2026-04-25T16:13:59.000Z</time>
    </trkpt>
    <trkpt lat="59.1027545929" lon="30.0281882286">
        <ele>0.0</ele>
        <time>2026-04-25T16:14:02.000Z</time>
    </trkpt>
    <trkpt lat="59.1027545929" lon="30.0281882286">
        <ele>0.0</ele>
        <time>2026-04-25T16:14:04.000Z</time>
    </trkpt>
    <trkpt lat="59.1027545929" lon="30.0281882286">
        <ele>0.0</ele>
        <time>2026-04-25T16:14:07.000Z</time>
    </trkpt>
    <trkpt lat="59.1027545929" lon="30.0281882286">
        <ele>0.0</ele>
        <time>2026-04-25T16:14:09.000Z</time>
    </trkpt>
    <trkpt lat="59.1027545929" lon="30.0281882286">
        <ele>0.0</ele>
        <time>2026-04-25T16:14:12.000Z</time>
    </trkpt>
    <trkpt lat="59.1027545929" lon="30.0281882286">
        <ele>0.0</ele>
        <time>2026-04-25T16:14:14.000Z</time>
    </trkpt>
    <trkpt lat="59.1027545929" lon="30.0282096863">
        <ele>0.0</ele>
        <time>2026-04-25T16:14:17.000Z</time>
    </trkpt>
    <trkpt lat="59.1027545929" lon="30.0282096863">
        <ele>0.0</ele>
        <time>2026-04-25T16:14:19.000Z</time>
    </trkpt>
    <trkpt lat="59.1027760506" lon="30.028231144">
        <ele>0.0</ele>
        <time>2026-04-25T16:14:22.000Z</time>
    </trkpt>
    <trkpt lat="59.1027760506" lon="30.0282526016">
        <ele>0.0</ele>
        <time>2026-04-25T16:14:24.000Z</time>
    </trkpt>
    <trkpt lat="59.1027975082" lon="30.028231144">
        <ele>0.0</ele>
        <time>2026-04-25T16:14:27.000Z</time>
    </trkpt>
    <trkpt lat="59.1027975082" lon="30.028231144">
        <ele>0.0</ele>
        <time>2026-04-25T16:14:29.000Z</time>
    </trkpt>
    <trkpt lat="59.1027975082" lon="30.028231144">
        <ele>0.0</ele>
        <time>2026-04-25T16:14:32.000Z</time>
    </trkpt>
    <trkpt lat="59.1027975082" lon="30.028231144">
        <ele>0.0</ele>
        <time>2026-04-25T16:14:34.000Z</time>
    </trkpt>
    <trkpt lat="59.1027975082" lon="30.028231144">
        <ele>0.0</ele>
        <time>2026-04-25T16:14:37.000Z</time>
    </trkpt>
    <trkpt lat="59.1028189659" lon="30.0282526016">
        <ele>0.0</ele>
        <time>2026-04-25T16:14:39.000Z</time>
    </trkpt>
    <trkpt lat="59.1028189659" lon="30.0282526016">
        <ele>0.0</ele>
        <time>2026-04-25T16:14:42.000Z</time>
    </trkpt>
    <trkpt lat="59.1028189659" lon="30.0282526016">
        <ele>0.0</ele>
        <time>2026-04-25T16:14:44.000Z</time>
    </trkpt>
    <trkpt lat="59.1028404236" lon="30.0282526016">
        <ele>0.0</ele>
        <time>2026-04-25T16:14:47.000Z</time>
    </trkpt>
    <trkpt lat="59.1028833389" lon="30.0282526016">
        <ele>0.0</ele>
        <time>2026-04-25T16:14:49.000Z</time>
    </trkpt>
    <trkpt lat="59.1028833389" lon="30.0282526016">
        <ele>0.0</ele>
        <time>2026-04-25T16:14:52.000Z</time>
    </trkpt>
    <trkpt lat="59.1029262543" lon="30.0282740593">
        <ele>0.0</ele>
        <time>2026-04-25T16:14:54.000Z</time>
    </trkpt>
    <trkpt lat="59.1029477119" lon="30.028295517">
        <ele>0.0</ele>
        <time>2026-04-25T16:14:57.000Z</time>
    </trkpt>
    <trkpt lat="59.1029906273" lon="30.0283169746">
        <ele>0.0</ele>
        <time>2026-04-25T16:14:59.000Z</time>
    </trkpt>
    <trkpt lat="59.1029906273" lon="30.0283384323">
        <ele>0.0</ele>
        <time>2026-04-25T16:15:02.000Z</time>
    </trkpt>
    <trkpt lat="59.1029906273" lon="30.02835989">
        <ele>0.0</ele>
        <time>2026-04-25T16:15:04.000Z</time>
    </trkpt>
    <trkpt lat="59.1029906273" lon="30.0283813477">
        <ele>0.0</ele>
        <time>2026-04-25T16:15:07.000Z</time>
    </trkpt>
    <trkpt lat="59.1029906273" lon="30.0283813477">
        <ele>0.0</ele>
        <time>2026-04-25T16:15:09.000Z</time>
    </trkpt>
    <trkpt lat="59.1029906273" lon="30.0283813477">
        <ele>0.0</ele>
        <time>2026-04-25T16:15:12.000Z</time>
    </trkpt>
    <trkpt lat="59.103012085" lon="30.028424263">
        <ele>0.0</ele>
        <time>2026-04-25T16:15:14.000Z</time>
    </trkpt>
    <trkpt lat="59.103012085" lon="30.0284671783">
        <ele>0.0</ele>
        <time>2026-04-25T16:15:17.000Z</time>
    </trkpt>
    <trkpt lat="59.103012085" lon="30.0285100937">
        <ele>0.0</ele>
        <time>2026-04-25T16:15:19.000Z</time>
    </trkpt>
    <trkpt lat="59.1030335426" lon="30.0285315514">
        <ele>0.0</ele>
        <time>2026-04-25T16:15:22.000Z</time>
    </trkpt>
    <trkpt lat="59.1030335426" lon="30.0285959244">
        <ele>0.0</ele>
        <time>2026-04-25T16:15:24.000Z</time>
    </trkpt>
    <trkpt lat="59.1030550003" lon="30.028617382">
        <ele>0.0</ele>
        <time>2026-04-25T16:15:27.000Z</time>
    </trkpt>
    <trkpt lat="59.103076458" lon="30.0286602974">
        <ele>0.0</ele>
        <time>2026-04-25T16:15:29.000Z</time>
    </trkpt>
    <trkpt lat="59.1030979156" lon="30.0286602974">
        <ele>0.0</ele>
        <time>2026-04-25T16:15:32.000Z</time>
    </trkpt>
    <trkpt lat="59.1030979156" lon="30.028617382">
        <ele>0.0</ele>
        <time>2026-04-25T16:15:34.000Z</time>
    </trkpt>
    <trkpt lat="59.1030979156" lon="30.028617382">
        <ele>0.0</ele>
        <time>2026-04-25T16:15:37.000Z</time>
    </trkpt>
    <trkpt lat="59.1030979156" lon="30.0286388397">
        <ele>0.0</ele>
        <time>2026-04-25T16:15:39.000Z</time>
    </trkpt>
    <trkpt lat="59.1030979156" lon="30.0286602974">
        <ele>0.0</ele>
        <time>2026-04-25T16:15:42.000Z</time>
    </trkpt>
    <trkpt lat="59.1030979156" lon="30.0286817551">
        <ele>0.0</ele>
        <time>2026-04-25T16:15:44.000Z</time>
    </trkpt>
    <trkpt lat="59.1031193733" lon="30.0287246704">
        <ele>0.0</ele>
        <time>2026-04-25T16:15:47.000Z</time>
    </trkpt>
    <trkpt lat="59.1031622887" lon="30.0288534164">
        <ele>0.0</ele>
        <time>2026-04-25T16:15:49.000Z</time>
    </trkpt>
    <trkpt lat="59.103205204" lon="30.0288963318">
        <ele>0.0</ele>
        <time>2026-04-25T16:15:52.000Z</time>
    </trkpt>
    <trkpt lat="59.1032266617" lon="30.0290036201">
        <ele>0.0</ele>
        <time>2026-04-25T16:15:54.000Z</time>
    </trkpt>
    <trkpt lat="59.1032266617" lon="30.0290894508">
        <ele>0.0</ele>
        <time>2026-04-25T16:15:57.000Z</time>
    </trkpt>
    <trkpt lat="59.1032266617" lon="30.0291109085">
        <ele>0.0</ele>
        <time>2026-04-25T16:15:59.000Z</time>
    </trkpt>
    <trkpt lat="59.1032266617" lon="30.0291109085">
        <ele>0.0</ele>
        <time>2026-04-25T16:16:02.000Z</time>
    </trkpt>
    <trkpt lat="59.1032266617" lon="30.0289821625">
        <ele>0.0</ele>
        <time>2026-04-25T16:16:04.000Z</time>
    </trkpt>
    <trkpt lat="59.103205204" lon="30.0288534164">
        <ele>0.0</ele>
        <time>2026-04-25T16:16:07.000Z</time>
    </trkpt>
    <trkpt lat="59.1031837463" lon="30.0287032127">
        <ele>0.0</ele>
        <time>2026-04-25T16:16:09.000Z</time>
    </trkpt>
    <trkpt lat="59.1031622887" lon="30.0285959244">
        <ele>0.0</ele>
        <time>2026-04-25T16:16:12.000Z</time>
    </trkpt>
    <trkpt lat="59.103140831" lon="30.028488636">
        <ele>0.0</ele>
        <time>2026-04-25T16:16:14.000Z</time>
    </trkpt>
    <trkpt lat="59.1031193733" lon="30.0284028053">
        <ele>0.0</ele>
        <time>2026-04-25T16:16:17.000Z</time>
    </trkpt>
    <trkpt lat="59.1031193733" lon="30.028295517">
        <ele>0.0</ele>
        <time>2026-04-25T16:16:19.000Z</time>
    </trkpt>
    <trkpt lat="59.1031193733" lon="30.028295517">
        <ele>0.0</ele>
        <time>2026-04-25T16:16:22.000Z</time>
    </trkpt>
    <trkpt lat="59.1031193733" lon="30.028295517">
        <ele>0.0</ele>
        <time>2026-04-25T16:16:24.000Z</time>
    </trkpt>
    <trkpt lat="59.1031193733" lon="30.028295517">
        <ele>0.0</ele>
        <time>2026-04-25T16:16:27.000Z</time>
    </trkpt>
    <trkpt lat="59.1031193733" lon="30.0282526016">
        <ele>0.0</ele>
        <time>2026-04-25T16:16:29.000Z</time>
    </trkpt>
    <trkpt lat="59.1031193733" lon="30.028231144">
        <ele>0.0</ele>
        <time>2026-04-25T16:16:32.000Z</time>
    </trkpt>
    <trkpt lat="59.103140831" lon="30.028231144">
        <ele>0.0</ele>
        <time>2026-04-25T16:16:34.000Z</time>
    </trkpt>
    <trkpt lat="59.1031622887" lon="30.028231144">
        <ele>0.0</ele>
        <time>2026-04-25T16:16:37.000Z</time>
    </trkpt>
    <trkpt lat="59.1031837463" lon="30.0282526016">
        <ele>0.0</ele>
        <time>2026-04-25T16:16:39.000Z</time>
    </trkpt>
    <trkpt lat="59.103205204" lon="30.028231144">
        <ele>0.0</ele>
        <time>2026-04-25T16:16:42.000Z</time>
    </trkpt>
    <trkpt lat="59.103205204" lon="30.028231144">
        <ele>0.0</ele>
        <time>2026-04-25T16:16:44.000Z</time>
    </trkpt>
    <trkpt lat="59.103205204" lon="30.028231144">
        <ele>0.0</ele>
        <time>2026-04-25T16:16:47.000Z</time>
    </trkpt>
    <trkpt lat="59.1032266617" lon="30.028231144">
        <ele>0.0</ele>
        <time>2026-04-25T16:16:49.000Z</time>
    </trkpt>
    <trkpt lat="59.1032266617" lon="30.028231144">
        <ele>0.0</ele>
        <time>2026-04-25T16:16:52.000Z</time>
    </trkpt>
    <trkpt lat="59.1032266617" lon="30.028231144">
        <ele>0.0</ele>
        <time>2026-04-25T16:16:54.000Z</time>
    </trkpt>
    <trkpt lat="59.1032481194" lon="30.028231144">
        <ele>0.0</ele>
        <time>2026-04-25T16:16:57.000Z</time>
    </trkpt>
    <trkpt lat="59.103269577" lon="30.0282096863">
        <ele>0.0</ele>
        <time>2026-04-25T16:16:59.000Z</time>
    </trkpt>
    <trkpt lat="59.103269577" lon="30.0282096863">
        <ele>0.0</ele>
        <time>2026-04-25T16:17:02.000Z</time>
    </trkpt>
    <trkpt lat="59.103269577" lon="30.028231144">
        <ele>0.0</ele>
        <time>2026-04-25T16:17:04.000Z</time>
    </trkpt>
    <trkpt lat="59.1032910347" lon="30.0281882286">
        <ele>0.0</ele>
        <time>2026-04-25T16:17:07.000Z</time>
    </trkpt>
    <trkpt lat="59.1033124924" lon="30.0281667709">
        <ele>0.0</ele>
        <time>2026-04-25T16:17:09.000Z</time>
    </trkpt>
    <trkpt lat="59.1032910347" lon="30.0281667709">
        <ele>0.0</ele>
        <time>2026-04-25T16:17:12.000Z</time>
    </trkpt>
    <trkpt lat="59.103269577" lon="30.0281667709">
        <ele>0.0</ele>
        <time>2026-04-25T16:17:14.000Z</time>
    </trkpt>
    <trkpt lat="59.103269577" lon="30.0281667709">
        <ele>0.0</ele>
        <time>2026-04-25T16:17:17.000Z</time>
    </trkpt>
    <trkpt lat="59.1032910347" lon="30.0281882286">
        <ele>0.0</ele>
        <time>2026-04-25T16:17:19.000Z</time>
    </trkpt>
    <trkpt lat="59.1033124924" lon="30.0281882286">
        <ele>0.0</ele>
        <time>2026-04-25T16:17:22.000Z</time>
    </trkpt>
    <trkpt lat="59.10333395" lon="30.0281667709">
        <ele>0.0</ele>
        <time>2026-04-25T16:17:24.000Z</time>
    </trkpt>
    <trkpt lat="59.1033554077" lon="30.0281667709">
        <ele>0.0</ele>
        <time>2026-04-25T16:17:27.000Z</time>
    </trkpt>
    <trkpt lat="59.1033983231" lon="30.0281667709">
        <ele>0.0</ele>
        <time>2026-04-25T16:17:29.000Z</time>
    </trkpt>
    <trkpt lat="59.1033983231" lon="30.0281667709">
        <ele>0.0</ele>
        <time>2026-04-25T16:17:32.000Z</time>
    </trkpt>
    <trkpt lat="59.1034197807" lon="30.0282096863">
        <ele>0.0</ele>
        <time>2026-04-25T16:17:34.000Z</time>
    </trkpt>
    <trkpt lat="59.1034197807" lon="30.028231144">
        <ele>0.0</ele>
        <time>2026-04-25T16:17:37.000Z</time>
    </trkpt>
    <trkpt lat="59.1034412384" lon="30.0282526016">
        <ele>0.0</ele>
        <time>2026-04-25T16:17:39.000Z</time>
    </trkpt>
    <trkpt lat="59.1034412384" lon="30.0282526016">
        <ele>0.0</ele>
        <time>2026-04-25T16:17:42.000Z</time>
    </trkpt>
    <trkpt lat="59.1034412384" lon="30.0282526016">
        <ele>0.0</ele>
        <time>2026-04-25T16:17:44.000Z</time>
    </trkpt>
    <trkpt lat="59.1034412384" lon="30.0282740593">
        <ele>0.0</ele>
        <time>2026-04-25T16:17:47.000Z</time>
    </trkpt>
    <trkpt lat="59.1034626961" lon="30.028295517">
        <ele>0.0</ele>
        <time>2026-04-25T16:17:49.000Z</time>
    </trkpt>
    <trkpt lat="59.1034841537" lon="30.0283169746">
        <ele>0.0</ele>
        <time>2026-04-25T16:17:52.000Z</time>
    </trkpt>
    <trkpt lat="59.1035056114" lon="30.028295517">
        <ele>0.0</ele>
        <time>2026-04-25T16:17:54.000Z</time>
    </trkpt>
    <trkpt lat="59.1035056114" lon="30.028295517">
        <ele>0.0</ele>
        <time>2026-04-25T16:17:57.000Z</time>
    </trkpt>
    <trkpt lat="59.1035056114" lon="30.0283384323">
        <ele>0.0</ele>
        <time>2026-04-25T16:17:59.000Z</time>
    </trkpt>
    <trkpt lat="59.1035270691" lon="30.02835989">
        <ele>0.0</ele>
        <time>2026-04-25T16:18:02.000Z</time>
    </trkpt>
    <trkpt lat="59.1035485268" lon="30.0283813477">
        <ele>0.0</ele>
        <time>2026-04-25T16:18:04.000Z</time>
    </trkpt>
    <trkpt lat="59.1035699844" lon="30.0284028053">
        <ele>0.0</ele>
        <time>2026-04-25T16:18:07.000Z</time>
    </trkpt>
    <trkpt lat="59.1035914421" lon="30.0284457207">
        <ele>0.0</ele>
        <time>2026-04-25T16:18:09.000Z</time>
    </trkpt>
    <trkpt lat="59.1035699844" lon="30.0284457207">
        <ele>0.0</ele>
        <time>2026-04-25T16:18:12.000Z</time>
    </trkpt>
    <trkpt lat="59.1035699844" lon="30.028488636">
        <ele>0.0</ele>
        <time>2026-04-25T16:18:14.000Z</time>
    </trkpt>
    <trkpt lat="59.1035699844" lon="30.028488636">
        <ele>0.0</ele>
        <time>2026-04-25T16:18:17.000Z</time>
    </trkpt>
    <trkpt lat="59.1035914421" lon="30.028424263">
        <ele>0.0</ele>
        <time>2026-04-25T16:18:19.000Z</time>
    </trkpt>
    <trkpt lat="59.1036128998" lon="30.0284028053">
        <ele>0.0</ele>
        <time>2026-04-25T16:18:22.000Z</time>
    </trkpt>
    <trkpt lat="59.1036128998" lon="30.0283813477">
        <ele>0.0</ele>
        <time>2026-04-25T16:18:24.000Z</time>
    </trkpt>
    <trkpt lat="59.1036128998" lon="30.0283813477">
        <ele>0.0</ele>
        <time>2026-04-25T16:18:27.000Z</time>
    </trkpt>
    <trkpt lat="59.1036343575" lon="30.0283813477">
        <ele>0.0</ele>
        <time>2026-04-25T16:18:29.000Z</time>
    </trkpt>
    <trkpt lat="59.1036558151" lon="30.0284028053">
        <ele>0.0</ele>
        <time>2026-04-25T16:18:32.000Z</time>
    </trkpt>
    <trkpt lat="59.1036987305" lon="30.0284028053">
        <ele>0.0</ele>
        <time>2026-04-25T16:18:34.000Z</time>
    </trkpt>
    <trkpt lat="59.1036987305" lon="30.028424263">
        <ele>0.0</ele>
        <time>2026-04-25T16:18:37.000Z</time>
    </trkpt>
    <trkpt lat="59.1037201881" lon="30.0284457207">
        <ele>0.0</ele>
        <time>2026-04-25T16:18:39.000Z</time>
    </trkpt>
    <trkpt lat="59.1037201881" lon="30.0284457207">
        <ele>0.0</ele>
        <time>2026-04-25T16:18:42.000Z</time>
    </trkpt>
    <trkpt lat="59.1037201881" lon="30.0284457207">
        <ele>0.0</ele>
        <time>2026-04-25T16:18:44.000Z</time>
    </trkpt>
    <trkpt lat="59.1037416458" lon="30.0284671783">
        <ele>0.0</ele>
        <time>2026-04-25T16:18:47.000Z</time>
    </trkpt>
    <trkpt lat="59.1037631035" lon="30.028488636">
        <ele>0.0</ele>
        <time>2026-04-25T16:18:49.000Z</time>
    </trkpt>
    <trkpt lat="59.1037845612" lon="30.028488636">
        <ele>0.0</ele>
        <time>2026-04-25T16:18:52.000Z</time>
    </trkpt>
    <trkpt lat="59.1038060188" lon="30.0285100937">
        <ele>0.0</ele>
        <time>2026-04-25T16:18:54.000Z</time>
    </trkpt>
    <trkpt lat="59.1038060188" lon="30.0285315514">
        <ele>0.0</ele>
        <time>2026-04-25T16:18:57.000Z</time>
    </trkpt>
    <trkpt lat="59.1038060188" lon="30.0285315514">
        <ele>0.0</ele>
        <time>2026-04-25T16:18:59.000Z</time>
    </trkpt>
    <trkpt lat="59.1038060188" lon="30.028488636">
        <ele>0.0</ele>
        <time>2026-04-25T16:19:02.000Z</time>
    </trkpt>
    <trkpt lat="59.1037845612" lon="30.028424263">
        <ele>0.0</ele>
        <time>2026-04-25T16:19:04.000Z</time>
    </trkpt>
    <trkpt lat="59.1037845612" lon="30.0284028053">
        <ele>0.0</ele>
        <time>2026-04-25T16:19:07.000Z</time>
    </trkpt>
    <trkpt lat="59.1037416458" lon="30.0284028053">
        <ele>0.0</ele>
        <time>2026-04-25T16:19:09.000Z</time>
    </trkpt>
    <trkpt lat="59.1037416458" lon="30.0284028053">
        <ele>0.0</ele>
        <time>2026-04-25T16:19:12.000Z</time>
    </trkpt>
    <trkpt lat="59.1037416458" lon="30.0284028053">
        <ele>0.0</ele>
        <time>2026-04-25T16:19:14.000Z</time>
    </trkpt>
    <trkpt lat="59.1037416458" lon="30.0284028053">
        <ele>0.0</ele>
        <time>2026-04-25T16:19:17.000Z</time>
    </trkpt>
    <trkpt lat="59.1037201881" lon="30.0284457207">
        <ele>0.0</ele>
        <time>2026-04-25T16:19:19.000Z</time>
    </trkpt>
    <trkpt lat="59.1037201881" lon="30.0284671783">
        <ele>0.0</ele>
        <time>2026-04-25T16:19:22.000Z</time>
    </trkpt>
    <trkpt lat="59.1037201881" lon="30.0284671783">
        <ele>0.0</ele>
        <time>2026-04-25T16:19:24.000Z</time>
    </trkpt>
    <trkpt lat="59.1037201881" lon="30.0284671783">
        <ele>0.0</ele>
        <time>2026-04-25T16:19:27.000Z</time>
    </trkpt>
    <trkpt lat="59.1037416458" lon="30.028488636">
        <ele>0.0</ele>
        <time>2026-04-25T16:19:29.000Z</time>
    </trkpt>
    <trkpt lat="59.1037416458" lon="30.0285100937">
        <ele>0.0</ele>
        <time>2026-04-25T16:19:32.000Z</time>
    </trkpt>
    <trkpt lat="59.1037416458" lon="30.028553009">
        <ele>0.0</ele>
        <time>2026-04-25T16:19:34.000Z</time>
    </trkpt>
    <trkpt lat="59.1037416458" lon="30.0285959244">
        <ele>0.0</ele>
        <time>2026-04-25T16:19:37.000Z</time>
    </trkpt>
    <trkpt lat="59.1037631035" lon="30.0286602974">
        <ele>0.0</ele>
        <time>2026-04-25T16:19:39.000Z</time>
    </trkpt>
    <trkpt lat="59.1037845612" lon="30.0286602974">
        <ele>0.0</ele>
        <time>2026-04-25T16:19:42.000Z</time>
    </trkpt>
    <trkpt lat="59.1037845612" lon="30.0287032127">
        <ele>0.0</ele>
        <time>2026-04-25T16:19:44.000Z</time>
    </trkpt>
    <trkpt lat="59.1038060188" lon="30.0287461281">
        <ele>0.0</ele>
        <time>2026-04-25T16:19:47.000Z</time>
    </trkpt>
    <trkpt lat="59.1038060188" lon="30.0287890434">
        <ele>0.0</ele>
        <time>2026-04-25T16:19:49.000Z</time>
    </trkpt>
    <trkpt lat="59.1038274765" lon="30.0288319588">
        <ele>0.0</ele>
        <time>2026-04-25T16:19:52.000Z</time>
    </trkpt>
    <trkpt lat="59.1038060188" lon="30.0288748741">
        <ele>0.0</ele>
        <time>2026-04-25T16:19:54.000Z</time>
    </trkpt>
    <trkpt lat="59.1038060188" lon="30.0288748741">
        <ele>0.0</ele>
        <time>2026-04-25T16:19:57.000Z</time>
    </trkpt>
    <trkpt lat="59.1038060188" lon="30.0288748741">
        <ele>0.0</ele>
        <time>2026-04-25T16:19:59.000Z</time>
    </trkpt>
    <trkpt lat="59.1038060188" lon="30.0288963318">
        <ele>0.0</ele>
        <time>2026-04-25T16:20:02.000Z</time>
    </trkpt>
    <trkpt lat="59.1038060188" lon="30.0288963318">
        <ele>0.0</ele>
        <time>2026-04-25T16:20:04.000Z</time>
    </trkpt>
    <trkpt lat="59.1038274765" lon="30.0288963318">
        <ele>0.0</ele>
        <time>2026-04-25T16:20:07.000Z</time>
    </trkpt>
    <trkpt lat="59.1038274765" lon="30.0289821625">
        <ele>0.0</ele>
        <time>2026-04-25T16:20:09.000Z</time>
    </trkpt>
    <trkpt lat="59.1038489342" lon="30.0290036201">
        <ele>0.0</ele>
        <time>2026-04-25T16:20:12.000Z</time>
    </trkpt>
    <trkpt lat="59.1038489342" lon="30.0290250778">
        <ele>0.0</ele>
        <time>2026-04-25T16:20:14.000Z</time>
    </trkpt>
    <trkpt lat="59.1038703918" lon="30.0290250778">
        <ele>0.0</ele>
        <time>2026-04-25T16:20:17.000Z</time>
    </trkpt>
    <trkpt lat="59.1039133072" lon="30.0290465355">
        <ele>0.0</ele>
        <time>2026-04-25T16:20:19.000Z</time>
    </trkpt>
    <trkpt lat="59.1039347649" lon="30.0290465355">
        <ele>0.0</ele>
        <time>2026-04-25T16:20:22.000Z</time>
    </trkpt>
    <trkpt lat="59.1039347649" lon="30.0290679932">
        <ele>0.0</ele>
        <time>2026-04-25T16:20:24.000Z</time>
    </trkpt>
    <trkpt lat="59.1039133072" lon="30.0290679932">
        <ele>0.0</ele>
        <time>2026-04-25T16:20:27.000Z</time>
    </trkpt>
    <trkpt lat="59.1039347649" lon="30.0290679932">
        <ele>0.0</ele>
        <time>2026-04-25T16:20:29.000Z</time>
    </trkpt>
    <trkpt lat="59.1039133072" lon="30.0290894508">
        <ele>0.0</ele>
        <time>2026-04-25T16:20:32.000Z</time>
    </trkpt>
    <trkpt lat="59.1039347649" lon="30.0291109085">
        <ele>0.0</ele>
        <time>2026-04-25T16:20:34.000Z</time>
    </trkpt>
    <trkpt lat="59.1039562225" lon="30.0291538239">
        <ele>0.0</ele>
        <time>2026-04-25T16:20:37.000Z</time>
    </trkpt>
    <trkpt lat="59.1039562225" lon="30.0292181969">
        <ele>0.0</ele>
        <time>2026-04-25T16:20:39.000Z</time>
    </trkpt>
    <trkpt lat="59.1039562225" lon="30.0292396545">
        <ele>0.0</ele>
        <time>2026-04-25T16:20:42.000Z</time>
    </trkpt>
    <trkpt lat="59.1039562225" lon="30.0292825699">
        <ele>0.0</ele>
        <time>2026-04-25T16:20:44.000Z</time>
    </trkpt>
    <trkpt lat="59.1039562225" lon="30.0292825699">
        <ele>0.0</ele>
        <time>2026-04-25T16:20:47.000Z</time>
    </trkpt>
    <trkpt lat="59.1039562225" lon="30.0292825699">
        <ele>0.0</ele>
        <time>2026-04-25T16:20:49.000Z</time>
    </trkpt>
    <trkpt lat="59.1039562225" lon="30.0292825699">
        <ele>0.0</ele>
        <time>2026-04-25T16:20:52.000Z</time>
    </trkpt>
    <trkpt lat="59.1039776802" lon="30.0292611122">
        <ele>0.0</ele>
        <time>2026-04-25T16:20:54.000Z</time>
    </trkpt>
    <trkpt lat="59.1039776802" lon="30.0291967392">
        <ele>0.0</ele>
        <time>2026-04-25T16:20:57.000Z</time>
    </trkpt>
    <trkpt lat="59.1039562225" lon="30.0291538239">
        <ele>0.0</ele>
        <time>2026-04-25T16:20:59.000Z</time>
    </trkpt>
    <trkpt lat="59.1039562225" lon="30.0291323662">
        <ele>0.0</ele>
        <time>2026-04-25T16:21:02.000Z</time>
    </trkpt>
    <trkpt lat="59.1039347649" lon="30.0291109085">
        <ele>0.0</ele>
        <time>2026-04-25T16:21:04.000Z</time>
    </trkpt>
    <trkpt lat="59.1039347649" lon="30.0290679932">
        <ele>0.0</ele>
        <time>2026-04-25T16:21:07.000Z</time>
    </trkpt>
    <trkpt lat="59.1039347649" lon="30.0290679932">
        <ele>0.0</ele>
        <time>2026-04-25T16:21:09.000Z</time>
    </trkpt>
    <trkpt lat="59.1039347649" lon="30.0290679932">
        <ele>0.0</ele>
        <time>2026-04-25T16:21:12.000Z</time>
    </trkpt>
    <trkpt lat="59.1039133072" lon="30.0290465355">
        <ele>0.0</ele>
        <time>2026-04-25T16:21:14.000Z</time>
    </trkpt>
    <trkpt lat="59.1039133072" lon="30.0290679932">
        <ele>0.0</ele>
        <time>2026-04-25T16:21:17.000Z</time>
    </trkpt>
    <trkpt lat="59.1039133072" lon="30.0290679932">
        <ele>0.0</ele>
        <time>2026-04-25T16:21:19.000Z</time>
    </trkpt>
    <trkpt lat="59.1038703918" lon="30.0290679932">
        <ele>0.0</ele>
        <time>2026-04-25T16:21:22.000Z</time>
    </trkpt>
    <trkpt lat="59.1038489342" lon="30.0290894508">
        <ele>0.0</ele>
        <time>2026-04-25T16:21:24.000Z</time>
    </trkpt>
    <trkpt lat="59.1038060188" lon="30.0290894508">
        <ele>0.0</ele>
        <time>2026-04-25T16:21:27.000Z</time>
    </trkpt>
    <trkpt lat="59.1038060188" lon="30.0291323662">
        <ele>0.0</ele>
        <time>2026-04-25T16:21:29.000Z</time>
    </trkpt>
    <trkpt lat="59.1038060188" lon="30.0291752815">
        <ele>0.0</ele>
        <time>2026-04-25T16:21:32.000Z</time>
    </trkpt>
    <trkpt lat="59.1038060188" lon="30.0292181969">
        <ele>0.0</ele>
        <time>2026-04-25T16:21:34.000Z</time>
    </trkpt>
    <trkpt lat="59.1038060188" lon="30.0291967392">
        <ele>0.0</ele>
        <time>2026-04-25T16:21:37.000Z</time>
    </trkpt>
    <trkpt lat="59.1037845612" lon="30.0291538239">
        <ele>0.0</ele>
        <time>2026-04-25T16:21:39.000Z</time>
    </trkpt>
    <trkpt lat="59.1037845612" lon="30.0291538239">
        <ele>0.0</ele>
        <time>2026-04-25T16:21:42.000Z</time>
    </trkpt>
    <trkpt lat="59.1037845612" lon="30.0291538239">
        <ele>0.0</ele>
        <time>2026-04-25T16:21:44.000Z</time>
    </trkpt>
    <trkpt lat="59.1037845612" lon="30.0291538239">
        <ele>0.0</ele>
        <time>2026-04-25T16:21:47.000Z</time>
    </trkpt>
    <trkpt lat="59.1037631035" lon="30.0291752815">
        <ele>0.0</ele>
        <time>2026-04-25T16:21:49.000Z</time>
    </trkpt>
    <trkpt lat="59.1037416458" lon="30.0291752815">
        <ele>0.0</ele>
        <time>2026-04-25T16:21:52.000Z</time>
    </trkpt>
    <trkpt lat="59.1037201881" lon="30.0291967392">
        <ele>0.0</ele>
        <time>2026-04-25T16:21:54.000Z</time>
    </trkpt>
    <trkpt lat="59.1036987305" lon="30.0291967392">
        <ele>0.0</ele>
        <time>2026-04-25T16:21:57.000Z</time>
    </trkpt>
    <trkpt lat="59.1036772728" lon="30.0292396545">
        <ele>0.0</ele>
        <time>2026-04-25T16:21:59.000Z</time>
    </trkpt>
    <trkpt lat="59.1036772728" lon="30.0292396545">
        <ele>0.0</ele>
        <time>2026-04-25T16:22:02.000Z</time>
    </trkpt>
    <trkpt lat="59.1036558151" lon="30.0292611122">
        <ele>0.0</ele>
        <time>2026-04-25T16:22:04.000Z</time>
    </trkpt>
    <trkpt lat="59.1036558151" lon="30.0292611122">
        <ele>0.0</ele>
        <time>2026-04-25T16:22:07.000Z</time>
    </trkpt>
    <trkpt lat="59.1036558151" lon="30.0292611122">
        <ele>0.0</ele>
        <time>2026-04-25T16:22:09.000Z</time>
    </trkpt>
    <trkpt lat="59.1036558151" lon="30.0292611122">
        <ele>0.0</ele>
        <time>2026-04-25T16:22:12.000Z</time>
    </trkpt>
    <trkpt lat="59.1036343575" lon="30.0292611122">
        <ele>0.0</ele>
        <time>2026-04-25T16:22:14.000Z</time>
    </trkpt>
    <trkpt lat="59.1036128998" lon="30.0292611122">
        <ele>0.0</ele>
        <time>2026-04-25T16:22:17.000Z</time>
    </trkpt>
    <trkpt lat="59.1035699844" lon="30.0292611122">
        <ele>0.0</ele>
        <time>2026-04-25T16:22:19.000Z</time>
    </trkpt>
    <trkpt lat="59.1035485268" lon="30.0292611122">
        <ele>0.0</ele>
        <time>2026-04-25T16:22:22.000Z</time>
    </trkpt>
    <trkpt lat="59.1035485268" lon="30.0292396545">
        <ele>0.0</ele>
        <time>2026-04-25T16:22:24.000Z</time>
    </trkpt>
    <trkpt lat="59.1035270691" lon="30.0291752815">
        <ele>0.0</ele>
        <time>2026-04-25T16:22:27.000Z</time>
    </trkpt>
    <trkpt lat="59.1035056114" lon="30.0291109085">
        <ele>0.0</ele>
        <time>2026-04-25T16:22:29.000Z</time>
    </trkpt>
    <trkpt lat="59.1034841537" lon="30.0291109085">
        <ele>0.0</ele>
        <time>2026-04-25T16:22:32.000Z</time>
    </trkpt>
    <trkpt lat="59.1034626961" lon="30.0291109085">
        <ele>0.0</ele>
        <time>2026-04-25T16:22:34.000Z</time>
    </trkpt>
    <trkpt lat="59.1034626961" lon="30.0291109085">
        <ele>0.0</ele>
        <time>2026-04-25T16:22:37.000Z</time>
    </trkpt>
    <trkpt lat="59.1034412384" lon="30.0290894508">
        <ele>0.0</ele>
        <time>2026-04-25T16:22:39.000Z</time>
    </trkpt>
    <trkpt lat="59.1034197807" lon="30.0290679932">
        <ele>0.0</ele>
        <time>2026-04-25T16:22:42.000Z</time>
    </trkpt>
    <trkpt lat="59.1033983231" lon="30.0290465355">
        <ele>0.0</ele>
        <time>2026-04-25T16:22:44.000Z</time>
    </trkpt>
    <trkpt lat="59.1033983231" lon="30.0290465355">
        <ele>0.0</ele>
        <time>2026-04-25T16:22:47.000Z</time>
    </trkpt>
    <trkpt lat="59.1033983231" lon="30.0290250778">
        <ele>0.0</ele>
        <time>2026-04-25T16:22:49.000Z</time>
    </trkpt>
    <trkpt lat="59.1033983231" lon="30.0290250778">
        <ele>0.0</ele>
        <time>2026-04-25T16:22:52.000Z</time>
    </trkpt>
    <trkpt lat="59.1033983231" lon="30.0290250778">
        <ele>0.0</ele>
        <time>2026-04-25T16:22:54.000Z</time>
    </trkpt>
    <trkpt lat="59.1033983231" lon="30.0290465355">
        <ele>0.0</ele>
        <time>2026-04-25T16:22:57.000Z</time>
    </trkpt>
    <trkpt lat="59.1033983231" lon="30.0290465355">
        <ele>0.0</ele>
        <time>2026-04-25T16:22:59.000Z</time>
    </trkpt>
    <trkpt lat="59.1033983231" lon="30.0290465355">
        <ele>0.0</ele>
        <time>2026-04-25T16:23:02.000Z</time>
    </trkpt>
    <trkpt lat="59.1033983231" lon="30.0290465355">
        <ele>0.0</ele>
        <time>2026-04-25T16:23:04.000Z</time>
    </trkpt>
    <trkpt lat="59.1033983231" lon="30.0290465355">
        <ele>0.0</ele>
        <time>2026-04-25T16:23:07.000Z</time>
    </trkpt>
    <trkpt lat="59.1033768654" lon="30.0291538239">
        <ele>0.0</ele>
        <time>2026-04-25T16:23:12.000Z</time>
    </trkpt>
    <trkpt lat="59.1033768654" lon="30.0292181969">
        <ele>0.0</ele>
        <time>2026-04-25T16:23:14.000Z</time>
    </trkpt>
    <trkpt lat="59.1033554077" lon="30.0292396545">
        <ele>0.0</ele>
        <time>2026-04-25T16:23:17.000Z</time>
    </trkpt>
    <trkpt lat="59.1033554077" lon="30.0293254852">
        <ele>0.0</ele>
        <time>2026-04-25T16:23:19.000Z</time>
    </trkpt>
    <trkpt lat="59.10333395" lon="30.0293684006">
        <ele>0.0</ele>
        <time>2026-04-25T16:23:22.000Z</time>
    </trkpt>
    <trkpt lat="59.1032910347" lon="30.0294113159">
        <ele>0.0</ele>
        <time>2026-04-25T16:23:24.000Z</time>
    </trkpt>
    <trkpt lat="59.103269577" lon="30.0294327736">
        <ele>0.0</ele>
        <time>2026-04-25T16:23:27.000Z</time>
    </trkpt>
    <trkpt lat="59.1032481194" lon="30.0294113159">
        <ele>0.0</ele>
        <time>2026-04-25T16:23:29.000Z</time>
    </trkpt>
    <trkpt lat="59.1032266617" lon="30.0294327736">
        <ele>0.0</ele>
        <time>2026-04-25T16:23:32.000Z</time>
    </trkpt>
    <trkpt lat="59.1031837463" lon="30.0294971466">
        <ele>0.0</ele>
        <time>2026-04-25T16:23:34.000Z</time>
    </trkpt>
    <trkpt lat="59.1031622887" lon="30.0295186043">
        <ele>0.0</ele>
        <time>2026-04-25T16:23:37.000Z</time>
    </trkpt>
    <trkpt lat="59.103140831" lon="30.029540062">
        <ele>0.0</ele>
        <time>2026-04-25T16:23:39.000Z</time>
    </trkpt>
    <trkpt lat="59.1031193733" lon="30.029540062">
        <ele>0.0</ele>
        <time>2026-04-25T16:23:42.000Z</time>
    </trkpt>
    <trkpt lat="59.1030979156" lon="30.0295829773">
        <ele>0.0</ele>
        <time>2026-04-25T16:23:44.000Z</time>
    </trkpt>
    <trkpt lat="59.103076458" lon="30.0296258926">
        <ele>0.0</ele>
        <time>2026-04-25T16:23:47.000Z</time>
    </trkpt>
    <trkpt lat="59.1030335426" lon="30.0296902657">
        <ele>0.0</ele>
        <time>2026-04-25T16:23:49.000Z</time>
    </trkpt>
    <trkpt lat="59.1030335426" lon="30.0296902657">
        <ele>0.0</ele>
        <time>2026-04-25T16:23:52.000Z</time>
    </trkpt>
    <trkpt lat="59.1030979156" lon="30.029604435">
        <ele>0.0</ele>
        <time>2026-04-25T16:23:54.000Z</time>
    </trkpt>
    <trkpt lat="59.103140831" lon="30.0295186043">
        <ele>0.0</ele>
        <time>2026-04-25T16:23:57.000Z</time>
    </trkpt>
    <trkpt lat="59.1031622887" lon="30.0294113159">
        <ele>0.0</ele>
        <time>2026-04-25T16:23:59.000Z</time>
    </trkpt>
    <trkpt lat="59.103205204" lon="30.0293469429">
        <ele>0.0</ele>
        <time>2026-04-25T16:24:02.000Z</time>
    </trkpt>
    <trkpt lat="59.1032266617" lon="30.0292611122">
        <ele>0.0</ele>
        <time>2026-04-25T16:24:04.000Z</time>
    </trkpt>
    <trkpt lat="59.1032266617" lon="30.0292181969">
        <ele>0.0</ele>
        <time>2026-04-25T16:24:07.000Z</time>
    </trkpt>
    <trkpt lat="59.1032481194" lon="30.0291323662">
        <ele>0.0</ele>
        <time>2026-04-25T16:24:09.000Z</time>
    </trkpt>
    <trkpt lat="59.1032481194" lon="30.0291323662">
        <ele>0.0</ele>
        <time>2026-04-25T16:24:12.000Z</time>
    </trkpt>
    <trkpt lat="59.1032481194" lon="30.0291323662">
        <ele>0.0</ele>
        <time>2026-04-25T16:24:14.000Z</time>
    </trkpt>
    <trkpt lat="59.1032481194" lon="30.0291323662">
        <ele>0.0</ele>
        <time>2026-04-25T16:24:17.000Z</time>
    </trkpt>
    <trkpt lat="59.103269577" lon="30.0291323662">
        <ele>0.0</ele>
        <time>2026-04-25T16:24:19.000Z</time>
    </trkpt>
    <trkpt lat="59.103269577" lon="30.0291323662">
        <ele>0.0</ele>
        <time>2026-04-25T16:24:22.000Z</time>
    </trkpt>
    <trkpt lat="59.1032481194" lon="30.0291323662">
        <ele>0.0</ele>
        <time>2026-04-25T16:24:24.000Z</time>
    </trkpt>
    <trkpt lat="59.1032266617" lon="30.0290894508">
        <ele>0.0</ele>
        <time>2026-04-25T16:24:27.000Z</time>
    </trkpt>
    <trkpt lat="59.1031837463" lon="30.0290465355">
        <ele>0.0</ele>
        <time>2026-04-25T16:24:29.000Z</time>
    </trkpt>
    <trkpt lat="59.1031837463" lon="30.0290465355">
        <ele>0.0</ele>
        <time>2026-04-25T16:24:32.000Z</time>
    </trkpt>
    <trkpt lat="59.1031622887" lon="30.0289821625">
        <ele>0.0</ele>
        <time>2026-04-25T16:24:34.000Z</time>
    </trkpt>
    <trkpt lat="59.1031622887" lon="30.0289607048">
        <ele>0.0</ele>
        <time>2026-04-25T16:24:37.000Z</time>
    </trkpt>
    <trkpt lat="59.103140831" lon="30.0288963318">
        <ele>0.0</ele>
        <time>2026-04-25T16:24:39.000Z</time>
    </trkpt>
    <trkpt lat="59.1031622887" lon="30.0288748741">
        <ele>0.0</ele>
        <time>2026-04-25T16:24:42.000Z</time>
    </trkpt>
    <trkpt lat="59.103140831" lon="30.0288319588">
        <ele>0.0</ele>
        <time>2026-04-25T16:24:44.000Z</time>
    </trkpt>
    <trkpt lat="59.1031622887" lon="30.0288105011">
        <ele>0.0</ele>
        <time>2026-04-25T16:24:47.000Z</time>
    </trkpt>
    <trkpt lat="59.1031622887" lon="30.0288105011">
        <ele>0.0</ele>
        <time>2026-04-25T16:24:49.000Z</time>
    </trkpt>
    <trkpt lat="59.103140831" lon="30.0288319588">
        <ele>0.0</ele>
        <time>2026-04-25T16:24:52.000Z</time>
    </trkpt>
    <trkpt lat="59.1031193733" lon="30.0288319588">
        <ele>0.0</ele>
        <time>2026-04-25T16:24:54.000Z</time>
    </trkpt>
    <trkpt lat="59.1031193733" lon="30.0288319588">
        <ele>0.0</ele>
        <time>2026-04-25T16:24:57.000Z</time>
    </trkpt>
    <trkpt lat="59.1030979156" lon="30.0288748741">
        <ele>0.0</ele>
        <time>2026-04-25T16:24:59.000Z</time>
    </trkpt>
    <trkpt lat="59.103076458" lon="30.0288963318">
        <ele>0.0</ele>
        <time>2026-04-25T16:25:02.000Z</time>
    </trkpt>
    <trkpt lat="59.1030550003" lon="30.0289177895">
        <ele>0.0</ele>
        <time>2026-04-25T16:25:04.000Z</time>
    </trkpt>
    <trkpt lat="59.1030550003" lon="30.0289392471">
        <ele>0.0</ele>
        <time>2026-04-25T16:25:07.000Z</time>
    </trkpt>
    <trkpt lat="59.1030550003" lon="30.0289392471">
        <ele>0.0</ele>
        <time>2026-04-25T16:25:09.000Z</time>
    </trkpt>
    <trkpt lat="59.1030550003" lon="30.0289607048">
        <ele>0.0</ele>
        <time>2026-04-25T16:25:12.000Z</time>
    </trkpt>
    <trkpt lat="59.103076458" lon="30.0289821625">
        <ele>0.0</ele>
        <time>2026-04-25T16:25:14.000Z</time>
    </trkpt>
    <trkpt lat="59.1030335426" lon="30.0289607048">
        <ele>0.0</ele>
        <time>2026-04-25T16:25:17.000Z</time>
    </trkpt>
    <trkpt lat="59.103012085" lon="30.0289607048">
        <ele>0.0</ele>
        <time>2026-04-25T16:25:19.000Z</time>
    </trkpt>
    <trkpt lat="59.1029906273" lon="30.0289821625">
        <ele>0.0</ele>
        <time>2026-04-25T16:25:22.000Z</time>
    </trkpt>
    <trkpt lat="59.1029691696" lon="30.0289821625">
        <ele>0.0</ele>
        <time>2026-04-25T16:25:24.000Z</time>
    </trkpt>
    <trkpt lat="59.1029691696" lon="30.0289607048">
        <ele>0.0</ele>
        <time>2026-04-25T16:25:27.000Z</time>
    </trkpt>
    <trkpt lat="59.1029477119" lon="30.0289177895">
        <ele>0.0</ele>
        <time>2026-04-25T16:25:29.000Z</time>
    </trkpt>
    <trkpt lat="59.1029262543" lon="30.0289177895">
        <ele>0.0</ele>
        <time>2026-04-25T16:25:32.000Z</time>
    </trkpt>
    <trkpt lat="59.1029262543" lon="30.0288963318">
        <ele>0.0</ele>
        <time>2026-04-25T16:25:34.000Z</time>
    </trkpt>
    <trkpt lat="59.1029047966" lon="30.0288963318">
        <ele>0.0</ele>
        <time>2026-04-25T16:25:37.000Z</time>
    </trkpt>
    <trkpt lat="59.1029047966" lon="30.0289607048">
        <ele>0.0</ele>
        <time>2026-04-25T16:25:39.000Z</time>
    </trkpt>
    <trkpt lat="59.1029047966" lon="30.0289821625">
        <ele>0.0</ele>
        <time>2026-04-25T16:25:42.000Z</time>
    </trkpt>
    <trkpt lat="59.1029047966" lon="30.0290036201">
        <ele>0.0</ele>
        <time>2026-04-25T16:25:44.000Z</time>
    </trkpt>
    <trkpt lat="59.1028833389" lon="30.0290250778">
        <ele>0.0</ele>
        <time>2026-04-25T16:25:47.000Z</time>
    </trkpt>
    <trkpt lat="59.1028833389" lon="30.0290250778">
        <ele>0.0</ele>
        <time>2026-04-25T16:25:49.000Z</time>
    </trkpt>
    <trkpt lat="59.1028618813" lon="30.0290250778">
        <ele>0.0</ele>
        <time>2026-04-25T16:25:52.000Z</time>
    </trkpt>
    <trkpt lat="59.1028618813" lon="30.0290250778">
        <ele>0.0</ele>
        <time>2026-04-25T16:25:54.000Z</time>
    </trkpt>
    <trkpt lat="59.1028189659" lon="30.0290465355">
        <ele>0.0</ele>
        <time>2026-04-25T16:25:57.000Z</time>
    </trkpt>
    <trkpt lat="59.1027975082" lon="30.0290894508">
        <ele>0.0</ele>
        <time>2026-04-25T16:25:59.000Z</time>
    </trkpt>
    <trkpt lat="59.1027975082" lon="30.0290894508">
        <ele>0.0</ele>
        <time>2026-04-25T16:26:02.000Z</time>
    </trkpt>
    <trkpt lat="59.1027975082" lon="30.0290894508">
        <ele>0.0</ele>
        <time>2026-04-25T16:26:04.000Z</time>
    </trkpt>
    <trkpt lat="59.1027975082" lon="30.0290894508">
        <ele>0.0</ele>
        <time>2026-04-25T16:26:07.000Z</time>
    </trkpt>
    <trkpt lat="59.1027975082" lon="30.0290894508">
        <ele>0.0</ele>
        <time>2026-04-25T16:26:09.000Z</time>
    </trkpt>
    <trkpt lat="59.1027975082" lon="30.0290679932">
        <ele>0.0</ele>
        <time>2026-04-25T16:26:12.000Z</time>
    </trkpt>
    <trkpt lat="59.1027975082" lon="30.0290465355">
        <ele>0.0</ele>
        <time>2026-04-25T16:26:14.000Z</time>
    </trkpt>
    <trkpt lat="59.1028189659" lon="30.0290679932">
        <ele>0.0</ele>
        <time>2026-04-25T16:26:17.000Z</time>
    </trkpt>
    <trkpt lat="59.1028404236" lon="30.0290894508">
        <ele>0.0</ele>
        <time>2026-04-25T16:26:19.000Z</time>
    </trkpt>
    <trkpt lat="59.1028618813" lon="30.0290894508">
        <ele>0.0</ele>
        <time>2026-04-25T16:26:22.000Z</time>
    </trkpt>
    <trkpt lat="59.1028833389" lon="30.0290679932">
        <ele>0.0</ele>
        <time>2026-04-25T16:26:24.000Z</time>
    </trkpt>
    <trkpt lat="59.1028833389" lon="30.0290679932">
        <ele>0.0</ele>
        <time>2026-04-25T16:26:27.000Z</time>
    </trkpt>
    <trkpt lat="59.1028833389" lon="30.0290679932">
        <ele>0.0</ele>
        <time>2026-04-25T16:26:29.000Z</time>
    </trkpt>
    <trkpt lat="59.1028833389" lon="30.0290894508">
        <ele>0.0</ele>
        <time>2026-04-25T16:26:32.000Z</time>
    </trkpt>
    <trkpt lat="59.1029047966" lon="30.0291538239">
        <ele>0.0</ele>
        <time>2026-04-25T16:26:34.000Z</time>
    </trkpt>
    <trkpt lat="59.1029047966" lon="30.0291752815">
        <ele>0.0</ele>
        <time>2026-04-25T16:26:37.000Z</time>
    </trkpt>
    <trkpt lat="59.1028833389" lon="30.0292181969">
        <ele>0.0</ele>
        <time>2026-04-25T16:26:39.000Z</time>
    </trkpt>
    <trkpt lat="59.1029047966" lon="30.0292825699">
        <ele>0.0</ele>
        <time>2026-04-25T16:26:42.000Z</time>
    </trkpt>
    <trkpt lat="59.1029047966" lon="30.0293684006">
        <ele>0.0</ele>
        <time>2026-04-25T16:26:44.000Z</time>
    </trkpt>
    <trkpt lat="59.1029047966" lon="30.0294327736">
        <ele>0.0</ele>
        <time>2026-04-25T16:26:47.000Z</time>
    </trkpt>
    <trkpt lat="59.1029047966" lon="30.0294756889">
        <ele>0.0</ele>
        <time>2026-04-25T16:26:49.000Z</time>
    </trkpt>
    <trkpt lat="59.1028833389" lon="30.0294542313">
        <ele>0.0</ele>
        <time>2026-04-25T16:26:52.000Z</time>
    </trkpt>
    <trkpt lat="59.1028404236" lon="30.0293898582">
        <ele>0.0</ele>
        <time>2026-04-25T16:26:54.000Z</time>
    </trkpt>
    <trkpt lat="59.1028189659" lon="30.0293469429">
        <ele>0.0</ele>
        <time>2026-04-25T16:26:57.000Z</time>
    </trkpt>
    <trkpt lat="59.1027760506" lon="30.0293469429">
        <ele>0.0</ele>
        <time>2026-04-25T16:26:59.000Z</time>
    </trkpt>
    <trkpt lat="59.1027545929" lon="30.0293898582">
        <ele>0.0</ele>
        <time>2026-04-25T16:27:02.000Z</time>
    </trkpt>
    <trkpt lat="59.1027331352" lon="30.0294327736">
        <ele>0.0</ele>
        <time>2026-04-25T16:27:04.000Z</time>
    </trkpt>
    <trkpt lat="59.1026902199" lon="30.0294542313">
        <ele>0.0</ele>
        <time>2026-04-25T16:27:07.000Z</time>
    </trkpt>
    <trkpt lat="59.1026687622" lon="30.0294542313">
        <ele>0.0</ele>
        <time>2026-04-25T16:27:09.000Z</time>
    </trkpt>
    <trkpt lat="59.1026687622" lon="30.0294542313">
        <ele>0.0</ele>
        <time>2026-04-25T16:27:12.000Z</time>
    </trkpt>
    <trkpt lat="59.1026473045" lon="30.0294971466">
        <ele>0.0</ele>
        <time>2026-04-25T16:27:14.000Z</time>
    </trkpt>
    <trkpt lat="59.1026258469" lon="30.0294971466">
        <ele>0.0</ele>
        <time>2026-04-25T16:27:17.000Z</time>
    </trkpt>
    <trkpt lat="59.1026258469" lon="30.029540062">
        <ele>0.0</ele>
        <time>2026-04-25T16:27:19.000Z</time>
    </trkpt>
    <trkpt lat="59.1026258469" lon="30.0295829773">
        <ele>0.0</ele>
        <time>2026-04-25T16:27:22.000Z</time>
    </trkpt>
    <trkpt lat="59.1026043892" lon="30.0296258926">
        <ele>0.0</ele>
        <time>2026-04-25T16:27:24.000Z</time>
    </trkpt>
    <trkpt lat="59.1026043892" lon="30.0296902657">
        <ele>0.0</ele>
        <time>2026-04-25T16:27:27.000Z</time>
    </trkpt>
    <trkpt lat="59.1026473045" lon="30.029733181">
        <ele>0.0</ele>
        <time>2026-04-25T16:27:29.000Z</time>
    </trkpt>
    <trkpt lat="59.1026687622" lon="30.0297546387">
        <ele>0.0</ele>
        <time>2026-04-25T16:27:32.000Z</time>
    </trkpt>
    <trkpt lat="59.1026902199" lon="30.029797554">
        <ele>0.0</ele>
        <time>2026-04-25T16:27:34.000Z</time>
    </trkpt>
    <trkpt lat="59.1027116776" lon="30.0298190117">
        <ele>0.0</ele>
        <time>2026-04-25T16:27:37.000Z</time>
    </trkpt>
    <trkpt lat="59.1027331352" lon="30.0298190117">
        <ele>0.0</ele>
        <time>2026-04-25T16:27:39.000Z</time>
    </trkpt>
    <trkpt lat="59.1027545929" lon="30.029861927">
        <ele>0.0</ele>
        <time>2026-04-25T16:27:42.000Z</time>
    </trkpt>
    <trkpt lat="59.1027975082" lon="30.0298404694">
        <ele>0.0</ele>
        <time>2026-04-25T16:27:44.000Z</time>
    </trkpt>
    <trkpt lat="59.1027975082" lon="30.0298190117">
        <ele>0.0</ele>
        <time>2026-04-25T16:27:47.000Z</time>
    </trkpt>
    <trkpt lat="59.1028189659" lon="30.0298404694">
        <ele>0.0</ele>
        <time>2026-04-25T16:27:49.000Z</time>
    </trkpt>
    <trkpt lat="59.1028189659" lon="30.0298404694">
        <ele>0.0</ele>
        <time>2026-04-25T16:27:52.000Z</time>
    </trkpt>
    <trkpt lat="59.1028189659" lon="30.029797554">
        <ele>0.0</ele>
        <time>2026-04-25T16:27:54.000Z</time>
    </trkpt>
    <trkpt lat="59.1028404236" lon="30.0297760963">
        <ele>0.0</ele>
        <time>2026-04-25T16:27:57.000Z</time>
    </trkpt>
    <trkpt lat="59.1028189659" lon="30.0297760963">
        <ele>0.0</ele>
        <time>2026-04-25T16:27:59.000Z</time>
    </trkpt>
    <trkpt lat="59.1028189659" lon="30.0297760963">
        <ele>0.0</ele>
        <time>2026-04-25T16:28:02.000Z</time>
    </trkpt>
    <trkpt lat="59.1028189659" lon="30.0297760963">
        <ele>0.0</ele>
        <time>2026-04-25T16:28:04.000Z</time>
    </trkpt>
    <trkpt lat="59.1028189659" lon="30.0297760963">
        <ele>0.0</ele>
        <time>2026-04-25T16:28:07.000Z</time>
    </trkpt>
    <trkpt lat="59.1028189659" lon="30.029797554">
        <ele>0.0</ele>
        <time>2026-04-25T16:28:09.000Z</time>
    </trkpt>
    <trkpt lat="59.1028404236" lon="30.029797554">
        <ele>0.0</ele>
        <time>2026-04-25T16:28:12.000Z</time>
    </trkpt>
    <trkpt lat="59.1028189659" lon="30.029797554">
        <ele>0.0</ele>
        <time>2026-04-25T16:28:14.000Z</time>
    </trkpt>
    <trkpt lat="59.1027975082" lon="30.0298190117">
        <ele>0.0</ele>
        <time>2026-04-25T16:28:17.000Z</time>
    </trkpt>
    <trkpt lat="59.1027545929" lon="30.029861927">
        <ele>0.0</ele>
        <time>2026-04-25T16:28:19.000Z</time>
    </trkpt>
    <trkpt lat="59.1027545929" lon="30.029861927">
        <ele>0.0</ele>
        <time>2026-04-25T16:28:22.000Z</time>
    </trkpt>
    <trkpt lat="59.1027545929" lon="30.029861927">
        <ele>0.0</ele>
        <time>2026-04-25T16:28:24.000Z</time>
    </trkpt>
    <trkpt lat="59.1027545929" lon="30.029861927">
        <ele>0.0</ele>
        <time>2026-04-25T16:28:27.000Z</time>
    </trkpt>
    <trkpt lat="59.1027545929" lon="30.029861927">
        <ele>0.0</ele>
        <time>2026-04-25T16:28:29.000Z</time>
    </trkpt>
    <trkpt lat="59.1027545929" lon="30.029861927">
        <ele>0.0</ele>
        <time>2026-04-25T16:28:32.000Z</time>
    </trkpt>
    <trkpt lat="59.1027545929" lon="30.029861927">
        <ele>0.0</ele>
        <time>2026-04-25T16:28:34.000Z</time>
    </trkpt>
    <trkpt lat="59.1027545929" lon="30.029861927">
        <ele>0.0</ele>
        <time>2026-04-25T16:28:37.000Z</time>
    </trkpt>
    <trkpt lat="59.1027331352" lon="30.0298833847">
        <ele>0.0</ele>
        <time>2026-04-25T16:28:39.000Z</time>
    </trkpt>
    <trkpt lat="59.1027545929" lon="30.0299048424">
        <ele>0.0</ele>
        <time>2026-04-25T16:28:42.000Z</time>
    </trkpt>
    <trkpt lat="59.1027545929" lon="30.0299048424">
        <ele>0.0</ele>
        <time>2026-04-25T16:28:44.000Z</time>
    </trkpt>
    <trkpt lat="59.1027760506" lon="30.0299048424">
        <ele>0.0</ele>
        <time>2026-04-25T16:28:47.000Z</time>
    </trkpt>
    <trkpt lat="59.1027760506" lon="30.0299048424">
        <ele>0.0</ele>
        <time>2026-04-25T16:28:49.000Z</time>
    </trkpt>
    <trkpt lat="59.1027760506" lon="30.0299263">
        <ele>0.0</ele>
        <time>2026-04-25T16:28:52.000Z</time>
    </trkpt>
    <trkpt lat="59.1027760506" lon="30.0299263">
        <ele>0.0</ele>
        <time>2026-04-25T16:28:54.000Z</time>
    </trkpt>
    <trkpt lat="59.1027760506" lon="30.0299263">
        <ele>0.0</ele>
        <time>2026-04-25T16:28:57.000Z</time>
    </trkpt>
    <trkpt lat="59.1027975082" lon="30.0299477577">
        <ele>0.0</ele>
        <time>2026-04-25T16:28:59.000Z</time>
    </trkpt>
    <trkpt lat="59.1027975082" lon="30.0299692154">
        <ele>0.0</ele>
        <time>2026-04-25T16:29:02.000Z</time>
    </trkpt>
    <trkpt lat="59.1027975082" lon="30.0299906731">
        <ele>0.0</ele>
        <time>2026-04-25T16:29:04.000Z</time>
    </trkpt>
    <trkpt lat="59.1027975082" lon="30.0299906731">
        <ele>0.0</ele>
        <time>2026-04-25T16:29:07.000Z</time>
    </trkpt>
    <trkpt lat="59.1028404236" lon="30.0300550461">
        <ele>0.0</ele>
        <time>2026-04-25T16:29:12.000Z</time>
    </trkpt>
    <trkpt lat="59.1028404236" lon="30.0300765038">
        <ele>0.0</ele>
        <time>2026-04-25T16:29:14.000Z</time>
    </trkpt>
    <trkpt lat="59.1028189659" lon="30.0301194191">
        <ele>0.0</ele>
        <time>2026-04-25T16:29:17.000Z</time>
    </trkpt>
    <trkpt lat="59.1028404236" lon="30.0302052498">
        <ele>0.0</ele>
        <time>2026-04-25T16:29:24.000Z</time>
    </trkpt>
    <trkpt lat="59.1028189659" lon="30.0302052498">
        <ele>0.0</ele>
        <time>2026-04-25T16:29:27.000Z</time>
    </trkpt>
    <trkpt lat="59.1028189659" lon="30.0302267075">
        <ele>0.0</ele>
        <time>2026-04-25T16:29:29.000Z</time>
    </trkpt>
    <trkpt lat="59.1028404236" lon="30.0302052498">
        <ele>0.0</ele>
        <time>2026-04-25T16:29:32.000Z</time>
    </trkpt>
    <trkpt lat="59.1028404236" lon="30.0301837921">
        <ele>0.0</ele>
        <time>2026-04-25T16:29:34.000Z</time>
    </trkpt>
    <trkpt lat="59.1028618813" lon="30.0301837921">
        <ele>0.0</ele>
        <time>2026-04-25T16:29:37.000Z</time>
    </trkpt>
    <trkpt lat="59.1028833389" lon="30.0301623344">
        <ele>0.0</ele>
        <time>2026-04-25T16:29:39.000Z</time>
    </trkpt>
    <trkpt lat="59.1029047966" lon="30.0301837921">
        <ele>0.0</ele>
        <time>2026-04-25T16:29:42.000Z</time>
    </trkpt>
    <trkpt lat="59.1029262543" lon="30.0301408768">
        <ele>0.0</ele>
        <time>2026-04-25T16:29:44.000Z</time>
    </trkpt>
    <trkpt lat="59.1029262543" lon="30.0301194191">
        <ele>0.0</ele>
        <time>2026-04-25T16:29:47.000Z</time>
    </trkpt>
    <trkpt lat="59.1029477119" lon="30.0300765038">
        <ele>0.0</ele>
        <time>2026-04-25T16:29:49.000Z</time>
    </trkpt>
    <trkpt lat="59.1029477119" lon="30.0300335884">
        <ele>0.0</ele>
        <time>2026-04-25T16:29:52.000Z</time>
    </trkpt>
    <trkpt lat="59.1029047966" lon="30.0299477577">
        <ele>0.0</ele>
        <time>2026-04-25T16:29:54.000Z</time>
    </trkpt>
    <trkpt lat="59.1028833389" lon="30.0299263">
        <ele>0.0</ele>
        <time>2026-04-25T16:29:57.000Z</time>
    </trkpt>
    <trkpt lat="59.1029047966" lon="30.029861927">
        <ele>0.0</ele>
        <time>2026-04-25T16:29:59.000Z</time>
    </trkpt>
    <trkpt lat="59.1029047966" lon="30.029861927">
        <ele>0.0</ele>
        <time>2026-04-25T16:30:02.000Z</time>
    </trkpt>
    <trkpt lat="59.1029047966" lon="30.0298404694">
        <ele>0.0</ele>
        <time>2026-04-25T16:30:04.000Z</time>
    </trkpt>
    <trkpt lat="59.1029047966" lon="30.0298404694">
        <ele>0.0</ele>
        <time>2026-04-25T16:30:07.000Z</time>
    </trkpt>
    <trkpt lat="59.1029047966" lon="30.0298404694">
        <ele>0.0</ele>
        <time>2026-04-25T16:30:09.000Z</time>
    </trkpt>
    <trkpt lat="59.1029262543" lon="30.0298404694">
        <ele>0.0</ele>
        <time>2026-04-25T16:30:12.000Z</time>
    </trkpt>
    <trkpt lat="59.1029262543" lon="30.0298404694">
        <ele>0.0</ele>
        <time>2026-04-25T16:30:14.000Z</time>
    </trkpt>
    <trkpt lat="59.1029477119" lon="30.029861927">
        <ele>0.0</ele>
        <time>2026-04-25T16:30:17.000Z</time>
    </trkpt>
    <trkpt lat="59.1029906273" lon="30.0298833847">
        <ele>0.0</ele>
        <time>2026-04-25T16:30:19.000Z</time>
    </trkpt>
    <trkpt lat="59.103012085" lon="30.0298833847">
        <ele>0.0</ele>
        <time>2026-04-25T16:30:22.000Z</time>
    </trkpt>
    <trkpt lat="59.103012085" lon="30.029861927">
        <ele>0.0</ele>
        <time>2026-04-25T16:30:24.000Z</time>
    </trkpt>
    <trkpt lat="59.103012085" lon="30.0298190117">
        <ele>0.0</ele>
        <time>2026-04-25T16:30:27.000Z</time>
    </trkpt>
    <trkpt lat="59.1029906273" lon="30.0298190117">
        <ele>0.0</ele>
        <time>2026-04-25T16:30:29.000Z</time>
    </trkpt>
    <trkpt lat="59.1029906273" lon="30.029797554">
        <ele>0.0</ele>
        <time>2026-04-25T16:30:32.000Z</time>
    </trkpt>
    <trkpt lat="59.1029906273" lon="30.0297546387">
        <ele>0.0</ele>
        <time>2026-04-25T16:30:34.000Z</time>
    </trkpt>
    <trkpt lat="59.1029906273" lon="30.0297546387">
        <ele>0.0</ele>
        <time>2026-04-25T16:30:37.000Z</time>
    </trkpt>
    <trkpt lat="59.103012085" lon="30.029733181">
        <ele>0.0</ele>
        <time>2026-04-25T16:30:39.000Z</time>
    </trkpt>
    <trkpt lat="59.103012085" lon="30.029733181">
        <ele>0.0</ele>
        <time>2026-04-25T16:30:42.000Z</time>
    </trkpt>
    <trkpt lat="59.103012085" lon="30.0297546387">
        <ele>0.0</ele>
        <time>2026-04-25T16:30:44.000Z</time>
    </trkpt>
    <trkpt lat="59.103012085" lon="30.029733181">
        <ele>0.0</ele>
        <time>2026-04-25T16:30:47.000Z</time>
    </trkpt>
    <trkpt lat="59.1029906273" lon="30.029733181">
        <ele>0.0</ele>
        <time>2026-04-25T16:30:49.000Z</time>
    </trkpt>
    <trkpt lat="59.1029906273" lon="30.0297117233">
        <ele>0.0</ele>
        <time>2026-04-25T16:30:52.000Z</time>
    </trkpt>
    <trkpt lat="59.1029906273" lon="30.0296902657">
        <ele>0.0</ele>
        <time>2026-04-25T16:30:54.000Z</time>
    </trkpt>
    <trkpt lat="59.1029906273" lon="30.0296902657">
        <ele>0.0</ele>
        <time>2026-04-25T16:30:57.000Z</time>
    </trkpt>
    <trkpt lat="59.1029906273" lon="30.029733181">
        <ele>0.0</ele>
        <time>2026-04-25T16:30:59.000Z</time>
    </trkpt>
    <trkpt lat="59.1029906273" lon="30.0297117233">
        <ele>0.0</ele>
        <time>2026-04-25T16:31:02.000Z</time>
    </trkpt>
    <trkpt lat="59.1029906273" lon="30.029733181">
        <ele>0.0</ele>
        <time>2026-04-25T16:31:04.000Z</time>
    </trkpt>
    <trkpt lat="59.1029906273" lon="30.0297546387">
        <ele>0.0</ele>
        <time>2026-04-25T16:31:07.000Z</time>
    </trkpt>
    <trkpt lat="59.1029906273" lon="30.029733181">
        <ele>0.0</ele>
        <time>2026-04-25T16:31:09.000Z</time>
    </trkpt>
    <trkpt lat="59.1029906273" lon="30.029733181">
        <ele>0.0</ele>
        <time>2026-04-25T16:31:12.000Z</time>
    </trkpt>
    <trkpt lat="59.1029906273" lon="30.029733181">
        <ele>0.0</ele>
        <time>2026-04-25T16:31:14.000Z</time>
    </trkpt>
    <trkpt lat="59.1029906273" lon="30.029733181">
        <ele>0.0</ele>
        <time>2026-04-25T16:31:17.000Z</time>
    </trkpt>
    <trkpt lat="59.103012085" lon="30.0297760963">
        <ele>0.0</ele>
        <time>2026-04-25T16:31:19.000Z</time>
    </trkpt>
    <trkpt lat="59.1030335426" lon="30.029797554">
        <ele>0.0</ele>
        <time>2026-04-25T16:31:22.000Z</time>
    </trkpt>
    <trkpt lat="59.1030335426" lon="30.0298190117">
        <ele>0.0</ele>
        <time>2026-04-25T16:31:24.000Z</time>
    </trkpt>
    <trkpt lat="59.1030550003" lon="30.0298190117">
        <ele>0.0</ele>
        <time>2026-04-25T16:31:27.000Z</time>
    </trkpt>
    <trkpt lat="59.1030979156" lon="30.0298190117">
        <ele>0.0</ele>
        <time>2026-04-25T16:31:29.000Z</time>
    </trkpt>
    <trkpt lat="59.1030979156" lon="30.029797554">
        <ele>0.0</ele>
        <time>2026-04-25T16:31:32.000Z</time>
    </trkpt>
    <trkpt lat="59.1031193733" lon="30.0297760963">
        <ele>0.0</ele>
        <time>2026-04-25T16:31:34.000Z</time>
    </trkpt>
    <trkpt lat="59.103140831" lon="30.0297760963">
        <ele>0.0</ele>
        <time>2026-04-25T16:31:37.000Z</time>
    </trkpt>
    <trkpt lat="59.1031837463" lon="30.029797554">
        <ele>0.0</ele>
        <time>2026-04-25T16:31:39.000Z</time>
    </trkpt>
    <trkpt lat="59.103205204" lon="30.0297760963">
        <ele>0.0</ele>
        <time>2026-04-25T16:31:42.000Z</time>
    </trkpt>
    <trkpt lat="59.1032266617" lon="30.029797554">
        <ele>0.0</ele>
        <time>2026-04-25T16:31:44.000Z</time>
    </trkpt>
    <trkpt lat="59.1032266617" lon="30.0298404694">
        <ele>0.0</ele>
        <time>2026-04-25T16:31:47.000Z</time>
    </trkpt>
    <trkpt lat="59.1032481194" lon="30.0298833847">
        <ele>0.0</ele>
        <time>2026-04-25T16:31:49.000Z</time>
    </trkpt>
    <trkpt lat="59.1032266617" lon="30.0299048424">
        <ele>0.0</ele>
        <time>2026-04-25T16:31:52.000Z</time>
    </trkpt>
    <trkpt lat="59.1032266617" lon="30.0299477577">
        <ele>0.0</ele>
        <time>2026-04-25T16:31:54.000Z</time>
    </trkpt>
    <trkpt lat="59.1032266617" lon="30.0299477577">
        <ele>0.0</ele>
        <time>2026-04-25T16:31:57.000Z</time>
    </trkpt>
    <trkpt lat="59.1032266617" lon="30.0299692154">
        <ele>0.0</ele>
        <time>2026-04-25T16:31:59.000Z</time>
    </trkpt>
    <trkpt lat="59.1032266617" lon="30.0299692154">
        <ele>0.0</ele>
        <time>2026-04-25T16:32:02.000Z</time>
    </trkpt>
    <trkpt lat="59.1032266617" lon="30.0299692154">
        <ele>0.0</ele>
        <time>2026-04-25T16:32:04.000Z</time>
    </trkpt>
    <trkpt lat="59.1032266617" lon="30.0299263">
        <ele>0.0</ele>
        <time>2026-04-25T16:32:07.000Z</time>
    </trkpt>
    <trkpt lat="59.1032266617" lon="30.0299477577">
        <ele>0.0</ele>
        <time>2026-04-25T16:32:09.000Z</time>
    </trkpt>
    <trkpt lat="59.1032266617" lon="30.0299477577">
        <ele>0.0</ele>
        <time>2026-04-25T16:32:12.000Z</time>
    </trkpt>
    <trkpt lat="59.1032266617" lon="30.0299477577">
        <ele>0.0</ele>
        <time>2026-04-25T16:32:14.000Z</time>
    </trkpt>
    <trkpt lat="59.1032266617" lon="30.0299477577">
        <ele>0.0</ele>
        <time>2026-04-25T16:32:17.000Z</time>
    </trkpt>
    <trkpt lat="59.1032481194" lon="30.0299477577">
        <ele>0.0</ele>
        <time>2026-04-25T16:32:19.000Z</time>
    </trkpt>
    <trkpt lat="59.1032481194" lon="30.0299477577">
        <ele>0.0</ele>
        <time>2026-04-25T16:32:22.000Z</time>
    </trkpt>
    <trkpt lat="59.1032481194" lon="30.0299477577">
        <ele>0.0</ele>
        <time>2026-04-25T16:32:24.000Z</time>
    </trkpt>
    <trkpt lat="59.1032481194" lon="30.0299263">
        <ele>0.0</ele>
        <time>2026-04-25T16:32:27.000Z</time>
    </trkpt>
    <trkpt lat="59.1032481194" lon="30.0299263">
        <ele>0.0</ele>
        <time>2026-04-25T16:32:29.000Z</time>
    </trkpt>
    <trkpt lat="59.1032481194" lon="30.0299263">
        <ele>0.0</ele>
        <time>2026-04-25T16:32:32.000Z</time>
    </trkpt>
    <trkpt lat="59.1032481194" lon="30.0299263">
        <ele>0.0</ele>
        <time>2026-04-25T16:32:34.000Z</time>
    </trkpt>
    <trkpt lat="59.1032481194" lon="30.0299263">
        <ele>0.0</ele>
        <time>2026-04-25T16:32:37.000Z</time>
    </trkpt>
    <trkpt lat="59.103269577" lon="30.0299263">
        <ele>0.0</ele>
        <time>2026-04-25T16:32:39.000Z</time>
    </trkpt>
    <trkpt lat="59.103269577" lon="30.0299263">
        <ele>0.0</ele>
        <time>2026-04-25T16:32:42.000Z</time>
    </trkpt>
    <trkpt lat="59.1032910347" lon="30.0299477577">
        <ele>0.0</ele>
        <time>2026-04-25T16:32:44.000Z</time>
    </trkpt>
    <trkpt lat="59.1032910347" lon="30.0299692154">
        <ele>0.0</ele>
        <time>2026-04-25T16:32:47.000Z</time>
    </trkpt>
    <trkpt lat="59.1033124924" lon="30.0299692154">
        <ele>0.0</ele>
        <time>2026-04-25T16:32:49.000Z</time>
    </trkpt>
    <trkpt lat="59.1033554077" lon="30.0299906731">
        <ele>0.0</ele>
        <time>2026-04-25T16:32:52.000Z</time>
    </trkpt>
    <trkpt lat="59.1033768654" lon="30.0299692154">
        <ele>0.0</ele>
        <time>2026-04-25T16:32:54.000Z</time>
    </trkpt>
    <trkpt lat="59.1034197807" lon="30.0299477577">
        <ele>0.0</ele>
        <time>2026-04-25T16:32:57.000Z</time>
    </trkpt>
    <trkpt lat="59.1034412384" lon="30.0299477577">
        <ele>0.0</ele>
        <time>2026-04-25T16:32:59.000Z</time>
    </trkpt>
    <trkpt lat="59.1034626961" lon="30.0299692154">
        <ele>0.0</ele>
        <time>2026-04-25T16:33:02.000Z</time>
    </trkpt>
    <trkpt lat="59.1034626961" lon="30.0300121307">
        <ele>0.0</ele>
        <time>2026-04-25T16:33:04.000Z</time>
    </trkpt>
    <trkpt lat="59.1034841537" lon="30.0300550461">
        <ele>0.0</ele>
        <time>2026-04-25T16:33:07.000Z</time>
    </trkpt>
    <trkpt lat="59.1034841537" lon="30.0300979614">
        <ele>0.0</ele>
        <time>2026-04-25T16:33:09.000Z</time>
    </trkpt>
    <trkpt lat="59.1034841537" lon="30.0300979614">
        <ele>0.0</ele>
        <time>2026-04-25T16:33:12.000Z</time>
    </trkpt>
    <trkpt lat="59.1035270691" lon="30.0300335884">
        <ele>0.0</ele>
        <time>2026-04-25T16:33:14.000Z</time>
    </trkpt>
    <trkpt lat="59.1035270691" lon="30.0300335884">
        <ele>0.0</ele>
        <time>2026-04-25T16:33:17.000Z</time>
    </trkpt>
    <trkpt lat="59.1035270691" lon="30.0300335884">
        <ele>0.0</ele>
        <time>2026-04-25T16:33:19.000Z</time>
    </trkpt>
    <trkpt lat="59.1035699844" lon="30.0300121307">
        <ele>0.0</ele>
        <time>2026-04-25T16:33:22.000Z</time>
    </trkpt>
    <trkpt lat="59.1035699844" lon="30.0299906731">
        <ele>0.0</ele>
        <time>2026-04-25T16:33:24.000Z</time>
    </trkpt>
    <trkpt lat="59.1035914421" lon="30.0299692154">
        <ele>0.0</ele>
        <time>2026-04-25T16:33:27.000Z</time>
    </trkpt>
    <trkpt lat="59.1036128998" lon="30.0299906731">
        <ele>0.0</ele>
        <time>2026-04-25T16:33:29.000Z</time>
    </trkpt>
    <trkpt lat="59.1036343575" lon="30.0299692154">
        <ele>0.0</ele>
        <time>2026-04-25T16:33:32.000Z</time>
    </trkpt>
    <trkpt lat="59.1036558151" lon="30.0299692154">
        <ele>0.0</ele>
        <time>2026-04-25T16:33:34.000Z</time>
    </trkpt>
    <trkpt lat="59.1036558151" lon="30.0299692154">
        <ele>0.0</ele>
        <time>2026-04-25T16:33:37.000Z</time>
    </trkpt>
    <trkpt lat="59.1036772728" lon="30.0299477577">
        <ele>0.0</ele>
        <time>2026-04-25T16:33:39.000Z</time>
    </trkpt>
    <trkpt lat="59.1036772728" lon="30.0299263">
        <ele>0.0</ele>
        <time>2026-04-25T16:33:42.000Z</time>
    </trkpt>
    <trkpt lat="59.1036987305" lon="30.0299477577">
        <ele>0.0</ele>
        <time>2026-04-25T16:33:44.000Z</time>
    </trkpt>
    <trkpt lat="59.1036987305" lon="30.0299906731">
        <ele>0.0</ele>
        <time>2026-04-25T16:33:47.000Z</time>
    </trkpt>
    <trkpt lat="59.1037201881" lon="30.0300121307">
        <ele>0.0</ele>
        <time>2026-04-25T16:33:49.000Z</time>
    </trkpt>
    <trkpt lat="59.1037416458" lon="30.0300550461">
        <ele>0.0</ele>
        <time>2026-04-25T16:33:52.000Z</time>
    </trkpt>
    <trkpt lat="59.1037416458" lon="30.0300979614">
        <ele>0.0</ele>
        <time>2026-04-25T16:33:54.000Z</time>
    </trkpt>
    <trkpt lat="59.1037416458" lon="30.0300979614">
        <ele>0.0</ele>
        <time>2026-04-25T16:33:57.000Z</time>
    </trkpt>
    <trkpt lat="59.1037631035" lon="30.0301408768">
        <ele>0.0</ele>
        <time>2026-04-25T16:33:59.000Z</time>
    </trkpt>
    <trkpt lat="59.1037631035" lon="30.0301408768">
        <ele>0.0</ele>
        <time>2026-04-25T16:34:02.000Z</time>
    </trkpt>
    <trkpt lat="59.1037631035" lon="30.0301623344">
        <ele>0.0</ele>
        <time>2026-04-25T16:34:04.000Z</time>
    </trkpt>
    <trkpt lat="59.1037631035" lon="30.0301623344">
        <ele>0.0</ele>
        <time>2026-04-25T16:34:07.000Z</time>
    </trkpt>
    <trkpt lat="59.1037845612" lon="30.0301837921">
        <ele>0.0</ele>
        <time>2026-04-25T16:34:09.000Z</time>
    </trkpt>
    <trkpt lat="59.1037631035" lon="30.0302267075">
        <ele>0.0</ele>
        <time>2026-04-25T16:34:12.000Z</time>
    </trkpt>
    <trkpt lat="59.1037845612" lon="30.0302267075">
        <ele>0.0</ele>
        <time>2026-04-25T16:34:14.000Z</time>
    </trkpt>
    <trkpt lat="59.1038060188" lon="30.0302267075">
        <ele>0.0</ele>
        <time>2026-04-25T16:34:17.000Z</time>
    </trkpt>
    <trkpt lat="59.1038274765" lon="30.0302052498">
        <ele>0.0</ele>
        <time>2026-04-25T16:34:19.000Z</time>
    </trkpt>
    <trkpt lat="59.1038489342" lon="30.0302052498">
        <ele>0.0</ele>
        <time>2026-04-25T16:34:22.000Z</time>
    </trkpt>
    <trkpt lat="59.1038489342" lon="30.0302052498">
        <ele>0.0</ele>
        <time>2026-04-25T16:34:24.000Z</time>
    </trkpt>
    <trkpt lat="59.1038918495" lon="30.0302052498">
        <ele>0.0</ele>
        <time>2026-04-25T16:34:27.000Z</time>
    </trkpt>
    <trkpt lat="59.1038918495" lon="30.0301623344">
        <ele>0.0</ele>
        <time>2026-04-25T16:34:29.000Z</time>
    </trkpt>
    <trkpt lat="59.1039133072" lon="30.0301408768">
        <ele>0.0</ele>
        <time>2026-04-25T16:34:32.000Z</time>
    </trkpt>
    <trkpt lat="59.1039347649" lon="30.0300765038">
        <ele>0.0</ele>
        <time>2026-04-25T16:34:34.000Z</time>
    </trkpt>
    <trkpt lat="59.1039347649" lon="30.0300335884">
        <ele>0.0</ele>
        <time>2026-04-25T16:34:37.000Z</time>
    </trkpt>
    <trkpt lat="59.1039133072" lon="30.0300121307">
        <ele>0.0</ele>
        <time>2026-04-25T16:34:39.000Z</time>
    </trkpt>
    <trkpt lat="59.1039133072" lon="30.0300121307">
        <ele>0.0</ele>
        <time>2026-04-25T16:34:42.000Z</time>
    </trkpt>
    <trkpt lat="59.1039347649" lon="30.0300121307">
        <ele>0.0</ele>
        <time>2026-04-25T16:34:44.000Z</time>
    </trkpt>
    <trkpt lat="59.1039347649" lon="30.0300121307">
        <ele>0.0</ele>
        <time>2026-04-25T16:34:47.000Z</time>
    </trkpt>
    <trkpt lat="59.1039347649" lon="30.0299692154">
        <ele>0.0</ele>
        <time>2026-04-25T16:34:49.000Z</time>
    </trkpt>
    <trkpt lat="59.1039347649" lon="30.0299692154">
        <ele>0.0</ele>
        <time>2026-04-25T16:34:52.000Z</time>
    </trkpt>
    <trkpt lat="59.1039347649" lon="30.0299692154">
        <ele>0.0</ele>
        <time>2026-04-25T16:34:54.000Z</time>
    </trkpt>
    <trkpt lat="59.1039347649" lon="30.0299692154">
        <ele>0.0</ele>
        <time>2026-04-25T16:34:57.000Z</time>
    </trkpt>
    <trkpt lat="59.1039562225" lon="30.0300121307">
        <ele>0.0</ele>
        <time>2026-04-25T16:34:59.000Z</time>
    </trkpt>
    <trkpt lat="59.1039776802" lon="30.0300550461">
        <ele>0.0</ele>
        <time>2026-04-25T16:35:02.000Z</time>
    </trkpt>
    <trkpt lat="59.1039991379" lon="30.0300979614">
        <ele>0.0</ele>
        <time>2026-04-25T16:35:04.000Z</time>
    </trkpt>
    <trkpt lat="59.1040205956" lon="30.0301408768">
        <ele>0.0</ele>
        <time>2026-04-25T16:35:07.000Z</time>
    </trkpt>
    <trkpt lat="59.1040205956" lon="30.0301837921">
        <ele>0.0</ele>
        <time>2026-04-25T16:35:09.000Z</time>
    </trkpt>
    <trkpt lat="59.1040420532" lon="30.0302267075">
        <ele>0.0</ele>
        <time>2026-04-25T16:35:12.000Z</time>
    </trkpt>
    <trkpt lat="59.1040420532" lon="30.0302267075">
        <ele>0.0</ele>
        <time>2026-04-25T16:35:14.000Z</time>
    </trkpt>
    <trkpt lat="59.1040205956" lon="30.0301837921">
        <ele>0.0</ele>
        <time>2026-04-25T16:35:17.000Z</time>
    </trkpt>
    <trkpt lat="59.1039991379" lon="30.0301837921">
        <ele>0.0</ele>
        <time>2026-04-25T16:35:19.000Z</time>
    </trkpt>
    <trkpt lat="59.1039991379" lon="30.0301837921">
        <ele>0.0</ele>
        <time>2026-04-25T16:35:22.000Z</time>
    </trkpt>
    <trkpt lat="59.1039991379" lon="30.0301837921">
        <ele>0.0</ele>
        <time>2026-04-25T16:35:24.000Z</time>
    </trkpt>
    <trkpt lat="59.1039991379" lon="30.0301837921">
        <ele>0.0</ele>
        <time>2026-04-25T16:35:27.000Z</time>
    </trkpt>
    <trkpt lat="59.1039991379" lon="30.0301837921">
        <ele>0.0</ele>
        <time>2026-04-25T16:35:29.000Z</time>
    </trkpt>
    <trkpt lat="59.1039991379" lon="30.0301837921">
        <ele>0.0</ele>
        <time>2026-04-25T16:35:32.000Z</time>
    </trkpt>
    <trkpt lat="59.1039776802" lon="30.0301623344">
        <ele>0.0</ele>
        <time>2026-04-25T16:35:34.000Z</time>
    </trkpt>
    <trkpt lat="59.1039776802" lon="30.0301623344">
        <ele>0.0</ele>
        <time>2026-04-25T16:35:37.000Z</time>
    </trkpt>
    <trkpt lat="59.1039776802" lon="30.0301623344">
        <ele>0.0</ele>
        <time>2026-04-25T16:35:39.000Z</time>
    </trkpt>
    <trkpt lat="59.1039776802" lon="30.0301623344">
        <ele>0.0</ele>
        <time>2026-04-25T16:35:42.000Z</time>
    </trkpt>
    <trkpt lat="59.1039776802" lon="30.0301623344">
        <ele>0.0</ele>
        <time>2026-04-25T16:35:44.000Z</time>
    </trkpt>
    <trkpt lat="59.1039991379" lon="30.0301837921">
        <ele>0.0</ele>
        <time>2026-04-25T16:35:47.000Z</time>
    </trkpt>
    <trkpt lat="59.1039991379" lon="30.0302267075">
        <ele>0.0</ele>
        <time>2026-04-25T16:35:49.000Z</time>
    </trkpt>
    <trkpt lat="59.1040205956" lon="30.0302481651">
        <ele>0.0</ele>
        <time>2026-04-25T16:35:52.000Z</time>
    </trkpt>
    <trkpt lat="59.1040205956" lon="30.0302481651">
        <ele>0.0</ele>
        <time>2026-04-25T16:35:54.000Z</time>
    </trkpt>
    <trkpt lat="59.1040205956" lon="30.0302481651">
        <ele>0.0</ele>
        <time>2026-04-25T16:35:57.000Z</time>
    </trkpt>
    <trkpt lat="59.1040205956" lon="30.0302481651">
        <ele>0.0</ele>
        <time>2026-04-25T16:35:59.000Z</time>
    </trkpt>
    <trkpt lat="59.1040205956" lon="30.0302910805">
        <ele>0.0</ele>
        <time>2026-04-25T16:36:02.000Z</time>
    </trkpt>
    <trkpt lat="59.1040205956" lon="30.0303339958">
        <ele>0.0</ele>
        <time>2026-04-25T16:36:04.000Z</time>
    </trkpt>
    <trkpt lat="59.1040205956" lon="30.0303769112">
        <ele>0.0</ele>
        <time>2026-04-25T16:36:07.000Z</time>
    </trkpt>
    <trkpt lat="59.1040420532" lon="30.0304198265">
        <ele>0.0</ele>
        <time>2026-04-25T16:36:09.000Z</time>
    </trkpt>
    <trkpt lat="59.1040420532" lon="30.0304627419">
        <ele>0.0</ele>
        <time>2026-04-25T16:36:12.000Z</time>
    </trkpt>
    <trkpt lat="59.1040420532" lon="30.0305271149">
        <ele>0.0</ele>
        <time>2026-04-25T16:36:14.000Z</time>
    </trkpt>
    <trkpt lat="59.1040420532" lon="30.0305271149">
        <ele>0.0</ele>
        <time>2026-04-25T16:36:17.000Z</time>
    </trkpt>
    <trkpt lat="59.1040420532" lon="30.0305271149">
        <ele>0.0</ele>
        <time>2026-04-25T16:36:19.000Z</time>
    </trkpt>
    <trkpt lat="59.1040635109" lon="30.0305700302">
        <ele>0.0</ele>
        <time>2026-04-25T16:36:22.000Z</time>
    </trkpt>
    <trkpt lat="59.1040849686" lon="30.0306344032">
        <ele>0.0</ele>
        <time>2026-04-25T16:36:24.000Z</time>
    </trkpt>
    <trkpt lat="59.1040849686" lon="30.0306344032">
        <ele>0.0</ele>
        <time>2026-04-25T16:36:27.000Z</time>
    </trkpt>
    <trkpt lat="59.1040849686" lon="30.0306344032">
        <ele>0.0</ele>
        <time>2026-04-25T16:36:29.000Z</time>
    </trkpt>
    <trkpt lat="59.1040849686" lon="30.0306344032">
        <ele>0.0</ele>
        <time>2026-04-25T16:36:32.000Z</time>
    </trkpt>
    <trkpt lat="59.1040849686" lon="30.0306558609">
        <ele>0.0</ele>
        <time>2026-04-25T16:36:34.000Z</time>
    </trkpt>
    <trkpt lat="59.1040849686" lon="30.0306987762">
        <ele>0.0</ele>
        <time>2026-04-25T16:36:37.000Z</time>
    </trkpt>
    <trkpt lat="59.1041064262" lon="30.0307202339">
        <ele>0.0</ele>
        <time>2026-04-25T16:36:39.000Z</time>
    </trkpt>
    <trkpt lat="59.1041064262" lon="30.0307202339">
        <ele>0.0</ele>
        <time>2026-04-25T16:36:42.000Z</time>
    </trkpt>
    <trkpt lat="59.1041064262" lon="30.0307416916">
        <ele>0.0</ele>
        <time>2026-04-25T16:36:44.000Z</time>
    </trkpt>
    <trkpt lat="59.1041278839" lon="30.0307631493">
        <ele>0.0</ele>
        <time>2026-04-25T16:36:47.000Z</time>
    </trkpt>
    <trkpt lat="59.1041278839" lon="30.0308060646">
        <ele>0.0</ele>
        <time>2026-04-25T16:36:49.000Z</time>
    </trkpt>
    <trkpt lat="59.1041278839" lon="30.0308060646">
        <ele>0.0</ele>
        <time>2026-04-25T16:36:52.000Z</time>
    </trkpt>
    <trkpt lat="59.1041278839" lon="30.0308060646">
        <ele>0.0</ele>
        <time>2026-04-25T16:36:54.000Z</time>
    </trkpt>
    <trkpt lat="59.1041493416" lon="30.0308060646">
        <ele>0.0</ele>
        <time>2026-04-25T16:36:57.000Z</time>
    </trkpt>
    <trkpt lat="59.1041493416" lon="30.0308275223">
        <ele>0.0</ele>
        <time>2026-04-25T16:36:59.000Z</time>
    </trkpt>
    <trkpt lat="59.1041493416" lon="30.0308704376">
        <ele>0.0</ele>
        <time>2026-04-25T16:37:02.000Z</time>
    </trkpt>
    <trkpt lat="59.1041493416" lon="30.0309348106">
        <ele>0.0</ele>
        <time>2026-04-25T16:37:04.000Z</time>
    </trkpt>
    <trkpt lat="59.1041493416" lon="30.030977726">
        <ele>0.0</ele>
        <time>2026-04-25T16:37:07.000Z</time>
    </trkpt>
    <trkpt lat="59.1041707993" lon="30.031042099">
        <ele>0.0</ele>
        <time>2026-04-25T16:37:09.000Z</time>
    </trkpt>
    <trkpt lat="59.1041707993" lon="30.0310850143">
        <ele>0.0</ele>
        <time>2026-04-25T16:37:12.000Z</time>
    </trkpt>
    <trkpt lat="59.1041922569" lon="30.0310850143">
        <ele>0.0</ele>
        <time>2026-04-25T16:37:14.000Z</time>
    </trkpt>
    <trkpt lat="59.1041922569" lon="30.0310635567">
        <ele>0.0</ele>
        <time>2026-04-25T16:37:17.000Z</time>
    </trkpt>
    <trkpt lat="59.1041922569" lon="30.0310850143">
        <ele>0.0</ele>
        <time>2026-04-25T16:37:19.000Z</time>
    </trkpt>
    <trkpt lat="59.1041922569" lon="30.031106472">
        <ele>0.0</ele>
        <time>2026-04-25T16:37:22.000Z</time>
    </trkpt>
    <trkpt lat="59.1041922569" lon="30.0311279297">
        <ele>0.0</ele>
        <time>2026-04-25T16:37:24.000Z</time>
    </trkpt>
    <trkpt lat="59.1041922569" lon="30.0311279297">
        <ele>0.0</ele>
        <time>2026-04-25T16:37:27.000Z</time>
    </trkpt>
    <trkpt lat="59.1041922569" lon="30.0311279297">
        <ele>0.0</ele>
        <time>2026-04-25T16:37:29.000Z</time>
    </trkpt>
    <trkpt lat="59.1041922569" lon="30.0311279297">
        <ele>0.0</ele>
        <time>2026-04-25T16:37:32.000Z</time>
    </trkpt>
    <trkpt lat="59.1041922569" lon="30.0311279297">
        <ele>0.0</ele>
        <time>2026-04-25T16:37:34.000Z</time>
    </trkpt>
    <trkpt lat="59.1041922569" lon="30.0311279297">
        <ele>0.0</ele>
        <time>2026-04-25T16:37:37.000Z</time>
    </trkpt>
    <trkpt lat="59.1041922569" lon="30.0311279297">
        <ele>0.0</ele>
        <time>2026-04-25T16:37:39.000Z</time>
    </trkpt>
    <trkpt lat="59.1041922569" lon="30.0311279297">
        <ele>0.0</ele>
        <time>2026-04-25T16:37:42.000Z</time>
    </trkpt>
    <trkpt lat="59.1041922569" lon="30.031106472">
        <ele>0.0</ele>
        <time>2026-04-25T16:37:44.000Z</time>
    </trkpt>
    <trkpt lat="59.1041922569" lon="30.0310850143">
        <ele>0.0</ele>
        <time>2026-04-25T16:37:47.000Z</time>
    </trkpt>
    <trkpt lat="59.1041922569" lon="30.0310850143">
        <ele>0.0</ele>
        <time>2026-04-25T16:37:49.000Z</time>
    </trkpt>
    <trkpt lat="59.1041922569" lon="30.0310635567">
        <ele>0.0</ele>
        <time>2026-04-25T16:37:52.000Z</time>
    </trkpt>
    <trkpt lat="59.1041707993" lon="30.0309991837">
        <ele>0.0</ele>
        <time>2026-04-25T16:37:54.000Z</time>
    </trkpt>
    <trkpt lat="59.1041707993" lon="30.0309991837">
        <ele>0.0</ele>
        <time>2026-04-25T16:37:57.000Z</time>
    </trkpt>
    <trkpt lat="59.1041707993" lon="30.0309991837">
        <ele>0.0</ele>
        <time>2026-04-25T16:37:59.000Z</time>
    </trkpt>
    <trkpt lat="59.1041922569" lon="30.031042099">
        <ele>0.0</ele>
        <time>2026-04-25T16:38:02.000Z</time>
    </trkpt>
    <trkpt lat="59.1041922569" lon="30.031106472">
        <ele>0.0</ele>
        <time>2026-04-25T16:38:04.000Z</time>
    </trkpt>
    <trkpt lat="59.1041922569" lon="30.0311493874">
        <ele>0.0</ele>
        <time>2026-04-25T16:38:07.000Z</time>
    </trkpt>
    <trkpt lat="59.1041922569" lon="30.031170845">
        <ele>0.0</ele>
        <time>2026-04-25T16:38:09.000Z</time>
    </trkpt>
    <trkpt lat="59.1041922569" lon="30.0311493874">
        <ele>0.0</ele>
        <time>2026-04-25T16:38:12.000Z</time>
    </trkpt>
    <trkpt lat="59.1042137146" lon="30.0311279297">
        <ele>0.0</ele>
        <time>2026-04-25T16:38:14.000Z</time>
    </trkpt>
    <trkpt lat="59.1041922569" lon="30.0311279297">
        <ele>0.0</ele>
        <time>2026-04-25T16:38:17.000Z</time>
    </trkpt>
    <trkpt lat="59.1041922569" lon="30.0311279297">
        <ele>0.0</ele>
        <time>2026-04-25T16:38:19.000Z</time>
    </trkpt>
    <trkpt lat="59.1041922569" lon="30.0311279297">
        <ele>0.0</ele>
        <time>2026-04-25T16:38:22.000Z</time>
    </trkpt>
    <trkpt lat="59.1041922569" lon="30.0311279297">
        <ele>0.0</ele>
        <time>2026-04-25T16:38:24.000Z</time>
    </trkpt>
    <trkpt lat="59.1041922569" lon="30.0311279297">
        <ele>0.0</ele>
        <time>2026-04-25T16:38:27.000Z</time>
    </trkpt>
    <trkpt lat="59.1041922569" lon="30.0311279297">
        <ele>0.0</ele>
        <time>2026-04-25T16:38:29.000Z</time>
    </trkpt>
    <trkpt lat="59.1041922569" lon="30.0311279297">
        <ele>0.0</ele>
        <time>2026-04-25T16:38:32.000Z</time>
    </trkpt>
    <trkpt lat="59.1041922569" lon="30.0311279297">
        <ele>0.0</ele>
        <time>2026-04-25T16:38:34.000Z</time>
    </trkpt>
    <trkpt lat="59.1041922569" lon="30.0311279297">
        <ele>0.0</ele>
        <time>2026-04-25T16:38:37.000Z</time>
    </trkpt>
    <trkpt lat="59.1041922569" lon="30.0311279297">
        <ele>0.0</ele>
        <time>2026-04-25T16:38:39.000Z</time>
    </trkpt>
    <trkpt lat="59.1041922569" lon="30.0311279297">
        <ele>0.0</ele>
        <time>2026-04-25T16:38:42.000Z</time>
    </trkpt>
    <trkpt lat="59.1041922569" lon="30.0311279297">
        <ele>0.0</ele>
        <time>2026-04-25T16:38:44.000Z</time>
    </trkpt>
    <trkpt lat="59.1041922569" lon="30.0311279297">
        <ele>0.0</ele>
        <time>2026-04-25T16:38:47.000Z</time>
    </trkpt>
    <trkpt lat="59.1041922569" lon="30.0311279297">
        <ele>0.0</ele>
        <time>2026-04-25T16:38:49.000Z</time>
    </trkpt>
    <trkpt lat="59.1041707993" lon="30.0310850143">
        <ele>0.0</ele>
        <time>2026-04-25T16:38:52.000Z</time>
    </trkpt>
    <trkpt lat="59.1041707993" lon="30.0310850143">
        <ele>0.0</ele>
        <time>2026-04-25T16:38:54.000Z</time>
    </trkpt>
    <trkpt lat="59.1041707993" lon="30.0310850143">
        <ele>0.0</ele>
        <time>2026-04-25T16:38:57.000Z</time>
    </trkpt>
    <trkpt lat="59.1041278839" lon="30.031106472">
        <ele>0.0</ele>
        <time>2026-04-25T16:38:59.000Z</time>
    </trkpt>
    <trkpt lat="59.1041278839" lon="30.031106472">
        <ele>0.0</ele>
        <time>2026-04-25T16:39:02.000Z</time>
    </trkpt>
    <trkpt lat="59.1041064262" lon="30.0311279297">
        <ele>0.0</ele>
        <time>2026-04-25T16:39:04.000Z</time>
    </trkpt>
    <trkpt lat="59.1041064262" lon="30.0311279297">
        <ele>0.0</ele>
        <time>2026-04-25T16:39:07.000Z</time>
    </trkpt>
    <trkpt lat="59.1040635109" lon="30.0311279297">
        <ele>0.0</ele>
        <time>2026-04-25T16:39:09.000Z</time>
    </trkpt>
    <trkpt lat="59.1040420532" lon="30.031106472">
        <ele>0.0</ele>
        <time>2026-04-25T16:39:12.000Z</time>
    </trkpt>
    <trkpt lat="59.1040205956" lon="30.0310850143">
        <ele>0.0</ele>
        <time>2026-04-25T16:39:14.000Z</time>
    </trkpt>
    <trkpt lat="59.1040205956" lon="30.0310850143">
        <ele>0.0</ele>
        <time>2026-04-25T16:39:17.000Z</time>
    </trkpt>
    <trkpt lat="59.1039991379" lon="30.0310850143">
        <ele>0.0</ele>
        <time>2026-04-25T16:39:19.000Z</time>
    </trkpt>
    <trkpt lat="59.1039776802" lon="30.0310850143">
        <ele>0.0</ele>
        <time>2026-04-25T16:39:22.000Z</time>
    </trkpt>
    <trkpt lat="59.1039991379" lon="30.0310635567">
        <ele>0.0</ele>
        <time>2026-04-25T16:39:24.000Z</time>
    </trkpt>
    <trkpt lat="59.1039776802" lon="30.0310206413">
        <ele>0.0</ele>
        <time>2026-04-25T16:39:27.000Z</time>
    </trkpt>
    <trkpt lat="59.1039562225" lon="30.030977726">
        <ele>0.0</ele>
        <time>2026-04-25T16:39:29.000Z</time>
    </trkpt>
    <trkpt lat="59.1039133072" lon="30.030977726">
        <ele>0.0</ele>
        <time>2026-04-25T16:39:32.000Z</time>
    </trkpt>
    <trkpt lat="59.1038918495" lon="30.0309991837">
        <ele>0.0</ele>
        <time>2026-04-25T16:39:34.000Z</time>
    </trkpt>
    <trkpt lat="59.1038703918" lon="30.0310206413">
        <ele>0.0</ele>
        <time>2026-04-25T16:39:37.000Z</time>
    </trkpt>
    <trkpt lat="59.1038489342" lon="30.030977726">
        <ele>0.0</ele>
        <time>2026-04-25T16:39:39.000Z</time>
    </trkpt>
    <trkpt lat="59.1038274765" lon="30.030977726">
        <ele>0.0</ele>
        <time>2026-04-25T16:39:42.000Z</time>
    </trkpt>
    <trkpt lat="59.1038274765" lon="30.0309991837">
        <ele>0.0</ele>
        <time>2026-04-25T16:39:44.000Z</time>
    </trkpt>
    <trkpt lat="59.1038060188" lon="30.0309991837">
        <ele>0.0</ele>
        <time>2026-04-25T16:39:47.000Z</time>
    </trkpt>
    <trkpt lat="59.1037631035" lon="30.0309991837">
        <ele>0.0</ele>
        <time>2026-04-25T16:39:49.000Z</time>
    </trkpt>
    <trkpt lat="59.1037416458" lon="30.031042099">
        <ele>0.0</ele>
        <time>2026-04-25T16:39:52.000Z</time>
    </trkpt>
    <trkpt lat="59.1036987305" lon="30.0310635567">
        <ele>0.0</ele>
        <time>2026-04-25T16:39:54.000Z</time>
    </trkpt>
    <trkpt lat="59.1036987305" lon="30.0310635567">
        <ele>0.0</ele>
        <time>2026-04-25T16:39:57.000Z</time>
    </trkpt>
    <trkpt lat="59.1036772728" lon="30.031042099">
        <ele>0.0</ele>
        <time>2026-04-25T16:39:59.000Z</time>
    </trkpt>
    <trkpt lat="59.1036772728" lon="30.0310206413">
        <ele>0.0</ele>
        <time>2026-04-25T16:40:02.000Z</time>
    </trkpt>
    <trkpt lat="59.1036558151" lon="30.031042099">
        <ele>0.0</ele>
        <time>2026-04-25T16:40:04.000Z</time>
    </trkpt>
    <trkpt lat="59.1036558151" lon="30.0310850143">
        <ele>0.0</ele>
        <time>2026-04-25T16:40:07.000Z</time>
    </trkpt>
    <trkpt lat="59.1036558151" lon="30.0310850143">
        <ele>0.0</ele>
        <time>2026-04-25T16:40:09.000Z</time>
    </trkpt>
    <trkpt lat="59.1036558151" lon="30.0310850143">
        <ele>0.0</ele>
        <time>2026-04-25T16:40:12.000Z</time>
    </trkpt>
    <trkpt lat="59.1036128998" lon="30.031106472">
        <ele>0.0</ele>
        <time>2026-04-25T16:40:14.000Z</time>
    </trkpt>
    <trkpt lat="59.1036128998" lon="30.031106472">
        <ele>0.0</ele>
        <time>2026-04-25T16:40:17.000Z</time>
    </trkpt>
    <trkpt lat="59.1035914421" lon="30.0310850143">
        <ele>0.0</ele>
        <time>2026-04-25T16:40:19.000Z</time>
    </trkpt>
    <trkpt lat="59.1035914421" lon="30.0310850143">
        <ele>0.0</ele>
        <time>2026-04-25T16:40:22.000Z</time>
    </trkpt>
    <trkpt lat="59.1035699844" lon="30.0310850143">
        <ele>0.0</ele>
        <time>2026-04-25T16:40:24.000Z</time>
    </trkpt>
    <trkpt lat="59.1035485268" lon="30.0310635567">
        <ele>0.0</ele>
        <time>2026-04-25T16:40:27.000Z</time>
    </trkpt>
    <trkpt lat="59.1035485268" lon="30.0310635567">
        <ele>0.0</ele>
        <time>2026-04-25T16:40:29.000Z</time>
    </trkpt>
    <trkpt lat="59.1035485268" lon="30.0310635567">
        <ele>0.0</ele>
        <time>2026-04-25T16:40:32.000Z</time>
    </trkpt>
    <trkpt lat="59.1035485268" lon="30.0310206413">
        <ele>0.0</ele>
        <time>2026-04-25T16:40:34.000Z</time>
    </trkpt>
    <trkpt lat="59.1035485268" lon="30.0310206413">
        <ele>0.0</ele>
        <time>2026-04-25T16:40:37.000Z</time>
    </trkpt>
    <trkpt lat="59.1035485268" lon="30.0310206413">
        <ele>0.0</ele>
        <time>2026-04-25T16:40:39.000Z</time>
    </trkpt>
    <trkpt lat="59.1035270691" lon="30.0309991837">
        <ele>0.0</ele>
        <time>2026-04-25T16:40:42.000Z</time>
    </trkpt>
    <trkpt lat="59.1035270691" lon="30.0309991837">
        <ele>0.0</ele>
        <time>2026-04-25T16:40:44.000Z</time>
    </trkpt>
    <trkpt lat="59.1035270691" lon="30.0309991837">
        <ele>0.0</ele>
        <time>2026-04-25T16:40:47.000Z</time>
    </trkpt>
    <trkpt lat="59.1035056114" lon="30.0309562683">
        <ele>0.0</ele>
        <time>2026-04-25T16:40:49.000Z</time>
    </trkpt>
    <trkpt lat="59.1035270691" lon="30.0309348106">
        <ele>0.0</ele>
        <time>2026-04-25T16:40:52.000Z</time>
    </trkpt>
    <trkpt lat="59.1035056114" lon="30.0309562683">
        <ele>0.0</ele>
        <time>2026-04-25T16:40:54.000Z</time>
    </trkpt>
    <trkpt lat="59.1035056114" lon="30.030977726">
        <ele>0.0</ele>
        <time>2026-04-25T16:40:57.000Z</time>
    </trkpt>
    <trkpt lat="59.1034841537" lon="30.0310206413">
        <ele>0.0</ele>
        <time>2026-04-25T16:40:59.000Z</time>
    </trkpt>
    <trkpt lat="59.1034841537" lon="30.031042099">
        <ele>0.0</ele>
        <time>2026-04-25T16:41:02.000Z</time>
    </trkpt>
    <trkpt lat="59.1034412384" lon="30.031042099">
        <ele>0.0</ele>
        <time>2026-04-25T16:41:04.000Z</time>
    </trkpt>
    <trkpt lat="59.1034197807" lon="30.0310206413">
        <ele>0.0</ele>
        <time>2026-04-25T16:41:07.000Z</time>
    </trkpt>
    <trkpt lat="59.1033983231" lon="30.0309991837">
        <ele>0.0</ele>
        <time>2026-04-25T16:41:09.000Z</time>
    </trkpt>
    <trkpt lat="59.1033554077" lon="30.0309991837">
        <ele>0.0</ele>
        <time>2026-04-25T16:41:12.000Z</time>
    </trkpt>
    <trkpt lat="59.10333395" lon="30.030977726">
        <ele>0.0</ele>
        <time>2026-04-25T16:41:14.000Z</time>
    </trkpt>
    <trkpt lat="59.10333395" lon="30.0309562683">
        <ele>0.0</ele>
        <time>2026-04-25T16:41:17.000Z</time>
    </trkpt>
    <trkpt lat="59.10333395" lon="30.0309562683">
        <ele>0.0</ele>
        <time>2026-04-25T16:41:19.000Z</time>
    </trkpt>
    <trkpt lat="59.10333395" lon="30.030977726">
        <ele>0.0</ele>
        <time>2026-04-25T16:41:22.000Z</time>
    </trkpt>
    <trkpt lat="59.10333395" lon="30.0309991837">
        <ele>0.0</ele>
        <time>2026-04-25T16:41:24.000Z</time>
    </trkpt>
    <trkpt lat="59.10333395" lon="30.030977726">
        <ele>0.0</ele>
        <time>2026-04-25T16:41:27.000Z</time>
    </trkpt>
    <trkpt lat="59.1033124924" lon="30.0309562683">
        <ele>0.0</ele>
        <time>2026-04-25T16:41:29.000Z</time>
    </trkpt>
    <trkpt lat="59.1032910347" lon="30.0309348106">
        <ele>0.0</ele>
        <time>2026-04-25T16:41:32.000Z</time>
    </trkpt>
    <trkpt lat="59.1032481194" lon="30.030913353">
        <ele>0.0</ele>
        <time>2026-04-25T16:41:34.000Z</time>
    </trkpt>
    <trkpt lat="59.1032266617" lon="30.0308918953">
        <ele>0.0</ele>
        <time>2026-04-25T16:41:37.000Z</time>
    </trkpt>
    <trkpt lat="59.103205204" lon="30.0308918953">
        <ele>0.0</ele>
        <time>2026-04-25T16:41:39.000Z</time>
    </trkpt>
    <trkpt lat="59.103205204" lon="30.0308489799">
        <ele>0.0</ele>
        <time>2026-04-25T16:41:42.000Z</time>
    </trkpt>
    <trkpt lat="59.1031837463" lon="30.0308704376">
        <ele>0.0</ele>
        <time>2026-04-25T16:41:44.000Z</time>
    </trkpt>
    <trkpt lat="59.1031837463" lon="30.0308704376">
        <ele>0.0</ele>
        <time>2026-04-25T16:41:47.000Z</time>
    </trkpt>
    <trkpt lat="59.103140831" lon="30.0308918953">
        <ele>0.0</ele>
        <time>2026-04-25T16:41:49.000Z</time>
    </trkpt>
    <trkpt lat="59.103140831" lon="30.030913353">
        <ele>0.0</ele>
        <time>2026-04-25T16:41:52.000Z</time>
    </trkpt>
    <trkpt lat="59.103140831" lon="30.0309348106">
        <ele>0.0</ele>
        <time>2026-04-25T16:41:54.000Z</time>
    </trkpt>
    <trkpt lat="59.1031193733" lon="30.0309348106">
        <ele>0.0</ele>
        <time>2026-04-25T16:41:57.000Z</time>
    </trkpt>
    <trkpt lat="59.1031193733" lon="30.0309562683">
        <ele>0.0</ele>
        <time>2026-04-25T16:41:59.000Z</time>
    </trkpt>
    <trkpt lat="59.1030979156" lon="30.0309991837">
        <ele>0.0</ele>
        <time>2026-04-25T16:42:02.000Z</time>
    </trkpt>
    <trkpt lat="59.103076458" lon="30.0309991837">
        <ele>0.0</ele>
        <time>2026-04-25T16:42:04.000Z</time>
    </trkpt>
    <trkpt lat="59.103076458" lon="30.0309991837">
        <ele>0.0</ele>
        <time>2026-04-25T16:42:07.000Z</time>
    </trkpt>
    <trkpt lat="59.1030335426" lon="30.030977726">
        <ele>0.0</ele>
        <time>2026-04-25T16:42:09.000Z</time>
    </trkpt>
    <trkpt lat="59.1030550003" lon="30.0310206413">
        <ele>0.0</ele>
        <time>2026-04-25T16:42:12.000Z</time>
    </trkpt>
    <trkpt lat="59.1030335426" lon="30.031106472">
        <ele>0.0</ele>
        <time>2026-04-25T16:42:14.000Z</time>
    </trkpt>
    <trkpt lat="59.103012085" lon="30.0311279297">
        <ele>0.0</ele>
        <time>2026-04-25T16:42:17.000Z</time>
    </trkpt>
    <trkpt lat="59.103012085" lon="30.0311493874">
        <ele>0.0</ele>
        <time>2026-04-25T16:42:19.000Z</time>
    </trkpt>
    <trkpt lat="59.103012085" lon="30.031170845">
        <ele>0.0</ele>
        <time>2026-04-25T16:42:22.000Z</time>
    </trkpt>
    <trkpt lat="59.103012085" lon="30.031170845">
        <ele>0.0</ele>
        <time>2026-04-25T16:42:24.000Z</time>
    </trkpt>
    <trkpt lat="59.103012085" lon="30.031170845">
        <ele>0.0</ele>
        <time>2026-04-25T16:42:27.000Z</time>
    </trkpt>
    <trkpt lat="59.103012085" lon="30.0312137604">
        <ele>0.0</ele>
        <time>2026-04-25T16:42:29.000Z</time>
    </trkpt>
    <trkpt lat="59.103012085" lon="30.0312137604">
        <ele>0.0</ele>
        <time>2026-04-25T16:42:32.000Z</time>
    </trkpt>
    <trkpt lat="59.103012085" lon="30.0312781334">
        <ele>0.0</ele>
        <time>2026-04-25T16:42:37.000Z</time>
    </trkpt>
    <trkpt lat="59.1030335426" lon="30.0312995911">
        <ele>0.0</ele>
        <time>2026-04-25T16:42:39.000Z</time>
    </trkpt>
    <trkpt lat="59.1030335426" lon="30.0312995911">
        <ele>0.0</ele>
        <time>2026-04-25T16:42:42.000Z</time>
    </trkpt>
    <trkpt lat="59.1030335426" lon="30.0313210487">
        <ele>0.0</ele>
        <time>2026-04-25T16:42:44.000Z</time>
    </trkpt>
    <trkpt lat="59.103012085" lon="30.0313639641">
        <ele>0.0</ele>
        <time>2026-04-25T16:42:47.000Z</time>
    </trkpt>
    <trkpt lat="59.1030335426" lon="30.0314283371">
        <ele>0.0</ele>
        <time>2026-04-25T16:42:49.000Z</time>
    </trkpt>
    <trkpt lat="59.1030335426" lon="30.0314068794">
        <ele>0.0</ele>
        <time>2026-04-25T16:42:52.000Z</time>
    </trkpt>
    <trkpt lat="59.1030335426" lon="30.0313425064">
        <ele>0.0</ele>
        <time>2026-04-25T16:42:54.000Z</time>
    </trkpt>
    <trkpt lat="59.1030335426" lon="30.0313425064">
        <ele>0.0</ele>
        <time>2026-04-25T16:42:57.000Z</time>
    </trkpt>
    <trkpt lat="59.1030335426" lon="30.0313425064">
        <ele>0.0</ele>
        <time>2026-04-25T16:42:59.000Z</time>
    </trkpt>
    <trkpt lat="59.103012085" lon="30.0313639641">
        <ele>0.0</ele>
        <time>2026-04-25T16:43:02.000Z</time>
    </trkpt>
    <trkpt lat="59.1029906273" lon="30.0314283371">
        <ele>0.0</ele>
        <time>2026-04-25T16:43:04.000Z</time>
    </trkpt>
    <trkpt lat="59.1029691696" lon="30.0314712524">
        <ele>0.0</ele>
        <time>2026-04-25T16:43:07.000Z</time>
    </trkpt>
    <trkpt lat="59.1029906273" lon="30.0315356255">
        <ele>0.0</ele>
        <time>2026-04-25T16:43:09.000Z</time>
    </trkpt>
    <trkpt lat="59.1029691696" lon="30.0315570831">
        <ele>0.0</ele>
        <time>2026-04-25T16:43:12.000Z</time>
    </trkpt>
    <trkpt lat="59.1029691696" lon="30.0315356255">
        <ele>0.0</ele>
        <time>2026-04-25T16:43:14.000Z</time>
    </trkpt>
    <trkpt lat="59.1029691696" lon="30.0314712524">
        <ele>0.0</ele>
        <time>2026-04-25T16:43:17.000Z</time>
    </trkpt>
    <trkpt lat="59.1029906273" lon="30.0314068794">
        <ele>0.0</ele>
        <time>2026-04-25T16:43:19.000Z</time>
    </trkpt>
    <trkpt lat="59.103012085" lon="30.0313854218">
        <ele>0.0</ele>
        <time>2026-04-25T16:43:24.000Z</time>
    </trkpt>
    <trkpt lat="59.1029906273" lon="30.0313854218">
        <ele>0.0</ele>
        <time>2026-04-25T16:43:27.000Z</time>
    </trkpt>
    <trkpt lat="59.1029906273" lon="30.0313854218">
        <ele>0.0</ele>
        <time>2026-04-25T16:43:29.000Z</time>
    </trkpt>
    <trkpt lat="59.1029906273" lon="30.0313854218">
        <ele>0.0</ele>
        <time>2026-04-25T16:43:32.000Z</time>
    </trkpt>
    <trkpt lat="59.103012085" lon="30.0314068794">
        <ele>0.0</ele>
        <time>2026-04-25T16:43:34.000Z</time>
    </trkpt>
    <trkpt lat="59.103012085" lon="30.0314283371">
        <ele>0.0</ele>
        <time>2026-04-25T16:43:37.000Z</time>
    </trkpt>
    <trkpt lat="59.103012085" lon="30.0314283371">
        <ele>0.0</ele>
        <time>2026-04-25T16:43:39.000Z</time>
    </trkpt>
    <trkpt lat="59.1030335426" lon="30.0314497948">
        <ele>0.0</ele>
        <time>2026-04-25T16:43:42.000Z</time>
    </trkpt>
    <trkpt lat="59.1030335426" lon="30.0314712524">
        <ele>0.0</ele>
        <time>2026-04-25T16:43:44.000Z</time>
    </trkpt>
    <trkpt lat="59.1030335426" lon="30.0314712524">
        <ele>0.0</ele>
        <time>2026-04-25T16:43:47.000Z</time>
    </trkpt>
    <trkpt lat="59.103012085" lon="30.0315141678">
        <ele>0.0</ele>
        <time>2026-04-25T16:43:49.000Z</time>
    </trkpt>
    <trkpt lat="59.1029906273" lon="30.0315356255">
        <ele>0.0</ele>
        <time>2026-04-25T16:43:52.000Z</time>
    </trkpt>
    <trkpt lat="59.1029906273" lon="30.0315356255">
        <ele>0.0</ele>
        <time>2026-04-25T16:43:54.000Z</time>
    </trkpt>
    <trkpt lat="59.103012085" lon="30.0315570831">
        <ele>0.0</ele>
        <time>2026-04-25T16:43:57.000Z</time>
    </trkpt>
    <trkpt lat="59.1030335426" lon="30.0315999985">
        <ele>0.0</ele>
        <time>2026-04-25T16:43:59.000Z</time>
    </trkpt>
    <trkpt lat="59.1030335426" lon="30.0315785408">
        <ele>0.0</ele>
        <time>2026-04-25T16:44:02.000Z</time>
    </trkpt>
    <trkpt lat="59.1030335426" lon="30.0315141678">
        <ele>0.0</ele>
        <time>2026-04-25T16:44:04.000Z</time>
    </trkpt>
    <trkpt lat="59.1030335426" lon="30.0314712524">
        <ele>0.0</ele>
        <time>2026-04-25T16:44:07.000Z</time>
    </trkpt>
    <trkpt lat="59.1030335426" lon="30.0313639641">
        <ele>0.0</ele>
        <time>2026-04-25T16:44:09.000Z</time>
    </trkpt>
    <trkpt lat="59.1030335426" lon="30.0313210487">
        <ele>0.0</ele>
        <time>2026-04-25T16:44:12.000Z</time>
    </trkpt>
    <trkpt lat="59.1030550003" lon="30.0312781334">
        <ele>0.0</ele>
        <time>2026-04-25T16:44:14.000Z</time>
    </trkpt>
    <trkpt lat="59.1030550003" lon="30.0312781334">
        <ele>0.0</ele>
        <time>2026-04-25T16:44:17.000Z</time>
    </trkpt>
    <trkpt lat="59.1030550003" lon="30.0312781334">
        <ele>0.0</ele>
        <time>2026-04-25T16:44:19.000Z</time>
    </trkpt>
    <trkpt lat="59.1030550003" lon="30.0312781334">
        <ele>0.0</ele>
        <time>2026-04-25T16:44:22.000Z</time>
    </trkpt>
    <trkpt lat="59.103012085" lon="30.0312566757">
        <ele>0.0</ele>
        <time>2026-04-25T16:44:24.000Z</time>
    </trkpt>
    <trkpt lat="59.103012085" lon="30.031235218">
        <ele>0.0</ele>
        <time>2026-04-25T16:44:27.000Z</time>
    </trkpt>
    <trkpt lat="59.103012085" lon="30.0312566757">
        <ele>0.0</ele>
        <time>2026-04-25T16:44:29.000Z</time>
    </trkpt>
    <trkpt lat="59.1029906273" lon="30.0312781334">
        <ele>0.0</ele>
        <time>2026-04-25T16:44:32.000Z</time>
    </trkpt>
    <trkpt lat="59.1029691696" lon="30.0312995911">
        <ele>0.0</ele>
        <time>2026-04-25T16:44:34.000Z</time>
    </trkpt>
    <trkpt lat="59.1029477119" lon="30.0312566757">
        <ele>0.0</ele>
        <time>2026-04-25T16:44:39.000Z</time>
    </trkpt>
    <trkpt lat="59.1029477119" lon="30.0312566757">
        <ele>0.0</ele>
        <time>2026-04-25T16:44:42.000Z</time>
    </trkpt>
    <trkpt lat="59.1029477119" lon="30.031235218">
        <ele>0.0</ele>
        <time>2026-04-25T16:44:44.000Z</time>
    </trkpt>
    <trkpt lat="59.1029477119" lon="30.031235218">
        <ele>0.0</ele>
        <time>2026-04-25T16:44:47.000Z</time>
    </trkpt>
    <trkpt lat="59.1029477119" lon="30.031235218">
        <ele>0.0</ele>
        <time>2026-04-25T16:44:49.000Z</time>
    </trkpt>
    <trkpt lat="59.1029477119" lon="30.031235218">
        <ele>0.0</ele>
        <time>2026-04-25T16:44:52.000Z</time>
    </trkpt>
    <trkpt lat="59.1029047966" lon="30.0312137604">
        <ele>0.0</ele>
        <time>2026-04-25T16:44:54.000Z</time>
    </trkpt>
    <trkpt lat="59.1029047966" lon="30.0311923027">
        <ele>0.0</ele>
        <time>2026-04-25T16:44:57.000Z</time>
    </trkpt>
    <trkpt lat="59.1028618813" lon="30.0312137604">
        <ele>0.0</ele>
        <time>2026-04-25T16:44:59.000Z</time>
    </trkpt>
    <trkpt lat="59.1028618813" lon="30.0312137604">
        <ele>0.0</ele>
        <time>2026-04-25T16:45:02.000Z</time>
    </trkpt>
    <trkpt lat="59.1028404236" lon="30.0311923027">
        <ele>0.0</ele>
        <time>2026-04-25T16:45:04.000Z</time>
    </trkpt>
    <trkpt lat="59.1028404236" lon="30.0311923027">
        <ele>0.0</ele>
        <time>2026-04-25T16:45:07.000Z</time>
    </trkpt>
    <trkpt lat="59.1028189659" lon="30.0311923027">
        <ele>0.0</ele>
        <time>2026-04-25T16:45:09.000Z</time>
    </trkpt>
    <trkpt lat="59.1027975082" lon="30.0312137604">
        <ele>0.0</ele>
        <time>2026-04-25T16:45:12.000Z</time>
    </trkpt>
    <trkpt lat="59.1027760506" lon="30.0312566757">
        <ele>0.0</ele>
        <time>2026-04-25T16:45:14.000Z</time>
    </trkpt>
    <trkpt lat="59.1027760506" lon="30.0312566757">
        <ele>0.0</ele>
        <time>2026-04-25T16:45:17.000Z</time>
    </trkpt>
    <trkpt lat="59.1027760506" lon="30.0312566757">
        <ele>0.0</ele>
        <time>2026-04-25T16:45:19.000Z</time>
    </trkpt>
    <trkpt lat="59.1027545929" lon="30.0312137604">
        <ele>0.0</ele>
        <time>2026-04-25T16:45:22.000Z</time>
    </trkpt>
    <trkpt lat="59.1027331352" lon="30.0311923027">
        <ele>0.0</ele>
        <time>2026-04-25T16:45:24.000Z</time>
    </trkpt>
    <trkpt lat="59.1027331352" lon="30.0311923027">
        <ele>0.0</ele>
        <time>2026-04-25T16:45:27.000Z</time>
    </trkpt>
    <trkpt lat="59.1027116776" lon="30.0311923027">
        <ele>0.0</ele>
        <time>2026-04-25T16:45:29.000Z</time>
    </trkpt>
    <trkpt lat="59.1027116776" lon="30.0311923027">
        <ele>0.0</ele>
        <time>2026-04-25T16:45:32.000Z</time>
    </trkpt>
    <trkpt lat="59.1027116776" lon="30.0311279297">
        <ele>0.0</ele>
        <time>2026-04-25T16:45:34.000Z</time>
    </trkpt>
    <trkpt lat="59.1027116776" lon="30.0311279297">
        <ele>0.0</ele>
        <time>2026-04-25T16:45:37.000Z</time>
    </trkpt>
    <trkpt lat="59.1027116776" lon="30.031106472">
        <ele>0.0</ele>
        <time>2026-04-25T16:45:39.000Z</time>
    </trkpt>
    <trkpt lat="59.1027116776" lon="30.031106472">
        <ele>0.0</ele>
        <time>2026-04-25T16:45:42.000Z</time>
    </trkpt>
    <trkpt lat="59.1027116776" lon="30.0310850143">
        <ele>0.0</ele>
        <time>2026-04-25T16:45:44.000Z</time>
    </trkpt>
    <trkpt lat="59.1026902199" lon="30.031042099">
        <ele>0.0</ele>
        <time>2026-04-25T16:45:47.000Z</time>
    </trkpt>
    <trkpt lat="59.1026902199" lon="30.0309991837">
        <ele>0.0</ele>
        <time>2026-04-25T16:45:49.000Z</time>
    </trkpt>
    <trkpt lat="59.1026902199" lon="30.030977726">
        <ele>0.0</ele>
        <time>2026-04-25T16:45:52.000Z</time>
    </trkpt>
    <trkpt lat="59.1026902199" lon="30.030977726">
        <ele>0.0</ele>
        <time>2026-04-25T16:45:54.000Z</time>
    </trkpt>
    <trkpt lat="59.1026902199" lon="30.0309562683">
        <ele>0.0</ele>
        <time>2026-04-25T16:45:57.000Z</time>
    </trkpt>
    <trkpt lat="59.1026473045" lon="30.030913353">
        <ele>0.0</ele>
        <time>2026-04-25T16:45:59.000Z</time>
    </trkpt>
    <trkpt lat="59.1026473045" lon="30.030913353">
        <ele>0.0</ele>
        <time>2026-04-25T16:46:02.000Z</time>
    </trkpt>
    <trkpt lat="59.1026043892" lon="30.0308918953">
        <ele>0.0</ele>
        <time>2026-04-25T16:46:04.000Z</time>
    </trkpt>
    <trkpt lat="59.1026043892" lon="30.030913353">
        <ele>0.0</ele>
        <time>2026-04-25T16:46:07.000Z</time>
    </trkpt>
    <trkpt lat="59.1025829315" lon="30.0308918953">
        <ele>0.0</ele>
        <time>2026-04-25T16:46:09.000Z</time>
    </trkpt>
    <trkpt lat="59.1025400162" lon="30.0309348106">
        <ele>0.0</ele>
        <time>2026-04-25T16:46:12.000Z</time>
    </trkpt>
    <trkpt lat="59.1025400162" lon="30.0309348106">
        <ele>0.0</ele>
        <time>2026-04-25T16:46:14.000Z</time>
    </trkpt>
    <trkpt lat="59.1025400162" lon="30.0309348106">
        <ele>0.0</ele>
        <time>2026-04-25T16:46:17.000Z</time>
    </trkpt>
    <trkpt lat="59.1025400162" lon="30.030913353">
        <ele>0.0</ele>
        <time>2026-04-25T16:46:19.000Z</time>
    </trkpt>
    <trkpt lat="59.1025400162" lon="30.0308918953">
        <ele>0.0</ele>
        <time>2026-04-25T16:46:22.000Z</time>
    </trkpt>
    <trkpt lat="59.1025400162" lon="30.0308060646">
        <ele>0.0</ele>
        <time>2026-04-25T16:46:24.000Z</time>
    </trkpt>
    <trkpt lat="59.1025185585" lon="30.0307846069">
        <ele>0.0</ele>
        <time>2026-04-25T16:46:27.000Z</time>
    </trkpt>
    <trkpt lat="59.1024541855" lon="30.0307416916">
        <ele>0.0</ele>
        <time>2026-04-25T16:46:29.000Z</time>
    </trkpt>
    <trkpt lat="59.1024327278" lon="30.0307202339">
        <ele>0.0</ele>
        <time>2026-04-25T16:46:32.000Z</time>
    </trkpt>
    <trkpt lat="59.1023898125" lon="30.0307416916">
        <ele>0.0</ele>
        <time>2026-04-25T16:46:34.000Z</time>
    </trkpt>
    <trkpt lat="59.1023898125" lon="30.0307416916">
        <ele>0.0</ele>
        <time>2026-04-25T16:46:37.000Z</time>
    </trkpt>
    <trkpt lat="59.1023898125" lon="30.0307631493">
        <ele>0.0</ele>
        <time>2026-04-25T16:46:39.000Z</time>
    </trkpt>
    <trkpt lat="59.1023683548" lon="30.0307846069">
        <ele>0.0</ele>
        <time>2026-04-25T16:46:42.000Z</time>
    </trkpt>
    <trkpt lat="59.1023468971" lon="30.0308704376">
        <ele>0.0</ele>
        <time>2026-04-25T16:46:44.000Z</time>
    </trkpt>
    <trkpt lat="59.1023468971" lon="30.030913353">
        <ele>0.0</ele>
        <time>2026-04-25T16:46:47.000Z</time>
    </trkpt>
    <trkpt lat="59.1023468971" lon="30.030913353">
        <ele>0.0</ele>
        <time>2026-04-25T16:46:49.000Z</time>
    </trkpt>
    <trkpt lat="59.1023254395" lon="30.0309348106">
        <ele>0.0</ele>
        <time>2026-04-25T16:46:52.000Z</time>
    </trkpt>
    <trkpt lat="59.1023039818" lon="30.0309562683">
        <ele>0.0</ele>
        <time>2026-04-25T16:46:54.000Z</time>
    </trkpt>
    <trkpt lat="59.1023039818" lon="30.030977726">
        <ele>0.0</ele>
        <time>2026-04-25T16:46:57.000Z</time>
    </trkpt>
    <trkpt lat="59.1022825241" lon="30.030977726">
        <ele>0.0</ele>
        <time>2026-04-25T16:46:59.000Z</time>
    </trkpt>
    <trkpt lat="59.1022825241" lon="30.0309348106">
        <ele>0.0</ele>
        <time>2026-04-25T16:47:02.000Z</time>
    </trkpt>
    <trkpt lat="59.1022825241" lon="30.0309348106">
        <ele>0.0</ele>
        <time>2026-04-25T16:47:04.000Z</time>
    </trkpt>
    <trkpt lat="59.1022825241" lon="30.0309348106">
        <ele>0.0</ele>
        <time>2026-04-25T16:47:07.000Z</time>
    </trkpt>
    <trkpt lat="59.1022825241" lon="30.0309348106">
        <ele>0.0</ele>
        <time>2026-04-25T16:47:09.000Z</time>
    </trkpt>
    <trkpt lat="59.1022825241" lon="30.030913353">
        <ele>0.0</ele>
        <time>2026-04-25T16:47:12.000Z</time>
    </trkpt>
    <trkpt lat="59.1022825241" lon="30.030913353">
        <ele>0.0</ele>
        <time>2026-04-25T16:47:14.000Z</time>
    </trkpt>
    <trkpt lat="59.1022610664" lon="30.0308489799">
        <ele>0.0</ele>
        <time>2026-04-25T16:47:17.000Z</time>
    </trkpt>
    <trkpt lat="59.1022610664" lon="30.0307846069">
        <ele>0.0</ele>
        <time>2026-04-25T16:47:19.000Z</time>
    </trkpt>
    <trkpt lat="59.1022610664" lon="30.0307202339">
        <ele>0.0</ele>
        <time>2026-04-25T16:47:22.000Z</time>
    </trkpt>
    <trkpt lat="59.1022610664" lon="30.0307202339">
        <ele>0.0</ele>
        <time>2026-04-25T16:47:24.000Z</time>
    </trkpt>
    <trkpt lat="59.1022610664" lon="30.0307202339">
        <ele>0.0</ele>
        <time>2026-04-25T16:47:27.000Z</time>
    </trkpt>
    <trkpt lat="59.1022396088" lon="30.0306558609">
        <ele>0.0</ele>
        <time>2026-04-25T16:47:29.000Z</time>
    </trkpt>
    <trkpt lat="59.1022396088" lon="30.0306344032">
        <ele>0.0</ele>
        <time>2026-04-25T16:47:32.000Z</time>
    </trkpt>
    <trkpt lat="59.1022181511" lon="30.0306129456">
        <ele>0.0</ele>
        <time>2026-04-25T16:47:34.000Z</time>
    </trkpt>
    <trkpt lat="59.1022181511" lon="30.0306129456">
        <ele>0.0</ele>
        <time>2026-04-25T16:47:37.000Z</time>
    </trkpt>
    <trkpt lat="59.1021752357" lon="30.0305700302">
        <ele>0.0</ele>
        <time>2026-04-25T16:47:39.000Z</time>
    </trkpt>
    <trkpt lat="59.1021537781" lon="30.0305700302">
        <ele>0.0</ele>
        <time>2026-04-25T16:47:42.000Z</time>
    </trkpt>
    <trkpt lat="59.1021752357" lon="30.0306129456">
        <ele>0.0</ele>
        <time>2026-04-25T16:47:44.000Z</time>
    </trkpt>
    <trkpt lat="59.1021752357" lon="30.0306129456">
        <ele>0.0</ele>
        <time>2026-04-25T16:47:47.000Z</time>
    </trkpt>
    <trkpt lat="59.1021752357" lon="30.0306344032">
        <ele>0.0</ele>
        <time>2026-04-25T16:47:49.000Z</time>
    </trkpt>
    <trkpt lat="59.1021752357" lon="30.0306773186">
        <ele>0.0</ele>
        <time>2026-04-25T16:47:52.000Z</time>
    </trkpt>
    <trkpt lat="59.1021752357" lon="30.0306773186">
        <ele>0.0</ele>
        <time>2026-04-25T16:47:54.000Z</time>
    </trkpt>
    <trkpt lat="59.1021966934" lon="30.0306987762">
        <ele>0.0</ele>
        <time>2026-04-25T16:47:57.000Z</time>
    </trkpt>
    <trkpt lat="59.1022181511" lon="30.0307631493">
        <ele>0.0</ele>
        <time>2026-04-25T16:47:59.000Z</time>
    </trkpt>
    <trkpt lat="59.1022396088" lon="30.0307846069">
        <ele>0.0</ele>
        <time>2026-04-25T16:48:02.000Z</time>
    </trkpt>
    <trkpt lat="59.1022396088" lon="30.0308060646">
        <ele>0.0</ele>
        <time>2026-04-25T16:48:04.000Z</time>
    </trkpt>
    <trkpt lat="59.1022396088" lon="30.0308060646">
        <ele>0.0</ele>
        <time>2026-04-25T16:48:07.000Z</time>
    </trkpt>
    <trkpt lat="59.1022396088" lon="30.0308060646">
        <ele>0.0</ele>
        <time>2026-04-25T16:48:09.000Z</time>
    </trkpt>
    <trkpt lat="59.1022396088" lon="30.0308060646">
        <ele>0.0</ele>
        <time>2026-04-25T16:48:12.000Z</time>
    </trkpt>
    <trkpt lat="59.1022396088" lon="30.0308060646">
        <ele>0.0</ele>
        <time>2026-04-25T16:48:14.000Z</time>
    </trkpt>
    <trkpt lat="59.1022396088" lon="30.0308060646">
        <ele>0.0</ele>
        <time>2026-04-25T16:48:17.000Z</time>
    </trkpt>
    <trkpt lat="59.1022396088" lon="30.0308060646">
        <ele>0.0</ele>
        <time>2026-04-25T16:48:19.000Z</time>
    </trkpt>
    <trkpt lat="59.1022396088" lon="30.0308060646">
        <ele>0.0</ele>
        <time>2026-04-25T16:48:22.000Z</time>
    </trkpt>
    <trkpt lat="59.1022396088" lon="30.0308060646">
        <ele>0.0</ele>
        <time>2026-04-25T16:48:24.000Z</time>
    </trkpt>
    <trkpt lat="59.1022396088" lon="30.0308060646">
        <ele>0.0</ele>
        <time>2026-04-25T16:48:27.000Z</time>
    </trkpt>
    <trkpt lat="59.1022396088" lon="30.0308060646">
        <ele>0.0</ele>
        <time>2026-04-25T16:48:29.000Z</time>
    </trkpt>
    <trkpt lat="59.1022396088" lon="30.0308060646">
        <ele>0.0</ele>
        <time>2026-04-25T16:48:32.000Z</time>
    </trkpt>
    <trkpt lat="59.1022396088" lon="30.0308275223">
        <ele>0.0</ele>
        <time>2026-04-25T16:48:34.000Z</time>
    </trkpt>
    <trkpt lat="59.1022610664" lon="30.0308275223">
        <ele>0.0</ele>
        <time>2026-04-25T16:48:37.000Z</time>
    </trkpt>
    <trkpt lat="59.1022610664" lon="30.0308275223">
        <ele>0.0</ele>
        <time>2026-04-25T16:48:39.000Z</time>
    </trkpt>
    <trkpt lat="59.1022610664" lon="30.0308275223">
        <ele>0.0</ele>
        <time>2026-04-25T16:48:42.000Z</time>
    </trkpt>
    <trkpt lat="59.1022610664" lon="30.0308275223">
        <ele>0.0</ele>
        <time>2026-04-25T16:48:44.000Z</time>
    </trkpt>
    <trkpt lat="59.1022396088" lon="30.0308489799">
        <ele>0.0</ele>
        <time>2026-04-25T16:48:47.000Z</time>
    </trkpt>
    <trkpt lat="59.1022181511" lon="30.030913353">
        <ele>0.0</ele>
        <time>2026-04-25T16:48:49.000Z</time>
    </trkpt>
    <trkpt lat="59.1022181511" lon="30.0309562683">
        <ele>0.0</ele>
        <time>2026-04-25T16:48:52.000Z</time>
    </trkpt>
    <trkpt lat="59.1022181511" lon="30.0310206413">
        <ele>0.0</ele>
        <time>2026-04-25T16:48:54.000Z</time>
    </trkpt>
    <trkpt lat="59.1022181511" lon="30.0310635567">
        <ele>0.0</ele>
        <time>2026-04-25T16:48:57.000Z</time>
    </trkpt>
    <trkpt lat="59.1022181511" lon="30.0310635567">
        <ele>0.0</ele>
        <time>2026-04-25T16:48:59.000Z</time>
    </trkpt>
    <trkpt lat="59.1022181511" lon="30.0310635567">
        <ele>0.0</ele>
        <time>2026-04-25T16:49:02.000Z</time>
    </trkpt>
    <trkpt lat="59.1022181511" lon="30.0310635567">
        <ele>0.0</ele>
        <time>2026-04-25T16:49:04.000Z</time>
    </trkpt>
    <trkpt lat="59.1022181511" lon="30.0310635567">
        <ele>0.0</ele>
        <time>2026-04-25T16:49:07.000Z</time>
    </trkpt>
    <trkpt lat="59.1022181511" lon="30.031106472">
        <ele>0.0</ele>
        <time>2026-04-25T16:49:09.000Z</time>
    </trkpt>
    <trkpt lat="59.1022181511" lon="30.0311493874">
        <ele>0.0</ele>
        <time>2026-04-25T16:49:12.000Z</time>
    </trkpt>
    <trkpt lat="59.1022181511" lon="30.031170845">
        <ele>0.0</ele>
        <time>2026-04-25T16:49:14.000Z</time>
    </trkpt>
    <trkpt lat="59.1021966934" lon="30.0312137604">
        <ele>0.0</ele>
        <time>2026-04-25T16:49:17.000Z</time>
    </trkpt>
    <trkpt lat="59.1021752357" lon="30.0312566757">
        <ele>0.0</ele>
        <time>2026-04-25T16:49:19.000Z</time>
    </trkpt>
    <trkpt lat="59.1021966934" lon="30.0312781334">
        <ele>0.0</ele>
        <time>2026-04-25T16:49:22.000Z</time>
    </trkpt>
    <trkpt lat="59.1022181511" lon="30.0312995911">
        <ele>0.0</ele>
        <time>2026-04-25T16:49:24.000Z</time>
    </trkpt>
    <trkpt lat="59.1021966934" lon="30.0313210487">
        <ele>0.0</ele>
        <time>2026-04-25T16:49:27.000Z</time>
    </trkpt>
    <trkpt lat="59.1021966934" lon="30.0313639641">
        <ele>0.0</ele>
        <time>2026-04-25T16:49:29.000Z</time>
    </trkpt>
    <trkpt lat="59.1021966934" lon="30.0313639641">
        <ele>0.0</ele>
        <time>2026-04-25T16:49:32.000Z</time>
    </trkpt>
    <trkpt lat="59.1021966934" lon="30.0313639641">
        <ele>0.0</ele>
        <time>2026-04-25T16:49:34.000Z</time>
    </trkpt>
    <trkpt lat="59.1021966934" lon="30.0313854218">
        <ele>0.0</ele>
        <time>2026-04-25T16:49:37.000Z</time>
    </trkpt>
    <trkpt lat="59.1021966934" lon="30.0313854218">
        <ele>0.0</ele>
        <time>2026-04-25T16:49:39.000Z</time>
    </trkpt>
    <trkpt lat="59.1021966934" lon="30.0313854218">
        <ele>0.0</ele>
        <time>2026-04-25T16:49:42.000Z</time>
    </trkpt>
    <trkpt lat="59.1021966934" lon="30.0313854218">
        <ele>0.0</ele>
        <time>2026-04-25T16:49:44.000Z</time>
    </trkpt>
    <trkpt lat="59.1021966934" lon="30.0313854218">
        <ele>0.0</ele>
        <time>2026-04-25T16:49:47.000Z</time>
    </trkpt>
    <trkpt lat="59.1021966934" lon="30.0313854218">
        <ele>0.0</ele>
        <time>2026-04-25T16:49:49.000Z</time>
    </trkpt>
    <trkpt lat="59.1021966934" lon="30.0313854218">
        <ele>0.0</ele>
        <time>2026-04-25T16:49:52.000Z</time>
    </trkpt>
    <trkpt lat="59.1021966934" lon="30.0313854218">
        <ele>0.0</ele>
        <time>2026-04-25T16:49:54.000Z</time>
    </trkpt>
    <trkpt lat="59.1021966934" lon="30.0314068794">
        <ele>0.0</ele>
        <time>2026-04-25T16:49:57.000Z</time>
    </trkpt>
    <trkpt lat="59.1021966934" lon="30.0314283371">
        <ele>0.0</ele>
        <time>2026-04-25T16:49:59.000Z</time>
    </trkpt>
    <trkpt lat="59.1021966934" lon="30.0314497948">
        <ele>0.0</ele>
        <time>2026-04-25T16:50:02.000Z</time>
    </trkpt>
    <trkpt lat="59.1021752357" lon="30.0314712524">
        <ele>0.0</ele>
        <time>2026-04-25T16:50:04.000Z</time>
    </trkpt>
    <trkpt lat="59.1021752357" lon="30.0315141678">
        <ele>0.0</ele>
        <time>2026-04-25T16:50:07.000Z</time>
    </trkpt>
    <trkpt lat="59.1021537781" lon="30.0315785408">
        <ele>0.0</ele>
        <time>2026-04-25T16:50:09.000Z</time>
    </trkpt>
    <trkpt lat="59.1021323204" lon="30.0315999985">
        <ele>0.0</ele>
        <time>2026-04-25T16:50:12.000Z</time>
    </trkpt>
    <trkpt lat="59.1021323204" lon="30.0316643715">
        <ele>0.0</ele>
        <time>2026-04-25T16:50:14.000Z</time>
    </trkpt>
    <trkpt lat="59.1021108627" lon="30.0316858292">
        <ele>0.0</ele>
        <time>2026-04-25T16:50:17.000Z</time>
    </trkpt>
    <trkpt lat="59.1021108627" lon="30.0317502022">
        <ele>0.0</ele>
        <time>2026-04-25T16:50:19.000Z</time>
    </trkpt>
    <trkpt lat="59.1020894051" lon="30.0317502022">
        <ele>0.0</ele>
        <time>2026-04-25T16:50:22.000Z</time>
    </trkpt>
    <trkpt lat="59.1020894051" lon="30.0317502022">
        <ele>0.0</ele>
        <time>2026-04-25T16:50:24.000Z</time>
    </trkpt>
    <trkpt lat="59.1020894051" lon="30.0317502022">
        <ele>0.0</ele>
        <time>2026-04-25T16:50:27.000Z</time>
    </trkpt>
    <trkpt lat="59.1020894051" lon="30.0317502022">
        <ele>0.0</ele>
        <time>2026-04-25T16:50:29.000Z</time>
    </trkpt>
    <trkpt lat="59.1020894051" lon="30.0317502022">
        <ele>0.0</ele>
        <time>2026-04-25T16:50:32.000Z</time>
    </trkpt>
    <trkpt lat="59.1020894051" lon="30.0317287445">
        <ele>0.0</ele>
        <time>2026-04-25T16:50:34.000Z</time>
    </trkpt>
    <trkpt lat="59.1020894051" lon="30.0317287445">
        <ele>0.0</ele>
        <time>2026-04-25T16:50:37.000Z</time>
    </trkpt>
    <trkpt lat="59.1020894051" lon="30.0317716599">
        <ele>0.0</ele>
        <time>2026-04-25T16:50:39.000Z</time>
    </trkpt>
    <trkpt lat="59.1020894051" lon="30.0317716599">
        <ele>0.0</ele>
        <time>2026-04-25T16:50:42.000Z</time>
    </trkpt>
    <trkpt lat="59.1020679474" lon="30.0318145752">
        <ele>0.0</ele>
        <time>2026-04-25T16:50:44.000Z</time>
    </trkpt>
    <trkpt lat="59.1020679474" lon="30.0318360329">
        <ele>0.0</ele>
        <time>2026-04-25T16:50:47.000Z</time>
    </trkpt>
    <trkpt lat="59.1020464897" lon="30.0318574905">
        <ele>0.0</ele>
        <time>2026-04-25T16:50:49.000Z</time>
    </trkpt>
    <trkpt lat="59.1020464897" lon="30.0318574905">
        <ele>0.0</ele>
        <time>2026-04-25T16:50:52.000Z</time>
    </trkpt>
    <trkpt lat="59.102025032" lon="30.0318574905">
        <ele>0.0</ele>
        <time>2026-04-25T16:50:54.000Z</time>
    </trkpt>
    <trkpt lat="59.1020035744" lon="30.0319004059">
        <ele>0.0</ele>
        <time>2026-04-25T16:50:57.000Z</time>
    </trkpt>
    <trkpt lat="59.1020035744" lon="30.0319218636">
        <ele>0.0</ele>
        <time>2026-04-25T16:50:59.000Z</time>
    </trkpt>
    <trkpt lat="59.1020035744" lon="30.0319433212">
        <ele>0.0</ele>
        <time>2026-04-25T16:51:02.000Z</time>
    </trkpt>
    <trkpt lat="59.1020035744" lon="30.0319433212">
        <ele>0.0</ele>
        <time>2026-04-25T16:51:04.000Z</time>
    </trkpt>
    <trkpt lat="59.1019821167" lon="30.0319218636">
        <ele>0.0</ele>
        <time>2026-04-25T16:51:07.000Z</time>
    </trkpt>
    <trkpt lat="59.101960659" lon="30.0319433212">
        <ele>0.0</ele>
        <time>2026-04-25T16:51:09.000Z</time>
    </trkpt>
    <trkpt lat="59.1019392014" lon="30.0319433212">
        <ele>0.0</ele>
        <time>2026-04-25T16:51:12.000Z</time>
    </trkpt>
    <trkpt lat="59.1019392014" lon="30.0319647789">
        <ele>0.0</ele>
        <time>2026-04-25T16:51:14.000Z</time>
    </trkpt>
    <trkpt lat="59.1019392014" lon="30.0319862366">
        <ele>0.0</ele>
        <time>2026-04-25T16:51:17.000Z</time>
    </trkpt>
    <trkpt lat="59.1019392014" lon="30.0320076942">
        <ele>0.0</ele>
        <time>2026-04-25T16:51:19.000Z</time>
    </trkpt>
    <trkpt lat="59.1019177437" lon="30.0320291519">
        <ele>0.0</ele>
        <time>2026-04-25T16:51:22.000Z</time>
    </trkpt>
    <trkpt lat="59.101896286" lon="30.0320291519">
        <ele>0.0</ele>
        <time>2026-04-25T16:51:24.000Z</time>
    </trkpt>
    <trkpt lat="59.1018748283" lon="30.0320291519">
        <ele>0.0</ele>
        <time>2026-04-25T16:51:27.000Z</time>
    </trkpt>
    <trkpt lat="59.1018533707" lon="30.0320076942">
        <ele>0.0</ele>
        <time>2026-04-25T16:51:29.000Z</time>
    </trkpt>
    <trkpt lat="59.101831913" lon="30.0319862366">
        <ele>0.0</ele>
        <time>2026-04-25T16:51:32.000Z</time>
    </trkpt>
    <trkpt lat="59.101831913" lon="30.0319862366">
        <ele>0.0</ele>
        <time>2026-04-25T16:51:34.000Z</time>
    </trkpt>
    <trkpt lat="59.1018104553" lon="30.0319862366">
        <ele>0.0</ele>
        <time>2026-04-25T16:51:37.000Z</time>
    </trkpt>
    <trkpt lat="59.1017889977" lon="30.0320506096">
        <ele>0.0</ele>
        <time>2026-04-25T16:51:39.000Z</time>
    </trkpt>
    <trkpt lat="59.10176754" lon="30.0320506096">
        <ele>0.0</ele>
        <time>2026-04-25T16:51:42.000Z</time>
    </trkpt>
    <trkpt lat="59.1017460823" lon="30.0320720673">
        <ele>0.0</ele>
        <time>2026-04-25T16:51:44.000Z</time>
    </trkpt>
    <trkpt lat="59.1017246246" lon="30.0321149826">
        <ele>0.0</ele>
        <time>2026-04-25T16:51:47.000Z</time>
    </trkpt>
    <trkpt lat="59.1017246246" lon="30.0322008133">
        <ele>0.0</ele>
        <time>2026-04-25T16:51:49.000Z</time>
    </trkpt>
    <trkpt lat="59.1017246246" lon="30.0322008133">
        <ele>0.0</ele>
        <time>2026-04-25T16:51:52.000Z</time>
    </trkpt>
    <trkpt lat="59.101703167" lon="30.032222271">
        <ele>0.0</ele>
        <time>2026-04-25T16:51:54.000Z</time>
    </trkpt>
    <trkpt lat="59.101703167" lon="30.0322008133">
        <ele>0.0</ele>
        <time>2026-04-25T16:51:57.000Z</time>
    </trkpt>
    <trkpt lat="59.1016817093" lon="30.0321578979">
        <ele>0.0</ele>
        <time>2026-04-25T16:51:59.000Z</time>
    </trkpt>
    <trkpt lat="59.1016602516" lon="30.0321149826">
        <ele>0.0</ele>
        <time>2026-04-25T16:52:02.000Z</time>
    </trkpt>
    <trkpt lat="59.1016602516" lon="30.0320935249">
        <ele>0.0</ele>
        <time>2026-04-25T16:52:04.000Z</time>
    </trkpt>
    <trkpt lat="59.1016173363" lon="30.0320935249">
        <ele>0.0</ele>
        <time>2026-04-25T16:52:07.000Z</time>
    </trkpt>
    <trkpt lat="59.1015958786" lon="30.0321149826">
        <ele>0.0</ele>
        <time>2026-04-25T16:52:09.000Z</time>
    </trkpt>
    <trkpt lat="59.1015744209" lon="30.0321149826">
        <ele>0.0</ele>
        <time>2026-04-25T16:52:12.000Z</time>
    </trkpt>
    <trkpt lat="59.1015529633" lon="30.0321149826">
        <ele>0.0</ele>
        <time>2026-04-25T16:52:14.000Z</time>
    </trkpt>
    <trkpt lat="59.1015315056" lon="30.0321149826">
        <ele>0.0</ele>
        <time>2026-04-25T16:52:17.000Z</time>
    </trkpt>
    <trkpt lat="59.1015315056" lon="30.0321364403">
        <ele>0.0</ele>
        <time>2026-04-25T16:52:19.000Z</time>
    </trkpt>
    <trkpt lat="59.1015315056" lon="30.0321364403">
        <ele>0.0</ele>
        <time>2026-04-25T16:52:22.000Z</time>
    </trkpt>
    <trkpt lat="59.1015100479" lon="30.0321578979">
        <ele>0.0</ele>
        <time>2026-04-25T16:52:24.000Z</time>
    </trkpt>
    <trkpt lat="59.1015100479" lon="30.0321793556">
        <ele>0.0</ele>
        <time>2026-04-25T16:52:27.000Z</time>
    </trkpt>
    <trkpt lat="59.1014885902" lon="30.0321578979">
        <ele>0.0</ele>
        <time>2026-04-25T16:52:29.000Z</time>
    </trkpt>
    <trkpt lat="59.1014671326" lon="30.0321364403">
        <ele>0.0</ele>
        <time>2026-04-25T16:52:32.000Z</time>
    </trkpt>
    <trkpt lat="59.1014671326" lon="30.0321793556">
        <ele>0.0</ele>
        <time>2026-04-25T16:52:34.000Z</time>
    </trkpt>
    <trkpt lat="59.1014671326" lon="30.0322008133">
        <ele>0.0</ele>
        <time>2026-04-25T16:52:37.000Z</time>
    </trkpt>
    <trkpt lat="59.1014456749" lon="30.0321793556">
        <ele>0.0</ele>
        <time>2026-04-25T16:52:39.000Z</time>
    </trkpt>
    <trkpt lat="59.1014242172" lon="30.0321364403">
        <ele>0.0</ele>
        <time>2026-04-25T16:52:42.000Z</time>
    </trkpt>
    <trkpt lat="59.1014027596" lon="30.0320935249">
        <ele>0.0</ele>
        <time>2026-04-25T16:52:44.000Z</time>
    </trkpt>
    <trkpt lat="59.1014027596" lon="30.0320506096">
        <ele>0.0</ele>
        <time>2026-04-25T16:52:47.000Z</time>
    </trkpt>
    <trkpt lat="59.1014027596" lon="30.0320076942">
        <ele>0.0</ele>
        <time>2026-04-25T16:52:49.000Z</time>
    </trkpt>
    <trkpt lat="59.1013813019" lon="30.0319433212">
        <ele>0.0</ele>
        <time>2026-04-25T16:52:52.000Z</time>
    </trkpt>
    <trkpt lat="59.1013598442" lon="30.0319218636">
        <ele>0.0</ele>
        <time>2026-04-25T16:52:54.000Z</time>
    </trkpt>
    <trkpt lat="59.1013598442" lon="30.0319218636">
        <ele>0.0</ele>
        <time>2026-04-25T16:52:57.000Z</time>
    </trkpt>
    <trkpt lat="59.1013598442" lon="30.0319218636">
        <ele>0.0</ele>
        <time>2026-04-25T16:52:59.000Z</time>
    </trkpt>
    <trkpt lat="59.1013813019" lon="30.0319433212">
        <ele>0.0</ele>
        <time>2026-04-25T16:53:02.000Z</time>
    </trkpt>
    <trkpt lat="59.1014027596" lon="30.0319862366">
        <ele>0.0</ele>
        <time>2026-04-25T16:53:04.000Z</time>
    </trkpt>
    <trkpt lat="59.1014027596" lon="30.0320076942">
        <ele>0.0</ele>
        <time>2026-04-25T16:53:07.000Z</time>
    </trkpt>
    <trkpt lat="59.1014242172" lon="30.0320506096">
        <ele>0.0</ele>
        <time>2026-04-25T16:53:09.000Z</time>
    </trkpt>
    <trkpt lat="59.1014242172" lon="30.0320506096">
        <ele>0.0</ele>
        <time>2026-04-25T16:53:12.000Z</time>
    </trkpt>
    <trkpt lat="59.1014456749" lon="30.0320506096">
        <ele>0.0</ele>
        <time>2026-04-25T16:53:14.000Z</time>
    </trkpt>
    <trkpt lat="59.1014456749" lon="30.0320506096">
        <ele>0.0</ele>
        <time>2026-04-25T16:53:17.000Z</time>
    </trkpt>
    <trkpt lat="59.1014242172" lon="30.0320291519">
        <ele>0.0</ele>
        <time>2026-04-25T16:53:19.000Z</time>
    </trkpt>
    <trkpt lat="59.1014027596" lon="30.0320291519">
        <ele>0.0</ele>
        <time>2026-04-25T16:53:22.000Z</time>
    </trkpt>
    <trkpt lat="59.1013813019" lon="30.0319647789">
        <ele>0.0</ele>
        <time>2026-04-25T16:53:24.000Z</time>
    </trkpt>
    <trkpt lat="59.1013598442" lon="30.0319433212">
        <ele>0.0</ele>
        <time>2026-04-25T16:53:27.000Z</time>
    </trkpt>
    <trkpt lat="59.1013383865" lon="30.0319647789">
        <ele>0.0</ele>
        <time>2026-04-25T16:53:29.000Z</time>
    </trkpt>
    <trkpt lat="59.1013169289" lon="30.0319647789">
        <ele>0.0</ele>
        <time>2026-04-25T16:53:32.000Z</time>
    </trkpt>
    <trkpt lat="59.1012954712" lon="30.0319862366">
        <ele>0.0</ele>
        <time>2026-04-25T16:53:34.000Z</time>
    </trkpt>
    <trkpt lat="59.1012954712" lon="30.0319862366">
        <ele>0.0</ele>
        <time>2026-04-25T16:53:37.000Z</time>
    </trkpt>
    <trkpt lat="59.1012954712" lon="30.0319862366">
        <ele>0.0</ele>
        <time>2026-04-25T16:53:39.000Z</time>
    </trkpt>
    <trkpt lat="59.1012954712" lon="30.0319862366">
        <ele>0.0</ele>
        <time>2026-04-25T16:53:42.000Z</time>
    </trkpt>
    <trkpt lat="59.1012954712" lon="30.0319862366">
        <ele>0.0</ele>
        <time>2026-04-25T16:53:44.000Z</time>
    </trkpt>
    <trkpt lat="59.1012954712" lon="30.0319862366">
        <ele>0.0</ele>
        <time>2026-04-25T16:53:47.000Z</time>
    </trkpt>
    <trkpt lat="59.1012954712" lon="30.0319647789">
        <ele>0.0</ele>
        <time>2026-04-25T16:53:49.000Z</time>
    </trkpt>
    <trkpt lat="59.1012740135" lon="30.0319433212">
        <ele>0.0</ele>
        <time>2026-04-25T16:53:52.000Z</time>
    </trkpt>
    <trkpt lat="59.1012525558" lon="30.0319647789">
        <ele>0.0</ele>
        <time>2026-04-25T16:53:54.000Z</time>
    </trkpt>
    <trkpt lat="59.1012310982" lon="30.0319862366">
        <ele>0.0</ele>
        <time>2026-04-25T16:53:57.000Z</time>
    </trkpt>
    <trkpt lat="59.1012310982" lon="30.0319647789">
        <ele>0.0</ele>
        <time>2026-04-25T16:53:59.000Z</time>
    </trkpt>
    <trkpt lat="59.1012310982" lon="30.0319647789">
        <ele>0.0</ele>
        <time>2026-04-25T16:54:02.000Z</time>
    </trkpt>
    <trkpt lat="59.1012310982" lon="30.0319004059">
        <ele>0.0</ele>
        <time>2026-04-25T16:54:04.000Z</time>
    </trkpt>
    <trkpt lat="59.1012525558" lon="30.0319004059">
        <ele>0.0</ele>
        <time>2026-04-25T16:54:07.000Z</time>
    </trkpt>
    <trkpt lat="59.1012525558" lon="30.0319004059">
        <ele>0.0</ele>
        <time>2026-04-25T16:54:09.000Z</time>
    </trkpt>
    <trkpt lat="59.1012740135" lon="30.0319218636">
        <ele>0.0</ele>
        <time>2026-04-25T16:54:12.000Z</time>
    </trkpt>
    <trkpt lat="59.1012954712" lon="30.0319218636">
        <ele>0.0</ele>
        <time>2026-04-25T16:54:14.000Z</time>
    </trkpt>
    <trkpt lat="59.1012954712" lon="30.0319218636">
        <ele>0.0</ele>
        <time>2026-04-25T16:54:17.000Z</time>
    </trkpt>
    <trkpt lat="59.1012954712" lon="30.0319218636">
        <ele>0.0</ele>
        <time>2026-04-25T16:54:19.000Z</time>
    </trkpt>
    <trkpt lat="59.1012740135" lon="30.0319647789">
        <ele>0.0</ele>
        <time>2026-04-25T16:54:22.000Z</time>
    </trkpt>
    <trkpt lat="59.1012310982" lon="30.0319862366">
        <ele>0.0</ele>
        <time>2026-04-25T16:54:24.000Z</time>
    </trkpt>
    <trkpt lat="59.1012310982" lon="30.0319862366">
        <ele>0.0</ele>
        <time>2026-04-25T16:54:27.000Z</time>
    </trkpt>
    <trkpt lat="59.1011881828" lon="30.0319862366">
        <ele>0.0</ele>
        <time>2026-04-25T16:54:29.000Z</time>
    </trkpt>
    <trkpt lat="59.1011881828" lon="30.0319862366">
        <ele>0.0</ele>
        <time>2026-04-25T16:54:32.000Z</time>
    </trkpt>
    <trkpt lat="59.1011667252" lon="30.0319862366">
        <ele>0.0</ele>
        <time>2026-04-25T16:54:34.000Z</time>
    </trkpt>
    <trkpt lat="59.1011667252" lon="30.0319862366">
        <ele>0.0</ele>
        <time>2026-04-25T16:54:37.000Z</time>
    </trkpt>
    <trkpt lat="59.1011667252" lon="30.0319862366">
        <ele>0.0</ele>
        <time>2026-04-25T16:54:39.000Z</time>
    </trkpt>
    <trkpt lat="59.1011667252" lon="30.0320291519">
        <ele>0.0</ele>
        <time>2026-04-25T16:54:42.000Z</time>
    </trkpt>
    <trkpt lat="59.1011881828" lon="30.0320935249">
        <ele>0.0</ele>
        <time>2026-04-25T16:54:44.000Z</time>
    </trkpt>
    <trkpt lat="59.1011881828" lon="30.0320935249">
        <ele>0.0</ele>
        <time>2026-04-25T16:54:47.000Z</time>
    </trkpt>
    <trkpt lat="59.1012096405" lon="30.0321578979">
        <ele>0.0</ele>
        <time>2026-04-25T16:54:49.000Z</time>
    </trkpt>
    <trkpt lat="59.1011881828" lon="30.0321793556">
        <ele>0.0</ele>
        <time>2026-04-25T16:54:52.000Z</time>
    </trkpt>
    <trkpt lat="59.1011667252" lon="30.0322008133">
        <ele>0.0</ele>
        <time>2026-04-25T16:54:54.000Z</time>
    </trkpt>
    <trkpt lat="59.1011667252" lon="30.0322437286">
        <ele>0.0</ele>
        <time>2026-04-25T16:54:57.000Z</time>
    </trkpt>
    <trkpt lat="59.1011667252" lon="30.0322651863">
        <ele>0.0</ele>
        <time>2026-04-25T16:54:59.000Z</time>
    </trkpt>
    <trkpt lat="59.1011667252" lon="30.032286644">
        <ele>0.0</ele>
        <time>2026-04-25T16:55:02.000Z</time>
    </trkpt>
    <trkpt lat="59.1011452675" lon="30.032286644">
        <ele>0.0</ele>
        <time>2026-04-25T16:55:04.000Z</time>
    </trkpt>
    <trkpt lat="59.1011452675" lon="30.032286644">
        <ele>0.0</ele>
        <time>2026-04-25T16:55:07.000Z</time>
    </trkpt>
    <trkpt lat="59.1011452675" lon="30.032286644">
        <ele>0.0</ele>
        <time>2026-04-25T16:55:09.000Z</time>
    </trkpt>
    <trkpt lat="59.1011452675" lon="30.032286644">
        <ele>0.0</ele>
        <time>2026-04-25T16:55:12.000Z</time>
    </trkpt>
    <trkpt lat="59.1011452675" lon="30.032286644">
        <ele>0.0</ele>
        <time>2026-04-25T16:55:14.000Z</time>
    </trkpt>
    <trkpt lat="59.1011452675" lon="30.032286644">
        <ele>0.0</ele>
        <time>2026-04-25T16:55:17.000Z</time>
    </trkpt>
    <trkpt lat="59.1011452675" lon="30.032286644">
        <ele>0.0</ele>
        <time>2026-04-25T16:55:19.000Z</time>
    </trkpt>
    <trkpt lat="59.1011452675" lon="30.0323295593">
        <ele>0.0</ele>
        <time>2026-04-25T16:55:22.000Z</time>
    </trkpt>
    <trkpt lat="59.1011452675" lon="30.0323939323">
        <ele>0.0</ele>
        <time>2026-04-25T16:55:24.000Z</time>
    </trkpt>
    <trkpt lat="59.1011452675" lon="30.03241539">
        <ele>0.0</ele>
        <time>2026-04-25T16:55:27.000Z</time>
    </trkpt>
    <trkpt lat="59.1011452675" lon="30.0324583054">
        <ele>0.0</ele>
        <time>2026-04-25T16:55:29.000Z</time>
    </trkpt>
    <trkpt lat="59.1011452675" lon="30.0324583054">
        <ele>0.0</ele>
        <time>2026-04-25T16:55:32.000Z</time>
    </trkpt>
    <trkpt lat="59.1011452675" lon="30.0324583054">
        <ele>0.0</ele>
        <time>2026-04-25T16:55:34.000Z</time>
    </trkpt>
    <trkpt lat="59.1011452675" lon="30.0324583054">
        <ele>0.0</ele>
        <time>2026-04-25T16:55:37.000Z</time>
    </trkpt>
    <trkpt lat="59.1011452675" lon="30.0324583054">
        <ele>0.0</ele>
        <time>2026-04-25T16:55:39.000Z</time>
    </trkpt>
    <trkpt lat="59.1011238098" lon="30.032479763">
        <ele>0.0</ele>
        <time>2026-04-25T16:55:42.000Z</time>
    </trkpt>
    <trkpt lat="59.1011238098" lon="30.0325226784">
        <ele>0.0</ele>
        <time>2026-04-25T16:55:44.000Z</time>
    </trkpt>
    <trkpt lat="59.1011238098" lon="30.0325226784">
        <ele>0.0</ele>
        <time>2026-04-25T16:55:47.000Z</time>
    </trkpt>
    <trkpt lat="59.1011023521" lon="30.0325226784">
        <ele>0.0</ele>
        <time>2026-04-25T16:55:49.000Z</time>
    </trkpt>
    <trkpt lat="59.1011023521" lon="30.0325226784">
        <ele>0.0</ele>
        <time>2026-04-25T16:55:52.000Z</time>
    </trkpt>
    <trkpt lat="59.1010808945" lon="30.0325012207">
        <ele>0.0</ele>
        <time>2026-04-25T16:55:54.000Z</time>
    </trkpt>
    <trkpt lat="59.1010594368" lon="30.0325012207">
        <ele>0.0</ele>
        <time>2026-04-25T16:55:57.000Z</time>
    </trkpt>
    <trkpt lat="59.1010594368" lon="30.0325012207">
        <ele>0.0</ele>
        <time>2026-04-25T16:55:59.000Z</time>
    </trkpt>
    <trkpt lat="59.1010594368" lon="30.0325012207">
        <ele>0.0</ele>
        <time>2026-04-25T16:56:02.000Z</time>
    </trkpt>
    <trkpt lat="59.1010594368" lon="30.0325226784">
        <ele>0.0</ele>
        <time>2026-04-25T16:56:04.000Z</time>
    </trkpt>
    <trkpt lat="59.1010808945" lon="30.0325226784">
        <ele>0.0</ele>
        <time>2026-04-25T16:56:07.000Z</time>
    </trkpt>
    <trkpt lat="59.1010808945" lon="30.0325226784">
        <ele>0.0</ele>
        <time>2026-04-25T16:56:09.000Z</time>
    </trkpt>
    <trkpt lat="59.1010808945" lon="30.0325226784">
        <ele>0.0</ele>
        <time>2026-04-25T16:56:12.000Z</time>
    </trkpt>
    <trkpt lat="59.1010808945" lon="30.0325226784">
        <ele>0.0</ele>
        <time>2026-04-25T16:56:14.000Z</time>
    </trkpt>
    <trkpt lat="59.1011023521" lon="30.0325226784">
        <ele>0.0</ele>
        <time>2026-04-25T16:56:17.000Z</time>
    </trkpt>
    <trkpt lat="59.1011023521" lon="30.0325226784">
        <ele>0.0</ele>
        <time>2026-04-25T16:56:19.000Z</time>
    </trkpt>
    <trkpt lat="59.1011023521" lon="30.0325226784">
        <ele>0.0</ele>
        <time>2026-04-25T16:56:22.000Z</time>
    </trkpt>
    <trkpt lat="59.1011023521" lon="30.0325226784">
        <ele>0.0</ele>
        <time>2026-04-25T16:56:24.000Z</time>
    </trkpt>
    <trkpt lat="59.1011023521" lon="30.0325226784">
        <ele>0.0</ele>
        <time>2026-04-25T16:56:27.000Z</time>
    </trkpt>
    <trkpt lat="59.1011023521" lon="30.032544136">
        <ele>0.0</ele>
        <time>2026-04-25T16:56:29.000Z</time>
    </trkpt>
    <trkpt lat="59.1011023521" lon="30.0325870514">
        <ele>0.0</ele>
        <time>2026-04-25T16:56:32.000Z</time>
    </trkpt>
    <trkpt lat="59.1011023521" lon="30.0326085091">
        <ele>0.0</ele>
        <time>2026-04-25T16:56:34.000Z</time>
    </trkpt>
    <trkpt lat="59.1011023521" lon="30.0326299667">
        <ele>0.0</ele>
        <time>2026-04-25T16:56:37.000Z</time>
    </trkpt>
    <trkpt lat="59.1011023521" lon="30.0326299667">
        <ele>0.0</ele>
        <time>2026-04-25T16:56:39.000Z</time>
    </trkpt>
    <trkpt lat="59.1011023521" lon="30.0326514244">
        <ele>0.0</ele>
        <time>2026-04-25T16:56:42.000Z</time>
    </trkpt>
    <trkpt lat="59.1011023521" lon="30.0326728821">
        <ele>0.0</ele>
        <time>2026-04-25T16:56:44.000Z</time>
    </trkpt>
    <trkpt lat="59.1011238098" lon="30.0326943398">
        <ele>0.0</ele>
        <time>2026-04-25T16:56:47.000Z</time>
    </trkpt>
    <trkpt lat="59.1011452675" lon="30.0327157974">
        <ele>0.0</ele>
        <time>2026-04-25T16:56:49.000Z</time>
    </trkpt>
    <trkpt lat="59.1011452675" lon="30.0327587128">
        <ele>0.0</ele>
        <time>2026-04-25T16:56:52.000Z</time>
    </trkpt>
    <trkpt lat="59.1011452675" lon="30.0327801704">
        <ele>0.0</ele>
        <time>2026-04-25T16:56:54.000Z</time>
    </trkpt>
    <trkpt lat="59.1011452675" lon="30.0327801704">
        <ele>0.0</ele>
        <time>2026-04-25T16:56:57.000Z</time>
    </trkpt>
    <trkpt lat="59.1011452675" lon="30.0328016281">
        <ele>0.0</ele>
        <time>2026-04-25T16:56:59.000Z</time>
    </trkpt>
    <trkpt lat="59.1011452675" lon="30.0328230858">
        <ele>0.0</ele>
        <time>2026-04-25T16:57:02.000Z</time>
    </trkpt>
    <trkpt lat="59.1011452675" lon="30.0328445435">
        <ele>0.0</ele>
        <time>2026-04-25T16:57:04.000Z</time>
    </trkpt>
    <trkpt lat="59.1011452675" lon="30.0328660011">
        <ele>0.0</ele>
        <time>2026-04-25T16:57:07.000Z</time>
    </trkpt>
    <trkpt lat="59.1011452675" lon="30.0328660011">
        <ele>0.0</ele>
        <time>2026-04-25T16:57:09.000Z</time>
    </trkpt>
    <trkpt lat="59.1011452675" lon="30.0328660011">
        <ele>0.0</ele>
        <time>2026-04-25T16:57:12.000Z</time>
    </trkpt>
    <trkpt lat="59.1011452675" lon="30.0328660011">
        <ele>0.0</ele>
        <time>2026-04-25T16:57:14.000Z</time>
    </trkpt>
    <trkpt lat="59.1011452675" lon="30.0328445435">
        <ele>0.0</ele>
        <time>2026-04-25T16:57:17.000Z</time>
    </trkpt>
    <trkpt lat="59.1011238098" lon="30.0327372551">
        <ele>0.0</ele>
        <time>2026-04-25T16:57:19.000Z</time>
    </trkpt>
    <trkpt lat="59.1011023521" lon="30.0326943398">
        <ele>0.0</ele>
        <time>2026-04-25T16:57:22.000Z</time>
    </trkpt>
    <trkpt lat="59.1011023521" lon="30.0326728821">
        <ele>0.0</ele>
        <time>2026-04-25T16:57:24.000Z</time>
    </trkpt>
    <trkpt lat="59.1011023521" lon="30.0326728821">
        <ele>0.0</ele>
        <time>2026-04-25T16:57:27.000Z</time>
    </trkpt>
    <trkpt lat="59.1010808945" lon="30.0326514244">
        <ele>0.0</ele>
        <time>2026-04-25T16:57:29.000Z</time>
    </trkpt>
    <trkpt lat="59.1010594368" lon="30.0326514244">
        <ele>0.0</ele>
        <time>2026-04-25T16:57:32.000Z</time>
    </trkpt>
    <trkpt lat="59.1010165215" lon="30.0326299667">
        <ele>0.0</ele>
        <time>2026-04-25T16:57:34.000Z</time>
    </trkpt>
    <trkpt lat="59.1010165215" lon="30.0326299667">
        <ele>0.0</ele>
        <time>2026-04-25T16:57:37.000Z</time>
    </trkpt>
    <trkpt lat="59.1009950638" lon="30.0326514244">
        <ele>0.0</ele>
        <time>2026-04-25T16:57:39.000Z</time>
    </trkpt>
    <trkpt lat="59.1009950638" lon="30.0326514244">
        <ele>0.0</ele>
        <time>2026-04-25T16:57:42.000Z</time>
    </trkpt>
    <trkpt lat="59.1009950638" lon="30.0326514244">
        <ele>0.0</ele>
        <time>2026-04-25T16:57:44.000Z</time>
    </trkpt>
    <trkpt lat="59.1009950638" lon="30.0326514244">
        <ele>0.0</ele>
        <time>2026-04-25T16:57:47.000Z</time>
    </trkpt>
    <trkpt lat="59.1009950638" lon="30.0326514244">
        <ele>0.0</ele>
        <time>2026-04-25T16:57:49.000Z</time>
    </trkpt>
    <trkpt lat="59.1009950638" lon="30.0326514244">
        <ele>0.0</ele>
        <time>2026-04-25T16:57:52.000Z</time>
    </trkpt>
    <trkpt lat="59.1009950638" lon="30.0326514244">
        <ele>0.0</ele>
        <time>2026-04-25T16:57:54.000Z</time>
    </trkpt>
    <trkpt lat="59.1009950638" lon="30.0326514244">
        <ele>0.0</ele>
        <time>2026-04-25T16:57:57.000Z</time>
    </trkpt>
    <trkpt lat="59.1009950638" lon="30.0326514244">
        <ele>0.0</ele>
        <time>2026-04-25T16:57:59.000Z</time>
    </trkpt>
    <trkpt lat="59.1009950638" lon="30.0326514244">
        <ele>0.0</ele>
        <time>2026-04-25T16:58:02.000Z</time>
    </trkpt>
    <trkpt lat="59.1009736061" lon="30.0326943398">
        <ele>0.0</ele>
        <time>2026-04-25T16:58:04.000Z</time>
    </trkpt>
    <trkpt lat="59.1009736061" lon="30.0326943398">
        <ele>0.0</ele>
        <time>2026-04-25T16:58:07.000Z</time>
    </trkpt>
    <trkpt lat="59.1009736061" lon="30.0326943398">
        <ele>0.0</ele>
        <time>2026-04-25T16:58:09.000Z</time>
    </trkpt>
    <trkpt lat="59.1009521484" lon="30.0327157974">
        <ele>0.0</ele>
        <time>2026-04-25T16:58:12.000Z</time>
    </trkpt>
    <trkpt lat="59.1009521484" lon="30.0327157974">
        <ele>0.0</ele>
        <time>2026-04-25T16:58:14.000Z</time>
    </trkpt>
    <trkpt lat="59.1009521484" lon="30.0327157974">
        <ele>0.0</ele>
        <time>2026-04-25T16:58:17.000Z</time>
    </trkpt>
    <trkpt lat="59.1009521484" lon="30.0327157974">
        <ele>0.0</ele>
        <time>2026-04-25T16:58:19.000Z</time>
    </trkpt>
    <trkpt lat="59.1009521484" lon="30.0327157974">
        <ele>0.0</ele>
        <time>2026-04-25T16:58:22.000Z</time>
    </trkpt>
    <trkpt lat="59.1009306908" lon="30.0327157974">
        <ele>0.0</ele>
        <time>2026-04-25T16:58:24.000Z</time>
    </trkpt>
    <trkpt lat="59.1009092331" lon="30.0327587128">
        <ele>0.0</ele>
        <time>2026-04-25T16:58:27.000Z</time>
    </trkpt>
    <trkpt lat="59.1009092331" lon="30.0327587128">
        <ele>0.0</ele>
        <time>2026-04-25T16:58:29.000Z</time>
    </trkpt>
    <trkpt lat="59.1009092331" lon="30.0327587128">
        <ele>0.0</ele>
        <time>2026-04-25T16:58:32.000Z</time>
    </trkpt>
    <trkpt lat="59.1009092331" lon="30.0327587128">
        <ele>0.0</ele>
        <time>2026-04-25T16:58:34.000Z</time>
    </trkpt>
    <trkpt lat="59.1009092331" lon="30.0327587128">
        <ele>0.0</ele>
        <time>2026-04-25T16:58:37.000Z</time>
    </trkpt>
    <trkpt lat="59.1009092331" lon="30.0327587128">
        <ele>0.0</ele>
        <time>2026-04-25T16:58:39.000Z</time>
    </trkpt>
    <trkpt lat="59.1009092331" lon="30.0327587128">
        <ele>0.0</ele>
        <time>2026-04-25T16:58:42.000Z</time>
    </trkpt>
    <trkpt lat="59.1009092331" lon="30.0327587128">
        <ele>0.0</ele>
        <time>2026-04-25T16:58:44.000Z</time>
    </trkpt>
    <trkpt lat="59.1009092331" lon="30.0327587128">
        <ele>0.0</ele>
        <time>2026-04-25T16:58:47.000Z</time>
    </trkpt>
    <trkpt lat="59.1009092331" lon="30.0328016281">
        <ele>0.0</ele>
        <time>2026-04-25T16:58:49.000Z</time>
    </trkpt>
    <trkpt lat="59.1009092331" lon="30.0328230858">
        <ele>0.0</ele>
        <time>2026-04-25T16:58:52.000Z</time>
    </trkpt>
    <trkpt lat="59.1009092331" lon="30.0328230858">
        <ele>0.0</ele>
        <time>2026-04-25T16:58:54.000Z</time>
    </trkpt>
    <trkpt lat="59.1009092331" lon="30.0328230858">
        <ele>0.0</ele>
        <time>2026-04-25T16:58:57.000Z</time>
    </trkpt>
    <trkpt lat="59.1009092331" lon="30.0328230858">
        <ele>0.0</ele>
        <time>2026-04-25T16:58:59.000Z</time>
    </trkpt>
    <trkpt lat="59.1009092331" lon="30.0328230858">
        <ele>0.0</ele>
        <time>2026-04-25T16:59:02.000Z</time>
    </trkpt>
    <trkpt lat="59.1009092331" lon="30.0328230858">
        <ele>0.0</ele>
        <time>2026-04-25T16:59:04.000Z</time>
    </trkpt>
    <trkpt lat="59.1009092331" lon="30.0328016281">
        <ele>0.0</ele>
        <time>2026-04-25T16:59:07.000Z</time>
    </trkpt>
    <trkpt lat="59.1009092331" lon="30.0328016281">
        <ele>0.0</ele>
        <time>2026-04-25T16:59:09.000Z</time>
    </trkpt>
    <trkpt lat="59.1009092331" lon="30.0328016281">
        <ele>0.0</ele>
        <time>2026-04-25T16:59:12.000Z</time>
    </trkpt>
    <trkpt lat="59.1009092331" lon="30.0328016281">
        <ele>0.0</ele>
        <time>2026-04-25T16:59:14.000Z</time>
    </trkpt>
    <trkpt lat="59.1009092331" lon="30.0328016281">
        <ele>0.0</ele>
        <time>2026-04-25T16:59:17.000Z</time>
    </trkpt>
    <trkpt lat="59.1009092331" lon="30.0328016281">
        <ele>0.0</ele>
        <time>2026-04-25T16:59:19.000Z</time>
    </trkpt>
    <trkpt lat="59.1009092331" lon="30.0328016281">
        <ele>0.0</ele>
        <time>2026-04-25T16:59:22.000Z</time>
    </trkpt>
    <trkpt lat="59.1009092331" lon="30.0328016281">
        <ele>0.0</ele>
        <time>2026-04-25T16:59:24.000Z</time>
    </trkpt>
    <trkpt lat="59.1009092331" lon="30.0328016281">
        <ele>0.0</ele>
        <time>2026-04-25T16:59:27.000Z</time>
    </trkpt>
    <trkpt lat="59.1009092331" lon="30.0328016281">
        <ele>0.0</ele>
        <time>2026-04-25T16:59:29.000Z</time>
    </trkpt>
    <trkpt lat="59.1009092331" lon="30.0328016281">
        <ele>0.0</ele>
        <time>2026-04-25T16:59:32.000Z</time>
    </trkpt>
    <trkpt lat="59.1009092331" lon="30.0328016281">
        <ele>0.0</ele>
        <time>2026-04-25T16:59:34.000Z</time>
    </trkpt>
    <trkpt lat="59.1009092331" lon="30.0328016281">
        <ele>0.0</ele>
        <time>2026-04-25T16:59:37.000Z</time>
    </trkpt>
    <trkpt lat="59.1009092331" lon="30.0328016281">
        <ele>0.0</ele>
        <time>2026-04-25T16:59:39.000Z</time>
    </trkpt>
    <trkpt lat="59.1009092331" lon="30.0328016281">
        <ele>0.0</ele>
        <time>2026-04-25T16:59:42.000Z</time>
    </trkpt>
    <trkpt lat="59.1009092331" lon="30.0327801704">
        <ele>0.0</ele>
        <time>2026-04-25T16:59:44.000Z</time>
    </trkpt>
    <trkpt lat="59.1009092331" lon="30.0327801704">
        <ele>0.0</ele>
        <time>2026-04-25T16:59:47.000Z</time>
    </trkpt>
    <trkpt lat="59.1009092331" lon="30.0327801704">
        <ele>0.0</ele>
        <time>2026-04-25T16:59:49.000Z</time>
    </trkpt>
    <trkpt lat="59.1008877754" lon="30.0327801704">
        <ele>0.0</ele>
        <time>2026-04-25T16:59:52.000Z</time>
    </trkpt>
    <trkpt lat="59.1008877754" lon="30.0327801704">
        <ele>0.0</ele>
        <time>2026-04-25T16:59:54.000Z</time>
    </trkpt>
    <trkpt lat="59.1008877754" lon="30.0327801704">
        <ele>0.0</ele>
        <time>2026-04-25T16:59:57.000Z</time>
    </trkpt>
    <trkpt lat="59.1008877754" lon="30.0327801704">
        <ele>0.0</ele>
        <time>2026-04-25T16:59:59.000Z</time>
    </trkpt>
    <trkpt lat="59.1008877754" lon="30.0327801704">
        <ele>0.0</ele>
        <time>2026-04-25T17:00:02.000Z</time>
    </trkpt>
    <trkpt lat="59.1008877754" lon="30.0327801704">
        <ele>0.0</ele>
        <time>2026-04-25T17:00:04.000Z</time>
    </trkpt>
    <trkpt lat="59.1008877754" lon="30.0327801704">
        <ele>0.0</ele>
        <time>2026-04-25T17:00:07.000Z</time>
    </trkpt>
    <trkpt lat="59.1008877754" lon="30.0327801704">
        <ele>0.0</ele>
        <time>2026-04-25T17:00:09.000Z</time>
    </trkpt>
    <trkpt lat="59.1008877754" lon="30.0327801704">
        <ele>0.0</ele>
        <time>2026-04-25T17:00:12.000Z</time>
    </trkpt>
    <trkpt lat="59.1008877754" lon="30.0327801704">
        <ele>0.0</ele>
        <time>2026-04-25T17:00:14.000Z</time>
    </trkpt>
    <trkpt lat="59.1008877754" lon="30.0327801704">
        <ele>0.0</ele>
        <time>2026-04-25T17:00:17.000Z</time>
    </trkpt>
    <trkpt lat="59.1008448601" lon="30.0327801704">
        <ele>0.0</ele>
        <time>2026-04-25T17:00:19.000Z</time>
    </trkpt>
    <trkpt lat="59.1008448601" lon="30.0327801704">
        <ele>0.0</ele>
        <time>2026-04-25T17:00:22.000Z</time>
    </trkpt>
    <trkpt lat="59.1008448601" lon="30.0327801704">
        <ele>0.0</ele>
        <time>2026-04-25T17:00:24.000Z</time>
    </trkpt>
    <trkpt lat="59.1008448601" lon="30.0328016281">
        <ele>0.0</ele>
        <time>2026-04-25T17:00:27.000Z</time>
    </trkpt>
    <trkpt lat="59.1008234024" lon="30.0327801704">
        <ele>0.0</ele>
        <time>2026-04-25T17:00:29.000Z</time>
    </trkpt>
    <trkpt lat="59.1008234024" lon="30.0327801704">
        <ele>0.0</ele>
        <time>2026-04-25T17:00:32.000Z</time>
    </trkpt>
    <trkpt lat="59.1008019447" lon="30.0328016281">
        <ele>0.0</ele>
        <time>2026-04-25T17:00:34.000Z</time>
    </trkpt>
    <trkpt lat="59.1007804871" lon="30.0328016281">
        <ele>0.0</ele>
        <time>2026-04-25T17:00:37.000Z</time>
    </trkpt>
    <trkpt lat="59.1007804871" lon="30.0328016281">
        <ele>0.0</ele>
        <time>2026-04-25T17:00:39.000Z</time>
    </trkpt>
    <trkpt lat="59.1007804871" lon="30.0328016281">
        <ele>0.0</ele>
        <time>2026-04-25T17:00:42.000Z</time>
    </trkpt>
    <trkpt lat="59.1007590294" lon="30.0328230858">
        <ele>0.0</ele>
        <time>2026-04-25T17:00:44.000Z</time>
    </trkpt>
    <trkpt lat="59.1007590294" lon="30.0328660011">
        <ele>0.0</ele>
        <time>2026-04-25T17:00:47.000Z</time>
    </trkpt>
    <trkpt lat="59.1007590294" lon="30.0328660011">
        <ele>0.0</ele>
        <time>2026-04-25T17:00:49.000Z</time>
    </trkpt>
    <trkpt lat="59.1007590294" lon="30.0328660011">
        <ele>0.0</ele>
        <time>2026-04-25T17:00:52.000Z</time>
    </trkpt>
    <trkpt lat="59.1007590294" lon="30.0328660011">
        <ele>0.0</ele>
        <time>2026-04-25T17:00:54.000Z</time>
    </trkpt>
    <trkpt lat="59.1007590294" lon="30.0328660011">
        <ele>0.0</ele>
        <time>2026-04-25T17:00:57.000Z</time>
    </trkpt>
    <trkpt lat="59.1007590294" lon="30.0328660011">
        <ele>0.0</ele>
        <time>2026-04-25T17:00:59.000Z</time>
    </trkpt>
    <trkpt lat="59.1007590294" lon="30.0328874588">
        <ele>0.0</ele>
        <time>2026-04-25T17:01:02.000Z</time>
    </trkpt>
    <trkpt lat="59.1007590294" lon="30.0329089165">
        <ele>0.0</ele>
        <time>2026-04-25T17:01:04.000Z</time>
    </trkpt>
    <trkpt lat="59.1007590294" lon="30.0329089165">
        <ele>0.0</ele>
        <time>2026-04-25T17:01:07.000Z</time>
    </trkpt>
    <trkpt lat="59.1007590294" lon="30.0329089165">
        <ele>0.0</ele>
        <time>2026-04-25T17:01:09.000Z</time>
    </trkpt>
    <trkpt lat="59.1007590294" lon="30.0329089165">
        <ele>0.0</ele>
        <time>2026-04-25T17:01:12.000Z</time>
    </trkpt>
    <trkpt lat="59.1007590294" lon="30.0329089165">
        <ele>0.0</ele>
        <time>2026-04-25T17:01:14.000Z</time>
    </trkpt>
    <trkpt lat="59.1007590294" lon="30.0329089165">
        <ele>0.0</ele>
        <time>2026-04-25T17:01:17.000Z</time>
    </trkpt>
    <trkpt lat="59.1007590294" lon="30.0328660011">
        <ele>0.0</ele>
        <time>2026-04-25T17:01:19.000Z</time>
    </trkpt>
    <trkpt lat="59.1007375717" lon="30.0328445435">
        <ele>0.0</ele>
        <time>2026-04-25T17:01:22.000Z</time>
    </trkpt>
    <trkpt lat="59.1007375717" lon="30.0328016281">
        <ele>0.0</ele>
        <time>2026-04-25T17:01:24.000Z</time>
    </trkpt>
    <trkpt lat="59.1007375717" lon="30.0328016281">
        <ele>0.0</ele>
        <time>2026-04-25T17:01:27.000Z</time>
    </trkpt>
    <trkpt lat="59.1007375717" lon="30.0328016281">
        <ele>0.0</ele>
        <time>2026-04-25T17:01:29.000Z</time>
    </trkpt>
    <trkpt lat="59.1007375717" lon="30.0328016281">
        <ele>0.0</ele>
        <time>2026-04-25T17:01:32.000Z</time>
    </trkpt>
    <trkpt lat="59.1007375717" lon="30.0328230858">
        <ele>0.0</ele>
        <time>2026-04-25T17:01:34.000Z</time>
    </trkpt>
    <trkpt lat="59.1007375717" lon="30.0328230858">
        <ele>0.0</ele>
        <time>2026-04-25T17:01:37.000Z</time>
    </trkpt>
    <trkpt lat="59.1007375717" lon="30.0328230858">
        <ele>0.0</ele>
        <time>2026-04-25T17:01:39.000Z</time>
    </trkpt>
    <trkpt lat="59.1007375717" lon="30.0328230858">
        <ele>0.0</ele>
        <time>2026-04-25T17:01:42.000Z</time>
    </trkpt>
    <trkpt lat="59.1007375717" lon="30.0328230858">
        <ele>0.0</ele>
        <time>2026-04-25T17:01:44.000Z</time>
    </trkpt>
    <trkpt lat="59.1007375717" lon="30.0328230858">
        <ele>0.0</ele>
        <time>2026-04-25T17:01:47.000Z</time>
    </trkpt>
    <trkpt lat="59.1007375717" lon="30.0328230858">
        <ele>0.0</ele>
        <time>2026-04-25T17:01:49.000Z</time>
    </trkpt>
    <trkpt lat="59.1007375717" lon="30.0328230858">
        <ele>0.0</ele>
        <time>2026-04-25T17:01:52.000Z</time>
    </trkpt>
    <trkpt lat="59.1007375717" lon="30.0328230858">
        <ele>0.0</ele>
        <time>2026-04-25T17:01:54.000Z</time>
    </trkpt>
    <trkpt lat="59.1007375717" lon="30.0328230858">
        <ele>0.0</ele>
        <time>2026-04-25T17:01:57.000Z</time>
    </trkpt>
    <trkpt lat="59.1007375717" lon="30.0328230858">
        <ele>0.0</ele>
        <time>2026-04-25T17:01:59.000Z</time>
    </trkpt>
    <trkpt lat="59.1007375717" lon="30.0328230858">
        <ele>0.0</ele>
        <time>2026-04-25T17:02:02.000Z</time>
    </trkpt>
    <trkpt lat="59.1007375717" lon="30.0328230858">
        <ele>0.0</ele>
        <time>2026-04-25T17:02:04.000Z</time>
    </trkpt>
    <trkpt lat="59.1007375717" lon="30.0328230858">
        <ele>0.0</ele>
        <time>2026-04-25T17:02:07.000Z</time>
    </trkpt>
    <trkpt lat="59.1007375717" lon="30.0328230858">
        <ele>0.0</ele>
        <time>2026-04-25T17:02:09.000Z</time>
    </trkpt>
    <trkpt lat="59.1007375717" lon="30.0328230858">
        <ele>0.0</ele>
        <time>2026-04-25T17:02:12.000Z</time>
    </trkpt>
    <trkpt lat="59.1007375717" lon="30.0328445435">
        <ele>0.0</ele>
        <time>2026-04-25T17:02:14.000Z</time>
    </trkpt>
    <trkpt lat="59.1007375717" lon="30.0328445435">
        <ele>0.0</ele>
        <time>2026-04-25T17:02:17.000Z</time>
    </trkpt>
    <trkpt lat="59.1007375717" lon="30.0328445435">
        <ele>0.0</ele>
        <time>2026-04-25T17:02:19.000Z</time>
    </trkpt>
    <trkpt lat="59.1007375717" lon="30.0328445435">
        <ele>0.0</ele>
        <time>2026-04-25T17:02:22.000Z</time>
    </trkpt>
    <trkpt lat="59.1007375717" lon="30.0328445435">
        <ele>0.0</ele>
        <time>2026-04-25T17:02:24.000Z</time>
    </trkpt>
    <trkpt lat="59.1007375717" lon="30.0328445435">
        <ele>0.0</ele>
        <time>2026-04-25T17:02:27.000Z</time>
    </trkpt>
    <trkpt lat="59.1007375717" lon="30.0328445435">
        <ele>0.0</ele>
        <time>2026-04-25T17:02:29.000Z</time>
    </trkpt>
    <trkpt lat="59.1007375717" lon="30.0328445435">
        <ele>0.0</ele>
        <time>2026-04-25T17:02:32.000Z</time>
    </trkpt>
    <trkpt lat="59.1007375717" lon="30.0328445435">
        <ele>0.0</ele>
        <time>2026-04-25T17:02:34.000Z</time>
    </trkpt>
    <trkpt lat="59.1007375717" lon="30.0328445435">
        <ele>0.0</ele>
        <time>2026-04-25T17:02:37.000Z</time>
    </trkpt>
    <trkpt lat="59.1007375717" lon="30.0328445435">
        <ele>0.0</ele>
        <time>2026-04-25T17:02:39.000Z</time>
    </trkpt>
    <trkpt lat="59.1007375717" lon="30.0328445435">
        <ele>0.0</ele>
        <time>2026-04-25T17:02:42.000Z</time>
    </trkpt>
    <trkpt lat="59.1007375717" lon="30.0328445435">
        <ele>0.0</ele>
        <time>2026-04-25T17:02:44.000Z</time>
    </trkpt>
    <trkpt lat="59.1007375717" lon="30.0328445435">
        <ele>0.0</ele>
        <time>2026-04-25T17:02:47.000Z</time>
    </trkpt>
    <trkpt lat="59.1007375717" lon="30.0328445435">
        <ele>0.0</ele>
        <time>2026-04-25T17:02:49.000Z</time>
    </trkpt>
    <trkpt lat="59.1007375717" lon="30.0328445435">
        <ele>0.0</ele>
        <time>2026-04-25T17:02:52.000Z</time>
    </trkpt>
    <trkpt lat="59.1007375717" lon="30.0328445435">
        <ele>0.0</ele>
        <time>2026-04-25T17:02:54.000Z</time>
    </trkpt>
    <trkpt lat="59.1007375717" lon="30.0328445435">
        <ele>0.0</ele>
        <time>2026-04-25T17:02:57.000Z</time>
    </trkpt>
    <trkpt lat="59.1007375717" lon="30.0328445435">
        <ele>0.0</ele>
        <time>2026-04-25T17:02:59.000Z</time>
    </trkpt>
    <trkpt lat="59.1007375717" lon="30.0328445435">
        <ele>0.0</ele>
        <time>2026-04-25T17:03:02.000Z</time>
    </trkpt>
    <trkpt lat="59.1007375717" lon="30.0328660011">
        <ele>0.0</ele>
        <time>2026-04-25T17:03:04.000Z</time>
    </trkpt>
    <trkpt lat="59.1007375717" lon="30.0328660011">
        <ele>0.0</ele>
        <time>2026-04-25T17:03:07.000Z</time>
    </trkpt>
    <trkpt lat="59.1007375717" lon="30.0328445435">
        <ele>0.0</ele>
        <time>2026-04-25T17:03:09.000Z</time>
    </trkpt>
    <trkpt lat="59.100716114" lon="30.0328230858">
        <ele>0.0</ele>
        <time>2026-04-25T17:03:12.000Z</time>
    </trkpt>
    <trkpt lat="59.100716114" lon="30.0328230858">
        <ele>0.0</ele>
        <time>2026-04-25T17:03:14.000Z</time>
    </trkpt>
    <trkpt lat="59.100716114" lon="30.0328660011">
        <ele>0.0</ele>
        <time>2026-04-25T17:03:17.000Z</time>
    </trkpt>
    <trkpt lat="59.100716114" lon="30.0329089165">
        <ele>0.0</ele>
        <time>2026-04-25T17:03:19.000Z</time>
    </trkpt>
    <trkpt lat="59.1006946564" lon="30.0329303741">
        <ele>0.0</ele>
        <time>2026-04-25T17:03:22.000Z</time>
    </trkpt>
    <trkpt lat="59.1006731987" lon="30.0329518318">
        <ele>0.0</ele>
        <time>2026-04-25T17:03:24.000Z</time>
    </trkpt>
    <trkpt lat="59.1006731987" lon="30.0329518318">
        <ele>0.0</ele>
        <time>2026-04-25T17:03:27.000Z</time>
    </trkpt>
    <trkpt lat="59.1006731987" lon="30.0329303741">
        <ele>0.0</ele>
        <time>2026-04-25T17:03:29.000Z</time>
    </trkpt>
    <trkpt lat="59.1006731987" lon="30.0329303741">
        <ele>0.0</ele>
        <time>2026-04-25T17:03:32.000Z</time>
    </trkpt>
    <trkpt lat="59.100651741" lon="30.0329518318">
        <ele>0.0</ele>
        <time>2026-04-25T17:03:34.000Z</time>
    </trkpt>
    <trkpt lat="59.100651741" lon="30.0329518318">
        <ele>0.0</ele>
        <time>2026-04-25T17:03:37.000Z</time>
    </trkpt>
    <trkpt lat="59.100651741" lon="30.0329518318">
        <ele>0.0</ele>
        <time>2026-04-25T17:03:39.000Z</time>
    </trkpt>
    <trkpt lat="59.1006302834" lon="30.0329303741">
        <ele>0.0</ele>
        <time>2026-04-25T17:03:42.000Z</time>
    </trkpt>
    <trkpt lat="59.1006088257" lon="30.0329303741">
        <ele>0.0</ele>
        <time>2026-04-25T17:03:44.000Z</time>
    </trkpt>
    <trkpt lat="59.1006088257" lon="30.0329089165">
        <ele>0.0</ele>
        <time>2026-04-25T17:03:47.000Z</time>
    </trkpt>
    <trkpt lat="59.100587368" lon="30.0329518318">
        <ele>0.0</ele>
        <time>2026-04-25T17:03:49.000Z</time>
    </trkpt>
    <trkpt lat="59.100587368" lon="30.0329518318">
        <ele>0.0</ele>
        <time>2026-04-25T17:03:52.000Z</time>
    </trkpt>
    <trkpt lat="59.1005659103" lon="30.0329732895">
        <ele>0.0</ele>
        <time>2026-04-25T17:03:54.000Z</time>
    </trkpt>
    <trkpt lat="59.1005659103" lon="30.0329732895">
        <ele>0.0</ele>
        <time>2026-04-25T17:03:57.000Z</time>
    </trkpt>
    <trkpt lat="59.1005444527" lon="30.0329947472">
        <ele>0.0</ele>
        <time>2026-04-25T17:03:59.000Z</time>
    </trkpt>
    <trkpt lat="59.100522995" lon="30.0329947472">
        <ele>0.0</ele>
        <time>2026-04-25T17:04:02.000Z</time>
    </trkpt>
    <trkpt lat="59.100522995" lon="30.0329947472">
        <ele>0.0</ele>
        <time>2026-04-25T17:04:04.000Z</time>
    </trkpt>
    <trkpt lat="59.1005444527" lon="30.0329947472">
        <ele>0.0</ele>
        <time>2026-04-25T17:04:07.000Z</time>
    </trkpt>
    <trkpt lat="59.100587368" lon="30.0329518318">
        <ele>0.0</ele>
        <time>2026-04-25T17:04:09.000Z</time>
    </trkpt>
    <trkpt lat="59.1006088257" lon="30.0329518318">
        <ele>0.0</ele>
        <time>2026-04-25T17:04:12.000Z</time>
    </trkpt>
    <trkpt lat="59.100651741" lon="30.0329089165">
        <ele>0.0</ele>
        <time>2026-04-25T17:04:14.000Z</time>
    </trkpt>
    <trkpt lat="59.100651741" lon="30.0329089165">
        <ele>0.0</ele>
        <time>2026-04-25T17:04:17.000Z</time>
    </trkpt>
    <trkpt lat="59.100651741" lon="30.0329303741">
        <ele>0.0</ele>
        <time>2026-04-25T17:04:19.000Z</time>
    </trkpt>
    <trkpt lat="59.100651741" lon="30.0329303741">
        <ele>0.0</ele>
        <time>2026-04-25T17:04:22.000Z</time>
    </trkpt>
    <trkpt lat="59.100651741" lon="30.0329303741">
        <ele>0.0</ele>
        <time>2026-04-25T17:04:24.000Z</time>
    </trkpt>
    <trkpt lat="59.100651741" lon="30.0329303741">
        <ele>0.0</ele>
        <time>2026-04-25T17:04:29.000Z</time>
    </trkpt>
    <trkpt lat="59.100651741" lon="30.0329303741">
        <ele>0.0</ele>
        <time>2026-04-25T17:04:32.000Z</time>
    </trkpt>
    <trkpt lat="59.100651741" lon="30.0329303741">
        <ele>0.0</ele>
        <time>2026-04-25T17:04:34.000Z</time>
    </trkpt>
    <trkpt lat="59.100651741" lon="30.0329303741">
        <ele>0.0</ele>
        <time>2026-04-25T17:04:37.000Z</time>
    </trkpt>
    <trkpt lat="59.1006302834" lon="30.0329303741">
        <ele>0.0</ele>
        <time>2026-04-25T17:04:39.000Z</time>
    </trkpt>
    <trkpt lat="59.1006302834" lon="30.0329303741">
        <ele>0.0</ele>
        <time>2026-04-25T17:04:42.000Z</time>
    </trkpt>
    <trkpt lat="59.1006088257" lon="30.0329303741">
        <ele>0.0</ele>
        <time>2026-04-25T17:04:44.000Z</time>
    </trkpt>
    <trkpt lat="59.100587368" lon="30.0329303741">
        <ele>0.0</ele>
        <time>2026-04-25T17:04:47.000Z</time>
    </trkpt>
    <trkpt lat="59.1005659103" lon="30.0329518318">
        <ele>0.0</ele>
        <time>2026-04-25T17:04:49.000Z</time>
    </trkpt>
    <trkpt lat="59.1005444527" lon="30.0329518318">
        <ele>0.0</ele>
        <time>2026-04-25T17:04:52.000Z</time>
    </trkpt>
    <trkpt lat="59.100522995" lon="30.0329732895">
        <ele>0.0</ele>
        <time>2026-04-25T17:04:54.000Z</time>
    </trkpt>
    <trkpt lat="59.100522995" lon="30.0329947472">
        <ele>0.0</ele>
        <time>2026-04-25T17:04:57.000Z</time>
    </trkpt>
    <trkpt lat="59.100522995" lon="30.0329947472">
        <ele>0.0</ele>
        <time>2026-04-25T17:04:59.000Z</time>
    </trkpt>
    <trkpt lat="59.100522995" lon="30.0329947472">
        <ele>0.0</ele>
        <time>2026-04-25T17:05:02.000Z</time>
    </trkpt>
    <trkpt lat="59.100522995" lon="30.0329947472">
        <ele>0.0</ele>
        <time>2026-04-25T17:05:04.000Z</time>
    </trkpt>
    <trkpt lat="59.100522995" lon="30.0329947472">
        <ele>0.0</ele>
        <time>2026-04-25T17:05:07.000Z</time>
    </trkpt>
    <trkpt lat="59.100522995" lon="30.0329947472">
        <ele>0.0</ele>
        <time>2026-04-25T17:05:09.000Z</time>
    </trkpt>
    <trkpt lat="59.100522995" lon="30.0329947472">
        <ele>0.0</ele>
        <time>2026-04-25T17:05:12.000Z</time>
    </trkpt>
    <trkpt lat="59.1005015373" lon="30.0329947472">
        <ele>0.0</ele>
        <time>2026-04-25T17:05:14.000Z</time>
    </trkpt>
    <trkpt lat="59.1004800797" lon="30.0330162048">
        <ele>0.0</ele>
        <time>2026-04-25T17:05:17.000Z</time>
    </trkpt>
    <trkpt lat="59.100458622" lon="30.0330162048">
        <ele>0.0</ele>
        <time>2026-04-25T17:05:19.000Z</time>
    </trkpt>
    <trkpt lat="59.100458622" lon="30.0330162048">
        <ele>0.0</ele>
        <time>2026-04-25T17:05:22.000Z</time>
    </trkpt>
    <trkpt lat="59.100458622" lon="30.0330162048">
        <ele>0.0</ele>
        <time>2026-04-25T17:05:24.000Z</time>
    </trkpt>
    <trkpt lat="59.100458622" lon="30.0330162048">
        <ele>0.0</ele>
        <time>2026-04-25T17:05:27.000Z</time>
    </trkpt>
    <trkpt lat="59.100458622" lon="30.0330162048">
        <ele>0.0</ele>
        <time>2026-04-25T17:05:29.000Z</time>
    </trkpt>
    <trkpt lat="59.100458622" lon="30.0330162048">
        <ele>0.0</ele>
        <time>2026-04-25T17:05:32.000Z</time>
    </trkpt>
    <trkpt lat="59.100458622" lon="30.0330162048">
        <ele>0.0</ele>
        <time>2026-04-25T17:05:34.000Z</time>
    </trkpt>
    <trkpt lat="59.100458622" lon="30.0330376625">
        <ele>0.0</ele>
        <time>2026-04-25T17:05:37.000Z</time>
    </trkpt>
    <trkpt lat="59.100458622" lon="30.0330591202">
        <ele>0.0</ele>
        <time>2026-04-25T17:05:39.000Z</time>
    </trkpt>
    <trkpt lat="59.100458622" lon="30.0330591202">
        <ele>0.0</ele>
        <time>2026-04-25T17:05:42.000Z</time>
    </trkpt>
    <trkpt lat="59.100458622" lon="30.0331020355">
        <ele>0.0</ele>
        <time>2026-04-25T17:05:44.000Z</time>
    </trkpt>
    <trkpt lat="59.1004371643" lon="30.0331020355">
        <ele>0.0</ele>
        <time>2026-04-25T17:05:47.000Z</time>
    </trkpt>
    <trkpt lat="59.1004371643" lon="30.0331020355">
        <ele>0.0</ele>
        <time>2026-04-25T17:05:49.000Z</time>
    </trkpt>
    <trkpt lat="59.1004371643" lon="30.0331020355">
        <ele>0.0</ele>
        <time>2026-04-25T17:05:52.000Z</time>
    </trkpt>
    <trkpt lat="59.1004157066" lon="30.0330162048">
        <ele>0.0</ele>
        <time>2026-04-25T17:05:54.000Z</time>
    </trkpt>
    <trkpt lat="59.1004157066" lon="30.0329732895">
        <ele>0.0</ele>
        <time>2026-04-25T17:05:57.000Z</time>
    </trkpt>
    <trkpt lat="59.1004157066" lon="30.0329732895">
        <ele>0.0</ele>
        <time>2026-04-25T17:05:59.000Z</time>
    </trkpt>
    <trkpt lat="59.1004157066" lon="30.0329947472">
        <ele>0.0</ele>
        <time>2026-04-25T17:06:02.000Z</time>
    </trkpt>
    <trkpt lat="59.1004157066" lon="30.0329732895">
        <ele>0.0</ele>
        <time>2026-04-25T17:06:04.000Z</time>
    </trkpt>
    <trkpt lat="59.1004157066" lon="30.0329732895">
        <ele>0.0</ele>
        <time>2026-04-25T17:06:07.000Z</time>
    </trkpt>
    <trkpt lat="59.1004157066" lon="30.0329732895">
        <ele>0.0</ele>
        <time>2026-04-25T17:06:09.000Z</time>
    </trkpt>
    <trkpt lat="59.1004157066" lon="30.0329732895">
        <ele>0.0</ele>
        <time>2026-04-25T17:06:12.000Z</time>
    </trkpt>
    <trkpt lat="59.1004157066" lon="30.0329732895">
        <ele>0.0</ele>
        <time>2026-04-25T17:06:14.000Z</time>
    </trkpt>
    <trkpt lat="59.1004157066" lon="30.0329947472">
        <ele>0.0</ele>
        <time>2026-04-25T17:06:17.000Z</time>
    </trkpt>
    <trkpt lat="59.1004157066" lon="30.0329947472">
        <ele>0.0</ele>
        <time>2026-04-25T17:06:19.000Z</time>
    </trkpt>
    <trkpt lat="59.1004157066" lon="30.0329947472">
        <ele>0.0</ele>
        <time>2026-04-25T17:06:22.000Z</time>
    </trkpt>
    <trkpt lat="59.1004157066" lon="30.0329947472">
        <ele>0.0</ele>
        <time>2026-04-25T17:06:24.000Z</time>
    </trkpt>
    <trkpt lat="59.1004157066" lon="30.0329947472">
        <ele>0.0</ele>
        <time>2026-04-25T17:06:29.000Z</time>
    </trkpt>
    <trkpt lat="59.1004157066" lon="30.0329947472">
        <ele>0.0</ele>
        <time>2026-04-25T17:06:32.000Z</time>
    </trkpt>
    <trkpt lat="59.1004157066" lon="30.0329947472">
        <ele>0.0</ele>
        <time>2026-04-25T17:06:34.000Z</time>
    </trkpt>
    <trkpt lat="59.1004157066" lon="30.0329947472">
        <ele>0.0</ele>
        <time>2026-04-25T17:06:37.000Z</time>
    </trkpt>
    <trkpt lat="59.1004157066" lon="30.0329947472">
        <ele>0.0</ele>
        <time>2026-04-25T17:06:39.000Z</time>
    </trkpt>
    <trkpt lat="59.1004157066" lon="30.0329947472">
        <ele>0.0</ele>
        <time>2026-04-25T17:06:42.000Z</time>
    </trkpt>
    <trkpt lat="59.1004157066" lon="30.0329947472">
        <ele>0.0</ele>
        <time>2026-04-25T17:06:44.000Z</time>
    </trkpt>
    <trkpt lat="59.1004157066" lon="30.0329947472">
        <ele>0.0</ele>
        <time>2026-04-25T17:06:47.000Z</time>
    </trkpt>
    <trkpt lat="59.1004157066" lon="30.0329947472">
        <ele>0.0</ele>
        <time>2026-04-25T17:06:49.000Z</time>
    </trkpt>
    <trkpt lat="59.1004157066" lon="30.0329947472">
        <ele>0.0</ele>
        <time>2026-04-25T17:06:52.000Z</time>
    </trkpt>
    <trkpt lat="59.1004157066" lon="30.0329947472">
        <ele>0.0</ele>
        <time>2026-04-25T17:06:54.000Z</time>
    </trkpt>
    <trkpt lat="59.1004157066" lon="30.0329947472">
        <ele>0.0</ele>
        <time>2026-04-25T17:06:57.000Z</time>
    </trkpt>
    <trkpt lat="59.1004157066" lon="30.0329947472">
        <ele>0.0</ele>
        <time>2026-04-25T17:06:59.000Z</time>
    </trkpt>
    <trkpt lat="59.1004157066" lon="30.0329947472">
        <ele>0.0</ele>
        <time>2026-04-25T17:07:04.000Z</time>
    </trkpt>
    <trkpt lat="59.1004157066" lon="30.0329947472">
        <ele>0.0</ele>
        <time>2026-04-25T17:07:07.000Z</time>
    </trkpt>
    <trkpt lat="59.100394249" lon="30.0329732895">
        <ele>0.0</ele>
        <time>2026-04-25T17:07:09.000Z</time>
    </trkpt>
    <trkpt lat="59.1003727913" lon="30.0329518318">
        <ele>0.0</ele>
        <time>2026-04-25T17:07:12.000Z</time>
    </trkpt>
    <trkpt lat="59.1003727913" lon="30.0329303741">
        <ele>0.0</ele>
        <time>2026-04-25T17:07:14.000Z</time>
    </trkpt>
    <trkpt lat="59.1003513336" lon="30.0329303741">
        <ele>0.0</ele>
        <time>2026-04-25T17:07:17.000Z</time>
    </trkpt>
    <trkpt lat="59.1003513336" lon="30.0329303741">
        <ele>0.0</ele>
        <time>2026-04-25T17:07:19.000Z</time>
    </trkpt>
    <trkpt lat="59.1003513336" lon="30.0329303741">
        <ele>0.0</ele>
        <time>2026-04-25T17:07:22.000Z</time>
    </trkpt>
    <trkpt lat="59.1003513336" lon="30.0329303741">
        <ele>0.0</ele>
        <time>2026-04-25T17:07:24.000Z</time>
    </trkpt>
    <trkpt lat="59.1003513336" lon="30.0329303741">
        <ele>0.0</ele>
        <time>2026-04-25T17:07:27.000Z</time>
    </trkpt>
    <trkpt lat="59.1003513336" lon="30.0329303741">
        <ele>0.0</ele>
        <time>2026-04-25T17:07:29.000Z</time>
    </trkpt>
    <trkpt lat="59.1003513336" lon="30.0329303741">
        <ele>0.0</ele>
        <time>2026-04-25T17:07:32.000Z</time>
    </trkpt>
    <trkpt lat="59.1003513336" lon="30.0329303741">
        <ele>0.0</ele>
        <time>2026-04-25T17:07:34.000Z</time>
    </trkpt>
    <trkpt lat="59.1003513336" lon="30.0329303741">
        <ele>0.0</ele>
        <time>2026-04-25T17:07:37.000Z</time>
    </trkpt>
    <trkpt lat="59.1003513336" lon="30.0329303741">
        <ele>0.0</ele>
        <time>2026-04-25T17:07:39.000Z</time>
    </trkpt>
    <trkpt lat="59.1003513336" lon="30.0329303741">
        <ele>0.0</ele>
        <time>2026-04-25T17:07:42.000Z</time>
    </trkpt>
    <trkpt lat="59.1003513336" lon="30.0329303741">
        <ele>0.0</ele>
        <time>2026-04-25T17:07:44.000Z</time>
    </trkpt>
    <trkpt lat="59.1003513336" lon="30.0329303741">
        <ele>0.0</ele>
        <time>2026-04-25T17:07:47.000Z</time>
    </trkpt>
    <trkpt lat="59.1003513336" lon="30.0329303741">
        <ele>0.0</ele>
        <time>2026-04-25T17:07:49.000Z</time>
    </trkpt>
    <trkpt lat="59.1003513336" lon="30.0329303741">
        <ele>0.0</ele>
        <time>2026-04-25T17:07:52.000Z</time>
    </trkpt>
    <trkpt lat="59.1003513336" lon="30.0329303741">
        <ele>0.0</ele>
        <time>2026-04-25T17:07:54.000Z</time>
    </trkpt>
    <trkpt lat="59.1003513336" lon="30.0329303741">
        <ele>0.0</ele>
        <time>2026-04-25T17:07:57.000Z</time>
    </trkpt>
    <trkpt lat="59.1003513336" lon="30.0329303741">
        <ele>0.0</ele>
        <time>2026-04-25T17:07:59.000Z</time>
    </trkpt>
    <trkpt lat="59.1003513336" lon="30.0329303741">
        <ele>0.0</ele>
        <time>2026-04-25T17:08:02.000Z</time>
    </trkpt>
    <trkpt lat="59.1003513336" lon="30.0329303741">
        <ele>0.0</ele>
        <time>2026-04-25T17:08:04.000Z</time>
    </trkpt>
    <trkpt lat="59.1003513336" lon="30.0329303741">
        <ele>0.0</ele>
        <time>2026-04-25T17:08:07.000Z</time>
    </trkpt>
    <trkpt lat="59.1003513336" lon="30.0329303741">
        <ele>0.0</ele>
        <time>2026-04-25T17:08:09.000Z</time>
    </trkpt>
    <trkpt lat="59.1003513336" lon="30.0329303741">
        <ele>0.0</ele>
        <time>2026-04-25T17:08:12.000Z</time>
    </trkpt>
    <trkpt lat="59.1003513336" lon="30.0329303741">
        <ele>0.0</ele>
        <time>2026-04-25T17:08:14.000Z</time>
    </trkpt>
    <trkpt lat="59.1003513336" lon="30.0329303741">
        <ele>0.0</ele>
        <time>2026-04-25T17:08:17.000Z</time>
    </trkpt>
    <trkpt lat="59.1003513336" lon="30.0329303741">
        <ele>0.0</ele>
        <time>2026-04-25T17:08:19.000Z</time>
    </trkpt>
    <trkpt lat="59.1003513336" lon="30.0329303741">
        <ele>0.0</ele>
        <time>2026-04-25T17:08:22.000Z</time>
    </trkpt>
    <trkpt lat="59.1003513336" lon="30.0329303741">
        <ele>0.0</ele>
        <time>2026-04-25T17:08:24.000Z</time>
    </trkpt>
    <trkpt lat="59.1003513336" lon="30.0329303741">
        <ele>0.0</ele>
        <time>2026-04-25T17:08:27.000Z</time>
    </trkpt>
    <trkpt lat="59.1003513336" lon="30.0329303741">
        <ele>0.0</ele>
        <time>2026-04-25T17:08:29.000Z</time>
    </trkpt>
    <trkpt lat="59.1003513336" lon="30.0329303741">
        <ele>0.0</ele>
        <time>2026-04-25T17:08:32.000Z</time>
    </trkpt>
    <trkpt lat="59.1003513336" lon="30.0329303741">
        <ele>0.0</ele>
        <time>2026-04-25T17:08:34.000Z</time>
    </trkpt>
    <trkpt lat="59.1003513336" lon="30.0329303741">
        <ele>0.0</ele>
        <time>2026-04-25T17:08:37.000Z</time>
    </trkpt>
    <trkpt lat="59.1003513336" lon="30.0329303741">
        <ele>0.0</ele>
        <time>2026-04-25T17:08:39.000Z</time>
    </trkpt>
    <trkpt lat="59.1003513336" lon="30.0329518318">
        <ele>0.0</ele>
        <time>2026-04-25T17:08:42.000Z</time>
    </trkpt>
    <trkpt lat="59.1003513336" lon="30.0329518318">
        <ele>0.0</ele>
        <time>2026-04-25T17:08:44.000Z</time>
    </trkpt>
    <trkpt lat="59.1003727913" lon="30.0329518318">
        <ele>0.0</ele>
        <time>2026-04-25T17:08:47.000Z</time>
    </trkpt>
    <trkpt lat="59.1003727913" lon="30.0329518318">
        <ele>0.0</ele>
        <time>2026-04-25T17:08:49.000Z</time>
    </trkpt>
    <trkpt lat="59.1003727913" lon="30.0329518318">
        <ele>0.0</ele>
        <time>2026-04-25T17:08:52.000Z</time>
    </trkpt>
    <trkpt lat="59.1003727913" lon="30.0329518318">
        <ele>0.0</ele>
        <time>2026-04-25T17:08:54.000Z</time>
    </trkpt>
    <trkpt lat="59.100394249" lon="30.0330162048">
        <ele>0.0</ele>
        <time>2026-04-25T17:08:57.000Z</time>
    </trkpt>
    <trkpt lat="59.100394249" lon="30.0329732895">
        <ele>0.0</ele>
        <time>2026-04-25T17:08:59.000Z</time>
    </trkpt>
    <trkpt lat="59.100394249" lon="30.0329518318">
        <ele>0.0</ele>
        <time>2026-04-25T17:09:02.000Z</time>
    </trkpt>
    <trkpt lat="59.100394249" lon="30.0329518318">
        <ele>0.0</ele>
        <time>2026-04-25T17:09:04.000Z</time>
    </trkpt>
    <trkpt lat="59.100394249" lon="30.0329518318">
        <ele>0.0</ele>
        <time>2026-04-25T17:09:07.000Z</time>
    </trkpt>
    <trkpt lat="59.100394249" lon="30.0329518318">
        <ele>0.0</ele>
        <time>2026-04-25T17:09:09.000Z</time>
    </trkpt>
    <trkpt lat="59.100394249" lon="30.0329518318">
        <ele>0.0</ele>
        <time>2026-04-25T17:09:12.000Z</time>
    </trkpt>
    <trkpt lat="59.100394249" lon="30.0329518318">
        <ele>0.0</ele>
        <time>2026-04-25T17:09:14.000Z</time>
    </trkpt>
    <trkpt lat="59.100394249" lon="30.0329303741">
        <ele>0.0</ele>
        <time>2026-04-25T17:09:17.000Z</time>
    </trkpt>
    <trkpt lat="59.100394249" lon="30.0329303741">
        <ele>0.0</ele>
        <time>2026-04-25T17:09:19.000Z</time>
    </trkpt>
    <trkpt lat="59.100394249" lon="30.0329303741">
        <ele>0.0</ele>
        <time>2026-04-25T17:09:22.000Z</time>
    </trkpt>
    <trkpt lat="59.100394249" lon="30.0329303741">
        <ele>0.0</ele>
        <time>2026-04-25T17:09:24.000Z</time>
    </trkpt>
    <trkpt lat="59.100394249" lon="30.0329303741">
        <ele>0.0</ele>
        <time>2026-04-25T17:09:27.000Z</time>
    </trkpt>
    <trkpt lat="59.100394249" lon="30.0329303741">
        <ele>0.0</ele>
        <time>2026-04-25T17:09:29.000Z</time>
    </trkpt>
    <trkpt lat="59.100394249" lon="30.0329303741">
        <ele>0.0</ele>
        <time>2026-04-25T17:09:32.000Z</time>
    </trkpt>
    <trkpt lat="59.100394249" lon="30.0329303741">
        <ele>0.0</ele>
        <time>2026-04-25T17:09:34.000Z</time>
    </trkpt>
    <trkpt lat="59.100394249" lon="30.0329303741">
        <ele>0.0</ele>
        <time>2026-04-25T17:09:37.000Z</time>
    </trkpt>
    <trkpt lat="59.1004157066" lon="30.0330591202">
        <ele>0.0</ele>
        <time>2026-04-25T17:09:39.000Z</time>
    </trkpt>
    <trkpt lat="59.1004157066" lon="30.0331020355">
        <ele>0.0</ele>
        <time>2026-04-25T17:09:42.000Z</time>
    </trkpt>
    <trkpt lat="59.1004157066" lon="30.0330805779">
        <ele>0.0</ele>
        <time>2026-04-25T17:09:44.000Z</time>
    </trkpt>
    <trkpt lat="59.100394249" lon="30.0329732895">
        <ele>0.0</ele>
        <time>2026-04-25T17:09:47.000Z</time>
    </trkpt>
    <trkpt lat="59.100394249" lon="30.0329518318">
        <ele>0.0</ele>
        <time>2026-04-25T17:09:49.000Z</time>
    </trkpt>
    <trkpt lat="59.100394249" lon="30.0329518318">
        <ele>0.0</ele>
        <time>2026-04-25T17:09:52.000Z</time>
    </trkpt>
    <trkpt lat="59.100394249" lon="30.0329518318">
        <ele>0.0</ele>
        <time>2026-04-25T17:09:54.000Z</time>
    </trkpt>
    <trkpt lat="59.1003727913" lon="30.0329089165">
        <ele>0.0</ele>
        <time>2026-04-25T17:09:57.000Z</time>
    </trkpt>
    <trkpt lat="59.1003513336" lon="30.0328445435">
        <ele>0.0</ele>
        <time>2026-04-25T17:09:59.000Z</time>
    </trkpt>
    <trkpt lat="59.1003513336" lon="30.0328230858">
        <ele>0.0</ele>
        <time>2026-04-25T17:10:02.000Z</time>
    </trkpt>
    <trkpt lat="59.1003513336" lon="30.0328230858">
        <ele>0.0</ele>
        <time>2026-04-25T17:10:04.000Z</time>
    </trkpt>
    <trkpt lat="59.1003513336" lon="30.0328230858">
        <ele>0.0</ele>
        <time>2026-04-25T17:10:07.000Z</time>
    </trkpt>
    <trkpt lat="59.1003513336" lon="30.0326943398">
        <ele>0.0</ele>
        <time>2026-04-25T17:10:09.000Z</time>
    </trkpt>
    <trkpt lat="59.1003298759" lon="30.0326514244">
        <ele>0.0</ele>
        <time>2026-04-25T17:10:12.000Z</time>
    </trkpt>
    <trkpt lat="59.1003298759" lon="30.0326514244">
        <ele>0.0</ele>
        <time>2026-04-25T17:10:14.000Z</time>
    </trkpt>
    <trkpt lat="59.1003084183" lon="30.0326085091">
        <ele>0.0</ele>
        <time>2026-04-25T17:10:17.000Z</time>
    </trkpt>
    <trkpt lat="59.1003298759" lon="30.0326085091">
        <ele>0.0</ele>
        <time>2026-04-25T17:10:19.000Z</time>
    </trkpt>
    <trkpt lat="59.1003084183" lon="30.0325655937">
        <ele>0.0</ele>
        <time>2026-04-25T17:10:22.000Z</time>
    </trkpt>
    <trkpt lat="59.1003084183" lon="30.032479763">
        <ele>0.0</ele>
        <time>2026-04-25T17:10:24.000Z</time>
    </trkpt>
    <trkpt lat="59.1003084183" lon="30.0324368477">
        <ele>0.0</ele>
        <time>2026-04-25T17:10:27.000Z</time>
    </trkpt>
    <trkpt lat="59.1003084183" lon="30.032351017">
        <ele>0.0</ele>
        <time>2026-04-25T17:10:29.000Z</time>
    </trkpt>
    <trkpt lat="59.1003084183" lon="30.0322651863">
        <ele>0.0</ele>
        <time>2026-04-25T17:10:32.000Z</time>
    </trkpt>
    <trkpt lat="59.1002869606" lon="30.0322437286">
        <ele>0.0</ele>
        <time>2026-04-25T17:10:34.000Z</time>
    </trkpt>
    <trkpt lat="59.1002869606" lon="30.0322437286">
        <ele>0.0</ele>
        <time>2026-04-25T17:10:37.000Z</time>
    </trkpt>
    <trkpt lat="59.1002869606" lon="30.032222271">
        <ele>0.0</ele>
        <time>2026-04-25T17:10:39.000Z</time>
    </trkpt>
    <trkpt lat="59.1002655029" lon="30.032222271">
        <ele>0.0</ele>
        <time>2026-04-25T17:10:42.000Z</time>
    </trkpt>
    <trkpt lat="59.1002440453" lon="30.0321578979">
        <ele>0.0</ele>
        <time>2026-04-25T17:10:44.000Z</time>
    </trkpt>
    <trkpt lat="59.1002440453" lon="30.0321578979">
        <ele>0.0</ele>
        <time>2026-04-25T17:10:47.000Z</time>
    </trkpt>
    <trkpt lat="59.1002440453" lon="30.0321364403">
        <ele>0.0</ele>
        <time>2026-04-25T17:10:49.000Z</time>
    </trkpt>
    <trkpt lat="59.1002440453" lon="30.0321364403">
        <ele>0.0</ele>
        <time>2026-04-25T17:10:52.000Z</time>
    </trkpt>
    <trkpt lat="59.1002440453" lon="30.0321364403">
        <ele>0.0</ele>
        <time>2026-04-25T17:10:54.000Z</time>
    </trkpt>
    <trkpt lat="59.1002440453" lon="30.0320935249">
        <ele>0.0</ele>
        <time>2026-04-25T17:10:57.000Z</time>
    </trkpt>
    <trkpt lat="59.1002440453" lon="30.0320076942">
        <ele>0.0</ele>
        <time>2026-04-25T17:10:59.000Z</time>
    </trkpt>
    <trkpt lat="59.1002440453" lon="30.0320076942">
        <ele>0.0</ele>
        <time>2026-04-25T17:11:02.000Z</time>
    </trkpt>
    <trkpt lat="59.1002440453" lon="30.0320076942">
        <ele>0.0</ele>
        <time>2026-04-25T17:11:04.000Z</time>
    </trkpt>
    <trkpt lat="59.1002440453" lon="30.0320076942">
        <ele>0.0</ele>
        <time>2026-04-25T17:11:07.000Z</time>
    </trkpt>
    <trkpt lat="59.1002440453" lon="30.0320291519">
        <ele>0.0</ele>
        <time>2026-04-25T17:11:09.000Z</time>
    </trkpt>
    <trkpt lat="59.1002440453" lon="30.0319433212">
        <ele>0.0</ele>
        <time>2026-04-25T17:11:12.000Z</time>
    </trkpt>
    <trkpt lat="59.1002011299" lon="30.0318574905">
        <ele>0.0</ele>
        <time>2026-04-25T17:11:14.000Z</time>
    </trkpt>
    <trkpt lat="59.1002011299" lon="30.0318360329">
        <ele>0.0</ele>
        <time>2026-04-25T17:11:17.000Z</time>
    </trkpt>
    <trkpt lat="59.1002011299" lon="30.0317716599">
        <ele>0.0</ele>
        <time>2026-04-25T17:11:19.000Z</time>
    </trkpt>
    <trkpt lat="59.1001796722" lon="30.0317502022">
        <ele>0.0</ele>
        <time>2026-04-25T17:11:22.000Z</time>
    </trkpt>
    <trkpt lat="59.1001796722" lon="30.0317716599">
        <ele>0.0</ele>
        <time>2026-04-25T17:11:24.000Z</time>
    </trkpt>
    <trkpt lat="59.1001796722" lon="30.0317502022">
        <ele>0.0</ele>
        <time>2026-04-25T17:11:27.000Z</time>
    </trkpt>
    <trkpt lat="59.1001796722" lon="30.0317072868">
        <ele>0.0</ele>
        <time>2026-04-25T17:11:29.000Z</time>
    </trkpt>
    <trkpt lat="59.1001796722" lon="30.0316858292">
        <ele>0.0</ele>
        <time>2026-04-25T17:11:32.000Z</time>
    </trkpt>
    <trkpt lat="59.1001582146" lon="30.0316643715">
        <ele>0.0</ele>
        <time>2026-04-25T17:11:34.000Z</time>
    </trkpt>
    <trkpt lat="59.1001582146" lon="30.0316214561">
        <ele>0.0</ele>
        <time>2026-04-25T17:11:37.000Z</time>
    </trkpt>
    <trkpt lat="59.1001582146" lon="30.0315570831">
        <ele>0.0</ele>
        <time>2026-04-25T17:11:39.000Z</time>
    </trkpt>
    <trkpt lat="59.1001582146" lon="30.0315356255">
        <ele>0.0</ele>
        <time>2026-04-25T17:11:42.000Z</time>
    </trkpt>
    <trkpt lat="59.1001582146" lon="30.0314927101">
        <ele>0.0</ele>
        <time>2026-04-25T17:11:44.000Z</time>
    </trkpt>
    <trkpt lat="59.1001367569" lon="30.0314497948">
        <ele>0.0</ele>
        <time>2026-04-25T17:11:47.000Z</time>
    </trkpt>
    <trkpt lat="59.1001152992" lon="30.0314283371">
        <ele>0.0</ele>
        <time>2026-04-25T17:11:49.000Z</time>
    </trkpt>
    <trkpt lat="59.1001152992" lon="30.0313854218">
        <ele>0.0</ele>
        <time>2026-04-25T17:11:52.000Z</time>
    </trkpt>
    <trkpt lat="59.1000938416" lon="30.0313854218">
        <ele>0.0</ele>
        <time>2026-04-25T17:11:54.000Z</time>
    </trkpt>
    <trkpt lat="59.1000938416" lon="30.0313639641">
        <ele>0.0</ele>
        <time>2026-04-25T17:11:57.000Z</time>
    </trkpt>
    <trkpt lat="59.1000938416" lon="30.0313210487">
        <ele>0.0</ele>
        <time>2026-04-25T17:11:59.000Z</time>
    </trkpt>
    <trkpt lat="59.1000938416" lon="30.0312995911">
        <ele>0.0</ele>
        <time>2026-04-25T17:12:02.000Z</time>
    </trkpt>
    <trkpt lat="59.1000723839" lon="30.031235218">
        <ele>0.0</ele>
        <time>2026-04-25T17:12:04.000Z</time>
    </trkpt>
    <trkpt lat="59.1000509262" lon="30.031170845">
        <ele>0.0</ele>
        <time>2026-04-25T17:12:07.000Z</time>
    </trkpt>
    <trkpt lat="59.1000509262" lon="30.031106472">
        <ele>0.0</ele>
        <time>2026-04-25T17:12:09.000Z</time>
    </trkpt>
    <trkpt lat="59.1000509262" lon="30.0310635567">
        <ele>0.0</ele>
        <time>2026-04-25T17:12:12.000Z</time>
    </trkpt>
    <trkpt lat="59.1000509262" lon="30.0310635567">
        <ele>0.0</ele>
        <time>2026-04-25T17:12:14.000Z</time>
    </trkpt>
    <trkpt lat="59.1000509262" lon="30.031042099">
        <ele>0.0</ele>
        <time>2026-04-25T17:12:17.000Z</time>
    </trkpt>
    <trkpt lat="59.1000294685" lon="30.0309348106">
        <ele>0.0</ele>
        <time>2026-04-25T17:12:19.000Z</time>
    </trkpt>
    <trkpt lat="59.1000294685" lon="30.0308489799">
        <ele>0.0</ele>
        <time>2026-04-25T17:12:22.000Z</time>
    </trkpt>
    <trkpt lat="59.1000294685" lon="30.0307416916">
        <ele>0.0</ele>
        <time>2026-04-25T17:12:24.000Z</time>
    </trkpt>
    <trkpt lat="59.1000080109" lon="30.0306773186">
        <ele>0.0</ele>
        <time>2026-04-25T17:12:27.000Z</time>
    </trkpt>
    <trkpt lat="59.1000080109" lon="30.0306558609">
        <ele>0.0</ele>
        <time>2026-04-25T17:12:29.000Z</time>
    </trkpt>
    <trkpt lat="59.1000080109" lon="30.0306558609">
        <ele>0.0</ele>
        <time>2026-04-25T17:12:32.000Z</time>
    </trkpt>
    <trkpt lat="59.1000080109" lon="30.0306344032">
        <ele>0.0</ele>
        <time>2026-04-25T17:12:34.000Z</time>
    </trkpt>
    <trkpt lat="59.1000080109" lon="30.0305700302">
        <ele>0.0</ele>
        <time>2026-04-25T17:12:37.000Z</time>
    </trkpt>
    <trkpt lat="59.1000080109" lon="30.0304841995">
        <ele>0.0</ele>
        <time>2026-04-25T17:12:39.000Z</time>
    </trkpt>
    <trkpt lat="59.0999865532" lon="30.0304627419">
        <ele>0.0</ele>
        <time>2026-04-25T17:12:42.000Z</time>
    </trkpt>
    <trkpt lat="59.0999865532" lon="30.0304627419">
        <ele>0.0</ele>
        <time>2026-04-25T17:12:44.000Z</time>
    </trkpt>
    <trkpt lat="59.0999865532" lon="30.0304627419">
        <ele>0.0</ele>
        <time>2026-04-25T17:12:47.000Z</time>
    </trkpt>
    <trkpt lat="59.0999865532" lon="30.0304627419">
        <ele>0.0</ele>
        <time>2026-04-25T17:12:49.000Z</time>
    </trkpt>
    <trkpt lat="59.0999865532" lon="30.0304412842">
        <ele>0.0</ele>
        <time>2026-04-25T17:12:52.000Z</time>
    </trkpt>
    <trkpt lat="59.0999436378" lon="30.0303769112">
        <ele>0.0</ele>
        <time>2026-04-25T17:12:54.000Z</time>
    </trkpt>
    <trkpt lat="59.0999436378" lon="30.0303554535">
        <ele>0.0</ele>
        <time>2026-04-25T17:12:57.000Z</time>
    </trkpt>
    <trkpt lat="59.0999436378" lon="30.0303339958">
        <ele>0.0</ele>
        <time>2026-04-25T17:12:59.000Z</time>
    </trkpt>
    <trkpt lat="59.0999436378" lon="30.0302910805">
        <ele>0.0</ele>
        <time>2026-04-25T17:13:02.000Z</time>
    </trkpt>
    <trkpt lat="59.0999221802" lon="30.0302481651">
        <ele>0.0</ele>
        <time>2026-04-25T17:13:04.000Z</time>
    </trkpt>
    <trkpt lat="59.0999221802" lon="30.0302052498">
        <ele>0.0</ele>
        <time>2026-04-25T17:13:07.000Z</time>
    </trkpt>
    <trkpt lat="59.0999221802" lon="30.0301837921">
        <ele>0.0</ele>
        <time>2026-04-25T17:13:09.000Z</time>
    </trkpt>
    <trkpt lat="59.0999221802" lon="30.0301623344">
        <ele>0.0</ele>
        <time>2026-04-25T17:13:12.000Z</time>
    </trkpt>
    <trkpt lat="59.0999436378" lon="30.0301408768">
        <ele>0.0</ele>
        <time>2026-04-25T17:13:14.000Z</time>
    </trkpt>
    <trkpt lat="59.0999436378" lon="30.0300979614">
        <ele>0.0</ele>
        <time>2026-04-25T17:13:17.000Z</time>
    </trkpt>
    <trkpt lat="59.0999221802" lon="30.0300121307">
        <ele>0.0</ele>
        <time>2026-04-25T17:13:19.000Z</time>
    </trkpt>
    <trkpt lat="59.0999007225" lon="30.0299477577">
        <ele>0.0</ele>
        <time>2026-04-25T17:13:22.000Z</time>
    </trkpt>
    <trkpt lat="59.0999007225" lon="30.029861927">
        <ele>0.0</ele>
        <time>2026-04-25T17:13:24.000Z</time>
    </trkpt>
    <trkpt lat="59.0999007225" lon="30.029861927">
        <ele>0.0</ele>
        <time>2026-04-25T17:13:27.000Z</time>
    </trkpt>
    <trkpt lat="59.0999007225" lon="30.029861927">
        <ele>0.0</ele>
        <time>2026-04-25T17:13:29.000Z</time>
    </trkpt>
    <trkpt lat="59.0999007225" lon="30.0297546387">
        <ele>0.0</ele>
        <time>2026-04-25T17:13:34.000Z</time>
    </trkpt>
    <trkpt lat="59.0998792648" lon="30.0297117233">
        <ele>0.0</ele>
        <time>2026-04-25T17:13:37.000Z</time>
    </trkpt>
    <trkpt lat="59.0998578072" lon="30.0296902657">
        <ele>0.0</ele>
        <time>2026-04-25T17:13:39.000Z</time>
    </trkpt>
    <trkpt lat="59.0998578072" lon="30.0296902657">
        <ele>0.0</ele>
        <time>2026-04-25T17:13:42.000Z</time>
    </trkpt>
    <trkpt lat="59.0998363495" lon="30.0296902657">
        <ele>0.0</ele>
        <time>2026-04-25T17:13:44.000Z</time>
    </trkpt>
    <trkpt lat="59.0998363495" lon="30.029668808">
        <ele>0.0</ele>
        <time>2026-04-25T17:13:47.000Z</time>
    </trkpt>
    <trkpt lat="59.0998148918" lon="30.029604435">
        <ele>0.0</ele>
        <time>2026-04-25T17:13:49.000Z</time>
    </trkpt>
    <trkpt lat="59.0998148918" lon="30.0295615196">
        <ele>0.0</ele>
        <time>2026-04-25T17:13:52.000Z</time>
    </trkpt>
    <trkpt lat="59.0997934341" lon="30.0294327736">
        <ele>0.0</ele>
        <time>2026-04-25T17:13:57.000Z</time>
    </trkpt>
    <trkpt lat="59.0997934341" lon="30.0293898582">
        <ele>0.0</ele>
        <time>2026-04-25T17:13:59.000Z</time>
    </trkpt>
    <trkpt lat="59.0997934341" lon="30.0293898582">
        <ele>0.0</ele>
        <time>2026-04-25T17:14:02.000Z</time>
    </trkpt>
    <trkpt lat="59.0997934341" lon="30.0293469429">
        <ele>0.0</ele>
        <time>2026-04-25T17:14:04.000Z</time>
    </trkpt>
    <trkpt lat="59.0997719765" lon="30.0293040276">
        <ele>0.0</ele>
        <time>2026-04-25T17:14:07.000Z</time>
    </trkpt>
    <trkpt lat="59.0997505188" lon="30.0292396545">
        <ele>0.0</ele>
        <time>2026-04-25T17:14:09.000Z</time>
    </trkpt>
    <trkpt lat="59.0997505188" lon="30.0291752815">
        <ele>0.0</ele>
        <time>2026-04-25T17:14:12.000Z</time>
    </trkpt>
    <trkpt lat="59.0997290611" lon="30.0290679932">
        <ele>0.0</ele>
        <time>2026-04-25T17:14:14.000Z</time>
    </trkpt>
    <trkpt lat="59.0997076035" lon="30.0290250778">
        <ele>0.0</ele>
        <time>2026-04-25T17:14:17.000Z</time>
    </trkpt>
    <trkpt lat="59.0997076035" lon="30.0290036201">
        <ele>0.0</ele>
        <time>2026-04-25T17:14:19.000Z</time>
    </trkpt>
    <trkpt lat="59.0997076035" lon="30.0289607048">
        <ele>0.0</ele>
        <time>2026-04-25T17:14:22.000Z</time>
    </trkpt>
    <trkpt lat="59.0997076035" lon="30.0289607048">
        <ele>0.0</ele>
        <time>2026-04-25T17:14:24.000Z</time>
    </trkpt>
    <trkpt lat="59.0997076035" lon="30.0289607048">
        <ele>0.0</ele>
        <time>2026-04-25T17:14:27.000Z</time>
    </trkpt>
    <trkpt lat="59.0996861458" lon="30.0288963318">
        <ele>0.0</ele>
        <time>2026-04-25T17:14:29.000Z</time>
    </trkpt>
    <trkpt lat="59.0996861458" lon="30.0288534164">
        <ele>0.0</ele>
        <time>2026-04-25T17:14:32.000Z</time>
    </trkpt>
    <trkpt lat="59.0996646881" lon="30.0287890434">
        <ele>0.0</ele>
        <time>2026-04-25T17:14:34.000Z</time>
    </trkpt>
    <trkpt lat="59.0996646881" lon="30.0287246704">
        <ele>0.0</ele>
        <time>2026-04-25T17:14:37.000Z</time>
    </trkpt>
    <trkpt lat="59.0996646881" lon="30.0287032127">
        <ele>0.0</ele>
        <time>2026-04-25T17:14:39.000Z</time>
    </trkpt>
    <trkpt lat="59.0996432304" lon="30.0286602974">
        <ele>0.0</ele>
        <time>2026-04-25T17:14:42.000Z</time>
    </trkpt>
    <trkpt lat="59.0996217728" lon="30.028617382">
        <ele>0.0</ele>
        <time>2026-04-25T17:14:44.000Z</time>
    </trkpt>
    <trkpt lat="59.0996003151" lon="30.028617382">
        <ele>0.0</ele>
        <time>2026-04-25T17:14:47.000Z</time>
    </trkpt>
    <trkpt lat="59.0996003151" lon="30.0285959244">
        <ele>0.0</ele>
        <time>2026-04-25T17:14:49.000Z</time>
    </trkpt>
    <trkpt lat="59.0996003151" lon="30.0285744667">
        <ele>0.0</ele>
        <time>2026-04-25T17:14:52.000Z</time>
    </trkpt>
    <trkpt lat="59.0996003151" lon="30.0285959244">
        <ele>0.0</ele>
        <time>2026-04-25T17:14:54.000Z</time>
    </trkpt>
    <trkpt lat="59.0996003151" lon="30.0285959244">
        <ele>0.0</ele>
        <time>2026-04-25T17:14:57.000Z</time>
    </trkpt>
    <trkpt lat="59.0996003151" lon="30.0285959244">
        <ele>0.0</ele>
        <time>2026-04-25T17:14:59.000Z</time>
    </trkpt>
    <trkpt lat="59.0996003151" lon="30.0285959244">
        <ele>0.0</ele>
        <time>2026-04-25T17:15:02.000Z</time>
    </trkpt>
    <trkpt lat="59.0996003151" lon="30.0285959244">
        <ele>0.0</ele>
        <time>2026-04-25T17:15:04.000Z</time>
    </trkpt>
    <trkpt lat="59.0996003151" lon="30.028617382">
        <ele>0.0</ele>
        <time>2026-04-25T17:15:07.000Z</time>
    </trkpt>
    <trkpt lat="59.0995788574" lon="30.028617382">
        <ele>0.0</ele>
        <time>2026-04-25T17:15:09.000Z</time>
    </trkpt>
    <trkpt lat="59.0996003151" lon="30.0286388397">
        <ele>0.0</ele>
        <time>2026-04-25T17:15:12.000Z</time>
    </trkpt>
    <trkpt lat="59.0996003151" lon="30.028617382">
        <ele>0.0</ele>
        <time>2026-04-25T17:15:14.000Z</time>
    </trkpt>
    <trkpt lat="59.0996217728" lon="30.0285744667">
        <ele>0.0</ele>
        <time>2026-04-25T17:15:17.000Z</time>
    </trkpt>
    <trkpt lat="59.0996003151" lon="30.0285315514">
        <ele>0.0</ele>
        <time>2026-04-25T17:15:19.000Z</time>
    </trkpt>
    <trkpt lat="59.0996003151" lon="30.028488636">
        <ele>0.0</ele>
        <time>2026-04-25T17:15:22.000Z</time>
    </trkpt>
    <trkpt lat="59.0996217728" lon="30.0284671783">
        <ele>0.0</ele>
        <time>2026-04-25T17:15:24.000Z</time>
    </trkpt>
    <trkpt lat="59.0996217728" lon="30.0284457207">
        <ele>0.0</ele>
        <time>2026-04-25T17:15:27.000Z</time>
    </trkpt>
    <trkpt lat="59.0996003151" lon="30.0284028053">
        <ele>0.0</ele>
        <time>2026-04-25T17:15:29.000Z</time>
    </trkpt>
    <trkpt lat="59.0996003151" lon="30.0283813477">
        <ele>0.0</ele>
        <time>2026-04-25T17:15:32.000Z</time>
    </trkpt>
    <trkpt lat="59.0996003151" lon="30.0283169746">
        <ele>0.0</ele>
        <time>2026-04-25T17:15:34.000Z</time>
    </trkpt>
    <trkpt lat="59.0996003151" lon="30.0283169746">
        <ele>0.0</ele>
        <time>2026-04-25T17:15:37.000Z</time>
    </trkpt>
    <trkpt lat="59.0996003151" lon="30.0282526016">
        <ele>0.0</ele>
        <time>2026-04-25T17:15:39.000Z</time>
    </trkpt>
    <trkpt lat="59.0996003151" lon="30.0281882286">
        <ele>0.0</ele>
        <time>2026-04-25T17:15:42.000Z</time>
    </trkpt>
    <trkpt lat="59.0995788574" lon="30.0281023979">
        <ele>0.0</ele>
        <time>2026-04-25T17:15:44.000Z</time>
    </trkpt>
    <trkpt lat="59.0995788574" lon="30.0280594826">
        <ele>0.0</ele>
        <time>2026-04-25T17:15:47.000Z</time>
    </trkpt>
    <trkpt lat="59.0995788574" lon="30.0280380249">
        <ele>0.0</ele>
        <time>2026-04-25T17:15:49.000Z</time>
    </trkpt>
    <trkpt lat="59.0995788574" lon="30.0279951096">
        <ele>0.0</ele>
        <time>2026-04-25T17:15:52.000Z</time>
    </trkpt>
    <trkpt lat="59.0995788574" lon="30.0279736519">
        <ele>0.0</ele>
        <time>2026-04-25T17:15:54.000Z</time>
    </trkpt>
    <trkpt lat="59.0995788574" lon="30.0279521942">
        <ele>0.0</ele>
        <time>2026-04-25T17:15:57.000Z</time>
    </trkpt>
    <trkpt lat="59.0995359421" lon="30.0279307365">
        <ele>0.0</ele>
        <time>2026-04-25T17:15:59.000Z</time>
    </trkpt>
    <trkpt lat="59.0995359421" lon="30.0279092789">
        <ele>0.0</ele>
        <time>2026-04-25T17:16:02.000Z</time>
    </trkpt>
    <trkpt lat="59.0995359421" lon="30.0278663635">
        <ele>0.0</ele>
        <time>2026-04-25T17:16:04.000Z</time>
    </trkpt>
    <trkpt lat="59.0995144844" lon="30.0278449059">
        <ele>0.0</ele>
        <time>2026-04-25T17:16:07.000Z</time>
    </trkpt>
    <trkpt lat="59.0995144844" lon="30.0278234482">
        <ele>0.0</ele>
        <time>2026-04-25T17:16:09.000Z</time>
    </trkpt>
    <trkpt lat="59.0994930267" lon="30.0278234482">
        <ele>0.0</ele>
        <time>2026-04-25T17:16:12.000Z</time>
    </trkpt>
    <trkpt lat="59.0994715691" lon="30.0278019905">
        <ele>0.0</ele>
        <time>2026-04-25T17:16:14.000Z</time>
    </trkpt>
    <trkpt lat="59.0994715691" lon="30.0277805328">
        <ele>0.0</ele>
        <time>2026-04-25T17:16:17.000Z</time>
    </trkpt>
    <trkpt lat="59.0994715691" lon="30.0277161598">
        <ele>0.0</ele>
        <time>2026-04-25T17:16:19.000Z</time>
    </trkpt>
    <trkpt lat="59.0994930267" lon="30.0276947021">
        <ele>0.0</ele>
        <time>2026-04-25T17:16:22.000Z</time>
    </trkpt>
    <trkpt lat="59.0994715691" lon="30.0276732445">
        <ele>0.0</ele>
        <time>2026-04-25T17:16:24.000Z</time>
    </trkpt>
    <trkpt lat="59.0994715691" lon="30.0276517868">
        <ele>0.0</ele>
        <time>2026-04-25T17:16:27.000Z</time>
    </trkpt>
    <trkpt lat="59.0994501114" lon="30.0275874138">
        <ele>0.0</ele>
        <time>2026-04-25T17:16:29.000Z</time>
    </trkpt>
    <trkpt lat="59.0994501114" lon="30.0275659561">
        <ele>0.0</ele>
        <time>2026-04-25T17:16:32.000Z</time>
    </trkpt>
    <trkpt lat="59.0994501114" lon="30.0275230408">
        <ele>0.0</ele>
        <time>2026-04-25T17:16:34.000Z</time>
    </trkpt>
    <trkpt lat="59.0994501114" lon="30.0275230408">
        <ele>0.0</ele>
        <time>2026-04-25T17:16:37.000Z</time>
    </trkpt>
    <trkpt lat="59.0994501114" lon="30.0274586678">
        <ele>0.0</ele>
        <time>2026-04-25T17:16:39.000Z</time>
    </trkpt>
    <trkpt lat="59.0994501114" lon="30.0274586678">
        <ele>0.0</ele>
        <time>2026-04-25T17:16:42.000Z</time>
    </trkpt>
    <trkpt lat="59.0994501114" lon="30.0273942947">
        <ele>0.0</ele>
        <time>2026-04-25T17:16:44.000Z</time>
    </trkpt>
    <trkpt lat="59.0994286537" lon="30.0273299217">
        <ele>0.0</ele>
        <time>2026-04-25T17:16:47.000Z</time>
    </trkpt>
    <trkpt lat="59.0994286537" lon="30.027244091">
        <ele>0.0</ele>
        <time>2026-04-25T17:16:49.000Z</time>
    </trkpt>
    <trkpt lat="59.099407196" lon="30.027179718">
        <ele>0.0</ele>
        <time>2026-04-25T17:16:52.000Z</time>
    </trkpt>
    <trkpt lat="59.099407196" lon="30.0271368027">
        <ele>0.0</ele>
        <time>2026-04-25T17:16:54.000Z</time>
    </trkpt>
    <trkpt lat="59.099407196" lon="30.0270938873">
        <ele>0.0</ele>
        <time>2026-04-25T17:16:57.000Z</time>
    </trkpt>
    <trkpt lat="59.0993857384" lon="30.0270724297">
        <ele>0.0</ele>
        <time>2026-04-25T17:16:59.000Z</time>
    </trkpt>
    <trkpt lat="59.099407196" lon="30.027050972">
        <ele>0.0</ele>
        <time>2026-04-25T17:17:02.000Z</time>
    </trkpt>
    <trkpt lat="59.0993857384" lon="30.026986599">
        <ele>0.0</ele>
        <time>2026-04-25T17:17:04.000Z</time>
    </trkpt>
    <trkpt lat="59.0993642807" lon="30.0269651413">
        <ele>0.0</ele>
        <time>2026-04-25T17:17:07.000Z</time>
    </trkpt>
    <trkpt lat="59.0993642807" lon="30.0269007683">
        <ele>0.0</ele>
        <time>2026-04-25T17:17:09.000Z</time>
    </trkpt>
    <trkpt lat="59.0993642807" lon="30.0268793106">
        <ele>0.0</ele>
        <time>2026-04-25T17:17:12.000Z</time>
    </trkpt>
    <trkpt lat="59.0993642807" lon="30.0267934799">
        <ele>0.0</ele>
        <time>2026-04-25T17:17:14.000Z</time>
    </trkpt>
    <trkpt lat="59.0993642807" lon="30.0267291069">
        <ele>0.0</ele>
        <time>2026-04-25T17:17:17.000Z</time>
    </trkpt>
    <trkpt lat="59.0993642807" lon="30.0266218185">
        <ele>0.0</ele>
        <time>2026-04-25T17:17:19.000Z</time>
    </trkpt>
    <trkpt lat="59.099342823" lon="30.0265789032">
        <ele>0.0</ele>
        <time>2026-04-25T17:17:22.000Z</time>
    </trkpt>
    <trkpt lat="59.099342823" lon="30.0265359879">
        <ele>0.0</ele>
        <time>2026-04-25T17:17:24.000Z</time>
    </trkpt>
    <trkpt lat="59.099342823" lon="30.0265145302">
        <ele>0.0</ele>
        <time>2026-04-25T17:17:27.000Z</time>
    </trkpt>
    <trkpt lat="59.099342823" lon="30.0265359879">
        <ele>0.0</ele>
        <time>2026-04-25T17:17:29.000Z</time>
    </trkpt>
    <trkpt lat="59.0993213654" lon="30.0265359879">
        <ele>0.0</ele>
        <time>2026-04-25T17:17:32.000Z</time>
    </trkpt>
    <trkpt lat="59.0993213654" lon="30.0264501572">
        <ele>0.0</ele>
        <time>2026-04-25T17:17:34.000Z</time>
    </trkpt>
    <trkpt lat="59.0993213654" lon="30.0264072418">
        <ele>0.0</ele>
        <time>2026-04-25T17:17:37.000Z</time>
    </trkpt>
    <trkpt lat="59.0993213654" lon="30.0263857841">
        <ele>0.0</ele>
        <time>2026-04-25T17:17:39.000Z</time>
    </trkpt>
    <trkpt lat="59.0993213654" lon="30.0263857841">
        <ele>0.0</ele>
        <time>2026-04-25T17:17:42.000Z</time>
    </trkpt>
    <trkpt lat="59.0992999077" lon="30.0263643265">
        <ele>0.0</ele>
        <time>2026-04-25T17:17:44.000Z</time>
    </trkpt>
    <trkpt lat="59.09927845" lon="30.0263428688">
        <ele>0.0</ele>
        <time>2026-04-25T17:17:47.000Z</time>
    </trkpt>
    <trkpt lat="59.0992569923" lon="30.0263214111">
        <ele>0.0</ele>
        <time>2026-04-25T17:17:49.000Z</time>
    </trkpt>
    <trkpt lat="59.0992569923" lon="30.0262784958">
        <ele>0.0</ele>
        <time>2026-04-25T17:17:52.000Z</time>
    </trkpt>
    <trkpt lat="59.0992355347" lon="30.0262355804">
        <ele>0.0</ele>
        <time>2026-04-25T17:17:54.000Z</time>
    </trkpt>
    <trkpt lat="59.0992355347" lon="30.0262141228">
        <ele>0.0</ele>
        <time>2026-04-25T17:17:57.000Z</time>
    </trkpt>
    <trkpt lat="59.0992355347" lon="30.0261712074">
        <ele>0.0</ele>
        <time>2026-04-25T17:17:59.000Z</time>
    </trkpt>
    <trkpt lat="59.0992355347" lon="30.0261712074">
        <ele>0.0</ele>
        <time>2026-04-25T17:18:02.000Z</time>
    </trkpt>
    <trkpt lat="59.0992355347" lon="30.0261497498">
        <ele>0.0</ele>
        <time>2026-04-25T17:18:04.000Z</time>
    </trkpt>
    <trkpt lat="59.0992355347" lon="30.0260853767">
        <ele>0.0</ele>
        <time>2026-04-25T17:18:07.000Z</time>
    </trkpt>
    <trkpt lat="59.0992355347" lon="30.0259995461">
        <ele>0.0</ele>
        <time>2026-04-25T17:18:09.000Z</time>
    </trkpt>
    <trkpt lat="59.099214077" lon="30.0259566307">
        <ele>0.0</ele>
        <time>2026-04-25T17:18:12.000Z</time>
    </trkpt>
    <trkpt lat="59.099214077" lon="30.0259137154">
        <ele>0.0</ele>
        <time>2026-04-25T17:18:14.000Z</time>
    </trkpt>
    <trkpt lat="59.0991926193" lon="30.0258922577">
        <ele>0.0</ele>
        <time>2026-04-25T17:18:17.000Z</time>
    </trkpt>
    <trkpt lat="59.0991926193" lon="30.0258922577">
        <ele>0.0</ele>
        <time>2026-04-25T17:18:19.000Z</time>
    </trkpt>
    <trkpt lat="59.0991926193" lon="30.0258922577">
        <ele>0.0</ele>
        <time>2026-04-25T17:18:22.000Z</time>
    </trkpt>
    <trkpt lat="59.0991926193" lon="30.0258278847">
        <ele>0.0</ele>
        <time>2026-04-25T17:18:24.000Z</time>
    </trkpt>
    <trkpt lat="59.0991926193" lon="30.025806427">
        <ele>0.0</ele>
        <time>2026-04-25T17:18:27.000Z</time>
    </trkpt>
    <trkpt lat="59.0991926193" lon="30.025806427">
        <ele>0.0</ele>
        <time>2026-04-25T17:18:29.000Z</time>
    </trkpt>
    <trkpt lat="59.0991711617" lon="30.0257849693">
        <ele>0.0</ele>
        <time>2026-04-25T17:18:32.000Z</time>
    </trkpt>
    <trkpt lat="59.0991711617" lon="30.0257205963">
        <ele>0.0</ele>
        <time>2026-04-25T17:18:34.000Z</time>
    </trkpt>
    <trkpt lat="59.0991711617" lon="30.0256562233">
        <ele>0.0</ele>
        <time>2026-04-25T17:18:37.000Z</time>
    </trkpt>
    <trkpt lat="59.0991282463" lon="30.0255918503">
        <ele>0.0</ele>
        <time>2026-04-25T17:18:39.000Z</time>
    </trkpt>
    <trkpt lat="59.0991067886" lon="30.0255489349">
        <ele>0.0</ele>
        <time>2026-04-25T17:18:42.000Z</time>
    </trkpt>
    <trkpt lat="59.099085331" lon="30.0255060196">
        <ele>0.0</ele>
        <time>2026-04-25T17:18:44.000Z</time>
    </trkpt>
    <trkpt lat="59.099085331" lon="30.0254416466">
        <ele>0.0</ele>
        <time>2026-04-25T17:18:47.000Z</time>
    </trkpt>
    <trkpt lat="59.099085331" lon="30.0253772736">
        <ele>0.0</ele>
        <time>2026-04-25T17:18:49.000Z</time>
    </trkpt>
    <trkpt lat="59.0990638733" lon="30.0253558159">
        <ele>0.0</ele>
        <time>2026-04-25T17:18:52.000Z</time>
    </trkpt>
    <trkpt lat="59.0990638733" lon="30.0253343582">
        <ele>0.0</ele>
        <time>2026-04-25T17:18:54.000Z</time>
    </trkpt>
    <trkpt lat="59.0990638733" lon="30.0253343582">
        <ele>0.0</ele>
        <time>2026-04-25T17:18:57.000Z</time>
    </trkpt>
    <trkpt lat="59.0990638733" lon="30.0253343582">
        <ele>0.0</ele>
        <time>2026-04-25T17:18:59.000Z</time>
    </trkpt>
    <trkpt lat="59.0990638733" lon="30.0252914429">
        <ele>0.0</ele>
        <time>2026-04-25T17:19:02.000Z</time>
    </trkpt>
    <trkpt lat="59.0990424156" lon="30.0251841545">
        <ele>0.0</ele>
        <time>2026-04-25T17:19:04.000Z</time>
    </trkpt>
    <trkpt lat="59.0990424156" lon="30.0251197815">
        <ele>0.0</ele>
        <time>2026-04-25T17:19:07.000Z</time>
    </trkpt>
    <trkpt lat="59.0990424156" lon="30.0250339508">
        <ele>0.0</ele>
        <time>2026-04-25T17:19:09.000Z</time>
    </trkpt>
    <trkpt lat="59.0990424156" lon="30.0249910355">
        <ele>0.0</ele>
        <time>2026-04-25T17:19:12.000Z</time>
    </trkpt>
    <trkpt lat="59.0990424156" lon="30.0249266624">
        <ele>0.0</ele>
        <time>2026-04-25T17:19:14.000Z</time>
    </trkpt>
    <trkpt lat="59.0990424156" lon="30.0249266624">
        <ele>0.0</ele>
        <time>2026-04-25T17:19:17.000Z</time>
    </trkpt>
    <trkpt lat="59.0990424156" lon="30.0249266624">
        <ele>0.0</ele>
        <time>2026-04-25T17:19:19.000Z</time>
    </trkpt>
    <trkpt lat="59.0990209579" lon="30.0248622894">
        <ele>0.0</ele>
        <time>2026-04-25T17:19:22.000Z</time>
    </trkpt>
    <trkpt lat="59.0989995003" lon="30.0247979164">
        <ele>0.0</ele>
        <time>2026-04-25T17:19:24.000Z</time>
    </trkpt>
    <trkpt lat="59.0989995003" lon="30.0248193741">
        <ele>0.0</ele>
        <time>2026-04-25T17:19:27.000Z</time>
    </trkpt>
    <trkpt lat="59.0989995003" lon="30.0248193741">
        <ele>0.0</ele>
        <time>2026-04-25T17:19:29.000Z</time>
    </trkpt>
    <trkpt lat="59.0990209579" lon="30.0247979164">
        <ele>0.0</ele>
        <time>2026-04-25T17:19:32.000Z</time>
    </trkpt>
    <trkpt lat="59.0990209579" lon="30.0247335434">
        <ele>0.0</ele>
        <time>2026-04-25T17:19:34.000Z</time>
    </trkpt>
    <trkpt lat="59.0990209579" lon="30.0246691704">
        <ele>0.0</ele>
        <time>2026-04-25T17:19:37.000Z</time>
    </trkpt>
    <trkpt lat="59.0989995003" lon="30.024626255">
        <ele>0.0</ele>
        <time>2026-04-25T17:19:39.000Z</time>
    </trkpt>
    <trkpt lat="59.0989780426" lon="30.0246047974">
        <ele>0.0</ele>
        <time>2026-04-25T17:19:42.000Z</time>
    </trkpt>
    <trkpt lat="59.0989780426" lon="30.024497509">
        <ele>0.0</ele>
        <time>2026-04-25T17:19:44.000Z</time>
    </trkpt>
    <trkpt lat="59.0989565849" lon="30.0244545937">
        <ele>0.0</ele>
        <time>2026-04-25T17:19:47.000Z</time>
    </trkpt>
    <trkpt lat="59.0989351273" lon="30.024368763">
        <ele>0.0</ele>
        <time>2026-04-25T17:19:49.000Z</time>
    </trkpt>
    <trkpt lat="59.0989136696" lon="30.0243473053">
        <ele>0.0</ele>
        <time>2026-04-25T17:19:52.000Z</time>
    </trkpt>
    <trkpt lat="59.0989136696" lon="30.0243473053">
        <ele>0.0</ele>
        <time>2026-04-25T17:19:54.000Z</time>
    </trkpt>
    <trkpt lat="59.0989351273" lon="30.0243258476">
        <ele>0.0</ele>
        <time>2026-04-25T17:19:57.000Z</time>
    </trkpt>
    <trkpt lat="59.0988922119" lon="30.0242614746">
        <ele>0.0</ele>
        <time>2026-04-25T17:19:59.000Z</time>
    </trkpt>
    <trkpt lat="59.0988922119" lon="30.0241971016">
        <ele>0.0</ele>
        <time>2026-04-25T17:20:02.000Z</time>
    </trkpt>
    <trkpt lat="59.0988707542" lon="30.0241971016">
        <ele>0.0</ele>
        <time>2026-04-25T17:20:04.000Z</time>
    </trkpt>
    <trkpt lat="59.0988707542" lon="30.0241971016">
        <ele>0.0</ele>
        <time>2026-04-25T17:20:07.000Z</time>
    </trkpt>
    <trkpt lat="59.0988492966" lon="30.0241327286">
        <ele>0.0</ele>
        <time>2026-04-25T17:20:09.000Z</time>
    </trkpt>
    <trkpt lat="59.0988492966" lon="30.0240468979">
        <ele>0.0</ele>
        <time>2026-04-25T17:20:12.000Z</time>
    </trkpt>
    <trkpt lat="59.0988278389" lon="30.0239610672">
        <ele>0.0</ele>
        <time>2026-04-25T17:20:14.000Z</time>
    </trkpt>
    <trkpt lat="59.0988278389" lon="30.0238966942">
        <ele>0.0</ele>
        <time>2026-04-25T17:20:17.000Z</time>
    </trkpt>
    <trkpt lat="59.0988063812" lon="30.0238323212">
        <ele>0.0</ele>
        <time>2026-04-25T17:20:19.000Z</time>
    </trkpt>
    <trkpt lat="59.0988063812" lon="30.0237894058">
        <ele>0.0</ele>
        <time>2026-04-25T17:20:22.000Z</time>
    </trkpt>
    <trkpt lat="59.0987849236" lon="30.0237464905">
        <ele>0.0</ele>
        <time>2026-04-25T17:20:24.000Z</time>
    </trkpt>
    <trkpt lat="59.0987849236" lon="30.0237464905">
        <ele>0.0</ele>
        <time>2026-04-25T17:20:27.000Z</time>
    </trkpt>
    <trkpt lat="59.0987634659" lon="30.0237464905">
        <ele>0.0</ele>
        <time>2026-04-25T17:20:29.000Z</time>
    </trkpt>
    <trkpt lat="59.0987634659" lon="30.0237464905">
        <ele>0.0</ele>
        <time>2026-04-25T17:20:32.000Z</time>
    </trkpt>
    <trkpt lat="59.0987634659" lon="30.0237464905">
        <ele>0.0</ele>
        <time>2026-04-25T17:20:34.000Z</time>
    </trkpt>
    <trkpt lat="59.0987634659" lon="30.0237464905">
        <ele>0.0</ele>
        <time>2026-04-25T17:20:37.000Z</time>
    </trkpt>
    <trkpt lat="59.0987634659" lon="30.0236606598">
        <ele>0.0</ele>
        <time>2026-04-25T17:20:39.000Z</time>
    </trkpt>
    <trkpt lat="59.0987420082" lon="30.0236177444">
        <ele>0.0</ele>
        <time>2026-04-25T17:20:42.000Z</time>
    </trkpt>
    <trkpt lat="59.0987420082" lon="30.0235533714">
        <ele>0.0</ele>
        <time>2026-04-25T17:20:44.000Z</time>
    </trkpt>
    <trkpt lat="59.0987420082" lon="30.0235319138">
        <ele>0.0</ele>
        <time>2026-04-25T17:20:47.000Z</time>
    </trkpt>
    <trkpt lat="59.0987420082" lon="30.0234889984">
        <ele>0.0</ele>
        <time>2026-04-25T17:20:49.000Z</time>
    </trkpt>
    <trkpt lat="59.0987420082" lon="30.0234889984">
        <ele>0.0</ele>
        <time>2026-04-25T17:20:52.000Z</time>
    </trkpt>
    <trkpt lat="59.0987205505" lon="30.0234675407">
        <ele>0.0</ele>
        <time>2026-04-25T17:20:54.000Z</time>
    </trkpt>
    <trkpt lat="59.0987205505" lon="30.0234031677">
        <ele>0.0</ele>
        <time>2026-04-25T17:20:57.000Z</time>
    </trkpt>
    <trkpt lat="59.0987205505" lon="30.0233387947">
        <ele>0.0</ele>
        <time>2026-04-25T17:20:59.000Z</time>
    </trkpt>
    <trkpt lat="59.0986990929" lon="30.0232744217">
        <ele>0.0</ele>
        <time>2026-04-25T17:21:02.000Z</time>
    </trkpt>
    <trkpt lat="59.0986990929" lon="30.023188591">
        <ele>0.0</ele>
        <time>2026-04-25T17:21:04.000Z</time>
    </trkpt>
    <trkpt lat="59.0986776352" lon="30.023124218">
        <ele>0.0</ele>
        <time>2026-04-25T17:21:07.000Z</time>
    </trkpt>
    <trkpt lat="59.0986776352" lon="30.023059845">
        <ele>0.0</ele>
        <time>2026-04-25T17:21:09.000Z</time>
    </trkpt>
    <trkpt lat="59.0986561775" lon="30.0230169296">
        <ele>0.0</ele>
        <time>2026-04-25T17:21:12.000Z</time>
    </trkpt>
    <trkpt lat="59.0986561775" lon="30.0229525566">
        <ele>0.0</ele>
        <time>2026-04-25T17:21:14.000Z</time>
    </trkpt>
    <trkpt lat="59.0986347198" lon="30.0229310989">
        <ele>0.0</ele>
        <time>2026-04-25T17:21:17.000Z</time>
    </trkpt>
    <trkpt lat="59.0986347198" lon="30.0228881836">
        <ele>0.0</ele>
        <time>2026-04-25T17:21:19.000Z</time>
    </trkpt>
    <trkpt lat="59.0986347198" lon="30.0228667259">
        <ele>0.0</ele>
        <time>2026-04-25T17:21:22.000Z</time>
    </trkpt>
    <trkpt lat="59.0986347198" lon="30.0228667259">
        <ele>0.0</ele>
        <time>2026-04-25T17:21:24.000Z</time>
    </trkpt>
    <trkpt lat="59.0986347198" lon="30.0228667259">
        <ele>0.0</ele>
        <time>2026-04-25T17:21:27.000Z</time>
    </trkpt>
    <trkpt lat="59.0986347198" lon="30.0228238106">
        <ele>0.0</ele>
        <time>2026-04-25T17:21:29.000Z</time>
    </trkpt>
    <trkpt lat="59.0986347198" lon="30.0227808952">
        <ele>0.0</ele>
        <time>2026-04-25T17:21:32.000Z</time>
    </trkpt>
    <trkpt lat="59.0986132622" lon="30.0226736069">
        <ele>0.0</ele>
        <time>2026-04-25T17:21:34.000Z</time>
    </trkpt>
    <trkpt lat="59.0986132622" lon="30.0225877762">
        <ele>0.0</ele>
        <time>2026-04-25T17:21:37.000Z</time>
    </trkpt>
    <trkpt lat="59.0985918045" lon="30.0225019455">
        <ele>0.0</ele>
        <time>2026-04-25T17:21:39.000Z</time>
    </trkpt>
    <trkpt lat="59.0985918045" lon="30.0224804878">
        <ele>0.0</ele>
        <time>2026-04-25T17:21:42.000Z</time>
    </trkpt>
    <trkpt lat="59.0985918045" lon="30.0224590302">
        <ele>0.0</ele>
        <time>2026-04-25T17:21:44.000Z</time>
    </trkpt>
    <trkpt lat="59.0985918045" lon="30.0224590302">
        <ele>0.0</ele>
        <time>2026-04-25T17:21:47.000Z</time>
    </trkpt>
    <trkpt lat="59.0985918045" lon="30.0224590302">
        <ele>0.0</ele>
        <time>2026-04-25T17:21:49.000Z</time>
    </trkpt>
    <trkpt lat="59.0985703468" lon="30.0224161148">
        <ele>0.0</ele>
        <time>2026-04-25T17:21:52.000Z</time>
    </trkpt>
    <trkpt lat="59.0985703468" lon="30.0223946571">
        <ele>0.0</ele>
        <time>2026-04-25T17:21:54.000Z</time>
    </trkpt>
    <trkpt lat="59.0985703468" lon="30.0223731995">
        <ele>0.0</ele>
        <time>2026-04-25T17:21:57.000Z</time>
    </trkpt>
    <trkpt lat="59.0985703468" lon="30.0224161148">
        <ele>0.0</ele>
        <time>2026-04-25T17:21:59.000Z</time>
    </trkpt>
    <trkpt lat="59.0985703468" lon="30.0224161148">
        <ele>0.0</ele>
        <time>2026-04-25T17:22:02.000Z</time>
    </trkpt>
    <trkpt lat="59.0985703468" lon="30.0224590302">
        <ele>0.0</ele>
        <time>2026-04-25T17:22:04.000Z</time>
    </trkpt>
    <trkpt lat="59.0985703468" lon="30.0224590302">
        <ele>0.0</ele>
        <time>2026-04-25T17:22:07.000Z</time>
    </trkpt>
    <trkpt lat="59.0985703468" lon="30.0224375725">
        <ele>0.0</ele>
        <time>2026-04-25T17:22:09.000Z</time>
    </trkpt>
    <trkpt lat="59.0985703468" lon="30.0223946571">
        <ele>0.0</ele>
        <time>2026-04-25T17:22:12.000Z</time>
    </trkpt>
    <trkpt lat="59.0985703468" lon="30.0223088264">
        <ele>0.0</ele>
        <time>2026-04-25T17:22:14.000Z</time>
    </trkpt>
    <trkpt lat="59.0985488892" lon="30.0222873688">
        <ele>0.0</ele>
        <time>2026-04-25T17:22:17.000Z</time>
    </trkpt>
    <trkpt lat="59.0985488892" lon="30.0222015381">
        <ele>0.0</ele>
        <time>2026-04-25T17:22:19.000Z</time>
    </trkpt>
    <trkpt lat="59.0985274315" lon="30.0221371651">
        <ele>0.0</ele>
        <time>2026-04-25T17:22:22.000Z</time>
    </trkpt>
    <trkpt lat="59.0985274315" lon="30.0221371651">
        <ele>0.0</ele>
        <time>2026-04-25T17:22:24.000Z</time>
    </trkpt>
    <trkpt lat="59.0985274315" lon="30.0221371651">
        <ele>0.0</ele>
        <time>2026-04-25T17:22:27.000Z</time>
    </trkpt>
    <trkpt lat="59.0985274315" lon="30.0221371651">
        <ele>0.0</ele>
        <time>2026-04-25T17:22:29.000Z</time>
    </trkpt>
    <trkpt lat="59.0985274315" lon="30.0221157074">
        <ele>0.0</ele>
        <time>2026-04-25T17:22:32.000Z</time>
    </trkpt>
    <trkpt lat="59.0985059738" lon="30.022008419">
        <ele>0.0</ele>
        <time>2026-04-25T17:22:34.000Z</time>
    </trkpt>
    <trkpt lat="59.0984845161" lon="30.0219655037">
        <ele>0.0</ele>
        <time>2026-04-25T17:22:37.000Z</time>
    </trkpt>
    <trkpt lat="59.0984845161" lon="30.0219225883">
        <ele>0.0</ele>
        <time>2026-04-25T17:22:39.000Z</time>
    </trkpt>
    <trkpt lat="59.0984630585" lon="30.021879673">
        <ele>0.0</ele>
        <time>2026-04-25T17:22:42.000Z</time>
    </trkpt>
    <trkpt lat="59.0984630585" lon="30.0218582153">
        <ele>0.0</ele>
        <time>2026-04-25T17:22:44.000Z</time>
    </trkpt>
    <trkpt lat="59.0984630585" lon="30.0218582153">
        <ele>0.0</ele>
        <time>2026-04-25T17:22:47.000Z</time>
    </trkpt>
    <trkpt lat="59.0984630585" lon="30.0217723846">
        <ele>0.0</ele>
        <time>2026-04-25T17:22:49.000Z</time>
    </trkpt>
    <trkpt lat="59.0984630585" lon="30.0217294693">
        <ele>0.0</ele>
        <time>2026-04-25T17:22:52.000Z</time>
    </trkpt>
    <trkpt lat="59.0984416008" lon="30.0217080116">
        <ele>0.0</ele>
        <time>2026-04-25T17:22:54.000Z</time>
    </trkpt>
    <trkpt lat="59.0984201431" lon="30.0216650963">
        <ele>0.0</ele>
        <time>2026-04-25T17:22:57.000Z</time>
    </trkpt>
    <trkpt lat="59.0984201431" lon="30.0215792656">
        <ele>0.0</ele>
        <time>2026-04-25T17:22:59.000Z</time>
    </trkpt>
    <trkpt lat="59.0984201431" lon="30.0215792656">
        <ele>0.0</ele>
        <time>2026-04-25T17:23:02.000Z</time>
    </trkpt>
    <trkpt lat="59.0984201431" lon="30.0215792656">
        <ele>0.0</ele>
        <time>2026-04-25T17:23:04.000Z</time>
    </trkpt>
    <trkpt lat="59.0984201431" lon="30.0215363503">
        <ele>0.0</ele>
        <time>2026-04-25T17:23:07.000Z</time>
    </trkpt>
    <trkpt lat="59.0983986855" lon="30.0214719772">
        <ele>0.0</ele>
        <time>2026-04-25T17:23:09.000Z</time>
    </trkpt>
    <trkpt lat="59.0983772278" lon="30.0214076042">
        <ele>0.0</ele>
        <time>2026-04-25T17:23:12.000Z</time>
    </trkpt>
    <trkpt lat="59.0983557701" lon="30.0213432312">
        <ele>0.0</ele>
        <time>2026-04-25T17:23:14.000Z</time>
    </trkpt>
    <trkpt lat="59.0983557701" lon="30.0212788582">
        <ele>0.0</ele>
        <time>2026-04-25T17:23:17.000Z</time>
    </trkpt>
    <trkpt lat="59.0983343124" lon="30.0212359428">
        <ele>0.0</ele>
        <time>2026-04-25T17:23:19.000Z</time>
    </trkpt>
    <trkpt lat="59.0983343124" lon="30.0211715698">
        <ele>0.0</ele>
        <time>2026-04-25T17:23:22.000Z</time>
    </trkpt>
    <trkpt lat="59.0983343124" lon="30.0211071968">
        <ele>0.0</ele>
        <time>2026-04-25T17:23:24.000Z</time>
    </trkpt>
    <trkpt lat="59.0983343124" lon="30.0210642815">
        <ele>0.0</ele>
        <time>2026-04-25T17:23:27.000Z</time>
    </trkpt>
    <trkpt lat="59.0983343124" lon="30.0209999084">
        <ele>0.0</ele>
        <time>2026-04-25T17:23:29.000Z</time>
    </trkpt>
    <trkpt lat="59.0983128548" lon="30.0209784508">
        <ele>0.0</ele>
        <time>2026-04-25T17:23:32.000Z</time>
    </trkpt>
    <trkpt lat="59.0983128548" lon="30.0209569931">
        <ele>0.0</ele>
        <time>2026-04-25T17:23:34.000Z</time>
    </trkpt>
    <trkpt lat="59.0982913971" lon="30.0209140778">
        <ele>0.0</ele>
        <time>2026-04-25T17:23:37.000Z</time>
    </trkpt>
    <trkpt lat="59.0982913971" lon="30.0208926201">
        <ele>0.0</ele>
        <time>2026-04-25T17:23:39.000Z</time>
    </trkpt>
    <trkpt lat="59.0982913971" lon="30.0208497047">
        <ele>0.0</ele>
        <time>2026-04-25T17:23:42.000Z</time>
    </trkpt>
    <trkpt lat="59.0982913971" lon="30.0208067894">
        <ele>0.0</ele>
        <time>2026-04-25T17:23:44.000Z</time>
    </trkpt>
    <trkpt lat="59.0982913971" lon="30.0208067894">
        <ele>0.0</ele>
        <time>2026-04-25T17:23:47.000Z</time>
    </trkpt>
    <trkpt lat="59.0982913971" lon="30.0207638741">
        <ele>0.0</ele>
        <time>2026-04-25T17:23:49.000Z</time>
    </trkpt>
    <trkpt lat="59.0982913971" lon="30.0207424164">
        <ele>0.0</ele>
        <time>2026-04-25T17:23:52.000Z</time>
    </trkpt>
    <trkpt lat="59.0982699394" lon="30.0206780434">
        <ele>0.0</ele>
        <time>2026-04-25T17:23:54.000Z</time>
    </trkpt>
    <trkpt lat="59.0982484818" lon="30.0205922127">
        <ele>0.0</ele>
        <time>2026-04-25T17:23:57.000Z</time>
    </trkpt>
    <trkpt lat="59.0982484818" lon="30.0205492973">
        <ele>0.0</ele>
        <time>2026-04-25T17:23:59.000Z</time>
    </trkpt>
    <trkpt lat="59.0982484818" lon="30.0205278397">
        <ele>0.0</ele>
        <time>2026-04-25T17:24:02.000Z</time>
    </trkpt>
    <trkpt lat="59.0982270241" lon="30.0204205513">
        <ele>0.0</ele>
        <time>2026-04-25T17:24:04.000Z</time>
    </trkpt>
    <trkpt lat="59.0982055664" lon="30.0203990936">
        <ele>0.0</ele>
        <time>2026-04-25T17:24:07.000Z</time>
    </trkpt>
    <trkpt lat="59.0982055664" lon="30.0203990936">
        <ele>0.0</ele>
        <time>2026-04-25T17:24:09.000Z</time>
    </trkpt>
    <trkpt lat="59.0982055664" lon="30.020377636">
        <ele>0.0</ele>
        <time>2026-04-25T17:24:12.000Z</time>
    </trkpt>
    <trkpt lat="59.0981841087" lon="30.0202918053">
        <ele>0.0</ele>
        <time>2026-04-25T17:24:14.000Z</time>
    </trkpt>
    <trkpt lat="59.0981841087" lon="30.0202488899">
        <ele>0.0</ele>
        <time>2026-04-25T17:24:17.000Z</time>
    </trkpt>
    <trkpt lat="59.0981841087" lon="30.0202059746">
        <ele>0.0</ele>
        <time>2026-04-25T17:24:19.000Z</time>
    </trkpt>
    <trkpt lat="59.0981841087" lon="30.0201630592">
        <ele>0.0</ele>
        <time>2026-04-25T17:24:22.000Z</time>
    </trkpt>
    <trkpt lat="59.0981841087" lon="30.0201416016">
        <ele>0.0</ele>
        <time>2026-04-25T17:24:24.000Z</time>
    </trkpt>
    <trkpt lat="59.0981841087" lon="30.0201416016">
        <ele>0.0</ele>
        <time>2026-04-25T17:24:27.000Z</time>
    </trkpt>
    <trkpt lat="59.0981626511" lon="30.0200557709">
        <ele>0.0</ele>
        <time>2026-04-25T17:24:29.000Z</time>
    </trkpt>
    <trkpt lat="59.0981626511" lon="30.0199913979">
        <ele>0.0</ele>
        <time>2026-04-25T17:24:32.000Z</time>
    </trkpt>
    <trkpt lat="59.0981411934" lon="30.0199699402">
        <ele>0.0</ele>
        <time>2026-04-25T17:24:34.000Z</time>
    </trkpt>
    <trkpt lat="59.0981411934" lon="30.0199484825">
        <ele>0.0</ele>
        <time>2026-04-25T17:24:37.000Z</time>
    </trkpt>
    <trkpt lat="59.0981411934" lon="30.0199484825">
        <ele>0.0</ele>
        <time>2026-04-25T17:24:39.000Z</time>
    </trkpt>
    <trkpt lat="59.0981411934" lon="30.0199484825">
        <ele>0.0</ele>
        <time>2026-04-25T17:24:42.000Z</time>
    </trkpt>
    <trkpt lat="59.0981411934" lon="30.0199270248">
        <ele>0.0</ele>
        <time>2026-04-25T17:24:44.000Z</time>
    </trkpt>
    <trkpt lat="59.0981197357" lon="30.0198626518">
        <ele>0.0</ele>
        <time>2026-04-25T17:24:47.000Z</time>
    </trkpt>
    <trkpt lat="59.098098278" lon="30.0197768211">
        <ele>0.0</ele>
        <time>2026-04-25T17:24:49.000Z</time>
    </trkpt>
    <trkpt lat="59.098098278" lon="30.0197553635">
        <ele>0.0</ele>
        <time>2026-04-25T17:24:52.000Z</time>
    </trkpt>
    <trkpt lat="59.098098278" lon="30.0196909904">
        <ele>0.0</ele>
        <time>2026-04-25T17:24:54.000Z</time>
    </trkpt>
    <trkpt lat="59.0980768204" lon="30.0196695328">
        <ele>0.0</ele>
        <time>2026-04-25T17:24:57.000Z</time>
    </trkpt>
    <trkpt lat="59.0980768204" lon="30.0195837021">
        <ele>0.0</ele>
        <time>2026-04-25T17:24:59.000Z</time>
    </trkpt>
    <trkpt lat="59.0980553627" lon="30.0195622444">
        <ele>0.0</ele>
        <time>2026-04-25T17:25:02.000Z</time>
    </trkpt>
    <trkpt lat="59.098033905" lon="30.0194978714">
        <ele>0.0</ele>
        <time>2026-04-25T17:25:07.000Z</time>
    </trkpt>
    <trkpt lat="59.098033905" lon="30.0195193291">
        <ele>0.0</ele>
        <time>2026-04-25T17:25:09.000Z</time>
    </trkpt>
    <trkpt lat="59.098033905" lon="30.0195193291">
        <ele>0.0</ele>
        <time>2026-04-25T17:25:12.000Z</time>
    </trkpt>
    <trkpt lat="59.0980124474" lon="30.0194764137">
        <ele>0.0</ele>
        <time>2026-04-25T17:25:14.000Z</time>
    </trkpt>
    <trkpt lat="59.0980124474" lon="30.0194764137">
        <ele>0.0</ele>
        <time>2026-04-25T17:25:17.000Z</time>
    </trkpt>
    <trkpt lat="59.0980124474" lon="30.0194334984">
        <ele>0.0</ele>
        <time>2026-04-25T17:25:19.000Z</time>
    </trkpt>
    <trkpt lat="59.0980124474" lon="30.0194120407">
        <ele>0.0</ele>
        <time>2026-04-25T17:25:22.000Z</time>
    </trkpt>
    <trkpt lat="59.0979909897" lon="30.01932621">
        <ele>0.0</ele>
        <time>2026-04-25T17:25:24.000Z</time>
    </trkpt>
    <trkpt lat="59.0979909897" lon="30.0193047523">
        <ele>0.0</ele>
        <time>2026-04-25T17:25:27.000Z</time>
    </trkpt>
    <trkpt lat="59.0979909897" lon="30.0193047523">
        <ele>0.0</ele>
        <time>2026-04-25T17:25:29.000Z</time>
    </trkpt>
    <trkpt lat="59.0979909897" lon="30.0192189217">
        <ele>0.0</ele>
        <time>2026-04-25T17:25:32.000Z</time>
    </trkpt>
    <trkpt lat="59.097969532" lon="30.0191545486">
        <ele>0.0</ele>
        <time>2026-04-25T17:25:34.000Z</time>
    </trkpt>
    <trkpt lat="59.097969532" lon="30.0190901756">
        <ele>0.0</ele>
        <time>2026-04-25T17:25:37.000Z</time>
    </trkpt>
    <trkpt lat="59.0979480743" lon="30.019068718">
        <ele>0.0</ele>
        <time>2026-04-25T17:25:39.000Z</time>
    </trkpt>
    <trkpt lat="59.0979480743" lon="30.0190472603">
        <ele>0.0</ele>
        <time>2026-04-25T17:25:42.000Z</time>
    </trkpt>
    <trkpt lat="59.0979480743" lon="30.0190258026">
        <ele>0.0</ele>
        <time>2026-04-25T17:25:44.000Z</time>
    </trkpt>
    <trkpt lat="59.0979480743" lon="30.0189828873">
        <ele>0.0</ele>
        <time>2026-04-25T17:25:47.000Z</time>
    </trkpt>
    <trkpt lat="59.0979266167" lon="30.0189399719">
        <ele>0.0</ele>
        <time>2026-04-25T17:25:49.000Z</time>
    </trkpt>
    <trkpt lat="59.0979266167" lon="30.0188970566">
        <ele>0.0</ele>
        <time>2026-04-25T17:25:52.000Z</time>
    </trkpt>
    <trkpt lat="59.0979266167" lon="30.0188326836">
        <ele>0.0</ele>
        <time>2026-04-25T17:25:54.000Z</time>
    </trkpt>
    <trkpt lat="59.097905159" lon="30.0187897682">
        <ele>0.0</ele>
        <time>2026-04-25T17:25:57.000Z</time>
    </trkpt>
    <trkpt lat="59.097905159" lon="30.0187253952">
        <ele>0.0</ele>
        <time>2026-04-25T17:25:59.000Z</time>
    </trkpt>
    <trkpt lat="59.097905159" lon="30.0187253952">
        <ele>0.0</ele>
        <time>2026-04-25T17:26:02.000Z</time>
    </trkpt>
    <trkpt lat="59.097905159" lon="30.0187253952">
        <ele>0.0</ele>
        <time>2026-04-25T17:26:04.000Z</time>
    </trkpt>
    <trkpt lat="59.097905159" lon="30.0187253952">
        <ele>0.0</ele>
        <time>2026-04-25T17:26:07.000Z</time>
    </trkpt>
    <trkpt lat="59.097905159" lon="30.0187253952">
        <ele>0.0</ele>
        <time>2026-04-25T17:26:09.000Z</time>
    </trkpt>
    <trkpt lat="59.097905159" lon="30.0186610222">
        <ele>0.0</ele>
        <time>2026-04-25T17:26:12.000Z</time>
    </trkpt>
    <trkpt lat="59.097905159" lon="30.0185751915">
        <ele>0.0</ele>
        <time>2026-04-25T17:26:14.000Z</time>
    </trkpt>
    <trkpt lat="59.0978837013" lon="30.0185108185">
        <ele>0.0</ele>
        <time>2026-04-25T17:26:17.000Z</time>
    </trkpt>
    <trkpt lat="59.0978837013" lon="30.0184249878">
        <ele>0.0</ele>
        <time>2026-04-25T17:26:19.000Z</time>
    </trkpt>
    <trkpt lat="59.0978622437" lon="30.0183606148">
        <ele>0.0</ele>
        <time>2026-04-25T17:26:22.000Z</time>
    </trkpt>
    <trkpt lat="59.0978622437" lon="30.0182962418">
        <ele>0.0</ele>
        <time>2026-04-25T17:26:24.000Z</time>
    </trkpt>
    <trkpt lat="59.0978622437" lon="30.0182318687">
        <ele>0.0</ele>
        <time>2026-04-25T17:26:27.000Z</time>
    </trkpt>
    <trkpt lat="59.097840786" lon="30.0181889534">
        <ele>0.0</ele>
        <time>2026-04-25T17:26:29.000Z</time>
    </trkpt>
    <trkpt lat="59.097840786" lon="30.0181674957">
        <ele>0.0</ele>
        <time>2026-04-25T17:26:32.000Z</time>
    </trkpt>
    <trkpt lat="59.097840786" lon="30.0181460381">
        <ele>0.0</ele>
        <time>2026-04-25T17:26:34.000Z</time>
    </trkpt>
    <trkpt lat="59.097840786" lon="30.0181031227">
        <ele>0.0</ele>
        <time>2026-04-25T17:26:37.000Z</time>
    </trkpt>
    <trkpt lat="59.097840786" lon="30.0180602074">
        <ele>0.0</ele>
        <time>2026-04-25T17:26:39.000Z</time>
    </trkpt>
    <trkpt lat="59.0978193283" lon="30.0180602074">
        <ele>0.0</ele>
        <time>2026-04-25T17:26:42.000Z</time>
    </trkpt>
    <trkpt lat="59.0977978706" lon="30.0179958344">
        <ele>0.0</ele>
        <time>2026-04-25T17:26:44.000Z</time>
    </trkpt>
    <trkpt lat="59.0977978706" lon="30.017952919">
        <ele>0.0</ele>
        <time>2026-04-25T17:26:47.000Z</time>
    </trkpt>
    <trkpt lat="59.0977978706" lon="30.0179100037">
        <ele>0.0</ele>
        <time>2026-04-25T17:26:49.000Z</time>
    </trkpt>
    <trkpt lat="59.0977978706" lon="30.017888546">
        <ele>0.0</ele>
        <time>2026-04-25T17:26:52.000Z</time>
    </trkpt>
    <trkpt lat="59.0977978706" lon="30.0178670883">
        <ele>0.0</ele>
        <time>2026-04-25T17:26:54.000Z</time>
    </trkpt>
    <trkpt lat="59.097776413" lon="30.0178456306">
        <ele>0.0</ele>
        <time>2026-04-25T17:26:57.000Z</time>
    </trkpt>
    <trkpt lat="59.097776413" lon="30.0178027153">
        <ele>0.0</ele>
        <time>2026-04-25T17:26:59.000Z</time>
    </trkpt>
    <trkpt lat="59.0977549553" lon="30.0177598">
        <ele>0.0</ele>
        <time>2026-04-25T17:27:02.000Z</time>
    </trkpt>
    <trkpt lat="59.0977334976" lon="30.0176739693">
        <ele>0.0</ele>
        <time>2026-04-25T17:27:04.000Z</time>
    </trkpt>
    <trkpt lat="59.0977334976" lon="30.0176310539">
        <ele>0.0</ele>
        <time>2026-04-25T17:27:07.000Z</time>
    </trkpt>
    <trkpt lat="59.0977120399" lon="30.0175881386">
        <ele>0.0</ele>
        <time>2026-04-25T17:27:09.000Z</time>
    </trkpt>
    <trkpt lat="59.0977120399" lon="30.0175452232">
        <ele>0.0</ele>
        <time>2026-04-25T17:27:12.000Z</time>
    </trkpt>
    <trkpt lat="59.0976905823" lon="30.0174808502">
        <ele>0.0</ele>
        <time>2026-04-25T17:27:14.000Z</time>
    </trkpt>
    <trkpt lat="59.0976905823" lon="30.0174379349">
        <ele>0.0</ele>
        <time>2026-04-25T17:27:17.000Z</time>
    </trkpt>
    <trkpt lat="59.0976905823" lon="30.0173735619">
        <ele>0.0</ele>
        <time>2026-04-25T17:27:19.000Z</time>
    </trkpt>
    <trkpt lat="59.0976905823" lon="30.0173521042">
        <ele>0.0</ele>
        <time>2026-04-25T17:27:22.000Z</time>
    </trkpt>
    <trkpt lat="59.0976905823" lon="30.0173091888">
        <ele>0.0</ele>
        <time>2026-04-25T17:27:24.000Z</time>
    </trkpt>
    <trkpt lat="59.0976691246" lon="30.0172877312">
        <ele>0.0</ele>
        <time>2026-04-25T17:27:27.000Z</time>
    </trkpt>
    <trkpt lat="59.0976691246" lon="30.0172448158">
        <ele>0.0</ele>
        <time>2026-04-25T17:27:29.000Z</time>
    </trkpt>
    <trkpt lat="59.0976691246" lon="30.0172448158">
        <ele>0.0</ele>
        <time>2026-04-25T17:27:32.000Z</time>
    </trkpt>
    <trkpt lat="59.0976691246" lon="30.0172448158">
        <ele>0.0</ele>
        <time>2026-04-25T17:27:34.000Z</time>
    </trkpt>
    <trkpt lat="59.0976691246" lon="30.0172448158">
        <ele>0.0</ele>
        <time>2026-04-25T17:27:37.000Z</time>
    </trkpt>
    <trkpt lat="59.0976691246" lon="30.0172448158">
        <ele>0.0</ele>
        <time>2026-04-25T17:27:39.000Z</time>
    </trkpt>
    <trkpt lat="59.0976905823" lon="30.0172662735">
        <ele>0.0</ele>
        <time>2026-04-25T17:27:42.000Z</time>
    </trkpt>
    <trkpt lat="59.0976905823" lon="30.0172662735">
        <ele>0.0</ele>
        <time>2026-04-25T17:27:44.000Z</time>
    </trkpt>
    <trkpt lat="59.0976905823" lon="30.0172448158">
        <ele>0.0</ele>
        <time>2026-04-25T17:27:47.000Z</time>
    </trkpt>
    <trkpt lat="59.0976691246" lon="30.0171589851">
        <ele>0.0</ele>
        <time>2026-04-25T17:27:49.000Z</time>
    </trkpt>
    <trkpt lat="59.0976476669" lon="30.0170946121">
        <ele>0.0</ele>
        <time>2026-04-25T17:27:52.000Z</time>
    </trkpt>
    <trkpt lat="59.0976476669" lon="30.0170087814">
        <ele>0.0</ele>
        <time>2026-04-25T17:27:54.000Z</time>
    </trkpt>
    <trkpt lat="59.0976262093" lon="30.0169658661">
        <ele>0.0</ele>
        <time>2026-04-25T17:27:57.000Z</time>
    </trkpt>
    <trkpt lat="59.0976047516" lon="30.0169229507">
        <ele>0.0</ele>
        <time>2026-04-25T17:27:59.000Z</time>
    </trkpt>
    <trkpt lat="59.0976047516" lon="30.0168800354">
        <ele>0.0</ele>
        <time>2026-04-25T17:28:02.000Z</time>
    </trkpt>
    <trkpt lat="59.0976047516" lon="30.0168156624">
        <ele>0.0</ele>
        <time>2026-04-25T17:28:04.000Z</time>
    </trkpt>
    <trkpt lat="59.0976047516" lon="30.0167512894">
        <ele>0.0</ele>
        <time>2026-04-25T17:28:07.000Z</time>
    </trkpt>
    <trkpt lat="59.0975832939" lon="30.0166869164">
        <ele>0.0</ele>
        <time>2026-04-25T17:28:09.000Z</time>
    </trkpt>
    <trkpt lat="59.0975832939" lon="30.0166654587">
        <ele>0.0</ele>
        <time>2026-04-25T17:28:12.000Z</time>
    </trkpt>
    <trkpt lat="59.0975618362" lon="30.016579628">
        <ele>0.0</ele>
        <time>2026-04-25T17:28:14.000Z</time>
    </trkpt>
    <trkpt lat="59.0975403786" lon="30.016515255">
        <ele>0.0</ele>
        <time>2026-04-25T17:28:17.000Z</time>
    </trkpt>
    <trkpt lat="59.0975189209" lon="30.016450882">
        <ele>0.0</ele>
        <time>2026-04-25T17:28:19.000Z</time>
    </trkpt>
    <trkpt lat="59.0975189209" lon="30.0164079666">
        <ele>0.0</ele>
        <time>2026-04-25T17:28:22.000Z</time>
    </trkpt>
    <trkpt lat="59.0975189209" lon="30.0163650513">
        <ele>0.0</ele>
        <time>2026-04-25T17:28:24.000Z</time>
    </trkpt>
    <trkpt lat="59.0975189209" lon="30.0163865089">
        <ele>0.0</ele>
        <time>2026-04-25T17:28:27.000Z</time>
    </trkpt>
    <trkpt lat="59.0975189209" lon="30.0163865089">
        <ele>0.0</ele>
        <time>2026-04-25T17:28:29.000Z</time>
    </trkpt>
    <trkpt lat="59.0975189209" lon="30.0163435936">
        <ele>0.0</ele>
        <time>2026-04-25T17:28:32.000Z</time>
    </trkpt>
    <trkpt lat="59.0974974632" lon="30.0163006783">
        <ele>0.0</ele>
        <time>2026-04-25T17:28:34.000Z</time>
    </trkpt>
    <trkpt lat="59.0974974632" lon="30.0162577629">
        <ele>0.0</ele>
        <time>2026-04-25T17:28:37.000Z</time>
    </trkpt>
    <trkpt lat="59.0974760056" lon="30.0161719322">
        <ele>0.0</ele>
        <time>2026-04-25T17:28:39.000Z</time>
    </trkpt>
    <trkpt lat="59.0974760056" lon="30.0161075592">
        <ele>0.0</ele>
        <time>2026-04-25T17:28:42.000Z</time>
    </trkpt>
    <trkpt lat="59.0974760056" lon="30.0161290169">
        <ele>0.0</ele>
        <time>2026-04-25T17:28:44.000Z</time>
    </trkpt>
    <trkpt lat="59.0974974632" lon="30.0161504745">
        <ele>0.0</ele>
        <time>2026-04-25T17:28:47.000Z</time>
    </trkpt>
    <trkpt lat="59.0974974632" lon="30.0161504745">
        <ele>0.0</ele>
        <time>2026-04-25T17:28:49.000Z</time>
    </trkpt>
    <trkpt lat="59.0974974632" lon="30.0161504745">
        <ele>0.0</ele>
        <time>2026-04-25T17:28:52.000Z</time>
    </trkpt>
    <trkpt lat="59.0974974632" lon="30.0161504745">
        <ele>0.0</ele>
        <time>2026-04-25T17:28:54.000Z</time>
    </trkpt>
    <trkpt lat="59.0974974632" lon="30.0161504745">
        <ele>0.0</ele>
        <time>2026-04-25T17:28:57.000Z</time>
    </trkpt>
    <trkpt lat="59.0974760056" lon="30.0160217285">
        <ele>0.0</ele>
        <time>2026-04-25T17:28:59.000Z</time>
    </trkpt>
    <trkpt lat="59.0974545479" lon="30.0159144402">
        <ele>0.0</ele>
        <time>2026-04-25T17:29:02.000Z</time>
    </trkpt>
    <trkpt lat="59.0974545479" lon="30.0158286095">
        <ele>0.0</ele>
        <time>2026-04-25T17:29:04.000Z</time>
    </trkpt>
    <trkpt lat="59.0974545479" lon="30.0157856941">
        <ele>0.0</ele>
        <time>2026-04-25T17:29:07.000Z</time>
    </trkpt>
    <trkpt lat="59.0974330902" lon="30.0157427788">
        <ele>0.0</ele>
        <time>2026-04-25T17:29:09.000Z</time>
    </trkpt>
    <trkpt lat="59.0974330902" lon="30.0156998634">
        <ele>0.0</ele>
        <time>2026-04-25T17:29:12.000Z</time>
    </trkpt>
    <trkpt lat="59.0974116325" lon="30.0156354904">
        <ele>0.0</ele>
        <time>2026-04-25T17:29:14.000Z</time>
    </trkpt>
    <trkpt lat="59.0973901749" lon="30.0156140327">
        <ele>0.0</ele>
        <time>2026-04-25T17:29:17.000Z</time>
    </trkpt>
    <trkpt lat="59.0973687172" lon="30.0155711174">
        <ele>0.0</ele>
        <time>2026-04-25T17:29:19.000Z</time>
    </trkpt>
    <trkpt lat="59.0973687172" lon="30.0155496597">
        <ele>0.0</ele>
        <time>2026-04-25T17:29:22.000Z</time>
    </trkpt>
    <trkpt lat="59.0973472595" lon="30.0155067444">
        <ele>0.0</ele>
        <time>2026-04-25T17:29:24.000Z</time>
    </trkpt>
    <trkpt lat="59.0973472595" lon="30.015463829">
        <ele>0.0</ele>
        <time>2026-04-25T17:29:27.000Z</time>
    </trkpt>
    <trkpt lat="59.0973472595" lon="30.0154209137">
        <ele>0.0</ele>
        <time>2026-04-25T17:29:29.000Z</time>
    </trkpt>
    <trkpt lat="59.0973258018" lon="30.0153779984">
        <ele>0.0</ele>
        <time>2026-04-25T17:29:32.000Z</time>
    </trkpt>
    <trkpt lat="59.0973043442" lon="30.0153136253">
        <ele>0.0</ele>
        <time>2026-04-25T17:29:34.000Z</time>
    </trkpt>
    <trkpt lat="59.0973043442" lon="30.01527071">
        <ele>0.0</ele>
        <time>2026-04-25T17:29:37.000Z</time>
    </trkpt>
    <trkpt lat="59.0972828865" lon="30.015206337">
        <ele>0.0</ele>
        <time>2026-04-25T17:29:39.000Z</time>
    </trkpt>
    <trkpt lat="59.0972828865" lon="30.0151848793">
        <ele>0.0</ele>
        <time>2026-04-25T17:29:42.000Z</time>
    </trkpt>
    <trkpt lat="59.0972614288" lon="30.0151634216">
        <ele>0.0</ele>
        <time>2026-04-25T17:29:44.000Z</time>
    </trkpt>
    <trkpt lat="59.0972828865" lon="30.015141964">
        <ele>0.0</ele>
        <time>2026-04-25T17:29:47.000Z</time>
    </trkpt>
    <trkpt lat="59.0972614288" lon="30.0150775909">
        <ele>0.0</ele>
        <time>2026-04-25T17:29:49.000Z</time>
    </trkpt>
    <trkpt lat="59.0972614288" lon="30.0150346756">
        <ele>0.0</ele>
        <time>2026-04-25T17:29:52.000Z</time>
    </trkpt>
    <trkpt lat="59.0972399712" lon="30.0149703026">
        <ele>0.0</ele>
        <time>2026-04-25T17:29:54.000Z</time>
    </trkpt>
    <trkpt lat="59.0972399712" lon="30.0149273872">
        <ele>0.0</ele>
        <time>2026-04-25T17:29:57.000Z</time>
    </trkpt>
    <trkpt lat="59.0972399712" lon="30.0148844719">
        <ele>0.0</ele>
        <time>2026-04-25T17:29:59.000Z</time>
    </trkpt>
    <trkpt lat="59.0972185135" lon="30.0148415565">
        <ele>0.0</ele>
        <time>2026-04-25T17:30:02.000Z</time>
    </trkpt>
    <trkpt lat="59.0972185135" lon="30.0147771835">
        <ele>0.0</ele>
        <time>2026-04-25T17:30:04.000Z</time>
    </trkpt>
    <trkpt lat="59.0971970558" lon="30.0147342682">
        <ele>0.0</ele>
        <time>2026-04-25T17:30:07.000Z</time>
    </trkpt>
    <trkpt lat="59.0971970558" lon="30.0147128105">
        <ele>0.0</ele>
        <time>2026-04-25T17:30:09.000Z</time>
    </trkpt>
    <trkpt lat="59.0971970558" lon="30.0147128105">
        <ele>0.0</ele>
        <time>2026-04-25T17:30:12.000Z</time>
    </trkpt>
    <trkpt lat="59.0971970558" lon="30.0146913528">
        <ele>0.0</ele>
        <time>2026-04-25T17:30:14.000Z</time>
    </trkpt>
    <trkpt lat="59.0971970558" lon="30.0146484375">
        <ele>0.0</ele>
        <time>2026-04-25T17:30:17.000Z</time>
    </trkpt>
    <trkpt lat="59.0971970558" lon="30.0146055222">
        <ele>0.0</ele>
        <time>2026-04-25T17:30:19.000Z</time>
    </trkpt>
    <trkpt lat="59.0971755981" lon="30.0145626068">
        <ele>0.0</ele>
        <time>2026-04-25T17:30:22.000Z</time>
    </trkpt>
    <trkpt lat="59.0971541405" lon="30.0144767761">
        <ele>0.0</ele>
        <time>2026-04-25T17:30:24.000Z</time>
    </trkpt>
    <trkpt lat="59.0971541405" lon="30.0144553185">
        <ele>0.0</ele>
        <time>2026-04-25T17:30:27.000Z</time>
    </trkpt>
    <trkpt lat="59.0971541405" lon="30.0143480301">
        <ele>0.0</ele>
        <time>2026-04-25T17:30:29.000Z</time>
    </trkpt>
    <trkpt lat="59.0971541405" lon="30.0143051147">
        <ele>0.0</ele>
        <time>2026-04-25T17:30:32.000Z</time>
    </trkpt>
    <trkpt lat="59.0971541405" lon="30.0142407417">
        <ele>0.0</ele>
        <time>2026-04-25T17:30:34.000Z</time>
    </trkpt>
    <trkpt lat="59.0971326828" lon="30.0141978264">
        <ele>0.0</ele>
        <time>2026-04-25T17:30:37.000Z</time>
    </trkpt>
    <trkpt lat="59.0971112251" lon="30.0141334534">
        <ele>0.0</ele>
        <time>2026-04-25T17:30:39.000Z</time>
    </trkpt>
    <trkpt lat="59.0971112251" lon="30.014090538">
        <ele>0.0</ele>
        <time>2026-04-25T17:30:42.000Z</time>
    </trkpt>
    <trkpt lat="59.0971112251" lon="30.0140476227">
        <ele>0.0</ele>
        <time>2026-04-25T17:30:44.000Z</time>
    </trkpt>
    <trkpt lat="59.0971112251" lon="30.014026165">
        <ele>0.0</ele>
        <time>2026-04-25T17:30:47.000Z</time>
    </trkpt>
    <trkpt lat="59.0971112251" lon="30.0139832497">
        <ele>0.0</ele>
        <time>2026-04-25T17:30:49.000Z</time>
    </trkpt>
    <trkpt lat="59.0970897675" lon="30.013961792">
        <ele>0.0</ele>
        <time>2026-04-25T17:30:52.000Z</time>
    </trkpt>
    <trkpt lat="59.0970897675" lon="30.0139188766">
        <ele>0.0</ele>
        <time>2026-04-25T17:30:54.000Z</time>
    </trkpt>
    <trkpt lat="59.0970683098" lon="30.013897419">
        <ele>0.0</ele>
        <time>2026-04-25T17:30:57.000Z</time>
    </trkpt>
    <trkpt lat="59.0970683098" lon="30.013897419">
        <ele>0.0</ele>
        <time>2026-04-25T17:30:59.000Z</time>
    </trkpt>
    <trkpt lat="59.0970683098" lon="30.013897419">
        <ele>0.0</ele>
        <time>2026-04-25T17:31:02.000Z</time>
    </trkpt>
    <trkpt lat="59.0970253944" lon="30.013833046">
        <ele>0.0</ele>
        <time>2026-04-25T17:31:04.000Z</time>
    </trkpt>
    <trkpt lat="59.0970253944" lon="30.0137472153">
        <ele>0.0</ele>
        <time>2026-04-25T17:31:07.000Z</time>
    </trkpt>
    <trkpt lat="59.0970039368" lon="30.0136613846">
        <ele>0.0</ele>
        <time>2026-04-25T17:31:09.000Z</time>
    </trkpt>
    <trkpt lat="59.0970039368" lon="30.0135970116">
        <ele>0.0</ele>
        <time>2026-04-25T17:31:12.000Z</time>
    </trkpt>
    <trkpt lat="59.0969824791" lon="30.0135326385">
        <ele>0.0</ele>
        <time>2026-04-25T17:31:14.000Z</time>
    </trkpt>
    <trkpt lat="59.0969824791" lon="30.0134897232">
        <ele>0.0</ele>
        <time>2026-04-25T17:31:17.000Z</time>
    </trkpt>
    <trkpt lat="59.0969824791" lon="30.0134897232">
        <ele>0.0</ele>
        <time>2026-04-25T17:31:19.000Z</time>
    </trkpt>
    <trkpt lat="59.0969824791" lon="30.0134897232">
        <ele>0.0</ele>
        <time>2026-04-25T17:31:22.000Z</time>
    </trkpt>
    <trkpt lat="59.0969824791" lon="30.0134897232">
        <ele>0.0</ele>
        <time>2026-04-25T17:31:24.000Z</time>
    </trkpt>
    <trkpt lat="59.0969824791" lon="30.0134682655">
        <ele>0.0</ele>
        <time>2026-04-25T17:31:27.000Z</time>
    </trkpt>
    <trkpt lat="59.0969824791" lon="30.0134253502">
        <ele>0.0</ele>
        <time>2026-04-25T17:31:29.000Z</time>
    </trkpt>
    <trkpt lat="59.0969824791" lon="30.0134038925">
        <ele>0.0</ele>
        <time>2026-04-25T17:31:32.000Z</time>
    </trkpt>
    <trkpt lat="59.0969610214" lon="30.0133180618">
        <ele>0.0</ele>
        <time>2026-04-25T17:31:34.000Z</time>
    </trkpt>
    <trkpt lat="59.0969395638" lon="30.0132322311">
        <ele>0.0</ele>
        <time>2026-04-25T17:31:37.000Z</time>
    </trkpt>
    <trkpt lat="59.0969181061" lon="30.0131249428">
        <ele>0.0</ele>
        <time>2026-04-25T17:31:39.000Z</time>
    </trkpt>
    <trkpt lat="59.0968966484" lon="30.0130605698">
        <ele>0.0</ele>
        <time>2026-04-25T17:31:42.000Z</time>
    </trkpt>
    <trkpt lat="59.0968751907" lon="30.0129747391">
        <ele>0.0</ele>
        <time>2026-04-25T17:31:44.000Z</time>
    </trkpt>
    <trkpt lat="59.0968751907" lon="30.0129103661">
        <ele>0.0</ele>
        <time>2026-04-25T17:31:47.000Z</time>
    </trkpt>
    <trkpt lat="59.0968537331" lon="30.0128245354">
        <ele>0.0</ele>
        <time>2026-04-25T17:31:49.000Z</time>
    </trkpt>
    <trkpt lat="59.0968322754" lon="30.0127601624">
        <ele>0.0</ele>
        <time>2026-04-25T17:31:52.000Z</time>
    </trkpt>
    <trkpt lat="59.0968322754" lon="30.0126957893">
        <ele>0.0</ele>
        <time>2026-04-25T17:31:54.000Z</time>
    </trkpt>
    <trkpt lat="59.0968322754" lon="30.0126743317">
        <ele>0.0</ele>
        <time>2026-04-25T17:31:57.000Z</time>
    </trkpt>
    <trkpt lat="59.0968108177" lon="30.012588501">
        <ele>0.0</ele>
        <time>2026-04-25T17:31:59.000Z</time>
    </trkpt>
    <trkpt lat="59.0968108177" lon="30.0125455856">
        <ele>0.0</ele>
        <time>2026-04-25T17:32:02.000Z</time>
    </trkpt>
    <trkpt lat="59.09678936" lon="30.0124597549">
        <ele>0.0</ele>
        <time>2026-04-25T17:32:04.000Z</time>
    </trkpt>
    <trkpt lat="59.0967679024" lon="30.0123953819">
        <ele>0.0</ele>
        <time>2026-04-25T17:32:07.000Z</time>
    </trkpt>
    <trkpt lat="59.0967679024" lon="30.0123953819">
        <ele>0.0</ele>
        <time>2026-04-25T17:32:09.000Z</time>
    </trkpt>
    <trkpt lat="59.0967679024" lon="30.0123739243">
        <ele>0.0</ele>
        <time>2026-04-25T17:32:12.000Z</time>
    </trkpt>
    <trkpt lat="59.0967679024" lon="30.0123095512">
        <ele>0.0</ele>
        <time>2026-04-25T17:32:14.000Z</time>
    </trkpt>
    <trkpt lat="59.0967679024" lon="30.0123095512">
        <ele>0.0</ele>
        <time>2026-04-25T17:32:17.000Z</time>
    </trkpt>
    <trkpt lat="59.0967679024" lon="30.0122237206">
        <ele>0.0</ele>
        <time>2026-04-25T17:32:19.000Z</time>
    </trkpt>
    <trkpt lat="59.0967464447" lon="30.0121593475">
        <ele>0.0</ele>
        <time>2026-04-25T17:32:22.000Z</time>
    </trkpt>
    <trkpt lat="59.0967464447" lon="30.0121164322">
        <ele>0.0</ele>
        <time>2026-04-25T17:32:24.000Z</time>
    </trkpt>
    <trkpt lat="59.0967464447" lon="30.0121164322">
        <ele>0.0</ele>
        <time>2026-04-25T17:32:27.000Z</time>
    </trkpt>
    <trkpt lat="59.0967464447" lon="30.0121378899">
        <ele>0.0</ele>
        <time>2026-04-25T17:32:29.000Z</time>
    </trkpt>
    <trkpt lat="59.0967464447" lon="30.0122022629">
        <ele>0.0</ele>
        <time>2026-04-25T17:32:32.000Z</time>
    </trkpt>
    <trkpt lat="59.0967679024" lon="30.0122237206">
        <ele>0.0</ele>
        <time>2026-04-25T17:32:34.000Z</time>
    </trkpt>
    <trkpt lat="59.0967464447" lon="30.0121378899">
        <ele>0.0</ele>
        <time>2026-04-25T17:32:37.000Z</time>
    </trkpt>
    <trkpt lat="59.096724987" lon="30.0120091438">
        <ele>0.0</ele>
        <time>2026-04-25T17:32:39.000Z</time>
    </trkpt>
    <trkpt lat="59.096724987" lon="30.0119233131">
        <ele>0.0</ele>
        <time>2026-04-25T17:32:42.000Z</time>
    </trkpt>
    <trkpt lat="59.0967035294" lon="30.0118160248">
        <ele>0.0</ele>
        <time>2026-04-25T17:32:44.000Z</time>
    </trkpt>
    <trkpt lat="59.0966820717" lon="30.0117516518">
        <ele>0.0</ele>
        <time>2026-04-25T17:32:47.000Z</time>
    </trkpt>
    <trkpt lat="59.096660614" lon="30.0116658211">
        <ele>0.0</ele>
        <time>2026-04-25T17:32:49.000Z</time>
    </trkpt>
    <trkpt lat="59.096660614" lon="30.0116443634">
        <ele>0.0</ele>
        <time>2026-04-25T17:32:52.000Z</time>
    </trkpt>
    <trkpt lat="59.0966391563" lon="30.0115799904">
        <ele>0.0</ele>
        <time>2026-04-25T17:32:54.000Z</time>
    </trkpt>
    <trkpt lat="59.0966176987" lon="30.011537075">
        <ele>0.0</ele>
        <time>2026-04-25T17:32:57.000Z</time>
    </trkpt>
    <trkpt lat="59.0966176987" lon="30.011472702">
        <ele>0.0</ele>
        <time>2026-04-25T17:32:59.000Z</time>
    </trkpt>
    <trkpt lat="59.096596241" lon="30.011408329">
        <ele>0.0</ele>
        <time>2026-04-25T17:33:02.000Z</time>
    </trkpt>
    <trkpt lat="59.096596241" lon="30.0113010406">
        <ele>0.0</ele>
        <time>2026-04-25T17:33:04.000Z</time>
    </trkpt>
    <trkpt lat="59.0965747833" lon="30.0112366676">
        <ele>0.0</ele>
        <time>2026-04-25T17:33:07.000Z</time>
    </trkpt>
    <trkpt lat="59.0965533257" lon="30.0111722946">
        <ele>0.0</ele>
        <time>2026-04-25T17:33:09.000Z</time>
    </trkpt>
    <trkpt lat="59.0965533257" lon="30.0111508369">
        <ele>0.0</ele>
        <time>2026-04-25T17:33:12.000Z</time>
    </trkpt>
    <trkpt lat="59.0965533257" lon="30.0110650063">
        <ele>0.0</ele>
        <time>2026-04-25T17:33:14.000Z</time>
    </trkpt>
    <trkpt lat="59.096531868" lon="30.0110220909">
        <ele>0.0</ele>
        <time>2026-04-25T17:33:17.000Z</time>
    </trkpt>
    <trkpt lat="59.096531868" lon="30.0110435486">
        <ele>0.0</ele>
        <time>2026-04-25T17:33:19.000Z</time>
    </trkpt>
    <trkpt lat="59.096531868" lon="30.0110220909">
        <ele>0.0</ele>
        <time>2026-04-25T17:33:22.000Z</time>
    </trkpt>
    <trkpt lat="59.0965104103" lon="30.0110006332">
        <ele>0.0</ele>
        <time>2026-04-25T17:33:24.000Z</time>
    </trkpt>
    <trkpt lat="59.0965104103" lon="30.0110006332">
        <ele>0.0</ele>
        <time>2026-04-25T17:33:27.000Z</time>
    </trkpt>
    <trkpt lat="59.0965104103" lon="30.0110006332">
        <ele>0.0</ele>
        <time>2026-04-25T17:33:29.000Z</time>
    </trkpt>
    <trkpt lat="59.096531868" lon="30.0110220909">
        <ele>0.0</ele>
        <time>2026-04-25T17:33:32.000Z</time>
    </trkpt>
    <trkpt lat="59.096531868" lon="30.0110435486">
        <ele>0.0</ele>
        <time>2026-04-25T17:33:34.000Z</time>
    </trkpt>
    <trkpt lat="59.096531868" lon="30.0109791756">
        <ele>0.0</ele>
        <time>2026-04-25T17:33:37.000Z</time>
    </trkpt>
    <trkpt lat="59.0964889526" lon="30.0108718872">
        <ele>0.0</ele>
        <time>2026-04-25T17:33:39.000Z</time>
    </trkpt>
    <trkpt lat="59.0964889526" lon="30.0108289719">
        <ele>0.0</ele>
        <time>2026-04-25T17:33:42.000Z</time>
    </trkpt>
    <trkpt lat="59.0964889526" lon="30.0107860565">
        <ele>0.0</ele>
        <time>2026-04-25T17:33:44.000Z</time>
    </trkpt>
    <trkpt lat="59.0964889526" lon="30.0107860565">
        <ele>0.0</ele>
        <time>2026-04-25T17:33:47.000Z</time>
    </trkpt>
    <trkpt lat="59.0964889526" lon="30.0107860565">
        <ele>0.0</ele>
        <time>2026-04-25T17:33:49.000Z</time>
    </trkpt>
    <trkpt lat="59.0964889526" lon="30.0107860565">
        <ele>0.0</ele>
        <time>2026-04-25T17:33:52.000Z</time>
    </trkpt>
    <trkpt lat="59.0964889526" lon="30.0107002258">
        <ele>0.0</ele>
        <time>2026-04-25T17:33:54.000Z</time>
    </trkpt>
    <trkpt lat="59.0964889526" lon="30.0106143951">
        <ele>0.0</ele>
        <time>2026-04-25T17:33:57.000Z</time>
    </trkpt>
    <trkpt lat="59.096467495" lon="30.0106143951">
        <ele>0.0</ele>
        <time>2026-04-25T17:33:59.000Z</time>
    </trkpt>
    <trkpt lat="59.096467495" lon="30.0106143951">
        <ele>0.0</ele>
        <time>2026-04-25T17:34:02.000Z</time>
    </trkpt>
    <trkpt lat="59.096467495" lon="30.0105929375">
        <ele>0.0</ele>
        <time>2026-04-25T17:34:04.000Z</time>
    </trkpt>
    <trkpt lat="59.0964460373" lon="30.0105071068">
        <ele>0.0</ele>
        <time>2026-04-25T17:34:07.000Z</time>
    </trkpt>
    <trkpt lat="59.0964245796" lon="30.0104212761">
        <ele>0.0</ele>
        <time>2026-04-25T17:34:09.000Z</time>
    </trkpt>
    <trkpt lat="59.0964245796" lon="30.0103354454">
        <ele>0.0</ele>
        <time>2026-04-25T17:34:12.000Z</time>
    </trkpt>
    <trkpt lat="59.0964245796" lon="30.0102925301">
        <ele>0.0</ele>
        <time>2026-04-25T17:34:14.000Z</time>
    </trkpt>
    <trkpt lat="59.0964245796" lon="30.0102710724">
        <ele>0.0</ele>
        <time>2026-04-25T17:34:17.000Z</time>
    </trkpt>
    <trkpt lat="59.0964031219" lon="30.0101852417">
        <ele>0.0</ele>
        <time>2026-04-25T17:34:19.000Z</time>
    </trkpt>
    <trkpt lat="59.0964031219" lon="30.0101423264">
        <ele>0.0</ele>
        <time>2026-04-25T17:34:22.000Z</time>
    </trkpt>
    <trkpt lat="59.0963816643" lon="30.0100779533">
        <ele>0.0</ele>
        <time>2026-04-25T17:34:24.000Z</time>
    </trkpt>
    <trkpt lat="59.0963816643" lon="30.010099411">
        <ele>0.0</ele>
        <time>2026-04-25T17:34:27.000Z</time>
    </trkpt>
    <trkpt lat="59.0963816643" lon="30.010099411">
        <ele>0.0</ele>
        <time>2026-04-25T17:34:29.000Z</time>
    </trkpt>
    <trkpt lat="59.0963816643" lon="30.010099411">
        <ele>0.0</ele>
        <time>2026-04-25T17:34:32.000Z</time>
    </trkpt>
    <trkpt lat="59.0963816643" lon="30.010099411">
        <ele>0.0</ele>
        <time>2026-04-25T17:34:34.000Z</time>
    </trkpt>
    <trkpt lat="59.0963816643" lon="30.010099411">
        <ele>0.0</ele>
        <time>2026-04-25T17:34:37.000Z</time>
    </trkpt>
    <trkpt lat="59.0963816643" lon="30.010099411">
        <ele>0.0</ele>
        <time>2026-04-25T17:34:39.000Z</time>
    </trkpt>
    <trkpt lat="59.0963816643" lon="30.010099411">
        <ele>0.0</ele>
        <time>2026-04-25T17:34:42.000Z</time>
    </trkpt>
    <trkpt lat="59.0963816643" lon="30.010099411">
        <ele>0.0</ele>
        <time>2026-04-25T17:34:44.000Z</time>
    </trkpt>
    <trkpt lat="59.0963816643" lon="30.0100564957">
        <ele>0.0</ele>
        <time>2026-04-25T17:34:47.000Z</time>
    </trkpt>
    <trkpt lat="59.0963816643" lon="30.0099492073">
        <ele>0.0</ele>
        <time>2026-04-25T17:34:49.000Z</time>
    </trkpt>
    <trkpt lat="59.0963602066" lon="30.0098848343">
        <ele>0.0</ele>
        <time>2026-04-25T17:34:52.000Z</time>
    </trkpt>
    <trkpt lat="59.0963387489" lon="30.0097775459">
        <ele>0.0</ele>
        <time>2026-04-25T17:34:54.000Z</time>
    </trkpt>
    <trkpt lat="59.0963172913" lon="30.0097131729">
        <ele>0.0</ele>
        <time>2026-04-25T17:34:57.000Z</time>
    </trkpt>
    <trkpt lat="59.0962958336" lon="30.0096487999">
        <ele>0.0</ele>
        <time>2026-04-25T17:34:59.000Z</time>
    </trkpt>
    <trkpt lat="59.0962958336" lon="30.0096058846">
        <ele>0.0</ele>
        <time>2026-04-25T17:35:02.000Z</time>
    </trkpt>
    <trkpt lat="59.0962958336" lon="30.0095629692">
        <ele>0.0</ele>
        <time>2026-04-25T17:35:04.000Z</time>
    </trkpt>
    <trkpt lat="59.0962743759" lon="30.0094985962">
        <ele>0.0</ele>
        <time>2026-04-25T17:35:07.000Z</time>
    </trkpt>
    <trkpt lat="59.0962743759" lon="30.0094342232">
        <ele>0.0</ele>
        <time>2026-04-25T17:35:09.000Z</time>
    </trkpt>
    <trkpt lat="59.0962529182" lon="30.0093698502">
        <ele>0.0</ele>
        <time>2026-04-25T17:35:12.000Z</time>
    </trkpt>
    <trkpt lat="59.0962529182" lon="30.0093054771">
        <ele>0.0</ele>
        <time>2026-04-25T17:35:14.000Z</time>
    </trkpt>
    <trkpt lat="59.0962314606" lon="30.0092625618">
        <ele>0.0</ele>
        <time>2026-04-25T17:35:17.000Z</time>
    </trkpt>
    <trkpt lat="59.0962314606" lon="30.0092625618">
        <ele>0.0</ele>
        <time>2026-04-25T17:35:19.000Z</time>
    </trkpt>
    <trkpt lat="59.0962100029" lon="30.0091981888">
        <ele>0.0</ele>
        <time>2026-04-25T17:35:22.000Z</time>
    </trkpt>
    <trkpt lat="59.0962100029" lon="30.0091338158">
        <ele>0.0</ele>
        <time>2026-04-25T17:35:24.000Z</time>
    </trkpt>
    <trkpt lat="59.0961885452" lon="30.0090694427">
        <ele>0.0</ele>
        <time>2026-04-25T17:35:27.000Z</time>
    </trkpt>
    <trkpt lat="59.0962100029" lon="30.0090265274">
        <ele>0.0</ele>
        <time>2026-04-25T17:35:29.000Z</time>
    </trkpt>
    <trkpt lat="59.0962100029" lon="30.0090050697">
        <ele>0.0</ele>
        <time>2026-04-25T17:35:32.000Z</time>
    </trkpt>
    <trkpt lat="59.0962100029" lon="30.0089836121">
        <ele>0.0</ele>
        <time>2026-04-25T17:35:34.000Z</time>
    </trkpt>
    <trkpt lat="59.0961885452" lon="30.0089836121">
        <ele>0.0</ele>
        <time>2026-04-25T17:35:37.000Z</time>
    </trkpt>
    <trkpt lat="59.0961885452" lon="30.0088977814">
        <ele>0.0</ele>
        <time>2026-04-25T17:35:39.000Z</time>
    </trkpt>
    <trkpt lat="59.0961670876" lon="30.0088334084">
        <ele>0.0</ele>
        <time>2026-04-25T17:35:42.000Z</time>
    </trkpt>
    <trkpt lat="59.0961670876" lon="30.0087690353">
        <ele>0.0</ele>
        <time>2026-04-25T17:35:44.000Z</time>
    </trkpt>
    <trkpt lat="59.0961670876" lon="30.00872612">
        <ele>0.0</ele>
        <time>2026-04-25T17:35:47.000Z</time>
    </trkpt>
    <trkpt lat="59.0961670876" lon="30.0086832047">
        <ele>0.0</ele>
        <time>2026-04-25T17:35:49.000Z</time>
    </trkpt>
    <trkpt lat="59.0961670876" lon="30.008661747">
        <ele>0.0</ele>
        <time>2026-04-25T17:35:52.000Z</time>
    </trkpt>
    <trkpt lat="59.0961456299" lon="30.0086402893">
        <ele>0.0</ele>
        <time>2026-04-25T17:35:54.000Z</time>
    </trkpt>
    <trkpt lat="59.0961670876" lon="30.0086188316">
        <ele>0.0</ele>
        <time>2026-04-25T17:35:57.000Z</time>
    </trkpt>
    <trkpt lat="59.0961456299" lon="30.0085544586">
        <ele>0.0</ele>
        <time>2026-04-25T17:35:59.000Z</time>
    </trkpt>
    <trkpt lat="59.0961456299" lon="30.0084900856">
        <ele>0.0</ele>
        <time>2026-04-25T17:36:02.000Z</time>
    </trkpt>
    <trkpt lat="59.0961456299" lon="30.0084686279">
        <ele>0.0</ele>
        <time>2026-04-25T17:36:04.000Z</time>
    </trkpt>
    <trkpt lat="59.0961456299" lon="30.0084686279">
        <ele>0.0</ele>
        <time>2026-04-25T17:36:07.000Z</time>
    </trkpt>
    <trkpt lat="59.0961456299" lon="30.0084686279">
        <ele>0.0</ele>
        <time>2026-04-25T17:36:09.000Z</time>
    </trkpt>
    <trkpt lat="59.0961241722" lon="30.0084042549">
        <ele>0.0</ele>
        <time>2026-04-25T17:36:12.000Z</time>
    </trkpt>
    <trkpt lat="59.0961241722" lon="30.0083184242">
        <ele>0.0</ele>
        <time>2026-04-25T17:36:14.000Z</time>
    </trkpt>
    <trkpt lat="59.0961027145" lon="30.0082755089">
        <ele>0.0</ele>
        <time>2026-04-25T17:36:17.000Z</time>
    </trkpt>
    <trkpt lat="59.0960597992" lon="30.0081896782">
        <ele>0.0</ele>
        <time>2026-04-25T17:36:19.000Z</time>
    </trkpt>
    <trkpt lat="59.0960597992" lon="30.0081467628">
        <ele>0.0</ele>
        <time>2026-04-25T17:36:22.000Z</time>
    </trkpt>
    <trkpt lat="59.0960597992" lon="30.0080823898">
        <ele>0.0</ele>
        <time>2026-04-25T17:36:24.000Z</time>
    </trkpt>
    <trkpt lat="59.0960597992" lon="30.0080823898">
        <ele>0.0</ele>
        <time>2026-04-25T17:36:27.000Z</time>
    </trkpt>
    <trkpt lat="59.0960597992" lon="30.0080180168">
        <ele>0.0</ele>
        <time>2026-04-25T17:36:29.000Z</time>
    </trkpt>
    <trkpt lat="59.0960383415" lon="30.0079965591">
        <ele>0.0</ele>
        <time>2026-04-25T17:36:32.000Z</time>
    </trkpt>
    <trkpt lat="59.0960383415" lon="30.0079107285">
        <ele>0.0</ele>
        <time>2026-04-25T17:36:34.000Z</time>
    </trkpt>
    <trkpt lat="59.0960383415" lon="30.0078678131">
        <ele>0.0</ele>
        <time>2026-04-25T17:36:37.000Z</time>
    </trkpt>
    <trkpt lat="59.0960383415" lon="30.0078034401">
        <ele>0.0</ele>
        <time>2026-04-25T17:36:39.000Z</time>
    </trkpt>
    <trkpt lat="59.0960168839" lon="30.0077390671">
        <ele>0.0</ele>
        <time>2026-04-25T17:36:42.000Z</time>
    </trkpt>
    <trkpt lat="59.0960168839" lon="30.0076532364">
        <ele>0.0</ele>
        <time>2026-04-25T17:36:44.000Z</time>
    </trkpt>
    <trkpt lat="59.0959954262" lon="30.0075888634">
        <ele>0.0</ele>
        <time>2026-04-25T17:36:47.000Z</time>
    </trkpt>
    <trkpt lat="59.0959954262" lon="30.007545948">
        <ele>0.0</ele>
        <time>2026-04-25T17:36:49.000Z</time>
    </trkpt>
    <trkpt lat="59.0959954262" lon="30.007545948">
        <ele>0.0</ele>
        <time>2026-04-25T17:36:52.000Z</time>
    </trkpt>
    <trkpt lat="59.0959954262" lon="30.007545948">
        <ele>0.0</ele>
        <time>2026-04-25T17:36:54.000Z</time>
    </trkpt>
    <trkpt lat="59.0959954262" lon="30.0075030327">
        <ele>0.0</ele>
        <time>2026-04-25T17:36:57.000Z</time>
    </trkpt>
    <trkpt lat="59.0960168839" lon="30.0074386597">
        <ele>0.0</ele>
        <time>2026-04-25T17:36:59.000Z</time>
    </trkpt>
    <trkpt lat="59.0960168839" lon="30.007417202">
        <ele>0.0</ele>
        <time>2026-04-25T17:37:02.000Z</time>
    </trkpt>
    <trkpt lat="59.0960168839" lon="30.007417202">
        <ele>0.0</ele>
        <time>2026-04-25T17:37:04.000Z</time>
    </trkpt>
    <trkpt lat="59.0960168839" lon="30.007417202">
        <ele>0.0</ele>
        <time>2026-04-25T17:37:07.000Z</time>
    </trkpt>
    <trkpt lat="59.0960168839" lon="30.007417202">
        <ele>0.0</ele>
        <time>2026-04-25T17:37:09.000Z</time>
    </trkpt>
    <trkpt lat="59.0960168839" lon="30.007417202">
        <ele>0.0</ele>
        <time>2026-04-25T17:37:12.000Z</time>
    </trkpt>
    <trkpt lat="59.0960168839" lon="30.0073957443">
        <ele>0.0</ele>
        <time>2026-04-25T17:37:14.000Z</time>
    </trkpt>
    <trkpt lat="59.0959954262" lon="30.007288456">
        <ele>0.0</ele>
        <time>2026-04-25T17:37:17.000Z</time>
    </trkpt>
    <trkpt lat="59.0959739685" lon="30.0071811676">
        <ele>0.0</ele>
        <time>2026-04-25T17:37:19.000Z</time>
    </trkpt>
    <trkpt lat="59.0959525108" lon="30.0070953369">
        <ele>0.0</ele>
        <time>2026-04-25T17:37:22.000Z</time>
    </trkpt>
    <trkpt lat="59.0959310532" lon="30.0069880486">
        <ele>0.0</ele>
        <time>2026-04-25T17:37:24.000Z</time>
    </trkpt>
    <trkpt lat="59.0959310532" lon="30.0069665909">
        <ele>0.0</ele>
        <time>2026-04-25T17:37:27.000Z</time>
    </trkpt>
    <trkpt lat="59.0959095955" lon="30.0068807602">
        <ele>0.0</ele>
        <time>2026-04-25T17:37:29.000Z</time>
    </trkpt>
    <trkpt lat="59.0958881378" lon="30.0068593025">
        <ele>0.0</ele>
        <time>2026-04-25T17:37:32.000Z</time>
    </trkpt>
    <trkpt lat="59.0958881378" lon="30.0068378448">
        <ele>0.0</ele>
        <time>2026-04-25T17:37:34.000Z</time>
    </trkpt>
    <trkpt lat="59.0958666801" lon="30.0067949295">
        <ele>0.0</ele>
        <time>2026-04-25T17:37:37.000Z</time>
    </trkpt>
    <trkpt lat="59.0958666801" lon="30.0067305565">
        <ele>0.0</ele>
        <time>2026-04-25T17:37:39.000Z</time>
    </trkpt>
    <trkpt lat="59.0958666801" lon="30.0067090988">
        <ele>0.0</ele>
        <time>2026-04-25T17:37:42.000Z</time>
    </trkpt>
    <trkpt lat="59.0958666801" lon="30.0066876411">
        <ele>0.0</ele>
        <time>2026-04-25T17:37:44.000Z</time>
    </trkpt>
    <trkpt lat="59.0958666801" lon="30.0066232681">
        <ele>0.0</ele>
        <time>2026-04-25T17:37:47.000Z</time>
    </trkpt>
    <trkpt lat="59.0958452225" lon="30.0065374374">
        <ele>0.0</ele>
        <time>2026-04-25T17:37:49.000Z</time>
    </trkpt>
    <trkpt lat="59.0958452225" lon="30.0065159798">
        <ele>0.0</ele>
        <time>2026-04-25T17:37:52.000Z</time>
    </trkpt>
    <trkpt lat="59.0958237648" lon="30.0064516068">
        <ele>0.0</ele>
        <time>2026-04-25T17:37:54.000Z</time>
    </trkpt>
    <trkpt lat="59.0958237648" lon="30.0064086914">
        <ele>0.0</ele>
        <time>2026-04-25T17:37:57.000Z</time>
    </trkpt>
    <trkpt lat="59.0958237648" lon="30.0063657761">
        <ele>0.0</ele>
        <time>2026-04-25T17:37:59.000Z</time>
    </trkpt>
    <trkpt lat="59.0958237648" lon="30.0063228607">
        <ele>0.0</ele>
        <time>2026-04-25T17:38:02.000Z</time>
    </trkpt>
    <trkpt lat="59.0958023071" lon="30.00623703">
        <ele>0.0</ele>
        <time>2026-04-25T17:38:04.000Z</time>
    </trkpt>
    <trkpt lat="59.0958023071" lon="30.006172657">
        <ele>0.0</ele>
        <time>2026-04-25T17:38:07.000Z</time>
    </trkpt>
    <trkpt lat="59.0958237648" lon="30.006108284">
        <ele>0.0</ele>
        <time>2026-04-25T17:38:09.000Z</time>
    </trkpt>
    <trkpt lat="59.0958237648" lon="30.006043911">
        <ele>0.0</ele>
        <time>2026-04-25T17:38:12.000Z</time>
    </trkpt>
    <trkpt lat="59.0958023071" lon="30.005979538">
        <ele>0.0</ele>
        <time>2026-04-25T17:38:14.000Z</time>
    </trkpt>
    <trkpt lat="59.0958023071" lon="30.0059366226">
        <ele>0.0</ele>
        <time>2026-04-25T17:38:17.000Z</time>
    </trkpt>
    <trkpt lat="59.0957808495" lon="30.0058937073">
        <ele>0.0</ele>
        <time>2026-04-25T17:38:19.000Z</time>
    </trkpt>
    <trkpt lat="59.0957593918" lon="30.0058722496">
        <ele>0.0</ele>
        <time>2026-04-25T17:38:22.000Z</time>
    </trkpt>
    <trkpt lat="59.0957593918" lon="30.0058293343">
        <ele>0.0</ele>
        <time>2026-04-25T17:38:24.000Z</time>
    </trkpt>
    <trkpt lat="59.0957593918" lon="30.0058293343">
        <ele>0.0</ele>
        <time>2026-04-25T17:38:27.000Z</time>
    </trkpt>
    <trkpt lat="59.0957593918" lon="30.0057435036">
        <ele>0.0</ele>
        <time>2026-04-25T17:38:29.000Z</time>
    </trkpt>
    <trkpt lat="59.0957593918" lon="30.0056791306">
        <ele>0.0</ele>
        <time>2026-04-25T17:38:32.000Z</time>
    </trkpt>
    <trkpt lat="59.0957379341" lon="30.0055932999">
        <ele>0.0</ele>
        <time>2026-04-25T17:38:34.000Z</time>
    </trkpt>
    <trkpt lat="59.0957164764" lon="30.0054860115">
        <ele>0.0</ele>
        <time>2026-04-25T17:38:37.000Z</time>
    </trkpt>
    <trkpt lat="59.0957164764" lon="30.0054216385">
        <ele>0.0</ele>
        <time>2026-04-25T17:38:39.000Z</time>
    </trkpt>
    <trkpt lat="59.0956735611" lon="30.0053787231">
        <ele>0.0</ele>
        <time>2026-04-25T17:38:42.000Z</time>
    </trkpt>
    <trkpt lat="59.0956735611" lon="30.0053572655">
        <ele>0.0</ele>
        <time>2026-04-25T17:38:44.000Z</time>
    </trkpt>
    <trkpt lat="59.0956735611" lon="30.0053572655">
        <ele>0.0</ele>
        <time>2026-04-25T17:38:47.000Z</time>
    </trkpt>
    <trkpt lat="59.0956521034" lon="30.0053358078">
        <ele>0.0</ele>
        <time>2026-04-25T17:38:49.000Z</time>
    </trkpt>
    <trkpt lat="59.0956306458" lon="30.0052714348">
        <ele>0.0</ele>
        <time>2026-04-25T17:38:52.000Z</time>
    </trkpt>
    <trkpt lat="59.0956091881" lon="30.0052499771">
        <ele>0.0</ele>
        <time>2026-04-25T17:38:54.000Z</time>
    </trkpt>
    <trkpt lat="59.0956091881" lon="30.0052285194">
        <ele>0.0</ele>
        <time>2026-04-25T17:38:57.000Z</time>
    </trkpt>
    <trkpt lat="59.0956091881" lon="30.0052070618">
        <ele>0.0</ele>
        <time>2026-04-25T17:38:59.000Z</time>
    </trkpt>
    <trkpt lat="59.0956091881" lon="30.0052070618">
        <ele>0.0</ele>
        <time>2026-04-25T17:39:02.000Z</time>
    </trkpt>
    <trkpt lat="59.0956091881" lon="30.0051212311">
        <ele>0.0</ele>
        <time>2026-04-25T17:39:04.000Z</time>
    </trkpt>
    <trkpt lat="59.0955877304" lon="30.0050568581">
        <ele>0.0</ele>
        <time>2026-04-25T17:39:07.000Z</time>
    </trkpt>
    <trkpt lat="59.0955448151" lon="30.004992485">
        <ele>0.0</ele>
        <time>2026-04-25T17:39:09.000Z</time>
    </trkpt>
    <trkpt lat="59.0955448151" lon="30.004928112">
        <ele>0.0</ele>
        <time>2026-04-25T17:39:12.000Z</time>
    </trkpt>
    <trkpt lat="59.0955448151" lon="30.004928112">
        <ele>0.0</ele>
        <time>2026-04-25T17:39:14.000Z</time>
    </trkpt>
    <trkpt lat="59.0955448151" lon="30.0049066544">
        <ele>0.0</ele>
        <time>2026-04-25T17:39:17.000Z</time>
    </trkpt>
    <trkpt lat="59.0955233574" lon="30.004799366">
        <ele>0.0</ele>
        <time>2026-04-25T17:39:19.000Z</time>
    </trkpt>
    <trkpt lat="59.0955233574" lon="30.004734993">
        <ele>0.0</ele>
        <time>2026-04-25T17:39:22.000Z</time>
    </trkpt>
    <trkpt lat="59.0955018997" lon="30.0046491623">
        <ele>0.0</ele>
        <time>2026-04-25T17:39:24.000Z</time>
    </trkpt>
    <trkpt lat="59.0955018997" lon="30.0046277046">
        <ele>0.0</ele>
        <time>2026-04-25T17:39:27.000Z</time>
    </trkpt>
    <trkpt lat="59.095480442" lon="30.0046062469">
        <ele>0.0</ele>
        <time>2026-04-25T17:39:29.000Z</time>
    </trkpt>
    <trkpt lat="59.095480442" lon="30.0046062469">
        <ele>0.0</ele>
        <time>2026-04-25T17:39:32.000Z</time>
    </trkpt>
    <trkpt lat="59.095480442" lon="30.0045847893">
        <ele>0.0</ele>
        <time>2026-04-25T17:39:34.000Z</time>
    </trkpt>
    <trkpt lat="59.095480442" lon="30.0045418739">
        <ele>0.0</ele>
        <time>2026-04-25T17:39:37.000Z</time>
    </trkpt>
    <trkpt lat="59.095480442" lon="30.0044775009">
        <ele>0.0</ele>
        <time>2026-04-25T17:39:39.000Z</time>
    </trkpt>
    <trkpt lat="59.095480442" lon="30.0044131279">
        <ele>0.0</ele>
        <time>2026-04-25T17:39:42.000Z</time>
    </trkpt>
    <trkpt lat="59.0954589844" lon="30.0043272972">
        <ele>0.0</ele>
        <time>2026-04-25T17:39:44.000Z</time>
    </trkpt>
    <trkpt lat="59.0954375267" lon="30.0043272972">
        <ele>0.0</ele>
        <time>2026-04-25T17:39:47.000Z</time>
    </trkpt>
    <trkpt lat="59.095416069" lon="30.0043272972">
        <ele>0.0</ele>
        <time>2026-04-25T17:39:49.000Z</time>
    </trkpt>
    <trkpt lat="59.095416069" lon="30.0043058395">
        <ele>0.0</ele>
        <time>2026-04-25T17:39:52.000Z</time>
    </trkpt>
    <trkpt lat="59.0953946114" lon="30.0042629242">
        <ele>0.0</ele>
        <time>2026-04-25T17:39:54.000Z</time>
    </trkpt>
    <trkpt lat="59.0953946114" lon="30.0042200089">
        <ele>0.0</ele>
        <time>2026-04-25T17:39:57.000Z</time>
    </trkpt>
    <trkpt lat="59.0953946114" lon="30.0041770935">
        <ele>0.0</ele>
        <time>2026-04-25T17:39:59.000Z</time>
    </trkpt>
    <trkpt lat="59.0953946114" lon="30.0041341782">
        <ele>0.0</ele>
        <time>2026-04-25T17:40:02.000Z</time>
    </trkpt>
    <trkpt lat="59.0953946114" lon="30.0040698051">
        <ele>0.0</ele>
        <time>2026-04-25T17:40:04.000Z</time>
    </trkpt>
    <trkpt lat="59.0953946114" lon="30.0040054321">
        <ele>0.0</ele>
        <time>2026-04-25T17:40:07.000Z</time>
    </trkpt>
    <trkpt lat="59.0953946114" lon="30.0039410591">
        <ele>0.0</ele>
        <time>2026-04-25T17:40:09.000Z</time>
    </trkpt>
    <trkpt lat="59.0953946114" lon="30.0039410591">
        <ele>0.0</ele>
        <time>2026-04-25T17:40:12.000Z</time>
    </trkpt>
    <trkpt lat="59.0953946114" lon="30.0038981438">
        <ele>0.0</ele>
        <time>2026-04-25T17:40:14.000Z</time>
    </trkpt>
    <trkpt lat="59.0953946114" lon="30.0038766861">
        <ele>0.0</ele>
        <time>2026-04-25T17:40:17.000Z</time>
    </trkpt>
    <trkpt lat="59.0953946114" lon="30.0038337708">
        <ele>0.0</ele>
        <time>2026-04-25T17:40:19.000Z</time>
    </trkpt>
    <trkpt lat="59.0953946114" lon="30.0037908554">
        <ele>0.0</ele>
        <time>2026-04-25T17:40:22.000Z</time>
    </trkpt>
    <trkpt lat="59.095351696" lon="30.0037050247">
        <ele>0.0</ele>
        <time>2026-04-25T17:40:24.000Z</time>
    </trkpt>
    <trkpt lat="59.095351696" lon="30.0036406517">
        <ele>0.0</ele>
        <time>2026-04-25T17:40:27.000Z</time>
    </trkpt>
    <trkpt lat="59.095351696" lon="30.0035977364">
        <ele>0.0</ele>
        <time>2026-04-25T17:40:29.000Z</time>
    </trkpt>
    <trkpt lat="59.0953302383" lon="30.0035762787">
        <ele>0.0</ele>
        <time>2026-04-25T17:40:32.000Z</time>
    </trkpt>
    <trkpt lat="59.0953087807" lon="30.003490448">
        <ele>0.0</ele>
        <time>2026-04-25T17:40:34.000Z</time>
    </trkpt>
    <trkpt lat="59.0953087807" lon="30.003426075">
        <ele>0.0</ele>
        <time>2026-04-25T17:40:37.000Z</time>
    </trkpt>
    <trkpt lat="59.0953087807" lon="30.003361702">
        <ele>0.0</ele>
        <time>2026-04-25T17:40:39.000Z</time>
    </trkpt>
    <trkpt lat="59.095287323" lon="30.0033187866">
        <ele>0.0</ele>
        <time>2026-04-25T17:40:42.000Z</time>
    </trkpt>
    <trkpt lat="59.0952658653" lon="30.0032329559">
        <ele>0.0</ele>
        <time>2026-04-25T17:40:44.000Z</time>
    </trkpt>
    <trkpt lat="59.0952658653" lon="30.0031900406">
        <ele>0.0</ele>
        <time>2026-04-25T17:40:47.000Z</time>
    </trkpt>
    <trkpt lat="59.0952444077" lon="30.0031900406">
        <ele>0.0</ele>
        <time>2026-04-25T17:40:49.000Z</time>
    </trkpt>
    <trkpt lat="59.0952444077" lon="30.0031900406">
        <ele>0.0</ele>
        <time>2026-04-25T17:40:52.000Z</time>
    </trkpt>
    <trkpt lat="59.09522295" lon="30.0031256676">
        <ele>0.0</ele>
        <time>2026-04-25T17:40:54.000Z</time>
    </trkpt>
    <trkpt lat="59.09522295" lon="30.0030398369">
        <ele>0.0</ele>
        <time>2026-04-25T17:40:57.000Z</time>
    </trkpt>
    <trkpt lat="59.0952014923" lon="30.0029969215">
        <ele>0.0</ele>
        <time>2026-04-25T17:40:59.000Z</time>
    </trkpt>
    <trkpt lat="59.0952014923" lon="30.0029754639">
        <ele>0.0</ele>
        <time>2026-04-25T17:41:02.000Z</time>
    </trkpt>
    <trkpt lat="59.0951800346" lon="30.0029540062">
        <ele>0.0</ele>
        <time>2026-04-25T17:41:04.000Z</time>
    </trkpt>
    <trkpt lat="59.095158577" lon="30.0029110909">
        <ele>0.0</ele>
        <time>2026-04-25T17:41:07.000Z</time>
    </trkpt>
    <trkpt lat="59.0951371193" lon="30.0028252602">
        <ele>0.0</ele>
        <time>2026-04-25T17:41:09.000Z</time>
    </trkpt>
    <trkpt lat="59.0951371193" lon="30.0027823448">
        <ele>0.0</ele>
        <time>2026-04-25T17:41:12.000Z</time>
    </trkpt>
    <trkpt lat="59.0951156616" lon="30.0027179718">
        <ele>0.0</ele>
        <time>2026-04-25T17:41:14.000Z</time>
    </trkpt>
    <trkpt lat="59.0951156616" lon="30.0026965141">
        <ele>0.0</ele>
        <time>2026-04-25T17:41:17.000Z</time>
    </trkpt>
    <trkpt lat="59.0950942039" lon="30.0026321411">
        <ele>0.0</ele>
        <time>2026-04-25T17:41:19.000Z</time>
    </trkpt>
    <trkpt lat="59.0950727463" lon="30.0025677681">
        <ele>0.0</ele>
        <time>2026-04-25T17:41:22.000Z</time>
    </trkpt>
    <trkpt lat="59.0950727463" lon="30.0025463104">
        <ele>0.0</ele>
        <time>2026-04-25T17:41:24.000Z</time>
    </trkpt>
    <trkpt lat="59.0950727463" lon="30.0025248528">
        <ele>0.0</ele>
        <time>2026-04-25T17:41:27.000Z</time>
    </trkpt>
    <trkpt lat="59.0950727463" lon="30.0025248528">
        <ele>0.0</ele>
        <time>2026-04-25T17:41:29.000Z</time>
    </trkpt>
    <trkpt lat="59.0950512886" lon="30.0024819374">
        <ele>0.0</ele>
        <time>2026-04-25T17:41:32.000Z</time>
    </trkpt>
    <trkpt lat="59.0950512886" lon="30.0023531914">
        <ele>0.0</ele>
        <time>2026-04-25T17:41:34.000Z</time>
    </trkpt>
    <trkpt lat="59.0950512886" lon="30.0022888184">
        <ele>0.0</ele>
        <time>2026-04-25T17:41:37.000Z</time>
    </trkpt>
    <trkpt lat="59.0950512886" lon="30.0022244453">
        <ele>0.0</ele>
        <time>2026-04-25T17:41:39.000Z</time>
    </trkpt>
    <trkpt lat="59.0950298309" lon="30.0022244453">
        <ele>0.0</ele>
        <time>2026-04-25T17:41:42.000Z</time>
    </trkpt>
    <trkpt lat="59.0950298309" lon="30.0021600723">
        <ele>0.0</ele>
        <time>2026-04-25T17:41:44.000Z</time>
    </trkpt>
    <trkpt lat="59.0950298309" lon="30.0021386147">
        <ele>0.0</ele>
        <time>2026-04-25T17:41:47.000Z</time>
    </trkpt>
    <trkpt lat="59.0950083733" lon="30.0020956993">
        <ele>0.0</ele>
        <time>2026-04-25T17:41:49.000Z</time>
    </trkpt>
    <trkpt lat="59.0950083733" lon="30.0020956993">
        <ele>0.0</ele>
        <time>2026-04-25T17:41:52.000Z</time>
    </trkpt>
    <trkpt lat="59.0950083733" lon="30.002052784">
        <ele>0.0</ele>
        <time>2026-04-25T17:41:54.000Z</time>
    </trkpt>
    <trkpt lat="59.0949869156" lon="30.0020313263">
        <ele>0.0</ele>
        <time>2026-04-25T17:41:57.000Z</time>
    </trkpt>
    <trkpt lat="59.0949869156" lon="30.0019884109">
        <ele>0.0</ele>
        <time>2026-04-25T17:41:59.000Z</time>
    </trkpt>
    <trkpt lat="59.0949654579" lon="30.0019454956">
        <ele>0.0</ele>
        <time>2026-04-25T17:42:02.000Z</time>
    </trkpt>
    <trkpt lat="59.0949654579" lon="30.0018811226">
        <ele>0.0</ele>
        <time>2026-04-25T17:42:04.000Z</time>
    </trkpt>
    <trkpt lat="59.0949440002" lon="30.0018382072">
        <ele>0.0</ele>
        <time>2026-04-25T17:42:07.000Z</time>
    </trkpt>
    <trkpt lat="59.0949440002" lon="30.0017952919">
        <ele>0.0</ele>
        <time>2026-04-25T17:42:09.000Z</time>
    </trkpt>
    <trkpt lat="59.0949440002" lon="30.0017309189">
        <ele>0.0</ele>
        <time>2026-04-25T17:42:12.000Z</time>
    </trkpt>
    <trkpt lat="59.0949440002" lon="30.0016450882">
        <ele>0.0</ele>
        <time>2026-04-25T17:42:14.000Z</time>
    </trkpt>
    <trkpt lat="59.0949440002" lon="30.0015807152">
        <ele>0.0</ele>
        <time>2026-04-25T17:42:17.000Z</time>
    </trkpt>
    <trkpt lat="59.0949225426" lon="30.0015163422">
        <ele>0.0</ele>
        <time>2026-04-25T17:42:19.000Z</time>
    </trkpt>
    <trkpt lat="59.0949225426" lon="30.0014519691">
        <ele>0.0</ele>
        <time>2026-04-25T17:42:22.000Z</time>
    </trkpt>
    <trkpt lat="59.0949225426" lon="30.0013875961">
        <ele>0.0</ele>
        <time>2026-04-25T17:42:24.000Z</time>
    </trkpt>
    <trkpt lat="59.0949010849" lon="30.0013446808">
        <ele>0.0</ele>
        <time>2026-04-25T17:42:27.000Z</time>
    </trkpt>
    <trkpt lat="59.0949010849" lon="30.0012803078">
        <ele>0.0</ele>
        <time>2026-04-25T17:42:29.000Z</time>
    </trkpt>
    <trkpt lat="59.0948796272" lon="30.0012373924">
        <ele>0.0</ele>
        <time>2026-04-25T17:42:32.000Z</time>
    </trkpt>
    <trkpt lat="59.0948581696" lon="30.0012159348">
        <ele>0.0</ele>
        <time>2026-04-25T17:42:34.000Z</time>
    </trkpt>
    <trkpt lat="59.0948581696" lon="30.0012159348">
        <ele>0.0</ele>
        <time>2026-04-25T17:42:37.000Z</time>
    </trkpt>
    <trkpt lat="59.0948367119" lon="30.0011730194">
        <ele>0.0</ele>
        <time>2026-04-25T17:42:39.000Z</time>
    </trkpt>
    <trkpt lat="59.0948367119" lon="30.0011515617">
        <ele>0.0</ele>
        <time>2026-04-25T17:42:42.000Z</time>
    </trkpt>
    <trkpt lat="59.0948367119" lon="30.001065731">
        <ele>0.0</ele>
        <time>2026-04-25T17:42:44.000Z</time>
    </trkpt>
    <trkpt lat="59.0948367119" lon="30.0010228157">
        <ele>0.0</ele>
        <time>2026-04-25T17:42:47.000Z</time>
    </trkpt>
    <trkpt lat="59.0948367119" lon="30.0009799004">
        <ele>0.0</ele>
        <time>2026-04-25T17:42:49.000Z</time>
    </trkpt>
    <trkpt lat="59.0948367119" lon="30.0009799004">
        <ele>0.0</ele>
        <time>2026-04-25T17:42:52.000Z</time>
    </trkpt>
    <trkpt lat="59.0948367119" lon="30.0008940697">
        <ele>0.0</ele>
        <time>2026-04-25T17:42:54.000Z</time>
    </trkpt>
    <trkpt lat="59.0948367119" lon="30.0008511543">
        <ele>0.0</ele>
        <time>2026-04-25T17:42:57.000Z</time>
    </trkpt>
    <trkpt lat="59.0948152542" lon="30.0007867813">
        <ele>0.0</ele>
        <time>2026-04-25T17:42:59.000Z</time>
    </trkpt>
    <trkpt lat="59.0948152542" lon="30.0007224083">
        <ele>0.0</ele>
        <time>2026-04-25T17:43:02.000Z</time>
    </trkpt>
    <trkpt lat="59.0948152542" lon="30.0006580353">
        <ele>0.0</ele>
        <time>2026-04-25T17:43:04.000Z</time>
    </trkpt>
    <trkpt lat="59.0948152542" lon="30.0005936623">
        <ele>0.0</ele>
        <time>2026-04-25T17:43:07.000Z</time>
    </trkpt>
    <trkpt lat="59.0948152542" lon="30.0005292892">
        <ele>0.0</ele>
        <time>2026-04-25T17:43:09.000Z</time>
    </trkpt>
    <trkpt lat="59.0948152542" lon="30.0004863739">
        <ele>0.0</ele>
        <time>2026-04-25T17:43:12.000Z</time>
    </trkpt>
    <trkpt lat="59.0948152542" lon="30.0005078316">
        <ele>0.0</ele>
        <time>2026-04-25T17:43:14.000Z</time>
    </trkpt>
    <trkpt lat="59.0948152542" lon="30.0005078316">
        <ele>0.0</ele>
        <time>2026-04-25T17:43:17.000Z</time>
    </trkpt>
    <trkpt lat="59.0947937965" lon="30.0004649162">
        <ele>0.0</ele>
        <time>2026-04-25T17:43:19.000Z</time>
    </trkpt>
    <trkpt lat="59.0947937965" lon="30.0004434586">
        <ele>0.0</ele>
        <time>2026-04-25T17:43:22.000Z</time>
    </trkpt>
    <trkpt lat="59.0947937965" lon="30.0004434586">
        <ele>0.0</ele>
        <time>2026-04-25T17:43:24.000Z</time>
    </trkpt>
    <trkpt lat="59.0947937965" lon="30.0004434586">
        <ele>0.0</ele>
        <time>2026-04-25T17:43:27.000Z</time>
    </trkpt>
    <trkpt lat="59.0947723389" lon="30.0003576279">
        <ele>0.0</ele>
        <time>2026-04-25T17:43:29.000Z</time>
    </trkpt>
    <trkpt lat="59.0947508812" lon="30.0003147125">
        <ele>0.0</ele>
        <time>2026-04-25T17:43:32.000Z</time>
    </trkpt>
    <trkpt lat="59.0947294235" lon="30.0002074242">
        <ele>0.0</ele>
        <time>2026-04-25T17:43:34.000Z</time>
    </trkpt>
    <trkpt lat="59.0947079659" lon="30.0001430511">
        <ele>0.0</ele>
        <time>2026-04-25T17:43:37.000Z</time>
    </trkpt>
    <trkpt lat="59.0946650505" lon="30.0001001358">
        <ele>0.0</ele>
        <time>2026-04-25T17:43:39.000Z</time>
    </trkpt>
    <trkpt lat="59.0946650505" lon="30.0001001358">
        <ele>0.0</ele>
        <time>2026-04-25T17:43:42.000Z</time>
    </trkpt>
    <trkpt lat="59.0946435928" lon="30.0001001358">
        <ele>0.0</ele>
        <time>2026-04-25T17:43:44.000Z</time>
    </trkpt>
    <trkpt lat="59.0946435928" lon="30.0001001358">
        <ele>0.0</ele>
        <time>2026-04-25T17:43:47.000Z</time>
    </trkpt>
    <trkpt lat="59.0946221352" lon="30.0000357628">
        <ele>0.0</ele>
        <time>2026-04-25T17:43:49.000Z</time>
    </trkpt>
    <trkpt lat="59.0946435928" lon="30.0000143051">
        <ele>0.0</ele>
        <time>2026-04-25T17:43:52.000Z</time>
    </trkpt>
    <trkpt lat="59.0946221352" lon="29.9999928474">
        <ele>0.0</ele>
        <time>2026-04-25T17:43:54.000Z</time>
    </trkpt>
    <trkpt lat="59.0946221352" lon="29.9999928474">
        <ele>0.0</ele>
        <time>2026-04-25T17:43:57.000Z</time>
    </trkpt>
    <trkpt lat="59.0946435928" lon="29.9999499321">
        <ele>0.0</ele>
        <time>2026-04-25T17:43:59.000Z</time>
    </trkpt>
    <trkpt lat="59.0946435928" lon="29.9999070168">
        <ele>0.0</ele>
        <time>2026-04-25T17:44:02.000Z</time>
    </trkpt>
    <trkpt lat="59.0946221352" lon="29.9997782707">
        <ele>0.0</ele>
        <time>2026-04-25T17:44:04.000Z</time>
    </trkpt>
    <trkpt lat="59.0946006775" lon="29.99969244">
        <ele>0.0</ele>
        <time>2026-04-25T17:44:07.000Z</time>
    </trkpt>
    <trkpt lat="59.0946006775" lon="29.9996066093">
        <ele>0.0</ele>
        <time>2026-04-25T17:44:09.000Z</time>
    </trkpt>
    <trkpt lat="59.0945792198" lon="29.9995422363">
        <ele>0.0</ele>
        <time>2026-04-25T17:44:12.000Z</time>
    </trkpt>
    <trkpt lat="59.0945363045" lon="29.999499321">
        <ele>0.0</ele>
        <time>2026-04-25T17:44:14.000Z</time>
    </trkpt>
    <trkpt lat="59.0945363045" lon="29.999434948">
        <ele>0.0</ele>
        <time>2026-04-25T17:44:17.000Z</time>
    </trkpt>
    <trkpt lat="59.0945363045" lon="29.9993491173">
        <ele>0.0</ele>
        <time>2026-04-25T17:44:19.000Z</time>
    </trkpt>
    <trkpt lat="59.0945148468" lon="29.9993062019">
        <ele>0.0</ele>
        <time>2026-04-25T17:44:22.000Z</time>
    </trkpt>
    <trkpt lat="59.0945148468" lon="29.9992632866">
        <ele>0.0</ele>
        <time>2026-04-25T17:44:24.000Z</time>
    </trkpt>
    <trkpt lat="59.0945148468" lon="29.9992632866">
        <ele>0.0</ele>
        <time>2026-04-25T17:44:27.000Z</time>
    </trkpt>
    <trkpt lat="59.0944933891" lon="29.9991989136">
        <ele>0.0</ele>
        <time>2026-04-25T17:44:29.000Z</time>
    </trkpt>
    <trkpt lat="59.0944933891" lon="29.9991345406">
        <ele>0.0</ele>
        <time>2026-04-25T17:44:32.000Z</time>
    </trkpt>
    <trkpt lat="59.0944933891" lon="29.9990487099">
        <ele>0.0</ele>
        <time>2026-04-25T17:44:34.000Z</time>
    </trkpt>
    <trkpt lat="59.0944933891" lon="29.9989843369">
        <ele>0.0</ele>
        <time>2026-04-25T17:44:37.000Z</time>
    </trkpt>
    <trkpt lat="59.0944933891" lon="29.9989843369">
        <ele>0.0</ele>
        <time>2026-04-25T17:44:39.000Z</time>
    </trkpt>
    <trkpt lat="59.0944933891" lon="29.9989843369">
        <ele>0.0</ele>
        <time>2026-04-25T17:44:42.000Z</time>
    </trkpt>
    <trkpt lat="59.0944933891" lon="29.9989843369">
        <ele>0.0</ele>
        <time>2026-04-25T17:44:44.000Z</time>
    </trkpt>
    <trkpt lat="59.0944933891" lon="29.9989414215">
        <ele>0.0</ele>
        <time>2026-04-25T17:44:47.000Z</time>
    </trkpt>
    <trkpt lat="59.0944933891" lon="29.9988770485">
        <ele>0.0</ele>
        <time>2026-04-25T17:44:49.000Z</time>
    </trkpt>
    <trkpt lat="59.0944933891" lon="29.9988770485">
        <ele>0.0</ele>
        <time>2026-04-25T17:44:52.000Z</time>
    </trkpt>
    <trkpt lat="59.0944933891" lon="29.9988985062">
        <ele>0.0</ele>
        <time>2026-04-25T17:44:54.000Z</time>
    </trkpt>
    <trkpt lat="59.0944933891" lon="29.9988770485">
        <ele>0.0</ele>
        <time>2026-04-25T17:44:57.000Z</time>
    </trkpt>
    <trkpt lat="59.0945148468" lon="29.9988555908">
        <ele>0.0</ele>
        <time>2026-04-25T17:44:59.000Z</time>
    </trkpt>
    <trkpt lat="59.0944933891" lon="29.9988341331">
        <ele>0.0</ele>
        <time>2026-04-25T17:45:02.000Z</time>
    </trkpt>
    <trkpt lat="59.0944719315" lon="29.9987053871">
        <ele>0.0</ele>
        <time>2026-04-25T17:45:04.000Z</time>
    </trkpt>
    <trkpt lat="59.0944504738" lon="29.9986195564">
        <ele>0.0</ele>
        <time>2026-04-25T17:45:07.000Z</time>
    </trkpt>
    <trkpt lat="59.0944290161" lon="29.9985122681">
        <ele>0.0</ele>
        <time>2026-04-25T17:45:09.000Z</time>
    </trkpt>
    <trkpt lat="59.0944290161" lon="29.9984264374">
        <ele>0.0</ele>
        <time>2026-04-25T17:45:12.000Z</time>
    </trkpt>
    <trkpt lat="59.0944290161" lon="29.998319149">
        <ele>0.0</ele>
        <time>2026-04-25T17:45:14.000Z</time>
    </trkpt>
    <trkpt lat="59.0944075584" lon="29.9982762337">
        <ele>0.0</ele>
        <time>2026-04-25T17:45:17.000Z</time>
    </trkpt>
    <trkpt lat="59.0944075584" lon="29.9982118607">
        <ele>0.0</ele>
        <time>2026-04-25T17:45:19.000Z</time>
    </trkpt>
    <trkpt lat="59.0944075584" lon="29.99812603">
        <ele>0.0</ele>
        <time>2026-04-25T17:45:22.000Z</time>
    </trkpt>
    <trkpt lat="59.0943861008" lon="29.9980831146">
        <ele>0.0</ele>
        <time>2026-04-25T17:45:24.000Z</time>
    </trkpt>
    <trkpt lat="59.0943861008" lon="29.998061657">
        <ele>0.0</ele>
        <time>2026-04-25T17:45:27.000Z</time>
    </trkpt>
    <trkpt lat="59.0943861008" lon="29.998061657">
        <ele>0.0</ele>
        <time>2026-04-25T17:45:29.000Z</time>
    </trkpt>
    <trkpt lat="59.0943861008" lon="29.9980831146">
        <ele>0.0</ele>
        <time>2026-04-25T17:45:32.000Z</time>
    </trkpt>
    <trkpt lat="59.0943646431" lon="29.9980831146">
        <ele>0.0</ele>
        <time>2026-04-25T17:45:34.000Z</time>
    </trkpt>
    <trkpt lat="59.0943217278" lon="29.9980401993">
        <ele>0.0</ele>
        <time>2026-04-25T17:45:37.000Z</time>
    </trkpt>
    <trkpt lat="59.0942788124" lon="29.9979543686">
        <ele>0.0</ele>
        <time>2026-04-25T17:45:39.000Z</time>
    </trkpt>
    <trkpt lat="59.0942573547" lon="29.9978899956">
        <ele>0.0</ele>
        <time>2026-04-25T17:45:42.000Z</time>
    </trkpt>
    <trkpt lat="59.0942358971" lon="29.9978470802">
        <ele>0.0</ele>
        <time>2026-04-25T17:45:44.000Z</time>
    </trkpt>
    <trkpt lat="59.0942358971" lon="29.9978470802">
        <ele>0.0</ele>
        <time>2026-04-25T17:45:47.000Z</time>
    </trkpt>
    <trkpt lat="59.0942358971" lon="29.9978256226">
        <ele>0.0</ele>
        <time>2026-04-25T17:45:49.000Z</time>
    </trkpt>
    <trkpt lat="59.0942144394" lon="29.9978041649">
        <ele>0.0</ele>
        <time>2026-04-25T17:45:52.000Z</time>
    </trkpt>
    <trkpt lat="59.0941929817" lon="29.9977397919">
        <ele>0.0</ele>
        <time>2026-04-25T17:45:54.000Z</time>
    </trkpt>
    <trkpt lat="59.0941929817" lon="29.9976325035">
        <ele>0.0</ele>
        <time>2026-04-25T17:45:57.000Z</time>
    </trkpt>
    <trkpt lat="59.094171524" lon="29.9975681305">
        <ele>0.0</ele>
        <time>2026-04-25T17:45:59.000Z</time>
    </trkpt>
    <trkpt lat="59.0941929817" lon="29.9975466728">
        <ele>0.0</ele>
        <time>2026-04-25T17:46:02.000Z</time>
    </trkpt>
    <trkpt lat="59.0941929817" lon="29.9975466728">
        <ele>0.0</ele>
        <time>2026-04-25T17:46:04.000Z</time>
    </trkpt>
    <trkpt lat="59.0941929817" lon="29.9975466728">
        <ele>0.0</ele>
        <time>2026-04-25T17:46:07.000Z</time>
    </trkpt>
    <trkpt lat="59.094171524" lon="29.9974822998">
        <ele>0.0</ele>
        <time>2026-04-25T17:46:09.000Z</time>
    </trkpt>
    <trkpt lat="59.094171524" lon="29.9974393845">
        <ele>0.0</ele>
        <time>2026-04-25T17:46:12.000Z</time>
    </trkpt>
    <trkpt lat="59.094171524" lon="29.9974393845">
        <ele>0.0</ele>
        <time>2026-04-25T17:46:14.000Z</time>
    </trkpt>
    <trkpt lat="59.094171524" lon="29.9974393845">
        <ele>0.0</ele>
        <time>2026-04-25T17:46:17.000Z</time>
    </trkpt>
    <trkpt lat="59.094171524" lon="29.9974393845">
        <ele>0.0</ele>
        <time>2026-04-25T17:46:19.000Z</time>
    </trkpt>
    <trkpt lat="59.0941500664" lon="29.9973320961">
        <ele>0.0</ele>
        <time>2026-04-25T17:46:22.000Z</time>
    </trkpt>
    <trkpt lat="59.0941286087" lon="29.9972248077">
        <ele>0.0</ele>
        <time>2026-04-25T17:46:24.000Z</time>
    </trkpt>
    <trkpt lat="59.0941286087" lon="29.9971604347">
        <ele>0.0</ele>
        <time>2026-04-25T17:46:27.000Z</time>
    </trkpt>
    <trkpt lat="59.094107151" lon="29.9971389771">
        <ele>0.0</ele>
        <time>2026-04-25T17:46:29.000Z</time>
    </trkpt>
    <trkpt lat="59.094107151" lon="29.9971389771">
        <ele>0.0</ele>
        <time>2026-04-25T17:46:32.000Z</time>
    </trkpt>
    <trkpt lat="59.0940856934" lon="29.9971389771">
        <ele>0.0</ele>
        <time>2026-04-25T17:46:34.000Z</time>
    </trkpt>
    <trkpt lat="59.0940642357" lon="29.9971389771">
        <ele>0.0</ele>
        <time>2026-04-25T17:46:37.000Z</time>
    </trkpt>
    <trkpt lat="59.0940856934" lon="29.9970960617">
        <ele>0.0</ele>
        <time>2026-04-25T17:46:39.000Z</time>
    </trkpt>
    <trkpt lat="59.0940642357" lon="29.997010231">
        <ele>0.0</ele>
        <time>2026-04-25T17:46:42.000Z</time>
    </trkpt>
    <trkpt lat="59.0940642357" lon="29.996881485">
        <ele>0.0</ele>
        <time>2026-04-25T17:46:44.000Z</time>
    </trkpt>
    <trkpt lat="59.094042778" lon="29.9967956543">
        <ele>0.0</ele>
        <time>2026-04-25T17:46:47.000Z</time>
    </trkpt>
    <trkpt lat="59.0940213203" lon="29.9967098236">
        <ele>0.0</ele>
        <time>2026-04-25T17:46:49.000Z</time>
    </trkpt>
    <trkpt lat="59.0940213203" lon="29.9966454506">
        <ele>0.0</ele>
        <time>2026-04-25T17:46:52.000Z</time>
    </trkpt>
    <trkpt lat="59.0939998627" lon="29.9965381622">
        <ele>0.0</ele>
        <time>2026-04-25T17:46:54.000Z</time>
    </trkpt>
    <trkpt lat="59.0939998627" lon="29.9964952469">
        <ele>0.0</ele>
        <time>2026-04-25T17:46:57.000Z</time>
    </trkpt>
    <trkpt lat="59.093978405" lon="29.9964952469">
        <ele>0.0</ele>
        <time>2026-04-25T17:46:59.000Z</time>
    </trkpt>
    <trkpt lat="59.093978405" lon="29.9964737892">
        <ele>0.0</ele>
        <time>2026-04-25T17:47:02.000Z</time>
    </trkpt>
    <trkpt lat="59.0939569473" lon="29.9964737892">
        <ele>0.0</ele>
        <time>2026-04-25T17:47:04.000Z</time>
    </trkpt>
    <trkpt lat="59.0939569473" lon="29.9964737892">
        <ele>0.0</ele>
        <time>2026-04-25T17:47:07.000Z</time>
    </trkpt>
    <trkpt lat="59.0939569473" lon="29.9964094162">
        <ele>0.0</ele>
        <time>2026-04-25T17:47:09.000Z</time>
    </trkpt>
    <trkpt lat="59.0939569473" lon="29.9963450432">
        <ele>0.0</ele>
        <time>2026-04-25T17:47:12.000Z</time>
    </trkpt>
    <trkpt lat="59.0939354897" lon="29.9962806702">
        <ele>0.0</ele>
        <time>2026-04-25T17:47:14.000Z</time>
    </trkpt>
    <trkpt lat="59.093914032" lon="29.9961948395">
        <ele>0.0</ele>
        <time>2026-04-25T17:47:17.000Z</time>
    </trkpt>
    <trkpt lat="59.0938925743" lon="29.9960660934">
        <ele>0.0</ele>
        <time>2026-04-25T17:47:19.000Z</time>
    </trkpt>
    <trkpt lat="59.0938925743" lon="29.9959802628">
        <ele>0.0</ele>
        <time>2026-04-25T17:47:22.000Z</time>
    </trkpt>
    <trkpt lat="59.0938711166" lon="29.9958944321">
        <ele>0.0</ele>
        <time>2026-04-25T17:47:24.000Z</time>
    </trkpt>
    <trkpt lat="59.093849659" lon="29.9958300591">
        <ele>0.0</ele>
        <time>2026-04-25T17:47:27.000Z</time>
    </trkpt>
    <trkpt lat="59.093849659" lon="29.9957871437">
        <ele>0.0</ele>
        <time>2026-04-25T17:47:29.000Z</time>
    </trkpt>
    <trkpt lat="59.0938282013" lon="29.9957442284">
        <ele>0.0</ele>
        <time>2026-04-25T17:47:32.000Z</time>
    </trkpt>
    <trkpt lat="59.0938067436" lon="29.995701313">
        <ele>0.0</ele>
        <time>2026-04-25T17:47:34.000Z</time>
    </trkpt>
    <trkpt lat="59.0938067436" lon="29.99563694">
        <ele>0.0</ele>
        <time>2026-04-25T17:47:37.000Z</time>
    </trkpt>
    <trkpt lat="59.0938067436" lon="29.995572567">
        <ele>0.0</ele>
        <time>2026-04-25T17:47:39.000Z</time>
    </trkpt>
    <trkpt lat="59.0938067436" lon="29.9955511093">
        <ele>0.0</ele>
        <time>2026-04-25T17:47:42.000Z</time>
    </trkpt>
    <trkpt lat="59.0937852859" lon="29.9955296516">
        <ele>0.0</ele>
        <time>2026-04-25T17:47:44.000Z</time>
    </trkpt>
    <trkpt lat="59.0937852859" lon="29.9955296516">
        <ele>0.0</ele>
        <time>2026-04-25T17:47:47.000Z</time>
    </trkpt>
    <trkpt lat="59.0937852859" lon="29.9955296516">
        <ele>0.0</ele>
        <time>2026-04-25T17:47:49.000Z</time>
    </trkpt>
    <trkpt lat="59.0937852859" lon="29.9955296516">
        <ele>0.0</ele>
        <time>2026-04-25T17:47:52.000Z</time>
    </trkpt>
    <trkpt lat="59.0937638283" lon="29.995443821">
        <ele>0.0</ele>
        <time>2026-04-25T17:47:54.000Z</time>
    </trkpt>
    <trkpt lat="59.0937852859" lon="29.9953579903">
        <ele>0.0</ele>
        <time>2026-04-25T17:47:57.000Z</time>
    </trkpt>
    <trkpt lat="59.0937638283" lon="29.9952721596">
        <ele>0.0</ele>
        <time>2026-04-25T17:47:59.000Z</time>
    </trkpt>
    <trkpt lat="59.0937638283" lon="29.9952292442">
        <ele>0.0</ele>
        <time>2026-04-25T17:48:02.000Z</time>
    </trkpt>
    <trkpt lat="59.0937423706" lon="29.9951863289">
        <ele>0.0</ele>
        <time>2026-04-25T17:48:04.000Z</time>
    </trkpt>
    <trkpt lat="59.0937209129" lon="29.9951434135">
        <ele>0.0</ele>
        <time>2026-04-25T17:48:07.000Z</time>
    </trkpt>
    <trkpt lat="59.0937209129" lon="29.9951004982">
        <ele>0.0</ele>
        <time>2026-04-25T17:48:09.000Z</time>
    </trkpt>
    <trkpt lat="59.0937209129" lon="29.9951004982">
        <ele>0.0</ele>
        <time>2026-04-25T17:48:12.000Z</time>
    </trkpt>
    <trkpt lat="59.0937209129" lon="29.9951004982">
        <ele>0.0</ele>
        <time>2026-04-25T17:48:14.000Z</time>
    </trkpt>
    <trkpt lat="59.0937209129" lon="29.9951219559">
        <ele>0.0</ele>
        <time>2026-04-25T17:48:17.000Z</time>
    </trkpt>
    <trkpt lat="59.0937209129" lon="29.9951863289">
        <ele>0.0</ele>
        <time>2026-04-25T17:48:19.000Z</time>
    </trkpt>
    <trkpt lat="59.0937209129" lon="29.9951863289">
        <ele>0.0</ele>
        <time>2026-04-25T17:48:22.000Z</time>
    </trkpt>
    <trkpt lat="59.0937209129" lon="29.9951863289">
        <ele>0.0</ele>
        <time>2026-04-25T17:48:24.000Z</time>
    </trkpt>
    <trkpt lat="59.0937209129" lon="29.9951863289">
        <ele>0.0</ele>
        <time>2026-04-25T17:48:27.000Z</time>
    </trkpt>
    <trkpt lat="59.0936994553" lon="29.9950575829">
        <ele>0.0</ele>
        <time>2026-04-25T17:48:29.000Z</time>
    </trkpt>
    <trkpt lat="59.0936779976" lon="29.9949932098">
        <ele>0.0</ele>
        <time>2026-04-25T17:48:32.000Z</time>
    </trkpt>
    <trkpt lat="59.0936779976" lon="29.9949073792">
        <ele>0.0</ele>
        <time>2026-04-25T17:48:34.000Z</time>
    </trkpt>
    <trkpt lat="59.0936779976" lon="29.9948430061">
        <ele>0.0</ele>
        <time>2026-04-25T17:48:37.000Z</time>
    </trkpt>
    <trkpt lat="59.0936565399" lon="29.9947357178">
        <ele>0.0</ele>
        <time>2026-04-25T17:48:39.000Z</time>
    </trkpt>
    <trkpt lat="59.0936565399" lon="29.9946713448">
        <ele>0.0</ele>
        <time>2026-04-25T17:48:42.000Z</time>
    </trkpt>
    <trkpt lat="59.0936350822" lon="29.9945640564">
        <ele>0.0</ele>
        <time>2026-04-25T17:48:44.000Z</time>
    </trkpt>
    <trkpt lat="59.0936136246" lon="29.9945211411">
        <ele>0.0</ele>
        <time>2026-04-25T17:48:47.000Z</time>
    </trkpt>
    <trkpt lat="59.0936136246" lon="29.9944996834">
        <ele>0.0</ele>
        <time>2026-04-25T17:48:49.000Z</time>
    </trkpt>
    <trkpt lat="59.0936136246" lon="29.9944996834">
        <ele>0.0</ele>
        <time>2026-04-25T17:48:52.000Z</time>
    </trkpt>
    <trkpt lat="59.0936136246" lon="29.9944996834">
        <ele>0.0</ele>
        <time>2026-04-25T17:48:54.000Z</time>
    </trkpt>
    <trkpt lat="59.0936136246" lon="29.9944353104">
        <ele>0.0</ele>
        <time>2026-04-25T17:48:57.000Z</time>
    </trkpt>
    <trkpt lat="59.0936136246" lon="29.9943494797">
        <ele>0.0</ele>
        <time>2026-04-25T17:48:59.000Z</time>
    </trkpt>
    <trkpt lat="59.0936136246" lon="29.994328022">
        <ele>0.0</ele>
        <time>2026-04-25T17:49:02.000Z</time>
    </trkpt>
    <trkpt lat="59.0936136246" lon="29.994328022">
        <ele>0.0</ele>
        <time>2026-04-25T17:49:04.000Z</time>
    </trkpt>
    <trkpt lat="59.0936136246" lon="29.9943065643">
        <ele>0.0</ele>
        <time>2026-04-25T17:49:07.000Z</time>
    </trkpt>
    <trkpt lat="59.0936136246" lon="29.9942851067">
        <ele>0.0</ele>
        <time>2026-04-25T17:49:09.000Z</time>
    </trkpt>
    <trkpt lat="59.0936136246" lon="29.9942851067">
        <ele>0.0</ele>
        <time>2026-04-25T17:49:12.000Z</time>
    </trkpt>
    <trkpt lat="59.0936136246" lon="29.9941778183">
        <ele>0.0</ele>
        <time>2026-04-25T17:49:14.000Z</time>
    </trkpt>
    <trkpt lat="59.0935921669" lon="29.9940919876">
        <ele>0.0</ele>
        <time>2026-04-25T17:49:17.000Z</time>
    </trkpt>
    <trkpt lat="59.0935921669" lon="29.9940276146">
        <ele>0.0</ele>
        <time>2026-04-25T17:49:19.000Z</time>
    </trkpt>
    <trkpt lat="59.0935707092" lon="29.9939632416">
        <ele>0.0</ele>
        <time>2026-04-25T17:49:22.000Z</time>
    </trkpt>
    <trkpt lat="59.0935492516" lon="29.9938774109">
        <ele>0.0</ele>
        <time>2026-04-25T17:49:24.000Z</time>
    </trkpt>
    <trkpt lat="59.0935492516" lon="29.9938559532">
        <ele>0.0</ele>
        <time>2026-04-25T17:49:27.000Z</time>
    </trkpt>
    <trkpt lat="59.0935277939" lon="29.9937701225">
        <ele>0.0</ele>
        <time>2026-04-25T17:49:29.000Z</time>
    </trkpt>
    <trkpt lat="59.0935277939" lon="29.9937057495">
        <ele>0.0</ele>
        <time>2026-04-25T17:49:32.000Z</time>
    </trkpt>
    <trkpt lat="59.0935063362" lon="29.9935984612">
        <ele>0.0</ele>
        <time>2026-04-25T17:49:34.000Z</time>
    </trkpt>
    <trkpt lat="59.0934848785" lon="29.9935555458">
        <ele>0.0</ele>
        <time>2026-04-25T17:49:37.000Z</time>
    </trkpt>
    <trkpt lat="59.0934848785" lon="29.9934911728">
        <ele>0.0</ele>
        <time>2026-04-25T17:49:39.000Z</time>
    </trkpt>
    <trkpt lat="59.0934848785" lon="29.9934697151">
        <ele>0.0</ele>
        <time>2026-04-25T17:49:42.000Z</time>
    </trkpt>
    <trkpt lat="59.0934634209" lon="29.9934053421">
        <ele>0.0</ele>
        <time>2026-04-25T17:49:44.000Z</time>
    </trkpt>
    <trkpt lat="59.0934634209" lon="29.9934053421">
        <ele>0.0</ele>
        <time>2026-04-25T17:49:47.000Z</time>
    </trkpt>
    <trkpt lat="59.0934848785" lon="29.9933409691">
        <ele>0.0</ele>
        <time>2026-04-25T17:49:49.000Z</time>
    </trkpt>
    <trkpt lat="59.0934634209" lon="29.9933195114">
        <ele>0.0</ele>
        <time>2026-04-25T17:49:52.000Z</time>
    </trkpt>
    <trkpt lat="59.0934634209" lon="29.9933195114">
        <ele>0.0</ele>
        <time>2026-04-25T17:49:54.000Z</time>
    </trkpt>
    <trkpt lat="59.0934634209" lon="29.9932765961">
        <ele>0.0</ele>
        <time>2026-04-25T17:49:57.000Z</time>
    </trkpt>
    <trkpt lat="59.0934419632" lon="29.9932122231">
        <ele>0.0</ele>
        <time>2026-04-25T17:49:59.000Z</time>
    </trkpt>
    <trkpt lat="59.0934205055" lon="29.9931907654">
        <ele>0.0</ele>
        <time>2026-04-25T17:50:02.000Z</time>
    </trkpt>
    <trkpt lat="59.0934205055" lon="29.9931693077">
        <ele>0.0</ele>
        <time>2026-04-25T17:50:04.000Z</time>
    </trkpt>
    <trkpt lat="59.0934205055" lon="29.9931693077">
        <ele>0.0</ele>
        <time>2026-04-25T17:50:07.000Z</time>
    </trkpt>
    <trkpt lat="59.0934205055" lon="29.9931693077">
        <ele>0.0</ele>
        <time>2026-04-25T17:50:09.000Z</time>
    </trkpt>
    <trkpt lat="59.0934205055" lon="29.9931693077">
        <ele>0.0</ele>
        <time>2026-04-25T17:50:12.000Z</time>
    </trkpt>
    <trkpt lat="59.0933990479" lon="29.9931263924">
        <ele>0.0</ele>
        <time>2026-04-25T17:50:14.000Z</time>
    </trkpt>
    <trkpt lat="59.0933990479" lon="29.993083477">
        <ele>0.0</ele>
        <time>2026-04-25T17:50:17.000Z</time>
    </trkpt>
    <trkpt lat="59.0933990479" lon="29.9929976463">
        <ele>0.0</ele>
        <time>2026-04-25T17:50:19.000Z</time>
    </trkpt>
    <trkpt lat="59.0933990479" lon="29.9929761887">
        <ele>0.0</ele>
        <time>2026-04-25T17:50:22.000Z</time>
    </trkpt>
    <trkpt lat="59.0933990479" lon="29.9929761887">
        <ele>0.0</ele>
        <time>2026-04-25T17:50:24.000Z</time>
    </trkpt>
    <trkpt lat="59.0933990479" lon="29.9929761887">
        <ele>0.0</ele>
        <time>2026-04-25T17:50:27.000Z</time>
    </trkpt>
    <trkpt lat="59.0933990479" lon="29.9929761887">
        <ele>0.0</ele>
        <time>2026-04-25T17:50:29.000Z</time>
    </trkpt>
    <trkpt lat="59.0933990479" lon="29.9929761887">
        <ele>0.0</ele>
        <time>2026-04-25T17:50:32.000Z</time>
    </trkpt>
    <trkpt lat="59.0933990479" lon="29.9929761887">
        <ele>0.0</ele>
        <time>2026-04-25T17:50:34.000Z</time>
    </trkpt>
    <trkpt lat="59.0933990479" lon="29.9929761887">
        <ele>0.0</ele>
        <time>2026-04-25T17:50:37.000Z</time>
    </trkpt>
    <trkpt lat="59.0933990479" lon="29.9929761887">
        <ele>0.0</ele>
        <time>2026-04-25T17:50:39.000Z</time>
    </trkpt>
    <trkpt lat="59.0933990479" lon="29.9929761887">
        <ele>0.0</ele>
        <time>2026-04-25T17:50:42.000Z</time>
    </trkpt>
    <trkpt lat="59.0933775902" lon="29.9929761887">
        <ele>0.0</ele>
        <time>2026-04-25T17:50:44.000Z</time>
    </trkpt>
    <trkpt lat="59.0933775902" lon="29.9929976463">
        <ele>0.0</ele>
        <time>2026-04-25T17:50:47.000Z</time>
    </trkpt>
    <trkpt lat="59.0933775902" lon="29.9929332733">
        <ele>0.0</ele>
        <time>2026-04-25T17:50:49.000Z</time>
    </trkpt>
    <trkpt lat="59.0933775902" lon="29.9928689003">
        <ele>0.0</ele>
        <time>2026-04-25T17:50:52.000Z</time>
    </trkpt>
    <trkpt lat="59.0933775902" lon="29.9927616119">
        <ele>0.0</ele>
        <time>2026-04-25T17:50:54.000Z</time>
    </trkpt>
    <trkpt lat="59.0933775902" lon="29.9927186966">
        <ele>0.0</ele>
        <time>2026-04-25T17:50:57.000Z</time>
    </trkpt>
    <trkpt lat="59.0933775902" lon="29.9927186966">
        <ele>0.0</ele>
        <time>2026-04-25T17:50:59.000Z</time>
    </trkpt>
    <trkpt lat="59.0933775902" lon="29.9927186966">
        <ele>0.0</ele>
        <time>2026-04-25T17:51:02.000Z</time>
    </trkpt>
    <trkpt lat="59.0933561325" lon="29.9926328659">
        <ele>0.0</ele>
        <time>2026-04-25T17:51:04.000Z</time>
    </trkpt>
    <trkpt lat="59.0933346748" lon="29.9925899506">
        <ele>0.0</ele>
        <time>2026-04-25T17:51:07.000Z</time>
    </trkpt>
    <trkpt lat="59.0933346748" lon="29.9925899506">
        <ele>0.0</ele>
        <time>2026-04-25T17:51:09.000Z</time>
    </trkpt>
    <trkpt lat="59.0933346748" lon="29.9925470352">
        <ele>0.0</ele>
        <time>2026-04-25T17:51:12.000Z</time>
    </trkpt>
    <trkpt lat="59.0933346748" lon="29.9924612045">
        <ele>0.0</ele>
        <time>2026-04-25T17:51:14.000Z</time>
    </trkpt>
    <trkpt lat="59.0933346748" lon="29.9923753738">
        <ele>0.0</ele>
        <time>2026-04-25T17:51:17.000Z</time>
    </trkpt>
    <trkpt lat="59.0933132172" lon="29.9922680855">
        <ele>0.0</ele>
        <time>2026-04-25T17:51:19.000Z</time>
    </trkpt>
    <trkpt lat="59.0932917595" lon="29.9922037125">
        <ele>0.0</ele>
        <time>2026-04-25T17:51:22.000Z</time>
    </trkpt>
    <trkpt lat="59.0932917595" lon="29.9921393394">
        <ele>0.0</ele>
        <time>2026-04-25T17:51:24.000Z</time>
    </trkpt>
    <trkpt lat="59.0932917595" lon="29.9921178818">
        <ele>0.0</ele>
        <time>2026-04-25T17:51:27.000Z</time>
    </trkpt>
    <trkpt lat="59.0932917595" lon="29.9921178818">
        <ele>0.0</ele>
        <time>2026-04-25T17:51:29.000Z</time>
    </trkpt>
    <trkpt lat="59.0932917595" lon="29.9921178818">
        <ele>0.0</ele>
        <time>2026-04-25T17:51:32.000Z</time>
    </trkpt>
    <trkpt lat="59.0932917595" lon="29.9921178818">
        <ele>0.0</ele>
        <time>2026-04-25T17:51:34.000Z</time>
    </trkpt>
    <trkpt lat="59.0932917595" lon="29.9921178818">
        <ele>0.0</ele>
        <time>2026-04-25T17:51:37.000Z</time>
    </trkpt>
    <trkpt lat="59.0932703018" lon="29.9920749664">
        <ele>0.0</ele>
        <time>2026-04-25T17:51:39.000Z</time>
    </trkpt>
    <trkpt lat="59.0932488441" lon="29.9920105934">
        <ele>0.0</ele>
        <time>2026-04-25T17:51:42.000Z</time>
    </trkpt>
    <trkpt lat="59.0932273865" lon="29.9919033051">
        <ele>0.0</ele>
        <time>2026-04-25T17:51:44.000Z</time>
    </trkpt>
    <trkpt lat="59.0932273865" lon="29.9918603897">
        <ele>0.0</ele>
        <time>2026-04-25T17:51:47.000Z</time>
    </trkpt>
    <trkpt lat="59.0932059288" lon="29.9917960167">
        <ele>0.0</ele>
        <time>2026-04-25T17:51:49.000Z</time>
    </trkpt>
    <trkpt lat="59.0932059288" lon="29.9917316437">
        <ele>0.0</ele>
        <time>2026-04-25T17:51:52.000Z</time>
    </trkpt>
    <trkpt lat="59.0931844711" lon="29.991645813">
        <ele>0.0</ele>
        <time>2026-04-25T17:51:54.000Z</time>
    </trkpt>
    <trkpt lat="59.0931844711" lon="29.9916243553">
        <ele>0.0</ele>
        <time>2026-04-25T17:51:57.000Z</time>
    </trkpt>
    <trkpt lat="59.0931844711" lon="29.99158144">
        <ele>0.0</ele>
        <time>2026-04-25T17:51:59.000Z</time>
    </trkpt>
    <trkpt lat="59.0931630135" lon="29.9915385246">
        <ele>0.0</ele>
        <time>2026-04-25T17:52:02.000Z</time>
    </trkpt>
    <trkpt lat="59.0931630135" lon="29.991517067">
        <ele>0.0</ele>
        <time>2026-04-25T17:52:04.000Z</time>
    </trkpt>
    <trkpt lat="59.0931630135" lon="29.9914956093">
        <ele>0.0</ele>
        <time>2026-04-25T17:52:07.000Z</time>
    </trkpt>
    <trkpt lat="59.0931415558" lon="29.9914097786">
        <ele>0.0</ele>
        <time>2026-04-25T17:52:09.000Z</time>
    </trkpt>
    <trkpt lat="59.0931200981" lon="29.9913668633">
        <ele>0.0</ele>
        <time>2026-04-25T17:52:12.000Z</time>
    </trkpt>
    <trkpt lat="59.0931200981" lon="29.9913239479">
        <ele>0.0</ele>
        <time>2026-04-25T17:52:14.000Z</time>
    </trkpt>
    <trkpt lat="59.0931200981" lon="29.9913024902">
        <ele>0.0</ele>
        <time>2026-04-25T17:52:17.000Z</time>
    </trkpt>
    <trkpt lat="59.0930986404" lon="29.9912381172">
        <ele>0.0</ele>
        <time>2026-04-25T17:52:19.000Z</time>
    </trkpt>
    <trkpt lat="59.0930986404" lon="29.9912381172">
        <ele>0.0</ele>
        <time>2026-04-25T17:52:22.000Z</time>
    </trkpt>
    <trkpt lat="59.0930986404" lon="29.9911952019">
        <ele>0.0</ele>
        <time>2026-04-25T17:52:27.000Z</time>
    </trkpt>
    <trkpt lat="59.0930771828" lon="29.9911308289">
        <ele>0.0</ele>
        <time>2026-04-25T17:52:29.000Z</time>
    </trkpt>
    <trkpt lat="59.0930771828" lon="29.9910879135">
        <ele>0.0</ele>
        <time>2026-04-25T17:52:32.000Z</time>
    </trkpt>
    <trkpt lat="59.0930557251" lon="29.9910664558">
        <ele>0.0</ele>
        <time>2026-04-25T17:52:34.000Z</time>
    </trkpt>
    <trkpt lat="59.0930557251" lon="29.9910449982">
        <ele>0.0</ele>
        <time>2026-04-25T17:52:37.000Z</time>
    </trkpt>
    <trkpt lat="59.0930342674" lon="29.9910020828">
        <ele>0.0</ele>
        <time>2026-04-25T17:52:39.000Z</time>
    </trkpt>
    <trkpt lat="59.0930342674" lon="29.9909591675">
        <ele>0.0</ele>
        <time>2026-04-25T17:52:42.000Z</time>
    </trkpt>
    <trkpt lat="59.0930128098" lon="29.9908733368">
        <ele>0.0</ele>
        <time>2026-04-25T17:52:44.000Z</time>
    </trkpt>
    <trkpt lat="59.0930128098" lon="29.9908518791">
        <ele>0.0</ele>
        <time>2026-04-25T17:52:47.000Z</time>
    </trkpt>
    <trkpt lat="59.0930128098" lon="29.9907875061">
        <ele>0.0</ele>
        <time>2026-04-25T17:52:49.000Z</time>
    </trkpt>
    <trkpt lat="59.0929913521" lon="29.9907445908">
        <ele>0.0</ele>
        <time>2026-04-25T17:52:52.000Z</time>
    </trkpt>
    <trkpt lat="59.0929913521" lon="29.9907016754">
        <ele>0.0</ele>
        <time>2026-04-25T17:52:54.000Z</time>
    </trkpt>
    <trkpt lat="59.0929913521" lon="29.9906587601">
        <ele>0.0</ele>
        <time>2026-04-25T17:52:57.000Z</time>
    </trkpt>
    <trkpt lat="59.0929913521" lon="29.9906158447">
        <ele>0.0</ele>
        <time>2026-04-25T17:52:59.000Z</time>
    </trkpt>
    <trkpt lat="59.0929698944" lon="29.9905729294">
        <ele>0.0</ele>
        <time>2026-04-25T17:53:02.000Z</time>
    </trkpt>
    <trkpt lat="59.0929698944" lon="29.990530014">
        <ele>0.0</ele>
        <time>2026-04-25T17:53:04.000Z</time>
    </trkpt>
    <trkpt lat="59.0929484367" lon="29.9904870987">
        <ele>0.0</ele>
        <time>2026-04-25T17:53:07.000Z</time>
    </trkpt>
    <trkpt lat="59.0929484367" lon="29.9904441833">
        <ele>0.0</ele>
        <time>2026-04-25T17:53:09.000Z</time>
    </trkpt>
    <trkpt lat="59.0929484367" lon="29.9904227257">
        <ele>0.0</ele>
        <time>2026-04-25T17:53:12.000Z</time>
    </trkpt>
    <trkpt lat="59.0929269791" lon="29.990336895">
        <ele>0.0</ele>
        <time>2026-04-25T17:53:14.000Z</time>
    </trkpt>
    <trkpt lat="59.0929269791" lon="29.990272522">
        <ele>0.0</ele>
        <time>2026-04-25T17:53:17.000Z</time>
    </trkpt>
    <trkpt lat="59.0929269791" lon="29.990208149">
        <ele>0.0</ele>
        <time>2026-04-25T17:53:19.000Z</time>
    </trkpt>
    <trkpt lat="59.0929055214" lon="29.9901652336">
        <ele>0.0</ele>
        <time>2026-04-25T17:53:22.000Z</time>
    </trkpt>
    <trkpt lat="59.0929055214" lon="29.9901652336">
        <ele>0.0</ele>
        <time>2026-04-25T17:53:24.000Z</time>
    </trkpt>
    <trkpt lat="59.0929055214" lon="29.9901652336">
        <ele>0.0</ele>
        <time>2026-04-25T17:53:27.000Z</time>
    </trkpt>
    <trkpt lat="59.0929055214" lon="29.9901652336">
        <ele>0.0</ele>
        <time>2026-04-25T17:53:29.000Z</time>
    </trkpt>
    <trkpt lat="59.0929055214" lon="29.9901652336">
        <ele>0.0</ele>
        <time>2026-04-25T17:53:32.000Z</time>
    </trkpt>
    <trkpt lat="59.0929055214" lon="29.9901652336">
        <ele>0.0</ele>
        <time>2026-04-25T17:53:34.000Z</time>
    </trkpt>
    <trkpt lat="59.0929055214" lon="29.9901437759">
        <ele>0.0</ele>
        <time>2026-04-25T17:53:37.000Z</time>
    </trkpt>
    <trkpt lat="59.0928840637" lon="29.9900579453">
        <ele>0.0</ele>
        <time>2026-04-25T17:53:39.000Z</time>
    </trkpt>
    <trkpt lat="59.092862606" lon="29.9899935722">
        <ele>0.0</ele>
        <time>2026-04-25T17:53:42.000Z</time>
    </trkpt>
    <trkpt lat="59.092862606" lon="29.9899291992">
        <ele>0.0</ele>
        <time>2026-04-25T17:53:44.000Z</time>
    </trkpt>
    <trkpt lat="59.0928411484" lon="29.9898648262">
        <ele>0.0</ele>
        <time>2026-04-25T17:53:47.000Z</time>
    </trkpt>
    <trkpt lat="59.0928196907" lon="29.9898004532">
        <ele>0.0</ele>
        <time>2026-04-25T17:53:49.000Z</time>
    </trkpt>
    <trkpt lat="59.0928196907" lon="29.9897360802">
        <ele>0.0</ele>
        <time>2026-04-25T17:53:52.000Z</time>
    </trkpt>
    <trkpt lat="59.092798233" lon="29.9896717072">
        <ele>0.0</ele>
        <time>2026-04-25T17:53:54.000Z</time>
    </trkpt>
    <trkpt lat="59.092798233" lon="29.9896287918">
        <ele>0.0</ele>
        <time>2026-04-25T17:53:57.000Z</time>
    </trkpt>
    <trkpt lat="59.0927767754" lon="29.9896073341">
        <ele>0.0</ele>
        <time>2026-04-25T17:53:59.000Z</time>
    </trkpt>
    <trkpt lat="59.0927767754" lon="29.9896073341">
        <ele>0.0</ele>
        <time>2026-04-25T17:54:02.000Z</time>
    </trkpt>
    <trkpt lat="59.0927767754" lon="29.9895644188">
        <ele>0.0</ele>
        <time>2026-04-25T17:54:04.000Z</time>
    </trkpt>
    <trkpt lat="59.0927553177" lon="29.9895215034">
        <ele>0.0</ele>
        <time>2026-04-25T17:54:07.000Z</time>
    </trkpt>
    <trkpt lat="59.0927553177" lon="29.9894571304">
        <ele>0.0</ele>
        <time>2026-04-25T17:54:09.000Z</time>
    </trkpt>
    <trkpt lat="59.0927553177" lon="29.9894142151">
        <ele>0.0</ele>
        <time>2026-04-25T17:54:12.000Z</time>
    </trkpt>
    <trkpt lat="59.0927553177" lon="29.9893498421">
        <ele>0.0</ele>
        <time>2026-04-25T17:54:14.000Z</time>
    </trkpt>
    <trkpt lat="59.09273386" lon="29.9893283844">
        <ele>0.0</ele>
        <time>2026-04-25T17:54:17.000Z</time>
    </trkpt>
    <trkpt lat="59.09273386" lon="29.9892854691">
        <ele>0.0</ele>
        <time>2026-04-25T17:54:19.000Z</time>
    </trkpt>
    <trkpt lat="59.09273386" lon="29.9892425537">
        <ele>0.0</ele>
        <time>2026-04-25T17:54:22.000Z</time>
    </trkpt>
    <trkpt lat="59.09273386" lon="29.989221096">
        <ele>0.0</ele>
        <time>2026-04-25T17:54:24.000Z</time>
    </trkpt>
    <trkpt lat="59.09273386" lon="29.9891996384">
        <ele>0.0</ele>
        <time>2026-04-25T17:54:27.000Z</time>
    </trkpt>
    <trkpt lat="59.0927553177" lon="29.989156723">
        <ele>0.0</ele>
        <time>2026-04-25T17:54:29.000Z</time>
    </trkpt>
    <trkpt lat="59.09273386" lon="29.9891138077">
        <ele>0.0</ele>
        <time>2026-04-25T17:54:32.000Z</time>
    </trkpt>
    <trkpt lat="59.09273386" lon="29.98909235">
        <ele>0.0</ele>
        <time>2026-04-25T17:54:34.000Z</time>
    </trkpt>
    <trkpt lat="59.0927124023" lon="29.9890494347">
        <ele>0.0</ele>
        <time>2026-04-25T17:54:37.000Z</time>
    </trkpt>
    <trkpt lat="59.0926909447" lon="29.9889850616">
        <ele>0.0</ele>
        <time>2026-04-25T17:54:39.000Z</time>
    </trkpt>
    <trkpt lat="59.0926909447" lon="29.9889421463">
        <ele>0.0</ele>
        <time>2026-04-25T17:54:42.000Z</time>
    </trkpt>
    <trkpt lat="59.092669487" lon="29.9888777733">
        <ele>0.0</ele>
        <time>2026-04-25T17:54:44.000Z</time>
    </trkpt>
    <trkpt lat="59.0926480293" lon="29.9888563156">
        <ele>0.0</ele>
        <time>2026-04-25T17:54:47.000Z</time>
    </trkpt>
    <trkpt lat="59.0926480293" lon="29.9888563156">
        <ele>0.0</ele>
        <time>2026-04-25T17:54:49.000Z</time>
    </trkpt>
    <trkpt lat="59.0926480293" lon="29.9888563156">
        <ele>0.0</ele>
        <time>2026-04-25T17:54:52.000Z</time>
    </trkpt>
    <trkpt lat="59.0926480293" lon="29.9888134003">
        <ele>0.0</ele>
        <time>2026-04-25T17:54:54.000Z</time>
    </trkpt>
    <trkpt lat="59.0926265717" lon="29.9887919426">
        <ele>0.0</ele>
        <time>2026-04-25T17:54:57.000Z</time>
    </trkpt>
    <trkpt lat="59.092605114" lon="29.9887061119">
        <ele>0.0</ele>
        <time>2026-04-25T17:54:59.000Z</time>
    </trkpt>
    <trkpt lat="59.092605114" lon="29.9886417389">
        <ele>0.0</ele>
        <time>2026-04-25T17:55:02.000Z</time>
    </trkpt>
    <trkpt lat="59.092605114" lon="29.9885344505">
        <ele>0.0</ele>
        <time>2026-04-25T17:55:04.000Z</time>
    </trkpt>
    <trkpt lat="59.0925836563" lon="29.9884915352">
        <ele>0.0</ele>
        <time>2026-04-25T17:55:07.000Z</time>
    </trkpt>
    <trkpt lat="59.0925621986" lon="29.9884057045">
        <ele>0.0</ele>
        <time>2026-04-25T17:55:09.000Z</time>
    </trkpt>
    <trkpt lat="59.092540741" lon="29.9883413315">
        <ele>0.0</ele>
        <time>2026-04-25T17:55:12.000Z</time>
    </trkpt>
    <trkpt lat="59.092540741" lon="29.9882769585">
        <ele>0.0</ele>
        <time>2026-04-25T17:55:14.000Z</time>
    </trkpt>
    <trkpt lat="59.0925192833" lon="29.9882769585">
        <ele>0.0</ele>
        <time>2026-04-25T17:55:17.000Z</time>
    </trkpt>
    <trkpt lat="59.0925192833" lon="29.9882769585">
        <ele>0.0</ele>
        <time>2026-04-25T17:55:19.000Z</time>
    </trkpt>
    <trkpt lat="59.0925192833" lon="29.9883198738">
        <ele>0.0</ele>
        <time>2026-04-25T17:55:22.000Z</time>
    </trkpt>
    <trkpt lat="59.0924978256" lon="29.9883198738">
        <ele>0.0</ele>
        <time>2026-04-25T17:55:24.000Z</time>
    </trkpt>
    <trkpt lat="59.0924978256" lon="29.9882984161">
        <ele>0.0</ele>
        <time>2026-04-25T17:55:27.000Z</time>
    </trkpt>
    <trkpt lat="59.0924978256" lon="29.9882984161">
        <ele>0.0</ele>
        <time>2026-04-25T17:55:29.000Z</time>
    </trkpt>
    <trkpt lat="59.0924978256" lon="29.9882984161">
        <ele>0.0</ele>
        <time>2026-04-25T17:55:32.000Z</time>
    </trkpt>
    <trkpt lat="59.0924978256" lon="29.9882984161">
        <ele>0.0</ele>
        <time>2026-04-25T17:55:34.000Z</time>
    </trkpt>
    <trkpt lat="59.0924978256" lon="29.9882769585">
        <ele>0.0</ele>
        <time>2026-04-25T17:55:37.000Z</time>
    </trkpt>
    <trkpt lat="59.0924978256" lon="29.9882769585">
        <ele>0.0</ele>
        <time>2026-04-25T17:55:39.000Z</time>
    </trkpt>
    <trkpt lat="59.0924978256" lon="29.9882769585">
        <ele>0.0</ele>
        <time>2026-04-25T17:55:42.000Z</time>
    </trkpt>
    <trkpt lat="59.0924978256" lon="29.9882769585">
        <ele>0.0</ele>
        <time>2026-04-25T17:55:44.000Z</time>
    </trkpt>
    <trkpt lat="59.0924978256" lon="29.9882769585">
        <ele>0.0</ele>
        <time>2026-04-25T17:55:47.000Z</time>
    </trkpt>
    <trkpt lat="59.0924978256" lon="29.9881482124">
        <ele>0.0</ele>
        <time>2026-04-25T17:55:49.000Z</time>
    </trkpt>
    <trkpt lat="59.092476368" lon="29.9880194664">
        <ele>0.0</ele>
        <time>2026-04-25T17:55:52.000Z</time>
    </trkpt>
    <trkpt lat="59.092476368" lon="29.9878907204">
        <ele>0.0</ele>
        <time>2026-04-25T17:55:54.000Z</time>
    </trkpt>
    <trkpt lat="59.09249285010738" lon="29.987760633230213">
        <ele>0.0</ele>
        <time>2026-04-25T17:56:00.158Z</time>
    </trkpt>
    </trkseg>
</trk>
</gpx>